Date time  Uvelocity_cm/s Vvelocity_cm/s W_velocity_cm/s horizontalSpeedCareful_cm/s TotalSpeedCareful_cm/s HorizontalWindDirection_deg WindElevation_deg SpeedOfSound_cm/sec Temperature_Kelvin pressure_mb2009/04/23 06:59:59.9     116     62     18    132    134  61.6   8.0  33972  286.41 0855.10
2009/04/23 07:00:00.0      97    105     39    144    150  42.8  15.2  33954  286.10 0855.10
2009/04/23 07:00:00.1     102     74     30    127    131  54.0  13.7  33962  286.22 0855.10
2009/04/23 07:00:00.2      99    -17    113    101    151 100.1  53.7  33980  286.52 0855.10
2009/04/23 07:00:00.3     131     26    149    134    200  78.5  53.5  33990  286.69 0855.10
2009/04/23 07:00:00.4      67     59    152     90    176  48.2  67.0  33990  286.71 0855.10
2009/04/23 07:00:00.5       5     39    116     40    122   8.0  80.7  33988  286.66 0855.10
2009/04/23 07:00:00.6     -12      0     74     13     75 274.4  90.0  33986  286.62 0855.10
2009/04/23 07:00:00.7     -61    -27     32     67     74 245.6  27.1  33984  286.59 0855.10
2009/04/23 07:00:00.8     -94    -89    -33    130    135 226.4 -14.5  33980  286.52 0855.10
2009/04/23 07:00:00.9     -98   -110    -13    148    149 221.5  -5.1  33978  286.49 0855.10
2009/04/23 07:00:01.0     -78    -89      4    119    120 221.0   2.3  33974  286.44 0855.10
2009/04/23 07:00:01.1    -112    -33    -37    117    122 253.2 -22.8  33978  286.51 0855.10
2009/04/23 07:00:01.2    -197    -36    -66    201    212 259.6 -18.3  33986  286.62 0855.10
2009/04/23 07:00:01.3    -177    -48    -36    184    188 254.9 -11.1  33982  286.56 0855.10
2009/04/23 07:00:01.4    -164    -83    -60    184    194 243.1 -18.1  33988  286.66 0855.10
2009/04/23 07:00:01.5    -171    -77    -24    188    190 245.6  -7.3  33988  286.67 0855.10
2009/04/23 07:00:01.6    -181    -88     -6    202    203 244.0  -1.8  33994  286.78 0855.10
2009/04/23 07:00:01.7    -155    -75    -20    173    175 244.0  -6.9  33986  286.62 0855.10
2009/04/23 07:00:01.8    -145    -59     -1    157    158 247.8  -0.5  33994  286.78 0855.10
2009/04/23 07:00:01.9     -67    -86    -12    110    111 217.8  -6.7  33978  286.51 0855.10
2009/04/23 07:00:02.0     -54    -87    -28    103    107 212.1 -15.4  33972  286.41 0855.10
2009/04/23 07:00:02.2     -71    -61     -3     94     95 229.1  -2.2  33982  286.56 0855.10
2009/04/23 07:00:02.3    -100    -70    -38    123    129 234.9 -17.5  33962  286.22 0855.10
2009/04/23 07:00:02.4    -156    -73    -21    173    175 244.9  -7.2  33932  285.71 0855.10
2009/04/23 07:00:02.5    -154    -90    -41    179    184 239.8 -12.9  33928  285.66 0855.10
2009/04/23 07:00:02.6    -207    -63    -35    217    220 252.9  -9.4  33936  285.80 0855.11
2009/04/23 07:00:02.7    -214    -46    -29    219    221 257.8  -7.7  33954  286.08 0855.11
2009/04/23 07:00:02.8    -220    -50     -4    226    227 257.0  -1.3  33958  286.17 0855.11
2009/04/23 07:00:02.9    -225    -25    -29    227    229 263.6  -7.3  33964  286.27 0855.11
2009/04/23 07:00:03.0    -181    -22    -23    183    185 263.0  -7.3  33952  286.07 0855.11
2009/04/23 07:00:03.1    -146    -89     35    172    176 238.5  11.6  33956  286.14 0855.11
2009/04/23 07:00:03.2    -161    -87    -49    183    190 241.6 -15.0  33960  286.20 0855.11
2009/04/23 07:00:03.3    -180    -72    -40    194    199 248.2 -11.9  33958  286.15 0855.11
2009/04/23 07:00:03.4    -132    -56      7    144    145 246.9   2.9  33950  286.03 0855.11
2009/04/23 07:00:03.5     -64    -39     12     76     77 238.5   9.0  33948  285.98 0855.11
2009/04/23 07:00:03.6     -72    -23     38     76     84 251.8  28.7  33944  285.92 0855.11
2009/04/23 07:00:03.7     -53    -69     31     88     94 217.4  19.4  33944  285.93 0855.11
2009/04/23 07:00:03.8     -55    -51     38     76     84 226.9  28.7  33942  285.90 0855.11
2009/04/23 07:00:03.9     -33    -15     68     37     77 244.7  68.9  33940  285.85 0855.11
2009/04/23 07:00:04.0     -41    -23     71     48     85 240.2  63.2  33944  285.92 0855.11
2009/04/23 07:00:04.1     -72    -59     71     94    117 230.5  40.7  33946  285.97 0855.11
2009/04/23 07:00:04.2     -31    -49     41     59     71 212.6  38.6  33948  285.98 0855.11
2009/04/23 07:00:04.3     -25    -23     46     35     57 226.9  58.5  33948  286.00 0855.11
2009/04/23 07:00:04.4    -102    -74     47    127    135 234.0  20.9  33956  286.14 0855.11
2009/04/23 07:00:04.5     -59    -93     26    111    115 212.5  13.2  33948  286.00 0855.11
2009/04/23 07:00:04.6     -29    -97     45    102    111 196.5  25.7  33946  285.97 0855.11
2009/04/23 07:00:04.7     -15   -105     71    107    128 188.1  36.5  33948  285.98 0855.11
2009/04/23 07:00:04.8     -26   -112     41    116    123 193.4  20.0  33942  285.88 0855.11
2009/04/23 07:00:04.9     -63    -99     44    118    125 212.6  21.0  33948  285.98 0855.11
2009/04/23 07:00:05.0    -105   -105     72    149    165 225.1  27.8  33984  286.61 0855.11
2009/04/23 07:00:05.1    -121   -107     75    162    178 228.6  26.4  33976  286.46 0855.11
2009/04/23 07:00:05.2    -115   -122    112    168    201 223.4  36.7  33962  286.24 0855.11
2009/04/23 07:00:05.3    -115   -122    131    168    213 223.4  41.7  33952  286.07 0855.11
2009/04/23 07:00:05.4    -131    -58    106    144    178 246.0  39.9  33952  286.05 0855.11
2009/04/23 07:00:05.5    -155    -79     94    175    198 242.9  30.6  33948  285.98 0855.11
2009/04/23 07:00:05.6    -124   -121     28    174    177 225.8   9.3  33940  285.87 0855.11
2009/04/23 07:00:05.7    -173    -95     66    198    209 241.2  18.6  33938  285.83 0855.11
2009/04/23 07:00:05.8     -84    -50     45     98    107 239.3  26.6  33932  285.73 0855.11
2009/04/23 07:00:05.9      35     28     21     46     50  51.4  27.1  33936  285.78 0855.11
2009/04/23 07:00:06.0      98     47     69    109    129  64.2  35.5  33940  285.85 0855.11
2009/04/23 07:00:06.1      45     58     94     74    119  37.8  57.9  33940  285.87 0855.11
2009/04/23 07:00:06.2      15     17     87     24     90  41.4  84.9  33942  285.90 0855.11
2009/04/23 07:00:06.3      58     22     84     63    105  69.2  60.0  33940  285.87 0855.11
2009/04/23 07:00:06.4     113     31     90    118    148  74.5  41.6  33942  285.88 0855.11
2009/04/23 07:00:06.5     103     48     74    114    135  64.7  35.6  33942  285.90 0855.11
2009/04/23 07:00:06.6     136     49     71    145    161  70.1  28.0  33936  285.78 0855.11
2009/04/23 07:00:06.7     131     61     70    145    161  64.8  27.4  33938  285.82 0855.11
2009/04/23 07:00:06.8     121     39     64    128    143  71.8  28.7  33942  285.88 0855.11
2009/04/23 07:00:06.9      80     39     93     90    129  63.8  50.7  33934  285.75 0855.11
2009/04/23 07:00:07.0      47     77     85     91    124  31.6  48.5  33946  285.95 0855.11
2009/04/23 07:00:07.1      37     36     76     52     92  45.9  62.6  33952  286.07 0855.11
2009/04/23 07:00:07.2      30     63     44     70     82  25.5  35.5  33976  286.46 0855.11
2009/04/23 07:00:07.3      81     48     34     95    100  59.3  20.0  33952  286.05 0855.11
2009/04/23 07:00:07.4      84     -2     75     85    113  91.7  46.4  33940  285.87 0855.11
2009/04/23 07:00:07.5     125     29     81    129    152  76.8  35.5  33934  285.76 0855.11
2009/04/23 07:00:07.6     106     88    108    138    175  50.4  42.2  33956  286.12 0855.11
2009/04/23 07:00:07.7     155    112     12    192    193  54.0   3.6  33980  286.54 0855.11
2009/04/23 07:00:07.8     203    121     46    237    242  59.1  11.1  34000  286.85 0855.11
2009/04/23 07:00:07.9     213    176    103    277    295  50.5  21.3  34008  286.99 0855.11
2009/04/23 07:00:08.0     212    192     99    287    304  47.8  19.2  33998  286.84 0855.11
2009/04/23 07:00:08.1     237    141     -6    276    277  59.3  -1.3  33994  286.77 0855.11
2009/04/23 07:00:08.2     214    213     36    303    306  45.1   6.9  34028  287.34 0855.11
2009/04/23 07:00:08.3     247    135    137    282    313  61.4  27.9  34022  287.22 0855.11
2009/04/23 07:00:08.4     143    147    115    206    235  44.3  31.4  34016  287.15 0855.11
2009/04/23 07:00:08.5     164    130    132    210    248  51.6  35.5  34012  287.06 0855.11
2009/04/23 07:00:08.6     221     65    113    231    257  73.6  28.2  34000  286.85 0855.11
2009/04/23 07:00:08.7     267     29    112    269    291  83.8  24.1  33994  286.75 0855.11
2009/04/23 07:00:08.8     280     92     69    295    303  71.8  13.2  33992  286.72 0855.11
2009/04/23 07:00:08.9     341     71    135    349    374  78.2  22.4  33978  286.51 0855.11
2009/04/23 07:00:09.0     305     95    153    320    354  72.7  27.3  33974  286.43 0855.11
2009/04/23 07:00:09.1     301    107    130    320    345  70.3  23.4  33970  286.37 0855.11
2009/04/23 07:00:09.2     214     95    140    235    273  66.0  33.5  33964  286.25 0855.11
2009/04/23 07:00:09.3     236    121    125    266    293  62.9  27.1  33962  286.23 0855.11
2009/04/23 07:00:09.4     173    118    114    210    238  55.8  30.8  33964  286.25 0855.11
2009/04/23 07:00:09.5     170    140     62    221    230  50.4  15.8  33962  286.24 0855.11
2009/04/23 07:00:09.6     123    181     57    220    228  34.3  14.5  33964  286.27 0855.11
2009/04/23 07:00:09.7     137    179     40    226    230  37.6  10.1  33966  286.30 0855.11
2009/04/23 07:00:09.8     151    125      5    197    198  50.4   1.6  33972  286.41 0855.11
2009/04/23 07:00:09.9      78    122    -50    146    155  32.6 -18.9  33968  286.34 0855.11
2009/04/23 07:00:10.0      57    103     18    118    120  29.0   8.9  33964  286.25 0855.11
2009/04/23 07:00:10.1      63     99     18    118    120  32.5   8.9  33970  286.37 0855.11
2009/04/23 07:00:10.2      60     77    -12     98     99  37.8  -7.3  33972  286.41 0855.11
2009/04/23 07:00:10.3      76    106    -41    131    137  35.6 -22.3  33966  286.30 0855.11
2009/04/23 07:00:10.4      84     85     19    120    122  44.7   9.0  33978  286.51 0855.11
2009/04/23 07:00:10.5      74     76     48    107    117  44.1  25.7  33984  286.59 0855.11
2009/04/23 07:00:10.6      83     68     31    108    113  50.4  16.3  33978  286.49 0855.10
2009/04/23 07:00:10.7      50     47     -7     69     70  46.8  -6.2  33972  286.41 0855.10
2009/04/23 07:00:10.9      72     62     15     96     98  49.1   9.0  33976  286.47 0855.10
2009/04/23 07:00:10.9      68     87     24    111    114  38.3  12.2  33974  286.44 0855.10
2009/04/23 07:00:11.0      -3    124     77    125    146 358.2  35.5  33976  286.47 0855.10
2009/04/23 07:00:11.1    -103    166    101    196    220 328.1  29.3  33982  286.57 0855.10
2009/04/23 07:00:11.2     -31    154    105    158    189 348.5  36.5  33980  286.54 0855.10
2009/04/23 07:00:11.3      -6    232    134    233    268 358.4  32.4  34000  286.85 0855.10
2009/04/23 07:00:11.4      22    159    107    161    193   8.0  36.5  33990  286.71 0855.10
2009/04/23 07:00:11.5      -2    189     67    190    202 359.1  19.4  33986  286.62 0855.10
2009/04/23 07:00:11.6     -50    160     65    168    180 342.4  22.0  33986  286.64 0855.10
2009/04/23 07:00:11.7     -84    168    -16    189    190 333.3  -4.9  33970  286.37 0855.10
2009/04/23 07:00:11.8     -42    163      2    169    170 345.3   1.0  33976  286.47 0855.10
2009/04/23 07:00:11.9     -85    145     11    169    170 329.7   3.8  33986  286.62 0855.10
2009/04/23 07:00:12.0     -41    124      6    131    132 341.7   2.9  33982  286.56 0855.10
2009/04/23 07:00:12.1      10    137    -13    138    139   4.5  -5.6  33984  286.61 0855.10
2009/04/23 07:00:12.2      66    140    -17    155    156  25.3  -6.5  33986  286.64 0855.10
2009/04/23 07:00:12.4     256     81    159    269    312  72.3  33.5  33936  285.79 0855.10
2009/04/23 07:00:12.4     251     42     21    255    256  80.3   4.9  33946  285.94 0855.10
2009/04/23 07:00:12.5     242     69    165    252    301  74.1  36.0  33940  285.86 0855.10
2009/04/23 07:00:12.6     178     -2    103    179    206  90.8  32.7  33942  285.88 0855.11
2009/04/23 07:00:12.7     228     37     81    232    246  80.8  19.4  33938  285.83 0855.11
2009/04/23 07:00:12.8     265    -65     79    273    285 103.9  16.3  33938  285.83 0855.11
2009/04/23 07:00:13.0     239    -40     66    243    252  99.5  15.3  33940  285.84 0855.11
2009/04/23 07:00:13.1     233      7     73    234    246  88.1  17.4  33938  285.81 0855.11
2009/04/23 07:00:13.2     187    -55    108    195    222 106.4  31.4  33936  285.80 0855.11
2009/04/23 07:00:13.3     203    -45     99    209    231 102.6  27.2  33932  285.73 0855.11
2009/04/23 07:00:13.4     148    -46     82    155    175 107.3  30.1  33938  285.82 0855.11
2009/04/23 07:00:13.5     227    -63    123    236    266 105.5  29.5  33934  285.76 0855.11
2009/04/23 07:00:13.6     240    -49    117    246    272 101.7  27.3  33936  285.77 0855.11
2009/04/23 07:00:13.7     203   -261    108    331    349 142.1  18.2  33942  285.89 0855.11
2009/04/23 07:00:13.8     278   -126    128    306    331 114.4  23.9  33932  285.72 0855.11
2009/04/23 07:00:13.9     203   -120    138    237    274 120.7  32.7  33928  285.64 0855.11
2009/04/23 07:00:14.0     203   -104    143    229    269 117.1  35.5  33934  285.76 0855.11
2009/04/23 07:00:14.0     212   -103    175    236    293 116.0  40.1  33934  285.74 0855.11
2009/04/23 07:00:14.2      88   -227    202    244    316 158.8  44.0  33944  285.93 0855.11
2009/04/23 07:00:14.2      36   -328    115    331    351 173.7  19.2  33958  286.17 0855.11
2009/04/23 07:00:14.4      82   -368    113    378    395 167.3  16.7  33940  285.85 0855.11
2009/04/23 07:00:14.5     100   -355     79    369    378 164.2  12.2  33932  285.72 0855.11
2009/04/23 07:00:14.5     159   -333     16    370    371 154.5   2.5  33936  285.78 0855.11
2009/04/23 07:00:14.6     205   -324    107    384    399 147.6  15.6  33932  285.73 0855.12
2009/04/23 07:00:14.8     120   -361     97    381    394 161.5  14.4  33936  285.78 0855.12
2009/04/23 07:00:14.8     167   -319    160    361    394 152.3  25.3  33936  285.80 0855.12
2009/04/23 07:00:14.9     129   -355    171    378    414 160.0  26.0  33930  285.69 0855.12
2009/04/23 07:00:15.0     176   -354    148    396    422 153.5  21.5  33930  285.68 0855.12
2009/04/23 07:00:15.1     189   -351    142    399    423 151.7  20.3  33934  285.74 0855.12
2009/04/23 07:00:15.3     192   -362    145    410    436 152.0  19.5  33932  285.73 0855.12
2009/04/23 07:00:15.4     180   -336    119    382    401 151.9  17.3  33954  286.10 0855.12
2009/04/23 07:00:15.4     174   -276    147    327    358 147.7  25.8  33934  285.75 0855.12
2009/04/23 07:00:15.5     148   -291    137    327    354 152.9  24.2  33938  285.82 0855.12
2009/04/23 07:00:15.6     127   -308    154    334    367 157.5  26.6  33940  285.85 0855.12
2009/04/23 07:00:15.8     128   -294    174    321    365 156.4  30.8  33936  285.77 0855.12
2009/04/23 07:00:15.9     143   -298    207    331    390 154.3  35.0  33930  285.68 0855.12
2009/04/23 07:00:16.0     158   -284    206    326    385 150.8  35.5  33926  285.62 0855.12
2009/04/23 07:00:16.1     167   -263    192    312    366 147.5  34.6  33930  285.67 0855.12
2009/04/23 07:00:16.2     226   -227    175    321    365 135.1  31.0  33930  285.70 0855.12
2009/04/23 07:00:16.3     203   -128    219    241    325 122.2  47.0  33928  285.64 0855.12
2009/04/23 07:00:16.4     117    -73    167    138    216 122.0  56.3  33938  285.82 0855.12
2009/04/23 07:00:16.5     191   -155    202    247    319 129.1  43.5  33936  285.79 0855.12
2009/04/23 07:00:16.6      85    -93    206    127    242 137.7  65.6  33930  285.70 0855.12
2009/04/23 07:00:16.7      63    -47    151     79    170 126.9  70.4  33938  285.82 0855.12
2009/04/23 07:00:16.8      92   -117    182    150    235 141.7  56.4  33934  285.76 0855.12
2009/04/23 07:00:16.9      71   -112    130    133    185 147.4  49.4  33942  285.88 0855.12
2009/04/23 07:00:17.0     193    -13    200    194    278  94.1  50.9  33944  285.91 0855.12
2009/04/23 07:00:17.1       1      4    130      5    130  11.6  90.0  33948  285.98 0855.12
2009/04/23 07:00:17.2     -14   -202    188    203    276 184.0  47.9  33954  286.09 0855.12
2009/04/23 07:00:17.3       8   -260    227    261    345 178.2  45.5  33946  285.96 0855.12
2009/04/23 07:00:17.4      53   -246    225    252    337 167.7  46.5  33932  285.72 0855.12
2009/04/23 07:00:17.5     -46   -310    206    314    375 188.5  36.4  33938  285.82 0855.12
2009/04/23 07:00:17.6    -104   -220    158    244    290 205.3  35.6  33944  285.91 0855.12
2009/04/23 07:00:17.7    -107   -209    154    235    280 207.1  36.3  33948  285.98 0855.12
2009/04/23 07:00:17.8     -59   -151    177    163    240 201.4  52.5  33936  285.78 0855.12
2009/04/23 07:00:17.9     -90    -83    120    123    171 227.3  49.4  33930  285.70 0855.12
2009/04/23 07:00:18.0     -20    -81     98     84    129 194.3  55.4  33938  285.83 0855.12
2009/04/23 07:00:18.1     -42    -45     90     62    109 223.2  62.1  33930  285.68 0855.12
2009/04/23 07:00:18.2    -240    -25     98    242    261 263.9  23.1  33932  285.72 0855.12
2009/04/23 07:00:18.3    -198   -100     83    223    237 243.1  21.3  33924  285.59 0855.12
2009/04/23 07:00:18.4    -238    -56     60    245    253 256.7  13.9  33924  285.59 0855.12
2009/04/23 07:00:18.5    -226    -92     16    245    246 247.8   3.8  33918  285.49 0855.12
2009/04/23 07:00:18.6    -305    -19     90    306    319 266.3  16.4  33922  285.54 0855.12
2009/04/23 07:00:18.7    -477    -28    -50    478    481 266.6  -6.0  33918  285.50 0855.11
2009/04/23 07:00:18.8    -441     55     38    445    447 277.1   5.0  33924  285.58 0855.11
2009/04/23 07:00:18.9    -459    -39   -142    461    482 265.0 -22.2  33922  285.55 0855.11
2009/04/23 07:00:19.0    -339    -91   -121    352    373 254.9 -19.1  33920  285.52 0855.11
2009/04/23 07:00:19.2    -385    -19   -117    386    404 267.1 -17.0  33918  285.48 0855.11
2009/04/23 07:00:19.3    -294   -162   -118    336    356 241.2 -24.6  33924  285.60 0855.11
2009/04/23 07:00:19.4    -267    -77   -122    279    304 253.8 -29.6  33922  285.54 0855.11
2009/04/23 07:00:19.5    -329    -42   -203    332    389 262.6 -39.0  33930  285.68 0855.11
2009/04/23 07:00:19.6    -332    -11   -141    333    361 268.0 -28.9  33922  285.55 0855.11
2009/04/23 07:00:19.7    -392      5   -115    393    409 270.8 -21.1  33926  285.61 0855.11
2009/04/23 07:00:19.8    -327   -116   -129    348    371 250.4 -25.5  33924  285.58 0855.11
2009/04/23 07:00:19.9    -240   -104    -73    262    271 246.4 -20.2  33924  285.59 0855.11
2009/04/23 07:00:20.0    -281      8    -95    282    297 271.7 -23.3  33924  285.59 0855.11
2009/04/23 07:00:20.1    -240   -108    -48    264    269 245.8 -10.4  33924  285.57 0855.11
2009/04/23 07:00:20.2    -209   -196      8    287    288 226.8   1.7  33926  285.61 0855.11
2009/04/23 07:00:20.3    -382    -90    -33    393    395 256.7  -4.9  33926  285.62 0855.11
2009/04/23 07:00:20.4    -281    -52    -57    286    292 259.5 -11.3  33932  285.71 0855.11
2009/04/23 07:00:20.5    -271    -45    -12    275    276 260.4  -2.6  33930  285.67 0855.11
2009/04/23 07:00:20.6    -336    -50      0    340    341 261.4   0.0  33930  285.67 0855.11
2009/04/23 07:00:20.7    -296   -192     51    353    357 237.0   8.2  33924  285.60 0855.09
2009/04/23 07:00:20.8    -268   -205     61    338    344 232.6  10.4  33920  285.52 0855.09
2009/04/23 07:00:20.9    -296   -168    -69    341    349 240.5 -11.6  33930  285.67 0855.09
2009/04/23 07:00:21.0    -232   -205    -39    310    313 228.6  -7.2  33920  285.52 0855.09
2009/04/23 07:00:21.1    -124   -180     56    219    227 214.5  14.5  33924  285.60 0855.09
2009/04/23 07:00:21.2    -142   -166    -27    219    221 220.5  -7.2  33924  285.60 0855.09
2009/04/23 07:00:21.3    -115   -115      2    163    164 225.0   1.0  33924  285.58 0855.09
2009/04/23 07:00:21.4    -177    -46     15    183    184 255.4   4.9  33924  285.60 0855.09
2009/04/23 07:00:21.5    -218    -94    -54    238    245 246.5 -12.9  33918  285.49 0855.09
2009/04/23 07:00:21.6    -171    -94    -85    196    213 241.2 -29.3  33920  285.51 0855.09
2009/04/23 07:00:21.7    -191   -164     11    253    254 229.3   2.5  33926  285.61 0855.09
2009/04/23 07:00:21.8    -263   -124    -10    292    293 244.7  -2.1  33918  285.47 0855.09
2009/04/23 07:00:21.9    -270    -54    -25    276    278 258.6  -5.2  33920  285.51 0855.09
2009/04/23 07:00:22.0    -221    -62    -35    230    233 254.3  -8.8  33920  285.51 0855.09
2009/04/23 07:00:22.1    -257    -65     66    266    275 255.8  13.9  33924  285.57 0855.09
2009/04/23 07:00:22.2    -274    -15    -64    275    283 266.7 -13.3  33924  285.57 0855.09
2009/04/23 07:00:22.3    -335     38    -93    338    351 276.5 -15.5  33948  285.99 0855.09
2009/04/23 07:00:22.4    -316      3    -51    317    322 270.7  -9.1  33938  285.83 0855.09
2009/04/23 07:00:22.5    -289    -88    -36    303    306 252.9  -6.9  33922  285.54 0855.09
2009/04/23 07:00:22.6    -310    -93     61    324    330 253.2  10.7  33922  285.56 0855.08
2009/04/23 07:00:22.7    -299   -107    119    318    339 250.3  21.4  33924  285.60 0855.08
2009/04/23 07:00:22.8    -262     40     13    266    267 278.8   2.9  33924  285.59 0855.08
2009/04/23 07:00:22.9    -367     64    -93    373    385 280.0 -14.1  33924  285.58 0855.08
2009/04/23 07:00:23.0    -318    -19     87    319    331 266.5  15.4  33920  285.51 0855.08
2009/04/23 07:00:23.1    -384     25     50    385    389 273.8   7.4  33924  285.57 0855.08
2009/04/23 07:00:23.2    -406     74    -55    413    417 280.4  -7.6  33922  285.54 0855.08
2009/04/23 07:00:23.3    -425     70    -87    431    440 279.4 -11.5  33924  285.58 0855.08
2009/04/23 07:00:23.4    -446    119   -129    462    480 285.0 -15.7  33918  285.50 0855.08
2009/04/23 07:00:23.5    -373     96   -129    386    408 284.5 -18.6  33926  285.62 0855.08
2009/04/23 07:00:23.6    -414     33    -49    416    419 274.6  -6.8  33922  285.54 0855.08
2009/04/23 07:00:23.7    -381    -49    -21    385    386 262.6  -3.1  33918  285.48 0855.08
2009/04/23 07:00:23.8    -390   -132    -45    412    415 251.3  -6.3  33922  285.56 0855.08
2009/04/23 07:00:23.9    -368    -69    -24    375    376 259.3  -3.8  33918  285.50 0855.08
2009/04/23 07:00:24.0    -442   -104   -139    455    475 256.7 -22.1  33918  285.50 0855.08
2009/04/23 07:00:24.1    -327   -225    -81    398    407 235.5 -11.5  33924  285.58 0855.08
2009/04/23 07:00:24.2    -259   -139    -96    294    309 241.8 -23.8  33924  285.57 0855.08
2009/04/23 07:00:24.3    -243      0   -118    244    271 270.0 -31.7  33918  285.49 0855.08
2009/04/23 07:00:24.4    -295   -196    -13    355    356 236.3  -2.2  33920  285.52 0855.08
2009/04/23 07:00:24.5    -437   -250    -59    504    508 240.2  -6.7  33922  285.54 0855.08
2009/04/23 07:00:24.6    -308   -223      4    381    382 234.1   0.7  33916  285.46 0855.08
2009/04/23 07:00:24.7    -318    -53    -96    323    336 260.5 -21.4  33918  285.48 0855.08
2009/04/23 07:00:24.8    -330    -75   -118    339    360 257.1 -19.3  33914  285.41 0855.08
2009/04/23 07:00:24.9    -210   -273    -81    345    355 217.5 -13.3  33922  285.55 0855.08
2009/04/23 07:00:25.0    -155   -209    -78    261    273 216.5 -16.8  33922  285.54 0855.08
2009/04/23 07:00:25.1    -148   -193      9    244    245 217.6   2.1  33920  285.52 0855.08
2009/04/23 07:00:25.2    -132   -132     59    188    198 225.0  17.4  33918  285.48 0855.08
2009/04/23 07:00:25.3    -259    -48     38    264    267 259.5   8.2  33910  285.34 0855.08
2009/04/23 07:00:25.4    -283     34    -40    286    289 277.0  -8.0  33912  285.37 0855.08
2009/04/23 07:00:25.5    -227     57    -64    235    244 284.2 -15.4  33916  285.44 0855.08
2009/04/23 07:00:25.6    -209     10     -8    210    211 272.8  -2.3  33914  285.43 0855.08
2009/04/23 07:00:25.7    -150     -3     41    151    157 268.7  15.3  33914  285.43 0855.08
2009/04/23 07:00:25.8    -172      5     63    173    184 271.9  20.7  33912  285.39 0855.08
2009/04/23 07:00:25.9    -139     58     13    151    152 292.6   5.0  33906  285.29 0855.08
2009/04/23 07:00:26.0    -144      0     42    145    152 270.0  16.3  33914  285.41 0855.08
2009/04/23 07:00:26.1    -205      2     30    206    209 270.6   8.5  33914  285.41 0855.08
2009/04/23 07:00:26.2    -168    -39     39    173    178 256.7  12.9  33916  285.44 0855.08
2009/04/23 07:00:26.3    -130   -103      0    166    167 231.6  -0.3  33918  285.48 0855.08
2009/04/23 07:00:26.4    -123   -134    -40    182    187 222.5 -12.4  33920  285.51 0855.08
2009/04/23 07:00:26.5     -98    -99    -18    140    142 224.9  -7.3  33918  285.50 0855.08
2009/04/23 07:00:26.6     -93   -117     33    150    154 218.7  12.4  33922  285.55 0855.08
2009/04/23 07:00:26.7     -66    -80     35    104    111 219.6  18.9  33920  285.53 0855.08
2009/04/23 07:00:26.8     -81    -41     57     92    108 242.9  35.5  33922  285.55 0855.08
2009/04/23 07:00:26.9    -105    -48     42    116    123 245.2  20.9  33918  285.48 0855.08
2009/04/23 07:00:27.0    -147     27      7    150    151 280.6   2.9  33918  285.50 0855.08
2009/04/23 07:00:27.1    -142      3      7    143    144 271.3   2.8  33914  285.43 0855.08
2009/04/23 07:00:27.2    -157    -16    -10    158    159 263.9  -3.7  33912  285.39 0855.08
2009/04/23 07:00:27.3    -125     -5    -24    126    129 267.4 -10.9  33916  285.44 0855.08
2009/04/23 07:00:27.4     -92    -58     -2    109    110 237.6  -1.3  33918  285.48 0855.08
2009/04/23 07:00:27.5    -100     38    -43    108    116 290.8 -27.4  33916  285.44 0855.08
2009/04/23 07:00:27.6     -86     10    -11     87     88 277.0  -7.3  33916  285.46 0855.09
2009/04/23 07:00:27.7     -58    -57     -3     82     83 225.6  -2.2  33916  285.46 0855.09
2009/04/23 07:00:27.8     -48    -82    -34     96    102 210.3 -19.7  33916  285.44 0855.09
2009/04/23 07:00:27.9     -10   -136     17    137    139 184.5   7.1  33920  285.51 0855.09
2009/04/23 07:00:28.0      12   -138    -45    139    146 174.7 -23.8  33916  285.46 0855.09
2009/04/23 07:00:28.1       8   -111      5    112    113 175.5   2.9  33914  285.43 0855.09
2009/04/23 07:00:28.2     -33    -99     40    105    112 198.5  21.5  33918  285.50 0855.09
2009/04/23 07:00:28.3       0    -10     57     11     58 184.5  89.1  33918  285.50 0855.09
2009/04/23 07:00:28.4     -48    -36     49     61     78 233.1  43.7  33922  285.55 0855.09
2009/04/23 07:00:28.5     -52    -39     46     65     79 233.1  38.6  33922  285.55 0855.09
2009/04/23 07:00:28.6     -36     -7     32     37     48 258.5  46.9  33918  285.48 0855.09
2009/04/23 07:00:28.7     -12    -14     20     19     27 221.4  48.2  33920  285.53 0855.09
2009/04/23 07:00:28.8       8      0     22      9     23  90.0  79.2  33922  285.55 0855.09
2009/04/23 07:00:28.9      21     21     22     31     38  45.1  37.6  33920  285.53 0855.09
2009/04/23 07:01:16.2      76   -192    110    207    234 158.4  30.3  33920  285.51 0855.16
2009/04/23 07:01:16.3      73   -216    102    229    250 161.3  25.7  33920  285.51 0855.16
2009/04/23 07:01:16.4     130   -234    104    268    287 151.0  22.3  33922  285.54 0855.16
2009/04/23 07:01:16.5     138   -185     84    231    245 143.3  20.7  33920  285.52 0855.16
2009/04/23 07:01:16.6     154   -168     27    229    231 137.5   6.9  33918  285.48 0855.16
2009/04/23 07:01:16.7      83   -205    114    222    249 157.9  29.3  33920  285.51 0855.16
2009/04/23 07:01:16.8      77   -222    109    236    259 160.8  26.4  33922  285.56 0855.16
2009/04/23 07:01:16.9      30   -192    157    195    250 170.9  43.3  33920  285.52 0855.16
2009/04/23 07:01:17.0      90   -182     80    204    219 153.7  22.8  33918  285.48 0855.16
2009/04/23 07:01:17.1     107   -110     68    154    168 135.9  25.3  33920  285.53 0855.17
2009/04/23 07:01:17.2      89   -158    133    182    225 150.4  39.7  33920  285.53 0855.17
2009/04/23 07:01:17.3      98   -225    127    246    276 156.4  29.3  33922  285.54 0855.17
2009/04/23 07:01:17.4      70   -244    141    254    290 163.9  31.4  33920  285.52 0855.17
2009/04/23 07:01:17.5     111   -153    144    190    238 144.0  40.9  33920  285.51 0855.17
2009/04/23 07:01:17.6     102   -126    143    163    216 141.0  45.8  33918  285.48 0855.17
2009/04/23 07:01:17.7      36   -189    127    193    231 169.1  36.0  33922  285.55 0855.17
2009/04/23 07:01:17.8      69   -205    125    217    250 161.3  32.4  33922  285.54 0855.17
2009/04/23 07:01:17.9      46   -227    146    232    274 168.4  35.5  33924  285.57 0855.17
2009/04/23 07:01:18.0      37   -218    143    222    264 170.2  35.6  33924  285.59 0855.17
2009/04/23 07:01:18.1      43   -224    169    229    284 169.1  40.1  33920  285.52 0855.17
2009/04/23 07:01:18.2      95   -237    149    256    296 158.1  32.9  33922  285.54 0855.17
2009/04/23 07:01:18.4      86   -210    131    227    262 157.7  32.7  33922  285.54 0855.17
2009/04/23 07:01:18.5      64   -209    163    219    273 163.0  40.4  33924  285.57 0855.17
2009/04/23 07:01:18.6      97   -222    147    243    284 156.4  34.2  33920  285.52 0855.17
2009/04/23 07:01:18.7     101   -180    127    207    242 150.6  34.5  33916  285.46 0855.17
2009/04/23 07:01:18.8      85   -204    127    222    255 157.3  32.1  33920  285.52 0855.17
2009/04/23 07:01:18.9      87   -178    118    199    231 153.9  33.5  33918  285.50 0855.17
2009/04/23 07:01:19.0      82   -184    100    202    225 155.9  28.0  33918  285.50 0855.17
2009/04/23 07:01:19.1      57   -169     65    179    190 161.3  20.4  33918  285.50 0855.17
2009/04/23 07:01:19.2      68   -175     27    188    190 158.6   8.2  33918  285.50 0855.17
2009/04/23 07:01:19.3      66   -189     35    201    205 160.8   9.9  33920  285.51 0855.17
2009/04/23 07:01:19.4      67   -218     19    229    230 162.8   5.0  33922  285.55 0855.17
2009/04/23 07:01:19.5      34   -161     29    165    168 168.0  10.1  33918  285.48 0855.17
2009/04/23 07:01:19.6      57   -120     58    133    145 154.5  25.1  33922  285.55 0855.17
2009/04/23 07:01:19.7      76   -119     48    142    151 147.5  18.9  33918  285.50 0855.17
2009/04/23 07:01:19.8     102    -76     48    128    136 126.9  21.0  33916  285.44 0855.17
2009/04/23 07:01:19.9     127    -60     44    141    148 115.4  17.4  33920  285.51 0855.17
2009/04/23 07:01:20.0      90    -45     94    101    137 116.6  47.9  33916  285.44 0855.17
2009/04/23 07:01:20.1       1    -67    109     68    128 179.0  64.7  33922  285.55 0855.17
2009/04/23 07:01:20.2      55    -19     77     59     97 109.1  58.5  33918  285.50 0855.17
2009/04/23 07:01:20.3      84    -21    109     87    139 104.6  56.9  33922  285.55 0855.17
2009/04/23 07:01:20.4      84    -27    124     89    152 108.2  60.6  33920  285.53 0855.17
2009/04/23 07:01:20.5      92    -13     99     93    135  98.4  51.6  33922  285.55 0855.17
2009/04/23 07:01:20.6      35    -27     78     45     90 127.8  67.2  33922  285.55 0855.17
2009/04/23 07:01:20.7     -21     13     50     26     56 302.4  70.8  33920  285.53 0855.17
2009/04/23 07:01:20.8     -30     35     50     47     68 319.5  51.2  33924  285.58 0855.17
2009/04/23 07:01:20.9      14     72     64     74     97  11.6  45.8  33920  285.53 0855.17
2009/04/23 07:01:21.0      -1    -12     56     13     57 188.0  88.0  33920  285.53 0855.17
2009/04/23 07:01:21.1       7     40     42     41     58  10.7  48.2  33920  285.53 0855.18
2009/04/23 07:01:21.2      -2     49     53     50     72 357.3  52.1  33920  285.51 0855.18
2009/04/23 07:01:21.3     -20     -8     59     22     62 248.3  79.2  33926  285.61 0855.18
2009/04/23 07:01:21.4       6    -17     40     19     44 161.3  74.0  33918  285.50 0855.18
2009/04/23 07:01:21.5      18      2     39     19     43  82.1  72.9  33918  285.50 0855.18
2009/04/23 07:01:21.6      23     24     62     34     70  43.4  68.8  33920  285.53 0855.18
2009/04/23 07:01:21.7      16      0     51     17     53  90.0  81.0  33918  285.48 0855.18
2009/04/23 07:01:21.8      10    -46     54     48     72 167.5  53.3  33926  285.61 0855.18
2009/04/23 07:01:21.9     -25    -87     58     91    107 196.5  35.5  33932  285.71 0855.18
2009/04/23 07:01:22.0     -28    -87     66     92    113 198.3  39.5  33926  285.61 0855.18
2009/04/23 07:01:22.1     -34   -114     53    120    131 196.9  25.2  33918  285.50 0855.18
2009/04/23 07:01:22.2     -43   -114     27    123    127 200.9  12.6  33920  285.53 0855.18
2009/04/23 07:01:22.3     -39   -115     43    122    130 198.7  19.4  33922  285.56 0855.18
2009/04/23 07:01:22.4     -31   -131     70    135    152 193.4  29.3  33918  285.50 0855.18
2009/04/23 07:01:22.5     -59   -116     74    131    150 207.1  31.4  33922  285.56 0855.18
2009/04/23 07:01:22.6    -104    -52     59    117    131 243.4  28.7  33920  285.51 0855.18
2009/04/23 07:01:22.7     -77    -41     41     88     97 241.6  26.6  33920  285.53 0855.18
2009/04/23 07:01:22.8     -61    -27     44     67     80 245.6  36.5  33920  285.51 0855.18
2009/04/23 07:01:22.9     -47    -27     57     55     79 240.2  50.7  33920  285.51 0855.18
2009/04/23 07:01:23.0       8    -29     67     31     73 164.9  73.1  33916  285.46 0855.18
2009/04/23 07:01:23.1      14    -10     48     18     51 126.0  79.2  33918  285.48 0855.18
2009/04/23 07:01:23.2       0    -10     35     11     36 175.5  80.7  33918  285.50 0855.18
2009/04/23 07:01:23.3       4     -3     25      6     25 129.5  86.9  33918  285.50 0855.18
2009/04/23 07:01:23.4      18    -55     35     59     68 161.3  34.4  33920  285.51 0855.18
2009/04/23 07:01:23.5       0    -85     33     86     92 180.0  21.5  33922  285.55 0855.18
2009/04/23 07:01:23.6       0    -58     10     59     60 180.9  10.1  33916  285.44 0855.18
2009/04/23 07:01:23.7       5    -76     25     77     82 175.6  18.4  33920  285.51 0855.18
2009/04/23 07:01:23.8      21    -56     48     60     76 159.1  43.7  33922  285.55 0855.18
2009/04/23 07:01:23.9      19    -54     23     58     62 160.8  23.0  33922  285.55 0855.18
2009/04/23 07:01:24.0      45    -15     57     48     74 108.4  56.3  33922  285.56 0855.18
2009/04/23 07:01:24.1      54      0     60     55     81  90.8  52.7  33924  285.60 0855.19
2009/04/23 07:01:24.2      -4    -12     48     13     49 198.3  84.9  33924  285.60 0855.19
2009/04/23 07:01:24.3     -22    -11     68     25     72 242.9  80.2  33920  285.53 0855.19
2009/04/23 07:01:24.4      -4     22     89     23     91 348.4  85.4  33922  285.55 0855.19
2009/04/23 07:01:24.5     -20     21     82     30     87 316.8  79.7  33920  285.53 0855.19
2009/04/23 07:01:24.6     -56      4     64     57     85 274.3  53.7  33918  285.48 0855.19
2009/04/23 07:01:24.7     -45     -3     60     46     75 265.6  58.5  33918  285.48 0855.19
2009/04/23 07:01:24.8     -50    -23     43     56     70 244.8  41.7  33920  285.53 0855.19
2009/04/23 07:01:24.9     -62      0     57     63     84 270.0  47.5  33922  285.55 0855.19
2009/04/23 07:01:25.0     -64     13     39     66     76 281.5  34.4  33918  285.50 0855.19
2009/04/23 07:01:25.1    -106     32     51    111    122 286.8  26.2  33914  285.43 0855.19
2009/04/23 07:01:25.2    -123     57     32    136    140 295.2  13.2  33908  285.33 0855.19
2009/04/23 07:01:25.3     -88    107     53    139    148 320.4  22.0  33908  285.33 0855.19
2009/04/23 07:01:25.4    -103    103     27    146    149 315.0  10.6  33908  285.31 0855.19
2009/04/23 07:01:25.5    -173     79     37    191    195 294.6  11.0  33908  285.33 0855.19
2009/04/23 07:01:25.6    -135     64     50    150    159 295.4  18.6  33908  285.31 0855.19
2009/04/23 07:01:25.7    -176     65     36    188    192 290.4  11.0  33906  285.28 0855.19
2009/04/23 07:01:25.8    -201    106    -52    228    234 297.8 -12.9  33916  285.44 0855.19
2009/04/23 07:01:25.9    -189     16    -58    190    199 275.0 -17.0  33914  285.41 0855.19
2009/04/23 07:01:26.0    -168    -25     -7    170    171 261.4  -2.6  33914  285.41 0855.19
2009/04/23 07:01:26.1    -158    -51     55    167    177 252.1  18.4  33914  285.41 0855.20
2009/04/23 07:01:26.2    -146    -32     52    150    159 257.6  19.2  33906  285.29 0855.20
2009/04/23 07:01:26.3    -190    -25     69    192    204 262.3  20.4  33906  285.28 0855.20
2009/04/23 07:01:26.4    -134    -28     86    137    161 258.1  35.0  33904  285.24 0855.20
2009/04/23 07:01:26.5    -161    -33     25    165    167 258.3   8.8  33910  285.34 0855.20
2009/04/23 07:01:26.6    -147    -40     -1    153    154 254.5  -0.7  33906  285.28 0855.20
2009/04/23 07:01:26.7    -125     -5    -20    126    128 267.5  -9.3  33914  285.41 0855.20
2009/04/23 07:01:26.8    -112     -8    -34    113    119 265.6 -17.0  33910  285.36 0855.20
2009/04/23 07:01:26.9    -112    -34    -40    118    125 253.2 -19.1  33910  285.34 0855.20
2009/04/23 07:01:27.0    -111    -32     16    116    118 253.6   8.0  33908  285.31 0855.20
2009/04/23 07:01:27.1     -99    -27     50    103    114 254.5  27.3  33904  285.26 0855.20
2009/04/23 07:01:27.2     -99    -59      2    116    117 239.3   1.2  33908  285.31 0855.20
2009/04/23 07:01:27.3    -120    -76     13    143    144 237.6   5.4  33908  285.33 0855.20
2009/04/23 07:01:27.4     -78    -78     50    111    121 225.0  25.7  33912  285.39 0855.20
2009/04/23 07:01:27.5     -67    -76      9    102    103 221.4   5.4  33916  285.44 0855.20
2009/04/23 07:01:27.6     -67    -62     -3     92     93 226.9  -2.2  33916  285.44 0855.20
2009/04/23 07:01:27.7     -46    -43     -8     64     65 226.9  -7.3  33914  285.41 0855.20
2009/04/23 07:01:27.8     -50    -45    -13     68     70 227.8 -11.3  33914  285.43 0855.20
2009/04/23 07:01:27.9     -47    -12    -19     49     52 254.9 -26.4  33914  285.43 0855.20
2009/04/23 07:01:28.0     -36    -23     -9     43     45 237.6 -12.4  33916  285.44 0855.20
2009/04/23 07:01:28.1     -26    -15     -8     31     33 239.3 -15.5  33914  285.41 0855.21
2009/04/23 07:01:28.2     -15    -14     20     21     29 226.9  52.0  33914  285.41 0855.21
2009/04/23 07:01:28.3     -22    -22     38     32     49 225.0  56.3  33914  285.43 0855.21
2009/04/23 07:01:28.4     -58     40     56     71     90 305.1  42.7  33914  285.41 0855.21
2009/04/23 07:01:28.5     -46     26     53     53     74 299.8  50.1  33910  285.34 0855.21
2009/04/23 07:01:28.6     -79    -23     65     83    105 253.6  42.2  33908  285.31 0855.21
2009/04/23 07:01:28.7     -56    -14     61     58     84 255.8  51.2  33908  285.31 0855.21
2009/04/23 07:01:28.8     -32    -21     63     39     74 235.8  64.7  33904  285.26 0855.21
2009/04/23 07:01:28.9     -35    -34     45     50     67 225.9  47.9  33908  285.31 0855.21
2009/04/23 07:01:29.0     -15    -57      9     60     61 195.1   9.0  33908  285.31 0855.21
2009/04/23 07:01:29.1     -33    -70      6     78     79 205.3   4.9  33912  285.39 0855.21
2009/04/23 07:01:29.2     -37    -90     -6     98     99 202.7  -3.7  33916  285.44 0855.21
2009/04/23 07:01:29.3     -20    -76    -47     79     91 195.2 -38.4  33916  285.46 0855.21
2009/04/23 07:01:29.4     -17    -84     21     86     89 192.0  13.7  33916  285.44 0855.21
2009/04/23 07:01:29.5     -30   -119     87    123    150 194.3  39.1  33922  285.55 0855.21
2009/04/23 07:01:29.6     -62   -121     37    137    143 207.1  15.2  33926  285.63 0855.21
2009/04/23 07:01:29.7     -37   -105      5    112    113 199.6   2.8  33924  285.58 0855.21
2009/04/23 07:01:29.8     -39   -129    -17    135    137 196.9  -7.2  33924  285.58 0855.21
2009/04/23 07:01:29.9     -43   -132    -23    140    142 198.3  -9.4  33916  285.46 0855.21
2009/04/23 07:01:30.0     -84   -131    -22    156    158 212.6  -8.2  33914  285.43 0855.21
2009/04/23 07:01:30.1    -104   -104    -59    148    159 225.0 -27.2  33914  285.41 0855.21
2009/04/23 07:01:30.2    -151    -86    -58    174    184 240.2 -18.7  33908  285.31 0855.21
2009/04/23 07:01:30.3    -124    -90    -31    154    158 234.0 -11.6  33914  285.41 0855.21
2009/04/23 07:01:30.4     -76   -111     46    135    143 214.3  18.9  33912  285.39 0855.21
2009/04/23 07:01:30.5     -93    -82     11    125    126 228.7   5.4  33912  285.39 0855.21
2009/04/23 07:01:30.6     -89    -48    -12    102    103 241.6  -7.2  33912  285.39 0855.21
2009/04/23 07:01:30.7    -128    -55    -42    140    146 246.5 -21.7  33916  285.44 0855.21
2009/04/23 07:01:30.8     -93    -60    -31    111    115 237.1 -20.2  33912  285.39 0855.21
2009/04/23 07:01:30.9    -104    -34     26    110    114 251.8  13.2  33912  285.39 0855.21
2009/04/23 07:01:31.0     -34    -46     11     58     60 217.0  11.1  33916  285.44 0855.21
2009/04/23 07:01:31.1     -54    -70      7     89     90 217.8   4.9  33912  285.39 0855.21
2009/04/23 07:01:31.2     -27   -101     25    105    109 195.1  13.7  33916  285.44 0855.21
2009/04/23 07:01:31.3     -64   -117     29    134    138 208.9  12.2  33914  285.43 0855.21
2009/04/23 07:01:31.4     -52   -143     55    153    162 200.0  20.4  33914  285.41 0855.21
2009/04/23 07:01:31.5     -65   -144     15    159    160 204.5   5.4  33912  285.38 0855.21
2009/04/23 07:01:31.6    -102   -126     -9    163    164 219.0  -3.3  33912  285.39 0855.21
2009/04/23 07:01:31.7     -79   -134     14    156    157 210.7   5.2  33912  285.39 0855.21
2009/04/23 07:01:31.8    -100   -151     -3    182    183 213.6  -1.2  33912  285.39 0855.21
2009/04/23 07:01:31.9    -103    -86     -2    135    136 230.0  -1.3  33912  285.38 0855.21
2009/04/23 07:01:32.0     -87    -72     -7    114    115 230.5  -3.7  33912  285.39 0855.21
2009/04/23 07:01:32.1     -85    -79    -15    117    118 226.9  -7.3  33910  285.36 0855.21
2009/04/23 07:01:32.2     -89    -86    -20    125    127 226.0  -9.4  33910  285.36 0855.21
2009/04/23 07:01:32.3    -120    -67    -18    138    140 240.7  -7.7  33912  285.39 0855.21
2009/04/23 07:01:32.4    -118    -70    -28    138    141 239.3 -11.5  33912  285.39 0855.21
2009/04/23 07:01:32.5    -104    -86    -47    136    144 230.5 -19.1  33912  285.39 0855.21
2009/04/23 07:01:32.7    -138    -72    -61    156    167 242.5 -26.7  33914  285.41 0855.21
2009/04/23 07:01:32.7    -149   -113    -55    188    196 232.7 -16.4  33914  285.43 0855.21
2009/04/23 07:01:32.9    -135    -85    -42    160    166 237.6 -14.7  33914  285.41 0855.21
2009/04/23 07:01:32.9    -123    -81    -44    148    155 236.7 -16.6  33912  285.39 0855.21
2009/04/23 07:01:33.1    -114    -94    -13    148    149 230.5  -5.2  33918  285.50 0855.21
2009/04/23 07:01:33.2     -84    -69    -35    109    115 230.5 -18.1  33916  285.44 0855.21
2009/04/23 07:01:33.2    -106    -61     36    123    129 240.2  16.3  33924  285.60 0855.21
2009/04/23 07:01:33.3    -105    -93     27    141    144 228.7  11.1  33924  285.60 0855.21
2009/04/23 07:01:33.4     -51   -100     56    113    126 207.2  28.2  33922  285.56 0855.21
2009/04/23 07:01:33.6     -86    -62     25    107    110 234.1  13.2  33924  285.58 0855.21
2009/04/23 07:01:33.7    -117    -56     -5    131    132 244.2  -2.2  33916  285.46 0855.21
2009/04/23 07:01:33.7    -113    -37      0    119    120 251.8   0.2  33912  285.39 0855.21
2009/04/23 07:01:33.9    -118    -23     -4    121    122 259.0  -2.2  33912  285.38 0855.21
2009/04/23 07:01:33.9    -104    -14     -5    106    107 262.0  -3.1  33910  285.36 0855.21
2009/04/23 07:01:34.0     -80    -16    -10     82     83 258.5  -7.2  33908  285.31 0855.21
2009/04/23 07:01:34.2     -67      5      3     68     69 274.4   2.9  33908  285.31 0855.20
2009/04/23 07:01:34.2     -65      9      5     66     67 278.0   4.9  33910  285.34 0855.20
2009/04/23 07:01:34.4     -34      4     -1     35     36 277.9  -3.1  33910  285.36 0855.20
2009/04/23 07:01:34.5     -21    -10    -13     24     27 242.9 -35.8  33910  285.34 0855.20
2009/04/23 07:01:34.6      -4    -19    -12     20     23 193.4 -37.9  33908  285.33 0855.20
2009/04/23 07:01:34.6      -2    -34     -4     35     36 184.5  -7.2  33912  285.39 0855.20
2009/04/23 07:01:34.7      -5    -17     -8     18     19 198.5 -27.4  33912  285.38 0855.20
2009/04/23 07:01:34.8       4    -23     -8     24     25 170.2 -23.6  33912  285.39 0855.20
2009/04/23 07:01:34.9       7    -23    -10     25     26 161.5 -25.4  33910  285.36 0855.20
2009/04/23 07:01:35.1      16    -32    -11     37     38 152.8 -23.8  33912  285.39 0855.20
2009/04/23 07:01:35.1      11    -33     -4     35     36 161.3  -7.2  33914  285.41 0855.20
2009/04/23 07:01:35.3       0    -14    -13     15     19 182.7 -50.2  33912  285.39 0855.20
2009/04/23 07:01:35.4       6      2    -26      7     26  71.8 -89.3  33912  285.39 0855.20
2009/04/23 07:01:35.5       7      6    -37     10     38  46.9 -87.2  33910  285.36 0855.20
2009/04/23 07:01:35.6      21     29    -39     37     53  36.1 -54.5  33910  285.36 0855.20
2009/04/23 07:01:35.7      17      9    -24     20     31  62.9 -60.7  33908  285.33 0855.20
2009/04/23 07:01:35.8      26      0    -20     27     33  90.0 -46.1  33908  285.31 0855.20
2009/04/23 07:01:35.9      54     -4     -7     55     56  94.3  -7.3  33912  285.38 0855.20
2009/04/23 07:01:36.0      53     -6      2     54     55  97.0   2.9  33910  285.36 0855.20
2009/04/23 07:01:36.1      76     -5     33     77     83  94.3  24.1  33914  285.41 0855.20
2009/04/23 07:01:36.2      83     -6     28     84     89  94.4  18.9  33912  285.39 0855.19
2009/04/23 07:01:36.3      96    -15     31     98    103  98.8  17.9  33912  285.39 0855.19
2009/04/23 07:01:36.4     104     -3      0    105    106  91.7   0.2  33910  285.36 0855.19
2009/04/23 07:01:36.5      84    -12     -9     85     86  98.4  -6.2  33908  285.31 0855.19
2009/04/23 07:01:36.6      96    -15    -10     98     99  98.8  -6.2  33910  285.36 0855.19
2009/04/23 07:01:36.7      91     -7    -15     92     94  94.4  -9.3  33910  285.36 0855.19
2009/04/23 07:01:36.8      82    -18    -23     85     89 102.8 -15.0  33912  285.39 0855.19
2009/04/23 07:01:36.9      75    -24    -31     79     84 107.7 -26.4  33912  285.39 0855.19
2009/04/23 07:01:37.0      50    -16    -38     53     65 107.7 -43.9  33910  285.36 0855.19
2009/04/23 07:01:37.1      36    -41    -28     55     61 138.6 -32.6  33910  285.36 0855.19
2009/04/23 07:01:37.2      38    -38    -26     55     60 134.9 -31.6  33912  285.39 0855.19
2009/04/23 07:01:37.3      27    -40    -33     49     59 145.7 -42.0  33912  285.38 0855.19
2009/04/23 07:01:37.4      46     -3    -51     47     69  94.4 -56.6  33912  285.39 0855.19
2009/04/23 07:01:37.5      76     11    -33     77     83  81.2 -28.5  33912  285.38 0855.19
2009/04/23 07:01:37.6      53      1     25     54     59  88.3  26.2  33912  285.39 0855.19
2009/04/23 07:01:37.7      76     19     40     79     88  75.8  28.2  33914  285.43 0855.19
2009/04/23 07:01:37.8      90     30     23     95     98  71.6  13.7  33912  285.39 0855.19
2009/04/23 07:01:37.9      84     34     55     91    106  67.8  34.4  33914  285.43 0855.19
2009/04/23 07:01:38.0     110     48     42    121    129  66.4  19.4  33914  285.41 0855.19
2009/04/23 07:01:38.1      98     52     56    112    125  62.0  28.7  33914  285.43 0855.19
2009/04/23 07:01:38.2     103     78     88    130    156  52.7  37.8  33914  285.41 0855.18
2009/04/23 07:01:38.3     121     94     74    154    170  52.2  27.3  33912  285.38 0855.18
2009/04/23 07:01:38.4      77     63     75    100    125  50.9  40.7  33916  285.46 0855.18
2009/04/23 07:01:38.5      76     63     82     99    128  50.4  43.8  33912  285.39 0855.18
2009/04/23 07:01:38.6      80     35     76     88    116  66.5  45.4  33914  285.41 0855.18
2009/04/23 07:01:38.7      42     42     75     60     96  45.0  56.9  33914  285.43 0855.18
2009/04/23 07:01:38.8       9     64     62     65     89   8.0  49.0  33912  285.39 0855.18
2009/04/23 07:01:38.9      32     39     43     51     66  39.6  44.8  33912  285.39 0855.18
2009/04/23 07:01:39.0      24     36     50     44     66  34.3  53.3  33914  285.43 0855.18
2009/04/23 07:01:39.1       3     17     26     18     31  11.6  62.6  33914  285.43 0855.18
2009/04/23 07:01:39.2     -15     -2     37     16     40 262.1  75.0  33914  285.43 0855.18
2009/04/23 07:01:39.3      -9     14     38     17     41 327.5  75.0  33918  285.48 0855.18
2009/04/23 07:01:39.4      24      4     57     25     62  80.3  75.0  33916  285.44 0855.18
2009/04/23 07:01:39.5      16     16     42     24     48  45.0  66.8  33914  285.41 0855.18
2009/04/23 07:01:39.6      -8      8     31     12     33 313.1  81.2  33916  285.44 0855.18
2009/04/23 07:01:39.7     -18      5     22     19     29 288.2  52.2  33916  285.44 0855.18
2009/04/23 07:01:39.8     -24      4     22     25     33 279.7  45.8  33912  285.39 0855.18
2009/04/23 07:01:39.9     -18     10     26     21     33 300.7  56.4  33912  285.39 0855.18
2009/04/23 07:01:40.0      -7      6     24     10     26 313.1  77.1  33910  285.36 0855.18
2009/04/23 07:01:40.1     -14     12     11     19     21 309.5  33.5  33914  285.43 0855.18
2009/04/23 07:01:40.2     -12     11     21     17     27 313.3  56.4  33912  285.38 0855.19
2009/04/23 07:01:40.3     -15      4     37     16     40 285.1  75.0  33914  285.43 0855.19
2009/04/23 07:01:40.4     -17      5     35     18     39 288.6  72.8  33914  285.43 0855.19
2009/04/23 07:01:40.5     -56      4     11     57     59 274.3  11.0  33916  285.44 0855.19
2009/04/23 07:01:40.6     -15    -24     19     29     34 212.6  35.6  33916  285.46 0855.19
2009/04/23 07:01:40.7      -2    -28     23     29     37 184.5  43.7  33916  285.44 0855.19
2009/04/23 07:01:40.8     -34     -3      3     35     36 263.9   4.9  33914  285.43 0855.19
2009/04/23 07:01:40.9     -48    -19      3     52     53 248.3   3.8  33914  285.43 0855.19
2009/04/23 07:01:41.0     -42    -17     15     46     49 247.4  18.4  33914  285.41 0855.19
2009/04/23 07:01:41.1     -49      0     43     50     65 270.0  44.8  33914  285.43 0855.19
2009/04/23 07:01:41.2     -35     12     44     38     58 290.0  54.3  33912  285.39 0855.19
2009/04/23 07:01:41.3     -32     25     48     41     63 307.8  55.4  33914  285.41 0855.19
2009/04/23 07:01:41.4      11      0     73     12     73  90.0  90.0  33912  285.38 0855.19
2009/04/23 07:01:41.5      44    -13     85     46     96 106.8  69.3  33912  285.38 0855.19
2009/04/23 07:01:41.6      35      7     42     36     55  78.5  55.4  33910  285.36 0855.19
2009/04/23 07:01:41.7      49     25     29     56     63  62.9  29.3  33912  285.38 0855.19
2009/04/23 07:01:41.8      68     18     43     71     83  74.9  34.0  33914  285.41 0855.19
2009/04/23 07:01:41.9      63      8     55     64     84  82.1  45.8  33912  285.38 0855.19
2009/04/23 07:01:42.0      47     25     47     54     71  62.0  44.8  33914  285.41 0855.19
2009/04/23 07:01:42.1      81     40     42     91    100  63.4  26.6  33912  285.39 0855.19
2009/04/23 07:01:42.2      66     43     35     80     87  56.7  24.6  33912  285.39 0855.19
2009/04/23 07:01:42.3      46     48     30     67     73  44.2  26.2  33912  285.38 0855.19
2009/04/23 07:01:42.4      24     40     36     47     59  31.6  41.7  33912  285.38 0855.19
2009/04/23 07:01:42.5      57     50     29     77     82  48.7  21.5  33910  285.36 0855.19
2009/04/23 07:01:42.6      44     40     37     60     70  47.8  35.5  33912  285.38 0855.19
2009/04/23 07:01:42.7      69     35     22     78     82  62.9  15.8  33912  285.39 0855.19
2009/04/23 07:01:42.8      61     16     33     64     72  74.9  28.2  33914  285.41 0855.19
2009/04/23 07:01:42.9      58     14     44     60     74  75.8  39.7  33916  285.44 0855.19
2009/04/23 07:01:43.0      67      7     53     68     86  83.9  41.7  33912  285.39 0855.19
2009/04/23 07:01:43.1      23     19     44     31     53  50.5  61.5  33916  285.44 0855.19
2009/04/23 07:01:43.2      63    -54     56     84    100 130.4  37.0  33918  285.50 0855.19
2009/04/23 07:01:43.3      19    -68     35     71     79 164.0  28.2  33918  285.48 0855.19
2009/04/23 07:01:43.4     -23    -72     52     76     92 198.3  37.6  33914  285.43 0855.19
2009/04/23 07:01:43.5     -33    -53     75     63     97 211.6  55.8  33922  285.55 0855.19
2009/04/23 07:01:43.6     -20    -32     60     38     71 212.5  64.7  33924  285.58 0855.19
2009/04/23 07:01:43.7      32      9     58     34     67  73.2  66.8  33920  285.51 0855.19
2009/04/23 07:01:43.8      10    -16     52     19     55 147.4  81.2  33916  285.44 0855.19
2009/04/23 07:01:43.9      19     -7     50     21     54 110.0  77.1  33914  285.41 0855.19
2009/04/23 07:01:44.0       0     -3     43      4     43 184.5  90.0  33916  285.44 0855.19
2009/04/23 07:01:44.1      -5    -16     48     17     50 198.7  81.2  33916  285.44 0855.19
2009/04/23 07:01:44.2       4    -56     59     57     82 175.5  50.7  33912  285.38 0855.19
2009/04/23 07:01:44.3      -9    -70     38     71     80 188.0  30.3  33914  285.41 0855.19
2009/04/23 07:01:44.4      12    -61     19     63     67 168.5  17.3  33910  285.36 0855.19
2009/04/23 07:01:44.5     -17    -66     30     69     75 194.3  25.1  33912  285.39 0855.19
2009/04/23 07:01:44.6     -23    -42     17     49     52 209.0  19.4  33914  285.43 0855.19
2009/04/23 07:01:44.7     -34    -21     59     41     71 237.6  61.5  33914  285.41 0855.19
2009/04/23 07:01:44.8     -45    -25     60     52     79 240.2  54.8  33918  285.48 0855.19
2009/04/23 07:01:44.9     -43    -18     41     47     62 247.4  46.9  33916  285.44 0855.19
2009/04/23 07:01:45.0     -94     -5     26     95     99 266.5  15.8  33910  285.36 0855.19
2009/04/23 07:01:45.1     -62    -10     59     63     86 260.3  48.5  33914  285.41 0855.19
2009/04/23 07:01:45.2     -38    -24     58     46     74 237.6  56.4  33916  285.44 0855.20
2009/04/23 07:01:45.3     -18    -20     37     28     46 221.4  59.4  33916  285.46 0855.20
2009/04/23 07:01:45.4      -7      3     33      8     33 295.3  86.9  33914  285.41 0855.20
2009/04/23 07:01:45.5     -12      8     13     15     19 302.4  45.8  33912  285.39 0855.20
2009/04/23 07:01:45.6     -57     22      6     62     63 290.8   5.9  33910  285.34 0855.20
2009/04/23 07:01:45.7     -40     48     49     63     79 320.4  42.2  33908  285.33 0855.20
2009/04/23 07:01:45.8    -118     45     30    127    131 290.8  13.7  33904  285.26 0855.20
2009/04/23 07:01:45.9     -98     42     24    107    110 293.5  12.6  33904  285.26 0855.20
2009/04/23 07:01:46.0     -95     58     51    112    123 301.5  25.7  33904  285.26 0855.20
2009/04/23 07:01:46.1    -117     58     60    131    144 296.6  26.6  33904  285.26 0855.20
2009/04/23 07:01:46.2    -100     51     76    113    136 297.1  37.0  33906  285.28 0855.20
2009/04/23 07:01:46.3     -44     19     83     49     96 293.5  66.2  33902  285.23 0855.20
2009/04/23 07:01:46.4     -22      4     78     23     81 281.5  83.3  33906  285.29 0855.20
2009/04/23 07:01:46.5     -26     23     60     35     69 311.3  66.8  33908  285.31 0855.20
2009/04/23 07:01:46.6     -38     26     62     47     77 304.2  59.4  33904  285.24 0855.20
2009/04/23 07:01:46.7     -27     17     65     32     72 302.4  72.8  33904  285.26 0855.20
2009/04/23 07:01:46.8      -7    -35     86     36     93 191.6  76.1  33910  285.36 0855.20
2009/04/23 07:01:46.9      14    -41     55     44     70 160.8  56.4  33912  285.39 0855.20
2009/04/23 07:01:47.0      37     -7     85     38     93 101.5  74.5  33914  285.41 0855.20
2009/04/23 07:01:47.1      59    -70     77     92    119 139.9  43.8  33918  285.48 0855.20
2009/04/23 07:01:47.2      29    -74     63     80    101 158.2  42.7  33916  285.46 0855.20
2009/04/23 07:01:47.3     -10    -90     69     91    114 186.7  41.2  33916  285.44 0855.20
2009/04/23 07:01:47.4     -33    -53     54     63     82 212.5  45.4  33914  285.41 0855.20
2009/04/23 07:01:47.5      38    -46     41     60     72 140.4  37.6  33918  285.48 0855.20
2009/04/23 07:01:47.6      24    -52     29     58     64 154.7  28.2  33920  285.51 0855.20
2009/04/23 07:01:47.7      26    -26     45     37     58 135.0  56.3  33918  285.50 0855.20
2009/04/23 07:01:47.8     -14     41     45     44     62 340.8  50.1  33918  285.50 0855.20
2009/04/23 07:01:47.9     -33     -7     46     34     57 256.7  59.4  33916  285.44 0855.20
2009/04/23 07:01:48.0     -52     25     56     58     80 296.2  49.4  33914  285.43 0855.20
2009/04/23 07:01:48.1     -67    -22     32     71     77 251.6  26.2  33914  285.43 0855.20
2009/04/23 07:01:48.2       6     -7     15     10     18 140.4  64.6  33912  285.39 0855.20
2009/04/23 07:01:48.3       3      0     45      4     45  94.4  90.0  33916  285.44 0855.20
2009/04/23 07:01:48.4     -63      0     57     64     85 270.0  46.4  33912  285.38 0855.20
2009/04/23 07:01:48.5     -32      2     48     33     58 274.3  63.6  33914  285.43 0855.20
2009/04/23 07:01:48.6      -2    -34     77     35     84 184.4  74.0  33914  285.43 0855.20
2009/04/23 07:01:48.7      36    -94     53    101    114 158.6  30.3  33916  285.46 0855.20
2009/04/23 07:01:48.8      42    -84     30     95    100 153.3  17.9  33914  285.41 0855.20
2009/04/23 07:01:48.9      40    -71     39     82     90 150.1  27.2  33912  285.39 0855.20
2009/04/23 07:01:49.0      21    -78     48     81     94 164.4  34.0  33916  285.44 0855.20
2009/04/23 07:01:49.1      19    -59     46     63     78 161.5  39.7  33914  285.43 0855.20
2009/04/23 07:01:49.2      16    -65     14     68     70 165.7  12.2  33914  285.41 0855.20
2009/04/23 07:01:49.3     -36    -63     31     73     79 209.9  24.1  33912  285.39 0855.20
2009/04/23 07:01:49.4     -52    -56     36     77     85 223.2  26.6  33908  285.33 0855.20
2009/04/23 07:01:49.5     -60    -78     56     99    113 217.8  31.9  33912  285.38 0855.20
2009/04/23 07:01:49.6     -61    -90     66    110    128 214.3  34.0  33910  285.34 0855.20
2009/04/23 07:01:49.7     -65    -55     64     86    107 229.6  40.1  33910  285.36 0855.20
2009/04/23 07:01:49.8     -62    -98     66    117    134 212.5  31.9  33912  285.39 0855.20
2009/04/23 07:01:49.9     -83    -72     73    110    132 229.1  36.5  33910  285.36 0855.20
2009/04/23 07:01:50.0     -59    -48     61     77     98 230.5  43.3  33906  285.28 0855.20
2009/04/23 07:01:50.1     -18    -56     41     60     72 198.3  37.6  33912  285.38 0855.20
2009/04/23 07:01:50.2      17    -42     33     46     56 157.3  38.6  33914  285.41 0855.20
2009/04/23 07:01:50.3      34    -41     33     54     63 140.4  34.4  33914  285.43 0855.20
2009/04/23 07:01:50.4      21    -46     21     51     55 154.6  24.1  33916  285.46 0855.20
2009/04/23 07:01:50.5      21    -32     21     39     44 147.4  31.4  33916  285.44 0855.20
2009/04/23 07:01:50.6       6    -31     30     32     43 168.4  50.0  33916  285.46 0855.20
2009/04/23 07:01:50.7       7    -35     26     36     44 168.4  39.7  33916  285.44 0855.20
2009/04/23 07:01:50.8      13    -23     33     27     42 149.3  55.4  33918  285.48 0855.20
2009/04/23 07:01:50.9       4    -22     36     23     42 168.4  64.7  33916  285.44 0855.20
2009/04/23 07:01:51.0      -1    -37     40     38     55 182.6  50.1  33916  285.44 0855.20
2009/04/23 07:01:51.1     -20    -45     32     50     59 203.6  35.6  33916  285.46 0855.20
2009/04/23 07:01:51.2     -11    -29     41     32     52 201.8  57.5  33916  285.46 0855.20
2009/04/23 07:01:51.3      -1    -21     48     22     52 184.5  73.1  33920  285.53 0855.20
2009/04/23 07:01:51.4       2    -13     51     14     52 168.4  84.9  33920  285.53 0855.20
2009/04/23 07:01:51.5     -22     -9     25     25     35 246.5  50.1  33922  285.55 0855.20
2009/04/23 07:01:51.6     -24    -12     23     28     36 242.9  43.7  33918  285.50 0855.20
2009/04/23 07:01:51.7     -14     -6     33     16     36 244.7  72.9  33918  285.48 0855.20
2009/04/23 07:01:51.8     -10    -22     37     25     44 203.6  63.6  33920  285.51 0855.20
2009/04/23 07:01:51.9      -1    -30     40     31     50 182.6  57.5  33922  285.55 0855.20
2009/04/23 07:01:52.0      -5    -31     35     32     47 189.8  52.2  33926  285.61 0855.20
2009/04/23 07:01:52.1     -11    -35     41     37     55 198.7  53.3  33924  285.58 0855.20
2009/04/23 07:01:52.2     -18    -53     48     57     74 198.7  43.8  33916  285.44 0855.20
2009/04/23 07:01:52.3     -49    -66     66     83    106 216.5  42.7  33910  285.34 0855.20
2009/04/23 07:01:52.4     -70    -45     58     84    102 237.6  38.6  33918  285.48 0855.20
2009/04/23 07:01:52.5     -96    -35     42    103    111 249.6  23.1  33924  285.58 0855.20
2009/04/23 07:01:52.6     -81    -50     23     96     99 238.0  13.7  33940  285.85 0855.20
2009/04/23 07:01:52.7     -31    -49     33     59     67 212.6  31.4  33924  285.60 0855.20
2009/04/23 07:01:52.8     -26    -56     46     62     77 205.4  39.7  33920  285.53 0855.20
2009/04/23 07:01:52.9      -4    -14     42     15     44 198.5  81.2  33920  285.53 0855.20
2009/04/23 07:01:53.0       0    -16     27     17     31 182.7  64.7  33922  285.55 0855.20
2009/04/23 07:01:53.1      -6    -18     40     20     44 200.0  70.8  33922  285.56 0855.20
2009/04/23 07:01:53.2     -67    -82     62    107    123 219.2  33.4  33918  285.50 0855.21
2009/04/23 07:01:53.3     -57    -83     51    101    113 214.7  28.2  33914  285.43 0855.21
2009/04/23 07:01:53.4     -61    -69     54     93    107 221.4  32.9  33906  285.29 0855.21
2009/04/23 07:01:53.5     -72    -53     69     90    113 233.6  41.7  33916  285.46 0855.21
2009/04/23 07:01:53.6     -59    -71     55     93    108 219.6  34.0  33918  285.48 0855.21
2009/04/23 07:01:53.7     -68    -54     61     88    107 231.4  38.0  33928  285.65 0855.21
2009/04/23 07:01:53.8     -91    -17     40     93    101 259.0  24.6  33944  285.92 0855.21
2009/04/23 07:01:53.9     -69    -25     26     74     79 250.0  19.4  33942  285.90 0855.21
2009/04/23 07:01:54.0     -76    -15      9     78     79 258.5   6.9  33940  285.85 0855.21
2009/04/23 07:01:54.1     -37      6     -9     38     40 280.6 -13.4  33936  285.80 0855.21
2009/04/23 07:01:54.2     -35     -8    -11     36     38 256.7 -17.6  33932  285.71 0855.21
2009/04/23 07:01:54.3      -1    -41     31     42     52 181.8  40.7  33922  285.55 0855.21
2009/04/23 07:01:54.4      17    -39     51     43     66 156.4  55.4  33920  285.51 0855.21
2009/04/23 07:01:54.5      12    -27     42     30     51 154.6  60.5  33920  285.51 0855.21
2009/04/23 07:01:54.6      -2    -42     50     43     65 182.7  55.4  33926  285.63 0855.21
2009/04/23 07:01:54.7       0    -46     46     47     65 180.0  50.0  33926  285.63 0855.21
2009/04/23 07:01:54.8       2    -38     44     39     58 175.6  53.3  33922  285.56 0855.21
2009/04/23 07:01:54.9      -1    -53     40     54     67 181.8  39.7  33922  285.56 0855.21
2009/04/23 07:01:55.0      -1    -73     57     74     93 181.0  42.2  33920  285.51 0855.21
2009/04/23 07:01:55.1      -5    -72     52     73     89 184.5  39.1  33918  285.50 0855.21
2009/04/23 07:01:55.2       6    -54     55     55     77 172.9  50.1  33920  285.53 0855.21
2009/04/23 07:01:55.3       7    -59     56     60     82 172.9  48.5  33918  285.50 0855.21
2009/04/23 07:01:55.4      13    -70     60     72     93 169.3  44.3  33918  285.48 0855.21
2009/04/23 07:01:55.5      28    -59     55     66     85 154.5  44.3  33914  285.41 0855.21
2009/04/23 07:01:55.6      39    -42     44     58     72 136.8  41.7  33916  285.44 0855.21
2009/04/23 07:01:55.7      24    -47     47     53     70 152.8  46.9  33916  285.46 0855.21
2009/04/23 07:01:55.8      26    -70     53     75     91 159.1  39.1  33920  285.51 0855.21
2009/04/23 07:01:55.9      50    -71     62     88    107 144.8  39.5  33922  285.56 0855.21
2009/04/23 07:01:56.0      54    -80     53     97    110 145.7  31.3  33922  285.55 0855.21
2009/04/23 07:01:56.1      51    -80     55     95    109 147.5  32.9  33920  285.53 0855.21
2009/04/23 07:01:56.2      45    -88     39    100    107 152.8  22.0  33920  285.51 0855.21
2009/04/23 07:01:56.3      49    -84     47     98    108 149.7  27.2  33924  285.58 0855.21
2009/04/23 07:01:56.4      45    -78     44     91    101 149.7  27.3  33922  285.56 0855.21
2009/04/23 07:01:56.5      51    -77     32     93     99 146.2  19.4  33922  285.55 0855.21
2009/04/23 07:01:56.6      64    -71     41     96    104 138.1  23.6  33920  285.53 0855.21
2009/04/23 07:01:56.7      58    -54     44     80     91 133.2  31.4  33922  285.56 0855.21
2009/04/23 07:01:56.8      50    -50     50     72     87 134.9  38.0  33924  285.58 0855.21
2009/04/23 07:01:56.9      62    -39     44     74     86 122.5  34.0  33922  285.55 0855.21
2009/04/23 07:01:57.0      58    -34     53     68     86 120.7  41.7  33922  285.55 0855.21
2009/04/23 07:01:57.1      67    -22     53     71     88 108.4  40.7  33922  285.55 0855.21
2009/04/23 07:01:57.2      80    -11     61     81    101  98.4  40.7  33918  285.48 0855.21
2009/04/23 07:01:57.3      57    -11     62     59     85 101.4  51.2  33918  285.50 0855.21
2009/04/23 07:01:57.4      53     -6     57     54     78  97.0  51.6  33920  285.51 0855.21
2009/04/23 07:01:57.5      42     -1     62     43     75  92.6  62.6  33918  285.50 0855.21
2009/04/23 07:01:57.6      62      6     41     63     75  83.9  35.6  33918  285.48 0855.21
2009/04/23 07:01:57.7      58      6     24     59     63  83.9  23.0  33918  285.48 0855.21
2009/04/23 07:01:57.8      40    -13     14     43     46 108.6  18.4  33916  285.46 0855.21
2009/04/23 07:01:57.9      48    -33     10     59     60 124.2  10.1  33918  285.48 0855.21
2009/04/23 07:01:58.0      51    -22     -1     56     57 113.5  -1.3  33918  285.48 0855.21
2009/04/23 07:01:58.1      51    -22     -1     56     57 113.5  -1.3  33918  285.48 0855.21
2009/04/23 07:01:58.2      45    -14     -3     48     49 107.7  -4.1  33918  285.48 0855.21
2009/04/23 07:01:58.3      48     -9     -1     49     50 101.5  -2.2  33916  285.44 0855.21
2009/04/23 07:01:58.4      52     -8     -2     53     54  98.8  -2.2  33916  285.44 0855.21
2009/04/23 07:01:58.5      46    -10     -9     48     49 102.4 -11.3  33914  285.43 0855.21
2009/04/23 07:01:58.6      39      0     -1     40     41  90.0  -2.2  33916  285.44 0855.21
2009/04/23 07:01:58.7      38     -2    -11     39     41  94.3 -16.6  33918  285.50 0855.21
2009/04/23 07:01:58.8      35     -7    -17     36     39 101.5 -30.6  33916  285.46 0855.21
2009/04/23 07:01:58.9      31    -15    -21     35     40 117.1 -38.8  33916  285.46 0855.21
2009/04/23 07:01:59.0      24    -15    -17     29     33 122.5 -37.9  33916  285.44 0855.21
2009/04/23 07:01:59.2      22     -7    -11     24     26 108.2 -29.5  33918  285.48 0855.21
2009/04/23 07:01:59.3      12      0    -13     13     18  90.0 -54.5  33922  285.56 0855.21
2009/04/23 07:01:59.3       9      0    -11     10     14  90.0 -52.6  33924  285.58 0855.21
2009/04/23 07:01:59.5       5     -4     -6      7      9 129.5 -56.4  33920  285.53 0855.21
2009/04/23 07:01:59.5      11     -6      0     13     14 118.9  -2.2  33922  285.56 0855.21
2009/04/23 07:01:59.6      14      6      3     16     17  64.7  11.1  33926  285.61 0855.21
2009/04/23 07:01:59.7      27      0     13     28     30  90.0  27.1  33932  285.71 0855.21
2009/04/23 07:01:59.8      29      2     22     30     37  85.6  39.7  33934  285.76 0855.21
2009/04/23 07:01:59.9      22      0     29     23     37  90.0  56.4  33930  285.68 0855.21
2009/04/23 07:02:00.0      29      2     29     30     41  85.7  50.0  33936  285.78 0855.21
2009/04/23 07:02:00.1      29     -2     29     30     41  94.3  50.0  33946  285.95 0855.21
2009/04/23 07:02:00.2      26      6     26     27     37  76.7  52.0  33954  286.08 0855.21
2009/04/23 07:02:00.3      39     13     26     42     49  70.9  35.5  33956  286.14 0855.21
2009/04/23 07:02:00.5      36     12     34     39     51  71.4  45.8  33952  286.05 0855.21
2009/04/23 07:02:00.6      36     14     35     39     52  68.3  46.9  33972  286.41 0855.21
2009/04/23 07:02:00.6      37     23     30     44     53  57.6  37.6  33970  286.37 0855.21
2009/04/23 07:02:00.8      33     18     33     38     50  61.1  44.8  33964  286.27 0855.21
2009/04/23 07:02:00.9      28     26     35     39     52  46.9  46.9  33954  286.08 0855.21
2009/04/23 07:02:01.0      10     10     31     15     34  45.0  72.9  33946  285.97 0855.21
2009/04/23 07:02:01.1       2     13     17     14     22  11.6  56.4  33944  285.93 0855.21
2009/04/23 07:02:01.2      -1     13      8     14     16 353.8  35.5  33940  285.85 0855.21
2009/04/23 07:02:01.3     -21     21      1     31     32 314.9   2.9  33938  285.82 0855.21
2009/04/23 07:02:01.4     -17     26      6     32     33 327.5  11.0  33936  285.78 0855.21
2009/04/23 07:02:01.5      -3      7     -4      8      9 334.6 -31.6  33932  285.71 0855.21
2009/04/23 07:02:01.6     -17      3      0     18     19 281.5  -2.2  33928  285.65 0855.21
2009/04/23 07:02:01.7     -10     -3     22     11     24 251.6  72.9  33926  285.61 0855.21
2009/04/23 07:02:01.8       7    -41     65     42     77 169.3  64.6  33924  285.60 0855.21
2009/04/23 07:02:01.9     -19    -58     65     62     89 198.5  51.2  33924  285.60 0855.21
2009/04/23 07:02:02.0       0    -68     46     69     82 180.0  37.0  33924  285.58 0855.21
2009/04/23 07:02:02.1       4    -83     58     84    102 176.9  38.6  33924  285.60 0855.21
2009/04/23 07:02:02.2      -5    -73     46     74     87 184.5  35.5  33930  285.68 0855.21
2009/04/23 07:02:02.3     -10    -49     69     51     85 191.6  60.0  33940  285.87 0855.21
2009/04/23 07:02:02.4     -12    -62     59     64     87 191.5  47.9  33942  285.90 0855.21
2009/04/23 07:02:02.5      -4    -57     72     58     92 184.4  56.4  33932  285.71 0855.21
2009/04/23 07:02:02.6     -19    -71     28     74     79 195.1  21.5  33924  285.58 0855.21
2009/04/23 07:02:02.7     -14    -61     19     63     66 193.4  17.3  33920  285.53 0855.21
2009/04/23 07:02:02.8      -5    -49     12     50     52 186.2  14.3  33918  285.50 0855.21
2009/04/23 07:02:02.9       3    -46      9     47     48 175.5  11.1  33920  285.53 0855.21
2009/04/23 07:02:03.0       0    -45     -1     46     47 180.0  -2.2  33922  285.55 0855.21
2009/04/23 07:02:03.1       2    -45     -3     46     47 176.4  -4.1  33920  285.53 0855.21
2009/04/23 07:02:03.2       3    -49     -1     50     51 175.5  -2.2  33918  285.50 0855.21
2009/04/23 07:02:03.3       2    -45     -3     46     47 176.4  -4.1  33920  285.53 0855.20
2009/04/23 07:02:03.4       0    -48     -6     49     50 179.1  -7.3  33920  285.51 0855.20
2009/04/23 07:02:03.5      -4    -59    -13     60     62 184.5 -12.4  33920  285.53 0855.20
2009/04/23 07:02:03.6      -4    -59    -13     60     62 184.5 -12.4  33920  285.53 0855.20
2009/04/23 07:02:03.7      -6    -60    -12     61     63 186.2 -11.3  33922  285.55 0855.20
2009/04/23 07:02:03.8     -10    -64    -14     65     67 188.9 -12.4  33924  285.58 0855.20
2009/04/23 07:02:03.9      -9    -56    -12     57     59 189.8 -12.4  33924  285.58 0855.20
2009/04/23 07:02:04.0      -1    -51    -14     52     55 181.8 -15.5  33926  285.61 0855.20
2009/04/23 07:02:04.1      -1    -41    -15     42     44 181.8 -23.3  33924  285.58 0855.20
2009/04/23 07:02:04.2       0    -38    -13     39     41 180.9 -23.6  33924  285.60 0855.20
2009/04/23 07:02:04.3      15    -33    -10     37     38 154.6 -21.7  33922  285.56 0855.20
2009/04/23 07:02:04.4      12    -31    -13     34     36 158.2 -23.3  33926  285.61 0855.20
2009/04/23 07:02:04.5      20    -36    -13     42     43 150.1 -22.8  33926  285.61 0855.20
2009/04/23 07:02:04.6      24    -50     -4     56     57 154.5  -4.1  33924  285.58 0855.20
2009/04/23 07:02:04.7      20    -57     -3     61     62 160.0  -3.2  33920  285.53 0855.20
2009/04/23 07:02:04.8      22    -50     -3     55     56 155.5  -3.1  33924  285.58 0855.20
2009/04/23 07:02:04.9      24    -50      2     56     57 154.5   2.8  33918  285.50 0855.20
2009/04/23 07:02:05.0      26    -45      4     53     54 150.1   4.9  33918  285.48 0855.20
2009/04/23 07:02:05.1      30    -48      9     57     58 147.5   9.0  33920  285.51 0855.20
2009/04/23 07:02:05.2      29    -44     16     53     56 146.6  17.3  33920  285.53 0855.20
2009/04/23 07:02:05.3      36    -45      7     58     59 141.3   6.9  33922  285.55 0855.20
2009/04/23 07:02:05.4       9    -61     12     62     64 171.1  11.1  33916  285.46 0855.20
2009/04/23 07:02:05.5       0    -65     30     66     72 180.0  27.1  33918  285.50 0855.20
2009/04/23 07:02:05.6      23    -59     30     64     70 158.1  27.2  33920  285.51 0855.20
2009/04/23 07:02:05.7      40    -54     33     68     75 143.9  27.3  33918  285.48 0855.20
2009/04/23 07:02:05.8      40    -54     33     68     75 143.9  27.3  33918  285.48 0855.20
2009/04/23 07:02:05.9      39    -62     39     74     83 147.4  29.8  33916  285.46 0855.20
2009/04/23 07:02:06.0      39    -70     32     81     87 151.0  22.0  33918  285.48 0855.20
2009/04/23 07:02:06.1      40    -74     43     85     95 151.9  28.7  33920  285.51 0855.20
2009/04/23 07:02:06.2      38    -83     37     92     99 155.5  23.0  33918  285.48 0855.20
2009/04/23 07:02:06.3      15   -107     49    109    119 172.0  25.7  33922  285.56 0855.20
2009/04/23 07:02:06.4      16   -149     70    150    165 173.8  26.6  33918  285.50 0855.20
2009/04/23 07:02:06.5      27   -134     71    137    154 168.4  29.3  33922  285.55 0855.20
2009/04/23 07:02:06.6       9   -127     59    128    140 175.5  26.6  33920  285.53 0855.20
2009/04/23 07:02:06.7      14   -133     78    134    155 173.8  33.4  33922  285.55 0855.20
2009/04/23 07:02:06.8      31   -116     96    121    154 164.9  42.7  33922  285.55 0855.20
2009/04/23 07:02:06.9      32    -99     81    105    132 162.2  41.7  33920  285.51 0855.20
2009/04/23 07:02:07.0      61    -84     59    104    119 143.9  31.9  33924  285.58 0855.20
2009/04/23 07:02:07.1       6    -11     26     13     29 151.0  72.9  33932  285.71 0855.20
2009/04/23 07:02:07.2      -8     -5     11     10     14 237.6  48.2  33930  285.68 0855.20
2009/04/23 07:02:07.3     -46     -3     39     47     61 265.6  43.8  33930  285.68 0855.20
2009/04/23 07:02:07.4     -12    -48     34     50     60 195.1  37.6  33930  285.68 0855.20
2009/04/23 07:02:07.5      11    -85     65     86    107 172.4  40.7  33918  285.50 0855.20
2009/04/23 07:02:07.6     -26   -102     15    106    108 194.7   8.5  33924  285.58 0855.20
2009/04/23 07:02:07.7     -79    -65     16    103    105 230.5   9.0  33926  285.61 0855.20
2009/04/23 07:02:07.8     -69    -30     -9     76     77 246.5  -7.3  33920  285.51 0855.20
2009/04/23 07:02:07.9     -66    -10     -4     67     68 261.2  -4.1  33918  285.50 0855.20
2009/04/23 07:02:08.0     -56     -6    -12     57     59 263.0 -12.4  33918  285.48 0855.20
2009/04/23 07:02:08.1     -39     -7     -1     40     41 258.5  -2.2  33918  285.50 0855.20
2009/04/23 07:02:08.2     -24    -15     -9     29     30 237.5 -23.8  33916  285.44 0855.20
2009/04/23 07:02:08.3     -31    -17      1     36     37 241.1   2.9  33920  285.51 0855.20
2009/04/23 07:02:08.4     -32    -15     15     36     39 244.8  21.0  33920  285.51 0855.20
2009/04/23 07:02:08.5     -28    -13     13     31     33 244.6  23.0  33922  285.55 0855.20
2009/04/23 07:02:08.6     -34    -27      3     44     45 232.2   4.9  33924  285.58 0855.20
2009/04/23 07:02:08.7     -26    -38     -1     47     48 214.3  -2.2  33924  285.60 0855.20
2009/04/23 07:02:08.8     -32    -43     -1     54     55 217.0  -1.3  33922  285.55 0855.20
2009/04/23 07:02:08.9     -26    -56     -9     62     63 205.4  -8.2  33920  285.53 0855.20
2009/04/23 07:02:09.0     -13    -53    -16     55     58 194.3 -16.6  33922  285.55 0855.20
2009/04/23 07:02:09.1     -18    -46    -16     50     52 201.8 -23.8  33920  285.53 0855.20
2009/04/23 07:02:09.2     -11    -53     -2     55     56 192.5  -2.2  33922  285.56 0855.20
2009/04/23 07:02:09.3     -17    -53    -15     56     59 197.8 -15.4  33920  285.53 0855.20
2009/04/23 07:02:09.4     -28    -58      3     65     66 206.3   2.8  33918  285.50 0855.20
2009/04/23 07:02:09.5     -40    -54     -8     68     69 217.0  -7.3  33916  285.46 0855.20
2009/04/23 07:02:09.6     -70    -71     -7    100    101 224.7  -4.1  33916  285.44 0855.20
2009/04/23 07:02:09.7     -53    -84     10    100    101 212.1   5.9  33916  285.44 0855.20
2009/04/23 07:02:09.8     -75    -81      3    111    112 222.8   1.8  33914  285.41 0855.20
2009/04/23 07:02:09.9     -53    -80      9     97     98 213.8   5.4  33914  285.41 0855.20
2009/04/23 07:02:10.0     -29    -61     22     68     72 205.3  18.4  33916  285.46 0855.20
2009/04/23 07:02:10.1     -21    -63     37     67     76 198.3  31.4  33920  285.53 0855.20
2009/04/23 07:02:10.2     -10    -73     49     74     88 188.1  36.5  33924  285.60 0855.20
2009/04/23 07:02:10.3     -22    -83     51     86     99 195.1  33.5  33918  285.50 0855.20
2009/04/23 07:02:10.4     -14    -72     57     74     93 191.6  42.2  33918  285.50 0855.20
2009/04/23 07:02:10.5     -23    -67     56     72     91 199.2  42.2  33918  285.48 0855.20
2009/04/23 07:02:10.6       6    -72     34     73     80 174.7  26.6  33914  285.43 0855.20
2009/04/23 07:02:10.7      22    -70     41     74     84 162.2  31.9  33918  285.48 0855.20
2009/04/23 07:02:10.8      32    -67     32     75     81 154.5  24.1  33914  285.43 0855.20
2009/04/23 07:02:10.9      28    -59     28     66     71 154.5  24.1  33914  285.43 0855.20
2009/04/23 07:02:11.0      30    -67     34     74     81 155.5  26.2  33916  285.46 0855.20
2009/04/23 07:02:11.1      34    -51     46     62     77 145.7  39.7  33914  285.43 0855.20
2009/04/23 07:02:11.2      48    -19     53     52     74 111.7  49.1  33912  285.39 0855.20
2009/04/23 07:02:11.3      51    -17     50     55     74 109.1  47.9  33914  285.43 0855.20
2009/04/23 07:02:11.4      68    -32     42     76     86 115.4  31.9  33918  285.48 0855.20
2009/04/23 07:02:11.5      78    -32     36     85     92 112.6  24.1  33916  285.46 0855.20
2009/04/23 07:02:11.6      78    -31     22     85     88 111.7  14.7  33916  285.44 0855.20
2009/04/23 07:02:11.7      61    -39     25     73     78 122.5  19.4  33914  285.41 0855.20
2009/04/23 07:02:11.8      43    -31     39     54     66 126.0  39.5  33916  285.46 0855.20
2009/04/23 07:02:11.9      53    -44     31     69     75 129.6  27.1  33916  285.44 0855.20
2009/04/23 07:02:12.0      43    -26     34     51     61 120.7  36.5  33916  285.46 0855.20
2009/04/23 07:02:12.1      27    -35     34     45     56 143.0  40.7  33914  285.43 0855.20
2009/04/23 07:02:12.2      30    -49     21     58     61 148.4  20.0  33916  285.44 0855.21
2009/04/23 07:02:12.3      45    -55     16     72     74 140.3  13.2  33916  285.44 0855.21
2009/04/23 07:02:12.4      37    -40     36     55     65 136.8  35.6  33916  285.44 0855.21
2009/04/23 07:02:12.5      43    -43     42     61     74 135.0  36.5  33914  285.43 0855.21
2009/04/23 07:02:12.6      52    -38     37     65     74 126.0  32.4  33914  285.41 0855.21
2009/04/23 07:02:12.7      35    -23     46     43     62 123.3  52.1  33914  285.43 0855.21
2009/04/23 07:02:12.8      13    -52     54     54     76 165.7  50.1  33914  285.41 0855.21
2009/04/23 07:02:12.9      -5    -61     62     62     87 185.3  50.1  33916  285.44 0855.21
2009/04/23 07:02:13.0       0    -68     86     69    110 180.0  56.4  33910  285.36 0855.21
2009/04/23 07:02:13.1     -22    -98    100    101    142 192.9  50.0  33914  285.41 0855.21
2009/04/23 07:02:13.2     -60   -116     78    131    152 207.6  33.5  33914  285.41 0855.21
2009/04/23 07:02:13.3     -50   -105     37    117    123 205.3  17.9  33912  285.38 0855.21
2009/04/23 07:02:13.4     -47   -102     31    113    118 204.9  15.3  33914  285.41 0855.21
2009/04/23 07:02:13.5     -51    -93     28    107    111 209.0  14.7  33914  285.41 0855.21
2009/04/23 07:02:13.6     -58    -89     20    107    109 213.4  10.6  33916  285.44 0855.21
2009/04/23 07:02:13.7     -58    -91      5    109    110 212.5   2.8  33914  285.43 0855.21
2009/04/23 07:02:13.8     -53    -84      9    100    101 212.6   5.4  33916  285.44 0855.21
2009/04/23 07:02:13.9     -42    -86     33     97    103 206.3  18.9  33914  285.43 0855.21
2009/04/23 07:02:14.0     -38    -87     57     95    110 203.6  34.4  33916  285.44 0855.21
2009/04/23 07:02:14.1     -14    -71     52     73     89 191.6  39.1  33916  285.44 0855.21
2009/04/23 07:02:14.2     -18    -53     48     57     74 198.7  43.8  33916  285.44 0855.20
2009/04/23 07:02:14.3     -21    -48     58     53     78 204.5  52.2  33916  285.44 0855.20
2009/04/23 07:02:14.4     -33    -33     26     48     54 225.0  31.4  33916  285.44 0855.20
2009/04/23 07:02:14.5     -21    -15     16     27     31 234.0  33.5  33916  285.46 0855.20
2009/04/23 07:02:14.6      10    -16     23     19     29 147.5  56.4  33914  285.41 0855.20
2009/04/23 07:02:14.7      29    -43     41     53     67 145.7  41.7  33914  285.41 0855.20
2009/04/23 07:02:14.8      49    -49     62     70     93 134.9  46.4  33912  285.38 0855.20
2009/04/23 07:02:14.9      28    -31     55     43     69 137.7  57.5  33916  285.46 0855.20
2009/04/23 07:02:15.0      12    -38     40     41     57 161.7  51.1  33912  285.39 0855.20
2009/04/23 07:02:15.1      -6    -48     73     49     87 187.1  63.2  33920  285.53 0855.20
2009/04/23 07:02:15.2     -11    -89     84     90    123 187.6  48.0  33922  285.56 0855.20
2009/04/23 07:02:15.3      19      3    105     20    106  78.5  90.0  33916  285.44 0855.20
2009/04/23 07:02:15.4      -2    -20     69     21     72 188.0  81.8  33918  285.50 0855.20
2009/04/23 07:02:15.5      -5    -23     82     24     85 193.4  83.3  33916  285.44 0855.20
2009/04/23 07:02:15.6      17      4     59     18     61  74.9  82.8  33916  285.44 0855.20
2009/04/23 07:02:15.7       9    -17     69     20     71 151.0  83.9  33916  285.46 0855.20
2009/04/23 07:02:15.8      45    -95     71    106    127 154.5  37.0  33912  285.39 0855.20
2009/04/23 07:02:15.9      56   -122     95    135    165 155.1  38.6  33914  285.43 0855.20
2009/04/23 07:02:16.0      49    -96     74    109    131 152.8  37.4  33912  285.38 0855.20
2009/04/23 07:02:16.1      19    -59     73     63     96 161.5  54.8  33914  285.43 0855.20
2009/04/23 07:02:16.2       9    -49     46     50     67 169.3  48.0  33914  285.43 0855.20
2009/04/23 07:02:16.3      11    -43     51     45     68 165.7  52.2  33914  285.41 0855.20
2009/04/23 07:02:16.4      15    -12     42     20     46 129.5  72.9  33914  285.43 0855.20
2009/04/23 07:02:16.5       5    -34     33     35     48 170.2  50.0  33914  285.43 0855.20
2009/04/23 07:02:16.6      25    -42     44     50     66 149.3  46.9  33916  285.44 0855.20
2009/04/23 07:02:16.7      21    -63     49     67     83 161.7  40.1  33912  285.39 0855.20
2009/04/23 07:02:16.8      16    -47     44     50     66 160.8  46.9  33912  285.39 0855.20
2009/04/23 07:02:16.9      39    -41     50     57     75 136.8  45.8  33914  285.43 0855.20
2009/04/23 07:02:17.0      22     -5     49     23     54 103.3  73.1  33914  285.41 0855.20
2009/04/23 07:02:17.1      38    -24     35     45     57 122.4  42.7  33916  285.44 0855.20
2009/04/23 07:02:17.2      35    -28     39     45     59 128.6  45.8  33916  285.44 0855.20
2009/04/23 07:02:17.3      33    -33     32     48     57 135.0  35.6  33914  285.43 0855.20
2009/04/23 07:02:17.4      40    -40     32     57     65 135.0  31.4  33916  285.46 0855.20
2009/04/23 07:02:17.5      59    -38     28     71     76 122.4  22.0  33912  285.39 0855.20
2009/04/23 07:02:17.6       8    -26     37     28     46 161.7  59.4  33914  285.43 0855.20
2009/04/23 07:02:17.7       8    -30     35     32     47 164.9  52.2  33912  285.39 0855.20
2009/04/23 07:02:17.8       3      0     31      4     31  85.6  90.0  33916  285.44 0855.20
2009/04/23 07:02:17.9      37      2     31     38     49  85.6  43.7  33916  285.44 0855.20
2009/04/23 07:02:18.0      55    -15     45     58     73 105.9  42.7  33916  285.46 0855.20
2009/04/23 07:02:18.1      42    -24     39     49     62 119.8  43.7  33912  285.39 0855.20
2009/04/23 07:02:18.2      48    -44     32     66     73 132.2  27.3  33914  285.41 0855.20
2009/04/23 07:02:18.3      47    -38     39     61     72 128.6  35.6  33914  285.41 0855.20
2009/04/23 07:02:18.4      35    -32     48     48     67 132.2  50.1  33912  285.39 0855.20
2009/04/23 07:02:18.5      15    -74     62     76     98 168.4  43.7  33912  285.39 0855.20
2009/04/23 07:02:18.6      17    -77     71     79    106 167.5  47.5  33914  285.41 0855.20
2009/04/23 07:02:18.7       9    -72     76     73    105 172.9  50.7  33914  285.41 0855.20
2009/04/23 07:02:18.8       0    -38     53     39     65 180.9  60.5  33916  285.44 0855.20
2009/04/23 07:02:18.9       8    -26     51     28     58 161.7  68.8  33914  285.41 0855.20
2009/04/23 07:02:19.0      25    -19     50     32     59 127.8  64.6  33914  285.43 0855.20
2009/04/23 07:02:19.1      33     26     33     43     54  51.4  41.7  33918  285.48 0855.20
2009/04/23 07:02:19.2     -26     13     13     30     32 297.1  25.1  33918  285.50 0855.20
2009/04/23 07:02:19.3     -46      4     30     47     55 275.2  35.5  33920  285.51 0855.20
2009/04/23 07:02:19.4     -62     30     37     70     79 296.2  30.3  33916  285.46 0855.20
2009/04/23 07:02:19.5     -80     25     21     84     87 287.7  14.3  33912  285.39 0855.20
2009/04/23 07:02:19.6     -79     26      4     84     85 288.4   2.9  33910  285.34 0855.20
2009/04/23 07:02:19.7     -77     41     31     88     94 298.4  19.4  33904  285.26 0855.20
2009/04/23 07:02:19.8     -68     53     20     87     90 307.8  13.2  33908  285.31 0855.20
2009/04/23 07:02:19.9     -67     55      4     87     88 309.5   2.8  33908  285.31 0855.20
2009/04/23 07:02:20.0     -65     44    -18     79     82 304.2 -12.9  33906  285.29 0855.20
2009/04/23 07:02:20.1     -67     53      4     86     87 308.6   2.9  33898  285.16 0855.20
2009/04/23 07:02:20.2     -62     29     -3     69     70 295.3  -3.1  33904  285.26 0855.20
2009/04/23 07:02:20.3     -62     38     31     73     79 301.5  24.1  33906  285.29 0855.20
2009/04/23 07:02:20.4     -65     21     51     69     85 288.2  40.1  33912  285.38 0855.20
2009/04/23 07:02:20.5     -59     23     35     64     72 291.7  31.3  33912  285.39 0855.20
2009/04/23 07:02:20.6     -45     15     22     48     52 289.1  27.1  33912  285.39 0855.20
2009/04/23 07:02:20.7     -22      0     31     23     38 270.0  58.5  33916  285.44 0855.20
2009/04/23 07:02:20.8     -13    -30     52     33     61 203.6  64.7  33916  285.44 0855.20
2009/04/23 07:02:20.9      32    -15     57     36     67 115.3  64.7  33916  285.44 0855.20
2009/04/23 07:02:21.0      37      0     42     38     56  90.0  52.2  33916  285.46 0855.20
2009/04/23 07:02:21.1      36     12     63     38     73  71.4  65.7  33918  285.48 0855.20
2009/04/23 07:02:21.3      -2    -34     44     35     56 184.5  56.4  33918  285.50 0855.20
2009/04/23 07:02:21.3       6    -32     54     33     63 168.5  65.7  33918  285.50 0855.20
2009/04/23 07:02:21.4      -1      6     66      7     66 350.3  90.0  33916  285.44 0855.20
2009/04/23 07:02:21.5      52     46     48     70     84  48.7  37.6  33914  285.43 0855.20
2009/04/23 07:02:21.6      47     22     57     53     77  64.6  52.1  33914  285.43 0855.20
2009/04/23 07:02:21.7      40     40     59     57     82  45.1  50.7  33918  285.48 0855.20
2009/04/23 07:02:21.8      15     24     36     29     46  32.6  57.5  33918  285.50 0855.20
2009/04/23 07:02:21.9       9      3     24     10     26  68.3  77.1  33926  285.63 0855.20
2009/04/23 07:02:22.0      -7      3     19      8     20 295.3  77.1  33924  285.58 0855.20
2009/04/23 07:02:22.1     -32    -15      7     36     37 244.8  11.1  33926  285.61 0855.20
2009/04/23 07:02:22.2     -47    -12     -8     49     50 254.9  -9.3  33926  285.63 0855.20
2009/04/23 07:02:22.3     -39    -15      5     43     44 248.3   6.9  33930  285.68 0855.20
2009/04/23 07:02:22.5       0    -10      0     11     12 179.1  -1.3  33926  285.61 0855.20
2009/04/23 07:02:22.5      -1     -8      8      9     12 189.7  47.9  33920  285.53 0855.20
2009/04/23 07:02:22.6     -45    -45     35     65     73 225.0  31.4  33922  285.56 0855.20
2009/04/23 07:02:22.7     -58    -33     39     67     77 240.2  33.5  33922  285.55 0855.20
2009/04/23 07:02:22.8     -18    -29     47     35     58 212.5  59.4  33924  285.60 0855.20
2009/04/23 07:02:22.9     -25    -11     41     28     49 246.5  62.6  33924  285.58 0855.20
2009/04/23 07:02:23.0     -34    -23     22     42     47 235.8  30.3  33922  285.55 0855.20
2009/04/23 07:02:23.1     -26    -29     26     40     47 221.4  35.6  33920  285.53 0855.20
2009/04/23 07:02:23.2     -33    -42     40     54     67 218.7  39.7  33918  285.50 0855.20
2009/04/23 07:02:23.3     -80    -86     53    118    129 222.8  26.2  33914  285.43 0855.20
2009/04/23 07:02:23.4    -108    -89     58    141    152 230.5  23.1  33922  285.56 0855.20
2009/04/23 07:02:23.5    -111    -91     81    144    165 230.5  31.9  33926  285.61 0855.20
2009/04/23 07:02:23.6     -99    -88     52    133    142 228.2  22.5  33928  285.66 0855.20
2009/04/23 07:02:23.7     -30    -80     28     86     91 200.9  17.9  33928  285.65 0855.20
2009/04/23 07:02:23.8     -14    -77     27     79     84 190.7  18.9  33924  285.60 0855.20
2009/04/23 07:02:23.9      26    -83     51     87    100 162.6  32.9  33924  285.58 0855.20
2009/04/23 07:02:24.0      25    -63     59     68     90 158.2  45.4  33924  285.58 0855.20
2009/04/23 07:02:24.1       5    -49     40     50     64 173.8  43.7  33920  285.51 0855.20
2009/04/23 07:02:24.2     -23    -26      9     35     37 221.4  15.3  33922  285.55 0855.21
2009/04/23 07:02:24.3     -48    -48     -8     68     69 225.0  -7.3  33916  285.46 0855.21
2009/04/23 07:02:24.4     -36    -39    -23     54     58 222.3 -27.4  33916  285.44 0855.21
2009/04/23 07:02:24.5     -16    -34    -21     38     43 205.4 -35.8  33918  285.50 0855.21
2009/04/23 07:02:24.6      -3    -35      7     36     37 186.2  11.0  33922  285.55 0855.21
2009/04/23 07:02:24.7     -62    -39     23     74     78 237.5  17.3  33932  285.71 0855.21
2009/04/23 07:02:24.8     -71     -6     15     72     74 264.8  12.2  33940  285.87 0855.21
2009/04/23 07:02:24.9     -98     -9      7     99    100 264.3   4.4  33922  285.56 0855.21
2009/04/23 07:02:25.0     -96    -13     12     97     98 262.1   7.5  33922  285.56 0855.21
2009/04/23 07:02:25.1     -84      5      9     85     86 273.9   6.5  33932  285.73 0855.21
2009/04/23 07:02:25.2     -56     27     12     63     65 296.2  11.1  33938  285.82 0855.21
2009/04/23 07:02:25.3     -25      5     27     26     37 281.5  48.2  33932  285.73 0855.21
2009/04/23 07:02:25.4       4    -51     51     52     72 175.5  51.1  33928  285.65 0855.21
2009/04/23 07:02:25.5      11      0     65     12     66  90.8  90.0  33928  285.65 0855.21
2009/04/23 07:02:25.6       6     46     87     47     98   8.0  68.9  33930  285.70 0855.21
2009/04/23 07:02:25.7      43     -7     97     44    106  99.7  74.0  33926  285.61 0855.21
2009/04/23 07:02:25.8       5     21     91     22     93  15.1  86.9  33936  285.78 0855.21
2009/04/23 07:02:25.9      60      3     79     61     99  86.5  58.5  33926  285.61 0855.21
2009/04/23 07:02:26.1      50      5     87     51    100  83.9  67.2  33920  285.53 0855.21
2009/04/23 07:02:26.1      25     14     80     29     85  61.1  80.2  33924  285.60 0855.21
2009/04/23 07:02:26.2      -7     22     64     24     68 341.7  80.2  33930  285.68 0855.21
2009/04/23 07:02:26.3     -72      4     14     73     75 273.5  11.0  33936  285.80 0855.21
2009/04/23 07:02:26.4    -119      0     23    120    123 270.0  11.0  33970  286.37 0855.21
2009/04/23 07:02:26.5     -69    -41     58     81     99 239.3  39.5  33952  286.07 0855.21
2009/04/23 07:02:26.6     -55    -28     68     62     92 242.9  52.7  33940  285.85 0855.21
2009/04/23 07:02:26.7     -67      3     62     68     92 272.6  47.5  33948  285.98 0855.21
2009/04/23 07:02:26.8     -27     -9     62     29     68 251.8  73.1  33946  285.95 0855.21
2009/04/23 07:02:26.9      28     -9     47     30     55 108.6  64.7  33938  285.83 0855.21
2009/04/23 07:02:27.0      19    -30     52     36     63 147.5  61.5  33932  285.71 0855.21
2009/04/23 07:02:27.1     -48    -24     62     54     82 242.9  54.3  33944  285.92 0855.21
2009/04/23 07:02:27.2     -42    -14     53     45     69 250.9  56.3  33960  286.19 0855.20
2009/04/23 07:02:27.3     -32    -16     42     37     55 242.9  54.3  33954  286.10 0855.20
2009/04/23 07:02:27.4     -10    -35     35     37     50 196.9  49.0  33948  285.98 0855.20
2009/04/23 07:02:27.5     -24    -42     55     49     73 210.7  52.2  33942  285.90 0855.20
2009/04/23 07:02:27.6     -29    -62     95     69    117 205.4  60.5  33940  285.85 0855.20
2009/04/23 07:02:27.7     -48    -76     60     91    109 212.5  36.0  33958  286.15 0855.20
2009/04/23 07:02:27.8     -33    -73     62     81    102 204.5  41.2  33952  286.07 0855.20
2009/04/23 07:02:27.9      -1    -65     50     66     82 181.0  41.2  33960  286.20 0855.20
2009/04/23 07:02:28.0     -25    -54     55     60     81 205.4  47.5  33960  286.20 0855.20
2009/04/23 07:02:28.1     -62    -67     48     92    103 222.8  30.3  33960  286.20 0855.20
2009/04/23 07:02:28.3     -19    -58     53     62     81 198.3  45.4  33960  286.19 0855.20
2009/04/23 07:02:28.4     -37    -87     38     95    102 203.2  23.0  33992  286.74 0855.20
2009/04/23 07:02:28.5     -61    -96     47    115    124 212.6  23.0  33988  286.67 0855.20
2009/04/23 07:02:28.6     -18    -53     55     57     79 198.7  49.4  33968  286.32 0855.20
2009/04/23 07:02:28.7      -1    -30     52     31     60 182.6  66.8  33956  286.14 0855.20
2009/04/23 07:02:28.8       7     -6     41     10     42 133.1  86.9  33958  286.15 0855.20
2009/04/23 07:02:28.9      -1    -11     31     12     33 188.0  81.2  33964  286.25 0855.20
2009/04/23 07:02:29.0     -19    -31     30     37     47 212.5  43.7  33964  286.27 0855.20
2009/04/23 07:02:29.1     -32    -41     46     53     70 217.8  44.8  33958  286.15 0855.20
2009/04/23 07:02:29.2     -25    -23     60     35     69 226.9  66.8  33948  285.98 0855.20
2009/04/23 07:02:29.3     -17    -17     44     25     50 225.0  67.7  33954  286.08 0855.21
2009/04/23 07:02:29.4     -10    -22     12     25     27 203.6  27.2  33960  286.20 0855.21
2009/04/23 07:02:29.5      16     -5      4     17     18 108.2  15.3  33962  286.24 0855.21
2009/04/23 07:02:29.6      20      0      7     21     23  90.0  19.2  33966  286.30 0855.21
2009/04/23 07:02:29.7      21     13      8     25     27  57.5  19.4  33966  286.29 0855.21
2009/04/23 07:02:29.8       2     38     23     39     45   4.4  34.4  33972  286.39 0855.21
2009/04/23 07:02:29.9       9     50     36     51     62  10.7  39.5  33974  286.42 0855.21
2009/04/23 07:02:30.0      29     34     28     46     53  40.5  35.5  33970  286.37 0855.21
2009/04/23 07:02:30.1      17     22     31     29     42  37.8  51.2  33976  286.46 0855.21
2009/04/23 07:02:30.2      12     31     27     34     43  21.8  42.7  33976  286.46 0855.21
2009/04/23 07:02:30.3      56     26     29     62     68  64.8  27.1  33954  286.08 0855.21
2009/04/23 07:02:30.4      74      7     45     75     87  83.9  34.4  33936  285.78 0855.21
2009/04/23 07:02:30.5      89     10     40     90     98  83.4  25.7  33932  285.71 0855.21
2009/04/23 07:02:30.6     100      4     32    101    107  87.4  17.9  33952  286.05 0855.21
2009/04/23 07:02:30.7     102     12     28    103    107  83.0  15.3  34008  287.00 0855.21
2009/04/23 07:02:30.8     104      3     29    105    110  88.3  15.8  34020  287.20 0855.21
2009/04/23 07:02:30.9     107      0     29    108    113  90.0  15.3  34020  287.20 0855.21
2009/04/23 07:02:31.0      97      2     32     98    104  88.3  18.4  34024  287.27 0855.21
2009/04/23 07:02:31.1     120     -6     22    121    124  93.0  10.6  34020  287.21 0855.21
2009/04/23 07:02:31.2     121    -26     94    124    155 102.4  41.2  33976  286.47 0855.21
2009/04/23 07:02:31.3     141     10     82    142    163  85.6  32.9  34010  287.05 0855.22
2009/04/23 07:02:31.4     101     13     98    102    141  82.5  49.0  34004  286.93 0855.22
2009/04/23 07:02:31.5      73     -5    105     74    128  94.3  61.5  33996  286.79 0855.22
2009/04/23 07:02:31.6     111      9     38    112    119  85.2  18.9  34000  286.88 0855.22
2009/04/23 07:02:31.7     119     -1     -9    120    121  90.8  -4.6  34010  287.03 0855.22
2009/04/23 07:02:31.8     119     13     -7    120    121  83.4  -3.7  34000  286.88 0855.22
2009/04/23 07:02:31.9      26     25     16     37     40  46.7  25.1  34010  287.03 0855.22
2009/04/23 07:02:32.0       8     -3     38      9     39 115.3  86.9  34004  286.94 0855.22
2009/04/23 07:02:32.1       7    -11     51     14     52 147.5  84.9  33998  286.83 0855.22
2009/04/23 07:02:32.2       0      0     47      0     47   0.0 -90.0  33992  286.74 0855.22
2009/04/23 07:02:32.3      -2      4     23      5     23 327.5  86.9  33996  286.79 0855.22
2009/04/23 07:02:32.4      -1      6     20      7     21 350.3  81.0  34000  286.86 0855.22
2009/04/23 07:02:32.5       6    -10     13     13     18 147.5  50.1  33990  286.71 0855.22
2009/04/23 07:02:32.6      -3    -22     23     23     32 188.0  50.1  33984  286.59 0855.22
2009/04/23 07:02:32.7     -10    -35     28     37     46 196.9  40.7  33970  286.37 0855.22
2009/04/23 07:02:32.8     -32    -15     28     36     45 244.7  41.7  33962  286.22 0855.22
2009/04/23 07:02:32.9     -68    -18     28     71     76 255.0  22.0  33954  286.10 0855.22
2009/04/23 07:02:33.0     -57    -28     62     64     89 243.8  50.0  33954  286.08 0855.22
2009/04/23 07:02:33.1     -41      0     40     42     58 270.0  51.1  33964  286.25 0855.22
2009/04/23 07:02:33.2     -96     61     52    114    125 302.4  26.2  33964  286.25 0855.22
2009/04/23 07:02:33.3     -73     17     47     75     88 283.3  35.5  33958  286.17 0855.22
2009/04/23 07:02:33.4     -84     11      1     85     86 277.5   0.8  33960  286.19 0855.22
2009/04/23 07:02:33.5    -113      1      5    114    115 270.8   2.9  33952  286.05 0855.22
2009/04/23 07:02:33.6     -72    -56    -20     92     95 232.2 -12.4  33946  285.97 0855.22
2009/04/23 07:02:33.7     -45    -53    -22     70     74 220.5 -17.6  33956  286.12 0855.22
2009/04/23 07:02:33.8     -14    -69      6     71     72 191.5   4.9  33948  285.98 0855.22
2009/04/23 07:02:33.9      13    -48     11     50     52 164.9  13.2  33938  285.83 0855.22
2009/04/23 07:02:34.0      26    -22     -1     35     36 129.6  -2.2  33932  285.71 0855.22
2009/04/23 07:02:34.1     -48    -24     35     54     64 242.9  35.6  33934  285.76 0855.22
2009/04/23 07:02:34.2     -62    -34     28     71     76 241.1  22.0  33938  285.83 0855.22
2009/04/23 07:02:34.3     -41    -43     32     60     68 223.4  31.3  33938  285.82 0855.22
2009/04/23 07:02:34.4      -1    -53     43     54     69 181.8  43.7  33930  285.68 0855.22
2009/04/23 07:02:34.5     -20    -66     39     70     80 196.9  31.4  33918  285.50 0855.22
2009/04/23 07:02:34.6     -45    -45     28     65     70 225.0  25.1  33918  285.48 0855.22
2009/04/23 07:02:34.7     -21    -75     10     79     80 196.0   7.5  33920  285.51 0855.22
2009/04/23 07:02:34.8     -30    -87    -13     93     94 199.2  -8.2  33918  285.48 0855.22
2009/04/23 07:02:34.9     -27    -86     12     91     92 197.4   8.0  33914  285.43 0855.22
2009/04/23 07:02:35.0     -22   -109     44    112    120 191.6  23.0  33916  285.44 0855.22
2009/04/23 07:02:35.1     -26   -103     40    107    114 194.3  20.4  33914  285.43 0855.22
2009/04/23 07:02:50.7      27     39     -7     48     49  34.3  -9.3  34014  287.11 0855.22
2009/04/23 07:02:50.8       2     42      9     43     45   3.6  12.2  34014  287.11 0855.22
2009/04/23 07:02:50.9      15     35     15     39     41  23.6  22.0  34018  287.18 0855.22
2009/04/23 07:02:51.0      14     59    -17     61     64  13.4 -15.5  34018  287.18 0855.22
2009/04/23 07:02:51.1       9     65      5     66     67   8.0   4.9  34020  287.20 0855.22
2009/04/23 07:02:51.2      32     57      4     66     67  29.0   3.8  34024  287.27 0855.22
2009/04/23 07:02:51.3      75     34    -27     83     87  65.6 -23.8  34032  287.42 0855.22
2009/04/23 07:02:51.4      55     45    -54     72     90  50.5 -45.6  34038  287.52 0855.22
2009/04/23 07:02:51.5      45     15    -49     48     68  71.6 -53.5  34028  287.33 0855.22
2009/04/23 07:02:51.6      68     23      3     73     74  70.9   2.9  34038  287.52 0855.22
2009/04/23 07:02:51.7     124      0      7    125    126  90.0   3.3  34038  287.52 0855.22
2009/04/23 07:02:51.8     111     -7     11    112    113  93.9   5.9  34038  287.50 0855.22
2009/04/23 07:02:51.9      95     14     31     97    102  81.6  17.9  34026  287.30 0855.22
2009/04/23 07:02:52.0      96     19      8     98     99  78.5   4.9  34020  287.21 0855.22
2009/04/23 07:02:52.1      82     14      3     84     85  80.3   2.3  34014  287.11 0855.22
2009/04/23 07:02:52.2     115     -8    -23    116    119  94.4 -11.3  34012  287.08 0855.22
2009/04/23 07:02:52.3     139     81     52    161    170  59.8  17.9  34014  287.11 0855.22
2009/04/23 07:02:52.4     106     76     82    131    154  54.5  35.5  34016  287.13 0855.22
2009/04/23 07:02:52.5     104     51    131    116    174  63.8  54.0  34018  287.16 0855.22
2009/04/23 07:02:52.6     114     73    132    136    189  57.5  49.4  34012  287.08 0855.22
2009/04/23 07:02:52.7     108     83    103    137    171  52.3  40.9  33986  286.64 0855.22
2009/04/23 07:02:52.8      97     84    101    129    163  49.1  42.0  33976  286.46 0855.22
2009/04/23 07:02:52.9      77     64    102    101    143  50.4  50.1  33972  286.41 0855.22
2009/04/23 07:02:53.0     161     59    119    172    209  69.6  37.8  33976  286.47 0855.22
2009/04/23 07:02:53.1     197     76    131    212    249  68.9  34.8  34002  286.89 0855.22
2009/04/23 07:02:53.2     121    148    139    192    237  39.4  39.5  33996  286.79 0855.22
2009/04/23 07:02:53.3     133    129    100    186    211  45.8  30.6  33998  286.83 0855.22
2009/04/23 07:02:53.4     161     53     73    170    185  71.8  24.6  33972  286.39 0855.22
2009/04/23 07:02:53.5     169     62     -4    181    182  69.8  -1.3  33962  286.24 0855.22
2009/04/23 07:02:53.6     158    112      4    194    195  54.7   1.2  33980  286.52 0855.22
2009/04/23 07:02:53.7     112    129    104    172    200  41.0  34.0  33990  286.71 0855.22
2009/04/23 07:02:53.8     137    113     95    178    201  50.5  30.3  33978  286.49 0855.22
2009/04/23 07:02:53.9      78     55    123     96    156  54.5  58.4  33976  286.46 0855.22
2009/04/23 07:02:54.0      70     40     83     81    115  59.8  50.1  33968  286.32 0855.22
2009/04/23 07:02:54.1      79     18     57     82     99  76.7  38.6  33956  286.14 0855.22
2009/04/23 07:02:54.2      79     22     27     83     88  74.5  18.4  33954  286.08 0855.22
2009/04/23 07:02:54.3      71     46     57     85    102  57.1  37.0  33950  286.03 0855.22
2009/04/23 07:02:54.4      89     25     67     93    114  74.1  39.5  33956  286.12 0855.22
2009/04/23 07:02:54.5      47    -22     65     53     83 115.3  56.4  33958  286.15 0855.22
2009/04/23 07:02:54.6      42    -16     47     46     65 111.7  50.1  33960  286.20 0855.22
2009/04/23 07:02:54.7      64     -4     75     65     99  94.4  54.8  33956  286.12 0855.22
2009/04/23 07:02:54.8     131    -43     71    138    155 108.2  29.3  33956  286.14 0855.22
2009/04/23 07:02:54.9     134     14    -12    135    136  83.9  -5.1  33972  286.41 0855.22
2009/04/23 07:02:55.0     139     -6    -49    140    149  92.5 -19.6  33968  286.34 0855.22
2009/04/23 07:02:55.1     110    -15    -27    112    116  98.0 -13.9  33964  286.27 0855.22
2009/04/23 07:02:55.2      79    -11     -3     80     81  98.4  -2.6  33960  286.20 0855.22
2009/04/23 07:02:55.3      49    -28     20     57     61 119.8  19.4  33960  286.20 0855.22
2009/04/23 07:02:55.4      57    -28     83     64    104 116.2  59.0  33950  286.02 0855.22
2009/04/23 07:02:55.5      64    -21     82     68    106 108.2  56.3  33942  285.90 0855.22
2009/04/23 07:02:55.6      82    -14     80     84    116  99.7  49.0  33940  285.87 0855.21
2009/04/23 07:02:55.7      98    -10     75     99    124  96.1  41.2  33944  285.92 0855.21
2009/04/23 07:02:55.8     123     -7     54    124    135  93.5  25.1  33950  286.02 0855.21
2009/04/23 07:02:55.9     157     45     54    164    173  73.8  18.4  33948  285.98 0855.21
2009/04/23 07:02:56.0     169     66     74    182    196  68.7  23.4  33944  285.92 0855.21
2009/04/23 07:02:56.1     128     80      7    152    153  58.0   2.8  33956  286.12 0855.21
2009/04/23 07:02:56.2     133     77    -19    154    156  59.8  -7.3  33960  286.19 0855.21
2009/04/23 07:02:56.3     149     59    -12    161    162  68.5  -4.6  33956  286.14 0855.21
2009/04/23 07:02:56.4     131    107     21    170    172  50.9   7.2  33956  286.12 0855.21
2009/04/23 07:02:56.5     174     85      9    194    195  63.8   2.9  33954  286.10 0855.21
2009/04/23 07:02:56.6     217     88     -9    235    236  67.8  -2.3  33962  286.21 0855.21
2009/04/23 07:02:56.7     178     78    -37    195    199  66.3 -10.9  33962  286.24 0855.21
2009/04/23 07:02:56.8     178     82    -35    197    201  65.2 -10.3  33960  286.20 0855.21
2009/04/23 07:02:56.9     159     27     -6    162    163  80.1  -2.2  33960  286.19 0855.21
2009/04/23 07:02:57.0     134     20    -36    136    141  81.2 -15.0  33958  286.15 0855.21
2009/04/23 07:02:57.1     118     45    -16    127    129  69.2  -7.3  33964  286.27 0855.21
2009/04/23 07:02:57.2     118     53     11    130    131  65.6   5.0  33986  286.64 0855.21
2009/04/23 07:02:57.3     106     88     49    138    146  50.4  20.0  33988  286.67 0855.21
2009/04/23 07:02:57.4     146     74     19    164    166  62.9   6.9  33990  286.69 0855.21
2009/04/23 07:02:57.5     151     74     25    169    171  64.0   8.5  33990  286.71 0855.21
2009/04/23 07:02:57.6     132     52     18    143    145  68.3   7.5  33998  286.84 0855.22
2009/04/23 07:02:57.7      91     91     66    129    144  45.0  29.3  34004  286.94 0855.22
2009/04/23 07:02:57.8      59     87     77    106    131  34.3  39.7  34000  286.86 0855.22
2009/04/23 07:02:57.9      73     97     46    122    130  37.0  21.5  33996  286.81 0855.22
2009/04/23 07:02:58.0      65     98     27    118    122  33.8  13.2  33992  286.74 0855.22
2009/04/23 07:02:58.1      53     84      5    100    101  32.1   3.3  33998  286.84 0855.22
2009/04/23 07:02:58.2      45     54     24     71     76  39.7  19.2  34002  286.91 0855.22
2009/04/23 07:02:58.4      33     27     32     43     53  50.5  40.7  34006  286.96 0855.22
2009/04/23 07:02:58.4      17     27     32     33     45  32.6  50.0  34008  287.00 0855.22
2009/04/23 07:02:58.5      45     21     44     50     66  64.6  46.9  34006  286.98 0855.22
2009/04/23 07:02:58.6      84     30     23     90     94  70.5  14.7  34006  286.96 0855.22
2009/04/23 07:02:58.8      97     36    -13    104    105  69.2  -7.2  34002  286.89 0855.22
2009/04/23 07:02:58.9     115     41     16    123    125  70.1   7.5  34022  287.23 0855.22
2009/04/23 07:02:59.0     100     44     21    110    113  66.0  11.1  34020  287.21 0855.22
2009/04/23 07:02:59.1     101     33     16    107    109  71.8   8.5  34018  287.18 0855.22
2009/04/23 07:02:59.2      92     98     26    135    138  43.2  11.0  34022  287.25 0855.22
2009/04/23 07:02:59.3     142     99     15    174    175  55.1   5.2  34014  287.11 0855.22
2009/04/23 07:02:59.4     135     44     71    143    159  71.8  28.5  34008  287.01 0855.22
2009/04/23 07:02:59.5     108     69    113    129    171  57.5  45.8  34006  286.96 0855.22
2009/04/23 07:02:59.6     111     82     62    139    152  53.6  25.7  34012  287.08 0855.22
2009/04/23 07:02:59.7     156     91     12    181    182  59.6   3.8  33998  286.84 0855.22
2009/04/23 07:02:59.8     133    110      8    173    174  50.5   2.9  33984  286.59 0855.22
2009/04/23 07:02:59.9     126    125     38    178    183  45.1  12.0  33986  286.64 0855.22
2009/04/23 07:03:00.0     119    175    107    212    237  34.2  29.1  33992  286.74 0855.22
2009/04/23 07:03:00.1      41    149    116    155    193  15.6  40.4  33994  286.76 0855.22
2009/04/23 07:03:00.2      56    165     60    175    186  18.7  18.9  33994  286.76 0855.22
2009/04/23 07:03:00.3      40    115     54    122    133  19.2  25.2  33990  286.71 0855.22
2009/04/23 07:03:00.4      43     58     36     73     81  36.1  28.2  33990  286.71 0855.22
2009/04/23 07:03:00.5      65     13    134     67    149  78.6  71.9  34004  286.93 0855.22
2009/04/23 07:03:00.6     128    132    122    185    221  44.1  36.3  34046  287.65 0855.22
2009/04/23 07:03:00.7     119    122    123    171    210  44.1  39.5  34054  287.79 0855.22
2009/04/23 07:03:00.8     138    113    171    179    247  50.5  49.0  33992  286.74 0855.22
2009/04/23 07:03:00.9     124     90    126    154    198  54.0  43.7  33984  286.59 0855.22
2009/04/23 07:03:01.0     119      9     49    120    129  85.7  23.0  34000  286.88 0855.22
2009/04/23 07:03:01.1      84     -2     82     85    118  91.7  49.0  33986  286.62 0855.22
2009/04/23 07:03:01.2     114     -9     63    115    131  94.8  31.3  33968  286.32 0855.22
2009/04/23 07:03:01.3     135     15     83    136    159  83.4  34.2  33990  286.69 0855.22
2009/04/23 07:03:01.4     169     17     88    170    191  84.1  29.5  34012  287.08 0855.22
2009/04/23 07:03:01.5     155     16     50    156    164  84.1  17.9  34008  287.00 0855.22
2009/04/23 07:03:01.7     149     67     91    164    187  65.6  31.4  34008  287.00 0855.21
2009/04/23 07:03:01.8     105    104     82    148    169  45.2  31.6  34008  287.01 0855.21
2009/04/23 07:03:01.9     107    101     65    148    161  46.8  25.1  34008  287.01 0855.21
2009/04/23 07:03:02.0      67     71     74     98    122  43.2  41.2  34010  287.03 0855.21
2009/04/23 07:03:02.1      94     44     44    104    112  64.7  24.1  34002  286.89 0855.21
2009/04/23 07:03:02.3      81     40     49     91    103  63.4  31.3  33966  286.29 0855.21
2009/04/23 07:03:02.4      84     59     62    103    120  54.9  33.5  33984  286.61 0855.21
2009/04/23 07:03:02.5      71     50     62     87    106  54.9  39.1  33986  286.62 0855.21
2009/04/23 07:03:02.6      55     47     60     73     94  49.6  43.7  33984  286.59 0855.21
2009/04/23 07:03:02.7      39     41     70     57     90  43.2  56.4  33976  286.46 0855.21
2009/04/23 07:03:02.8      61     33     74     70    101  61.2  51.6  33978  286.51 0855.21
2009/04/23 07:03:02.9      64     51    -18     83     86  51.4 -12.4  33986  286.64 0855.21
2009/04/23 07:03:03.0     108     35    -47    114    123  71.8 -27.5  33986  286.64 0855.21
2009/04/23 07:03:03.1      90     27    -54     94    108  73.2 -36.8  33984  286.61 0855.21
2009/04/23 07:03:03.2      80     32    -64     87    108  67.8 -44.5  33982  286.56 0855.21
2009/04/23 07:03:03.3      92     58    -56    110    123  57.6 -33.7  33970  286.37 0855.21
2009/04/23 07:03:03.4      92     61    -58    111    125  56.3 -34.2  33970  286.35 0855.21
2009/04/23 07:03:03.5      82     52    -61     98    115  57.5 -39.9  33960  286.20 0855.21
2009/04/23 07:03:03.6      74     40    -48     85     97  61.6 -36.8  33956  286.14 0855.21
2009/04/23 07:03:03.7      65     36    -48     75     89  61.1 -39.9  33956  286.14 0855.21
2009/04/23 07:03:03.8      71     19    -51     74     89  74.9 -42.0  33952  286.07 0855.21
2009/04/23 07:03:03.9      71    -23    -65     75     99 108.2 -49.8  33952  286.05 0855.21
2009/04/23 07:03:04.0     124     -3    -38    125    131  91.7 -17.0  33952  286.05 0855.21
2009/04/23 07:03:04.1     128     -8    -16    129    131  93.9  -7.2  33954  286.08 0855.21
2009/04/23 07:03:04.2     130     28      6    134    135  77.6   2.9  33970  286.35 0855.21
2009/04/23 07:03:04.3     119      9      5    120    121  85.7   2.8  33964  286.25 0855.21
2009/04/23 07:03:04.4     108     -8      0    109    110  94.4  -0.3  33954  286.10 0855.21
2009/04/23 07:03:04.5      99      7    -24    100    104  85.6 -13.9  33954  286.08 0855.21
2009/04/23 07:03:04.6     106     21    -30    109    114  78.5 -15.5  33946  285.95 0855.21
2009/04/23 07:03:04.7     131     27      6    134    135  78.1   2.9  33946  285.97 0855.21
2009/04/23 07:03:04.8     133     44      3    141    142  71.8   1.2  33968  286.34 0855.21
2009/04/23 07:03:04.9     127     45     16    135    136  70.5   6.9  33960  286.19 0855.21
2009/04/23 07:03:05.0     112     -2     31    113    118  91.3  15.3  33944  285.93 0855.21
2009/04/23 07:03:05.1     134    -22     -5    136    137  99.6  -2.2  33946  285.95 0855.21
2009/04/23 07:03:05.2     127    -10    -16    128    130  94.8  -7.3  33946  285.95 0855.21
2009/04/23 07:03:05.3     113    -21    -14    115    116 100.6  -7.3  33942  285.90 0855.21
2009/04/23 07:03:05.4      93    -16     17     95     97 100.1  10.1  33948  286.00 0855.21
2009/04/23 07:03:05.5      76    -13     47     78     91  99.7  34.0  33954  286.10 0855.21
2009/04/23 07:03:05.6      87    -12     58     88    105  98.4  36.0  33952  286.05 0855.21
2009/04/23 07:03:05.7      90     -4     53     91    105  92.6  33.5  33948  285.98 0855.20
2009/04/23 07:03:05.8      99     -5     62    100    117  93.0  35.0  33948  285.98 0855.20
2009/04/23 07:03:05.9      91     26     65     95    115  73.6  37.6  33952  286.05 0855.20
2009/04/23 07:03:06.0      82      8     46     83     94  84.3  31.9  33948  286.00 0855.20
2009/04/23 07:03:06.1      78     15     42     80     90  78.5  29.8  33950  286.02 0855.20
2009/04/23 07:03:06.2      83     11     36     84     91  82.1  24.6  33952  286.07 0855.20
2009/04/23 07:03:06.3      63     35      8     73     74  61.2   6.9  33956  286.12 0855.20
2009/04/23 07:03:06.4      52     40      9     66     67  52.2   8.0  33954  286.10 0855.20
2009/04/23 07:03:06.5      59     37      8     70     71  57.5   6.9  33956  286.12 0855.20
2009/04/23 07:03:06.6      50     16      3     53     54  71.6   3.8  33948  286.00 0855.20
2009/04/23 07:03:06.7      34     21     14     41     44  57.6  18.9  33948  286.00 0855.20
2009/04/23 07:03:06.8      46     25     11     53     55  61.1  12.2  33946  285.97 0855.20
2009/04/23 07:03:06.9      48     21      0     53     54  66.5   0.8  33946  285.95 0855.20
2009/04/23 07:03:07.0      41     13     12     44     46  71.6  15.3  33946  285.97 0855.20
2009/04/23 07:03:07.1      53      9     13     54     56  79.4  14.3  33946  285.95 0855.20
2009/04/23 07:03:07.2      64     17     18     67     70  74.9  15.2  33944  285.92 0855.20
2009/04/23 07:03:07.3      62      8      6     63     64  82.1   5.9  33944  285.93 0855.20
2009/04/23 07:03:07.4      60     18     -2     63     64  73.2  -2.2  33948  285.98 0855.20
2009/04/23 07:03:07.5      44     21     -4     49     50  64.6  -5.2  33950  286.02 0855.20
2009/04/23 07:03:07.6      30      0     -4     31     32  90.0  -7.2  33948  286.00 0855.20
2009/04/23 07:03:07.7      21    -26    -12     34     36 140.4 -23.3  33946  285.97 0855.20
2009/04/23 07:03:07.8      16    -42    -16     45     47 159.1 -23.3  33950  286.02 0855.20
2009/04/23 07:03:07.9      27    -46    -19     54     58 149.3 -19.7  33948  285.98 0855.20
2009/04/23 07:03:08.0      25    -42    -16     49     51 149.3 -23.8  33948  286.00 0855.20
2009/04/23 07:03:08.1      15    -43    -17     46     49 160.0 -23.3  33950  286.03 0855.20
2009/04/23 07:03:08.2       5    -10    -20     12     23 151.0 -71.2  33952  286.05 0855.20
2009/04/23 07:03:08.3      -2     -9      0     10     11 195.1  -2.2  33952  286.05 0855.20
2009/04/23 07:03:08.4     -23    -37     13     44     47 212.6  17.3  33934  285.76 0855.20
2009/04/23 07:03:08.5     -44    -56     10     72     73 217.8   8.0  33930  285.68 0855.20
2009/04/23 07:03:08.6     -43    -49     24     66     70 221.4  20.0  33932  285.73 0855.20
2009/04/23 07:03:08.7     -52    -52     25     74     79 225.0  19.2  33934  285.76 0855.20
2009/04/23 07:03:08.8     -60    -71     18     94     96 220.1  11.1  33934  285.75 0855.20
2009/04/23 07:03:08.9     -56    -86     -5    103    104 213.0  -3.1  33934  285.75 0855.20
2009/04/23 07:03:09.0     -13    -64     12     66     68 191.5  11.0  33934  285.75 0855.20
2009/04/23 07:03:09.1      -6    -71     24     72     77 185.3  18.9  33932  285.73 0855.20
2009/04/23 07:03:09.2      -9    -68     23     69     74 188.0  18.9  33932  285.73 0855.20
2009/04/23 07:03:09.3       1    -77     38     78     86 179.0  27.8  33932  285.73 0855.20
2009/04/23 07:03:09.4     -15    -75     27     77     82 191.6  19.4  33936  285.78 0855.20
2009/04/23 07:03:09.5     -18    -53     35     57     66 198.7  35.5  33934  285.76 0855.20
2009/04/23 07:03:09.6      -6    -58     39     59     70 186.2  35.6  33938  285.82 0855.20
2009/04/23 07:03:09.7     -21    -54     38     59     70 201.8  35.6  33936  285.80 0855.20
2009/04/23 07:03:09.8      -6    -58     46     59     74 186.2  42.7  33932  285.73 0855.20
2009/04/23 07:03:09.9      -1    -55     29     56     63 181.8  29.3  33936  285.78 0855.20
2009/04/23 07:03:10.0     -12    -37      6     40     41 198.5   9.0  33936  285.80 0855.20
2009/04/23 07:03:10.1     -27    -30     -6     41     42 222.3  -8.2  33926  285.63 0855.20
2009/04/23 07:03:10.2     -14    -24     10     29     31 210.7  18.9  33924  285.58 0855.20
2009/04/23 07:03:10.3       0    -25     18     26     31 180.9  37.6  33928  285.66 0855.20
2009/04/23 07:03:10.4       3    -42     34     43     54 174.7  42.7  33934  285.75 0855.20
2009/04/23 07:03:10.5     -24    -50     35     56     66 205.4  35.5  33938  285.83 0855.20
2009/04/23 07:03:10.6     -53    -66     35     85     91 218.7  23.6  33924  285.60 0855.20
2009/04/23 07:03:10.7     -56    -52     22     77     81 226.8  15.8  33922  285.56 0855.19
2009/04/23 07:03:10.8     -56    -52     22     77     81 226.8  15.8  33922  285.56 0855.19
2009/04/23 07:03:10.9     -60    -64     10     89     90 223.2   6.9  33922  285.56 0855.19
2009/04/23 07:03:11.0     -77    -73     -5    107    108 226.8  -3.1  33928  285.65 0855.19
2009/04/23 07:03:11.1     -89    -85     -8    124    125 226.4  -4.1  33930  285.70 0855.19
2009/04/23 07:03:11.2     -97    -58     -6    114    115 238.9  -3.1  33930  285.68 0855.19
2009/04/23 07:03:11.3     -87    -48     11    100    101 240.7   6.5  33932  285.71 0855.19
2009/04/23 07:03:11.4     -73    -43      2     86     87 239.3   1.8  33928  285.65 0855.19
2009/04/23 07:03:11.5     -71    -48      3     86     87 235.8   2.3  33930  285.70 0855.19
2009/04/23 07:03:11.6     -69    -60     -4     92     93 229.1  -2.6  33926  285.61 0855.19
2009/04/23 07:03:11.7     -59    -62     -2     86     87 223.7  -1.8  33928  285.66 0855.19
2009/04/23 07:03:11.8     -47    -57     -2     75     76 219.6  -2.2  33928  285.66 0855.19
2009/04/23 07:03:11.9     -26    -55     -2     61     62 205.4  -2.2  33926  285.61 0855.19
2009/04/23 07:03:12.0     -14    -49     -2     51     52 196.0  -2.2  33924  285.58 0855.19
2009/04/23 07:03:12.1     -15    -53     -4     56     57 196.0  -4.1  33924  285.60 0855.19
2009/04/23 07:03:12.2     -38    -49      0     63     64 217.8  -0.3  33924  285.58 0855.19
2009/04/23 07:03:12.3     -34    -57      3     67     68 210.7   2.9  33920  285.53 0855.19
2009/04/23 07:03:12.4     -36    -57      2     68     69 212.6   1.8  33924  285.60 0855.19
2009/04/23 07:03:12.5     -39    -47    -17     62     65 219.7 -15.4  33924  285.60 0855.19
2009/04/23 07:03:12.6     -25    -45     -7     52     53 209.9  -8.2  33926  285.63 0855.19
2009/04/23 07:03:12.7     -16    -47    -13     50     52 199.2 -15.5  33926  285.63 0855.20
2009/04/23 07:03:12.8     -24    -42     -6     49     50 210.7  -7.3  33928  285.66 0855.20
2009/04/23 07:03:12.9     -21    -21     -4     31     32 225.0  -7.2  33926  285.63 0855.20
2009/04/23 07:03:13.0     -16    -21     -6     27     28 217.8 -13.4  33926  285.61 0855.20
2009/04/23 07:03:13.1       6     -6      0      9     10 133.1  -1.3  33930  285.68 0855.20
2009/04/23 07:03:13.2      19    -23     10     30     32 140.4  18.9  33930  285.68 0855.20
2009/04/23 07:03:13.3       6    -32     20     33     38 168.5  35.5  33932  285.73 0855.20
2009/04/23 07:03:13.4     -15    -35     29     39     48 203.6  40.7  33932  285.73 0855.20
2009/04/23 07:03:13.5       0    -66     27     67     72 180.0  23.0  33934  285.75 0855.20
2009/04/23 07:03:13.6       6    -77     35     78     85 175.5  25.7  33932  285.71 0855.20
2009/04/23 07:03:13.7      13    -78     47     80     92 170.2  33.5  33930  285.70 0855.20
2009/04/23 07:03:13.8       8    -73     38     74     83 173.8  29.3  33930  285.68 0855.20
2009/04/23 07:03:13.9       1    -77     31     78     83 179.1  22.0  33928  285.65 0855.20
2009/04/23 07:03:14.0      -5    -67     33     68     75 184.5  27.3  33932  285.73 0855.20
2009/04/23 07:03:14.1      -8    -69     37     70     79 187.1  30.3  33930  285.68 0855.20
2009/04/23 07:03:14.2       8    -76     20     77     80 173.8  14.7  33930  285.70 0855.20
2009/04/23 07:03:14.3      10    -71     25     72     77 172.0  19.4  33932  285.73 0855.20
2009/04/23 07:03:14.4       9    -74     31     75     81 172.9  23.6  33934  285.76 0855.20
2009/04/23 07:03:14.5       5    -77     37     78     86 175.6  27.2  33934  285.75 0855.20
2009/04/23 07:03:14.6       6    -63     41     64     76 173.8  35.5  33930  285.68 0855.20
2009/04/23 07:03:14.7     -19    -58     40     62     73 198.3  35.6  33934  285.76 0855.19
2009/04/23 07:03:14.8     -25    -54     38     60     71 205.4  35.5  33936  285.78 0855.19
2009/04/23 07:03:14.9     -24    -61     18     66     69 201.9  15.3  33926  285.63 0855.19
2009/04/23 07:03:15.0     -28    -57      9     64     65 206.3   8.0  33926  285.63 0855.19
2009/04/23 07:03:15.1     -28    -55     26     62     67 207.2  23.1  33924  285.60 0855.19
2009/04/23 07:03:15.2     -33    -53     28     63     68 211.6  25.1  33926  285.63 0855.19
2009/04/23 07:03:15.3     -30    -45     23     55     59 214.3  23.1  33924  285.60 0855.19
2009/04/23 07:03:15.4     -27    -39     26     48     54 214.3  31.4  33926  285.61 0855.19
2009/04/23 07:03:15.5     -33    -26     41     43     59 232.2  49.0  33926  285.61 0855.19
2009/04/23 07:03:15.6     -37    -16     37     41     55 246.5  46.9  33926  285.63 0855.19
2009/04/23 07:03:15.7     -37    -12     28     40     48 251.4  38.6  33926  285.63 0855.19
2009/04/23 07:03:15.8     -45     -5     22     46     51 263.0  27.2  33926  285.61 0855.19
2009/04/23 07:03:15.9     -45     13     28     48     55 286.8  34.4  33922  285.56 0855.19
2009/04/23 07:03:16.1     -50      5     45     51     68 276.1  47.9  33922  285.55 0855.19
2009/04/23 07:03:16.2     -54     -4     26     55     60 264.8  27.2  33926  285.61 0855.19
2009/04/23 07:03:16.3     -35    -11      7     37     38 251.4  11.1  33924  285.58 0855.19
2009/04/23 07:03:16.4     -23    -30     24     38     44 217.8  35.5  33920  285.53 0855.19
2009/04/23 07:03:16.5     -43    -36     38     57     68 230.5  35.6  33924  285.58 0855.19
2009/04/23 07:03:16.6     -60    -23     36     65     74 249.2  31.4  33922  285.55 0855.19
2009/04/23 07:03:16.7     -55    -20     20     59     63 249.2  19.2  33920  285.51 0855.19
2009/04/23 07:03:16.8     -44     -7     15     45     48 260.3  19.2  33920  285.53 0855.19
2009/04/23 07:03:16.9     -22    -24     10     33     35 223.2  17.3  33922  285.56 0855.19
2009/04/23 07:03:17.0      13    -38     14     41     44 161.3  19.2  33922  285.55 0855.19
2009/04/23 07:03:17.1     -11    -34     22     36     42 198.7  34.4  33918  285.50 0855.19
2009/04/23 07:03:17.2     -11    -34     22     36     42 198.7  34.4  33918  285.50 0855.19
2009/04/23 07:03:17.3     -29    -34     30     46     54 220.5  35.6  33918  285.50 0855.19
2009/04/23 07:03:17.4     -41    -46     33     62     70 221.4  30.3  33920  285.53 0855.19
2009/04/23 07:03:17.5     -38    -46     32     61     68 219.6  29.3  33922  285.55 0855.19
2009/04/23 07:03:17.6     -21    -46      9     51     52 205.5  11.0  33920  285.53 0855.19
2009/04/23 07:03:17.7       0    -41      0     42     43 180.0  -1.3  33924  285.58 0855.19
2009/04/23 07:03:17.8      -8    -51     15     52     55 188.9  16.3  33924  285.58 0855.19
2009/04/23 07:03:17.9     -32    -68     40     76     85 205.5  30.3  33928  285.66 0855.19
2009/04/23 07:03:18.0     -36   -103     71    110    130 199.2  35.6  33926  285.61 0855.19
2009/04/23 07:03:18.1     -47   -120     55    129    140 201.4  24.6  33920  285.51 0855.19
2009/04/23 07:03:18.2     -58   -122     47    136    145 205.4  19.2  33916  285.44 0855.19
2009/04/23 07:03:18.3     -17   -122     43    124    132 188.0  19.4  33926  285.63 0855.19
2009/04/23 07:03:18.4      -7    -90     58     91    107 184.5  35.5  33926  285.63 0855.19
2009/04/23 07:03:18.5     -41    -82     15     92     94 206.7   9.5  33922  285.55 0855.19
2009/04/23 07:03:18.6     -46    -78     -2     91     92 210.7  -1.3  33918  285.48 0855.19
2009/04/23 07:03:18.7     -38    -91     -4     99    100 202.7  -2.6  33918  285.48 0855.19
2009/04/23 07:03:18.8     -44   -100      0    110    111 204.1  -0.3  33920  285.53 0855.19
2009/04/23 07:03:18.9     -31    -90     -3     96     97 199.2  -2.2  33918  285.50 0855.19
2009/04/23 07:03:19.0     -35    -78     -3     86     87 204.5  -2.6  33918  285.48 0855.19
2009/04/23 07:03:19.1     -47    -57     -2     75     76 219.7  -2.2  33912  285.39 0855.19
2009/04/23 07:03:19.2     -57    -58    -11     82     83 224.5  -8.2  33910  285.34 0855.19
2009/04/23 07:03:19.3     -70    -52     -4     88     89 233.1  -3.1  33914  285.41 0855.19
2009/04/23 07:03:19.4     -59    -37    -19     70     73 237.6 -15.5  33914  285.41 0855.19
2009/04/23 07:03:19.5     -59    -37    -19     70     73 237.6 -15.5  33914  285.41 0855.19
2009/04/23 07:03:19.6     -44    -38     -4     59     60 228.7  -4.1  33916  285.44 0855.19
2009/04/23 07:03:19.7     -25    -63    -20     68     70 201.8 -21.7  33918  285.48 0855.19
2009/04/23 07:03:19.8     -14    -69    -18     71     74 191.5 -14.5  33922  285.55 0855.19
2009/04/23 07:03:19.9      -8    -84    -21     85     88 185.8 -13.9  33920  285.51 0855.19
2009/04/23 07:03:20.0     -10    -88    -31     89     95 186.7 -19.7  33920  285.53 0855.19
2009/04/23 07:03:20.1      -4    -98     -7     99    100 182.7  -4.6  33922  285.55 0855.19
2009/04/23 07:03:20.2       2   -106     -5    107    108 178.6  -3.1  33920  285.51 0855.19
2009/04/23 07:03:20.3      -8    -95     -7     96     97 185.3  -4.6  33918  285.50 0855.19
2009/04/23 07:03:20.4       6    -87      9     88     89 175.6   5.9  33918  285.50 0855.19
2009/04/23 07:03:20.5     -12    -69     -9     71     72 189.8  -7.3  33918  285.48 0855.19
2009/04/23 07:03:20.6      -7    -53     -3     54     55 188.0  -4.1  33920  285.53 0855.19
2009/04/23 07:03:20.7     -15    -46    -13     49     51 198.3 -15.5  33916  285.46 0855.20
2009/04/23 07:03:20.8     -12    -33    -19     36     40 200.0 -34.7  33920  285.51 0855.20
2009/04/23 07:03:20.9      -6    -17     -6     19     19 198.7 -23.8  33920  285.53 0855.20
2009/04/23 07:03:21.0       0     -9     -3     10     11 175.5 -19.7  33918  285.50 0855.20
2009/04/23 07:03:21.1       4     -3      0      6      7 129.5  -2.2  33920  285.51 0855.20
2009/04/23 07:03:21.2      12     -6      7     14     15 118.9  27.2  33918  285.48 0855.20
2009/04/23 07:03:21.3       6    -10     13     13     18 147.5  50.1  33918  285.50 0855.20
2009/04/23 07:03:21.4      10    -10     16     15     21 135.0  50.1  33918  285.50 0855.20
2009/04/23 07:03:21.5       0     -7     19      8     20 182.7  77.1  33920  285.53 0855.20
2009/04/23 07:03:21.6       0     -5     18      6     19 182.7  81.0  33920  285.51 0855.20
2009/04/23 07:03:21.7      -4      3     18      6     19 309.5  81.0  33920  285.51 0855.20
2009/04/23 07:03:21.8      -3     -8     22      9     23 205.4  79.2  33922  285.55 0855.20
2009/04/23 07:03:21.9      -3    -14     15     15     21 195.1  50.1  33920  285.53 0855.20
2009/04/23 07:03:22.0       1    -11     15     12     19 172.0  56.4  33922  285.56 0855.20
2009/04/23 07:03:22.1       4    -14     10     15     18 161.5  35.6  33920  285.53 0855.20
2009/04/23 07:03:22.2       8    -12     -5     15     16 147.5 -19.7  33922  285.55 0855.20
2009/04/23 07:03:22.3      10    -35    -16     37     40 163.1 -29.5  33924  285.58 0855.20
2009/04/23 07:03:22.4       7    -46     -6     47     48 170.2  -7.3  33922  285.56 0855.20
2009/04/23 07:03:22.5       0    -34     -1     35     36 180.9  -2.2  33924  285.58 0855.20
2009/04/23 07:03:22.6       0    -35     18     36     40 180.9  29.3  33922  285.55 0855.20
2009/04/23 07:03:22.7      -5    -41      4     42     43 188.0   5.9  33924  285.58 0855.20
2009/04/23 07:03:22.8      -7    -34     -1     35     36 191.6  -2.2  33924  285.60 0855.20
2009/04/23 07:03:22.9      -2    -34     -4     35     36 184.4  -7.2  33924  285.58 0855.20
2009/04/23 07:03:23.0      -5    -33     11     34     37 189.8  18.9  33918  285.50 0855.20
2009/04/23 07:03:23.1     -11    -33     12     35     38 198.5  19.4  33920  285.53 0855.20
2009/04/23 07:03:23.2      -2    -37      6     38     39 184.5  10.1  33922  285.56 0855.20
2009/04/23 07:03:23.3      -3    -45      6     46     47 184.5   8.0  33926  285.61 0855.20
2009/04/23 07:03:23.4      -5    -41      4     42     43 188.0   5.9  33924  285.58 0855.20
2009/04/23 07:03:23.5      -5    -41      4     42     43 188.0   5.9  33924  285.58 0855.20
2009/04/23 07:03:23.6     -17    -30      6     35     36 210.7  11.1  33922  285.55 0855.20
2009/04/23 07:03:23.7     -29    -39     20     49     52 217.0  23.0  33922  285.56 0855.20
2009/04/23 07:03:23.8     -21    -54     24     59     63 201.8  23.0  33926  285.63 0855.20
2009/04/23 07:03:23.9     -28    -44     17     53     56 212.6  18.4  33930  285.68 0855.20
2009/04/23 07:03:24.0     -37    -34      7     51     52 227.8   8.0  33928  285.65 0855.20
2009/04/23 07:03:24.1     -24    -42      7     49     50 210.7   9.0  33928  285.66 0855.20
2009/04/23 07:03:24.2     -23    -38     15     45     48 211.6  18.9  33932  285.71 0855.20
2009/04/23 07:03:24.4     -13    -57      7     59     60 193.4   6.9  33928  285.65 0855.20
2009/04/23 07:03:24.4     -26    -55     -2     61     62 205.4  -2.2  33926  285.61 0855.20
2009/04/23 07:03:24.5     -25    -45     -2     52     53 209.9  -2.2  33922  285.55 0855.20
2009/04/23 07:03:24.6     -34    -38     -2     52     53 221.4  -2.2  33920  285.51 0855.20
2009/04/23 07:03:24.7     -14    -42     -4     45     46 198.3  -5.2  33920  285.53 0855.20
2009/04/23 07:03:24.9     -13    -44     -1     47     48 196.9  -2.2  33920  285.51 0855.20
2009/04/23 07:03:25.0      -3    -45     -1     46     47 184.5  -1.3  33920  285.53 0855.20
2009/04/23 07:03:25.1     -11    -42      0     44     45 195.1  -0.3  33920  285.53 0855.20
2009/04/23 07:03:25.2       0    -37      4     38     39 180.9   6.9  33920  285.53 0855.20
2009/04/23 07:03:25.3       0    -48      6     49     50 179.1   8.0  33928  285.66 0855.20
2009/04/23 07:03:25.4     -21    -63     31     67     73 198.3  27.1  33934  285.76 0855.20
2009/04/23 07:03:25.5     -28    -55     26     62     67 207.2  23.1  33924  285.60 0855.20
2009/04/23 07:03:25.6     -16    -47     21     50     54 199.2  23.0  33932  285.71 0855.20
2009/04/23 07:03:25.7     -11    -34     35     36     50 198.7  51.1  33934  285.76 0855.20
2009/04/23 07:03:25.8       3    -72     40     73     83 177.3  30.8  33928  285.66 0855.20
2009/04/23 07:03:25.9       9    -74     31     75     81 172.9  23.6  33934  285.75 0855.20
2009/04/23 07:03:26.0       5    -49     32     50     59 173.8  35.6  33942  285.90 0855.20
2009/04/23 07:03:26.1       0    -50     32     51     60 180.9  35.5  33938  285.82 0855.20
2009/04/23 07:03:26.2       4    -53     31     54     62 175.6  31.4  33926  285.61 0855.20
2009/04/23 07:03:26.3      -8    -52     25     53     58 188.9  27.1  33926  285.63 0855.20
2009/04/23 07:03:26.4      -4    -53     22     54     58 184.4  22.0  33922  285.55 0855.20
2009/04/23 07:03:26.5      -3    -45     29     46     54 184.5  35.5  33926  285.63 0855.20
2009/04/23 07:03:26.6       3    -45     24     46     51 175.5  29.3  33920  285.53 0855.20
2009/04/23 07:03:26.7     -12    -38     27     41     49 198.5  36.5  33922  285.56 0855.20
2009/04/23 07:03:26.8     -15    -31     21     35     40 207.2  34.4  33922  285.55 0855.21
2009/04/23 07:03:26.9      -8    -30     17     32     36 195.1  29.3  33922  285.56 0855.21
2009/04/23 07:03:27.0       0    -41     10     42     44 180.0  13.2  33924  285.58 0855.21
2009/04/23 07:03:27.1       6    -40     13     41     44 171.1  18.4  33918  285.50 0855.21
2009/04/23 07:03:27.2       7    -23     21     25     32 161.5  43.8  33926  285.61 0855.21
2009/04/23 07:03:27.3      10     -5     23     12     25 115.3  70.8  33922  285.56 0855.21
2009/04/23 07:03:27.4      16     18     28     25     37  41.4  52.2  33926  285.63 0855.21
2009/04/23 07:03:27.5       7     -7     27     11     29 135.0  79.2  33926  285.63 0855.21
2009/04/23 07:03:27.6      22    -30     34     38     50 143.9  46.9  33918  285.50 0855.21
2009/04/23 07:03:27.7      19    -34     53     40     66 151.0  59.4  33912  285.39 0855.21
2009/04/23 07:03:27.8       8    -26     51     28     58 161.7  68.8  33914  285.41 0855.21
2009/04/23 07:03:27.9      -1    -16     65     17     67 184.4  84.9  33914  285.41 0855.21
2009/04/23 07:03:28.0      -2     18     44     19     47 352.0  76.1  33918  285.50 0855.21
2009/04/23 07:03:28.1       2     10     40     11     41  15.1  84.9  33918  285.50 0855.21
2009/04/23 07:03:28.2      -5    -31     42     32     52 189.8  57.5  33920  285.53 0855.21
2009/04/23 07:03:28.3       0    -42     41     43     59 180.9  49.0  33924  285.58 0855.21
2009/04/23 07:03:28.4      -1    -70     55     71     89 181.0  42.2  33926  285.61 0855.21
2009/04/23 07:03:28.5      17    -94     70     96    118 169.8  39.7  33922  285.56 0855.21
2009/04/23 07:03:28.6      14    -82     62     84    104 170.2  39.7  33920  285.51 0855.21
2009/04/23 07:03:28.7      26    -83     57     87    104 162.6  36.0  33920  285.51 0855.21
2009/04/23 07:03:28.8       6    -77     55     78     95 175.5  38.0  33918  285.48 0855.21
2009/04/23 07:03:28.9      29    -79     59     85    103 160.0  38.0  33916  285.46 0855.21
2009/04/23 07:03:29.0      26    -59     63     65     90 155.5  49.4  33924  285.60 0855.21
2009/04/23 07:03:29.1      21    -50     52     55     75 157.3  48.0  33924  285.60 0855.21
2009/04/23 07:03:29.2      29    -66     42     73     84 156.4  32.9  33928  285.66 0855.21
2009/04/23 07:03:29.3      33    -70     37     78     86 154.6  27.2  33932  285.73 0855.21
2009/04/23 07:03:29.4      17    -61     38     64     74 164.0  35.5  33934  285.76 0855.21
2009/04/23 07:03:29.5       0    -36     52     37     63 180.9  60.6  33934  285.75 0855.21
2009/04/23 07:03:29.6     -11    -41     68     43     80 195.1  64.7  33930  285.70 0855.21
2009/04/23 07:03:29.7     -28    -68     45     74     86 202.7  34.4  33928  285.66 0855.21
2009/04/23 07:03:29.8     -22    -90     11     93     94 193.8   6.9  33924  285.60 0855.22
2009/04/23 07:03:29.9     -25    -63     49     68     83 201.8  39.7  33920  285.51 0855.22
2009/04/23 07:03:30.0     -55    -20     34     59     68 249.2  32.4  33920  285.51 0855.22
2009/04/23 07:03:30.1     -58    -33     32     67     74 240.2  27.1  33916  285.46 0855.22
2009/04/23 07:03:30.2     -40    -27     22     49     53 235.8  25.1  33918  285.50 0855.22
2009/04/23 07:03:30.3     -48    -26     43     55     69 241.1  42.7  33920  285.53 0855.22
2009/04/23 07:03:30.4     -48    -33     56     59     81 235.8  48.5  33918  285.48 0855.22
2009/04/23 07:03:30.5     -54    -54     41     77     87 225.0  30.3  33914  285.43 0855.22
2009/04/23 07:03:30.6     -47    -44     40     65     76 226.9  35.5  33912  285.39 0855.22
2009/04/23 07:03:30.8     -57    -55     21     80     83 226.4  14.7  33914  285.43 0855.22
2009/04/23 07:03:30.9     -36    -57     13     68     70 212.5  11.1  33914  285.41 0855.22
2009/04/23 07:03:31.0     -73    -24     55     78     95 251.4  38.0  33910  285.36 0855.22
2009/04/23 07:03:31.1     -72    -40     48     83     95 241.1  32.9  33908  285.33 0855.22
2009/04/23 07:03:31.2     -45    -28     30     54     61 237.6  31.4  33910  285.34 0855.22
2009/04/23 07:03:31.3     -40     -1     33     41     52 267.4  43.7  33910  285.34 0855.22
2009/04/23 07:03:31.4     -52     30     32     61     68 299.8  29.3  33908  285.31 0855.22
2009/04/23 07:03:31.5     -56     35     52     67     84 302.4  41.7  33910  285.36 0855.22
2009/04/23 07:03:31.6     -72      4     25     73     78 273.5  19.4  33908  285.31 0855.22
2009/04/23 07:03:31.7     -76    -11     33     77     83 261.2  24.1  33906  285.29 0855.22
2009/04/23 07:03:31.8     -87    -16     22     89     92 259.4  14.3  33906  285.28 0855.21
2009/04/23 07:03:31.9     -96     -7     11     97     98 265.7   6.9  33904  285.24 0855.21
2009/04/23 07:03:32.0    -105     -1     37    106    113 269.2  19.4  33912  285.38 0855.21
2009/04/23 07:03:32.1     -95      7     33     96    102 274.4  19.2  33916  285.44 0855.21
2009/04/23 07:03:32.2     -69    -14     53     71     88 258.5  40.7  33906  285.29 0855.21
2009/04/23 07:03:32.3     -71     -6     52     72     88 264.8  39.7  33910  285.36 0855.21
2009/04/23 07:03:32.4     -88      4     39     89     97 272.6  25.1  33924  285.60 0855.21
2009/04/23 07:03:32.5     -69      9     42     70     81 277.9  34.0  33940  285.85 0855.21
2009/04/23 07:03:32.6     -67      9     41     68     79 277.9  34.0  33942  285.88 0855.21
2009/04/23 07:03:32.7     -52    -41     57     67     87 232.2  44.8  33922  285.55 0855.21
2009/04/23 07:03:32.8     -52    -56     43     77     88 223.2  31.4  33918  285.48 0855.21
2009/04/23 07:03:32.9     -43    -58     64     73     97 216.1  45.8  33914  285.43 0855.21
2009/04/23 07:03:33.0     -60    -95     96    113    148 212.6  44.3  33920  285.51 0855.21
2009/04/23 07:03:33.1     -72    -36     69     81    106 242.9  44.8  33914  285.43 0855.21
2009/04/23 07:03:33.2     -63     -6     44     64     77 263.9  37.6  33916  285.44 0855.21
2009/04/23 07:03:33.3     -54     32     35     63     72 300.7  31.4  33926  285.63 0855.21
2009/04/23 07:03:33.4     -64     42     22     77     81 303.3  16.3  33940  285.87 0855.21
2009/04/23 07:03:33.5     -85     37     42     93    102 293.5  25.7  33932  285.71 0855.21
2009/04/23 07:03:33.6     -76     52      7     93     94 304.6   4.4  33962  286.22 0855.21
2009/04/23 07:03:33.7     -48     25    -19     55     59 297.1 -19.7  33966  286.29 0855.21
2009/04/23 07:03:33.8     -49    -23     -2     55     56 244.7  -2.2  33946  285.97 0855.21
2009/04/23 07:03:33.9     -30    -47     10     56     57 212.5  10.1  33928  285.66 0855.21
2009/04/23 07:03:34.0     -10    -75     49     76     90 188.0  35.6  33928  285.65 0855.21
2009/04/23 07:03:34.1     -28    -94     66     99    118 196.5  37.0  33928  285.66 0855.21
2009/04/23 07:03:34.2     -35    -86     80     94    123 202.3  45.4  33930  285.70 0855.21
2009/04/23 07:03:34.3     -59    -66     90     89    126 221.9  50.1  33924  285.58 0855.21
2009/04/23 07:03:34.4     -54    -78     73     96    120 214.7  41.2  33926  285.63 0855.21
2009/04/23 07:03:34.5     -38    -45     88     60    106 220.5  62.6  33930  285.70 0855.21
2009/04/23 07:03:34.6     -31    -66     77     74    106 205.3  51.2  33922  285.56 0855.21
2009/04/23 07:03:34.7     -33    -61     26     70     74 208.9  20.0  33922  285.55 0855.21
2009/04/23 07:03:34.8     -56    -41     13     70     72 234.1  11.0  33918  285.48 0855.21
2009/04/23 07:03:34.9    -103    -63     29    121    125 238.5  13.7  33910  285.36 0855.21
2009/04/23 07:03:35.0    -115    -73     62    137    150 237.6  26.2  33910  285.34 0855.21
2009/04/23 07:03:35.1     -68    -58     67     90    112 229.1  40.1  33910  285.36 0855.21
2009/04/23 07:03:35.2     -66     -8     39     67     77 263.0  33.5  33910  285.36 0855.21
2009/04/23 07:03:35.3     -17      0     41     18     44 270.0  76.1  33908  285.31 0855.21
2009/04/23 07:03:35.4     -42    -71     44     83     93 211.2  30.3  33912  285.38 0855.21
2009/04/23 07:03:35.5     -52    -67     27     85     90 217.8  17.9  33916  285.44 0855.21
2009/04/23 07:03:35.6     -61    -70     42     93    102 221.0  25.7  33918  285.48 0855.21
2009/04/23 07:03:35.7     -66    -61     27     90     95 227.3  16.8  33916  285.44 0855.21
2009/04/23 07:03:35.8     -57    -60     21     83     86 223.7  14.7  33916  285.44 0855.21
2009/04/23 07:03:35.9     -55    -84     -3    101    102 213.4  -2.2  33916  285.44 0855.21
2009/04/23 07:03:36.0     -52    -81     -2     97     98 212.5  -1.3  33918  285.48 0855.21
2009/04/23 07:03:36.1     -53    -94      4    109    110 209.4   2.3  33918  285.48 0855.21
2009/04/23 07:03:36.2     -54    -92     17    107    109 210.7   9.0  33918  285.48 0855.21
2009/04/23 07:03:36.3     -43    -78     13     90     92 209.0   8.5  33918  285.48 0855.21
2009/04/23 07:03:36.4     -30    -80     16     86     88 200.5  10.6  33918  285.48 0855.21
2009/04/23 07:03:36.5     -32    -66      3     74     75 206.3   2.9  33914  285.41 0855.21
2009/04/23 07:03:36.6     -44    -69      4     83     84 212.5   3.3  33916  285.44 0855.21
2009/04/23 07:03:36.7     -34    -75      4     83     84 204.5   2.9  33916  285.44 0855.21
2009/04/23 07:03:36.8     -23    -70     -4     74     75 198.7  -3.2  33918  285.48 0855.21
2009/04/23 07:03:36.9     -18    -56     -2     59     60 198.3  -2.2  33918  285.50 0855.21
2009/04/23 07:03:37.0      -8    -62      8     63     64 188.0   8.0  33918  285.48 0855.21
2009/04/23 07:03:37.1       4    -53      8     54     55 175.5   9.0  33918  285.48 0855.21
2009/04/23 07:03:37.2       6    -50     13     51     53 172.9  14.3  33918  285.50 0855.21
2009/04/23 07:03:37.3      -3    -21     15     22     26 189.8  35.6  33918  285.48 0855.21
2009/04/23 07:03:37.4     -14    -22     19     27     33 212.5  39.7  33918  285.48 0855.21
2009/04/23 07:03:37.5     -12     -8     20     15     25 237.6  60.5  33918  285.48 0855.21
2009/04/23 07:03:37.6      -6     -6     16      9     18 226.7  68.8  33916  285.46 0855.21
2009/04/23 07:03:37.7       2     -3     15      4     15 147.5  84.9  33916  285.46 0855.21
2009/04/23 07:03:37.8       8      0     15      9     17  90.0  64.7  33916  285.46 0855.21
2009/04/23 07:03:37.9       8      0      9      9     12  94.4  50.1  33920  285.53 0855.21
2009/04/23 07:03:38.0       3      3     14      5     14  45.0  81.0  33920  285.51 0855.21
2009/04/23 07:03:38.1       3      8     17      9     19  25.4  68.8  33922  285.55 0855.21
2009/04/23 07:03:38.2       6     11     19     13     23  29.0  60.5  33924  285.58 0855.21
2009/04/23 07:03:38.3       7      9     21     12     24  36.1  68.8  33930  285.68 0855.21
2009/04/23 07:03:38.4       1     12     22     13     25   8.0  64.7  33928  285.66 0855.21
2009/04/23 07:03:38.5       0      7     19      8     20 357.3  77.1  33930  285.70 0855.21
2009/04/23 07:03:38.6     -11      7     20     14     24 302.4  60.5  33930  285.68 0855.21
2009/04/23 07:03:38.7     -15     17     18     24     30 318.6  41.7  33928  285.66 0855.21
2009/04/23 07:03:38.8      -8     15     24     18     30 331.0  58.5  33926  285.63 0855.21
2009/04/23 07:03:38.9     -21     -3     19     22     29 260.3  47.9  33926  285.63 0855.21
2009/04/23 07:03:39.0     -14     -9     19     17     25 237.6  52.2  33924  285.58 0855.21
2009/04/23 07:03:39.1     -13      0     12     14     18 270.0  52.0  33924  285.58 0855.21
2009/04/23 07:03:39.2     -26      8     21     28     35 288.6  39.7  33920  285.51 0855.21
2009/04/23 07:03:39.3     -23     23     24     33     40 315.0  39.7  33918  285.48 0855.21
2009/04/23 07:03:39.4     -27     24     19     37     41 311.3  29.3  33916  285.46 0855.21
2009/04/23 07:03:39.5     -28     27     24     40     46 314.0  34.4  33914  285.43 0855.21
2009/04/23 07:03:39.6     -27     31     26     42     49 318.6  35.5  33912  285.39 0855.21
2009/04/23 07:03:39.7     -24     44     35     51     61 331.0  38.6  33906  285.29 0855.21
2009/04/23 07:03:39.8     -21     32     32     39     50 327.4  43.7  33906  285.28 0855.21
2009/04/23 07:03:39.9     -13     47     40     49     63 344.0  43.7  33904  285.24 0855.21
2009/04/23 07:03:40.0     -31     32     42     45     61 315.8  47.9  33902  285.21 0855.21
2009/04/23 07:03:40.1     -11     43     35     45     57 344.9  42.7  33906  285.28 0855.21
2009/04/23 07:03:40.2     -11     43     22     45     50 344.9  27.3  33906  285.29 0855.21
2009/04/23 07:03:40.3     -11     43     22     45     50 344.9  27.3  33906  285.29 0855.21
2009/04/23 07:03:40.4     -14     38     21     41     46 339.1  29.3  33908  285.31 0855.21
2009/04/23 07:03:40.5     -22     27     16     36     39 320.3  25.1  33908  285.31 0855.21
2009/04/23 07:03:40.6     -24     25     12     35     38 316.6  19.4  33908  285.31 0855.21
2009/04/23 07:03:40.7     -13     23     13     27     29 329.3  27.3  33908  285.33 0855.21
2009/04/23 07:03:40.8      -7     15     11     17     20 334.6  37.6  33908  285.31 0855.21
2009/04/23 07:03:40.9     -12     15     13     20     23 320.4  35.5  33906  285.28 0855.21
2009/04/23 07:03:41.0      -4     15      9     16     18 344.9  31.4  33906  285.29 0855.21
2009/04/23 07:03:41.1      -2      3     11      4     11 327.5  81.0  33904  285.26 0855.21
2009/04/23 07:03:41.2      -2      3     11      4     11 327.5  81.0  33904  285.26 0855.21
2009/04/23 07:03:41.3       7      3      7      8     10  64.7  47.9  33904  285.26 0855.21
2009/04/23 07:03:41.4       3      7      2      8      9  25.4  18.9  33902  285.23 0855.21
2009/04/23 07:03:41.5       1     11      1     12     13   8.0   6.9  33904  285.26 0855.21
2009/04/23 07:03:41.6       1     11      1     12     13   8.0   6.9  33904  285.26 0855.21
2009/04/23 07:03:41.7       0     16      0     17     18 357.3  -2.2  33904  285.26 0855.21
2009/04/23 07:03:41.8      -1     23      0     24     25 357.3  -2.2  33906  285.29 0855.21
2009/04/23 07:03:41.9       2     26      1     27     28   4.5   2.8  33906  285.28 0855.21
2009/04/23 07:03:42.0      12     29     -1     32     33  23.6  -2.2  33906  285.29 0855.21
2009/04/23 07:03:42.1      15     44     -6     47     48  18.7  -7.3  33906  285.29 0855.21
2009/04/23 07:03:42.2      14     36      7     39     40  21.8  11.1  33910  285.34 0855.21
2009/04/23 07:03:42.3      24     42     31     49     57  30.7  35.5  33910  285.34 0855.21
2009/04/23 07:03:42.4      24     38     27     46     53  32.5  33.5  33916  285.46 0855.21
2009/04/23 07:03:42.5      28     42     21     51     55  34.3  24.1  33934  285.76 0855.21
2009/04/23 07:03:42.6       4     56     10     57     58   4.5  10.1  33918  285.48 0855.21
2009/04/23 07:03:42.7      46     63     25     79     84  36.1  17.9  33926  285.61 0855.21
2009/04/23 07:03:42.8      35     62     34     72     79  29.9  27.2  33922  285.55 0855.21
2009/04/23 07:03:42.9     217      4     51     69     85 360.0  40.1  33908  285.31 0855.21
2009/04/23 07:03:43.0       1     71     55     72     90   0.9  41.7  33898  285.16 0855.21
2009/04/23 07:03:43.1       4     64     65     65     91   3.6  50.1  33900  285.19 0855.21
2009/04/23 07:03:43.2      -7     82     57     83    100 354.7  38.0  33912  285.39 0855.21
2009/04/23 07:03:43.3       8     86     51     87    100   5.3  32.9  33944  285.93 0855.21
2009/04/23 07:03:43.4      59    106    114    122    166  29.0  47.9  34032  287.42 0855.21
2009/04/23 07:03:43.5      47    120    100    129    163  21.4  41.7  34004  286.94 0855.21
2009/04/23 07:03:43.6      31     93     86     99    131  18.7  45.8  33986  286.62 0855.21
2009/04/23 07:03:43.7       1     70     89     71    113   0.9  56.9  33964  286.25 0855.21
2009/04/23 07:03:43.8      63     88     30    109    114  35.6  15.3  33944  285.92 0855.22
2009/04/23 07:03:43.9       8    105     51    106    117   4.5  27.2  33998  286.84 0855.22
2009/04/23 07:03:44.0      -5    100     76    101    126 356.9  40.7  34024  287.28 0855.22
2009/04/23 07:03:44.1     -27    132     94    135    164 348.4  38.0  34012  287.08 0855.22
2009/04/23 07:03:44.2     -21    125     87    127    153 350.2  37.6  34012  287.06 0855.22
2009/04/23 07:03:44.3     -32     47     42     58     71 325.7  39.7  33970  286.37 0855.22
2009/04/23 07:03:44.4       0     11     62     12     63   4.5  89.1  33986  286.62 0855.22
2009/04/23 07:03:44.5       9      0     26     10     27  90.0  81.2  34006  286.96 0855.22
2009/04/23 07:03:44.6      26      0     -1     27     28  90.0  -2.2  34010  287.05 0855.22
2009/04/23 07:03:44.7      26      8     -1     28     29  71.4  -2.2  34004  286.93 0855.22
2009/04/23 07:03:44.8      17     17     15     25     29  45.0  35.5  33998  286.84 0855.22
2009/04/23 07:03:44.9      37      2     24     38     44  85.6  35.5  33992  286.73 0855.22
2009/04/23 07:03:45.0      52      4     24     53     58  85.7  26.2  33992  286.74 0855.22
2009/04/23 07:03:45.1      39     10      8     41     42  74.9  11.1  34004  286.93 0855.22
2009/04/23 07:03:45.2     -25     67     69     72     99 339.1  49.0  34034  287.43 0855.22
2009/04/23 07:03:45.3      -8     82     74     83    111 353.8  46.4  34026  287.30 0855.22
2009/04/23 07:03:45.4      16     80     65     82    104  11.6  42.7  34024  287.28 0855.22
2009/04/23 07:03:45.5      55     65     41     86     95  40.5  27.2  34032  287.42 0855.22
2009/04/23 07:03:45.6      56     35     45     67     80  57.6  37.6  34050  287.70 0855.22
2009/04/23 07:03:45.7      58     22     30     63     69  69.2  27.2  34032  287.40 0855.22
2009/04/23 07:03:45.8      61     26     26     67     71  66.5  22.0  34026  287.30 0855.21
2009/04/23 07:03:45.9      60     38      3     72     73  57.6   2.9  34026  287.30 0855.21
2009/04/23 07:03:46.0      58     15     -1     61     62  74.9  -1.3  34030  287.38 0855.21
2009/04/23 07:03:46.1      67     13     21     69     73  78.6  17.3  34080  288.21 0855.21
2009/04/23 07:03:46.2      91     -1     51     92    105  90.8  31.4  34086  288.31 0855.21
2009/04/23 07:03:46.3      62     20     68     66     94  71.8  49.7  34108  288.69 0855.21
2009/04/23 07:03:46.4      68     22     80     72    107  71.8  53.3  34102  288.60 0855.21
2009/04/23 07:03:46.5      41     37     74     56     92  47.8  58.5  34074  288.11 0855.21
2009/04/23 07:03:46.6      81     17     65     83    105  78.1  42.2  34038  287.50 0855.21
2009/04/23 07:03:46.7      85     17     69     87    111  78.5  43.3  34026  287.30 0855.21
2009/04/23 07:03:46.8      64      3     75     65     99  86.5  54.8  34044  287.60 0855.21
2009/04/23 07:03:46.9      10     28     98     30    102  20.0  82.3  34034  287.45 0855.21
2009/04/23 07:03:47.0      11     12     72     17     73  43.2  86.9  34016  287.13 0855.21
2009/04/23 07:03:47.1      57     15     78     60     98  74.9  57.9  33980  286.54 0855.21
2009/04/23 07:03:47.2      97     11     48     98    109  83.4  27.8  33988  286.66 0855.21
2009/04/23 07:03:47.3      68      0     47     69     83  90.0  37.6  33986  286.64 0855.21
2009/04/23 07:03:47.4      80     60     37    100    106  53.1  20.4  33980  286.54 0855.21
2009/04/23 07:03:47.5     106     82     39    135    141  52.3  16.3  33988  286.67 0855.21
2009/04/23 07:03:47.6     136     99     35    169    173  53.8  12.0  33996  286.79 0855.21
2009/04/23 07:03:47.7     123    116     20    170    172  46.7   6.9  33990  286.69 0855.21
2009/04/23 07:03:47.8     118    110     21    162    164  46.8   7.5  33988  286.66 0855.21
2009/04/23 07:03:47.9     130    110     21    171    173  49.8   7.2  33974  286.44 0855.21
2009/04/23 07:03:48.0     126     91      1    156    157  54.0   0.5  33968  286.32 0855.21
2009/04/23 07:03:48.1     113     75     -7    136    137  56.3  -3.1  33968  286.32 0855.21
2009/04/23 07:03:48.2     120     73     -7    141    142  58.5  -3.1  33970  286.37 0855.21
2009/04/23 07:03:48.3      94     93     11    133    134  45.2   4.9  33990  286.71 0855.21
2009/04/23 07:03:48.4      58    109      1    124    125  28.1   0.7  34004  286.93 0855.21
2009/04/23 07:03:48.5      46    146      3    154    155  17.4   1.2  34004  286.93 0855.21
2009/04/23 07:03:48.6      43    131      6    139    140  18.3   2.8  34014  287.11 0855.21
2009/04/23 07:03:48.7      63    116      2    132    133  28.5   1.2  34022  287.23 0855.21
2009/04/23 07:03:48.8      58    109     -2    124    125  28.1  -1.3  34010  287.03 0855.21
2009/04/23 07:03:48.9      50     82     -3     97     98  31.6  -2.2  34008  287.01 0855.21
2009/04/23 07:03:49.0      48     84    -16     98    100  29.9  -9.8  34014  287.11 0855.21
2009/04/23 07:03:49.1      40    108      0    116    117  20.5  -0.3  34022  287.23 0855.21
2009/04/23 07:03:49.2      37    111     14    118    119  18.7   6.9  34030  287.38 0855.21
2009/04/23 07:03:49.3      30    125     20    129    131  13.8   9.0  34024  287.27 0855.21
2009/04/23 07:03:49.4      38    102     22    109    112  20.5  11.6  34030  287.38 0855.21
2009/04/23 07:03:49.5      31    105     38    110    117  16.5  19.4  34038  287.50 0855.21
2009/04/23 07:03:49.6      32    102     37    107    114  17.4  19.4  34028  287.35 0855.21
2009/04/23 07:03:49.7      41    103     30    111    116  21.8  15.2  34028  287.35 0855.21
2009/04/23 07:03:49.9      33     93     37     99    105  20.0  21.5  34036  287.49 0855.22
2009/04/23 07:03:50.0      68     99     44    121    128  34.3  20.9  34058  287.84 0855.22
2009/04/23 07:03:50.2     -22    101     52    104    116 347.5  28.2  34056  287.81 0855.22
2009/04/23 07:03:50.3     -34    122     55    127    138 344.4  25.1  34060  287.89 0855.22
2009/04/23 07:03:50.4       3    127     51    128    137   1.4  23.0  34050  287.72 0855.22
2009/04/23 07:03:50.5     -19     95     42     97    105 348.5  24.6  34050  287.70 0855.22
2009/04/23 07:03:50.6     -13     88     10     89     90 351.5   6.9  34048  287.67 0855.22
2009/04/23 07:03:50.7     -18     97     13     99    100 349.3   8.0  34050  287.70 0855.22
2009/04/23 07:03:50.8     -30    100     38    105    111 343.1  20.0  34048  287.69 0855.21
2009/04/23 07:03:50.9     -12     92     55     93    108 352.4  34.0  34048  287.69 0855.21
2009/04/23 07:03:51.0     -15     90     79     92    121 350.2  45.4  34052  287.74 0855.21
2009/04/23 07:03:51.1     -44    100     58    110    124 335.9  30.3  34058  287.86 0855.21
2009/04/23 07:03:51.2     -16    113     27    115    119 352.0  13.2  34068  288.03 0855.21
2009/04/23 07:03:51.3     -12    120     37    121    127 354.2  17.3  34072  288.09 0855.21
2009/04/23 07:03:51.4     -16    149      7    150    151 353.8   2.9  34076  288.14 0855.21
2009/04/23 07:03:51.5      -6    139     -5    140    141 357.3  -2.2  34068  288.01 0855.21
2009/04/23 07:03:51.6      14    156     -7    157    158   5.3  -2.8  34060  287.87 0855.21
2009/04/23 07:03:51.8      62     62     49     88    100  45.0  31.4  34074  288.13 0855.21
2009/04/23 07:03:51.9      33     40     53     53     74  39.6  50.1  34058  287.86 0855.21
2009/04/23 07:03:52.0      10     65     34     66     74   8.9  29.3  34060  287.89 0855.21
2009/04/23 07:03:52.1      19     59     87     63    107  18.5  60.5  34056  287.82 0855.21
2009/04/23 07:03:52.2      47     57     89     75    116  39.6  55.8  34068  288.03 0855.21
2009/04/23 07:03:52.3      62     62     52     88    102  45.0  33.5  34070  288.06 0855.21
2009/04/23 07:03:52.4      14    186     81    187    203   4.5  25.1  34032  287.42 0855.21
2009/04/23 07:03:52.5     -24    214     82    216    231 353.5  21.7  34046  287.64 0855.21
2009/04/23 07:03:52.6      -3    207     87    208    225 359.1  24.1  34058  287.86 0855.21
2009/04/23 07:03:52.7      30    149     75    153    170  11.5  28.0  34060  287.89 0855.21
2009/04/23 07:03:52.8      29    144     18    148    150  11.6   7.1  34056  287.82 0855.21
2009/04/23 07:03:52.9      53     82     56     98    112  33.0  32.4  34074  288.11 0855.22
2009/04/23 07:03:53.0      80     79     75    113    135  45.1  36.5  34094  288.47 0855.22
2009/04/23 07:03:53.1      85     96    102    129    164  41.5  42.2  34100  288.55 0855.22
2009/04/23 07:03:53.2      84    105    107    135    172  38.7  42.7  34092  288.42 0855.22
2009/04/23 07:03:53.3     121     44    107    129    167  70.0  44.1  34094  288.47 0855.22
2009/04/23 07:03:53.4     125     50     85    135    159  68.2  35.2  34076  288.16 0855.22
2009/04/23 07:03:53.5     122     60     54    136    146  63.8  23.0  34060  287.87 0855.22
2009/04/23 07:03:53.6     115    101     67    154    167  48.7  24.9  34076  288.16 0855.22
2009/04/23 07:03:53.7     107    100     51    147    156  46.9  19.4  34074  288.11 0855.22
2009/04/23 07:03:53.8     122     36      1    128    129  73.6   0.8  34070  288.06 0855.22
2009/04/23 07:03:53.9     130     51    -12    140    141  68.3  -5.2  34064  287.96 0855.22
2009/04/23 07:03:54.0     107     78     53    133    143  54.1  23.0  34076  288.14 0855.22
2009/04/23 07:03:54.1     119    101     46    157    164  49.6  16.6  34076  288.16 0855.22
2009/04/23 07:03:54.2     111     96      7    148    149  49.1   2.9  34066  287.99 0855.22
2009/04/23 07:03:54.3     143     95     37    172    176  56.3  12.2  34024  287.28 0855.22
2009/04/23 07:03:54.4     151    142     60    208    217  46.9  16.3  34014  287.11 0855.22
2009/04/23 07:03:54.5     202    146     35    250    253  54.0   8.0  34022  287.24 0855.22
2009/04/23 07:03:54.6     134    126    -25    185    187  46.7  -7.7  34028  287.35 0855.22
2009/04/23 07:03:54.7     130    113    -44    173    179  49.1 -14.5  33992  286.73 0855.22
2009/04/23 07:03:54.8      81    111     18    138    140  36.0   7.5  34006  286.98 0855.22
2009/04/23 07:03:54.9      62    123     48    138    147  26.7  19.4  34060  287.89 0855.22
2009/04/23 07:03:55.0      93    101     47    138    146  42.8  18.9  34038  287.50 0855.22
2009/04/23 07:03:55.1     108     95     36    144    149  48.7  14.3  34046  287.64 0855.22
2009/04/23 07:03:55.2     140     78     53    161    170  60.7  18.4  34014  287.11 0855.22
2009/04/23 07:03:55.3     141     84      9    165    166  59.3   3.3  33978  286.51 0855.22
2009/04/23 07:03:55.4     193    124      1    230    231  57.1   0.5  34024  287.27 0855.22
2009/04/23 07:03:55.5     189    106     10    217    218  60.7   2.8  34032  287.42 0855.22
2009/04/23 07:03:55.6     216     71     40    228    232  71.8  10.0  34064  287.96 0855.22
2009/04/23 07:03:55.7     203    100     44    227    232  63.8  11.0  34066  287.98 0855.22
2009/04/23 07:03:55.8     204     83     82    221    235  67.8  21.0  34044  287.60 0855.22
2009/04/23 07:03:55.9     189     89    109    209    235  64.8  29.5  34016  287.13 0855.22
2009/04/23 07:03:56.0     213     84     62    230    239  68.3  15.2  33982  286.55 0855.22
2009/04/23 07:03:56.1     227    116     45    256    261  62.9  10.1  33992  286.74 0855.22
2009/04/23 07:03:56.2     235     53     54    242    249  77.2  12.6  34040  287.55 0855.22
2009/04/23 07:03:56.3     242     94    109    260    281  68.7  24.1  34014  287.11 0855.22
2009/04/23 07:03:56.4     228     76     80    241    255  71.4  18.5  34016  287.14 0855.22
2009/04/23 07:03:56.5     235     85    106    251    272  70.0  24.1  34034  287.43 0855.22
2009/04/23 07:03:56.6     219    118     75    249    261  61.6  16.8  33992  286.72 0855.22
2009/04/23 07:03:56.7     204    129      0    242    243  57.6   0.2  33956  286.11 0855.22
2009/04/23 07:03:56.8     214    121     47    246    251  60.5  11.0  33994  286.75 0855.22
2009/04/23 07:03:56.9     231     57     61    238    246  76.1  14.5  34032  287.39 0855.23
2009/04/23 07:03:57.0     281    113     48    304    308  68.0   9.0  34010  287.04 0855.23
2009/04/23 07:03:57.1     331     85    -32    342    344  75.5  -5.5  34012  287.07 0855.23
2009/04/23 07:03:57.2     290     12    124    291    316  87.5  24.5  34014  287.09 0855.23
2009/04/23 07:03:57.3     277     57      8    283    284  78.3   1.8  33990  286.70 0855.23
2009/04/23 07:03:57.4     333     92     43    346    349  74.4   7.1  33960  286.19 0855.23
2009/04/23 07:03:57.5     290    104     42    309    312  70.3   7.8  33920  285.52 0855.23
2009/04/23 07:03:57.6     278     87     25    292    294  72.5   5.0  33920  285.51 0855.23
2009/04/23 07:03:57.7     225     97     43    246    250  66.7  10.1  33928  285.64 0855.23
2009/04/23 07:03:57.8     163    122     48    204    210  53.1  13.2  33952  286.05 0855.23
2009/04/23 07:03:57.9     193    116     35    226    229  59.1   8.9  33936  285.78 0855.23
2009/04/23 07:03:58.0     207    106     84    233    248  62.9  19.9  33968  286.33 0855.23
2009/04/23 07:03:58.1     191    102     18    217    218  61.8   4.9  33952  286.05 0855.23
2009/04/23 07:03:58.2     169     99    -15    196    197  59.6  -4.6  33942  285.88 0855.23
2009/04/23 07:03:58.3     216     65     17    226    227  73.1   4.4  33942  285.88 0855.23
2009/04/23 07:03:58.4     204     76     42    218    223  69.6  11.1  33940  285.85 0855.23
2009/04/23 07:03:58.5     132     94     57    163    173  54.5  19.4  33948  285.98 0855.23
2009/04/23 07:03:58.6     192    106     46    220    225  61.1  12.0  33942  285.90 0855.23
2009/04/23 07:03:58.7     200     31     30    203    206  81.2   8.5  33958  286.17 0855.23
2009/04/23 07:03:58.8     159     50    -14    167    168  72.5  -4.9  33934  285.75 0855.23
2009/04/23 07:03:58.9     158    148    -27    217    219  46.9  -7.2  33946  285.97 0855.23
2009/04/23 07:03:59.0     169     -3     69    170    183  91.3  23.0  33944  285.93 0855.23
2009/04/23 07:03:59.1     131     18     36    133    138  82.0  15.3  33952  286.05 0855.23
2009/04/23 07:03:59.2     146     20    -20    148    150  82.1  -7.7  33966  286.30 0855.23
2009/04/23 07:03:59.3     140      6    -18    141    143  87.4  -7.3  33972  286.39 0855.23
2009/04/23 07:03:59.4     116      0     10    117    118  90.0   5.0  33974  286.42 0855.23
2009/04/23 07:03:59.5      84     -1     28     85     90  91.3  18.4  33972  286.39 0855.23
2009/04/23 07:03:59.6      93     31     26     99    103  71.4  15.2  33968  286.34 0855.23
2009/04/23 07:03:59.7     107     68     42    128    135  57.5  18.4  33926  285.61 0855.23
2009/04/23 07:03:59.8     143     73     30    161    164  62.9  10.6  33940  285.85 0855.23
2009/04/23 07:03:59.9     167     53     35    176    180  72.3  11.4  33934  285.75 0855.23
2009/04/23 07:04:00.0     114     24     56    117    129  78.1  27.3  33946  285.95 0855.23
2009/04/23 07:04:00.1     142     -6     70    143    159  92.6  28.0  33960  286.19 0855.23
2009/04/23 07:04:00.2     106     -7     80    107    133  94.3  40.1  33964  286.25 0855.23
2009/04/23 07:04:00.3     107    -28     77    111    135 104.6  37.6  33962  286.22 0855.23
2009/04/23 07:04:00.4      95      7     92     96    132  85.7  49.4  33950  286.03 0855.23
2009/04/23 07:04:00.5      77     14    102     79    129  79.4  58.5  33964  286.25 0855.23
2009/04/23 07:04:00.6      69    -42     80     81    113 121.5  50.5  33968  286.32 0855.23
2009/04/23 07:04:00.7      92    -44     53    103    115 115.8  29.3  33978  286.51 0855.23
2009/04/23 07:04:00.8      72    -34     46     80     92 115.2  32.9  33978  286.49 0855.23
2009/04/23 07:04:00.9      78    -10     65     79    102  97.9  43.8  33970  286.37 0855.23
2009/04/23 07:04:01.0      96      7     66     97    117  85.7  37.0  33978  286.51 0855.23
2009/04/23 07:04:01.1      71     19    103     74    126  75.0  60.6  33972  286.39 0855.23
2009/04/23 07:04:01.2      91      7     95     92    132  85.2  50.7  33970  286.37 0855.23
2009/04/23 07:04:01.3      93     12    116     94    149  82.1  56.4  33996  286.79 0855.23
2009/04/23 07:04:01.4      64     25    100     69    121  68.3  62.6  33994  286.78 0855.23
2009/04/23 07:04:01.5      35    -35     55     50     74 134.9  52.2  33986  286.64 0855.23
2009/04/23 07:04:01.6      82    -17     32     84     89 101.9  21.5  33996  286.79 0855.23
2009/04/23 07:04:01.7      81    -36     10     89     90 114.0   6.5  33998  286.83 0855.23
2009/04/23 07:04:01.8      86    -30      0     92     93 109.5   0.2  33992  286.73 0855.23
2009/04/23 07:04:01.9      75    -25     -6     80     81 108.6  -4.6  33988  286.67 0855.23
2009/04/23 07:04:02.0      63    -27     -8     69     70 113.5  -7.3  33994  286.76 0855.23
2009/04/23 07:04:02.1      57    -13     -4     59     60 103.3  -4.1  33998  286.83 0855.23
2009/04/23 07:04:02.2      46    -15    -10     49     51 108.2 -12.4  34004  286.94 0855.23
2009/04/23 07:04:02.3      29    -14    -12     33     35 115.2 -23.3  33998  286.84 0855.23
2009/04/23 07:04:02.4      18    -26    -22     32     38 145.7 -42.0  33984  286.61 0855.23
2009/04/23 07:04:02.5      11    -42    -41     44     60 164.9 -52.4  33974  286.42 0855.23
2009/04/23 07:04:02.6      17    -46    -49     50     70 160.0 -55.5  33968  286.34 0855.23
2009/04/23 07:04:02.7       1    -49    -18     50     53 178.2 -23.3  33976  286.46 0855.23
2009/04/23 07:04:02.8      15    -58    -31     61     68 164.9 -32.6  33968  286.34 0855.23
2009/04/23 07:04:02.9      29    -59    -24     66     70 153.7 -24.4  33964  286.27 0855.22
2009/04/23 07:04:03.0      20    -62     -1     66     67 161.7  -1.2  33968  286.32 0855.22
2009/04/23 07:04:03.1      34    -50      4     61     62 145.7   3.8  33970  286.37 0855.22
2009/04/23 07:04:03.2      77    -49    -12     92     93 122.5  -7.7  33970  286.35 0855.22
2009/04/23 07:04:03.3      83    -60    -20    103    106 126.0 -11.3  33964  286.27 0855.22
2009/04/23 07:04:03.4      92    -69     31    116    121 126.9  15.3  33970  286.37 0855.22
2009/04/23 07:04:03.5      84    -56     19    102    104 123.7  10.6  33966  286.30 0855.22
2009/04/23 07:04:03.6      22    -47     49     53     72 154.6  47.9  33972  286.41 0855.22
2009/04/23 07:04:03.7      44    -14     57     47     73 108.2  56.3  33970  286.35 0855.22
2009/04/23 07:04:03.8      57    -15     64     60     87 105.1  51.2  33968  286.32 0855.22
2009/04/23 07:04:03.9      40    -63     35     75     82 147.5  26.6  33968  286.32 0855.22
2009/04/23 07:04:04.0      43    -74     28     86     91 149.7  17.9  33968  286.34 0855.22
2009/04/23 07:04:04.1      76    -73     48    106    116 134.0  26.6  33952  286.07 0855.22
2009/04/23 07:04:04.2      82    -72     72    110    131 131.3  36.0  33948  286.00 0855.22
2009/04/23 07:04:04.3      64    -73     82     98    127 138.6  43.8  33948  285.98 0855.22
2009/04/23 07:04:04.4      72    -72     84    102    132 134.9  43.8  33944  285.92 0855.22
2009/04/23 07:04:04.5      38    -75     77     85    114 153.3  47.5  33942  285.90 0855.22
2009/04/23 07:04:04.6      47    -69     65     84    106 145.7  41.7  33948  285.98 0855.22
2009/04/23 07:04:04.7      64    -46     73     79    107 125.9  47.9  33948  285.98 0855.22
2009/04/23 07:04:04.8      75    -37     75     84    112 116.2  46.9  33948  285.98 0855.22
2009/04/23 07:04:04.9      37    -44     63     58     85 140.3  52.2  33952  286.05 0855.22
2009/04/23 07:04:05.0      56      4     82     57     99  85.7  61.5  33952  286.05 0855.22
2009/04/23 07:04:05.1      36    -39     55     54     77 137.7  49.1  33948  286.00 0855.22
2009/04/23 07:04:05.2       0    -81     76     82    111 179.5  47.9  33946  285.97 0855.22
2009/04/23 07:04:05.3       7    -67     75     68    101 173.8  52.7  33952  286.07 0855.22
2009/04/23 07:04:05.4       2    -92     77     93    120 178.2  43.8  33948  286.00 0855.22
2009/04/23 07:04:05.5      10    -82     51     83     97 172.9  35.5  33948  286.00 0855.22
2009/04/23 07:04:05.6      19    -87     63     90    109 167.5  38.6  33950  286.02 0855.22
2009/04/23 07:04:05.7     -18    -88     92     90    128 191.6  50.1  33952  286.07 0855.22
2009/04/23 07:04:05.8     -14   -119    108    120    161 187.1  46.9  33956  286.12 0855.22
2009/04/23 07:04:05.9       6   -113     80    114    139 176.9  39.1  33956  286.14 0855.22
2009/04/23 07:04:06.0      -5    -83     74     84    111 184.0  46.4  33958  286.17 0855.22
2009/04/23 07:04:06.1     -11    -85     29     86     91 187.6  18.9  33960  286.19 0855.22
2009/04/23 07:04:06.2       9    -93      4     94     95 174.2   2.9  33960  286.19 0855.22
2009/04/23 07:04:06.3       1    -88     13     89     91 179.1   8.5  33962  286.22 0855.22
2009/04/23 07:04:06.4     -25    -88     39     92     99 196.0  24.1  33962  286.22 0855.22
2009/04/23 07:04:06.5     -29   -110     94    114    147 195.2  43.8  33954  286.10 0855.22
2009/04/23 07:04:06.6     -33    -61     98     70    120 209.0  60.6  33958  286.15 0855.22
2009/04/23 07:04:06.7     -53    -56     67     78    102 223.3  45.4  33962  286.24 0855.22
2009/04/23 07:04:06.8     -54    -38     46     67     81 234.9  38.0  33958  286.17 0855.22
2009/04/23 07:04:06.9      -9    -30     31     32     44 196.9  51.1  33960  286.19 0855.22
2009/04/23 07:04:07.0      26     -8     46     28     53 108.6  64.7  33958  286.17 0855.22
2009/04/23 07:04:07.1      23    -19     44     31     53 129.5  61.5  33956  286.14 0855.22
2009/04/23 07:04:07.2      26     -8     46     28     53 108.6  64.7  33958  286.17 0855.22
2009/04/23 07:04:07.3      19     -4     40     20     44 103.3  70.8  33956  286.12 0855.22
2009/04/23 07:04:07.4      18    -13     45     23     50 126.0  70.8  33952  286.05 0855.22
2009/04/23 07:04:07.5      12     15     46     20     50  39.6  74.0  33948  286.00 0855.22
2009/04/23 07:04:07.6       4      0     56      5     56  90.0  90.0  33954  286.10 0855.22
2009/04/23 07:04:07.7      -6     -6     43      9     43 225.0  88.0  33954  286.10 0855.22
2009/04/23 07:04:07.8     -21    -25     26     33     42 219.7  42.7  33956  286.12 0855.22
2009/04/23 07:04:07.9      -9    -27      9     29     31 198.7  17.3  33956  286.12 0855.22
2009/04/23 07:04:08.0     -29    -64     -9     71     72 204.5  -7.2  33954  286.10 0855.22
2009/04/23 07:04:08.1      27    -37     27     47     54 143.9  33.5  33952  286.07 0855.22
2009/04/23 07:04:08.2      43    -26     45     51     68 120.7  47.9  33956  286.12 0855.22
2009/04/23 07:04:08.3      12    -31     40     34     52 158.2  55.4  33954  286.08 0855.22
2009/04/23 07:04:08.4      -8    -14     44     17     47 209.0  79.2  33950  286.03 0855.22
2009/04/23 07:04:08.5     -32     20     33     38     50 302.4  44.8  33956  286.12 0855.22
2009/04/23 07:04:08.6     -18     34     53     39     65 331.0  60.5  33946  285.97 0855.22
2009/04/23 07:04:08.7      -3     62     30     63     69 356.4  27.2  33944  285.92 0855.22
2009/04/23 07:04:08.8     -21     54     24     59     63 338.2  23.0  33946  285.95 0855.22
2009/04/23 07:04:08.9     -37     59     -2     70     71 327.5  -2.2  33942  285.90 0855.22
2009/04/23 07:04:09.0     -24     73    -24     78     81 341.5 -22.3  33942  285.90 0855.22
2009/04/23 07:04:09.1     -18     56    -34     60     68 341.7 -36.8  33940  285.87 0855.22
2009/04/23 07:04:09.2     -12     64    -65     66     92 349.3 -54.9  33944  285.93 0855.22
2009/04/23 07:04:09.3     -35     68    -72     77    105 332.8 -52.4  33948  286.00 0855.22
2009/04/23 07:04:09.4     -46     34    -60     58     83 306.9 -54.5  33944  285.93 0855.22
2009/04/23 07:04:09.5     -41     19    -55     46     71 295.3 -60.7  33942  285.90 0855.22
2009/04/23 07:04:09.6     -41     19    -55     46     71 295.3 -60.7  33942  285.90 0855.22
2009/04/23 07:04:09.7     -48     21    -87     53    101 293.5 -70.1  33946  285.97 0855.22
2009/04/23 07:04:09.8     -41      9    -61     43     74 282.4 -65.9  33946  285.97 0855.22
2009/04/23 07:04:09.9      12     13    -57     18     59  43.4 -86.2  33940  285.87 0855.22
2009/04/23 07:04:10.0      31     41    -42     52     66  37.8 -48.1  33946  285.95 0855.22
2009/04/23 07:04:10.1      14     31    -32     35     47  25.3 -52.3  33948  286.00 0855.22
2009/04/23 07:04:10.2     -13      8    -34     16     37 302.4 -77.3  33954  286.10 0855.22
2009/04/23 07:04:10.3     -11      8    -20     14     24 306.0 -64.9  33954  286.10 0855.22
2009/04/23 07:04:10.4     -21    -10      0     24     25 242.9  -2.2  33952  286.07 0855.22
2009/04/23 07:04:10.5     -43      3     10     44     46 275.2  13.2  33952  286.07 0855.22
2009/04/23 07:04:10.6     -57    -15     15     60     62 254.9  14.3  33948  286.00 0855.22
2009/04/23 07:04:10.7     -78    -27     46     83     94 250.5  31.9  33944  285.93 0855.22
2009/04/23 07:04:10.8     -78    -17     44     81     92 257.2  30.8  33944  285.92 0855.22
2009/04/23 07:04:10.9     -73    -14     29     75     80 258.5  22.5  33946  285.95 0855.21
2009/04/23 07:04:11.0     -78    -65     47    102    112 230.0  26.6  33942  285.88 0855.21
2009/04/23 07:04:11.1    -129    -82     50    154    163 237.5  18.1  33950  286.02 0855.21
2009/04/23 07:04:11.2    -156    -84     21    178    180 241.6   6.9  33946  285.95 0855.21
2009/04/23 07:04:11.3    -144    -63      6    158    159 246.5   2.3  33942  285.88 0855.21
2009/04/23 07:04:11.4    -116    -52     -5    128    129 245.6  -2.6  33932  285.73 0855.21
2009/04/23 07:04:11.5     -97    -78    -18    125    127 230.9  -8.2  33926  285.63 0855.21
2009/04/23 07:04:11.6    -103   -125    -19    163    165 219.6  -6.7  33924  285.58 0855.21
2009/04/23 07:04:11.7     -69   -109     37    130    136 212.5  15.8  33924  285.58 0855.21
2009/04/23 07:04:11.8     -67   -101     38    122    128 213.8  17.3  33924  285.58 0855.21
2009/04/23 07:04:11.9     -70   -138     40    155    161 207.1  14.5  33926  285.63 0855.22
2009/04/23 07:04:12.0     -36   -184     10    188    189 191.3   3.3  33934  285.75 0855.22
2009/04/23 07:04:12.1     -41   -183      6    188    189 192.9   2.1  33930  285.70 0855.22
2009/04/23 07:04:12.2     -14   -160    -15    161    162 185.3  -5.4  33934  285.76 0855.22
2009/04/23 07:04:12.3     -56   -165      8    175    176 198.7   2.9  33934  285.76 0855.22
2009/04/23 07:04:12.4     -19   -162     -5    164    165 186.9  -1.8  33932  285.73 0855.22
2009/04/23 07:04:12.5     -38   -155      0    160    161 193.8   0.0  33928  285.65 0855.22
2009/04/23 07:04:12.6     -18   -144     28    146    149 187.1  11.1  33930  285.68 0855.22
2009/04/23 07:04:12.7     -16   -119     -4    121    122 188.0  -2.2  33930  285.68 0855.22
2009/04/23 07:04:12.8     -37   -121     22    127    130 197.0  10.1  33926  285.61 0855.22
2009/04/23 07:04:12.9     -45   -150     34    157    161 196.9  12.4  33924  285.60 0855.22
2009/04/23 07:04:13.0     -59   -125     18    139    141 205.4   7.5  33926  285.61 0855.22
2009/04/23 07:04:13.1     -51   -111     44    123    130 204.5  20.0  33926  285.61 0855.22
2009/04/23 07:04:13.2     -56   -128     53    140    149 203.6  21.0  33922  285.55 0855.22
2009/04/23 07:04:13.3     -51   -125     42    136    143 202.3  17.3  33926  285.63 0855.22
2009/04/23 07:04:13.4     -46   -133     -3    141    142 199.2  -1.3  33928  285.65 0855.22
2009/04/23 07:04:13.5     -26   -148    -12    151    152 190.2  -4.6  33920  285.53 0855.22
2009/04/23 07:04:13.6     -38   -114     -8    121    122 198.3  -4.1  33922  285.55 0855.22
2009/04/23 07:04:13.7     -41   -122     31    129    133 198.7  13.7  33920  285.53 0855.22
2009/04/23 07:04:13.8      -7   -123     14    124    125 183.6   6.5  33922  285.56 0855.22
2009/04/23 07:04:13.9     -21   -119     42    121    129 190.2  19.4  33924  285.58 0855.22
2009/04/23 07:04:14.0     -17   -122     20    124    126 188.1   9.5  33922  285.56 0855.22
2009/04/23 07:04:14.1     -20   -118     43    120    127 189.8  20.0  33922  285.55 0855.22
2009/04/23 07:04:14.2      -9   -144     21    145    147 183.6   8.5  33920  285.53 0855.22
2009/04/23 07:04:14.3     -58   -123      0    137    138 205.5  -0.3  33918  285.50 0855.22
2009/04/23 07:04:14.4     -65   -105     24    124    127 211.6  11.0  33916  285.46 0855.22
2009/04/23 07:04:14.5     -71   -101    -27    124    127 215.2 -12.4  33916  285.46 0855.22
2009/04/23 07:04:14.6     -62    -58    -15     86     88 226.9 -10.3  33918  285.50 0855.22
2009/04/23 07:04:14.7     -61    -92      0    111    112 213.4   0.2  33920  285.53 0855.22
2009/04/23 07:04:14.8     -40    -77     31     88     94 207.6  19.4  33918  285.50 0855.22
2009/04/23 07:04:14.9     -37    -76     16     85     87 205.9  11.1  33920  285.53 0855.22
2009/04/23 07:04:15.0     -24    -71     44     75     86 198.7  33.5  33922  285.56 0855.22
2009/04/23 07:04:15.1     -27    -81     38     86     94 198.3  25.1  33922  285.56 0855.22
2009/04/23 07:04:15.2     -30    -87     35     93     99 199.2  21.5  33922  285.56 0855.22
2009/04/23 07:04:15.3      -7    -77     44     78     89 185.3  32.4  33922  285.55 0855.22
2009/04/23 07:04:15.4       0    -62     52     63     81 180.9  43.7  33922  285.56 0855.22
2009/04/23 07:04:15.5     -24    -92     41     96    104 195.1  23.6  33922  285.56 0855.22
2009/04/23 07:04:15.6     -10    -86     30     87     93 187.1  19.4  33924  285.58 0855.22
2009/04/23 07:04:15.7      -5   -107     21    108    111 182.7  11.0  33924  285.60 0855.22
2009/04/23 07:04:15.8     -35   -106     26    112    116 198.7  13.2  33920  285.53 0855.22
2009/04/23 07:04:15.9     -10   -103     28    104    108 185.8  15.3  33926  285.61 0855.22
2009/04/23 07:04:16.0      -3    -96     37     97    103 182.2  21.5  33924  285.58 0855.22
2009/04/23 07:04:16.1      -1    -86     52     87    101 180.9  33.5  33924  285.60 0855.22
2009/04/23 07:04:16.2       1    -65     60     66     89 179.0  47.5  33924  285.60 0855.22
2009/04/23 07:04:16.3      18    -63     64     66     91 164.0  50.0  33926  285.63 0855.22
2009/04/23 07:04:16.4      38    -96     64    104    122 158.2  34.4  33924  285.60 0855.22
2009/04/23 07:04:16.5      30   -115     62    119    134 165.3  29.3  33922  285.56 0855.22
2009/04/23 07:04:16.6      36   -127     62    133    146 164.0  27.1  33922  285.56 0855.22
2009/04/23 07:04:16.7       9   -118     55    119    131 175.6  27.1  33920  285.53 0855.22
2009/04/23 07:04:16.8      34   -101     47    107    116 161.3  25.1  33920  285.53 0855.22
2009/04/23 07:04:16.9      60    -96     69    114    133 147.9  34.4  33924  285.60 0855.22
2009/04/23 07:04:17.0      59   -123    107    137    173 154.1  42.2  33916  285.44 0855.22
2009/04/23 07:04:17.1      72   -125     69    145    160 150.1  27.2  33914  285.41 0855.22
2009/04/23 07:04:17.2      51   -159     82    167    186 162.2  27.8  33910  285.34 0855.22
2009/04/23 07:04:17.3      15   -130     93    131    160 173.3  39.1  33914  285.41 0855.22
2009/04/23 07:04:17.4      70   -106    101    128    163 146.6  42.4  33912  285.38 0855.22
2009/04/23 07:04:17.5      12   -125     73    126    145 174.2  32.9  33912  285.38 0855.22
2009/04/23 07:04:17.6       8   -132     68    133    149 176.4  29.2  33912  285.38 0855.22
2009/04/23 07:04:17.7      -3   -129     69    130    147 181.4  29.8  33908  285.33 0855.22
2009/04/23 07:04:17.8      -5   -121     66    122    138 182.7  31.3  33910  285.34 0855.22
2009/04/23 07:04:17.9      65    -49     88     82    120 126.9  52.2  33912  285.39 0855.23
2009/04/23 07:04:18.0     102    -38     81    109    135 110.4  40.1  33914  285.41 0855.23
2009/04/23 07:04:18.1      82    -61     77    103    128 126.4  40.7  33914  285.43 0855.23
2009/04/23 07:04:18.2      83    -53     83     99    129 122.5  43.8  33912  285.39 0855.23
2009/04/23 07:04:18.3      59    -42     82     73    109 126.0  53.7  33914  285.41 0855.23
2009/04/23 07:04:18.4      54    -54     73     77    106 135.0  48.5  33914  285.41 0855.23
2009/04/23 07:04:18.5      33    -81     60     88    106 157.7  37.6  33914  285.41 0855.23
2009/04/23 07:04:18.6      45    -81     36     93     99 151.0  22.0  33910  285.36 0855.23
2009/04/23 07:04:18.7       3    -74     71     75    103 177.3  48.5  33914  285.43 0855.23
2009/04/23 07:04:18.8      -7   -113     46    114    122 184.0  23.0  33914  285.43 0855.23
2009/04/23 07:04:18.9      -9    -98     55     99    113 185.8  31.4  33914  285.41 0855.23
2009/04/23 07:04:19.0     -26    -83     31     88     94 197.4  19.4  33910  285.36 0855.23
2009/04/23 07:04:19.1     -33    -74     10     82     83 204.1   7.5  33910  285.34 0855.23
2009/04/23 07:04:19.2     -34    -51      8     62     63 213.4   8.0  33910  285.36 0855.23
2009/04/23 07:04:19.3     -29    -32      2     44     45 221.4   2.9  33910  285.34 0855.23
2009/04/23 07:04:19.4      -2    -37      6     38     39 184.5  10.1  33912  285.39 0855.23
2009/04/23 07:04:19.6       0    -13     12     14     18 182.7  52.0  33912  285.39 0855.23
2009/04/23 07:04:19.7      -6    -18     40     20     44 200.0  70.8  33916  285.44 0855.23
2009/04/23 07:04:19.8      -4      7     42      9     42 327.5  89.0  33918  285.48 0855.23
2009/04/23 07:04:19.9      -2     18     37     19     41 352.0  70.8  33920  285.53 0855.23
2009/04/23 07:04:20.0     -18      0     36     19     40 270.0  69.8  33920  285.53 0855.22
2009/04/23 07:04:20.1     -14    -38     21     41     46 200.9  29.3  33916  285.46 0855.22
2009/04/23 07:04:20.2     -20    -34     20     40     44 210.7  29.3  33914  285.41 0855.22
2009/04/23 07:04:20.3     -13    -47     27     49     55 196.0  32.4  33916  285.44 0855.22
2009/04/23 07:04:20.4     -10    -37     44     39     58 195.1  53.3  33916  285.46 0855.22
2009/04/23 07:04:20.5     -21    -43     45     49     66 206.3  47.9  33916  285.46 0855.22
2009/04/23 07:04:20.6     -24    -15     44     29     52 237.5  64.6  33916  285.44 0855.22
2009/04/23 07:04:20.7     -21    -11     32     24     40 241.1  59.4  33918  285.48 0855.22
2009/04/23 07:04:20.8     -33    -14     35     36     50 246.5  51.1  33916  285.44 0855.22
2009/04/23 07:04:20.9     -24    -15     31     29     42 237.6  51.2  33916  285.46 0855.22
2009/04/23 07:04:21.0     -21    -11     20     24     31 241.1  43.8  33914  285.41 0855.22
2009/04/23 07:04:21.1     -16    -10     24     20     31 237.6  56.3  33914  285.43 0855.22
2009/04/23 07:04:21.2     -21    -10     33     24     40 242.9  60.5  33914  285.43 0855.22
2009/04/23 07:04:21.3     -29    -17     11     34     36 239.3  18.9  33912  285.39 0855.22
2009/04/23 07:04:21.4     -24     -9     20     26     32 248.3  43.7  33912  285.39 0855.22
2009/04/23 07:04:21.5     -25      1     24     26     35 274.3  50.0  33914  285.41 0855.22
2009/04/23 07:04:21.6     -10     -1     29     11     31 262.1  79.2  33910  285.36 0855.22
2009/04/23 07:04:21.7     -15      1     30     16     34 274.4  70.8  33908  285.33 0855.22
2009/04/23 07:04:21.8      -9     -5     24     11     26 237.6  75.0  33910  285.36 0855.22
2009/04/23 07:04:21.9     -12    -14      5     19     20 219.6  17.3  33910  285.36 0855.22
2009/04/23 07:04:22.0     -15    -21      1     27     28 216.1   2.9  33910  285.34 0855.22
2009/04/23 07:04:22.1     -10    -18     -5     21     22 210.7 -13.4  33910  285.34 0855.22
2009/04/23 07:04:22.2     -12    -14     -6     19     19 221.4 -23.8  33910  285.36 0855.22
2009/04/23 07:04:22.3     -17    -22      1     28     29 217.8   2.8  33910  285.36 0855.22
2009/04/23 07:04:22.4      -8    -25     -3     27     28 198.3  -7.3  33910  285.34 0855.22
2009/04/23 07:04:22.5      -9    -29      3     31     32 198.3   6.9  33910  285.34 0855.22
2009/04/23 07:04:22.6     -22    -27     10     36     38 219.6  15.3  33910  285.36 0855.22
2009/04/23 07:04:22.7     -22      0     11     23     25 270.0  27.2  33910  285.36 0855.22
2009/04/23 07:04:22.8     -26      8      5     28     29 288.6  11.1  33910  285.36 0855.22
2009/04/23 07:04:22.9     -14     12     -3     19     20 309.5  -9.3  33912  285.39 0855.22
2009/04/23 07:04:23.0      -3      0      2      4      4 270.0  35.5  33912  285.38 0855.22
2009/04/23 07:04:23.1      -2      3      4      4      5 327.5  50.1  33910  285.34 0855.22
2009/04/23 07:04:23.2       2      3      9      4      9  32.5  81.2  33910  285.34 0855.22
2009/04/23 07:04:23.3      -5     -4     13      7     14 230.5  64.7  33910  285.34 0855.22
2009/04/23 07:04:23.4      -2      0     16      3     16 270.0  90.0  33910  285.36 0855.22
2009/04/23 07:04:23.5       0      0     20      0     20   0.0 -90.0  33908  285.31 0855.22
2009/04/23 07:04:23.6       3     -3     23      5     23 133.3  86.9  33908  285.33 0855.22
2009/04/23 07:04:23.7       9      0     34     10     35  90.0  80.7  33912  285.38 0855.22
2009/04/23 07:04:23.8       1     -6     32      7     32 168.4  89.0  33912  285.38 0855.22
2009/04/23 07:04:23.9      -1     -6     33      7     33 189.7  89.0  33910  285.36 0855.22
2009/04/23 07:04:24.0      -1     -8     30      9     31 189.7  82.8  33912  285.39 0855.22
2009/04/23 07:04:24.1      -1    -17     24     18     30 184.5  58.5  33910  285.36 0855.22
2009/04/23 07:04:24.2       0    -21     33     22     39 180.9  63.6  33910  285.36 0855.22
2009/04/23 07:04:24.3     -15    -17     38     23     44 221.4  66.8  33912  285.38 0855.22
2009/04/23 07:04:24.4      -6    -10     33     13     35 212.5  79.2  33916  285.44 0855.22
2009/04/23 07:04:24.5      -1    -18     38     19     42 184.5  71.9  33914  285.41 0855.22
2009/04/23 07:04:24.6      -1    -14     41     15     43 184.5  80.2  33912  285.38 0855.22
2009/04/23 07:04:24.7     -18    -30     28     36     45 210.7  41.7  33908  285.31 0855.22
2009/04/23 07:04:24.8     -21    -32     24     39     45 214.3  35.5  33912  285.38 0855.22
2009/04/23 07:04:24.9     -17    -22     28     28     39 217.8  50.1  33912  285.38 0855.22
2009/04/23 07:04:25.0      -8    -22     24     24     33 200.0  50.1  33910  285.36 0855.22
2009/04/23 07:04:25.1      -8    -29     25     31     39 195.1  43.7  33910  285.36 0855.22
2009/04/23 07:04:25.2      -7    -26     26     27     37 195.1  52.0  33910  285.34 0855.22
2009/04/23 07:04:25.3      -3    -31     29     32     43 186.2  47.9  33910  285.36 0855.22
2009/04/23 07:04:25.4      -5    -17     32     18     36 198.7  66.8  33910  285.36 0855.22
2009/04/23 07:04:25.5      -6    -13     30     15     33 205.4  72.9  33912  285.38 0855.22
2009/04/23 07:04:25.6       7     -6     28     10     29 133.1  81.2  33910  285.36 0855.22
2009/04/23 07:04:25.7       3      3     27      5     27  45.0  90.0  33914  285.43 0855.22
2009/04/23 07:04:25.8       0      0     19      0     19   0.0 -90.0  33916  285.46 0855.22
2009/04/23 07:04:25.9       0     -2     10      3     10 198.5  84.9  33918  285.48 0855.22
2009/04/23 07:04:26.0      -2      0      8      3      8 270.0  81.0  33916  285.44 0855.22
2009/04/23 07:04:26.1      -6      2      0      7      8 288.6   2.9  33912  285.39 0855.22
2009/04/23 07:04:26.2      -2      2     -1      4      5 315.0 -15.5  33914  285.41 0855.22
2009/04/23 07:04:26.3      -2      3     -2      4      4 327.5 -39.9  33914  285.43 0855.22
2009/04/23 07:04:26.4       2      7     -8      8     11  18.5 -54.5  33912  285.39 0855.22
2009/04/23 07:04:26.5       2      7     -8      8     11  18.5 -54.5  33912  285.39 0855.22
2009/04/23 07:04:26.6      12     14     -7     19     21  39.6 -19.7  33910  285.36 0855.22
2009/04/23 07:04:26.7      26     22    -19     35     39  50.4 -35.8  33912  285.38 0855.22
2009/04/23 07:04:26.8      33     21    -14     40     43  56.7 -19.7  33910  285.36 0855.22
2009/04/23 07:04:26.9      24     22     -9     33     35  46.9 -15.5  33910  285.36 0855.22
2009/04/23 07:04:27.0      28     35     -1     45     46  38.7  -1.3  33910  285.36 0855.22
2009/04/23 07:04:27.1      21     39      7     45     46  29.0   9.0  33912  285.39 0855.22
2009/04/23 07:04:27.2      10     45     16     47     50  13.4  18.9  33910  285.34 0855.22
2009/04/23 07:04:27.3      13     39     26     42     49  18.5  35.5  33912  285.39 0855.22
2009/04/23 07:04:27.4       8     22     29     24     37  20.0  56.3  33910  285.36 0855.22
2009/04/23 07:04:27.5       2      7     30      8     31  18.5  84.9  33912  285.39 0855.22
2009/04/23 07:04:27.7      13      0     27     14     30  90.0  70.8  33914  285.43 0855.22
2009/04/23 07:04:27.8      -1     11     24     12     26 352.0  70.8  33916  285.46 0855.22
2009/04/23 07:04:27.9       0     11     17     12     20 355.5  60.5  33912  285.39 0855.22
2009/04/23 07:04:28.0      -6     11     26     13     29 331.0  72.9  33916  285.44 0855.23
2009/04/23 07:04:28.1      -9      9     30     14     33 315.0  73.1  33916  285.46 0855.23
2009/04/23 07:04:28.2     -11     10     34     16     37 313.3  72.9  33912  285.39 0855.23
2009/04/23 07:04:28.3      -6     31     30     32     43 348.4  50.0  33912  285.38 0855.23
2009/04/23 07:04:28.4     -17     38     16     42     44 335.5  21.0  33910  285.36 0855.23
2009/04/23 07:04:28.5     -26     56     -9     62     63 334.6  -8.2  33910  285.36 0855.23
2009/04/23 07:04:28.6     -45     63    -13     78     80 324.0  -9.8  33908  285.31 0855.23
2009/04/23 07:04:28.7     -32     82    -18     89     91 338.6 -11.9  33906  285.29 0855.23
2009/04/23 07:04:28.8     -42     88    -27     98    102 334.6 -15.5  33908  285.31 0855.23
2009/04/23 07:04:28.9     -51     84    -32     99    105 328.8 -18.1  33904  285.24 0855.23
2009/04/23 07:04:29.0     -45     79    -30     92     96 330.1 -23.8  33904  285.24 0855.23
2009/04/23 07:04:29.1       0    101    -40    102    109 359.6 -26.9  33904  285.24 0855.23
2009/04/23 07:04:29.2      50     55     22     75     79  42.3  16.3  33902  285.23 0855.23
2009/04/23 07:04:29.3      77     23     48     81     94  73.2  34.0  33904  285.24 0855.23
2009/04/23 07:04:29.4      50     -9     85     51     99 100.6  66.2  33904  285.24 0855.23
2009/04/23 07:04:29.5     -74    -42     66     86    108 240.2  41.7  33908  285.33 0855.23
2009/04/23 07:04:29.6     -76     31     72     83    109 292.6  44.8  33902  285.23 0855.23
2009/04/23 07:04:29.7    -115     78      7    140    141 304.1   2.9  33908  285.31 0855.23
2009/04/23 07:04:29.8    -135     85      1    160    161 302.2   0.5  33910  285.36 0855.23
2009/04/23 07:04:29.9    -157     85    -22    179    181 298.4  -7.2  33918  285.48 0855.23
2009/04/23 07:04:30.0    -141    103    -20    176    178 306.2  -6.7  33918  285.48 0855.23
2009/04/23 07:04:30.1    -135     70    -19    153    155 297.5  -7.2  33914  285.43 0855.23
2009/04/23 07:04:30.2    -126     58    -42    139    146 294.8 -17.0  33916  285.44 0855.23
2009/04/23 07:04:30.3    -132     47    -28    141    144 289.9 -11.5  33916  285.44 0855.23
2009/04/23 07:04:30.4    -151     33    -54    155    165 282.6 -19.4  33918  285.48 0855.23
2009/04/23 07:04:30.5    -151     -6    -44    152    159 267.4 -16.4  33912  285.39 0855.23
2009/04/23 07:04:30.6    -163     -3    -49    164    172 268.7 -16.8  33910  285.34 0855.23
2009/04/23 07:04:30.7    -172     11    -72    173    187 273.9 -28.2  33904  285.26 0855.23
2009/04/23 07:04:30.8    -146     12    -59    147    158 274.8 -27.4  33904  285.24 0855.23
2009/04/23 07:04:30.9    -180     49    -66    187    198 285.3 -24.6  33906  285.28 0855.23
2009/04/23 07:04:31.0    -196     47    -56    202    210 283.5 -15.5  33910  285.34 0855.23
2009/04/23 07:04:31.1    -147     29    -40    150    156 281.5 -15.2  33912  285.38 0855.23
2009/04/23 07:04:31.2     -96     27    -29    100    104 285.9 -21.2  33910  285.34 0855.23
2009/04/23 07:04:31.3     -77     15      1     79     80 281.4   0.8  33906  285.28 0855.23
2009/04/23 07:04:31.4    -114     20     40    116    123 280.1  19.4  33904  285.24 0855.23
2009/04/23 07:04:31.5     -92     22     71     95    118 283.7  40.7  33906  285.29 0855.23
2009/04/23 07:04:31.6     -92     -7     57     93    109 265.6  35.0  33906  285.29 0855.23
2009/04/23 07:04:31.7     -80      6     55     81     97 274.3  37.0  33906  285.29 0855.23
2009/04/23 07:04:31.8     -68      7     73     69    100 276.1  52.1  33904  285.26 0855.23
2009/04/23 07:04:31.9     -54     -4     65     55     85 264.8  55.4  33904  285.26 0855.23
2009/04/23 07:04:32.0     -16     -2     58     17     60 262.1  84.8  33906  285.28 0855.24
2009/04/23 07:04:32.1     -27      9     53     29     60 288.6  68.8  33906  285.28 0855.24
2009/04/23 07:04:32.2     -26      0     41     27     49 270.0  63.6  33906  285.28 0855.24
2009/04/23 07:04:32.3     -24     -2     36     25     43 263.9  61.5  33904  285.24 0855.24
2009/04/23 07:04:32.4     -24     -2     36     25     43 263.9  61.5  33904  285.24 0855.24
2009/04/23 07:04:32.5     -26      0     34     27     43 270.8  57.5  33902  285.21 0855.24
2009/04/23 07:04:32.6     -39      3     35     40     53 274.4  45.8  33900  285.19 0855.24
2009/04/23 07:04:32.7     -45      0     35     46     57 270.0  41.7  33902  285.23 0855.24
2009/04/23 07:04:32.8     -54      0     32     55     63 269.2  32.4  33904  285.24 0855.24
2009/04/23 07:04:32.9     -41    -20     22     46     51 243.8  27.2  33904  285.24 0855.24
2009/04/23 07:04:33.0     -38    -13     22     41     46 251.4  30.3  33904  285.24 0855.24
2009/04/23 07:04:33.1     -29      5     24     30     38 279.7  43.7  33904  285.24 0855.24
2009/04/23 07:04:33.2     -32     -2     14     33     35 265.7  23.0  33902  285.23 0855.24
2009/04/23 07:04:33.3     -31      0     15     32     35 270.0  27.2  33902  285.21 0855.24
2009/04/23 07:04:33.4     -26     -1      4     27     28 267.4   9.0  33904  285.24 0855.24
2009/04/23 07:04:33.5     -26     -8     -1     28     29 251.4  -2.2  33906  285.28 0855.24
2009/04/23 07:04:33.6     -16    -21     -3     27     28 217.8  -7.3  33906  285.29 0855.24
2009/04/23 07:04:33.7     -17    -14    -10     23     25 230.5 -27.4  33908  285.31 0855.24
2009/04/23 07:04:33.8     -10    -18     -5     21     22 210.7 -13.4  33910  285.34 0855.24
2009/04/23 07:04:33.9     -17     -7    -10     19     21 248.3 -33.7  33910  285.36 0855.24
2009/04/23 07:04:34.0      -7     -7      3     10     11 225.0  19.2  33910  285.34 0855.24
2009/04/23 07:04:34.1       3     -7     11      8     13 154.6  60.5  33908  285.33 0855.24
2009/04/23 07:04:34.2      13    -13      7     19     20 136.6  21.0  33910  285.36 0855.24
2009/04/23 07:04:34.3      29     -5     10     30     32 101.4  19.2  33908  285.31 0855.24
2009/04/23 07:04:34.4      24     -1     10     25     26  94.4  21.0  33908  285.31 0855.24
2009/04/23 07:04:34.5      21      0      7     22     24  90.0  19.2  33906  285.29 0855.24
2009/04/23 07:04:34.6      17      0     11     18     21  90.0  33.5  33908  285.33 0855.24
2009/04/23 07:04:34.7      13      5     14     15     20  68.3  47.9  33906  285.29 0855.24
2009/04/23 07:04:34.8       5     10     13     12     17  29.0  48.2  33906  285.29 0855.24
2009/04/23 07:04:34.9      11      7     13     14     19  57.6  52.0  33906  285.29 0855.24
2009/04/23 07:04:35.0       5     10     13     12     17  29.0  48.2  33906  285.29 0855.25
2009/04/23 07:04:35.1      13     13     13     19     23  46.7  39.7  33906  285.29 0855.25
2009/04/23 07:04:35.2       9      9     17     14     22  45.0  56.4  33910  285.34 0855.25
2009/04/23 07:04:35.3       9     11     16     15     21  39.6  50.1  33908  285.33 0855.25
2009/04/23 07:04:35.4       8     13     15     16     21  32.5  50.0  33908  285.31 0855.25
2009/04/23 07:04:35.5       6     18     13     19     23  18.5  39.7  33910  285.34 0855.25
2009/04/23 07:04:35.6      11     11     19     16     24  45.0  54.3  33910  285.36 0855.25
2009/04/23 07:04:35.7      14      1     22     15     26  85.6  64.6  33908  285.33 0855.25
2009/04/23 07:04:35.8      13      4     21     14     25  71.4  64.6  33910  285.34 0855.25
2009/04/23 07:04:35.9       4     -5     17      7     18 140.4  81.2  33912  285.39 0855.25
2009/04/23 07:04:36.0       0    -13     12     14     18 182.7  52.0  33912  285.39 0855.25
2009/04/23 07:04:36.1       2    -13     10     14     17 168.4  39.7  33912  285.38 0855.25
2009/04/23 07:04:36.2      -4    -13     15     14     20 198.7  52.2  33910  285.36 0855.25
2009/04/23 07:04:36.3       0    -21     19     22     29 180.9  47.9  33910  285.36 0855.25
2009/04/23 07:04:36.5     -11    -35     22     37     43 198.7  33.5  33910  285.34 0855.25
2009/04/23 07:04:36.6     -18    -24     27     31     41 217.8  45.8  33910  285.36 0855.25
2009/04/23 07:04:36.7     -25    -24     22     35     41 226.7  35.5  33908  285.33 0855.25
2009/04/23 07:04:36.8     -29    -29     14     42     45 225.1  19.2  33910  285.36 0855.25
2009/04/23 07:04:36.9     -21    -32     24     39     45 214.3  35.5  33912  285.38 0855.25
2009/04/23 07:04:37.0     -20    -36     26     42     49 209.9  35.5  33910  285.34 0855.24
2009/04/23 07:04:37.1     -27    -39     19     48     51 214.3  22.0  33910  285.36 0855.24
2009/04/23 07:04:37.2     -31    -35     15     48     51 221.4  17.3  33908  285.31 0855.24
2009/04/23 07:04:37.3     -39    -30      7     50     51 232.2   8.0  33910  285.36 0855.24
2009/04/23 07:04:37.4     -50    -26     -2     57     58 242.0  -2.2  33908  285.33 0855.24
2009/04/23 07:04:37.5     -55    -26     -7     61     62 244.7  -7.2  33912  285.39 0855.24
2009/04/23 07:04:37.6     -46    -22      0     52     53 244.6  -0.3  33912  285.38 0855.24
2009/04/23 07:04:37.7     -58    -18      3     61     62 252.3   2.8  33908  285.33 0855.24
2009/04/23 07:04:37.8     -68    -20      3     72     73 253.2   2.8  33908  285.33 0855.24
2009/04/23 07:04:37.9     -70    -18      3     73     74 255.0   2.8  33910  285.34 0855.24
2009/04/23 07:04:38.0     -62     -3     12     63     65 266.5  11.0  33908  285.33 0855.24
2009/04/23 07:04:38.1     -51    -16     10     54     56 252.3  11.1  33912  285.38 0855.24
2009/04/23 07:04:38.2     -48    -47      3     68     69 225.9   2.9  33916  285.46 0855.24
2009/04/23 07:04:38.3     -43    -53     -8     69     70 218.7  -7.2  33916  285.46 0855.24
2009/04/23 07:04:38.4     -42    -42     -3     60     61 225.0  -3.1  33914  285.41 0855.24
2009/04/23 07:04:38.5     -57    -45      3     73     74 231.4   2.8  33912  285.39 0855.24
2009/04/23 07:04:38.6     -78    -36     -3     87     88 245.2  -2.2  33906  285.29 0855.24
2009/04/23 07:04:38.7     -88    -43     -4     99    100 243.8  -2.6  33904  285.26 0855.24
2009/04/23 07:04:38.8     -58    -57     -8     82     83 225.6  -5.6  33908  285.31 0855.24
2009/04/23 07:04:38.9     -64    -27     -9     70     71 246.5  -7.3  33908  285.31 0855.24
2009/04/23 07:04:39.0     -68     -7     -8     69     70 263.9  -7.2  33908  285.31 0855.25
2009/04/23 07:04:39.1     -69      0     -1     70     71 270.0  -1.3  33906  285.29 0855.25
2009/04/23 07:04:39.2     -77    -14     16     79     81 259.4  11.6  33906  285.29 0855.25
2009/04/23 07:04:39.3     -85      0      5     86     87 270.0   3.8  33906  285.29 0855.25
2009/04/23 07:04:39.4     -91     -6      0     92     93 266.1  -0.3  33906  285.28 0855.25
2009/04/23 07:04:39.5     -90    -23      8     94     95 255.4   4.9  33902  285.21 0855.25
2009/04/23 07:04:39.6     -72    -10     30     73     78 262.1  23.0  33902  285.23 0855.25
2009/04/23 07:04:39.7     -76     -1      9     77     78 269.2   6.9  33902  285.21 0855.25
2009/04/23 07:04:39.8     -96     -4     -3     97     98 267.4  -2.2  33896  285.11 0855.25
2009/04/23 07:04:39.9     -95    -11     13     96     97 263.0   8.0  33896  285.11 0855.25
2009/04/23 07:04:40.0     -99      0     -7    100    101 270.0  -4.1  33904  285.24 0855.25
2009/04/23 07:04:40.1    -106     -8     -4    107    108 265.7  -2.2  33898  285.14 0855.25
2009/04/23 07:04:40.2     -96    -23     11     99    100 256.3   6.5  33900  285.18 0855.25
2009/04/23 07:04:40.3     -86     -7     20     87     90 264.8  13.2  33902  285.23 0855.25
2009/04/23 07:04:40.4     -57    -35     33     68     75 238.5  27.3  33906  285.29 0855.25
2009/04/23 07:04:40.5     -27    -37     53     47     70 216.1  53.3  33916  285.44 0855.25
2009/04/23 07:04:40.6     -57    -41     25     71     76 234.1  19.4  33904  285.24 0855.25
2009/04/23 07:04:40.7     -71    -24     -9     76     77 250.9  -7.3  33902  285.23 0855.25
2009/04/23 07:04:40.8     -64    -22     -3     68     69 250.9  -3.1  33902  285.21 0855.25
2009/04/23 07:04:40.9     -49      0    -15     50     53 270.0 -16.6  33902  285.23 0855.25
2009/04/23 07:04:41.0     -46      5    -10     47     49 277.0 -12.4  33904  285.24 0855.24
2009/04/23 07:04:41.1     -61     -3     -8     62     63 266.5  -7.3  33904  285.24 0855.24
2009/04/23 07:04:41.2     -58     -1      8     59     60 268.3   8.0  33898  285.14 0855.24
2009/04/23 07:04:41.3     -61    -16      7     64     65 254.9   6.9  33896  285.13 0855.24
2009/04/23 07:04:41.4     -56    -13     11     58     60 256.7  11.1  33894  285.09 0855.24
2009/04/23 07:04:41.5     -74    -10      3     75     76 262.1   2.9  33898  285.14 0855.24
2009/04/23 07:04:41.6     -74     -5    -15     75     77 265.7 -11.9  33898  285.16 0855.24
2009/04/23 07:04:41.7     -88    -25    -22     92     95 254.1 -13.9  33894  285.07 0855.24
2009/04/23 07:04:41.8     -96    -22    -20     99    102 256.7 -11.5  33896  285.13 0855.24
2009/04/23 07:04:41.9    -113    -18    -17    115    117 260.8  -8.8  33900  285.18 0855.24
2009/04/23 07:04:42.0    -131    -35     -9    136    137 255.0  -4.1  33898  285.16 0855.24
2009/04/23 07:04:42.1    -114    -38    -15    121    122 251.6  -7.3  33898  285.16 0855.24
2009/04/23 07:04:42.2    -111    -41     -9    119    120 249.6  -4.6  33900  285.19 0855.24
2009/04/23 07:04:42.3     -95    -51    -13    109    110 241.6  -7.2  33908  285.33 0855.24
2009/04/23 07:04:42.4     -99    -32    -13    105    106 251.8  -7.2  33908  285.33 0855.24
2009/04/23 07:04:42.5    -135      0      6    136    137 270.0   2.9  33902  285.23 0855.24
2009/04/23 07:04:42.6    -179    -30     -5    182    183 260.3  -1.8  33906  285.29 0855.24
2009/04/23 07:04:42.7    -182    -23      1    184    185 262.8   0.5  33908  285.31 0855.24
2009/04/23 07:04:42.8    -170    -11     13    171    172 266.3   4.4  33912  285.39 0855.24
2009/04/23 07:04:42.9    -169    -22     17    171    172 262.5   5.9  33912  285.38 0855.24
2009/04/23 07:04:43.0    -180    -16     35    181    185 264.8  11.1  33908  285.33 0855.24
2009/04/23 07:04:43.1    -163    -38     30    168    171 256.7  10.1  33912  285.39 0855.24
2009/04/23 07:04:43.2    -169    -32     17    173    174 259.2   5.9  33908  285.31 0855.24
2009/04/23 07:04:43.3    -135    -29    -17    139    141 257.6  -7.2  33908  285.31 0855.24
2009/04/23 07:04:43.4    -146     20    -19    148    150 278.0  -7.3  33910  285.36 0855.24
2009/04/23 07:04:43.5    -145     29    -65    148    161 281.4 -29.5  33910  285.34 0855.24
2009/04/23 07:04:43.6    -170      0    -60    171    182 270.1 -19.6  33910  285.36 0855.24
2009/04/23 07:04:43.7    -183    -49    -60    190    200 255.0 -17.6  33912  285.39 0855.24
2009/04/23 07:04:43.8    -227    -35     -9    230    231 261.2  -2.2  33918  285.48 0855.24
2009/04/23 07:04:43.9    -139   -109     43    177    183 231.8  13.7  33916  285.46 0855.24
2009/04/23 07:04:44.0    -132   -145     87    197    215 222.3  25.3  33914  285.43 0855.24
2009/04/23 07:04:44.1    -126   -104      9    164    165 230.5   3.3  33912  285.38 0855.24
2009/04/23 07:04:44.2     -93    -76     33    121    126 230.5  15.2  33908  285.33 0855.24
2009/04/23 07:04:44.3     -70    -73      7    102    103 224.1   4.4  33908  285.31 0855.24
2009/04/23 07:04:44.4     -39    -76     46     86     97 207.2  30.3  33908  285.33 0855.24
2009/04/23 07:04:44.5    -101    -73     44    125    133 234.0  19.4  33912  285.38 0855.24
2009/04/23 07:04:44.6    -113    -68     45    132    140 238.9  18.9  33914  285.43 0855.24
2009/04/23 07:04:44.7    -106    -57     35    121    127 241.6  16.3  33916  285.44 0855.24
2009/04/23 07:04:44.8    -116    -46     43    125    133 248.2  18.9  33912  285.39 0855.24
2009/04/23 07:04:44.9     -96    -48     37    108    115 243.4  18.9  33918  285.48 0855.24
2009/04/23 07:04:45.0    -100    -59     18    117    119 239.3   8.9  33916  285.46 0855.23
2009/04/23 07:04:45.1     -67    -76      9    102    103 221.4   5.4  33916  285.44 0855.23
2009/04/23 07:04:45.2     -31    -74      1     81     82 202.7   1.2  33914  285.43 0855.23
2009/04/23 07:04:45.3       8    -65     51     66     83 172.9  41.7  33916  285.46 0855.23
2009/04/23 07:04:45.4     -24    -83     59     87    105 196.5  37.0  33912  285.39 0855.23
2009/04/23 07:04:45.5     -24    -75     68     79    104 198.3  45.4  33914  285.43 0855.23
2009/04/23 07:04:45.6     -81    -59     51    101    113 233.6  28.2  33916  285.44 0855.23
2009/04/23 07:04:45.7     -43    -58     64     73     97 216.1  45.8  33914  285.43 0855.23
2009/04/23 07:04:45.8     -64    -24     65     69     94 249.2  49.0  33910  285.36 0855.23
2009/04/23 07:04:45.9     -79    -16     57     81     99 258.5  39.1  33916  285.44 0855.23
2009/04/23 07:04:46.0     -79     -8     30     80     85 263.9  21.5  33914  285.41 0855.23
2009/04/23 07:04:46.1     -75     20     33     78     84 285.0  23.6  33914  285.43 0855.23
2009/04/23 07:04:46.2     -56      4     36     57     67 274.4  35.5  33912  285.39 0855.23
2009/04/23 07:04:46.4     -67    -62      2     92     93 227.3   1.8  33910  285.36 0855.23
2009/04/23 07:04:46.5     -68    -37     25     78     83 241.1  17.9  33910  285.36 0855.23
2009/04/23 07:04:46.6     -69      0    -19     70     73 270.0 -15.5  33912  285.39 0855.23
2009/04/23 07:04:46.7     -58     37    -31     69     75 302.5 -31.5  33912  285.39 0855.23
2009/04/23 07:04:46.8     -50     34    -31     61     68 304.2 -32.6  33912  285.39 0855.23
2009/04/23 07:04:46.9     -60     24    -32     65     72 292.6 -31.7  33914  285.41 0855.23
2009/04/23 07:04:47.0     -48     15    -19     51     54 288.2 -24.4  33914  285.41 0855.23
2009/04/23 07:04:47.1     -49     13     10     51     53 285.9  11.1  33912  285.38 0855.23
2009/04/23 07:04:47.2     -57     28     15     64     66 296.2  13.2  33910  285.36 0855.23
2009/04/23 07:04:47.4     -78     14     24     80     84 280.6  17.3  33912  285.38 0855.23
2009/04/23 07:04:47.5     -80     15    -17     82     84 280.6 -11.9  33912  285.39 0855.23
2009/04/23 07:04:47.6     -56     -4    -35     57     66 265.7 -39.9  33912  285.38 0855.23
2009/04/23 07:04:47.7     -53    -43    -31     69     75 230.5 -31.5  33912  285.38 0855.23
2009/04/23 07:04:47.8     -77      0    -28     78     82 270.0 -24.8  33912  285.38 0855.23
2009/04/23 07:04:47.9     -69     34    -34     78     85 296.2 -29.5  33910  285.34 0855.23
2009/04/23 07:04:48.0     -94      8    -44     95    104 275.2 -31.0  33910  285.34 0855.23
2009/04/23 07:04:48.1    -128     13    -27    129    132 276.1 -11.9  33906  285.29 0855.23
2009/04/23 07:04:48.2    -123     29    -31    127    131 283.3 -13.9  33908  285.33 0855.23
2009/04/23 07:04:48.3    -110     29    -40    114    122 285.1 -19.6  33906  285.29 0855.23
2009/04/23 07:04:48.4    -103     49    -24    115    118 295.4 -11.9  33906  285.28 0855.23
2009/04/23 07:04:48.5    -114     81     -9    141    142 305.5  -3.7  33906  285.29 0855.23
2009/04/23 07:04:48.6    -149     48    -20    157    159 288.2  -7.3  33906  285.28 0855.23
2009/04/23 07:04:48.7    -104     43    -40    113    121 292.6 -19.7  33908  285.31 0855.23
2009/04/23 07:04:48.8    -111     28    -38    115    121 284.2 -23.8  33910  285.36 0855.23
2009/04/23 07:04:48.9    -109     -3    -51    110    121 268.3 -31.0  33914  285.41 0855.23
2009/04/23 07:04:49.0    -112      4    -38    113    120 272.1 -18.7  33908  285.33 0855.23
2009/04/23 07:04:49.1    -115      0    -20    116    118 270.0  -9.8  33908  285.33 0855.23
2009/04/23 07:04:49.2    -109     -8    -10    110    111 265.7  -5.6  33910  285.36 0855.23
2009/04/23 07:04:49.3    -113    -13    -14    114    115 263.0  -7.3  33912  285.38 0855.23
2009/04/23 07:04:49.4    -119    -16    -11    121    122 262.1  -5.2  33910  285.34 0855.23
2009/04/23 07:04:49.5    -106      3    -21    107    110 272.1 -11.3  33908  285.31 0855.23
2009/04/23 07:04:49.6     -86     31      4     92     93 290.0   2.9  33904  285.26 0855.23
2009/04/23 07:04:49.7    -105     32      1    110    111 287.3   0.8  33906  285.28 0855.23
2009/04/23 07:04:49.8     -95     25    -11     99    100 285.1  -6.7  33908  285.33 0855.23
2009/04/23 07:04:49.9    -128      9    -16    129    131 274.4  -7.3  33910  285.34 0855.23
2009/04/23 07:04:50.0    -104     32     -4    109    110 287.3  -2.2  33910  285.36 0855.23
2009/04/23 07:04:50.1     -82     16      4     84     85 281.5   2.9  33906  285.29 0855.23
2009/04/23 07:04:50.2     -21     48     13     53     55 336.4  14.3  33908  285.31 0855.23
2009/04/23 07:04:50.3      -7     27     -1     28     29 344.9  -2.2  33908  285.33 0855.23
2009/04/23 07:04:50.4       4      0    -28      5     28  90.0 -90.0  33910  285.36 0855.23
2009/04/23 07:04:50.5       8    -26    -42     28     50 161.7 -68.0  33908  285.31 0855.23
2009/04/23 07:04:50.6       0    -32     -1     33     34 180.9  -3.2  33908  285.31 0855.23
2009/04/23 07:04:50.7      -5    -81     11     82     83 184.0   8.0  33910  285.36 0855.23
2009/04/23 07:04:50.8      -1    -93     -3     94     95 180.9  -2.2  33912  285.39 0855.23
2009/04/23 07:04:50.9      -6    -95    -25     96    100 184.0 -15.0  33914  285.41 0855.23
2009/04/23 07:04:51.0     -16    -73     -9     75     76 192.5  -7.3  33916  285.44 0855.23
2009/04/23 07:04:51.1      -3    -63    -20     64     68 182.7 -17.6  33914  285.41 0855.24
2009/04/23 07:04:51.2     -20    -34    -33     40     51 210.7 -48.1  33914  285.41 0855.24
2009/04/23 07:04:51.3     -55    -23    -32     60     68 247.4 -35.7  33912  285.39 0855.24
2009/04/23 07:04:51.4     -98    -25    -45    102    111 255.4 -30.1  33914  285.43 0855.24
2009/04/23 07:04:51.5     -98    -33    -56    104    118 251.4 -35.2  33912  285.39 0855.24
2009/04/23 07:04:51.6    -113    -26    -68    117    135 256.7 -37.8  33914  285.43 0855.24
2009/04/23 07:04:51.7     -80    -39    -44     90    100 243.8 -32.2  33914  285.41 0855.24
2009/04/23 07:04:51.8     -94    -72    -47    119    127 232.7 -27.4  33914  285.43 0855.24
2009/04/23 07:04:51.9     -59    -86    -30    105    109 214.3 -20.7  33912  285.39 0855.24
2009/04/23 07:04:52.0     -52    -81    -15     97     99 212.5  -8.8  33912  285.39 0855.24
2009/04/23 07:04:52.1     -50    -69    -11     86     87 216.1  -7.7  33912  285.39 0855.24
2009/04/23 07:04:52.2     -66    -63      8     92     93 226.4   5.4  33914  285.43 0855.24
2009/04/23 07:04:52.3     -65    -72    -33     98    104 221.9 -18.7  33912  285.39 0855.24
2009/04/23 07:04:52.4     -39    -70    -25     81     84 209.0 -22.8  33912  285.38 0855.24
2009/04/23 07:04:52.5     -37    -63    -20     74     77 210.7 -15.5  33912  285.39 0855.24
2009/04/23 07:04:52.6     -37    -44    -23     58     62 219.7 -27.4  33914  285.41 0855.24
2009/04/23 07:04:52.7     -38    -36    -25     53     58 226.9 -31.5  33912  285.38 0855.24
2009/04/23 07:04:52.8     -40    -27    -17     49     51 235.8 -23.3  33912  285.39 0855.24
2009/04/23 07:04:52.9     -38    -24    -16     45     47 237.6 -23.3  33910  285.36 0855.24
2009/04/23 07:04:53.0     -36    -17    -22     40     45 244.7 -36.8  33912  285.39 0855.24
2009/04/23 07:04:53.1     -26      0    -26     27     37 270.0 -56.4  33912  285.39 0855.24
2009/04/23 07:04:53.2     -32      7    -31     33     45 283.3 -53.4  33912  285.39 0855.24
2009/04/23 07:04:53.3     -21     32    -15     39     41 325.7 -26.4  33912  285.38 0855.24
2009/04/23 07:04:53.4     -35     31    -10     47     49 311.3 -12.4  33912  285.38 0855.24
2009/04/23 07:04:53.5     -39     25    -13     47     49 302.5 -15.5  33912  285.39 0855.24
2009/04/23 07:04:53.6     -39     13     -7     42     43 289.1 -10.3  33910  285.36 0855.24
2009/04/23 07:04:53.7     -31     13      1     34     35 293.5   2.8  33910  285.36 0855.24
2009/04/23 07:04:53.8     -67     30     -9     74     75 294.4  -7.2  33912  285.38 0855.24
2009/04/23 07:04:53.9     -53    -26    -21     60     64 243.8 -19.7  33912  285.38 0855.24
2009/04/23 07:04:54.0     -64    -64     -3     91     92 225.0  -2.2  33908  285.33 0855.24
2009/04/23 07:04:54.1     -71    -76    -29    105    109 223.2 -15.5  33908  285.33 0855.23
2009/04/23 07:04:54.2     -53    -49    -25     73     77 226.9 -23.3  33914  285.41 0855.23
2009/04/23 07:04:54.3     -47    -16    -28     50     57 250.9 -36.8  33914  285.43 0855.23
2009/04/23 07:04:54.4     -45    -45    -37     64     73 225.1 -36.8  33916  285.44 0855.23
2009/04/23 07:04:54.5     -57    -62    -55     85    101 222.8 -40.4  33914  285.41 0855.23
2009/04/23 07:04:54.6     -74    -55    -32     93     99 233.1 -19.1  33910  285.36 0855.23
2009/04/23 07:04:54.7     -89    -54      1    105    106 238.5   0.8  33912  285.39 0855.23
2009/04/23 07:04:54.8     -95      0     13     96     97 270.0   8.0  33914  285.43 0855.23
2009/04/23 07:04:54.9     -89     -4     10     90     91 267.4   6.9  33912  285.39 0855.23
2009/04/23 07:04:55.0    -121    -26     -8    124    125 257.6  -3.7  33910  285.34 0855.23
2009/04/23 07:04:55.1    -128     -4      0    129    130 267.9   0.2  33908  285.33 0855.23
2009/04/23 07:04:55.2    -154     23     16    156    157 278.8   5.9  33908  285.33 0855.23
2009/04/23 07:04:55.3    -135     40     22    141    143 286.8   9.0  33908  285.33 0855.23
2009/04/23 07:04:55.4    -121     33      3    126    127 285.5   1.8  33910  285.34 0855.23
2009/04/23 07:04:55.5     -89     54     51    105    116 301.1  27.3  33910  285.36 0855.23
2009/04/23 07:04:55.6     -77     45     38     90     97 300.7  24.1  33912  285.38 0855.23
2009/04/23 07:04:55.7     -85     11     27     86     91 277.9  17.3  33908  285.31 0855.23
2009/04/23 07:04:55.8     -94     15     -3     96     97 279.2  -2.2  33906  285.29 0855.23
2009/04/23 07:04:55.9     -61     53     15     82     84 310.9  10.6  33904  285.26 0855.23
2009/04/23 07:04:56.0     -64     60     26     89     93 313.1  16.3  33906  285.29 0855.23
2009/04/23 07:04:56.1     -65     67      5     94     95 315.9   3.3  33900  285.19 0855.23
2009/04/23 07:04:56.2     -60     58     11     84     85 314.0   8.0  33900  285.19 0855.23
2009/04/23 07:04:56.3     -65     61     17     90     92 313.1  11.1  33902  285.21 0855.23
2009/04/23 07:04:56.4     -57     54     14     79     81 313.6  10.6  33904  285.26 0855.23
2009/04/23 07:04:56.5     -63     54      8     84     85 310.4   5.9  33902  285.21 0855.23
2009/04/23 07:04:56.6     -63     54      8     84     85 310.4   5.9  33902  285.21 0855.23
2009/04/23 07:04:56.7     -72     38     -1     82     83 298.0  -1.3  33902  285.21 0855.23
2009/04/23 07:04:56.8     -84     46     -3     96     97 298.9  -1.8  33902  285.21 0855.23
2009/04/23 07:04:56.9     -82     50      2     97     98 301.5   1.2  33900  285.18 0855.23
2009/04/23 07:04:57.0     -84     53     -6    100    101 302.4  -3.7  33900  285.19 0855.23
2009/04/23 07:04:57.1     -80     70    -25    107    110 310.9 -13.4  33902  285.21 0855.23
2009/04/23 07:04:57.2     -72     71    -31    102    107 314.4 -17.0  33902  285.21 0855.23
2009/04/23 07:04:57.3     -55     69     10     89     90 321.7   6.9  33906  285.29 0855.23
2009/04/23 07:04:57.4     -34     70      1     79     80 333.7   0.8  33906  285.29 0855.23
2009/04/23 07:04:57.5     -20     65     -2     69     70 343.1  -2.2  33910  285.34 0855.23
2009/04/23 07:04:57.6     -28     64      3     70     71 336.4   2.8  33908  285.33 0855.23
2009/04/23 07:04:57.7     -41     86     -3     96     97 334.5  -1.8  33902  285.23 0855.23
2009/04/23 07:04:57.8     -45     95     -8    106    107 334.7  -4.6  33904  285.24 0855.23
2009/04/23 07:04:57.9     -54     87    -13    103    104 328.4  -7.2  33904  285.26 0855.23
2009/04/23 07:04:58.0     -62     85    -20    106    108 323.9 -10.9  33902  285.23 0855.23
2009/04/23 07:04:58.1     -74     86     -8    114    115 319.5  -4.1  33906  285.29 0855.23
2009/04/23 07:04:58.2     -71     98     -6    122    123 323.9  -3.1  33904  285.26 0855.23
2009/04/23 07:04:58.3     -64    101    -20    120    122 327.5  -9.8  33902  285.21 0855.23
2009/04/23 07:04:58.4     -55     92    -11    108    109 328.8  -6.2  33904  285.24 0855.23
2009/04/23 07:04:58.5     -61     74    -19     97     99 320.4 -11.3  33900  285.19 0855.23
2009/04/23 07:04:58.6     -64     69    -12     95     96 317.2  -7.3  33896  285.13 0855.23
2009/04/23 07:04:58.7     -55     55    -15     78     80 314.9 -11.3  33898  285.14 0855.23
2009/04/23 07:04:58.8     -45     45    -23     64     69 315.0 -19.7  33902  285.23 0855.23
2009/04/23 07:04:58.9     -43     52    -18     68     71 320.3 -15.5  33902  285.21 0855.23
2009/04/23 07:04:59.0     -49     52    -20     72     75 316.8 -15.5  33898  285.16 0855.23
2009/04/23 07:04:59.1     -40     63    -18     75     78 327.4 -13.4  33898  285.14 0855.23
2009/04/23 07:04:59.2     -44     71     -7     84     85 327.9  -5.2  33898  285.14 0855.23
2009/04/23 07:04:59.3     -61     63    -17     89     91 315.9 -11.3  33900  285.18 0855.23
2009/04/23 07:04:59.4     -61    107    -11    124    125 330.1  -5.2  33904  285.26 0855.23
2009/04/23 07:04:59.5     -45    114    -15    123    124 338.2  -7.2  33902  285.21 0855.23
2009/04/23 07:04:59.6    -111    141     -1    180    181 321.7  -0.5  33908  285.33 0855.23
2009/04/23 07:04:59.7    -129    113    -52    172    180 311.3 -17.0  33900  285.18 0855.23
2009/04/23 07:04:59.8    -150     88    -67    175    187 300.4 -26.4  33904  285.26 0855.23
2009/04/23 07:04:59.9    -131    110    -59    172    181 310.2 -23.6  33904  285.26 0855.23
2009/04/23 07:05:00.0     -55     99    -29    114    118 330.6 -14.5  33900  285.19 0855.23
2009/04/23 07:05:00.1     -55    124    -21    136    138 335.9  -8.8  33910  285.36 0855.23
2009/04/23 07:05:00.2     -73     93    -39    119    126 321.7 -18.1  33912  285.39 0855.23
2009/04/23 07:05:00.3     -34    105    -10    111    112 341.7  -5.6  33914  285.41 0855.23
2009/04/23 07:05:00.4     -59    109      6    125    126 331.5   2.8  33916  285.44 0855.23
2009/04/23 07:05:00.5     -50    138     -9    147    148 340.0  -3.7  33908  285.31 0855.23
2009/04/23 07:05:00.6     -60    132     -5    146    147 335.5  -2.2  33918  285.50 0855.23
2009/04/23 07:05:00.7     -29    153     11    156    157 349.3   4.2  33920  285.53 0855.23
2009/04/23 07:05:00.8     -53    133    -40    144    150 338.1 -15.5  33908  285.33 0855.23
2009/04/23 07:05:00.9     -59     96    -36    113    118 328.4 -22.3  33910  285.36 0855.23
2009/04/23 07:05:01.0     -48    116    -51    126    135 337.3 -27.4  33908  285.33 0855.23
2009/04/23 07:05:01.1     -79     95    -37    124    130 320.4 -17.0  33912  285.38 0855.23
2009/04/23 07:05:01.2     -80     90    -64    121    136 318.6 -34.2  33914  285.41 0855.23
2009/04/23 07:05:01.3     -61    100    -51    118    128 328.8 -29.5  33914  285.41 0855.23
2009/04/23 07:05:01.4     -65     83    -52    106    118 321.7 -32.2  33910  285.36 0855.23
2009/04/23 07:05:01.5     -57     84    -49    102    113 325.7 -31.6  33910  285.34 0855.23
2009/04/23 07:05:01.6     -45     71    -51     85     99 327.5 -38.4  33910  285.36 0855.23
2009/04/23 07:05:01.7     -82     61    -33    103    108 306.9 -23.3  33908  285.31 0855.23
2009/04/23 07:05:01.8    -100     26    -11    104    105 285.0  -6.2  33908  285.31 0855.23
2009/04/23 07:05:01.9     -91     47    -26    103    107 297.5 -14.5  33910  285.36 0855.23
2009/04/23 07:05:02.0     -63     34      4     72     73 298.8   3.8  33910  285.34 0855.23
2009/04/23 07:05:02.1     -39     42     16     58     61 316.6  15.3  33910  285.34 0855.22
2009/04/23 07:05:02.2     -35     39     62     53     81 318.6  54.8  33908  285.33 0855.22
2009/04/23 07:05:02.3     -47     50     91     69    114 316.7  59.0  33908  285.33 0855.22
2009/04/23 07:05:02.4     -87     44     81     98    127 297.1  43.8  33908  285.31 0855.22
2009/04/23 07:05:02.5     -63     45     56     78     96 305.9  39.1  33912  285.38 0855.22
2009/04/23 07:05:02.6     -67      0      3     68     69 270.0   2.9  33910  285.36 0855.22
2009/04/23 07:05:02.7     -77     -5    -23     78     82 265.6 -17.0  33910  285.36 0855.22
2009/04/23 07:05:02.8     -77    -11    -13     78     80 261.6  -9.8  33908  285.31 0855.22
2009/04/23 07:05:02.9     -66     -9     -8     67     68 262.1  -7.2  33908  285.33 0855.22
2009/04/23 07:05:03.0     -62     14      9     64     65 283.3   8.0  33908  285.31 0855.22
2009/04/23 07:05:03.1     -52     33      1     62     63 302.4   1.8  33908  285.31 0855.22
2009/04/23 07:05:03.2     -44     47    -11     65     67 316.8 -10.3  33908  285.33 0855.22
2009/04/23 07:05:03.3     -51     42    -24     67     72 309.6 -19.6  33908  285.33 0855.22
2009/04/23 07:05:03.4     -35     20    -22     41     46 299.8 -34.7  33906  285.29 0855.22
2009/04/23 07:05:03.5     -22     30    -22     38     43 323.9 -36.8  33906  285.29 0855.22
2009/04/23 07:05:03.6     -15      7    -31     17     35 295.3 -71.2  33906  285.29 0855.22
2009/04/23 07:05:03.7     -16     23    -30     29     41 325.7 -54.5  33906  285.28 0855.22
2009/04/23 07:05:03.8      -9     38      1     40     41 346.6   1.8  33906  285.28 0855.22
2009/04/23 07:05:03.9      -7     36     35     37     50 348.4  49.0  33910  285.34 0855.22
2009/04/23 07:05:04.0     -14     44     31     47     56 341.7  35.6  33910  285.34 0855.22
2009/04/23 07:05:04.1     -17     39     35     43     55 336.4  43.7  33912  285.39 0855.22
2009/04/23 07:05:04.2     -39     33     44     52     68 310.4  44.8  33912  285.39 0855.22
2009/04/23 07:05:04.3     -27     40     33     49     59 325.7  37.6  33912  285.38 0855.22
2009/04/23 07:05:04.4     -17     22     42     28     50 322.2  63.6  33912  285.38 0855.22
2009/04/23 07:05:04.5      -3     48     61     49     78 355.5  56.4  33916  285.44 0855.22
2009/04/23 07:05:04.6      -7     38     37     39     53 348.4  50.0  33910  285.36 0855.22
2009/04/23 07:05:04.7     -17     38     16     42     44 335.5  21.0  33910  285.36 0855.22
2009/04/23 07:05:04.8     -17     22    -24     28     36 322.2 -50.2  33912  285.38 0855.22
2009/04/23 07:05:04.9     -27      0    -10     28     29 270.0 -23.3  33910  285.34 0855.22
2009/04/23 07:05:05.0     -22      0     11     23     25 270.0  27.2  33910  285.36 0855.22
2009/04/23 07:05:05.1     -53    -17      7     56     57 251.8   8.0  33910  285.34 0855.22
2009/04/23 07:05:05.2     -49    -15     10     52     54 252.3  11.1  33910  285.36 0855.22
2009/04/23 07:05:05.3     -48      3     13     49     51 274.4  15.3  33910  285.34 0855.22
2009/04/23 07:05:05.4     -40     31     20     51     54 307.8  21.0  33910  285.36 0855.22
2009/04/23 07:05:05.5     -26     23     40     35     53 311.3  54.3  33916  285.44 0855.22
2009/04/23 07:05:05.6     -37     19     28     42     50 297.1  36.5  33914  285.41 0855.22
2009/04/23 07:05:05.7     -61     26     26     67     71 293.5  22.0  33918  285.50 0855.22
2009/04/23 07:05:05.8     -27     39     39     48     61 325.7  43.7  33916  285.44 0855.22
2009/04/23 07:05:05.9     -43     26     57     51     76 301.5  52.2  33918  285.50 0855.22
2009/04/23 07:05:06.0     -41     22     60     47     76 298.0  57.5  33916  285.46 0855.22
2009/04/23 07:05:06.1     -43     19     63     48     79 294.4  59.0  33916  285.46 0855.22
2009/04/23 07:05:06.2     -36     22     57     43     71 301.5  58.5  33918  285.48 0855.22
2009/04/23 07:05:06.3     -26     14     59     30     66 298.9  70.8  33918  285.48 0855.22
2009/04/23 07:05:06.4     -28     45     60     54     80 328.4  53.3  33918  285.48 0855.22
2009/04/23 07:05:06.5     -21     32     65     39     75 325.7  64.7  33920  285.53 0855.22
2009/04/23 07:05:06.6     -18     30     55     36     65 329.3  64.6  33916  285.46 0855.22
2009/04/23 07:05:06.7     -25     25     35     36     50 315.0  51.1  33920  285.51 0855.22
2009/04/23 07:05:06.8     -24     27     16     37     40 318.6  25.1  33916  285.46 0855.22
2009/04/23 07:05:06.9     -24     51      2     57     58 334.7   2.9  33918  285.50 0855.22
2009/04/23 07:05:07.0     -18     85    -26     87     91 348.0 -17.0  33920  285.53 0855.22
2009/04/23 07:05:07.1     -29     97     -4    102    103 343.5  -2.6  33924  285.58 0855.22
2009/04/23 07:05:07.2     -31     82     -4     88     89 339.1  -2.6  33924  285.58 0855.22
2009/04/23 07:05:07.3     -45     70      0     84     85 327.5   0.2  33920  285.53 0855.22
2009/04/23 07:05:07.4     -43     48     31     65     72 317.7  27.2  33918  285.50 0855.22
2009/04/23 07:05:07.5     -27     65     32     71     77 337.3  26.2  33918  285.50 0855.22
2009/04/23 07:05:07.6     -44     86     12     97     98 332.8   7.1  33920  285.53 0855.22
2009/04/23 07:05:07.7     -38     92     18    100    102 337.3  10.6  33920  285.53 0855.22
2009/04/23 07:05:07.8     -38     92     18    100    102 337.3  10.6  33920  285.53 0855.22
2009/04/23 07:05:07.9     -33     82     24     89     93 338.2  15.3  33922  285.55 0855.22
2009/04/23 07:05:08.0     -42     71     28     83     88 328.8  19.2  33920  285.51 0855.22
2009/04/23 07:05:08.1     -42     61     22     75     79 325.7  16.3  33918  285.50 0855.22
2009/04/23 07:05:08.2     -37     45     20     59     63 320.3  19.4  33920  285.53 0855.22
2009/04/23 07:05:08.3     -37     36     22     52     56 314.0  24.1  33918  285.50 0855.22
2009/04/23 07:05:08.4     -52     21      2     57     58 292.6   2.9  33920  285.53 0855.22
2009/04/23 07:05:08.5     -52     21      2     57     58 292.6   2.9  33920  285.53 0855.22
2009/04/23 07:05:08.6     -54     25     10     60     61 295.3  10.1  33920  285.53 0855.22
2009/04/23 07:05:08.7     -56     30     -8     64     65 298.9  -7.3  33920  285.51 0855.22
2009/04/23 07:05:08.8     -66     45    -24     81     85 304.6 -17.0  33920  285.53 0855.22
2009/04/23 07:05:08.9     -68     37    -14     78     80 298.4 -10.3  33920  285.53 0855.22
2009/04/23 07:05:09.0     -62     45    -34     77     84 305.9 -29.0  33922  285.55 0855.22
2009/04/23 07:05:09.1     -56     78    -85     97    128 324.4 -50.2  33916  285.46 0855.22
2009/04/23 07:05:09.2      -9     92    -69     93    115 354.2 -44.5  33920  285.51 0855.22
2009/04/23 07:05:09.3      -7     84    -43     85     95 354.7 -33.1  33918  285.50 0855.22
2009/04/23 07:05:09.4      -6     89    -11     90     91 356.0  -7.3  33920  285.51 0855.22
2009/04/23 07:05:09.5     -39     83     -8     92     93 334.6  -5.2  33920  285.51 0855.22
2009/04/23 07:05:09.6     -82     79    -34    115    121 314.0 -16.6  33920  285.53 0855.22
2009/04/23 07:05:09.7     -89     68    -44    113    121 307.3 -26.9  33920  285.53 0855.22
2009/04/23 07:05:09.8     -76     81    -41    112    119 316.7 -25.3  33918  285.50 0855.22
2009/04/23 07:05:09.9     -48    109     -4    120    121 336.4  -2.2  33918  285.48 0855.22
2009/04/23 07:05:10.0     -38    112    -10    119    120 341.3  -5.1  33920  285.51 0855.22
2009/04/23 07:05:10.1     -52     92    -21    106    109 330.6 -11.5  33918  285.50 0855.22
2009/04/23 07:05:10.2     -50     69    -28     86     90 324.4 -23.8  33920  285.51 0855.22
2009/04/23 07:05:10.3     -56     56    -49     80     93 315.0 -39.4  33918  285.50 0855.22
2009/04/23 07:05:10.4     -53     83    -49     99    110 327.4 -32.2  33914  285.43 0855.22
2009/04/23 07:05:10.5    -135     99    -54    168    176 306.4 -23.3  33916  285.46 0855.22
2009/04/23 07:05:10.6    -129    125    -35    180    184 314.2 -11.1  33912  285.39 0855.22
2009/04/23 07:05:10.7    -115    140    -23    182    184 320.6  -7.5  33916  285.44 0855.22
2009/04/23 07:05:10.8    -113    170    -15    205    206 326.4  -4.4  33918  285.50 0855.22
2009/04/23 07:05:10.9     -97    152    -61    181    192 327.4 -18.7  33916  285.46 0855.22
2009/04/23 07:05:11.0    -105    126    -48    165    171 320.1 -21.0  33916  285.46 0855.22
2009/04/23 07:05:11.1    -120    120    -26    170    173 315.0  -8.8  33918  285.48 0855.22
2009/04/23 07:05:11.2    -137     84    -33    161    165 301.5 -11.6  33918  285.48 0855.22
2009/04/23 07:05:11.3    -167    139    -60    218    227 309.6 -15.4  33916  285.46 0855.22
2009/04/23 07:05:11.4    -173    110    -64    206    216 302.5 -17.3  33916  285.44 0855.22
2009/04/23 07:05:11.5    -147    127    -69    195    208 310.7 -19.6  33914  285.41 0855.22
2009/04/23 07:05:11.6    -113    133      3    175    176 319.7   1.0  33914  285.43 0855.22
2009/04/23 07:05:11.7     -60    178     -2    188    189 341.3  -0.7  33916  285.44 0855.22
2009/04/23 07:05:11.9     -55    162    -54    172    181 341.3 -17.6  33914  285.41 0855.22
2009/04/23 07:05:11.9     -55    139    -55    150    159 338.2 -25.1  33914  285.43 0855.22
2009/04/23 07:05:12.0     -51    139    -51    149    158 340.0 -19.1  33914  285.41 0855.22
2009/04/23 07:05:12.1     -47    142    -43    150    157 341.5 -16.0  33914  285.43 0855.22
2009/04/23 07:05:12.2     -27    151    -36    154    159 349.8 -13.2  33916  285.46 0855.22
2009/04/23 07:05:12.3     -21    152    -22    154    156 351.9  -8.2  33918  285.48 0855.22
2009/04/23 07:05:12.4     -21    135    -38    137    143 351.1 -15.5  33916  285.46 0855.22
2009/04/23 07:05:12.5     -22    110    -41    113    120 348.4 -25.3  33914  285.43 0855.22
2009/04/23 07:05:12.6      -6    119    -33    120    125 356.9 -15.5  33916  285.44 0855.22
2009/04/23 07:05:12.7     -28    110    -34    114    120 345.3 -16.6  33912  285.39 0855.22
2009/04/23 07:05:12.8     -68     77    -11    104    105 318.6  -6.2  33912  285.38 0855.22
2009/04/23 07:05:12.9     -28     74    -28     80     84 339.1 -23.8  33914  285.43 0855.22
2009/04/23 07:05:13.0      -4     75    -31     76     82 356.4 -27.4  33912  285.39 0855.22
2009/04/23 07:05:13.1      -9     59    -24     60     64 351.1 -27.4  33914  285.41 0855.22
2009/04/23 07:05:13.2     -30    115    -37    119    125 345.3 -17.6  33914  285.43 0855.22
2009/04/23 07:05:13.3     -17    176    -32    177    180 354.4 -10.5  33920  285.51 0855.22
2009/04/23 07:05:13.4      -9    168    -27    169    172 356.9  -9.3  33920  285.53 0855.22
2009/04/23 07:05:13.5     -35    149    -20    154    156 346.6  -7.7  33920  285.53 0855.22
2009/04/23 07:05:13.6     -27    133    -12    136    137 348.5  -5.2  33920  285.53 0855.22
2009/04/23 07:05:13.7     -23    116     -9    119    120 348.4  -4.6  33920  285.51 0855.22
2009/04/23 07:05:13.9     -67     79    -33    104    109 319.5 -23.3  33920  285.53 0855.22
2009/04/23 07:05:13.9     -63     82    -13    104    105 322.2  -7.3  33918  285.48 0855.22
2009/04/23 07:05:14.1     -66     73      5     99    100 318.1   2.9  33918  285.48 0855.22
2009/04/23 07:05:14.2     -57     68     15     90     92 319.9   9.5  33918  285.48 0855.22
2009/04/23 07:05:14.2     -53     62      4     82     83 319.5   3.3  33918  285.48 0855.22
2009/04/23 07:05:14.4     -61     78     -2    100    101 321.7  -1.3  33918  285.50 0855.22
2009/04/23 07:05:14.5     -69     87    -32    112    117 321.7 -16.0  33922  285.55 0855.22
2009/04/23 07:05:14.6     -64     88    -19    109    111 323.9 -10.3  33920  285.53 0855.22
2009/04/23 07:05:14.7     -40     77     -8     88     89 332.4  -5.6  33920  285.51 0855.22
2009/04/23 07:05:14.8     -56     66     -3     87     88 319.5  -2.6  33918  285.48 0855.22
2009/04/23 07:05:14.9     -50     71    -11     88     89 324.8  -7.7  33922  285.56 0855.22
2009/04/23 07:05:15.0     -27     63    -16     69     71 336.4 -13.4  33922  285.55 0855.22
2009/04/23 07:05:15.1      -6     79    -14     80     82 355.6 -10.3  33920  285.53 0855.22
2009/04/23 07:05:15.2      41    115    -22    123    125  20.0 -10.3  33920  285.51 0855.22
2009/04/23 07:05:15.3      11    131    -14    132    133   4.9  -6.2  33922  285.55 0855.22
2009/04/23 07:05:15.4       8    115     -8    116    117   4.4  -4.1  33922  285.56 0855.22
2009/04/23 07:05:15.5      -7     94    -19     95     97 355.6 -11.3  33918  285.50 0855.22
2009/04/23 07:05:15.6      -6    101    -12    102    103 356.4  -7.2  33920  285.53 0855.22
2009/04/23 07:05:15.7      24    110    -34    113    119  12.5 -17.0  33922  285.56 0855.22
2009/04/23 07:05:15.8      10    107    -16    108    110   5.8  -8.8  33922  285.55 0855.22
2009/04/23 07:05:15.9      18     92     -3     94     95  11.6  -2.2  33918  285.50 0855.22
2009/04/23 07:05:16.0      14     81     32     83     88   9.8  21.5  33920  285.53 0855.22
2009/04/23 07:05:16.1      18     78     35     81     88  13.4  25.1  33916  285.44 0855.22
2009/04/23 07:05:16.2      31     72     25     79     84  23.6  17.9  33916  285.46 0855.22
2009/04/23 07:05:16.3      37     86     25     94     98  23.2  15.3  33920  285.51 0855.22
2009/04/23 07:05:16.4      39     93     24    101    104  22.7  13.7  33922  285.56 0855.22
2009/04/23 07:05:16.5      15    107     24    109    112   8.1  12.6  33922  285.55 0855.22
2009/04/23 07:05:16.6       2    105     -2    106    107   1.4  -1.3  33922  285.56 0855.22
2009/04/23 07:05:16.7     -21    113      2    116    117 349.3   1.2  33924  285.58 0855.22
2009/04/23 07:05:16.8     -21    113      2    116    117 349.3   1.2  33924  285.58 0855.22
2009/04/23 07:05:16.9     -32    136      2    140    141 346.6   0.8  33924  285.58 0855.22
2009/04/23 07:05:17.0     -33    128     12    133    134 345.3   5.4  33918  285.48 0855.22
2009/04/23 07:05:17.1     -23    111     35    114    120 348.0  17.3  33920  285.51 0855.22
2009/04/23 07:05:17.2     -20    127     44    129    137 350.7  18.9  33916  285.44 0855.22
2009/04/23 07:05:17.3     -28    132     51    135    144 348.0  21.0  33914  285.43 0855.22
2009/04/23 07:05:17.4     -32    126     49    131    139 345.7  21.0  33916  285.44 0855.22
2009/04/23 07:05:17.5     -49    147    102    156    186 341.3  36.0  33914  285.43 0855.22
2009/04/23 07:05:17.6     -47    182     89    189    208 345.5  27.1  33918  285.48 0855.22
2009/04/23 07:05:17.7     -79    146     46    167    174 331.5  15.6  33920  285.53 0855.22
2009/04/23 07:05:17.8     -73    150     37    168    173 333.9  12.6  33922  285.56 0855.22
2009/04/23 07:05:17.9     -70    145     30    162    165 334.1  10.6  33922  285.56 0855.22
2009/04/23 07:05:18.0     -69    125     39    144    150 331.0  15.2  33922  285.56 0855.22
2009/04/23 07:05:18.1     -88    129     50    157    165 325.5  17.9  33920  285.53 0855.22
2009/04/23 07:05:18.2     -88    112     70    143    159 321.7  28.0  33920  285.51 0855.22
2009/04/23 07:05:18.3     -38     89     69     97    119 336.8  39.1  33916  285.46 0855.22
2009/04/23 07:05:18.4     -50    127     84    137    160 338.2  34.4  33914  285.43 0855.22
2009/04/23 07:05:18.5     -90    109     88    142    167 320.4  35.0  33916  285.44 0855.22
2009/04/23 07:05:18.6     -89     93     89    129    156 316.3  38.4  33916  285.46 0855.22
2009/04/23 07:05:18.7     -56     70     93     90    129 321.3  50.7  33916  285.44 0855.22
2009/04/23 07:05:18.8     -12     74     97     76    123 350.2  57.9  33914  285.43 0855.22
2009/04/23 07:05:18.9      -7     82     78     83    113 354.7  48.5  33918  285.48 0855.22
2009/04/23 07:05:19.0     -23     80     72     84    110 344.0  44.8  33916  285.44 0855.22
2009/04/23 07:05:19.1     -19     70     75     73    104 344.9  50.1  33916  285.44 0855.22
2009/04/23 07:05:19.2       0     56     65     57     86 359.1  53.7  33914  285.43 0855.21
2009/04/23 07:05:19.3      -5     76     60     77     97 355.6  42.2  33912  285.38 0855.21
2009/04/23 07:05:19.4      50     37     61     63     87  53.1  50.0  33912  285.39 0855.21
2009/04/23 07:05:19.5      59     50     60     78     98  49.6  42.2  33914  285.41 0855.21
2009/04/23 07:05:19.6      57     25     75     63     97  66.5  55.8  33918  285.50 0855.21
2009/04/23 07:05:19.7      60     23     62     65     89  69.2  49.0  33916  285.46 0855.21
2009/04/23 07:05:19.8      54     62     58     83    101  41.0  38.6  33916  285.46 0855.21
2009/04/23 07:05:19.9      51     36     63     63     89  54.9  50.1  33914  285.41 0855.21
2009/04/23 07:05:20.0      58     22     70     63     94  69.2  53.3  33912  285.39 0855.21
2009/04/23 07:05:20.1      83     46     70     96    118  60.7  39.7  33916  285.44 0855.21
2009/04/23 07:05:20.2      89     89     64    127    142  45.0  28.7  33916  285.46 0855.21
2009/04/23 07:05:20.3      91     79     68    121    138  49.1  31.4  33918  285.48 0855.21
2009/04/23 07:05:20.4      43    114     69    123    141  20.9  31.4  33914  285.41 0855.21
2009/04/23 07:05:20.5      -4    101     62    102    119 357.3  34.0  33916  285.44 0855.21
2009/04/23 07:05:20.6      -5    100     89    101    134 356.9  45.8  33916  285.44 0855.21
2009/04/23 07:05:20.7      41    121    118    128    174  18.7  47.9  33916  285.44 0855.21
2009/04/23 07:05:20.8      94    155    102    182    208  31.4  31.6  33914  285.41 0855.21
2009/04/23 07:05:20.9      34    141    114    146    185  13.8  42.0  33914  285.41 0855.21
2009/04/23 07:05:21.0      43     92    104    102    145  25.5  50.1  33914  285.41 0855.21
2009/04/23 07:05:21.1      86    104    103    136    170  39.7  41.2  33910  285.36 0855.21
2009/04/23 07:05:21.2      69    135    112    152    188  27.1  39.9  33912  285.38 0855.21
2009/04/23 07:05:21.3      72    130     96    149    177  29.0  35.7  33912  285.39 0855.21
2009/04/23 07:05:21.4      88    152     83    176    194  30.1  27.1  33912  285.38 0855.21
2009/04/23 07:05:21.5     112    189    102    220    242  30.7  26.4  33910  285.35 0855.21
2009/04/23 07:05:21.6     112    177    132    210    248  32.3  35.5  33914  285.40 0855.21
2009/04/23 07:05:21.7     113    195    127    226    259  30.1  31.6  33916  285.44 0855.21
2009/04/23 07:05:21.8      97    195    120    218    248  26.5  31.4  33916  285.45 0855.21
2009/04/23 07:05:21.9      87    218     96    235    253  21.8  23.1  33916  285.45 0855.21
2009/04/23 07:05:22.0      98    182     96    207    228  28.3  27.1  33916  285.44 0855.21
2009/04/23 07:05:22.1     130    173     74    217    230  37.0  18.9  33918  285.48 0855.21
2009/04/23 07:05:22.2     147    161     42    219    224  42.3  11.0  33916  285.44 0855.21
2009/04/23 07:05:22.3     165    164     32    233    236  45.1   8.0  33914  285.42 0855.21
2009/04/23 07:05:22.4     157    179     51    239    245  41.2  12.1  33916  285.44 0855.21
2009/04/23 07:05:22.5     159    159     51    226    232  45.0  12.9  33914  285.43 0855.21
2009/04/23 07:05:22.6     159    139     18    212    213  48.7   4.9  33912  285.38 0855.21
2009/04/23 07:05:22.7     114    163     15    200    201  35.0   4.4  33910  285.36 0855.21
2009/04/23 07:05:22.8     119    173     50    211    217  34.5  13.5  33918  285.48 0855.21
2009/04/23 07:05:22.9     186    181     47    260    265  45.8  10.3  33920  285.51 0855.21
2009/04/23 07:05:23.0     208    193     34    284    287  47.1   6.9  33920  285.51 0855.21
2009/04/23 07:05:23.1     193    192    116    273    296  45.1  24.3  33924  285.57 0855.21
2009/04/23 07:05:23.2     206    172     95    269    286  50.0  19.4  33926  285.61 0855.21
2009/04/23 07:05:23.3     287    161     20    330    331  60.7   3.6  33914  285.43 0855.21
2009/04/23 07:05:23.4     264    198     -7    330    331  53.1  -1.3  33916  285.46 0855.21
2009/04/23 07:05:23.5     330    171     -4    372    373  62.5  -0.7  33914  285.41 0855.21
2009/04/23 07:05:23.6     348    135     67    374    381  68.8  10.2  33908  285.33 0855.21
2009/04/23 07:05:23.7     282    158    103    324    341  60.7  17.7  33920  285.52 0855.21
2009/04/23 07:05:23.8     274    188     78    333    343  55.5  13.3  33924  285.57 0855.21
2009/04/23 07:05:23.9     248    180     26    307    309  54.1   5.0  33918  285.49 0855.21
2009/04/23 07:05:24.0     211    186     39    282    285  48.7   8.0  33918  285.49 0855.21
2009/04/23 07:05:24.1     105    181     42    210    215  30.3  11.4  33916  285.44 0855.21
2009/04/23 07:05:24.2      96    182    137    207    248  27.9  36.5  33920  285.51 0855.21
2009/04/23 07:05:24.3      96    173    117    198    229  29.0  33.5  33916  285.44 0855.21
2009/04/23 07:05:24.4     109    144     74    181    195  37.2  23.4  33918  285.48 0855.21
2009/04/23 07:05:24.5     108    120     17    162    163  41.9   6.1  33920  285.53 0855.21
2009/04/23 07:05:24.6     169    102      2    198    199  58.9   0.7  33918  285.48 0855.21
2009/04/23 07:05:24.7     199    127    -31    237    239  57.5  -7.5  33912  285.39 0855.21
2009/04/23 07:05:24.8     187    146    -43    238    242  52.2 -10.3  33916  285.44 0855.21
2009/04/23 07:05:24.9     240    103     27    262    264  66.7   6.1  33918  285.49 0855.21
2009/04/23 07:05:25.0     227    184     30    293    295  50.9   6.0  33918  285.47 0855.21
2009/04/23 07:05:25.1     269    159     82    313    324  59.4  14.7  33916  285.44 0855.21
2009/04/23 07:05:25.2     305    143     90    338    350  64.8  15.0  33916  285.45 0855.21
2009/04/23 07:05:25.3     301    154    105    339    356  62.8  17.3  33914  285.40 0855.21
2009/04/23 07:05:25.4     294    164     74    337    346  60.9  12.4  33914  285.40 0855.21
2009/04/23 07:05:25.5     244    155    122    290    314  57.5  24.2  33914  285.40 0855.21
2009/04/23 07:05:25.6     261    222    117    344    364  49.6  18.8  33912  285.38 0855.21
2009/04/23 07:05:25.7     299    178    108    349    366  59.3  17.3  33914  285.43 0855.21
2009/04/23 07:05:25.8     325    161    126    363    385  63.6  19.2  33914  285.43 0855.21
2009/04/23 07:05:25.9     338    171     89    380    391  63.1  13.3  33912  285.38 0855.21
2009/04/23 07:05:26.0     353    145    111    382    398  67.7  16.3  33914  285.41 0855.21
2009/04/23 07:05:26.1     287    193     81    347    357  56.0  13.3  33910  285.36 0855.21
2009/04/23 07:05:26.2     284    165     51    329    333  59.7   8.8  33910  285.36 0855.21
2009/04/23 07:05:26.3     299    141     52    331    336  64.6   9.0  33910  285.36 0855.21
2009/04/23 07:05:26.4     291    141     42    324    327  64.0   7.4  33910  285.35 0855.21
2009/04/23 07:05:26.5     264    168     48    314    318  57.5   8.8  33912  285.37 0855.21
2009/04/23 07:05:26.6     256    174     56    310    316  55.8  10.2  33908  285.30 0855.21
2009/04/23 07:05:26.7     299    153    103    337    353  62.8  17.1  33910  285.36 0855.21
2009/04/23 07:05:26.8     336    133    120    362    382  68.3  18.4  33916  285.45 0855.21
2009/04/23 07:05:26.9     271    172    123    321    343  57.6  22.2  33914  285.43 0855.21
2009/04/23 07:05:27.0     261    225     57    345    350  49.2   9.4  33914  285.41 0855.21
2009/04/23 07:05:27.1     227    200    -35    303    306  48.6  -6.7  33914  285.42 0855.21
2009/04/23 07:05:27.2     184    179     20    258    259  45.8   4.6  33916  285.44 0855.21
2009/04/23 07:05:27.3     209    178     41    275    279  49.5   8.5  33912  285.37 0855.21
2009/04/23 07:05:27.4     214    155     65    265    273  54.0  13.9  33910  285.35 0855.21
2009/04/23 07:05:27.5     161    161     35    228    231  45.0   8.8  33908  285.33 0855.21
2009/04/23 07:05:27.6     192    121     61    227    236  57.8  15.2  33910  285.35 0855.21
2009/04/23 07:05:27.7     198    108     55    226    233  61.2  13.7  33908  285.31 0855.21
2009/04/23 07:05:27.8     200    132     46    240    245  56.5  11.0  33910  285.34 0855.21
2009/04/23 07:05:27.9     193    156     48    249    254  51.1  11.0  33912  285.39 0855.21
2009/04/23 07:05:28.0     190    154     52    245    251  50.9  12.1  33912  285.37 0855.21
2009/04/23 07:05:28.1     190    154     61    245    253  50.9  14.2  33914  285.40 0855.21
2009/04/23 07:05:28.2     180    130     68    223    234  54.0  17.1  33914  285.43 0855.21
2009/04/23 07:05:28.3     202    113     83    232    246  60.7  20.2  33912  285.39 0855.21
2009/04/23 07:05:28.4     209    115     86    239    254  61.2  20.4  33912  285.37 0855.21
2009/04/23 07:05:28.5     213    108     74    240    252  63.0  17.1  33914  285.40 0855.21
2009/04/23 07:05:28.6     197    112     73    227    239  60.2  17.9  33914  285.42 0855.21
2009/04/23 07:05:28.7     208    116     79    239    252  60.7  18.4  33912  285.39 0855.21
2009/04/23 07:05:28.8     202    113     64    232    241  60.7  15.6  33914  285.42 0855.21
2009/04/23 07:05:28.9     210    120     55    243    250  60.2  12.9  33914  285.42 0855.21
2009/04/23 07:05:29.0     211    121     43    244    248  60.2  10.0  33916  285.44 0855.21
2009/04/23 07:05:29.1     201     97     57    224    232  64.2  14.3  33914  285.41 0855.21
2009/04/23 07:05:29.2     195    132     48    236    242  55.8  11.6  33912  285.37 0855.21
2009/04/23 07:05:29.3     161    144     63    217    227  48.2  16.3  33910  285.34 0855.21
2009/04/23 07:05:29.4     163    134     57    212    220  50.5  15.2  33910  285.34 0855.21
2009/04/23 07:05:29.5     160    142     66    214    225  48.4  17.3  33910  285.34 0855.21
2009/04/23 07:05:29.6     209    146     76    256    268  55.0  16.6  33912  285.37 0855.21
2009/04/23 07:05:29.7     219    128     94    254    270  59.6  21.0  33914  285.42 0855.21
2009/04/23 07:05:29.8     209    101    103    233    254  64.2  25.3  33912  285.39 0855.21
2009/04/23 07:05:29.9     218    119    103    249    269  61.4  23.8  33912  285.37 0855.21
2009/04/23 07:05:30.0     174    173     98    246    264  45.2  23.0  33912  285.37 0855.21
2009/04/23 07:05:30.1     181    169     68    248    258  46.9  15.3  33916  285.44 0855.21
2009/04/23 07:05:30.2     216    140     20    258    259  57.1   4.6  33912  285.39 0855.21
2009/04/23 07:05:30.3     184    167     17    249    250  47.7   3.9  33912  285.37 0855.21
2009/04/23 07:05:30.4     190    178     22    261    263  46.9   4.9  33912  285.37 0855.21
2009/04/23 07:05:30.5     188    188     50    267    272  45.0  10.6  33912  285.37 0855.21
2009/04/23 07:05:30.6     218    183     86    285    298  50.0  16.8  33912  285.39 0855.21
2009/04/23 07:05:30.7     234    154     78    281    292  56.7  15.6  33914  285.42 0855.21
2009/04/23 07:05:30.8     232    135     73    269    279  59.8  15.3  33912  285.37 0855.21
2009/04/23 07:05:30.9     209    132     62    248    256  57.6  14.2  33912  285.37 0855.21
2009/04/23 07:05:31.0     180    135     49    226    232  53.1  12.4  33912  285.38 0855.21
2009/04/23 07:05:31.1     190    157     58    247    254  50.5  13.2  33914  285.42 0855.21
2009/04/23 07:05:31.2     175    144     62    227    236  50.5  15.3  33914  285.42 0855.21
2009/04/23 07:05:31.3     220    126     81    254    267  60.2  17.7  33912  285.39 0855.21
2009/04/23 07:05:31.4     240    127     74    272    282  62.0  15.3  33914  285.42 0855.21
2009/04/23 07:05:31.5     213    146     98    259    276  55.6  21.7  33914  285.42 0855.21
2009/04/23 07:05:31.6     256    121     85    284    297  64.6  16.8  33912  285.39 0855.21
2009/04/23 07:05:31.7     256    126     24    286    288  63.8   5.0  33912  285.39 0855.21
2009/04/23 07:05:31.8     252    128     64    283    291  63.0  12.9  33912  285.37 0855.21
2009/04/23 07:05:31.9     239    140     61    278    285  59.6  12.4  33912  285.37 0855.21
2009/04/23 07:05:32.0     256    130     62    288    295  63.0  12.2  33914  285.40 0855.21
2009/04/23 07:05:32.1     270    129     70    300    309  64.5  13.2  33912  285.39 0855.21
2009/04/23 07:05:32.2     262    109     83    284    296  67.4  16.3  33914  285.40 0855.21
2009/04/23 07:05:32.3     275     85    105    289    307  72.7  20.9  33908  285.30 0855.21
2009/04/23 07:05:32.4     283    112    125    305    329  68.3  23.6  33912  285.39 0855.21
2009/04/23 07:05:32.5     285    117    109    309    327  67.6  20.2  33912  285.37 0855.21
2009/04/23 07:05:32.6     256    101    134    276    306  68.3  27.4  33912  285.39 0855.21
2009/04/23 07:05:32.7     240     86    128    256    286  70.3  28.5  33914  285.40 0855.21
2009/04/23 07:05:32.8     270    164    122    316    338  58.7  22.3  33910  285.36 0855.21
2009/04/23 07:05:32.9     302    147     91    336    349  64.0  15.1  33910  285.35 0855.21
2009/04/23 07:05:33.0     274    109     94    296    311  68.2  17.7  33908  285.32 0855.21
2009/04/23 07:05:33.1     275     99     96    293    309  70.1  18.1  33914  285.40 0855.21
2009/04/23 07:05:33.2     243     61     86    251    266  75.8  18.9  33908  285.32 0855.21
2009/04/23 07:05:33.3     256     92     71    273    283  70.1  14.7  33912  285.37 0855.21
2009/04/23 07:05:33.4     250     94     92    268    284  69.4  18.9  33910  285.35 0855.21
2009/04/23 07:05:33.5     257     93    107    274    294  70.1  22.5  33910  285.34 0855.21
2009/04/23 07:05:33.6     227     69     71    238    249  73.1  16.6  33910  285.34 0855.21
2009/04/23 07:05:33.7     221     87     16    238    239  68.3   3.9  33910  285.35 0855.21
2009/04/23 07:05:33.8     237    121     32    267    269  63.0   6.9  33910  285.34 0855.21
2009/04/23 07:05:33.9     253     85     50    267    272  71.4  10.6  33910  285.35 0855.21
2009/04/23 07:05:34.0     252     67     41    261    265  75.0   9.0  33916  285.44 0855.21
2009/04/23 07:05:34.1     239     56     34    246    249  76.7   8.0  33910  285.35 0855.21
2009/04/23 07:05:34.2     227     54     24    234    236  76.5   5.9  33912  285.37 0855.21
2009/04/23 07:05:34.3     242     69     35    252    255  74.0   8.0  33908  285.32 0855.21
2009/04/23 07:05:34.4     228     77     36    241    244  71.2   8.5  33910  285.35 0855.21
2009/04/23 07:05:34.5     209     68     32    220    223  71.8   8.5  33910  285.36 0855.21
2009/04/23 07:05:34.6     212     85     52    229    235  68.2  12.9  33908  285.32 0855.21
2009/04/23 07:05:34.7     236     97     36    256    259  67.6   8.0  33910  285.35 0855.21
2009/04/23 07:05:34.9     203     68      7    215    216  71.4   2.1  33912  285.38 0855.21
2009/04/23 07:05:35.0     207     56     38    215    219  74.7  10.1  33912  285.38 0855.21
2009/04/23 07:05:35.1     180     41     63    185    196  77.0  18.9  33910  285.34 0855.21
2009/04/23 07:05:35.2     155     37     40    160    166  76.5  14.3  33908  285.31 0855.21
2009/04/23 07:05:35.3     160      7    -18    161    163  87.4  -6.5  33908  285.31 0855.21
2009/04/23 07:05:35.4     157     21      5    159    160  82.1   2.1  33910  285.34 0855.21
2009/04/23 07:05:35.5     144     22     -8    146    147  81.2  -3.1  33906  285.28 0855.21
2009/04/23 07:05:35.6     125     25     24    128    131  78.5  11.0  33910  285.36 0855.21
2009/04/23 07:05:35.7     129     22     46    131    139  80.3  19.4  33912  285.39 0855.21
2009/04/23 07:05:35.8     130     58     27    143    146  66.0  11.0  33910  285.34 0855.21
2009/04/23 07:05:35.9     160     64     27    173    176  68.0   9.0  33910  285.34 0855.21
2009/04/23 07:05:36.0     141     61     -3    154    155  66.4  -1.2  33908  285.33 0855.21
2009/04/23 07:05:36.1     139     66      7    154    155  64.6   2.9  33908  285.31 0855.21
2009/04/23 07:05:36.2     134     63     40    149    155  64.7  15.2  33904  285.26 0855.21
2009/04/23 07:05:36.3     112     57     77    126    147  62.9  35.0  33900  285.19 0855.21
2009/04/23 07:05:36.4     114     38     71    121    140  71.6  33.4  33902  285.23 0855.21
2009/04/23 07:05:36.5     134     25    102    137    170  79.4  40.4  33902  285.23 0855.21
2009/04/23 07:05:36.6     133    -11     13    134    135  94.8   5.9  33902  285.21 0855.21
2009/04/23 07:05:36.7     163     30     58    166    176  79.4  19.4  33906  285.29 0855.21
2009/04/23 07:05:36.8     179     44     50    185    192  76.1  15.2  33906  285.29 0855.21
2009/04/23 07:05:36.9     198     93     39    219    223  64.8  10.3  33908  285.33 0855.21
2009/04/23 07:05:37.0     166     57     41    176    181  70.9  13.2  33906  285.29 0855.21
2009/04/23 07:05:37.1     136     35     77    141    160  75.4  31.0  33904  285.26 0855.21
2009/04/23 07:05:37.2     134    -14     97    135    166  96.1  39.7  33902  285.23 0855.21
2009/04/23 07:05:37.3      87     37    109     95    144  66.5  54.3  33902  285.23 0855.21
2009/04/23 07:05:37.4      92     38     81    100    128  67.4  43.7  33896  285.13 0855.21
2009/04/23 07:05:37.5      75     24     93     79    122  71.8  54.8  33900  285.19 0855.21
2009/04/23 07:05:37.6      35     43     85     56    101  39.7  63.6  33902  285.21 0855.21
2009/04/23 07:05:37.7     -13     14     60     20     63 316.8  81.0  33902  285.21 0855.21
2009/04/23 07:05:37.8     -16     12     40     21     45 307.8  69.8  33898  285.16 0855.21
2009/04/23 07:05:37.9      -3      3     57      5     57 313.3  90.0  33900  285.19 0855.21
2009/04/23 07:05:38.0     -35      7     50     36     61 281.5  60.5  33902  285.21 0855.21
2009/04/23 07:05:38.1     -39      3     35     40     53 274.4  45.8  33900  285.19 0855.21
2009/04/23 07:05:38.2     -24     11     17     27     31 295.3  35.5  33898  285.16 0855.21
2009/04/23 07:05:38.3       0     35    -10     36     38   0.9 -15.5  33900  285.18 0855.21
2009/04/23 07:05:38.4      -4     65     -7     66     67 356.4  -6.2  33898  285.16 0855.21
2009/04/23 07:05:38.5     -10     64    -18     65     68 351.1 -15.5  33898  285.14 0855.21
2009/04/23 07:05:38.6       1     68      7     69     70   0.9   5.9  33902  285.23 0855.21
2009/04/23 07:05:38.7      26     97     35    101    108  15.1  19.4  33898  285.16 0855.21
2009/04/23 07:05:38.8     -44     67     14     81     83 327.0  10.1  33900  285.19 0855.21
2009/04/23 07:05:38.9     -94     64     20    114    116 304.2  10.1  33902  285.21 0855.21
2009/04/23 07:05:39.0     -60     49    -11     78     79 309.5  -8.2  33902  285.23 0855.21
2009/04/23 07:05:39.1     -33     -6      1     34     35 258.5   2.9  33898  285.16 0855.21
2009/04/23 07:05:39.2     -18      0     13     19     23 270.0  39.7  33902  285.21 0855.21
2009/04/23 07:05:39.3       3    -35     32     36     48 173.8  47.9  33904  285.24 0855.21
2009/04/23 07:05:39.4      10    -49      9     51     52 168.5  11.0  33904  285.24 0855.21
2009/04/23 07:05:39.5     -47    -39    -11     62     64 230.5 -10.3  33900  285.18 0855.21
2009/04/23 07:05:39.6     -71     -8      1     72     73 263.0   0.8  33902  285.21 0855.21
2009/04/23 07:05:39.7      -6    -17      5     19     20 200.0  17.3  33904  285.26 0855.21
2009/04/23 07:05:39.8      30    -96     45    101    110 162.6  26.2  33906  285.28 0855.21
2009/04/23 07:05:39.9      -7   -100    111    101    150 184.5  52.7  33906  285.29 0855.21
2009/04/23 07:05:40.1     -10   -100    117    101    154 185.8  54.8  33902  285.23 0855.21
2009/04/23 07:05:40.1      -8    -81    106     82    134 185.8  58.5  33904  285.26 0855.21
2009/04/23 07:05:40.2     -49    -94    106    107    150 207.6  50.0  33900  285.19 0855.21
2009/04/23 07:05:40.4     -81    -97     62    127    141 219.6  27.3  33900  285.19 0855.21
2009/04/23 07:05:40.4     -37   -121     25    127    130 197.0  11.1  33900  285.19 0855.21
2009/04/23 07:05:40.6     -26    -79     24     84     88 198.7  16.3  33904  285.26 0855.21
2009/04/23 07:05:40.7      -7    -85     44     86     96 184.9  29.3  33906  285.29 0855.21
2009/04/23 07:05:40.8      -7    -54     31     55     63 188.0  31.4  33906  285.28 0855.21
2009/04/23 07:05:40.9      -7    -55     30     56     63 188.0  31.3  33906  285.29 0855.21
2009/04/23 07:05:41.0     -31    -44     43     55     69 215.2  42.7  33902  285.23 0855.21
2009/04/23 07:05:41.1     -32    -25     22     41     46 232.2  30.3  33904  285.24 0855.21
2009/04/23 07:05:41.2     -24    -19      8     31     33 232.2  15.3  33900  285.19 0855.21
2009/04/23 07:05:41.3      -2    -41     17     42     45 183.6  23.0  33900  285.19 0855.21
2009/04/23 07:05:41.4      19    -43     12     48     50 156.4  14.3  33900  285.18 0855.21
2009/04/23 07:05:41.5       5    -46     23     47     52 172.9  27.3  33902  285.23 0855.21
2009/04/23 07:05:41.6      -5    -53     23     54     58 185.3  23.0  33902  285.23 0855.21
2009/04/23 07:05:41.7     -13    -59     33     61     69 192.5  31.3  33900  285.19 0855.21
2009/04/23 07:05:41.8     -40    -64     46     76     88 212.5  34.4  33902  285.21 0855.21
2009/04/23 07:05:41.9      13    -58     64     60     87 166.6  51.2  33904  285.26 0855.21
2009/04/23 07:05:42.0     -27    -77     42     82     92 199.6  28.7  33902  285.21 0855.21
2009/04/23 07:05:42.1     -44    -56     14     72     74 217.8  11.1  33900  285.18 0855.21
2009/04/23 07:05:42.2     -39    -32     -9     51     52 230.5 -10.3  33902  285.21 0855.21
2009/04/23 07:05:42.3     -11    -18    -11     22     24 210.7 -31.6  33902  285.21 0855.22
2009/04/23 07:05:42.4       0      0      8      1      8 189.7  90.0  33900  285.18 0855.22
2009/04/23 07:05:42.5      17      5     24     18     30  71.8  58.5  33902  285.21 0855.22
2009/04/23 07:05:42.6      33      0     36     34     49  90.0  50.1  33902  285.23 0855.22
2009/04/23 07:05:42.7      56     11     41     58     71  78.5  39.5  33904  285.26 0855.22
2009/04/23 07:05:42.8      65      0     49     66     82  90.0  40.7  33902  285.23 0855.22
2009/04/23 07:05:42.9      41     46     39     62     73  41.4  35.5  33896  285.13 0855.22
2009/04/23 07:05:43.0       1     82     48     83     95   0.9  32.9  33900  285.18 0855.22
2009/04/23 07:05:43.1     -54    111     59    124    137 334.1  27.2  33898  285.14 0855.22
2009/04/23 07:05:43.2     -17     96     44     98    107 349.8  26.2  33898  285.14 0855.22
2009/04/23 07:05:43.3     -31     93     66     99    118 341.3  37.0  33892  285.06 0855.22
2009/04/23 07:05:43.4       1     79     82     80    114   0.9  49.7  33896  285.11 0855.22
2009/04/23 07:05:43.5       6     87     99     88    132   4.0  54.2  33896  285.11 0855.22
2009/04/23 07:05:43.6      34     54    102     65    120  32.5  64.7  33896  285.13 0855.22
2009/04/23 07:05:43.7      -7     38     83     39     91 348.5  73.1  33892  285.04 0855.22
2009/04/23 07:05:43.8     -42     64     94     77    121 326.6  56.4  33884  284.91 0855.22
2009/04/23 07:05:43.9     -71     51     96     88    130 306.0  52.7  33878  284.81 0855.22
2009/04/23 07:05:44.0     -60     94    101    112    150 327.5  46.9  33882  284.87 0855.22
2009/04/23 07:05:44.1     -37    119    123    125    175 342.6  50.2  33884  284.91 0855.22
2009/04/23 07:05:44.2     -38    112    134    119    179 341.3  53.7  33884  284.92 0855.22
2009/04/23 07:05:44.3     -45    133    121    141    185 341.3  44.8  33892  285.06 0855.22
2009/04/23 07:05:44.4      26     85    132     90    159  17.4  62.4  33896  285.13 0855.22
2009/04/23 07:05:44.5      68     77    106    104    148  41.4  50.1  33898  285.14 0855.22
2009/04/23 07:05:44.6      78     81     82    113    139  44.1  39.7  33902  285.21 0855.22
2009/04/23 07:05:44.7      94     37     99    102    142  68.2  49.4  33896  285.11 0855.22
2009/04/23 07:05:44.8     121     23    110    124    165  79.0  46.4  33898  285.16 0855.22
2009/04/23 07:05:44.9      60     20    120     64    136  70.9  69.8  33898  285.16 0855.22
2009/04/23 07:05:45.0     104     48    129    115    172  64.8  53.5  33904  285.26 0855.22
2009/04/23 07:05:45.1     144     52     56    154    163  70.0  20.7  33902  285.23 0855.22
2009/04/23 07:05:45.2     178     55     65    187    197  72.7  20.0  33900  285.18 0855.22
2009/04/23 07:05:45.3     196     85     97    214    234  66.5  26.2  33904  285.24 0855.22
2009/04/23 07:05:45.4     174     79     85    192    209  65.4  25.3  33904  285.24 0855.22
2009/04/23 07:05:45.5     186     93     57    209    217  63.4  15.3  33900  285.19 0855.22
2009/04/23 07:05:45.6     150     85     57    173    183  60.2  18.4  33904  285.24 0855.22
2009/04/23 07:05:45.7     159     59     76    170    186  69.6  25.9  33898  285.14 0855.22
2009/04/23 07:05:45.8     137     75    102    157    187  61.1  35.7  33900  285.18 0855.22
2009/04/23 07:05:45.9     123     75    114    145    184  58.5  42.2  33902  285.23 0855.22
2009/04/23 07:05:46.0     150     92    120    176    213  58.5  37.4  33904  285.26 0855.22
2009/04/23 07:05:46.1     138     96    107    169    200  55.1  35.5  33908  285.31 0855.22
2009/04/23 07:05:46.2     151     73    114    168    203  64.0  37.4  33906  285.28 0855.22
2009/04/23 07:05:46.3     134     44     54    142    151  71.8  21.5  33902  285.23 0855.21
2009/04/23 07:05:46.4     137     49     53    146    155  70.1  20.0  33902  285.21 0855.21
2009/04/23 07:05:46.5     167     62     82    179    196  69.4  26.2  33902  285.21 0855.21
2009/04/23 07:05:46.6     173     51     34    181    185  73.4  10.6  33904  285.24 0855.21
2009/04/23 07:05:46.7     148    119     82    191    207  51.1  24.9  33908  285.31 0855.21
2009/04/23 07:05:46.8     161    116    119    199    231  54.1  34.0  33908  285.31 0855.21
2009/04/23 07:05:46.9     161    100     82    190    206  58.2  25.1  33906  285.29 0855.21
2009/04/23 07:05:47.0     205    120     60    238    246  59.6  14.2  33908  285.30 0855.21
2009/04/23 07:05:47.1     213     57     63    221    230  75.0  16.0  33898  285.16 0855.21
2009/04/23 07:05:47.2     212     57     36    220    223  74.9   9.3  33900  285.18 0855.21
2009/04/23 07:05:47.3     197     53     39    205    209  74.9  10.8  33898  285.16 0855.21
2009/04/23 07:05:47.4     214     85     86    231    246  68.2  21.3  33906  285.27 0855.21
2009/04/23 07:05:47.5     184    104     18    212    213  60.5   5.0  33908  285.33 0855.21
2009/04/23 07:05:47.6     190    118     35    224    227  58.2   9.0  33906  285.29 0855.21
2009/04/23 07:05:47.7     175    115     42    210    215  56.7  11.4  33906  285.29 0855.21
2009/04/23 07:05:47.8     165    106     43    197    202  57.1  12.4  33908  285.31 0855.21
2009/04/23 07:05:47.9     171    114     42    206    211  56.3  11.6  33904  285.26 0855.21
2009/04/23 07:05:48.0     188    109     11    218    219  60.0   3.1  33908  285.31 0855.21
2009/04/23 07:05:48.1     184    117     20    219    221  57.6   5.4  33908  285.33 0855.21
2009/04/23 07:05:48.2     184     92     61    206    215  63.4  16.6  33906  285.29 0855.21
2009/04/23 07:05:48.3     204     81     42    220    224  68.2  10.8  33908  285.31 0855.21
2009/04/23 07:05:48.4     202     68     51    214    221  71.4  13.5  33904  285.26 0855.21
2009/04/23 07:05:48.5     189     97     76    213    226  62.9  20.2  33906  285.28 0855.21
2009/04/23 07:05:48.6     183    108     43    213    218  59.3  11.6  33904  285.26 0855.21
2009/04/23 07:05:48.7     150    120     61    193    203  51.4  17.7  33906  285.28 0855.21
2009/04/23 07:05:48.8     163    110     73    197    210  56.0  21.0  33908  285.31 0855.21
2009/04/23 07:05:48.9     171    103     86    200    217  58.9  24.9  33906  285.28 0855.21
2009/04/23 07:05:49.0     145     83     75    168    183  60.2  25.7  33906  285.29 0855.21
2009/04/23 07:05:49.1     158     80     64    178    189  63.1  20.4  33906  285.28 0855.21
2009/04/23 07:05:49.2     128    115     64    173    184  48.2  21.0  33908  285.33 0855.21
2009/04/23 07:05:49.3     134     72     64    153    165  61.6  23.8  33908  285.31 0855.21
2009/04/23 07:05:49.4     103    113     72    154    170  42.3  27.1  33904  285.26 0855.21
2009/04/23 07:05:49.5     110    136     65    176    187  39.0  21.0  33906  285.28 0855.21
2009/04/23 07:05:49.6     116    165     93    202    222  35.2  26.4  33906  285.28 0855.21
2009/04/23 07:05:49.7     140    145    130    202    240  44.1  35.7  33904  285.24 0855.21
2009/04/23 07:05:49.8      92    163    102    188    213  29.4  31.0  33902  285.23 0855.21
2009/04/23 07:05:49.9      62    163     81    175    192  20.9  27.0  33900  285.18 0855.21
2009/04/23 07:05:50.0      97    165     92    192    212  30.5  27.3  33902  285.23 0855.21
2009/04/23 07:05:50.1     128    128    110    182    212  44.9  34.2  33904  285.24 0855.21
2009/04/23 07:05:50.2      70    148     56    164    174  25.5  18.9  33900  285.19 0855.21
2009/04/23 07:05:50.3      69    150     59    166    176  24.7  20.0  33898  285.14 0855.21
2009/04/23 07:05:50.4      95    123     57    156    166  37.8  20.4  33904  285.26 0855.21
2009/04/23 07:05:50.5      79    102     80    130    152  37.8  35.5  33908  285.31 0855.21
2009/04/23 07:05:50.6      19    116     83    118    144   9.3  38.6  33902  285.21 0855.21
2009/04/23 07:05:50.7     -18    174     41    175    180 354.0  13.2  33902  285.21 0855.21
2009/04/23 07:05:50.8      -6    159     55    160    170 357.8  19.2  33898  285.16 0855.21
2009/04/23 07:05:50.9      -9    125     49    126    135 355.5  21.5  33900  285.19 0855.21
2009/04/23 07:05:51.0      12     90     66     91    112   8.0  39.7  33904  285.24 0855.21
2009/04/23 07:05:51.1      38    116     69    123    141  18.5  31.4  33902  285.23 0855.21
2009/04/23 07:05:51.2      33    125     45    130    138  15.1  19.4  33898  285.16 0855.21
2009/04/23 07:05:51.3       2    143     64    144    157   1.0  25.3  33898  285.16 0855.21
2009/04/23 07:05:51.4      21    124     44    126    134   9.8  19.4  33898  285.14 0855.21
2009/04/23 07:05:51.5      51    108     45    120    128  25.5  21.0  33898  285.16 0855.21
2009/04/23 07:05:51.6      -7    111     -4    112    113 356.4  -2.2  33900  285.18 0855.21
2009/04/23 07:05:51.7     -47     93      6    105    106 333.3   3.3  33902  285.23 0855.21
2009/04/23 07:05:51.8     -50     97     31    110    115 332.8  15.8  33896  285.11 0855.21
2009/04/23 07:05:51.9     -58     62     27     86     91 316.8  17.3  33898  285.16 0855.21
2009/04/23 07:05:52.0     -65     69      7     95     96 316.8   4.4  33900  285.19 0855.21
2009/04/23 07:05:52.1     -66     66     24     94     98 315.3  14.7  33892  285.06 0855.21
2009/04/23 07:05:52.2     -72     64      4     97     98 311.3   2.9  33896  285.11 0855.21
2009/04/23 07:05:52.3    -133     62     -6    147    148 295.2  -2.6  33902  285.21 0855.21
2009/04/23 07:05:52.4    -105     49    -99    117    153 295.2 -48.7  33900  285.19 0855.21
2009/04/23 07:05:52.5     -75     46    -95     88    129 301.5 -56.6  33902  285.21 0855.21
2009/04/23 07:05:52.6    -127     42    -62    134    147 288.4 -31.5  33900  285.18 0855.21
2009/04/23 07:05:52.7    -105     93    -44    141    148 311.8 -17.6  33896  285.13 0855.21
2009/04/23 07:05:52.8     -60     60    -58     85    102 315.0 -42.0  33900  285.19 0855.21
2009/04/23 07:05:52.9     -47     74    -24     88     92 327.5 -15.5  33900  285.19 0855.21
2009/04/23 07:05:53.0     -78     49    -51     93    106 302.0 -35.8  33896  285.11 0855.21
2009/04/23 07:05:53.1     -35     55      3     66     67 327.5   2.8  33896  285.13 0855.21
2009/04/23 07:05:53.2      -4     63    -10     64     65 356.4  -9.3  33896  285.11 0855.21
2009/04/23 07:05:53.3      -1     71    -28     72     77 359.1 -26.4  33892  285.06 0855.21
2009/04/23 07:05:53.4     -20     66    -16     70     72 343.1 -13.4  33890  285.02 0855.21
2009/04/23 07:05:53.5      17     90    -17     92     94  11.1 -10.9  33890  285.01 0855.21
2009/04/23 07:05:53.6     -18    121    -38    123    128 351.5 -21.8  33892  285.04 0855.21
2009/04/23 07:05:53.7    -104    142    -41    177    182 323.9 -13.2  33890  285.01 0855.21
2009/04/23 07:05:53.8    -137    134    -23    192    194 314.4  -6.9  33888  284.97 0855.21
2009/04/23 07:05:53.9    -135    118    -36    180    184 311.1 -11.3  33886  284.96 0855.21
2009/04/23 07:05:54.0    -111    141    -17    180    181 321.7  -5.6  33886  284.94 0855.21
2009/04/23 07:05:54.1    -112    146      5    185    186 322.6   1.6  33886  284.94 0855.21
2009/04/23 07:05:54.2    -124    132     16    182    183 316.8   5.2  33890  285.01 0855.21
2009/04/23 07:05:54.3    -133    159      4    208    209 320.1   1.2  33892  285.06 0855.21
2009/04/23 07:05:54.4     -95    165    -45    191    197 329.9 -13.4  33896  285.13 0855.21
2009/04/23 07:05:54.5     -88    178    -42    199    204 333.7 -11.9  33900  285.18 0855.21
2009/04/23 07:05:54.6     -58    183    -42    193    198 342.4 -12.4  33902  285.23 0855.21
2009/04/23 07:05:54.7     -66    199    -37    210    214 341.5 -10.1  33904  285.24 0855.21
2009/04/23 07:05:54.8     -75    205    -28    219    221 339.7  -7.5  33902  285.21 0855.21
2009/04/23 07:05:54.9     -84    208    -53    225    232 338.1 -13.4  33902  285.23 0855.21
2009/04/23 07:05:55.0     -97    208    -54    230    237 334.8 -13.3  33906  285.27 0855.21
2009/04/23 07:05:55.1     -85    245    -72    260    270 340.8 -15.5  33906  285.29 0855.21
2009/04/23 07:05:55.2     -99    210    -29    233    235 334.6  -7.3  33904  285.25 0855.21
2009/04/23 07:05:55.3    -103    193     27    219    221 331.9   7.1  33904  285.24 0855.21
2009/04/23 07:05:55.4     -99    180     -4    206    207 331.0  -1.3  33902  285.21 0855.21
2009/04/23 07:05:55.5    -136    140     15    196    197 315.7   4.4  33898  285.16 0855.21
2009/04/23 07:05:55.6     -96    136     42    167    173 324.6  14.3  33900  285.18 0855.21
2009/04/23 07:05:55.7    -133    115     75    176    191 310.9  24.3  33900  285.18 0855.21
2009/04/23 07:05:55.8     -76    119     29    142    146 327.5  11.6  33902  285.21 0855.21
2009/04/23 07:05:55.9     -64    119     39    136    142 331.5  16.3  33902  285.21 0855.21
2009/04/23 07:05:56.0     -40    120     44    127    135 341.3  19.4  33900  285.18 0855.21
2009/04/23 07:05:56.1     -37    139     28    145    148 344.9  11.1  33904  285.24 0855.21
2009/04/23 07:05:56.2     -75    167     52    184    192 335.7  15.8  33902  285.21 0855.21
2009/04/23 07:05:56.3     -98    114     47    151    159 319.5  17.3  33900  285.18 0855.21
2009/04/23 07:05:56.4     -46    101     13    111    112 335.5   6.9  33902  285.21 0855.21
2009/04/23 07:05:56.5     -69     82     28    108    112 319.9  14.7  33902  285.21 0855.21
2009/04/23 07:05:56.6     -87     87      6    124    125 315.0   2.9  33902  285.21 0855.21
2009/04/23 07:05:56.7     -64     93      5    114    115 325.3   2.9  33898  285.16 0855.21
2009/04/23 07:05:56.8     -58     91      1    108    109 327.5   0.8  33900  285.18 0855.21
2009/04/23 07:05:56.9     -41     86      3     96     97 334.6   2.3  33898  285.16 0855.21
2009/04/23 07:05:57.0     -27     95     15     99    101 344.0   9.0  33898  285.16 0855.21
2009/04/23 07:05:57.1     -12     85      8     86     87 351.5   5.9  33902  285.21 0855.21
2009/04/23 07:05:57.2       1     68     -1     69     70   0.9  -1.3  33904  285.26 0855.21
2009/04/23 07:05:57.3     -30     45     -7     55     56 325.7  -7.2  33906  285.28 0855.20
2009/04/23 07:05:57.4     -54     32    -21     63     67 300.7 -18.7  33904  285.26 0855.20
2009/04/23 07:05:57.5     -50      0    -16     51     54 270.0 -17.6  33902  285.23 0855.20
2009/04/23 07:05:57.6     -23    -18    -23     30     37 232.2 -46.1  33904  285.26 0855.20
2009/04/23 07:05:57.7     -13     25    -34     29     44 332.8 -58.7  33900  285.18 0855.20
2009/04/23 07:05:57.8     -36     55    -28     66     71 326.6 -28.5  33902  285.21 0855.20
2009/04/23 07:05:57.9     -53     53     -9     76     77 315.0  -7.3  33898  285.14 0855.20
2009/04/23 07:05:58.0     -82     58     -4    101    102 305.1  -2.6  33898  285.16 0855.20
2009/04/23 07:05:58.1     -67     73     12    100    101 317.7   7.1  33898  285.16 0855.20
2009/04/23 07:05:58.2     -50     60     17     79     81 320.4  12.2  33896  285.13 0855.20
2009/04/23 07:05:58.3     -33     44     11     56     58 323.0  11.0  33898  285.16 0855.20
2009/04/23 07:05:58.4     -24     24     -4     35     36 315.0  -7.2  33900  285.18 0855.20
2009/04/23 07:05:58.5     -32      1     -1     33     34 272.6  -2.2  33900  285.18 0855.20
2009/04/23 07:05:58.6     -36      0    -15     37     39 270.0 -28.5  33898  285.16 0855.20
2009/04/23 07:05:58.7     -42     11      2     44     45 285.1   2.9  33900  285.18 0855.20
2009/04/23 07:05:58.8     -32     10     11     34     36 288.4  18.9  33898  285.16 0855.20
2009/04/23 07:05:58.9     -35    -22     41     42     58 237.6  52.0  33900  285.18 0855.20
2009/04/23 07:05:59.0     -76    -15     41     78     88 258.5  29.8  33890  285.01 0855.20
2009/04/23 07:05:59.1    -104    -13     58    105    119 262.5  31.4  33886  284.96 0855.20
2009/04/23 07:05:59.2    -126    -18     58    128    140 261.6  26.2  33880  284.86 0855.20
2009/04/23 07:05:59.3    -144    -28     47    147    155 259.0  17.9  33892  285.04 0855.20
2009/04/23 07:05:59.4    -149    -18     41    151    157 263.0  15.2  33890  285.02 0855.20
2009/04/23 07:05:59.5    -145    -39     11    151    152 254.9   4.4  33888  284.97 0855.20
2009/04/23 07:05:59.6    -138    -55     -9    149    150 248.3  -3.7  33892  285.04 0855.20
2009/04/23 07:05:59.7    -162    -41     -6    168    169 255.6  -2.1  33888  284.99 0855.20
2009/04/23 07:05:59.8    -137    -32      2    141    142 256.8   0.8  33890  285.01 0855.20
2009/04/23 07:05:59.9    -148    -40     20    154    156 254.9   7.5  33892  285.06 0855.20
2009/04/23 07:06:00.0    -146    -22     20    148    150 261.2   8.0  33892  285.06 0855.20
2009/04/23 07:06:00.1    -148    -20     29    150    153 262.0  11.1  33894  285.09 0855.20
2009/04/23 07:06:00.2    -174    -45     26    180    182 255.2   8.2  33892  285.04 0855.20
2009/04/23 07:06:00.3    -153    -51     32    162    166 251.4  11.4  33892  285.04 0855.20
2009/04/23 07:06:00.4    -174    -35     17    178    179 258.5   5.7  33894  285.09 0855.20
2009/04/23 07:06:00.5    -133    -93     46    163    170 234.9  15.8  33894  285.09 0855.20
2009/04/23 07:06:00.6    -189    -62     50    199    206 251.8  14.3  33894  285.07 0855.20
2009/04/23 07:06:00.7    -201    -60     18    210    211 253.2   5.0  33894  285.09 0855.20
2009/04/23 07:06:00.8    -177    -64     51    189    196 250.0  15.3  33890  285.02 0855.20
2009/04/23 07:06:00.9    -140    -24     73    143    160 260.3  29.3  33892  285.04 0855.20
2009/04/23 07:06:01.0    -130    -22     55    132    143 260.3  23.1  33892  285.04 0855.20
2009/04/23 07:06:01.1    -113    -10     44    114    122 264.8  22.0  33892  285.04 0855.20
2009/04/23 07:06:01.2    -124      0     34    125    130 270.0  15.2  33892  285.06 0855.20
2009/04/23 07:06:01.3    -119    -14      1    120    121 263.0   0.7  33894  285.07 0855.20
2009/04/23 07:06:01.4     -90    -21      7     93     94 256.3   4.4  33892  285.04 0855.20
2009/04/23 07:06:01.5    -113    -15     20    115    117 262.1  10.1  33890  285.02 0855.20
2009/04/23 07:06:01.6    -126    -17     33    128    133 262.1  14.7  33892  285.04 0855.20
2009/04/23 07:06:01.7    -122     -6     59    123    136 267.0  27.3  33888  284.99 0855.20
2009/04/23 07:06:01.8    -131     13     45    132    140 275.7  18.9  33890  285.02 0855.20
2009/04/23 07:06:01.9    -135      0     71    136    153 270.0  29.8  33888  284.97 0855.20
2009/04/23 07:06:02.0    -126      1     70    127    145 270.9  31.4  33886  284.96 0855.20
2009/04/23 07:06:02.1    -153     10     70    154    169 273.9  26.4  33890  285.01 0855.20
2009/04/23 07:06:02.2    -162      0     85    163    183 270.0  30.1  33886  284.96 0855.20
2009/04/23 07:06:02.3    -128      8     89    129    156 273.9  38.4  33886  284.96 0855.20
2009/04/23 07:06:02.4    -134    -14     98    135    166 263.8  39.9  33888  284.97 0855.20
2009/04/23 07:06:02.5    -144    -15     88    145    169 263.9  34.2  33888  284.97 0855.20
2009/04/23 07:06:02.6    -105    -14     64    107    124 262.0  33.5  33892  285.04 0855.20
2009/04/23 07:06:02.7     -85      0     41     86     95 270.0  27.2  33892  285.04 0855.20
2009/04/23 07:06:02.8     -85     26     43     90     99 287.3  27.2  33890  285.01 0855.20
2009/04/23 07:06:02.9     -40     -6     14     41     44 261.2  19.4  33894  285.07 0855.20
2009/04/23 07:06:03.0       8    -13     28     16     32 147.5  66.8  33896  285.11 0855.20
2009/04/23 07:06:03.1      -1    -17     51     18     54 184.5  81.2  33896  285.11 0855.20
2009/04/23 07:06:03.2     -97    -14     47     99    109 261.6  27.2  33892  285.06 0855.20
2009/04/23 07:06:03.3    -111    -30     59    116    130 254.9  29.2  33890  285.01 0855.20
2009/04/23 07:06:03.4    -115    -13     55    116    128 263.4  27.1  33892  285.04 0855.20
2009/04/23 07:06:03.5    -106    -14     77    108    132 262.1  39.1  33894  285.09 0855.20
2009/04/23 07:06:03.7    -111     -8     65    112    129 265.7  32.9  33886  284.96 0855.20
2009/04/23 07:06:03.8    -114    -24     70    117    136 258.1  34.0  33886  284.96 0855.20
2009/04/23 07:06:03.9    -142      7     49    143    152 273.0  18.9  33882  284.89 0855.20
2009/04/23 07:06:04.0    -162     17     33    163    167 276.1  11.6  33886  284.94 0855.20
2009/04/23 07:06:04.1    -125    -13     73    126    145 263.8  32.9  33882  284.89 0855.20
2009/04/23 07:06:04.2    -124      5     54    125    136 272.5  25.1  33886  284.94 0855.20
2009/04/23 07:06:04.3    -141     -2     33    142    146 269.2  13.1  33888  284.99 0855.20
2009/04/23 07:06:04.4    -145    -11     17    146    148 265.6   6.9  33888  284.97 0855.20
2009/04/23 07:06:04.5    -168    -22     13    170    171 262.5   4.6  33892  285.04 0855.20
2009/04/23 07:06:04.6    -176      0     16    177    178 270.0   5.2  33890  285.01 0855.20
2009/04/23 07:06:04.7    -116    -23     22    119    122 258.6  10.6  33890  285.02 0855.20
2009/04/23 07:06:04.8     -95    -42    -17    104    106 246.0  -9.3  33894  285.09 0855.20
2009/04/23 07:06:04.9     -93    -25     36     97    103 254.9  21.0  33892  285.04 0855.20
2009/04/23 07:06:05.0    -106    -42     25    115    118 248.3  12.6  33890  285.02 0855.20
2009/04/23 07:06:05.1     -96    -18     26     98    102 259.4  15.3  33888  284.99 0855.20
2009/04/23 07:06:05.2     -98     -8      6     99    100 264.8   3.8  33888  284.99 0855.20
2009/04/23 07:06:05.3     -95     -7      4     96     97 265.6   2.8  33890  285.01 0855.19
2009/04/23 07:06:05.4    -120     23     15    123    124 281.0   7.1  33888  284.97 0855.19
2009/04/23 07:06:05.5     -82     -8      9     83     84 264.3   6.5  33888  284.99 0855.19
2009/04/23 07:06:05.6     -90      6    -11     91     92 274.4  -7.3  33888  284.97 0855.19
2009/04/23 07:06:05.7     -67    -14     -2     69     70 257.6  -2.2  33888  284.97 0855.19
2009/04/23 07:06:05.8     -67     35     19     76     79 298.0  14.3  33888  284.97 0855.19
2009/04/23 07:06:05.9     -87    -15     -3     89     90 259.9  -2.2  33892  285.04 0855.19
2009/04/23 07:06:06.0     -63    -18    -13     66     68 254.1 -11.3  33892  285.06 0855.19
2009/04/23 07:06:06.1     -67    -13     -8     69     70 258.5  -7.3  33892  285.04 0855.19
2009/04/23 07:06:06.2     -87      0     36     88     95 269.6  23.6  33896  285.13 0855.19
2009/04/23 07:06:06.3     -69      0     46     70     83 270.0  36.0  33892  285.04 0855.19
2009/04/23 07:06:06.4     -39      0     48     40     62 270.8  56.3  33892  285.04 0855.19
2009/04/23 07:06:06.5     -23      0     91     24     94 270.0  84.9  33892  285.06 0855.19
2009/04/23 07:06:06.6     -35    -10     79     37     87 253.2  73.5  33892  285.06 0855.19
2009/04/23 07:06:06.8     -72     33     47     80     92 294.8  33.5  33894  285.07 0855.19
2009/04/23 07:06:06.8     -42     41     28     59     65 314.0  27.2  33892  285.06 0855.19
2009/04/23 07:06:07.0     -30     19     25     36     43 302.4  38.6  33894  285.09 0855.19
2009/04/23 07:06:07.1       2      7     17      8     18  18.5  77.1  33894  285.07 0855.19
2009/04/23 07:06:07.1       0      0     34      0     34   0.0 -90.0  33898  285.14 0855.19
2009/04/23 07:06:07.3      25     34     57     43     71  36.1  58.5  33900  285.18 0855.19
2009/04/23 07:06:07.4       4     57     56     58     80   4.5  49.4  33902  285.23 0855.18
2009/04/23 07:06:07.5     -24     79     75     83    111 342.6  47.5  33902  285.21 0855.18
2009/04/23 07:06:07.6     -20     82     73     85    112 345.7  44.8  33904  285.26 0855.18
2009/04/23 07:06:07.7     -17     91     77     93    120 349.3  43.8  33904  285.26 0855.18
2009/04/23 07:06:07.8     -29     84     64     89    109 340.8  39.5  33904  285.26 0855.18
2009/04/23 07:06:07.9     -20     81     74     84    111 346.2  46.4  33904  285.24 0855.18
2009/04/23 07:06:08.0      -3     62     64     63     89 356.4  49.7  33904  285.26 0855.18
2009/04/23 07:06:08.1     -16     74     64     76     99 347.5  44.3  33904  285.26 0855.18
2009/04/23 07:06:08.2       1     70     62     71     94   0.9  45.8  33902  285.23 0855.18
2009/04/23 07:06:08.3      -3     53     64     54     83 356.4  54.8  33906  285.28 0855.18
2009/04/23 07:06:08.4      -4     53     52     54     74 355.6  51.1  33904  285.24 0855.18
2009/04/23 07:06:08.5     -25     74     93     79    122 340.8  54.8  33894  285.07 0855.18
2009/04/23 07:06:08.6     -50     77    105     92    139 327.0  54.3  33892  285.06 0855.18
2009/04/23 07:06:08.7     -32     87     82     93    123 339.5  45.9  33888  284.99 0855.18
2009/04/23 07:06:08.8     -23     78     83     82    116 343.1  49.7  33896  285.13 0855.18
2009/04/23 07:06:08.9     -35     49     80     61    100 324.8  59.0  33896  285.11 0855.18
2009/04/23 07:06:09.0     -54    104     74    118    139 332.4  35.5  33892  285.04 0855.18
2009/04/23 07:06:09.1     -48    136     71    145    161 340.4  28.0  33892  285.06 0855.18
2009/04/23 07:06:09.2    -133     73    -43    152    159 298.9 -15.8  33894  285.09 0855.18
2009/04/23 07:06:09.3    -116     77    -59    140    151 303.7 -28.5  33892  285.04 0855.18
2009/04/23 07:06:09.4     -94     69    -65    118    134 306.4 -35.8  33894  285.09 0855.18
2009/04/23 07:06:09.5     -33     86    -12     93     94 338.6  -7.7  33896  285.13 0855.18
2009/04/23 07:06:09.6      -3     86     -6     87     88 357.8  -4.1  33902  285.21 0855.18
2009/04/23 07:06:09.7      -1     65    -17     66     69 359.1 -14.5  33902  285.23 0855.18
2009/04/23 07:06:09.8       7     36    -14     37     39  11.6 -23.3  33900  285.18 0855.18
2009/04/23 07:06:09.9       9     83    -27     84     89   6.7 -18.1  33902  285.23 0855.18
2009/04/23 07:06:10.0      21     83    -27     86     91  14.3 -17.6  33898  285.14 0855.18
2009/04/23 07:06:10.1      58     91    -22    109    112  32.5 -11.3  33892  285.06 0855.18
2009/04/23 07:06:10.2      88     88    -13    125    126  45.2  -6.2  33892  285.06 0855.18
2009/04/23 07:06:10.3      45     84     30     96    101  28.5  17.3  33894  285.09 0855.18
2009/04/23 07:06:10.4      27     81     59     86    104  18.7  37.6  33898  285.14 0855.18
2009/04/23 07:06:10.5      -7     66     70     67     96 353.8  50.7  33900  285.18 0855.18
2009/04/23 07:06:10.6      13    106    -15    107    109   7.1  -8.2  33900  285.19 0855.18
2009/04/23 07:06:10.7      60    126    -28    140    143  25.4 -11.3  33904  285.26 0855.18
2009/04/23 07:06:10.8      78    140     16    161    162  29.0   5.9  33904  285.26 0855.18
2009/04/23 07:06:10.9      65     98    -25    118    121  33.8 -12.4  33902  285.23 0855.18
2009/04/23 07:06:11.0     -60     96     57    114    127 327.9  28.2  33904  285.24 0855.18
2009/04/23 07:06:11.1     -52     90     49    105    115 329.7  27.1  33900  285.19 0855.18
2009/04/23 07:06:11.2     -57     70     54     91    105 320.8  34.0  33906  285.28 0855.18
2009/04/23 07:06:11.3      24     50     40     56     68  25.4  39.5  33902  285.21 0855.18
2009/04/23 07:06:11.4      12     83     44     84     94   8.5  29.8  33902  285.23 0855.18
2009/04/23 07:06:11.5     -17     94     33     96    102 349.3  19.2  33904  285.24 0855.18
2009/04/23 07:06:11.6     -28     60     25     67     71 334.5  21.0  33904  285.26 0855.18
2009/04/23 07:06:11.7     -36     32     17     49     53 312.2  19.4  33904  285.26 0855.18
2009/04/23 07:06:11.8       1     20      8     21     22   4.4  21.0  33906  285.29 0855.18
2009/04/23 07:06:11.9       9      7     54     12     55  54.0  89.0  33910  285.36 0855.18
2009/04/23 07:06:12.0      -6     18     53     20     56 340.0  80.2  33910  285.34 0855.18
2009/04/23 07:06:12.1      16     16     37     24     44  45.1  63.6  33908  285.31 0855.18
2009/04/23 07:06:12.2      -1     42     40     43     58 357.4  49.0  33906  285.28 0855.18
2009/04/23 07:06:12.3      -3      0     56      4     56 270.0  90.0  33908  285.33 0855.18
2009/04/23 07:06:12.4     -60    -12    -18     62     65 258.5 -16.6  33906  285.29 0855.18
2009/04/23 07:06:12.5     -68    -43    -23     81     84 237.5 -21.2  33906  285.28 0855.18
2009/04/23 07:06:12.7     -58     -7     29     59     65 263.0  28.2  33908  285.31 0855.18
2009/04/23 07:06:12.8     -26     12     45     29     53 295.4  64.6  33908  285.31 0855.18
2009/04/23 07:06:12.9     -16     34     57     38     68 334.6  64.6  33906  285.29 0855.18
2009/04/23 07:06:13.0      -2     29     43     30     52 355.5  61.5  33908  285.33 0855.18
2009/04/23 07:06:13.1       3     62     27     63     68   3.6  24.1  33904  285.24 0855.18
2009/04/23 07:06:13.2      41     95     25    104    108  23.6  13.7  33906  285.28 0855.18
2009/04/23 07:06:13.3     -24     38     72     46     85 327.5  64.6  33900  285.19 0855.18
2009/04/23 07:06:13.4     -46     22     96     52    109 295.4  68.9  33900  285.19 0855.17
2009/04/23 07:06:13.5     -80     43    115     91    146 298.4  56.9  33900  285.18 0855.17
2009/04/23 07:06:13.6     -60    110     66    126    142 331.1  29.8  33900  285.18 0855.17
2009/04/23 07:06:13.7     -24     73     75     78    108 341.5  49.0  33900  285.18 0855.17
2009/04/23 07:06:13.8      11     72     53     73     90   8.9  39.7  33902  285.23 0855.17
2009/04/23 07:06:13.9      -4     57     82     58    100 355.5  61.1  33908  285.31 0855.17
2009/04/23 07:06:14.0      15     59     68     61     91  14.3  53.7  33912  285.38 0855.17
2009/04/23 07:06:14.1      41     20     67     46     81  63.8  62.1  33904  285.26 0855.17
2009/04/23 07:06:14.2       1     89     42     90     99   0.9  27.1  33904  285.26 0855.17
2009/04/23 07:06:14.3     -40     68     -3     80     81 329.3  -2.2  33902  285.23 0855.17
2009/04/23 07:06:14.4      28     19     57     34     66  55.8  65.7  33906  285.28 0855.17
2009/04/23 07:06:14.5     -15     45     63     48     79 340.8  59.0  33904  285.24 0855.17
2009/04/23 07:06:14.6     -62     39     37     74     82 302.4  28.2  33902  285.21 0855.17
2009/04/23 07:06:14.7    -103     20     36    105    112 281.0  19.2  33900  285.19 0855.17
2009/04/23 07:06:14.8     -96     15     60     98    114 278.8  35.5  33902  285.21 0855.17
2009/04/23 07:06:14.9     -65     21     51     69     85 288.2  40.1  33902  285.21 0855.17
2009/04/23 07:06:15.0     -23      0     51     24     56 270.0  73.1  33902  285.21 0855.17
2009/04/23 07:06:15.1      33    -33     57     48     74 134.9  56.3  33908  285.33 0855.17
2009/04/23 07:06:15.2      29      5     63     30     69  80.3  72.9  33908  285.31 0855.17
2009/04/23 07:06:15.3       3    -22     77     23     80 170.2  83.3  33908  285.31 0855.17
2009/04/23 07:06:15.4       0    -93     80     94    123 180.4  45.4  33912  285.39 0855.18
2009/04/23 07:06:15.5      24    -30     65     39     75 140.4  64.7  33910  285.36 0855.18
2009/04/23 07:06:15.6      26     14     65     30     71  61.1  73.1  33912  285.39 0855.18
2009/04/23 07:06:15.7      49      0     67     50     83  90.8  59.4  33910  285.36 0855.18
2009/04/23 07:06:15.8      75      3     92     76    119  87.4  56.4  33906  285.28 0855.18
2009/04/23 07:06:15.9      35    -18     78     40     87 117.1  70.8  33908  285.31 0855.18
2009/04/23 07:06:16.0     -11     -9     68     15     69 230.5  89.0  33910  285.36 0855.18
2009/04/23 07:06:16.1       0      7     86      8     86 357.3  90.0  33910  285.36 0855.18
2009/04/23 07:06:16.2     -20     20     53     29     60 315.0  68.8  33910  285.34 0855.18
2009/04/23 07:06:16.3     -38    -14     24     41     47 250.0  33.5  33908  285.33 0855.18
2009/04/23 07:06:16.4     -48    -15     27     51     57 251.8  30.3  33908  285.33 0855.18
2009/04/23 07:06:16.5     -63     20     28     67     72 287.7  23.1  33908  285.33 0855.18
2009/04/23 07:06:16.7     -38    -13     29     41     50 251.4  38.6  33906  285.29 0855.18
2009/04/23 07:06:16.8     -29    -33     17     45     48 221.4  20.0  33910  285.34 0855.18
2009/04/23 07:06:16.9     -25    -22     18     34     38 228.7  29.3  33912  285.38 0855.18
2009/04/23 07:06:17.0     -13    -22     25     26     36 210.7  52.0  33912  285.38 0855.18
2009/04/23 07:06:17.1      -6    -14      9     16     18 205.4  31.4  33908  285.31 0855.18
2009/04/23 07:06:17.2      -9    -26      7     28     30 200.0  15.3  33910  285.34 0855.18
2009/04/23 07:06:17.3     -32    -55     20     64     68 210.7  17.3  33908  285.31 0855.18
2009/04/23 07:06:17.4     -60    -48     29     78     83 231.4  21.0  33910  285.36 0855.19
2009/04/23 07:06:17.5     -98    -45     28    108    112 245.2  14.7  33912  285.38 0855.19
2009/04/23 07:06:17.6     -96    -62      4    115    116 237.1   2.3  33912  285.39 0855.19
2009/04/23 07:06:17.7     -57    -90     71    107    128 212.6  36.5  33910  285.34 0855.19
2009/04/23 07:06:17.8     -19   -123    153    125    197 188.9  56.4  33900  285.19 0855.19
2009/04/23 07:06:17.9     -58   -174     94    184    206 198.5  29.2  33902  285.23 0855.19
2009/04/23 07:06:18.0     -88   -146    103    171    199 211.0  33.7  33904  285.26 0855.19
2009/04/23 07:06:18.1     -37   -153     77    158    175 193.8  27.8  33902  285.23 0855.19
2009/04/23 07:06:18.2     -71   -178     84    192    209 201.8  25.2  33900  285.19 0855.19
2009/04/23 07:06:18.3      -2   -145     77    146    165 180.9  30.1  33906  285.29 0855.19
2009/04/23 07:06:18.4      32   -152    107    156    189 168.0  37.8  33910  285.36 0855.19
2009/04/23 07:06:18.5      32   -158    123    162    203 168.5  40.9  33910  285.36 0855.19
2009/04/23 07:06:18.6       6   -181     43    182    188 178.0  13.5  33904  285.26 0855.19
2009/04/23 07:06:18.7      -3   -157     63    158    170 181.4  22.5  33906  285.28 0855.19
2009/04/23 07:06:18.8     -36   -187      7    191    192 190.9   2.3  33904  285.26 0855.19
2009/04/23 07:06:18.9     -46   -196     47    202    208 193.4  13.2  33902  285.21 0855.19
2009/04/23 07:06:19.0     -61   -180     34    191    195 198.7  10.3  33902  285.21 0855.19
2009/04/23 07:06:19.1     -36   -154     16    159    160 193.4   5.9  33902  285.21 0855.19
2009/04/23 07:06:19.2     -60   -107     27    123    127 209.4  12.6  33902  285.23 0855.19
2009/04/23 07:06:19.3     -74    -94     23    120    123 218.3  11.1  33902  285.23 0855.19
2009/04/23 07:06:19.4     -78   -132     12    154    155 210.7   4.6  33904  285.24 0855.19
2009/04/23 07:06:19.5    -101   -100      9    143    144 225.2   3.8  33902  285.23 0855.19
2009/04/23 07:06:19.6     -51    -80    -22     96     99 212.5 -13.4  33902  285.21 0855.19
2009/04/23 07:06:19.7     -46    -72    -45     86     97 213.0 -34.2  33906  285.28 0855.19
2009/04/23 07:06:19.8     -47    -60    -35     77     84 217.8 -30.6  33904  285.24 0855.19
2009/04/23 07:06:19.9     -37    -51    -37     64     73 216.1 -36.8  33904  285.26 0855.19
2009/04/23 07:06:20.0     -43    -84    -12     95     96 207.2  -7.3  33902  285.23 0855.19
2009/04/23 07:06:20.1     -42   -102    -36    111    117 202.7 -18.1  33904  285.24 0855.19
2009/04/23 07:06:20.2     -42   -113    -28    121    125 200.5 -13.4  33902  285.23 0855.19
2009/04/23 07:06:20.3     -18    -92    -21     94     97 191.6 -12.9  33902  285.23 0855.19
2009/04/23 07:06:20.4      -1    -80      9     81     82 181.4   6.5  33902  285.21 0855.19
2009/04/23 07:06:20.5      35    -63     48     73     87 151.0  36.0  33902  285.23 0855.19
2009/04/23 07:06:20.6      54    -54     46     77     89 135.0  34.0  33902  285.21 0855.19
2009/04/23 07:06:20.7      36    -37     35     52     62 135.9  37.6  33906  285.29 0855.19
2009/04/23 07:06:20.8      17    -17     -3     25     26 135.0  -7.3  33904  285.24 0855.19
2009/04/23 07:06:20.9     -11    -37     16     39     42 196.9  23.0  33906  285.28 0855.19
2009/04/23 07:06:21.0       9    -49     36     50     61 169.3  39.7  33904  285.24 0855.19
2009/04/23 07:06:21.1      41    -33     33     53     62 128.6  35.5  33902  285.21 0855.19
2009/04/23 07:06:21.2      26    -22      5     35     36 129.6   9.0  33902  285.21 0855.19
2009/04/23 07:06:21.3      -1    -39     50     40     64 182.6  56.4  33900  285.18 0855.19
2009/04/23 07:06:21.4      17    -42     93     46    103 157.3  72.4  33900  285.19 0855.19
2009/04/23 07:06:21.5      29     25     29     39     48  48.7  40.7  33908  285.31 0855.19
2009/04/23 07:06:21.6     -29    -18     22     35     41 237.6  35.5  33906  285.28 0855.19
2009/04/23 07:06:21.7     -55    -27     41     62     74 243.8  35.6  33898  285.14 0855.19
2009/04/23 07:06:21.8     -91    -27     33     96    102 253.2  19.4  33894  285.07 0855.19
2009/04/23 07:06:21.9    -114    -21     14    116    117 259.4   7.1  33890  285.01 0855.19
2009/04/23 07:06:22.0    -103    -13      8    104    105 262.5   4.4  33892  285.04 0855.19
2009/04/23 07:06:22.1     -92     -4     -6     93     94 267.4  -3.7  33894  285.07 0855.19
2009/04/23 07:06:22.2     -49    -34     50     60     78 234.9  44.8  33894  285.07 0855.19
2009/04/23 07:06:22.3     -79    -33     57     86    103 247.4  36.5  33896  285.11 0855.19
2009/04/23 07:06:22.4    -116   -125    -58    171    181 223.0 -18.7  33898  285.14 0855.19
2009/04/23 07:06:22.5    -124   -130    -28    180    183 223.7  -8.8  33898  285.14 0855.19
2009/04/23 07:06:22.6    -136   -155     13    207    208 221.4   3.6  33898  285.16 0855.19
2009/04/23 07:06:22.7    -180   -132     14    224    225 233.8   3.8  33898  285.14 0855.19
2009/04/23 07:06:22.8    -221   -104    -26    245    247 244.8  -6.2  33898  285.15 0855.19
2009/04/23 07:06:22.9    -198    -90    -12    218    219 245.6  -3.2  33900  285.18 0855.19
2009/04/23 07:06:23.0    -171   -102    -25    200    202 239.3  -7.3  33894  285.09 0855.19
2009/04/23 07:06:23.1    -195    -92     40    216    220 244.8  10.6  33892  285.06 0855.19
2009/04/23 07:06:23.2    -178   -118     58    214    222 236.5  15.3  33890  285.02 0855.19
2009/04/23 07:06:23.3    -169   -139     49    219    225 230.5  12.6  33892  285.06 0855.19
2009/04/23 07:06:23.5    -191   -105     17    218    219 241.2   4.6  33896  285.11 0855.19
2009/04/23 07:06:23.5    -192   -110     86    222    238 240.2  22.1  33900  285.17 0855.19
2009/04/23 07:06:23.6    -190   -134     81    233    247 234.7  19.2  33900  285.17 0855.19
2009/04/23 07:06:23.7    -191   -191     32    271    273 225.1   6.9  33908  285.30 0855.19
2009/04/23 07:06:23.8    -190   -154      3    245    246 230.9   0.7  33908  285.32 0855.19
2009/04/23 07:06:23.9    -170   -115     -1    206    207 236.0  -0.5  33906  285.28 0855.19
2009/04/23 07:06:24.0    -142    -43     14    149    150 253.1   5.4  33900  285.18 0855.19
2009/04/23 07:06:24.1    -165    -50     35    173    177 252.9  11.6  33902  285.21 0855.19
2009/04/23 07:06:24.2    -186    -26     17    188    189 261.9   5.2  33904  285.26 0855.19
2009/04/23 07:06:24.3    -176    -55     12    185    186 252.5   3.8  33906  285.29 0855.19
2009/04/23 07:06:24.4    -154    -51     13    163    164 251.6   4.6  33902  285.23 0855.19
2009/04/23 07:06:24.5    -199    -60      2    208    209 253.2   0.8  33896  285.13 0855.19
2009/04/23 07:06:24.6    -182      0      2    183    184 270.0   0.8  33894  285.07 0855.19
2009/04/23 07:06:24.7     -87    -82     68    120    137 226.9  31.9  33892  285.04 0855.19
2009/04/23 07:06:24.8     -79    -85     41    117    125 222.8  19.4  33890  285.02 0855.19
2009/04/23 07:06:24.9     -46     -6     68     47     82 262.1  62.1  33902  285.21 0855.19
2009/04/23 07:06:25.0     -24      7     67     26     71 286.8  78.2  33906  285.28 0855.19
2009/04/23 07:06:25.1     -13      4     70     14     71 288.6  89.0  33904  285.26 0855.19
2009/04/23 07:06:25.2      30     19     46     36     58  57.5  56.4  33904  285.26 0855.19
2009/04/23 07:06:25.3      48    -30     81     57     99 122.4  61.1  33898  285.16 0855.19
2009/04/23 07:06:25.4       5    -74     87     75    114 175.5  55.4  33898  285.14 0855.19
2009/04/23 07:06:25.5       7    -62     41     63     75 172.9  35.6  33898  285.16 0855.19
2009/04/23 07:06:25.6     -17    -94     81     96    125 190.2  44.3  33898  285.14 0855.19
2009/04/23 07:06:25.7      -6    -96     78     97    124 183.6  42.7  33896  285.13 0855.19
2009/04/23 07:06:25.8      -5    -85     95     86    128 183.6  53.3  33898  285.16 0855.19
2009/04/23 07:06:25.9       4    -78    107     79    133 176.4  60.5  33898  285.16 0855.19
2009/04/23 07:06:26.0       2    -60     89     61    107 177.3  62.6  33900  285.19 0855.19
2009/04/23 07:06:26.1       0   -101    107    102    147 180.0  51.6  33906  285.28 0855.19
2009/04/23 07:06:26.2      -5    -97    104     98    142 183.1  52.1  33904  285.24 0855.19
2009/04/23 07:06:26.3       0    -98    123     99    157 179.5  56.9  33902  285.23 0855.19
2009/04/23 07:06:26.4      22    -76    121     80    145 164.0  64.1  33902  285.23 0855.18
2009/04/23 07:06:26.5       2      2     63      3     63  45.0  90.0  33902  285.23 0855.18
2009/04/23 07:06:26.6      -7     -3     86      8     86 244.7  90.0  33904  285.26 0855.18
2009/04/23 07:06:26.7     -46    -10     75     48     89 257.6  64.7  33906  285.28 0855.18
2009/04/23 07:06:26.8     -74    -46     92     88    127 238.0  51.2  33904  285.26 0855.18
2009/04/23 07:06:26.9     -69    -23     66     73     98 251.4  47.5  33902  285.23 0855.18
2009/04/23 07:06:27.0     -91    -26     65     95    115 254.1  37.6  33902  285.23 0855.18
2009/04/23 07:06:27.1    -103     -7     35    104    111 265.6  18.9  33904  285.26 0855.18
2009/04/23 07:06:27.2    -133     33    -38    138    144 284.2 -15.4  33904  285.26 0855.18
2009/04/23 07:06:27.3     -84      7     47     85     97 275.2  31.9  33902  285.21 0855.18
2009/04/23 07:06:27.4     -68    -43     48     81     94 237.5  34.0  33904  285.24 0855.18
2009/04/23 07:06:27.5     -41    -43     96     60    113 224.2  64.7  33902  285.23 0855.18
2009/04/23 07:06:27.6     -90    -59     88    108    139 236.7  43.7  33900  285.19 0855.18
2009/04/23 07:06:27.7    -143      4     63    144    157 271.7  25.1  33902  285.21 0855.18
2009/04/23 07:06:27.8    -105     35     68    111    130 288.4  34.4  33902  285.21 0855.18
2009/04/23 07:06:27.9    -136     40     59    142    153 286.4  23.1  33902  285.21 0855.18
2009/04/23 07:06:28.0     -79     13     53     81     96 279.7  35.6  33902  285.23 0855.18
2009/04/23 07:06:28.1    -106     29     85    111    139 285.5  41.6  33904  285.24 0855.18
2009/04/23 07:06:28.2       9     61    124     62    138   8.9  71.4  33906  285.29 0855.18
2009/04/23 07:06:28.3     134     53     86    145    168  68.3  33.5  33912  285.38 0855.18
2009/04/23 07:06:28.4     120     32     41    125    132  74.9  18.4  33916  285.44 0855.17
2009/04/23 07:06:28.5     122     20     14    124    125  80.4   6.9  33912  285.39 0855.17
2009/04/23 07:06:28.6      71     46     83     85    118  57.1  49.9  33912  285.39 0855.17
2009/04/23 07:06:28.7      25    -19     70     32     76 127.8  73.1  33910  285.34 0855.17
2009/04/23 07:06:28.8       5     10     86     12     86  25.4  90.0  33914  285.41 0855.17
2009/04/23 07:06:28.9     -77     16     74     79    108 282.4  48.0  33912  285.39 0855.17
2009/04/23 07:06:29.0       7     37     27     38     46  11.6  38.6  33910  285.34 0855.17
2009/04/23 07:06:29.1      33     10     84     35     91  73.2  76.1  33910  285.36 0855.17
2009/04/23 07:06:29.2      49    -15     75     52     91 107.7  62.1  33910  285.34 0855.17
2009/04/23 07:06:29.3      24    -74     33     78     84 161.7  23.6  33910  285.36 0855.17
2009/04/23 07:06:29.4      28    -62     -2     69     70 155.5  -2.2  33912  285.39 0855.17
2009/04/23 07:06:29.5      12    -62    -20     64     67 168.4 -23.8  33910  285.36 0855.17
2009/04/23 07:06:29.6       6    -84      4     85     86 175.6   2.8  33912  285.38 0855.17
2009/04/23 07:06:29.7      20   -102     -4    105    106 168.5  -2.2  33908  285.33 0855.17
2009/04/23 07:06:29.8     -13   -122     12    123    124 186.2   5.9  33910  285.36 0855.17
2009/04/23 07:06:29.9      -7    -87     32     88     93 184.9  20.0  33910  285.36 0855.17
2009/04/23 07:06:30.0       8   -113     70    114    133 175.5  35.5  33910  285.34 0855.17
2009/04/23 07:06:30.1     132    -57    116    144    184 113.5  43.3  33912  285.38 0855.17
2009/04/23 07:06:30.2      98    -32     57    104    118 108.2  31.3  33912  285.38 0855.17
2009/04/23 07:06:30.3      79    -52     56     95    110 123.3  33.5  33910  285.36 0855.17
2009/04/23 07:06:30.4      84    -41     80     94    123 116.2  45.4  33910  285.34 0855.18
2009/04/23 07:06:30.5     102    -33     80    108    134 108.2  40.1  33910  285.34 0855.18
2009/04/23 07:06:30.6      98    -90     39    134    140 132.7  16.3  33912  285.38 0855.18
2009/04/23 07:06:30.7     122    -94     15    155    156 127.8   5.7  33910  285.34 0855.18
2009/04/23 07:06:30.8      37   -137     44    142    149 164.8  17.4  33910  285.36 0855.18
2009/04/23 07:06:30.9      28   -110     64    114    130 165.7  31.9  33912  285.38 0855.18
2009/04/23 07:06:31.0      -8    -64     42     65     77 187.1  35.6  33912  285.38 0855.18
2009/04/23 07:06:31.1      13    -45     32     48     57 163.1  35.6  33910  285.36 0855.18
2009/04/23 07:06:31.2       3    -22     31     23     38 170.2  58.5  33912  285.39 0855.18
2009/04/23 07:06:31.3      -7     15     18     17     24 334.6  48.2  33912  285.38 0855.18
2009/04/23 07:06:31.4     -25     22     -6     34     35 311.3 -11.3  33910  285.36 0855.18
2009/04/23 07:06:31.5     -32     39    -16     51     53 320.3 -23.8  33912  285.39 0855.18
2009/04/23 07:06:31.6     -17     22    -24     28     36 322.2 -50.2  33912  285.38 0855.18
2009/04/23 07:06:31.7      -8     13    -22     16     27 327.5 -64.9  33912  285.39 0855.18
2009/04/23 07:06:31.8     -18     -3    -26     19     32 258.5 -64.9  33910  285.34 0855.18
2009/04/23 07:06:31.9     -14      3    -35     15     38 285.1 -81.5  33906  285.28 0855.18
2009/04/23 07:06:32.0       0     32    -33     33     46 359.1 -54.5  33908  285.31 0855.18
2009/04/23 07:06:32.1       0     32    -33     33     46 359.1 -54.5  33908  285.31 0855.18
2009/04/23 07:06:32.2     -10     50    -30     52     60 348.5 -36.8  33910  285.34 0855.18
2009/04/23 07:06:32.3      12     59    -22     61     64  11.5 -23.3  33910  285.34 0855.18
2009/04/23 07:06:32.4      42     35     -3     55     56  50.4  -3.1  33910  285.36 0855.18
2009/04/23 07:06:32.5      50     50    -23     72     75  45.1 -23.8  33912  285.38 0855.18
2009/04/23 07:06:32.6      50     18    -11     54     56  70.0 -11.3  33916  285.44 0855.18
2009/04/23 07:06:32.8      30     50    -37     59     69  30.7 -39.9  33912  285.39 0855.18
2009/04/23 07:06:32.9      -2     76    -46     77     89 358.2 -38.4  33912  285.38 0855.18
2009/04/23 07:06:32.9     -10     59    -51     60     78 350.2 -49.8  33914  285.43 0855.18
2009/04/23 07:06:33.0       5     48    -57     49     75   6.2 -59.8  33912  285.38 0855.18
2009/04/23 07:06:33.1       9     46    -44     47     64  11.6 -52.4  33912  285.39 0855.18
2009/04/23 07:06:33.3      22     50    -48     55     73  23.6 -50.2  33912  285.39 0855.18
2009/04/23 07:06:33.4      43     54    -57     70     90  38.7 -48.1  33914  285.41 0855.18
2009/04/23 07:06:33.5      21     23    -32     32     45  41.4 -54.5  33912  285.39 0855.18
2009/04/23 07:06:33.6      48    -50     26     70     74 136.7  20.0  33910  285.34 0855.18
2009/04/23 07:06:33.7      95      7     65     96    115  85.7  36.5  33912  285.39 0855.18
2009/04/23 07:06:33.8     110      8     72    111    132  85.7  35.6  33910  285.36 0855.18
2009/04/23 07:06:33.9     106     -2     23    107    110  91.3  12.2  33912  285.38 0855.18
2009/04/23 07:06:34.0      92      5     62     93    111  86.5  36.5  33912  285.39 0855.18
2009/04/23 07:06:34.1      67     13     73     69    100  78.5  52.1  33912  285.38 0855.18
2009/04/23 07:06:34.2      91      7     81     92    122  85.2  45.9  33912  285.38 0855.18
2009/04/23 07:06:34.3      45    -23     65     51     82 118.0  57.5  33912  285.38 0855.18
2009/04/23 07:06:34.4      46      3     79     47     91  85.6  66.2  33908  285.33 0855.18
2009/04/23 07:06:34.5      97      4     89     98    132  87.4  47.5  33914  285.43 0855.18
2009/04/23 07:06:34.6     110    -17     63    112    128  98.8  31.9  33912  285.38 0855.18
2009/04/23 07:06:34.7     120    -32     87    125    152 105.0  38.0  33912  285.38 0855.18
2009/04/23 07:06:34.8      53    -31     79     62    100 120.7  57.9  33912  285.39 0855.18
2009/04/23 07:06:34.9      38      0     99     39    106  90.0  77.6  33912  285.38 0855.18
2009/04/23 07:06:35.0      29     -5    124     30    127 101.5  86.9  33912  285.39 0855.18
2009/04/23 07:06:35.1      11     -1     97     12     97  97.9  90.0  33912  285.38 0855.18
2009/04/23 07:06:35.2     -72     -2    104     73    127 268.3  62.1  33912  285.39 0855.18
2009/04/23 07:06:35.3    -113      3     84    114    141 271.7  39.7  33912  285.39 0855.18
2009/04/23 07:06:35.4    -105    -33     78    111    135 252.7  38.0  33912  285.39 0855.18
2009/04/23 07:06:35.5     -43     -2     77     44     88 266.5  67.7  33914  285.41 0855.18
2009/04/23 07:06:35.6    -101    -13     -7    102    103 262.5  -4.1  33914  285.41 0855.18
2009/04/23 07:06:35.7     -37   -107    -14    114    115 199.2  -7.3  33914  285.43 0855.18
2009/04/23 07:06:35.8     -85    -19    -27     88     92 257.2 -22.3  33908  285.33 0855.18
2009/04/23 07:06:35.9    -194    -39    -11    198    199 258.5  -3.3  33912  285.38 0855.18
2009/04/23 07:06:36.0    -129    -33     35    134    139 255.4  14.7  33912  285.39 0855.18
2009/04/23 07:06:36.1    -147     50    -31    156    160 289.1 -11.3  33910  285.36 0855.18
2009/04/23 07:06:36.2    -169     35    -74    173    188 281.9 -28.7  33912  285.38 0855.18
2009/04/23 07:06:36.3    -179     20    -57    181    189 276.6 -23.0  33910  285.34 0855.18
2009/04/23 07:06:36.4    -200     15    -84    201    217 274.4 -28.2  33910  285.34 0855.18
2009/04/23 07:06:36.5    -177    -20    -89    179    199 263.4 -32.9  33914  285.41 0855.19
2009/04/23 07:06:36.6    -157    -23    -85    159    180 261.6 -35.0  33916  285.44 0855.19
2009/04/23 07:06:36.7    -215      3   -129    216    251 270.8 -38.1  33912  285.39 0855.19
2009/04/23 07:06:36.8    -208     77    -72    222    233 290.4 -23.8  33910  285.36 0855.19
2009/04/23 07:06:36.9    -164     -4   -117    165    202 268.5 -43.2  33914  285.43 0855.19
2009/04/23 07:06:37.0    -135    -31    -66    139    153 256.8 -31.6  33912  285.39 0855.19
2009/04/23 07:06:37.1    -172     29    -43    175    181 279.7 -13.9  33912  285.38 0855.19
2009/04/23 07:06:37.2    -156     27    -20    159    161 280.1  -7.3  33910  285.34 0855.19
2009/04/23 07:06:37.3    -130    -39     14    136    137 253.2   5.9  33910  285.36 0855.19
2009/04/23 07:06:37.4    -122    -90     19    152    154 233.6   7.1  33912  285.38 0855.19
2009/04/23 07:06:37.5     -81   -175     68    193    205 204.9  19.4  33916  285.44 0855.19
2009/04/23 07:06:37.6     -75   -118     17    140    142 212.5   7.1  33910  285.36 0855.19
2009/04/23 07:06:37.7     -75   -104     -5    129    130 215.6  -2.2  33908  285.33 0855.19
2009/04/23 07:06:37.8     -96   -109    -14    146    147 221.4  -5.6  33912  285.38 0855.19
2009/04/23 07:06:37.9    -116   -137      0    180    181 220.3   0.0  33914  285.43 0855.19
2009/04/23 07:06:38.0    -190   -113     16    222    223 239.3   4.2  33910  285.36 0855.19
2009/04/23 07:06:38.1    -262    -61    -44    270    274 256.8  -9.3  33910  285.34 0855.19
2009/04/23 07:06:38.2    -209    -94    -29    230    232 245.8  -7.3  33906  285.29 0855.19
2009/04/23 07:06:38.3    -176    -61     59    187    197 250.7  17.7  33912  285.38 0855.19
2009/04/23 07:06:38.4    -106    -99    144    146    205 226.9  50.0  33910  285.36 0855.19
2009/04/23 07:06:38.5     -75   -227     90    240    256 198.3  21.7  33918  285.49 0855.19
2009/04/23 07:06:38.6      19   -227     22    228    230 175.1   5.7  33914  285.43 0855.19
2009/04/23 07:06:38.7      16   -210     10    211    212 175.5   2.8  33912  285.39 0855.19
2009/04/23 07:06:38.8     -17   -191     51    192    199 185.3  15.0  33918  285.48 0855.19
2009/04/23 07:06:38.9     -16   -158     37    159    164 186.0  13.2  33914  285.41 0855.19
2009/04/23 07:06:39.0     -60   -182    118    192    225 198.5  35.0  33906  285.28 0855.19
2009/04/23 07:06:39.1     -14   -168    153    169    227 184.9  47.1  33910  285.36 0855.19
2009/04/23 07:06:39.2      -2   -154    172    155    231 181.0  53.3  33914  285.43 0855.19
2009/04/23 07:06:39.3     -77   -238    110    251    274 198.0  25.2  33912  285.37 0855.19
2009/04/23 07:06:39.4      -7    -24    167     26    169 196.9  90.0  33914  285.43 0855.19
2009/04/23 07:06:39.5     -99   -217    212    239    319 204.5  46.2  33914  285.42 0855.19
2009/04/23 07:06:39.6    -140   -262    183    298    349 208.1  34.8  33914  285.40 0855.19
2009/04/23 07:06:39.7    -122   -281     53    307    312 203.6   9.9  33914  285.40 0855.19
2009/04/23 07:06:39.8    -159   -309    122    348    369 207.3  19.4  33916  285.45 0855.19
2009/04/23 07:06:39.9    -125   -375     62    396    401 198.4   9.0  33910  285.35 0855.19
2009/04/23 07:06:40.0    -166   -120     10    206    207 234.0   2.9  33912  285.38 0855.19
2009/04/23 07:06:40.1    -153    -77    122    172    210 243.1  39.1  33914  285.41 0855.19
2009/04/23 07:06:40.2     -28    -79    128     84    153 199.6  64.6  33916  285.46 0855.19
2009/04/23 07:06:40.3     -27    -88    103     93    138 197.4  52.7  33918  285.48 0855.19
2009/04/23 07:06:40.4     -28    -87    106     92    140 198.3  54.3  33916  285.44 0855.19
2009/04/23 07:06:40.5     -52    -57     90     78    119 222.3  54.3  33914  285.43 0855.19
2009/04/23 07:06:40.6     -21    -69     69     73    100 196.9  48.0  33916  285.44 0855.19
2009/04/23 07:06:40.7      -8    -69     71     70     99 187.1  50.1  33916  285.44 0855.19
2009/04/23 07:06:40.8     -31    -93     83     99    129 198.7  43.8  33920  285.51 0855.19
2009/04/23 07:06:40.9     -52    -95     98    109    146 209.0  46.9  33916  285.46 0855.19
2009/04/23 07:06:41.0     -98    -53     72    112    133 241.6  35.6  33914  285.41 0855.19
2009/04/23 07:06:41.1     -76    -20     27     79     84 255.0  19.2  33910  285.34 0855.19
2009/04/23 07:06:41.2     -26    -83     26     88     92 197.8  16.8  33916  285.44 0855.19
2009/04/23 07:06:41.3     -13   -105     63    106    123 187.6  33.5  33916  285.44 0855.19
2009/04/23 07:06:41.4     -36   -136    111    141    179 195.1  42.4  33914  285.41 0855.19
2009/04/23 07:06:41.5     -34   -206     76    209    222 189.6  20.9  33916  285.44 0855.19
2009/04/23 07:06:41.6     -15   -199      0    200    201 184.5   0.0  33918  285.50 0855.19
2009/04/23 07:06:41.7     -58   -127     43    140    147 204.5  17.4  33918  285.50 0855.19
2009/04/23 07:06:41.8     -98   -140     24    172    174 215.0   8.2  33916  285.46 0855.19
2009/04/23 07:06:41.9     -26   -103     29    107    111 194.3  15.2  33916  285.44 0855.19
2009/04/23 07:06:42.0     -24    -91     42     95    103 194.7  25.1  33916  285.44 0855.19
2009/04/23 07:06:42.1     -15   -101     44    103    112 188.5  24.1  33916  285.46 0855.19
2009/04/23 07:06:42.2     -50    -72      4     88     89 214.7   2.9  33916  285.44 0855.19
2009/04/23 07:06:42.3     -88    -42    -27     98    102 244.2 -15.5  33916  285.44 0855.19
2009/04/23 07:06:42.4     -93     15    -29     95     99 279.2 -22.3  33908  285.31 0855.19
2009/04/23 07:06:42.5     -77      5    -22     78     81 274.4 -20.7  33904  285.24 0855.19
2009/04/23 07:06:42.6     -82    -24    -32     86     91 253.2 -25.4  33910  285.36 0855.19
2009/04/23 07:06:42.7    -121    -59    -32    135    139 243.8 -13.4  33914  285.41 0855.19
2009/04/23 07:06:42.8    -131    -73    -68    151    165 240.7 -30.1  33914  285.41 0855.19
2009/04/23 07:06:42.9    -210   -115    -72    240    251 241.2 -16.8  33916  285.45 0855.19
2009/04/23 07:06:43.0    -188   -119    -67    223    232 237.5 -21.8  33912  285.39 0855.19
2009/04/23 07:06:43.1    -168    -72    -62    183    193 246.7 -23.3  33918  285.50 0855.19
2009/04/23 07:06:43.2    -143    -69    -42    159    165 244.2 -15.0  33916  285.46 0855.19
2009/04/23 07:06:43.3    -111    -68    -67    131    147 238.5 -33.6  33918  285.50 0855.19
2009/04/23 07:06:43.4    -106    -45    -87    116    145 246.9 -44.5  33918  285.50 0855.19
2009/04/23 07:06:43.5     -86    -91    -36    126    132 223.2 -16.0  33914  285.41 0855.19
2009/04/23 07:06:43.6     -66    -66    -32     94    100 225.4 -19.1  33914  285.41 0855.19
2009/04/23 07:06:43.7    -122    -75    -31    144    148 238.5 -12.4  33916  285.46 0855.19
2009/04/23 07:06:43.8     -95    -60    -60    113    127 237.6 -34.2  33916  285.46 0855.19
2009/04/23 07:06:43.9     -97   -110    -42    147    153 221.4 -16.0  33916  285.44 0855.19
2009/04/23 07:06:44.0    -101   -101     -8    144    145 225.0  -3.2  33916  285.44 0855.19
2009/04/23 07:06:44.1    -133   -142     -3    195    196 223.0  -1.1  33912  285.39 0855.19
2009/04/23 07:06:44.2    -136   -177     -7    224    225 217.6  -1.8  33910  285.36 0855.19
2009/04/23 07:06:44.3    -149   -142    -23    206    208 226.4  -6.5  33916  285.44 0855.19
2009/04/23 07:06:44.4    -150   -164     45    223    228 222.5  11.6  33908  285.33 0855.19
2009/04/23 07:06:44.5    -278   -141     -4    312    313 243.1  -0.9  33916  285.44 0855.19
2009/04/23 07:06:44.6    -237    -10    -75    238    250 267.4 -17.6  33910  285.34 0855.19
2009/04/23 07:06:44.7    -217      6    -67    218    228 271.7 -22.1  33908  285.31 0855.19
2009/04/23 07:06:44.8    -256    -12   -124    257    285 267.2 -31.7  33918  285.49 0855.19
2009/04/23 07:06:44.9    -194    -85    -78    212    225 246.3 -25.4  33920  285.53 0855.19
2009/04/23 07:06:45.0    -228    -68    -47    238    243 253.4 -11.3  33918  285.49 0855.19
2009/04/23 07:06:45.1    -360   -111   -107    377    392 252.8 -15.9  33920  285.53 0855.19
2009/04/23 07:06:45.2    -355      0    -62    356    362 270.0  -9.9  33914  285.41 0855.19
2009/04/23 07:06:45.3    -375     -3    -68    376    383 269.4 -10.4  33936  285.78 0855.19
2009/04/23 07:06:45.4    -384    -30    -32    386    388 265.5  -4.9  33930  285.70 0855.19
2009/04/23 07:06:45.5    -273   -119   -120    299    322 246.4 -27.3  33922  285.54 0855.21
2009/04/23 07:06:45.6    -113   -203    -86    233    248 209.0 -25.4  33922  285.54 0855.21
2009/04/23 07:06:45.7     -97   -204     -6    227    228 205.5  -1.6  33910  285.36 0855.21
2009/04/23 07:06:45.8    -125   -158     15    202    203 218.3   4.4  33910  285.36 0855.21
2009/04/23 07:06:45.9    -190    -30    -35    193    197 260.8 -10.3  33912  285.39 0855.21
2009/04/23 07:06:46.0    -140    -89     -6    167    168 237.5  -2.2  33918  285.50 0855.21
2009/04/23 07:06:46.1    -137   -111      4    177    178 230.9   1.6  33910  285.36 0855.21
2009/04/23 07:06:46.2    -137    -98     34    169    173 234.3  11.6  33918  285.50 0855.21
2009/04/23 07:06:46.3    -102    -84    -77    133    153 230.5 -37.8  33922  285.56 0855.21
2009/04/23 07:06:46.4    -162   -161    -44    229    234 225.1 -10.9  33918  285.50 0855.21
2009/04/23 07:06:46.5    -235   -164    -68    287    296 235.0 -13.4  33908  285.32 0855.21
2009/04/23 07:06:46.6    -183   -167    -13    248    249 227.6  -3.1  33912  285.37 0855.21
2009/04/23 07:06:46.7    -202    -51    -71    209    221 255.6 -18.9  33906  285.28 0855.21
2009/04/23 07:06:46.8    -187    -91    -42    209    214 244.0 -11.3  33904  285.26 0855.21
2009/04/23 07:06:46.9    -201    -95    -32    223    226 244.7  -8.2  33908  285.31 0855.21
2009/04/23 07:06:47.0    -242    -41    -78    246    259 260.3 -17.6  33916  285.45 0855.21
2009/04/23 07:06:47.1    -228    -74    -30    240    242 251.8  -7.3  33910  285.34 0855.21
2009/04/23 07:06:47.2    -250    -85    -43    265    269 251.2  -9.4  33924  285.57 0855.21
2009/04/23 07:06:47.3    -223    -97    -77    244    257 246.4 -17.6  33920  285.52 0855.21
2009/04/23 07:06:47.4    -130   -145     -7    195    196 221.9  -2.2  33912  285.38 0855.21
2009/04/23 07:06:47.5    -168   -134      1    216    217 231.4   0.5  33906  285.29 0855.21
2009/04/23 07:06:47.6    -150    -67     37    165    170 246.0  12.9  33908  285.33 0855.21
2009/04/23 07:06:47.7    -129    -81    -37    153    158 238.0 -13.9  33910  285.36 0855.21
2009/04/23 07:06:47.8     -50   -106     34    118    123 205.4  16.3  33908  285.33 0855.21
2009/04/23 07:06:47.9     -61    -68     66     92    113 221.9  39.5  33908  285.31 0855.21
2009/04/23 07:06:48.0    -195     27   -116    198    229 278.1 -37.8  33910  285.34 0855.21
2009/04/23 07:06:48.1    -354     14   -106    355    370 272.4 -21.7  33932  285.73 0855.21
2009/04/23 07:06:48.2    -405    -44   -112    408    424 263.7 -15.4  33908  285.32 0855.21
2009/04/23 07:06:48.3    -332   -149    172    364    402 245.8  27.1  33910  285.35 0855.21
2009/04/23 07:06:48.4    -309    -97    113    325    345 252.5  19.3  33902  285.23 0855.21
2009/04/23 07:06:48.5    -288    -26     57    290    296 264.8  11.1  33898  285.14 0855.21
2009/04/23 07:06:48.6    -239    -60    132    247    280 255.8  30.3  33904  285.24 0855.21
2009/04/23 07:06:48.7    -187    -55    106    195    221 253.6  31.3  33906  285.29 0855.21
2009/04/23 07:06:48.8    -299    -30     16    301    302 264.1   3.1  33900  285.17 0855.21
2009/04/23 07:06:48.9    -188    -90     90    209    227 244.2  24.9  33898  285.16 0855.21
2009/04/23 07:06:49.0    -211    -33    114    214    242 261.0  30.3  33902  285.20 0855.21
2009/04/23 07:06:49.1    -193    123    114    230    256 302.6  28.2  33902  285.20 0855.21
2009/04/23 07:06:49.2    -188    171    102    255    274 312.2  23.0  33914  285.42 0855.21
2009/04/23 07:06:49.3    -205    150     61    255    263 306.2  13.5  33912  285.37 0855.21
2009/04/23 07:06:49.4    -223    184      6    290    291 309.5   1.2  33910  285.34 0855.21
2009/04/23 07:06:49.5    -237    145    -16    279    280 301.5  -3.3  33914  285.42 0855.22
2009/04/23 07:06:49.6    -179    147     22    232    234 309.5   5.4  33912  285.39 0855.22
2009/04/23 07:06:49.7    -213    142    -57    257    264 303.7 -12.6  33918  285.47 0855.22
2009/04/23 07:06:49.8    -206    130    -21    244    246 302.4  -5.1  33920  285.52 0855.22
2009/04/23 07:06:49.9    -164    118    -11    203    204 305.9  -3.3  33922  285.56 0855.22
2009/04/23 07:06:50.0    -219     58    -39    227    231 285.0  -9.8  33924  285.58 0855.22
2009/04/23 07:06:50.1    -153     97     13    182    183 302.4   4.4  33924  285.58 0855.22
2009/04/23 07:06:50.2     -76     98     43    125    133 322.1  19.2  33928  285.66 0855.22
2009/04/23 07:06:50.3     -47     71     49     86     98 326.6  31.9  33924  285.60 0855.22
2009/04/23 07:06:50.4     -40     54     24     68     73 323.9  19.4  33924  285.58 0855.22
2009/04/23 07:06:50.5     -36     65      3     75     76 331.0   2.9  33924  285.58 0855.22
2009/04/23 07:06:50.6     -97     91     -5    134    135 313.2  -2.2  33926  285.63 0855.22
2009/04/23 07:06:50.8     -91     77     23    120    123 310.0  11.0  33922  285.55 0855.22
2009/04/23 07:06:50.8    -122     79     54    146    155 302.9  21.0  33924  285.60 0855.22
2009/04/23 07:06:50.9    -133     44     -1    141    142 288.2  -0.7  33926  285.61 0855.22
2009/04/23 07:06:51.0     -99     55      2    114    115 299.3   1.2  33924  285.60 0855.22
2009/04/23 07:06:51.1     -60    110     57    126    138 331.5  25.7  33924  285.58 0855.22
2009/04/23 07:06:51.2     -45     99     19    109    111 335.5  10.1  33924  285.60 0855.22
2009/04/23 07:06:51.3     -36    138     36    143    148 345.3  14.3  33926  285.61 0855.22
2009/04/23 07:06:51.4     -81    111      2    138    139 323.9   1.2  33926  285.61 0855.22
2009/04/23 07:06:51.5      20     66     26     70     74  16.9  20.0  33928  285.65 0855.21
2009/04/23 07:06:51.6      39      3     -4     40     41  84.8  -6.2  33928  285.65 0855.21
2009/04/23 07:06:51.7      -1    -57    -22     58     62 181.8 -26.4  33928  285.66 0855.21
2009/04/23 07:06:51.8     -21    -85    -55     88    103 194.3 -39.9  33926  285.63 0855.21
2009/04/23 07:06:52.0     -32    -96    -31    102    106 198.5 -22.3  33924  285.60 0855.21
2009/04/23 07:06:52.0     -33   -130    -27    135    138 194.3 -11.3  33926  285.63 0855.21
2009/04/23 07:06:52.1     -36   -117    -36    123    128 197.4 -21.2  33924  285.60 0855.21
2009/04/23 07:06:52.2      58   -119    -67    133    148 153.7 -33.1  33926  285.63 0855.21
2009/04/23 07:06:52.3      56   -105    -80    120    144 151.9 -40.9  33924  285.60 0855.21
2009/04/23 07:06:52.4       2   -178    -76    179    194 179.1 -28.7  33922  285.55 0855.21
2009/04/23 07:06:52.5      14   -152    -40    153    159 174.7 -14.7  33924  285.58 0855.21
2009/04/23 07:06:52.6     -57   -105     -7    120    121 208.5  -3.7  33918  285.48 0855.21
2009/04/23 07:06:52.7     -84   -193     92    211    230 203.6  25.1  33920  285.53 0855.21
2009/04/23 07:06:52.8     -67   -168     59    182    192 201.9  18.1  33920  285.51 0855.21
2009/04/23 07:06:52.9     -27   -156     -8    159    160 189.8  -3.1  33924  285.58 0855.21
2009/04/23 07:06:53.0     -28   -138    -68    141    156 191.5 -31.7  33924  285.58 0855.21
2009/04/23 07:06:53.1      -3   -144    -50    145    154 181.4 -19.1  33928  285.65 0855.21
2009/04/23 07:06:53.2       0   -117    -80    118    142 180.0 -41.8  33924  285.60 0855.21
2009/04/23 07:06:53.3     -31    -95    -21    101    104 198.3 -11.9  33924  285.60 0855.21
2009/04/23 07:06:53.4     -16   -117      1    119    120 188.0   0.8  33926  285.61 0855.21
2009/04/23 07:06:53.5     -53   -120     45    132    140 203.7  18.9  33918  285.50 0855.20
2009/04/23 07:06:53.6     -53   -142     59    152    163 200.5  22.0  33918  285.48 0855.20
2009/04/23 07:06:53.7     -75    -77    149    108    184 224.1  60.6  33918  285.48 0855.20
2009/04/23 07:06:53.8     -32   -121    132    126    182 195.1  51.4  33916  285.44 0855.20
2009/04/23 07:06:53.9     -66    -80    123    104    161 219.6  55.6  33914  285.41 0855.20
2009/04/23 07:06:54.0    -113    -30     36    118    124 254.9  17.3  33910  285.34 0855.20
2009/04/23 07:06:54.1     -64     20     28     68     73 287.7  23.0  33914  285.41 0855.20
2009/04/23 07:06:54.2     -96     27     70    100    122 285.9  38.6  33914  285.41 0855.20
2009/04/23 07:06:54.3     -82    -77     65    113    130 226.8  32.9  33918  285.48 0855.20
2009/04/23 07:06:54.4     -89    -56      0    106    107 238.0  -0.3  33918  285.50 0855.20
2009/04/23 07:06:54.5     -53    -64     -7     84     85 219.6  -5.2  33918  285.48 0855.20
2009/04/23 07:06:54.6     -54    -12    -19     56     60 257.6 -18.7  33918  285.48 0855.20
2009/04/23 07:06:54.7     -51     48    -49     71     86 313.1 -42.4  33918  285.48 0855.20
2009/04/23 07:06:54.8     -85     71    -39    111    118 310.0 -19.6  33916  285.44 0855.20
2009/04/23 07:06:54.9     -87     52     24    102    105 300.7  13.7  33920  285.51 0855.20
2009/04/23 07:06:55.0     -54     20      2     58     59 290.8   2.9  33920  285.53 0855.20
2009/04/23 07:06:55.1     -39     13     48     42     63 288.4  53.3  33922  285.55 0855.20
2009/04/23 07:06:55.2     -53    -10     49     55     73 258.5  47.9  33918  285.50 0855.20
2009/04/23 07:06:55.3     -51    -10     62     53     81 258.5  54.8  33918  285.50 0855.20
2009/04/23 07:06:55.4     -69    -42     91     81    121 238.5  53.7  33920  285.53 0855.20
2009/04/23 07:06:55.5     -85    -51     92    100    135 239.3  47.9  33922  285.55 0855.18
2009/04/23 07:06:55.6     -28    -59     63     66     91 205.5  49.0  33924  285.58 0855.18
2009/04/23 07:06:55.7      10    -25     57     27     63 158.2  72.9  33924  285.58 0855.18
2009/04/23 07:06:55.8      11     15     61     19     63  36.1  80.7  33922  285.56 0855.18
2009/04/23 07:06:55.9     -23      7     50     25     55 288.4  71.9  33926  285.61 0855.18
2009/04/23 07:06:56.0      -6    -40     77     41     87 188.9  69.8  33928  285.66 0855.18
2009/04/23 07:06:56.1      -1    -72     95     73    119 180.9  58.5  33926  285.61 0855.18
2009/04/23 07:06:56.2     113    -40     94    120    152 109.5  42.7  33924  285.60 0855.18
2009/04/23 07:06:56.3      55    -45     60     72     93 129.6  44.3  33924  285.60 0855.18
2009/04/23 07:06:56.4      41    -24     60     48     76 120.7  56.4  33926  285.63 0855.18
2009/04/23 07:06:56.5      17    -54     43     57     71 162.2  41.7  33926  285.61 0855.18
2009/04/23 07:06:56.6     -23    -46     71     52     88 207.2  60.5  33926  285.61 0855.18
2009/04/23 07:06:56.7     -18    -54     89     57    105 198.5  64.6  33926  285.61 0855.18
2009/04/23 07:06:56.8     -44    -89     76    100    125 206.7  41.2  33924  285.60 0855.18
2009/04/23 07:06:56.9     -59   -124     64    138    152 205.3  27.1  33924  285.58 0855.18
2009/04/23 07:06:57.0     -67   -130     82    147    168 207.2  31.6  33924  285.58 0855.18
2009/04/23 07:06:57.1     -51   -117     99    128    161 203.6  41.7  33920  285.51 0855.18
2009/04/23 07:06:57.2      -5   -123    102    124    160 182.7  43.7  33924  285.60 0855.18
2009/04/23 07:06:57.3     -10   -136     69    137    153 184.5  28.7  33924  285.58 0855.18
2009/04/23 07:06:57.4     -48   -107     35    118    124 204.1  16.8  33922  285.56 0855.18
2009/04/23 07:06:57.5       9    -52     63     53     82 169.3  55.4  33922  285.56 0855.18
2009/04/23 07:06:57.6      -8    -94     82     95    125 184.9  45.8  33922  285.56 0855.18
2009/04/23 07:06:57.7     -28    -87     53     92    106 198.3  32.4  33926  285.61 0855.18
2009/04/23 07:06:57.8     -25    -76     72     81    108 198.7  46.4  33924  285.60 0855.18
2009/04/23 07:06:57.9     -58    -80     62    100    117 216.1  35.0  33924  285.58 0855.18
2009/04/23 07:06:58.0     -65    -77     56    101    115 220.1  31.4  33922  285.55 0855.18
2009/04/23 07:06:58.1    -105    -57     73    120    140 241.6  34.0  33924  285.58 0855.18
2009/04/23 07:06:58.2    -115     30     83    119    145 284.6  38.0  33920  285.51 0855.18
2009/04/23 07:06:58.3     -90     30     69     95    117 288.6  39.7  33920  285.53 0855.18
2009/04/23 07:06:58.4    -105     64      3    124    125 301.5   1.8  33920  285.53 0855.18
2009/04/23 07:06:58.5    -112     53     36    124    130 295.4  16.3  33922  285.55 0855.18
2009/04/23 07:06:58.6     -65     93     56    114    127 324.8  28.2  33922  285.55 0855.18
2009/04/23 07:06:58.7     -49     96     36    109    115 332.8  18.4  33922  285.56 0855.18
2009/04/23 07:06:58.8     -12     89     45     90    100 352.0  28.2  33926  285.61 0855.18
2009/04/23 07:06:58.9     -11     93     20     94     97 352.9  12.2  33924  285.60 0855.18
2009/04/23 07:06:59.0      35     97     -2    104    105  20.0  -1.3  33926  285.61 0855.18
2009/04/23 07:06:59.1      28    120     54    124    135  13.4  25.1  33924  285.60 0855.18
2009/04/23 07:06:59.2      31     99     47    104    114  17.8  26.2  33924  285.60 0855.18
2009/04/23 07:06:59.3      63     99      1    118    119  32.5   0.8  33924  285.58 0855.18
2009/04/23 07:06:59.5      30     87     10     93     94  19.2   6.5  33926  285.61 0855.18
2009/04/23 07:06:59.6      16     98     25    100    104   9.3  14.3  33926  285.63 0855.19
2009/04/23 07:06:59.7      33    101     27    107    111  18.3  14.3  33928  285.65 0855.19
2009/04/23 07:06:59.8       0    123     15    124    125 359.6   7.1  33928  285.65 0855.19
2009/04/23 07:06:59.9       8    106     36    107    114   4.5  18.9  33924  285.60 0855.19
2009/04/23 07:07:00.0      21    104     41    107    114  11.6  21.5  33926  285.63 0855.19
2009/04/23 07:07:00.1       1    122     10    123    124   0.9   5.0  33926  285.63 0855.19
2009/04/23 07:07:00.2     -44    100     21    110    113 335.9  11.0  33926  285.61 0855.19
2009/04/23 07:07:00.3     -51     94     34    108    114 331.5  17.4  33928  285.65 0855.19
2009/04/23 07:07:00.4     -45     71     35     85     91 327.5  23.6  33926  285.61 0855.19
2009/04/23 07:07:00.5     -25     76     34     81     87 341.5  23.6  33928  285.65 0855.19
2009/04/23 07:07:00.6     -22     67     25     71     76 341.3  19.4  33926  285.63 0855.20
2009/04/23 07:07:00.7     -62     67     46     92    102 317.2  28.2  33926  285.63 0855.20
2009/04/23 07:07:00.8     -94     77     24    122    125 309.5  11.1  33926  285.61 0855.20
2009/04/23 07:07:00.9    -122     61      7    137    138 296.6   3.3  33926  285.61 0855.20
2009/04/23 07:07:01.0    -134     91     -3    162    163 304.2  -1.1  33924  285.58 0855.20
2009/04/23 07:07:01.1    -111     96     -8    147    148 310.9  -3.1  33924  285.60 0855.20
2009/04/23 07:07:01.2    -122     44    -26    130    133 289.9 -11.3  33920  285.53 0855.20
2009/04/23 07:07:01.3     -93     43    -29    103    108 294.8 -16.0  33916  285.46 0855.20
2009/04/23 07:07:01.4     -80     68    -10    106    107 310.4  -5.6  33920  285.53 0855.20
2009/04/23 07:07:01.5     -59     74    -34     95    100 321.3 -24.4  33926  285.63 0855.20
2009/04/23 07:07:01.6     -30     64    -30     71     77 334.6 -27.5  33924  285.60 0855.20
2009/04/23 07:07:01.7       0     61     -3     62     63 359.1  -3.1  33924  285.60 0855.20
2009/04/23 07:07:01.8     -14     46     26     49     55 342.2  30.3  33926  285.61 0855.20
2009/04/23 07:07:01.9     -25     42     28     49     56 329.3  33.5  33924  285.58 0855.20
2009/04/23 07:07:02.0     -16     61     36     64     73 344.9  31.4  33924  285.60 0855.20
2009/04/23 07:07:02.1     -18     56     57     60     82 341.7  49.0  33922  285.56 0855.20
2009/04/23 07:07:02.2      15     21     76     26     80  36.1  80.7  33924  285.60 0855.20
2009/04/23 07:07:02.3      83     13     93     85    125  80.8  52.2  33924  285.58 0855.20
2009/04/23 07:07:02.4      95     35     42    102    110  69.6  23.6  33922  285.56 0855.20
2009/04/23 07:07:02.5      91     54     10    107    108  59.3   5.4  33922  285.55 0855.20
2009/04/23 07:07:02.6      91     27     37     96    102  73.2  22.0  33924  285.58 0855.22
2009/04/23 07:07:02.7      87     32     18     93     95  69.6  11.1  33924  285.58 0855.22
2009/04/23 07:07:02.8      92     30     36     97    103  71.8  21.0  33922  285.56 0855.22
2009/04/23 07:07:02.9      79      9     43     80     90  83.0  30.3  33926  285.61 0855.22
2009/04/23 07:07:03.0      73     29     17     79     81  68.3  12.2  33924  285.60 0855.22
2009/04/23 07:07:03.1      67     29     25     74     79  66.5  18.9  33926  285.61 0855.22
2009/04/23 07:07:03.2      89     19     59     92    109  77.6  35.6  33924  285.58 0855.22
2009/04/23 07:07:03.3      68     25     67     73     99  69.2  47.9  33922  285.56 0855.22
2009/04/23 07:07:03.4      92      9     84     93    125  84.3  46.9  33928  285.65 0855.22
2009/04/23 07:07:03.5      76     25     66     81    104  71.8  43.7  33928  285.66 0855.22
2009/04/23 07:07:03.6     103     37     28    110    114  70.0  14.3  33926  285.61 0855.22
2009/04/23 07:07:03.7      86     74     39    114    121  49.1  19.2  33924  285.60 0855.22
2009/04/23 07:07:03.8     103     94     15    140    141  47.8   6.5  33922  285.56 0855.22
2009/04/23 07:07:03.9     106     42     31    115    120  68.2  15.2  33922  285.55 0855.22
2009/04/23 07:07:04.0     119     23     67    122    139  79.0  31.3  33920  285.53 0855.22
2009/04/23 07:07:04.1      77     51     32     93     99  56.3  18.9  33922  285.56 0855.22
2009/04/23 07:07:04.2      39     44    -16     60     63  41.4 -15.5  33924  285.60 0855.22
2009/04/23 07:07:04.3      21     21      9     31     33  45.0  17.3  33922  285.56 0855.22
2009/04/23 07:07:04.4      13    -23     47     27     54 149.3  66.8  33924  285.58 0855.22
2009/04/23 07:07:04.5      18    -15     56     24     60 131.3  76.1  33922  285.55 0855.22
2009/04/23 07:07:04.6       9    -10     52     14     53 136.6  83.9  33920  285.51 0855.23
2009/04/23 07:07:04.7       0    -13     59     14     60 182.7  88.0  33918  285.48 0855.23
2009/04/23 07:07:04.8      10    -22     54     25     59 156.4  74.0  33922  285.55 0855.23
2009/04/23 07:07:04.9     -22    -47     61     53     80 205.5  54.3  33918  285.50 0855.23
2009/04/23 07:07:05.0     -32    -57     44     66     79 209.9  37.0  33918  285.48 0855.23
2009/04/23 07:07:05.1     -31    -95     75    101    125 198.5  40.1  33916  285.44 0855.23
2009/04/23 07:07:05.2     -27    -80     71     85    110 198.7  43.8  33916  285.46 0855.23
2009/04/23 07:07:05.3     -42    -95     66    105    124 204.1  35.5  33916  285.44 0855.23
2009/04/23 07:07:05.4     -13   -126     73    127    146 186.2  32.9  33924  285.58 0855.23
2009/04/23 07:07:05.5      -6   -121     80    122    145 183.1  36.0  33926  285.61 0855.23
2009/04/23 07:07:05.6      22   -128    112    130    171 170.2  45.4  33928  285.65 0855.23
2009/04/23 07:07:05.7      17   -160     65    161    173 173.7  23.0  33926  285.63 0855.23
2009/04/23 07:07:05.9      92   -142     -6    170    171 147.0  -2.1  33928  285.65 0855.23
2009/04/23 07:07:06.0      81   -111     16    138    140 143.9   6.9  33924  285.58 0855.23
2009/04/23 07:07:06.1     106   -122     57    162    172 139.0  19.4  33926  285.61 0855.23
2009/04/23 07:07:06.2      76   -230     37    243    246 161.5   8.8  33930  285.67 0855.23
2009/04/23 07:07:06.3      76   -228     87    241    257 161.5  19.9  33930  285.69 0855.23
2009/04/23 07:07:06.4      92   -219     69    238    248 157.1  16.3  33930  285.69 0855.23
2009/04/23 07:07:06.5     113   -203     95    233    251 151.0  23.4  33934  285.76 0855.23
2009/04/23 07:07:06.6      85   -220     88    236    251 158.8  21.3  33930  285.67 0855.24
2009/04/23 07:07:06.7      95   -249     98    267    284 159.1  21.0  33930  285.69 0855.24
2009/04/23 07:07:06.8     119   -296    148    320    352 158.1  26.6  33932  285.72 0855.24
2009/04/23 07:07:06.9      98   -330     70    345    352 163.4  11.5  33926  285.62 0855.24
2009/04/23 07:07:07.0      86   -325     42    337    340 165.1   7.1  33926  285.62 0855.24
2009/04/23 07:07:07.1      52   -332    -18    337    338 171.0  -3.1  33928  285.65 0855.24
2009/04/23 07:07:07.2      36   -311     -6    314    315 173.3  -1.2  33928  285.64 0855.24
2009/04/23 07:07:07.3     -59   -271    -13    278    279 192.4  -2.8  33926  285.61 0855.24
2009/04/23 07:07:07.4     -22   -316     62    317    324 184.0  11.1  33920  285.51 0855.24
2009/04/23 07:07:07.5      -7   -327     34    328    330 181.4   6.0  33924  285.57 0855.24
2009/04/23 07:07:07.6      40   -270     11    274    275 171.5   2.5  33924  285.59 0855.24
2009/04/23 07:07:07.7      96   -265      4    283    284 160.0   0.8  33934  285.76 0855.24
2009/04/23 07:07:07.8     123   -268     57    295    301 155.3  11.0  33936  285.79 0855.24
2009/04/23 07:07:07.9     122   -250     56    279    285 153.9  11.4  33940  285.86 0855.24
2009/04/23 07:07:08.0      85   -257     23    271    273 161.7   5.0  33936  285.77 0855.24
2009/04/23 07:07:08.1      52   -267      5    273    274 168.9   1.2  33930  285.69 0855.24
2009/04/23 07:07:08.2      56   -257    -14    264    265 167.6  -3.2  33930  285.67 0855.24
2009/04/23 07:07:08.3      29   -238     -9    240    241 172.9  -2.2  33932  285.71 0855.24
2009/04/23 07:07:08.4      27   -186    -54    189    197 171.5 -16.0  33928  285.65 0855.24
2009/04/23 07:07:08.5      47   -139    -18    147    149 161.3  -7.2  33930  285.70 0855.24
2009/04/23 07:07:08.6     -67   -201    -72    213    224 198.5 -23.3  33926  285.63 0855.25
2009/04/23 07:07:08.7     -44   -181    -67    187    199 193.8 -19.7  33930  285.68 0855.25
2009/04/23 07:07:08.8     -51   -182    -74    190    203 195.8 -26.7  33932  285.73 0855.25
2009/04/23 07:07:08.9     -11   -161    -63    162    173 184.2 -26.4  33930  285.68 0855.25
2009/04/23 07:07:09.0      29   -181    -50    184    191 170.9 -15.2  33936  285.78 0855.25
2009/04/23 07:07:09.1      15   -215    -16    216    217 175.8  -4.4  33934  285.76 0855.25
2009/04/23 07:07:09.2      40   -180    -54    185    192 167.3 -21.2  33932  285.73 0855.25
2009/04/23 07:07:09.3      86   -211     17    229    230 157.7   4.4  33926  285.63 0855.25
2009/04/23 07:07:09.4      78   -271      4    283    284 163.9   0.8  33930  285.69 0855.25
2009/04/23 07:07:09.5      29   -263    -14    265    266 173.5  -3.1  33930  285.67 0855.25
2009/04/23 07:07:09.6     -29   -266    -14    268    269 186.3  -3.2  33936  285.79 0855.25
2009/04/23 07:07:09.7     -66   -261     -5    270    271 194.2  -1.3  33936  285.77 0855.25
2009/04/23 07:07:09.8     -64   -269      8    277    278 193.4   1.7  33934  285.74 0855.25
2009/04/23 07:07:09.9     -80   -264     14    277    278 197.0   2.9  33930  285.67 0855.25
2009/04/23 07:07:10.0     -27   -292     -5    294    295 185.3  -1.2  33940  285.86 0855.25
2009/04/23 07:07:10.1     -13   -288    -31    289    291 182.7  -6.2  33938  285.81 0855.25
2009/04/23 07:07:10.2     -21   -277    -45    278    282 184.5  -9.3  33940  285.84 0855.25
2009/04/23 07:07:10.3      -7   -265    -54    266    272 181.6 -11.5  33940  285.84 0855.25
2009/04/23 07:07:10.4      -3   -251    -62    252    260 180.9 -13.9  33940  285.86 0855.25
2009/04/23 07:07:10.5     -16   -244    -53    245    251 183.8 -12.4  33940  285.84 0855.25
2009/04/23 07:07:10.6      -3   -239    -51    240    246 180.9 -12.2  33938  285.81 0855.25
2009/04/23 07:07:10.7      16   -239    -26    240    242 176.0  -6.2  33940  285.84 0855.25
2009/04/23 07:07:10.8     -17   -226    -46    227    232 184.5 -11.5  33940  285.87 0855.25
2009/04/23 07:07:10.9     -48   -235    -30    240    242 191.6  -7.3  33940  285.86 0855.25
2009/04/23 07:07:11.0     -18   -238    -47    239    244 184.5 -11.1  33940  285.86 0855.25
2009/04/23 07:07:11.1     -18   -230    -38    231    235 184.5  -9.3  33944  285.93 0855.25
2009/04/23 07:07:11.2     -16   -214    -46    215    220 184.5 -12.2  33944  285.92 0855.25
2009/04/23 07:07:11.3     -15   -202    -42    203    208 184.5 -11.9  33940  285.87 0855.25
2009/04/23 07:07:11.4     -17   -208    -34    209    212 184.7  -9.4  33938  285.83 0855.25
2009/04/23 07:07:11.5     -34   -207    -87    210    227 189.3 -28.0  33942  285.90 0855.25
2009/04/23 07:07:11.6     -41   -195    -80    200    215 192.0 -27.4  33942  285.90 0855.25
2009/04/23 07:07:11.7     -25   -185    -57    187    195 187.8 -22.1  33944  285.92 0855.25
2009/04/23 07:07:11.8     -31   -168    -61    171    182 190.7 -19.7  33944  285.92 0855.25
2009/04/23 07:07:11.9     -14   -155    -55    156    166 185.3 -19.7  33942  285.88 0855.25
2009/04/23 07:07:12.0     -26   -148    -36    151    156 190.2 -13.4  33944  285.93 0855.25
2009/04/23 07:07:12.1      -3   -139    -33    140    144 181.4 -13.3  33942  285.90 0855.25
2009/04/23 07:07:12.2     -14   -113    -36    114    120 187.1 -17.6  33942  285.90 0855.25
2009/04/23 07:07:12.3     -30   -115    -37    119    125 194.7 -17.6  33942  285.90 0855.25
2009/04/23 07:07:12.4     -30   -109    -39    114    121 195.6 -19.1  33944  285.92 0855.25
2009/04/23 07:07:12.5     -25    -95    -40     99    106 195.1 -27.4  33942  285.88 0855.25
2009/04/23 07:07:12.6     -29    -92    -34     97    102 197.4 -23.8  33938  285.82 0855.25
2009/04/23 07:07:12.7     -20    -84    -30     87     93 193.8 -19.1  33940  285.87 0855.25
2009/04/23 07:07:12.8     -21    -93    -28     96    100 192.9 -21.2  33940  285.85 0855.25
2009/04/23 07:07:12.9     -17    -94    -23     96     99 190.7 -13.9  33940  285.87 0855.25
2009/04/23 07:07:13.0     -32    -86    -24     92     96 200.5 -14.5  33940  285.87 0855.25
2009/04/23 07:07:13.1     -30    -94    -35     99    105 197.8 -23.8  33942  285.88 0855.25
2009/04/23 07:07:13.2     -15    -76    -22     78     82 191.6 -16.0  33940  285.87 0855.25
2009/04/23 07:07:13.3      -5    -80     -9     81     82 184.0  -6.7  33942  285.90 0855.25
2009/04/23 07:07:13.4       7    -84     -2     85     86 175.1  -1.8  33938  285.83 0855.25
2009/04/23 07:07:13.5      16   -109     15    111    113 171.5   8.0  33940  285.87 0855.25
2009/04/23 07:07:13.6       0   -103     20    104    107 179.5  11.1  33938  285.82 0855.25
2009/04/23 07:07:13.7      17   -119     15    121    122 171.5   7.1  33934  285.76 0855.25
2009/04/23 07:07:13.8       0   -114     10    115    116 180.4   5.4  33934  285.75 0855.25
2009/04/23 07:07:13.9      17   -133     31    135    139 172.4  13.1  33934  285.76 0855.25
2009/04/23 07:07:14.0       2   -132      6    133    134 179.1   2.9  33936  285.78 0855.25
2009/04/23 07:07:14.1       3   -140     -2    141    142 178.6  -1.2  33934  285.76 0855.25
2009/04/23 07:07:14.2      38   -126     11    132    133 163.1   4.9  33936  285.80 0855.25
2009/04/23 07:07:14.3      58   -123      7    137    138 154.7   3.3  33942  285.90 0855.25
2009/04/23 07:07:14.4      11   -144     21    145    147 175.6   8.5  33936  285.80 0855.25
2009/04/23 07:07:14.5       2   -154     -1    155    156 179.0  -0.5  33934  285.76 0855.25
2009/04/23 07:07:14.6       7   -152     -1    153    154 177.3  -0.7  33934  285.76 0855.26
2009/04/23 07:07:14.7      12   -170     -1    171    172 175.8  -0.5  33938  285.83 0855.26
2009/04/23 07:07:14.8     -21   -154     29    156    159 188.0  10.8  33936  285.78 0855.26
2009/04/23 07:07:14.9     -48   -153     24    161    163 197.6   8.5  33938  285.82 0855.26
2009/04/23 07:07:15.0     -22   -132     -4    134    135 189.8  -1.8  33938  285.82 0855.26
2009/04/23 07:07:15.1     -11   -143    -27    144    147 184.4 -10.9  33938  285.82 0855.26
2009/04/23 07:07:15.2     -39   -190    -61    195    205 191.8 -17.6  33938  285.83 0855.26
2009/04/23 07:07:15.3     -64   -216    -45    226    231 196.5 -11.3  33938  285.82 0855.26
2009/04/23 07:07:15.4     -88   -232    -21    249    250 200.9  -4.9  33938  285.81 0855.26
2009/04/23 07:07:15.5     -80   -220    -67    235    245 200.0 -16.0  33940  285.86 0855.26
2009/04/23 07:07:15.6     -95   -211    -47    232    237 204.3 -11.5  33942  285.88 0855.26
2009/04/23 07:07:15.7    -105   -219    -49    243    248 205.6 -11.5  33942  285.88 0855.26
2009/04/23 07:07:15.8    -101   -242    -62    263    271 202.7 -13.4  33942  285.88 0855.26
2009/04/23 07:07:15.9     -96   -310    -59    325    331 197.2 -10.3  33940  285.85 0855.26
2009/04/23 07:07:16.0    -117   -221    -26    251    253 207.9  -6.1  33944  285.91 0855.26
2009/04/23 07:07:16.1     -97   -196    -69    219    229 206.5 -22.8  33942  285.88 0855.26
2009/04/23 07:07:16.2     -89   -190    -85    210    226 205.2 -27.5  33940  285.87 0855.26
2009/04/23 07:07:16.3     -57   -170    -68    180    192 198.7 -25.9  33942  285.90 0855.26
2009/04/23 07:07:16.4     -54   -149    -81    159    178 200.1 -33.7  33942  285.88 0855.26
2009/04/23 07:07:16.5     -46   -139    -72    147    163 198.5 -32.4  33942  285.90 0855.26
2009/04/23 07:07:16.6     -93   -135    -46    165    172 214.5 -15.8  33944  285.93 0855.25
2009/04/23 07:07:16.7    -125   -196    -68    233    242 212.7 -21.0  33944  285.91 0855.25
2009/04/23 07:07:16.8    -136   -221    -35    260    263 211.7  -7.7  33940  285.86 0855.25
2009/04/23 07:07:16.9    -115   -208     -7    239    240 209.0  -1.8  33940  285.86 0855.25
2009/04/23 07:07:17.0    -107   -210     -9    236    237 207.1  -2.2  33940  285.86 0855.25
2009/04/23 07:07:17.1     -88   -179    -59    200    209 206.1 -16.4  33942  285.88 0855.25
2009/04/23 07:07:17.2     -82   -200    -53    217    224 202.3 -13.9  33944  285.92 0855.25
2009/04/23 07:07:17.3     -81   -182    -63    200    209 204.1 -22.5  33942  285.90 0855.25
2009/04/23 07:07:17.4     -71   -148    -68    165    178 205.6 -27.8  33942  285.90 0855.25
2009/04/23 07:07:17.5     -54   -159    -51    169    177 198.9 -17.0  33942  285.88 0855.25
2009/04/23 07:07:17.6     -36   -163    -49    167    174 192.5 -21.5  33944  285.92 0855.25
2009/04/23 07:07:17.7     -60   -129    -42    143    149 204.9 -21.2  33942  285.88 0855.25
2009/04/23 07:07:17.8     -78    -94    -82    123    147 219.6 -40.9  33940  285.85 0855.25
2009/04/23 07:07:17.9     -73    -92    -56    118    130 218.7 -31.6  33940  285.87 0855.25
2009/04/23 07:07:18.0     -59    -74    -55     95    109 218.7 -37.3  33942  285.88 0855.25
2009/04/23 07:07:18.1     -62    -83    -46    104    113 217.0 -30.1  33942  285.90 0855.25
2009/04/23 07:07:18.2     -52    -91    -50    105    116 209.9 -31.6  33942  285.88 0855.25
2009/04/23 07:07:18.3     -53   -124    -51    136    145 203.2 -25.4  33942  285.90 0855.25
2009/04/23 07:07:18.4     -58   -143    -57    155    165 202.3 -25.1  33944  285.93 0855.25
2009/04/23 07:07:18.5     -70   -154    -51    170    178 204.3 -17.0  33940  285.87 0855.25
2009/04/23 07:07:18.6     -54   -137    -31    148    152 201.4 -11.9  33938  285.83 0855.24
2009/04/23 07:07:18.7     -62   -138    -12    152    153 204.1  -4.6  33940  285.85 0855.24
2009/04/23 07:07:18.8     -83   -107    -37    136    142 217.9 -15.4  33942  285.90 0855.24
2009/04/23 07:07:18.9     -84    -97    -41    129    135 221.0 -23.8  33940  285.85 0855.24
2009/04/23 07:07:19.0     -87   -105    -40    137    143 219.7 -16.6  33940  285.87 0855.24
2009/04/23 07:07:19.1    -113    -82    -40    140    145 234.1 -20.7  33938  285.83 0855.24
2009/04/23 07:07:19.2    -128   -100    -45    163    169 232.2 -20.2  33938  285.83 0855.24
2009/04/23 07:07:19.3    -113   -135    -49    177    184 219.9 -15.5  33946  285.95 0855.24
2009/04/23 07:07:19.4    -122   -121    -58    173    183 225.2 -18.7  33948  285.98 0855.24
2009/04/23 07:07:19.5    -102   -120    -68    158    172 220.5 -29.3  33946  285.95 0855.24
2009/04/23 07:07:19.6     -88   -121    -89    150    174 216.0 -38.1  33944  285.93 0855.24
2009/04/23 07:07:19.7     -68   -134    -89    151    175 207.2 -38.1  33946  285.95 0855.24
2009/04/23 07:07:19.8     -90   -142    -70    169    182 212.5 -27.8  33942  285.90 0855.24
2009/04/23 07:07:19.9    -139   -131    -38    192    196 226.8 -11.3  33944  285.93 0855.24
2009/04/23 07:07:20.0    -128   -128    -35    182    186 225.0 -10.9  33946  285.95 0855.24
2009/04/23 07:07:20.1    -122   -119    -60    171    182 225.8 -19.6  33946  285.95 0855.24
2009/04/23 07:07:20.2    -171   -109    -37    203    207 237.5 -10.5  33946  285.95 0855.24
2009/04/23 07:07:20.3     -85   -106    -81    137    159 218.7 -37.9  33944  285.93 0855.24
2009/04/23 07:07:20.4    -102   -147    -73    180    194 214.7 -27.4  33946  285.95 0855.24
2009/04/23 07:07:20.5    -118   -147    -52    189    197 218.7 -15.5  33946  285.97 0855.24
2009/04/23 07:07:20.6    -111   -128    -44    170    176 221.0 -14.5  33946  285.95 0855.24
2009/04/23 07:07:20.7    -113   -121    -47    166    173 223.0 -16.0  33946  285.97 0855.24
2009/04/23 07:07:20.8    -113    -99    -41    151    156 228.7 -20.0  33946  285.95 0855.24
2009/04/23 07:07:20.9    -145    -74    -47    163    169 242.9 -21.2  33940  285.85 0855.24
2009/04/23 07:07:21.0    -174    -56    -56    183    191 252.1 -22.1  33940  285.87 0855.24
2009/04/23 07:07:21.1    -179    -47    -73    186    199 255.2 -26.9  33940  285.85 0855.24
2009/04/23 07:07:21.2    -163    -39    -87    168    189 256.5 -33.9  33940  285.87 0855.24
2009/04/23 07:07:21.3    -169    -58    -59    179    188 250.9 -23.8  33948  285.98 0855.24
2009/04/23 07:07:21.4    -164    -75    -50    181    187 245.4 -20.0  33948  286.00 0855.24
2009/04/23 07:07:21.5    -167    -88    -60    189    199 242.2 -17.6  33948  286.00 0855.24
2009/04/23 07:07:21.6    -180   -101    -62    207    216 240.7 -21.7  33948  285.98 0855.24
2009/04/23 07:07:21.7    -114   -169    -73    205    217 214.1 -24.8  33946  285.97 0855.24
2009/04/23 07:07:21.8    -134   -155    -92    206    225 220.8 -30.3  33944  285.93 0855.24
2009/04/23 07:07:21.9    -191   -129    -73    231    243 236.0 -17.5  33946  285.96 0855.24
2009/04/23 07:07:22.0    -152   -133    -68    203    215 228.7 -18.7  33940  285.87 0855.24
2009/04/23 07:07:22.1    -161   -136    -26    211    213 229.8  -7.2  33936  285.80 0855.24
2009/04/23 07:07:22.2    -131   -137    -79    190    205 223.7 -28.2  33946  285.95 0855.24
2009/04/23 07:07:22.3    -148   -157    -82    216    231 223.3 -26.1  33946  285.97 0855.24
2009/04/23 07:07:22.4    -188   -155    -71    244    254 230.5 -21.0  33944  285.93 0855.24
2009/04/23 07:07:22.5    -214   -136    -77    254    265 237.5 -21.7  33950  286.01 0855.24
2009/04/23 07:07:22.6    -255   -121    -98    283    299 244.6 -24.0  33948  285.98 0855.24
2009/04/23 07:07:22.7    -237   -121    -89    267    281 242.9 -23.6  33948  285.99 0855.24
2009/04/23 07:07:22.8    -246   -152    -96    290    305 238.4 -23.8  33946  285.94 0855.24
2009/04/23 07:07:22.9    -219   -133   -109    257    279 238.7 -28.7  33948  285.98 0855.24
2009/04/23 07:07:23.0    -211   -116   -123    241    270 241.1 -33.6  33946  285.94 0855.24
2009/04/23 07:07:23.1    -162    -98   -103    190    216 238.7 -35.2  33942  285.90 0855.24
2009/04/23 07:07:23.2    -103   -191    -44    218    223 208.3 -11.6  33942  285.88 0855.24
2009/04/23 07:07:23.3    -116   -152    -58    192    201 217.2 -17.0  33940  285.85 0855.24
2009/04/23 07:07:23.4    -176   -152    -73    233    245 229.1 -17.5  33942  285.89 0855.24
2009/04/23 07:07:23.5    -182   -147    -92    235    252 231.1 -26.7  33942  285.88 0855.24
2009/04/23 07:07:23.6    -174   -140   -103    224    246 231.1 -30.8  33944  285.91 0855.24
2009/04/23 07:07:23.7    -126   -104    -80    164    182 230.4 -32.2  33942  285.90 0855.24
2009/04/23 07:07:23.8     -81   -149    -71    170    184 208.7 -28.0  33940  285.87 0855.24
2009/04/23 07:07:23.9    -124   -132    -87    182    201 223.3 -31.6  33938  285.82 0855.24
2009/04/23 07:07:24.0    -108   -188    -70    217    228 209.9 -23.3  33934  285.76 0855.24
2009/04/23 07:07:24.1    -160   -200    -88    257    272 218.7 -18.9  33942  285.88 0855.24
2009/04/23 07:07:24.2    -120   -146    -58    190    198 219.4 -21.8  33942  285.90 0855.24
2009/04/23 07:07:24.3    -102   -193    -75    219    232 207.9 -19.1  33940  285.85 0855.24
2009/04/23 07:07:24.4     -60   -180    -66    190    201 198.5 -24.0  33942  285.88 0855.24
2009/04/23 07:07:24.5    -102   -160    -69    191    203 212.6 -25.1  33940  285.87 0855.24
2009/04/23 07:07:24.6     -61   -159    -49    171    177 201.2 -20.7  33940  285.87 0855.24
2009/04/23 07:07:24.7     -52   -158    -39    167    172 198.3 -13.4  33938  285.83 0855.24
2009/04/23 07:07:24.8     -61   -150    -29    163    166 202.3 -10.1  33938  285.83 0855.24
2009/04/23 07:07:24.9     -89   -156    -53    180    187 209.9 -21.2  33938  285.82 0855.24
2009/04/23 07:07:25.0    -126   -163    -31    207    210 217.8  -8.6  33938  285.82 0855.24
2009/04/23 07:07:25.1    -154   -187    -31    243    246 219.4  -7.5  33938  285.83 0855.24
2009/04/23 07:07:25.2    -124   -194    -76    231    243 212.6 -23.6  33938  285.83 0855.24
2009/04/23 07:07:25.3     -86   -215    -78    232    246 201.9 -18.7  33936  285.79 0855.24
2009/04/23 07:07:25.4     -30   -218    -51    221    227 188.0 -13.2  33938  285.82 0855.24
2009/04/23 07:07:25.5       9   -235    -51    236    242 177.8 -12.4  33938  285.83 0855.24
2009/04/23 07:07:25.6     -17   -245     -9    246    247 184.0  -2.3  33936  285.79 0855.23
2009/04/23 07:07:25.7     -56   -235    -57    242    249 193.6 -13.3  33934  285.76 0855.23
2009/04/23 07:07:25.8     -70   -207    -22    219    221 198.7  -6.0  33934  285.76 0855.23
2009/04/23 07:07:25.9     -82   -200    -15    217    218 202.3  -4.1  33932  285.73 0855.23
2009/04/23 07:07:26.0     -85   -175      1    195    196 206.1   0.5  33934  285.75 0855.23
2009/04/23 07:07:26.1     -34   -185     -3    189    190 190.5  -1.1  33932  285.73 0855.23
2009/04/23 07:07:26.2     -47   -174     -9    181    182 195.1  -3.1  33930  285.70 0855.23
2009/04/23 07:07:26.3     -59   -146    -44    158    164 202.3 -20.4  33934  285.75 0855.23
2009/04/23 07:07:26.4     -71   -164    -54    179    186 203.4 -21.5  33932  285.73 0855.23
2009/04/23 07:07:26.5     -50   -181    -37    188    192 195.6 -11.3  33936  285.78 0855.23
2009/04/23 07:07:26.6     -28   -173    -26    176    178 189.3  -8.6  33936  285.78 0855.23
2009/04/23 07:07:26.7     -20   -121    -44    123    131 189.7 -19.7  33936  285.78 0855.23
2009/04/23 07:07:26.8     -60   -127    -57    141    152 205.3 -27.4  33934  285.76 0855.23
2009/04/23 07:07:26.9     -67   -120    -47    138    145 209.4 -23.3  33936  285.78 0855.23
2009/04/23 07:07:27.0     -24   -173      8    175    176 188.0   2.9  33934  285.76 0855.23
2009/04/23 07:07:27.1      37   -139     45    145    153 164.9  17.4  33938  285.82 0855.23
2009/04/23 07:07:27.2      23   -122     65    125    140 169.3  29.3  33940  285.87 0855.23
2009/04/23 07:07:27.4     -27   -173     47    176    183 188.9  15.2  33940  285.85 0855.23
2009/04/23 07:07:27.5     -62   -177     50    188    195 199.6  15.0  33940  285.85 0855.23
2009/04/23 07:07:27.6     -77   -171     67    188    199 204.5  20.4  33940  285.85 0855.23
2009/04/23 07:07:27.7     -57   -202     53    210    217 195.8  14.3  33940  285.87 0855.23
2009/04/23 07:07:27.8    -120   -207     84    240    254 210.1  20.0  33940  285.86 0855.23
2009/04/23 07:07:27.9     -79   -176     91    194    214 204.3  27.1  33940  285.85 0855.23
2009/04/23 07:07:28.0     -85   -223     90    239    255 200.9  21.7  33944  285.91 0855.23
2009/04/23 07:07:28.1     -74   -209     70    222    233 199.6  17.7  33942  285.88 0855.23
2009/04/23 07:07:28.2     -54   -210     42    217    222 194.5  11.1  33940  285.85 0855.23
2009/04/23 07:07:28.3     -60   -171     44    182    188 199.4  13.7  33936  285.80 0855.23
2009/04/23 07:07:28.4     -83   -130     53    155    164 212.6  18.9  33942  285.88 0855.23
2009/04/23 07:07:28.5    -125   -164     40    207    212 217.2  11.1  33940  285.87 0855.23
2009/04/23 07:07:28.6    -140   -169     31    220    223 219.6   8.2  33944  285.92 0855.23
2009/04/23 07:07:28.7    -119   -207     18    239    240 209.9   4.4  33942  285.89 0855.23
2009/04/23 07:07:28.8    -136   -213      4    254    255 212.6   1.0  33942  285.88 0855.23
2009/04/23 07:07:28.9     -85   -195     -7    213    214 203.6  -2.1  33936  285.78 0855.23
2009/04/23 07:07:29.0     -44   -160     55    167    177 195.4  18.4  33938  285.83 0855.23
2009/04/23 07:07:29.1     -26   -189     46    191    197 188.0  13.7  33940  285.87 0855.23
2009/04/23 07:07:29.2       9   -173     31    174    177 176.9  10.3  33940  285.87 0855.23
2009/04/23 07:07:29.3      28   -202     47    205    211 172.0  13.1  33940  285.85 0855.23
2009/04/23 07:07:29.4     -31   -225     36    228    231 188.0   9.0  33940  285.87 0855.23
2009/04/23 07:07:29.5     -57   -179     -8    188    189 197.8  -2.6  33942  285.88 0855.23
2009/04/23 07:07:29.6     -38   -186     16    190    191 191.6   4.9  33940  285.87 0855.23
2009/04/23 07:07:29.7      -9   -186     65    187    197 182.9  20.0  33940  285.85 0855.22
2009/04/23 07:07:29.8    -120   -202     33    236    239 210.8   8.0  33936  285.79 0855.22
2009/04/23 07:07:29.9    -121   -149    -53    193    201 219.0 -15.5  33940  285.87 0855.22
2009/04/23 07:07:30.0     -78   -170     -7    188    189 204.7  -2.2  33940  285.87 0855.22
2009/04/23 07:07:30.1    -134   -159    -37    209    213 220.1 -10.3  33932  285.71 0855.22
2009/04/23 07:07:30.2    -132   -153    -23    203    205 220.8  -6.5  33934  285.75 0855.22
2009/04/23 07:07:30.3     -61   -180     -3    191    192 198.7  -1.1  33934  285.76 0855.22
2009/04/23 07:07:30.4     -67   -203     37    214    218 198.3   9.9  33934  285.76 0855.22
2009/04/23 07:07:30.5     -58   -219     15    227    228 195.1   3.8  33936  285.80 0855.22
2009/04/23 07:07:30.6     -40   -257     11    261    262 188.9   2.5  33938  285.83 0855.22
2009/04/23 07:07:30.7     -77   -230    -32    243    246 198.7  -7.7  33930  285.67 0855.22
2009/04/23 07:07:30.8     -70   -210     18    222    223 198.5   4.9  33932  285.73 0855.22
2009/04/23 07:07:30.9    -191   -148    -11    242    243 232.2  -2.6  33932  285.71 0855.22
2009/04/23 07:07:31.0    -238   -108    -52    262    268 245.6 -11.3  33934  285.74 0855.22
2009/04/23 07:07:31.1    -184   -254    -20    315    316 216.0  -3.8  33938  285.81 0855.22
2009/04/23 07:07:31.2     -69   -185     -1    198    199 200.7  -0.5  33938  285.82 0855.22
2009/04/23 07:07:31.3     -91   -162      0    187    188 209.4   0.0  33938  285.83 0855.22
2009/04/23 07:07:31.4    -101   -147      0    179    180 214.7   0.0  33932  285.73 0855.22
2009/04/23 07:07:31.5    -121   -163     11    204    205 216.5   3.1  33934  285.76 0855.22
2009/04/23 07:07:31.6    -106   -165     -3    197    198 212.7  -1.1  33930  285.70 0855.22
2009/04/23 07:07:31.7     -68   -164    -52    178    186 202.7 -16.4  33934  285.76 0855.22
2009/04/23 07:07:31.8    -136   -102   -106    171    201 233.1 -39.2  33932  285.71 0855.22
2009/04/23 07:07:31.9    -122    -53   -114    134    175 246.4 -49.2  33934  285.75 0855.22
2009/04/23 07:07:32.0    -111    -37    -90    118    148 251.6 -46.0  33934  285.75 0855.22
2009/04/23 07:07:32.1     -94   -107    -41    143    149 221.5 -16.0  33926  285.63 0855.22
2009/04/23 07:07:32.2     -60    -66    -44     90    100 221.9 -32.2  33930  285.68 0855.22
2009/04/23 07:07:32.3     -55    -29    -24     63     67 242.0 -25.4  33932  285.73 0855.22
2009/04/23 07:07:32.4     -12     35    -32     38     49 341.3 -48.2  33936  285.78 0855.22
2009/04/23 07:07:32.5      48    -23     -2     54     55 115.4  -2.2  33928  285.66 0855.22
2009/04/23 07:07:32.6      83     -5     34     84     90  93.9  23.6  33930  285.68 0855.22
2009/04/23 07:07:32.7      92    -28     50     97    109 107.3  29.3  33932  285.71 0855.22
2009/04/23 07:07:32.8      89    -11     87     90    125  97.5  49.9  33932  285.73 0855.22
2009/04/23 07:07:32.9      71    -23     86     75    114 108.4  54.3  33934  285.75 0855.22
2009/04/23 07:07:33.0      59    -19     85     63    105 108.2  60.0  33932  285.73 0855.22
2009/04/23 07:07:33.1      21      7     61     23     65  71.4  78.2  33932  285.71 0855.22
2009/04/23 07:07:33.2      15      4     48     16     50  74.9  81.0  33934  285.75 0855.22
2009/04/23 07:07:33.3       6     -7     23     10     25 140.4  77.1  33934  285.76 0855.22
2009/04/23 07:07:33.4      13      0     14     14     19  89.2  50.1  33934  285.76 0855.22
2009/04/23 07:07:33.5      -8     12     15     15     21 327.5  50.1  33932  285.71 0855.22
2009/04/23 07:07:33.6      -9    -10    -12     14     18 223.2 -56.4  33932  285.73 0855.22
2009/04/23 07:07:33.7       9     -1    -16     10     18 101.5 -69.1  33932  285.73 0855.22
2009/04/23 07:07:33.8      24      0    -29     25     38  90.0 -58.7  33934  285.75 0855.22
2009/04/23 07:07:33.9      30     13    -23     33     40  66.5 -43.0  33934  285.75 0855.22
2009/04/23 07:07:34.0      17     36     14     40     42  25.4  20.0  33932  285.71 0855.22
2009/04/23 07:07:34.1      22     26     25     35     43  39.7  39.7  33932  285.73 0855.22
2009/04/23 07:07:34.2      14      2     29     15     32  78.5  70.8  33932  285.73 0855.22
2009/04/23 07:07:34.3      11      0     26     12     28  90.0  75.0  33934  285.76 0855.22
2009/04/23 07:07:34.4      -3      0     -4      4      5 270.0 -54.5  33934  285.76 0855.22
2009/04/23 07:07:34.5       2      3    -24      4     24  32.5 -90.0  33934  285.75 0855.22
2009/04/23 07:07:34.6      -9      3    -24     10     26 291.7 -81.5  33934  285.75 0855.22
2009/04/23 07:07:34.7     -14      0    -32     15     35 270.0 -77.3  33930  285.70 0855.22
2009/04/23 07:07:34.8     -20     -6    -37     22     43 251.6 -71.2  33930  285.70 0855.22
2009/04/23 07:07:34.9       4    -26    -33     27     42 170.2 -59.8  33932  285.73 0855.22
2009/04/23 07:07:35.0      27    -24     -4     37     38 131.3  -7.3  33930  285.68 0855.22
2009/04/23 07:07:35.1      18    -47     30     51     59 158.2  34.4  33930  285.70 0855.22
2009/04/23 07:07:35.2      28    -83     43     88     97 161.3  27.3  33932  285.73 0855.22
2009/04/23 07:07:35.3      15    -91     13     93     94 170.7   8.0  33934  285.76 0855.22
2009/04/23 07:07:35.4     -22    -89     14     92     94 194.3   9.0  33932  285.73 0855.22
2009/04/23 07:07:35.5     -44    -75    -20     88     91 210.3 -12.9  33934  285.75 0855.22
2009/04/23 07:07:35.6     -30    -77    -30     83     88 201.8 -24.4  33932  285.73 0855.22
2009/04/23 07:07:35.7       4   -103     17    104    106 177.8   9.5  33932  285.73 0855.21
2009/04/23 07:07:35.8      -5    -70     -1     71     72 184.4  -1.3  33936  285.78 0855.21
2009/04/23 07:07:35.9     -21    -63    -29     67     73 198.3 -29.5  33932  285.73 0855.21
2009/04/23 07:07:36.0      -8    -40    -36     41     54 192.5 -51.3  33934  285.75 0855.21
2009/04/23 07:07:36.1     -53    -69    -59     88    105 217.4 -40.9  33928  285.66 0855.21
2009/04/23 07:07:36.2     -96    -32    -90    102    136 251.6 -50.3  33928  285.65 0855.21
2009/04/23 07:07:36.3     -64    -64    -56     91    106 224.7 -39.4  33928  285.65 0855.21
2009/04/23 07:07:36.4    -111    -80    -56    138    148 234.1 -27.5  33930  285.70 0855.21
2009/04/23 07:07:36.5    -110   -142    -51    180    188 217.8 -15.8  33930  285.70 0855.21
2009/04/23 07:07:36.6    -120   -146    -44    190    196 219.4 -13.2  33932  285.73 0855.21
2009/04/23 07:07:36.7     -92   -177    -47    200    206 207.6 -13.3  33930  285.70 0855.21
2009/04/23 07:07:36.8     -76   -138    -37    158    163 209.0 -13.4  33928  285.65 0855.21
2009/04/23 07:07:36.9    -114   -118    -47    165    172 224.1 -16.0  33924  285.60 0855.21
2009/04/23 07:07:37.0     -40    -71    -26     82     87 209.9 -17.6  33926  285.61 0855.21
2009/04/23 07:07:37.1       0    -63     25     64     68 180.9  21.0  33932  285.71 0855.21
2009/04/23 07:07:37.2     -53    -84     18    100    102 212.5  10.6  33930  285.68 0855.21
2009/04/23 07:07:37.3     -42    -88     39     98    105 205.5  23.0  33932  285.71 0855.21
2009/04/23 07:07:37.4     -23    -82     30     86     92 195.6  19.4  33932  285.71 0855.21
2009/04/23 07:07:37.5     -23    -95     37     98    104 193.8  21.0  33930  285.68 0855.21
2009/04/23 07:07:37.6     -33    -87     76     94    120 200.9  43.7  33930  285.68 0855.21
2009/04/23 07:07:37.7    -128   -105     57    166    176 230.7  18.9  33932  285.73 0855.22
2009/04/23 07:07:37.8     -72   -126    105    146    179 209.9  39.5  33934  285.75 0855.22
2009/04/23 07:07:37.9     -63   -256     25    264    266 194.0   5.4  33934  285.74 0855.22
2009/04/23 07:07:38.0     -64   -207     23    217    219 197.2   6.1  33928  285.66 0855.22
2009/04/23 07:07:38.1     -63   -196     11    206    207 197.8   3.1  33932  285.73 0855.22
2009/04/23 07:07:38.2     -54   -179     21    188    190 196.9   6.5  33936  285.78 0855.22
2009/04/23 07:07:38.3     -13   -208      0    209    210 183.8   0.2  33938  285.82 0855.22
2009/04/23 07:07:38.4      14   -214    -19    215    216 176.2  -5.2  33934  285.76 0855.22
2009/04/23 07:07:38.5     -14   -194    -22    195    197 184.4  -6.5  33934  285.75 0855.22
2009/04/23 07:07:38.6      -1   -190    -17    191    192 180.5  -5.2  33934  285.76 0855.22
2009/04/23 07:07:38.7    -112   -368    -90    385    396 196.9 -13.3  33992  286.73 0855.22
2009/04/23 07:07:38.8     -53   -288      5    293    294 190.6   1.0  33934  285.76 0855.22
2009/04/23 07:07:38.9     -55   -244    -26    251    253 192.7  -6.0  33936  285.77 0855.22
2009/04/23 07:07:39.0      -7   -250     10    251    252 181.8   2.3  33936  285.77 0855.22
2009/04/23 07:07:39.1     -13   -268      8    269    270 182.9   1.8  33936  285.77 0855.22
2009/04/23 07:07:39.2       9   -214     29    215    217 177.5   7.8  33934  285.76 0855.22
2009/04/23 07:07:39.3       3   -212     33    213    216 179.0   9.0  33936  285.80 0855.22
2009/04/23 07:07:39.4      -6   -214     -4    215    216 181.8  -1.1  33932  285.73 0855.22
2009/04/23 07:07:39.5     -21   -218     -4    220    221 185.6  -1.3  33936  285.78 0855.22
2009/04/23 07:07:39.6     -18   -235      7    236    237 184.4   1.8  33938  285.81 0855.22
2009/04/23 07:07:39.7      -7   -241     25    242    244 181.8   5.9  33936  285.77 0855.21
2009/04/23 07:07:39.8     -27   -243     36    245    248 186.5   8.5  33936  285.77 0855.21
2009/04/23 07:07:39.9     -12   -235     20    236    237 183.1   4.9  33936  285.77 0855.21
2009/04/23 07:07:40.0     -23   -274     24    276    278 184.9   5.0  33932  285.72 0855.21
2009/04/23 07:07:40.1     -21   -274     23    275    277 184.5   4.9  33932  285.72 0855.21
2009/04/23 07:07:40.2     -30   -281     43    283    287 186.2   8.8  33936  285.79 0855.21
2009/04/23 07:07:40.3     -48   -287     41    292    295 189.6   8.0  33934  285.76 0855.21
2009/04/23 07:07:40.4     -39   -255     80    258    271 188.7  17.3  33932  285.72 0855.21
2009/04/23 07:07:40.5     -72   -250     71    261    271 196.1  15.3  33934  285.74 0855.21
2009/04/23 07:07:40.6     -52   -257     66    263    272 191.6  14.2  33936  285.77 0855.21
2009/04/23 07:07:40.7     -41   -271     64    275    283 188.7  13.1  33934  285.74 0855.21
2009/04/23 07:07:40.8     -47   -279     83    284    297 189.7  16.4  33936  285.79 0855.21
2009/04/23 07:07:40.9     -31   -313     59    315    321 185.8  10.7  33936  285.77 0855.21
2009/04/23 07:07:41.0     -27   -290     79    292    303 185.4  15.2  33934  285.74 0855.21
2009/04/23 07:07:41.1      -5   -301     58    302    308 181.1  11.0  33934  285.76 0855.21
2009/04/23 07:07:41.2     -14   -290     79    291    302 182.9  15.2  33934  285.74 0855.21
2009/04/23 07:07:41.3       0   -291    106    292    310 180.0  20.9  33936  285.77 0855.21
2009/04/23 07:07:41.4      -8   -276     23    277    279 181.8   4.9  33934  285.76 0855.21
2009/04/23 07:07:41.5     -28   -342     34    344    346 184.7   5.7  33934  285.75 0855.21
2009/04/23 07:07:41.6     -38   -362     42    365    368 186.1   6.7  33936  285.77 0855.21
2009/04/23 07:07:41.7      16   -329    116    330    350 177.1  19.4  33934  285.75 0855.21
2009/04/23 07:07:41.8      14   -307     89    308    321 177.3  16.1  33934  285.74 0855.21
2009/04/23 07:07:41.9     -14   -313     51    314    319 182.7   9.3  33934  285.76 0855.21
2009/04/23 07:07:42.0      24   -310    108    312    331 175.5  19.2  33938  285.81 0855.21
2009/04/23 07:07:42.1     -51   -332     65    336    343 188.8  11.0  33936  285.77 0855.21
2009/04/23 07:07:42.2      63   -264    100    272    289 166.6  21.0  33934  285.76 0855.21
2009/04/23 07:07:42.3     -40   -257    109    261    282 188.9  24.1  33934  285.76 0855.21
2009/04/23 07:07:42.4      -2   -199    104    200    225 180.7  29.3  33938  285.83 0855.21
2009/04/23 07:07:42.5      -4   -175     85    176    195 181.6  27.3  33932  285.71 0855.21
2009/04/23 07:07:42.6      11   -131    127    132    183 175.1  49.0  33936  285.80 0855.21
2009/04/23 07:07:42.7     -13   -142    111    143    181 185.3  42.0  33936  285.78 0855.22
2009/04/23 07:07:42.8     -13   -172    120    173    210 184.5  38.0  33932  285.71 0855.22
2009/04/23 07:07:42.9     -15   -173    148    174    228 185.1  44.5  33936  285.78 0855.22
2009/04/23 07:07:43.0      -8   -163    124    164    205 183.1  41.2  33936  285.78 0855.22
2009/04/23 07:07:43.1      26   -128    120    131    177 168.5  47.5  33934  285.76 0855.22
2009/04/23 07:07:43.2      28    -87    105     92    139 161.7  54.3  33934  285.76 0855.22
2009/04/23 07:07:43.3     112   -106    101    155    185 133.2  36.0  33932  285.73 0855.22
2009/04/23 07:07:43.4     126   -148     94    195    216 139.7  27.3  33934  285.75 0855.22
2009/04/23 07:07:43.5      80   -196     77    212    225 157.7  20.7  33934  285.75 0855.22
2009/04/23 07:07:43.6     -12   -215    102    216    238 183.4  27.2  33932  285.71 0855.22
2009/04/23 07:07:43.7      32   -200     85    203    220 170.7  24.1  33932  285.71 0855.22
2009/04/23 07:07:43.8     -10   -159     68    160    173 183.6  24.3  33932  285.73 0855.22
2009/04/23 07:07:43.9      -8   -108     57    109    123 184.5  29.3  33932  285.71 0855.22
2009/04/23 07:07:44.0       4    -26     66     27     71 170.2  77.1  33930  285.68 0855.22
2009/04/23 07:07:44.1     -47   -116     81    126    149 202.3  35.6  33930  285.70 0855.22
2009/04/23 07:07:44.2     -28    -83     51     88    101 199.2  32.4  33932  285.71 0855.22
2009/04/23 07:07:44.3     -12   -108     59    109    123 186.7  31.3  33930  285.68 0855.22
2009/04/23 07:07:44.4     -10   -132     77    133    153 184.4  33.4  33930  285.68 0855.22
2009/04/23 07:07:44.5      -2   -155     98    156    184 180.9  35.5  33932  285.71 0855.22
2009/04/23 07:07:44.6      29   -137     99    141    172 168.0  38.4  33928  285.65 0855.22
2009/04/23 07:07:44.7      54    -57     90     79    119 136.8  54.3  33934  285.75 0855.22
2009/04/23 07:07:44.8      -1    -72     74     73    103 180.9  49.7  33930  285.68 0855.22
2009/04/23 07:07:44.9      39   -113    107    120    160 160.8  46.4  33934  285.76 0855.22
2009/04/23 07:07:45.0      35   -131     99    136    168 164.9  39.7  33932  285.73 0855.22
2009/04/23 07:07:45.1      38    -98    117    106    157 158.6  53.3  33930  285.70 0855.22
2009/04/23 07:07:45.2      35    -10     49     37     61 106.8  59.4  33934  285.75 0855.22
2009/04/23 07:07:45.3      63      8     50     64     81  82.1  42.2  33932  285.71 0855.22
2009/04/23 07:07:45.4      95    -52     59    109    123 118.9  31.3  33934  285.75 0855.22
2009/04/23 07:07:45.5     115    -57     47    129    137 116.6  21.0  33934  285.76 0855.22
2009/04/23 07:07:45.6     116    -56     11    129    130 115.8   4.9  33932  285.73 0855.22
2009/04/23 07:07:45.7      95    -61     17    114    116 122.9   8.5  33934  285.75 0855.22
2009/04/23 07:07:45.8      80    -57     35     99    106 125.5  19.4  33932  285.71 0855.22
2009/04/23 07:07:45.9      88    -73     57    115    128 129.5  28.2  33930  285.70 0855.22
2009/04/23 07:07:46.0      92    -58     70    109    129 122.4  35.6  33932  285.71 0855.22
2009/04/23 07:07:46.1       8    -43     91     44    101 169.3  72.8  33932  285.73 0855.22
2009/04/23 07:07:46.2      38     26     70     47     84  55.8  63.6  33934  285.75 0855.22
2009/04/23 07:07:46.3     -27    -25     68     38     77 226.9  68.8  33934  285.76 0855.22
2009/04/23 07:07:46.4       0    -63     65     64     91 180.9  50.1  33932  285.73 0855.22
2009/04/23 07:07:46.5      -6    -70     64     71     95 185.3  46.9  33930  285.68 0855.22
2009/04/23 07:07:46.6       0    -84     85     85    120 180.5  50.1  33930  285.68 0855.22
2009/04/23 07:07:46.7     -13    -87     65     89    110 188.9  39.7  33932  285.71 0855.21
2009/04/23 07:07:46.8      -8   -116     90    117    147 184.4  41.7  33930  285.68 0855.21
2009/04/23 07:07:46.9      -4   -100    115    101    153 182.7  54.2  33932  285.71 0855.21
2009/04/23 07:07:47.0      10    -31     98     33    103 161.3  81.0  33928  285.65 0855.21
2009/04/23 07:07:47.1      -1     -6     53      7     53 189.7  90.0  33934  285.76 0855.21
2009/04/23 07:07:47.2      -1    -98    105     99    144 180.9  51.6  33930  285.68 0855.21
2009/04/23 07:07:47.3      -6    -78    115     79    139 184.5  62.6  33932  285.71 0855.21
2009/04/23 07:07:47.4     -13   -126    126    127    178 186.2  50.0  33930  285.70 0855.21
2009/04/23 07:07:47.5      35    -74    127     82    151 154.6  64.6  33934  285.75 0855.21
2009/04/23 07:07:47.6     -10   -136    168    137    216 184.5  56.4  33932  285.73 0855.21
2009/04/23 07:07:47.7       2    -94    179     95    202 178.2  69.8  33934  285.76 0855.21
2009/04/23 07:07:47.8      20    -76    170     79    187 164.9  73.2  33934  285.76 0855.21
2009/04/23 07:07:47.9     -37   -113    159    119    198 198.3  59.4  33934  285.75 0855.21
2009/04/23 07:07:48.0     -27    -71    160     77    177 200.9  72.8  33934  285.76 0855.21
2009/04/23 07:07:48.1     -65   -127    192    143    239 207.2  59.6  33932  285.71 0855.21
2009/04/23 07:07:48.2     -97    -41    140    106    175 246.9  59.0  33930  285.70 0855.21
2009/04/23 07:07:48.3      16      1    122     17    123  85.7  90.0  33932  285.73 0855.21
2009/04/23 07:07:48.4     -44   -107    144    116    184 202.3  56.9  33934  285.75 0855.21
2009/04/23 07:07:48.5     -75    -77    115    108    157 224.1  52.0  33932  285.71 0855.21
2009/04/23 07:07:48.6     -32   -119    144    124    190 195.2  55.0  33934  285.76 0855.21
2009/04/23 07:07:48.7     -24   -117    150    120    192 191.6  56.9  33932  285.71 0855.21
2009/04/23 07:07:48.8     -32   -123    130    128    182 194.7  50.1  33934  285.76 0855.21
2009/04/23 07:07:48.9      17    -63    123     66    139 164.9  69.3  33932  285.71 0855.21
2009/04/23 07:07:49.0      26    -80     98     85    129 162.2  54.8  33930  285.68 0855.21
2009/04/23 07:07:49.1      22   -109     97    112    148 168.5  45.4  33928  285.66 0855.21
2009/04/23 07:07:49.2      89    -61     56    109    122 124.6  29.3  33926  285.61 0855.21
2009/04/23 07:07:49.3      73    -96     41    121    128 142.6  18.9  33926  285.63 0855.21
2009/04/23 07:07:49.4      -9    -27    146     29    148 198.5  89.1  33930  285.70 0855.21
2009/04/23 07:07:49.5     -12    -35    109     38    115 198.7  81.2  33934  285.75 0855.21
2009/04/23 07:07:49.6      12    -54    119     56    131 167.5  73.1  33932  285.71 0855.21
2009/04/23 07:07:49.7     -37   -118    104    124    161 197.8  44.5  33930  285.70 0855.21
2009/04/23 07:07:49.8     -66    -61    116     90    146 227.3  57.9  33922  285.56 0855.21
2009/04/23 07:07:49.9    -104    -34     40    110    117 251.8  20.9  33928  285.66 0855.21
2009/04/23 07:07:50.0     -86    -57     89    104    136 236.3  44.8  33928  285.66 0855.21
2009/04/23 07:07:50.1     -47   -140     86    148    171 198.7  32.9  33930  285.70 0855.21
2009/04/23 07:07:50.2     -35   -107     66    113    130 198.3  33.4  33928  285.66 0855.21
2009/04/23 07:07:50.3     -17   -102     82    104    132 189.8  42.7  33930  285.68 0855.21
2009/04/23 07:07:50.4     -21   -141    103    143    176 188.5  39.7  33930  285.68 0855.21
2009/04/23 07:07:50.5    -150     33     67    154    167 282.4  24.9  33918  285.50 0855.21
2009/04/23 07:07:50.6    -164     46    -79    171    188 285.7 -31.4  33922  285.56 0855.21
2009/04/23 07:07:50.7     -79    -84    -23    116    119 223.3 -11.3  33928  285.65 0855.21
2009/04/23 07:07:50.8     -74   -110     75    133    152 213.8  31.9  33928  285.66 0855.21
2009/04/23 07:07:50.9    -125   -103     64    162    174 230.5  22.5  33928  285.66 0855.21
2009/04/23 07:07:51.0    -279    -57    123    285    310 258.3  25.1  33926  285.62 0855.21
2009/04/23 07:07:51.1    -126     47    107    135    172 290.4  42.7  33926  285.61 0855.21
2009/04/23 07:07:51.2    -127     65     59    143    154 297.1  23.1  33922  285.56 0855.21
2009/04/23 07:07:51.3    -240    -17     47    241    246 265.9  11.1  33926  285.61 0855.21
2009/04/23 07:07:51.4    -250     42     54    254    260 279.7  12.0  33924  285.57 0855.21
2009/04/23 07:07:51.5    -253      0     44    254    258 270.0   9.9  33928  285.66 0855.21
2009/04/23 07:07:51.6    -158    -37    163    163    230 256.7  50.1  33928  285.66 0855.21
2009/04/23 07:07:51.7    -156    -11    105    157    188 265.6  36.7  33926  285.63 0855.21
2009/04/23 07:07:51.8     -95    -19     63     97    115 258.5  35.6  33930  285.70 0855.21
2009/04/23 07:07:51.9     -49   -128    115    138    179 200.9  43.8  33930  285.70 0855.21
2009/04/23 07:07:52.0     -34   -126    109    131    170 195.1  44.1  33930  285.70 0855.21
2009/04/23 07:07:52.1     -32    -99     66    105    124 198.3  35.5  33928  285.66 0855.21
2009/04/23 07:07:52.2     -27    -71     79     77    110 200.9  50.7  33930  285.70 0855.21
2009/04/23 07:07:52.3     -86    -71     73    112    133 230.4  35.6  33930  285.70 0855.21
2009/04/23 07:07:52.4     -58    -75     67     96    117 217.8  38.0  33930  285.68 0855.21
2009/04/23 07:07:52.5     -51      3     48     52     70 274.4  47.9  33926  285.61 0855.21
2009/04/23 07:07:52.6     -67    -26     42     73     84 248.3  32.9  33926  285.63 0855.21
2009/04/23 07:07:52.7     -71    -56     46     91    101 231.4  28.7  33926  285.63 0855.20
2009/04/23 07:07:52.9    -137    -45     77    145    164 251.6  30.3  33928  285.66 0855.20
2009/04/23 07:07:53.0    -151    -47     44    159    166 252.7  15.6  33924  285.60 0855.20
2009/04/23 07:07:53.0    -155    -74     86    172    192 244.5  28.2  33924  285.60 0855.20
2009/04/23 07:07:53.1    -135   -152    132    204    242 221.5  35.7  33930  285.70 0855.20
2009/04/23 07:07:53.2     -77   -123     90    146    171 212.1  34.8  33930  285.68 0855.20
2009/04/23 07:07:53.3     -11   -105    128    106    166 186.2  56.3  33932  285.71 0855.20
2009/04/23 07:07:53.4     -52   -101    100    114    151 207.2  45.8  33932  285.71 0855.20
2009/04/23 07:07:53.5       7    -54     41     55     68 172.0  41.7  33930  285.68 0855.20
2009/04/23 07:07:53.6      57    -18     75     60     96 108.2  56.9  33930  285.70 0855.20
2009/04/23 07:07:53.7      74    -35     82     82    115 115.3  50.1  33932  285.73 0855.20
2009/04/23 07:07:53.8      75    -73     68    105    125 134.4  35.6  33934  285.76 0855.20
2009/04/23 07:07:53.9      54    -58     82     80    114 136.8  49.7  33932  285.71 0855.20
2009/04/23 07:07:54.0      19    -11     86     23     89 120.7  84.9  33932  285.73 0855.20
2009/04/23 07:07:54.1      35   -105    102    111    150 161.5  47.9  33934  285.76 0855.20
2009/04/23 07:07:54.2       8   -132     68    133    149 176.4  29.2  33932  285.71 0855.20
2009/04/23 07:07:54.3      73    -52     82     90    121 125.5  47.5  33932  285.73 0855.20
2009/04/23 07:07:54.4     -14    -70     53     72     89 191.5  40.1  33934  285.75 0855.20
2009/04/23 07:07:54.5      56    -67     68     88    111 140.4  42.2  33932  285.73 0855.20
2009/04/23 07:07:54.6      58    -56     58     82    100 134.0  39.1  33932  285.73 0855.20
2009/04/23 07:07:54.7     129    -23     84    132    156 100.1  35.5  33934  285.75 0855.20
2009/04/23 07:07:54.8     104    -14    121    105    160  97.9  54.6  33930  285.70 0855.20
2009/04/23 07:07:54.9      85     -7     97     86    129  94.8  54.3  33932  285.71 0855.20
2009/04/23 07:07:55.0      64     30     62     71     94  64.6  45.8  33932  285.71 0855.20
2009/04/23 07:07:55.2      73      6     57     74     93  84.8  42.2  33934  285.75 0855.20
2009/04/23 07:07:55.3      71    -22     66     75     99 107.7  45.8  33932  285.71 0855.20
2009/04/23 07:07:55.4      50    -42     31     66     72 130.4  27.1  33932  285.73 0855.20
2009/04/23 07:07:55.5      66     -9     38     67     77  97.9  32.4  33932  285.73 0855.20
2009/04/23 07:07:55.6      52     17     69     55     88  71.6  56.4  33934  285.75 0855.20
2009/04/23 07:07:55.7      27    -44     41     52     66 148.4  42.7  33932  285.73 0855.20
2009/04/23 07:07:55.8      28    -60     54     67     86 154.7  43.3  33932  285.73 0855.20
2009/04/23 07:07:55.9      23    -65     38     70     79 160.0  30.8  33932  285.73 0855.20
2009/04/23 07:07:56.0      41    -42     41     59     71 135.8  38.6  33932  285.73 0855.20
2009/04/23 07:07:56.1      67    -33     75     75    106 116.2  50.1  33932  285.71 0855.20
2009/04/23 07:07:56.2      22    -68     76     72    104 161.5  51.2  33932  285.73 0855.20
2009/04/23 07:07:56.3      22    -70     35     74     81 162.2  26.6  33932  285.71 0855.20
2009/04/23 07:07:56.4      10    -45      4     47     48 167.5   5.9  33930  285.70 0855.20
2009/04/23 07:07:56.5      22    -22      7     32     33 135.0  13.2  33932  285.71 0855.20
2009/04/23 07:07:56.6      27      0     13     28     30  90.0  27.1  33932  285.71 0855.20
2009/04/23 07:07:56.7      41     11     26     43     50  74.1  34.4  33934  285.75 0855.20
2009/04/23 07:07:56.8      37     16     37     41     55  65.6  46.9  33932  285.73 0855.21
2009/04/23 07:07:56.9      62      0     21     63     67  90.8  18.9  33932  285.73 0855.21
2009/04/23 07:07:57.0      37     -2     20     38     42  94.3  30.3  33930  285.68 0855.21
2009/04/23 07:07:57.1       1     38     35     39     52   2.7  46.9  33928  285.66 0855.21
2009/04/23 07:07:57.2      25     25     51     36     62  45.0  60.6  33930  285.68 0855.21
2009/04/23 07:07:57.3      12     -8     53     15     55 122.4  83.9  33932  285.71 0855.21
2009/04/23 07:07:57.4       0    -17     35     18     39 179.1  72.8  33932  285.71 0855.21
2009/04/23 07:07:57.5       0      0     26      0     26   0.0 -90.0  33932  285.71 0855.21
2009/04/23 07:07:57.6       3     -8     31      9     32 154.6  82.8  33932  285.71 0855.21
2009/04/23 07:07:57.7      12     42     24     44     50  16.0  31.4  33930  285.68 0855.21
2009/04/23 07:07:57.8      22     35    -22     42     47  31.6 -34.7  33928  285.65 0855.21
2009/04/23 07:07:57.9      -2     73    -25     74     79 358.2 -19.1  33930  285.68 0855.21
2009/04/23 07:07:58.0     -32     67     -9     75     76 334.7  -7.3  33930  285.68 0855.21
2009/04/23 07:07:58.1     -52     82     12     98     99 327.4   7.5  33932  285.73 0855.21
2009/04/23 07:07:58.2     -68     71      7     99    100 316.3   4.4  33932  285.71 0855.21
2009/04/23 07:07:58.3     -13     70    -23     72     75 349.3 -23.8  33930  285.70 0855.21
2009/04/23 07:07:58.4      30     55    -22     63     67  28.9 -19.7  33928  285.66 0855.21
2009/04/23 07:07:58.5      51     53      3     74     75  44.2   2.8  33928  285.65 0855.21
2009/04/23 07:07:58.6      51     48     51     71     87  46.9  39.1  33930  285.70 0855.21
2009/04/23 07:07:58.7      43    111     15    120    122  21.4   7.5  33930  285.70 0855.21
2009/04/23 07:07:58.8      45    111     14    121    122  22.3   6.9  33932  285.71 0855.22
2009/04/23 07:07:58.9      21    102     10    105    106  11.6   5.4  33930  285.70 0855.22
2009/04/23 07:07:59.0      22     98      0    101    102  12.9   0.2  33930  285.68 0855.22
2009/04/23 07:07:59.1      31     71      0     78     79  23.6   0.2  33932  285.71 0855.22
2009/04/23 07:07:59.2      24     63     -2     68     69  20.9  -2.2  33932  285.71 0855.22
2009/04/23 07:07:59.3      25     64     -2     69     70  21.9  -2.2  33932  285.71 0855.22
2009/04/23 07:07:59.4      20     73     -9     76     77  16.0  -7.2  33934  285.75 0855.22
2009/04/23 07:07:59.5      34     36    -31     50     58  43.2 -39.9  33932  285.71 0855.22
2009/04/23 07:07:59.6      12    110      5    111    112   6.2   2.9  33932  285.71 0855.22
2009/04/23 07:07:59.7     -31    104    -39    109    116 343.1 -19.7  33930  285.70 0855.22
2009/04/23 07:07:59.8     -36     95    -13    102    103 339.1  -7.3  33934  285.75 0855.22
2009/04/23 07:07:59.9     -33     92    -14     99    101 340.0  -8.2  33930  285.70 0855.22
2009/04/23 07:08:00.0     -14     70    -15     72     74 348.4 -12.4  33930  285.70 0855.22
2009/04/23 07:08:00.1      -6     78     39     79     88 355.5  28.2  33928  285.66 0855.22
2009/04/23 07:08:00.2      38     60     41     72     82  32.6  31.9  33932  285.71 0855.22
2009/04/23 07:08:00.3       0     48     43     49     65 359.1  46.9  33928  285.66 0855.22
2009/04/23 07:08:00.4     -10     92     39     93    100 353.3  24.1  33930  285.70 0855.22
2009/04/23 07:08:00.5     -28     70     60     76     96 338.2  42.7  33930  285.70 0855.22
2009/04/23 07:08:00.6     -12     86     12     87     88 351.5   8.0  33930  285.70 0855.22
2009/04/23 07:08:00.7     -28     55    -22     62     66 332.8 -19.7  33932  285.73 0855.22
2009/04/23 07:08:00.8       4    104     28    105    109   2.7  15.3  33932  285.71 0855.22
2009/04/23 07:08:00.9      22    161     20    163    165   8.0   7.2  33932  285.71 0855.22
2009/04/23 07:08:01.0     -45     45    -23     64     69 315.0 -19.7  33932  285.71 0855.22
2009/04/23 07:08:01.1     -67     62    -32     92     97 313.1 -23.3  33930  285.68 0855.22
2009/04/23 07:08:01.2     -41     83    -49     93    105 333.3 -34.7  33928  285.66 0855.22
2009/04/23 07:08:01.3     -21     32    -56     39     68 325.7 -65.9  33930  285.70 0855.22
2009/04/23 07:08:01.4     -39     30    -46     50     67 307.8 -52.4  33930  285.68 0855.22
2009/04/23 07:08:01.6     -52     59    -16     79     81 318.6 -11.9  33930  285.70 0855.22
2009/04/23 07:08:01.7     -54     21     33     59     67 291.7  31.4  33930  285.70 0855.22
2009/04/23 07:08:01.8     -55     66     36     87     94 320.4  23.0  33928  285.66 0855.22
2009/04/23 07:08:01.9     -41     98     16    107    109 337.3   8.5  33928  285.65 0855.22
2009/04/23 07:08:02.0     -28     59     17     66     69 334.6  14.3  33928  285.66 0855.22
2009/04/23 07:08:02.1     -26     26     35     37     50 315.0  49.0  33928  285.65 0855.22
2009/04/23 07:08:02.2     -11     20     22     23     31 331.0  50.0  33928  285.65 0855.22
2009/04/23 07:08:02.3     -16    -21     -9     27     28 217.8 -23.6  33928  285.66 0855.22
2009/04/23 07:08:02.4      -4    -13     -4     14     14 198.7 -23.8  33928  285.66 0855.22
2009/04/23 07:08:02.5      26    -22      6     35     36 129.6  11.1  33930  285.68 0855.22
2009/04/23 07:08:02.6      37     31    -10     49     51  50.4 -12.4  33928  285.65 0855.22
2009/04/23 07:08:02.7      63     56     -2     85     86  48.2  -1.8  33926  285.61 0855.22
2009/04/23 07:08:02.8      38     60    -17     72     75  32.6 -13.4  33926  285.61 0855.23
2009/04/23 07:08:02.9       9     65    -31     66     72   8.1 -31.5  33928  285.65 0855.23
2009/04/23 07:08:03.0      -1     58    -52     59     78 358.2 -50.8  33924  285.60 0855.23
2009/04/23 07:08:03.1      22     55    -51     60     78  21.8 -49.8  33928  285.65 0855.23
2009/04/23 07:08:03.2      39     29    -49     49     69  53.1 -54.5  33928  285.65 0855.23
2009/04/23 07:08:03.3      42     50    -58     66     87  40.5 -50.8  33928  285.66 0855.23
2009/04/23 07:08:03.4      53     53    -38     76     84  45.0 -33.1  33926  285.63 0855.23
2009/04/23 07:08:03.5      14     54    -19     56     59  15.1 -23.6  33926  285.63 0855.23
2009/04/23 07:08:03.6     -31     72    -15     79     81 336.4 -10.9  33928  285.65 0855.23
2009/04/23 07:08:03.7     -39     51     32     65     72 322.2  27.3  33926  285.63 0855.23
2009/04/23 07:08:03.8     -38     46     24     60     64 320.4  23.0  33926  285.63 0855.24
2009/04/23 07:08:04.0     -54     79     -3     96     97 325.7  -2.2  33920  285.53 0855.24
2009/04/23 07:08:04.1     -43     68    -23     81     84 327.5 -21.2  33924  285.58 0855.24
2009/04/23 07:08:04.2     -16     65    -49     68     83 345.7 -44.1  33926  285.63 0855.24
2009/04/23 07:08:04.3       9     28    -26     30     39  18.7 -50.2  33926  285.61 0855.24
2009/04/23 07:08:04.4     -13    -12      0     18     19 226.7  -2.2  33926  285.61 0855.24
2009/04/23 07:08:04.5      -8    -65     22     66     70 187.1  18.4  33924  285.60 0855.24
2009/04/23 07:08:04.6     -28    -83     57     88    104 199.2  35.6  33928  285.66 0855.24
2009/04/23 07:08:04.7     -32   -156     96    160    186 191.6  34.0  33930  285.68 0855.24
2009/04/23 07:08:04.8      41    -64     97     77    123 147.5  57.9  33932  285.73 0855.24
2009/04/23 07:08:04.9       2    -81    114     82    140 178.2  60.6  33928  285.66 0855.24
2009/04/23 07:08:05.0      20    -58    100     62    117 160.8  65.1  33932  285.73 0855.24
2009/04/23 07:08:05.1       0    -36     52     37     63 180.9  60.6  33934  285.75 0855.24
2009/04/23 07:08:05.2     -17    -17     51     25     56 225.0  72.8  33934  285.75 0855.24
2009/04/23 07:08:05.3     -70    -38     35     80     87 241.2  24.6  33930  285.70 0855.24
2009/04/23 07:08:05.4    -118    -53     12    130    131 245.6   5.4  33928  285.65 0855.24
2009/04/23 07:08:05.5    -133      0    -26    134    137 270.0 -11.3  33928  285.65 0855.24
2009/04/23 07:08:05.6    -123    -21    -11    125    126 259.9  -5.2  33926  285.63 0855.24
2009/04/23 07:08:05.7    -124   -101     -2    161    162 230.9  -0.7  33930  285.68 0855.24
2009/04/23 07:08:05.8     -95   -128     43    160    166 216.7  15.3  33928  285.65 0855.24
2009/04/23 07:08:05.9     -65   -131     77    147    165 206.3  30.1  33930  285.70 0855.24
2009/04/23 07:08:06.0    -136    -89     42    163    169 236.7  14.7  33928  285.66 0855.24
2009/04/23 07:08:06.1    -114   -116     33    163    167 224.5  11.6  33928  285.66 0855.24
2009/04/23 07:08:06.2    -130   -124     -7    180    181 226.4  -2.2  33928  285.65 0855.24
2009/04/23 07:08:06.3    -108   -137    -11    175    176 218.3  -3.7  33928  285.65 0855.24
2009/04/23 07:08:06.4     -93   -146      2    174    175 212.6   0.8  33928  285.65 0855.24
2009/04/23 07:08:06.5     -98   -194     -4    218    219 207.0  -1.1  33930  285.68 0855.24
2009/04/23 07:08:06.6     -56   -101     29    116    120 209.4  14.3  33926  285.63 0855.24
2009/04/23 07:08:06.7     -50   -104     27    116    120 205.9  13.2  33924  285.58 0855.24
2009/04/23 07:08:06.8     -86   -124     10    152    153 214.7   3.8  33920  285.53 0855.24
2009/04/23 07:08:06.9     -42   -128     27    135    138 198.3  11.6  33918  285.50 0855.24
2009/04/23 07:08:07.0     -29    -93     53     98    111 197.4  30.8  33922  285.55 0855.24
2009/04/23 07:08:07.1      -8    -63     74     64     97 188.0  54.3  33922  285.55 0855.24
2009/04/23 07:08:07.2     -75   -103    103    128    164 216.1  43.0  33928  285.65 0855.24
2009/04/23 07:08:07.3     -82    -77     67    113    131 226.8  33.5  33922  285.55 0855.24
2009/04/23 07:08:07.4     -62    -66     59     91    108 223.2  35.6  33922  285.56 0855.24
2009/04/23 07:08:07.5     -70    -56     41     90     98 231.4  26.2  33922  285.55 0855.24
2009/04/23 07:08:07.6     -54    -52     12     76     77 225.9   9.0  33926  285.61 0855.24
2009/04/23 07:08:07.7     -65    -26     16     71     73 248.3  13.2  33926  285.61 0855.24
2009/04/23 07:08:07.8     -71    -19    -23     74     78 255.0 -17.6  33924  285.58 0855.25
2009/04/23 07:08:07.9     -24    -62     -1     67     68 201.8  -1.2  33924  285.60 0855.25
2009/04/23 07:08:08.0     -24    -73     43     77     88 198.3  31.4  33930  285.70 0855.25
2009/04/23 07:08:08.1      -9    -60     57     61     83 188.9  48.5  33930  285.70 0855.25
2009/04/23 07:08:08.2      -8    -46     50     47     68 190.7  51.2  33926  285.63 0855.25
2009/04/23 07:08:08.3     -19    -56     16     60     63 198.5  15.3  33926  285.63 0855.25
2009/04/23 07:08:08.4     -17    -53     -7     56     57 197.8  -7.2  33926  285.61 0855.25
2009/04/23 07:08:08.5     -22    -46     38     52     64 205.5  39.7  33930  285.68 0855.25
2009/04/23 07:08:08.6      24    -41     49     48     68 149.3  49.1  33928  285.66 0855.25
2009/04/23 07:08:08.7      26    -28     48     39     61 136.6  56.4  33928  285.66 0855.25
2009/04/23 07:08:08.8      44    -60     63     75     97 143.9  44.3  33928  285.66 0855.25
2009/04/23 07:08:08.9      70    -84     74    110    132 140.4  37.0  33928  285.65 0855.25
2009/04/23 07:08:09.0      58    -23     91     63    110 111.8  62.1  33926  285.63 0855.25
2009/04/23 07:08:09.1      35    -16     83     39     91 115.3  73.1  33926  285.61 0855.25
2009/04/23 07:08:09.2      47    -26     63     54     82 118.9  54.8  33930  285.68 0855.25
2009/04/23 07:08:09.3       7      0     42      8     42  90.0  90.0  33926  285.63 0855.25
2009/04/23 07:08:09.4      31      0     18     32     36  90.0  33.5  33926  285.61 0855.25
2009/04/23 07:08:09.5      48     21     15     53     56  66.5  16.3  33926  285.63 0855.25
2009/04/23 07:08:09.6      92     58    -13    109    110  57.6  -7.2  33928  285.65 0855.25
2009/04/23 07:08:09.7     100     41    -18    109    111  67.4  -9.8  33928  285.65 0855.25
2009/04/23 07:08:09.8     102     48    -13    113    114  64.6  -6.7  33926  285.61 0855.25
2009/04/23 07:08:09.9      84     38      6     93     94  65.6   3.8  33926  285.63 0855.25
2009/04/23 07:08:10.0      57     19      7     61     62  71.8   6.9  33926  285.63 0855.25
2009/04/23 07:08:10.1      29      5      1     30     31  78.5   2.9  33928  285.65 0855.25
2009/04/23 07:08:10.2       0     -3      8      4      9 175.5  72.9  33928  285.66 0855.25
2009/04/23 07:08:10.3     -18    -16     11     25     27 228.7  25.1  33928  285.66 0855.25
2009/04/23 07:08:10.4     -51    -22      8     56     57 246.5   9.0  33926  285.63 0855.25
2009/04/23 07:08:10.5     -19    -54     23     58     62 199.2  23.0  33926  285.61 0855.25
2009/04/23 07:08:10.6     -37    -75     -6     84     85 206.7  -4.6  33928  285.66 0855.25
2009/04/23 07:08:10.7      -9   -119      3    120    121 184.5   1.8  33928  285.66 0855.25
2009/04/23 07:08:10.8     -38   -146    -41    151    157 194.7 -15.4  33928  285.65 0855.25
2009/04/23 07:08:10.9     -15   -132    -46    133    140 186.7 -23.3  33930  285.70 0855.25
2009/04/23 07:08:11.0     -20   -147     60    149    160 188.0  23.0  33926  285.63 0855.25
2009/04/23 07:08:11.1     -73   -120     32    141    145 211.2  13.1  33924  285.60 0855.25
2009/04/23 07:08:11.2     -88   -150     24    175    177 210.5   8.0  33928  285.65 0855.25
2009/04/23 07:08:11.3     -57   -139    -19    151    153 202.3  -7.3  33928  285.66 0855.25
2009/04/23 07:08:11.4     -37   -101      2    108    109 200.5   1.2  33926  285.61 0855.25
2009/04/23 07:08:11.5     -33    -70     -1     78     79 205.3  -1.3  33928  285.65 0855.25
2009/04/23 07:08:11.6     -16    -74     37     76     84 192.5  27.8  33926  285.63 0855.25
2009/04/23 07:08:11.7      26    -87     66     91    112 163.1  39.7  33922  285.56 0855.25
2009/04/23 07:08:11.8      22    -56     69     61     92 158.2  53.7  33926  285.63 0855.25
2009/04/23 07:08:11.9     -15      2     44     16     46 277.9  80.2  33928  285.65 0855.25
2009/04/23 07:08:12.0      -7      3     33      8     33 295.3  86.9  33924  285.58 0855.25
2009/04/23 07:08:12.1     -22      0     31     23     38 270.0  58.5  33924  285.60 0855.25
2009/04/23 07:08:12.2     -23    -17     31     29     42 234.0  51.2  33924  285.60 0855.25
2009/04/23 07:08:12.3     -39    -17     38     43     57 246.5  46.9  33926  285.63 0855.25
2009/04/23 07:08:12.4     -36    -31     31     48     57 228.7  35.6  33922  285.56 0855.25
2009/04/23 07:08:12.5     -36    -36      1     52     53 225.1   1.8  33924  285.60 0855.25
2009/04/23 07:08:12.6     -33    -25     -6     42     43 232.2  -9.3  33922  285.56 0855.25
2009/04/23 07:08:12.7     -43    -18    -15     47     49 247.4 -23.8  33924  285.58 0855.25
2009/04/23 07:08:12.8     -24    -10      1     27     28 246.5   2.8  33924  285.58 0855.25
2009/04/23 07:08:12.9      -9     17      0     20     21 331.0   0.8  33924  285.58 0855.25
2009/04/23 07:08:13.0       5     19      5     20     21  16.9  15.3  33922  285.56 0855.25
2009/04/23 07:08:13.1       4     31     17     32     36   8.0  29.3  33924  285.60 0855.25
2009/04/23 07:08:13.2      -1     44     17     45     48 358.2  20.0  33922  285.55 0855.25
2009/04/23 07:08:13.3     -15     56     25     59     64 344.9  23.1  33922  285.56 0855.25
2009/04/23 07:08:13.4     -19     61     21     65     69 342.2  18.4  33924  285.58 0855.25
2009/04/23 07:08:13.5     -35     55     -2     66     67 327.5  -2.2  33920  285.51 0855.25
2009/04/23 07:08:13.6     -31     61     13     69     71 332.8  11.1  33920  285.53 0855.25
2009/04/23 07:08:13.7     -47     47      8     67     68 314.9   6.9  33920  285.53 0855.25
2009/04/23 07:08:13.8     -50     42      5     66     67 309.6   4.9  33922  285.56 0855.26
2009/04/23 07:08:13.9     -66     44      3     80     81 304.2   2.3  33920  285.53 0855.26
2009/04/23 07:08:14.0    -103     38     13    110    111 290.4   7.1  33922  285.55 0855.26
2009/04/23 07:08:14.1    -161     -1    -36    162    167 269.6 -12.6  33924  285.60 0855.26
2009/04/23 07:08:14.2    -126    -25    -46    129    138 258.5 -19.6  33926  285.63 0855.26
2009/04/23 07:08:14.3    -120    -23     -6    123    124 259.0  -3.1  33928  285.66 0855.26
2009/04/23 07:08:14.4    -144    -24    -44    147    154 260.3 -16.6  33928  285.65 0855.26
2009/04/23 07:08:14.5    -101    -18   -107    103    148 259.4 -55.6  33924  285.58 0855.26
2009/04/23 07:08:14.6    -127    -48    -66    136    151 249.2 -31.7  33926  285.61 0855.26
2009/04/23 07:08:14.7    -100    -71    -39    124    131 234.5 -17.6  33926  285.61 0855.26
2009/04/23 07:08:14.8     -98    -71     19    122    124 234.0   9.0  33924  285.60 0855.26
2009/04/23 07:08:14.9     -80    -57     24     99    102 234.5  13.7  33926  285.63 0855.26
2009/04/23 07:08:15.0     -81    -81     55    115    127 225.1  27.2  33926  285.61 0855.26
2009/04/23 07:08:15.1     -86   -103     58    135    146 219.6  24.6  33922  285.55 0855.26
2009/04/23 07:08:15.2     -73   -114     44    136    143 212.6  17.9  33922  285.55 0855.26
2009/04/23 07:08:15.3    -108   -108     30    153    156 225.0  11.1  33922  285.56 0855.26
2009/04/23 07:08:15.4     -94   -113     -3    148    149 219.6  -1.2  33924  285.58 0855.26
2009/04/23 07:08:15.5    -111   -133     -6    174    175 219.6  -2.2  33924  285.60 0855.26
2009/04/23 07:08:15.6     -66   -163     -6    176    177 202.1  -2.1  33924  285.58 0855.26
2009/04/23 07:08:15.7     -67   -139     31    155    159 205.9  11.4  33920  285.53 0855.26
2009/04/23 07:08:15.9     -85    -93     73    127    146 222.3  32.9  33918  285.48 0855.26
2009/04/23 07:08:16.0     -86    -75     71    115    135 228.7  35.5  33918  285.50 0855.26
2009/04/23 07:08:16.1     -73    -60     85     95    127 230.5  46.4  33920  285.51 0855.26
2009/04/23 07:08:16.2     -62    -29     83     69    107 244.7  56.3  33922  285.55 0855.26
2009/04/23 07:08:16.3     -47    -41     55     63     83 228.7  46.4  33922  285.55 0855.26
2009/04/23 07:08:16.4     -59    -56     35     82     89 226.4  24.1  33922  285.56 0855.26
2009/04/23 07:08:16.5     -49    -40     17     64     67 230.5  15.2  33922  285.55 0855.26
2009/04/23 07:08:16.6     -53    -28     38     61     71 242.0  35.5  33920  285.51 0855.26
2009/04/23 07:08:16.7     -46    -36     32     59     67 231.4  31.3  33916  285.46 0855.26
2009/04/23 07:08:16.8     -58    -40     19     71     74 234.9  15.3  33920  285.51 0855.26
2009/04/23 07:08:16.9     -63    -25      9     68     69 248.3   8.0  33920  285.51 0855.26
2009/04/23 07:08:17.0     -55    -86     47    103    113 212.6  26.6  33920  285.51 0855.26
2009/04/23 07:08:17.1     -59    -94     61    112    127 212.1  31.3  33926  285.61 0855.26
2009/04/23 07:08:17.2     -45    -87     75     99    124 207.6  41.2  33926  285.61 0855.26
2009/04/23 07:08:17.3     -47    -80     88     94    128 210.7  48.0  33924  285.60 0855.26
2009/04/23 07:08:17.4     -54    -70     80     89    119 217.8  46.9  33926  285.61 0855.26
2009/04/23 07:08:17.5     -41    -69     74     81    109 210.7  47.9  33926  285.63 0855.26
2009/04/23 07:08:17.6     -26    -87     81     92    122 196.9  45.9  33926  285.61 0855.26
2009/04/23 07:08:17.7     -37   -109     97    116    151 198.7  43.8  33922  285.55 0855.26
2009/04/23 07:08:17.8     -37   -123     80    129    151 197.0  35.5  33924  285.58 0855.26
2009/04/23 07:08:17.9     -64   -101     64    120    136 212.5  30.3  33920  285.53 0855.26
2009/04/23 07:08:18.0     -65    -82     55    105    118 218.3  29.8  33922  285.55 0855.26
2009/04/23 07:08:18.1     -70    -82     44    108    116 220.5  23.0  33922  285.56 0855.26
2009/04/23 07:08:18.2     -89    -65     27    111    115 234.1  13.7  33920  285.53 0855.26
2009/04/23 07:08:18.3     -77    -76     50    109    119 225.4  26.2  33920  285.51 0855.26
2009/04/23 07:08:18.4     -75    -74     40    106    113 225.1  21.5  33918  285.50 0855.26
2009/04/23 07:08:18.5     -77    -63     50    100    111 230.5  28.2  33918  285.50 0855.26
2009/04/23 07:08:18.6     -63    -68     51     93    106 222.8  31.4  33920  285.51 0855.26
2009/04/23 07:08:18.7     -68    -49     38     85     93 234.0  25.7  33918  285.48 0855.26
2009/04/23 07:08:18.8     -66    -42     36     79     86 237.6  25.7  33922  285.55 0855.26
2009/04/23 07:08:18.9     -52    -41     45     67     80 232.2  37.6  33922  285.56 0855.26
2009/04/23 07:08:19.0     -52    -50     34     73     80 225.9  26.6  33924  285.58 0855.26
2009/04/23 07:08:19.1     -47    -48     18     68     71 224.1  15.3  33924  285.58 0855.26
2009/04/23 07:08:19.2     -55    -45     -2     72     73 230.4  -2.2  33922  285.55 0855.26
2009/04/23 07:08:19.3     -60    -38    -10     72     73 237.6  -8.2  33922  285.55 0855.26
2009/04/23 07:08:19.4     -51    -51    -20     73     76 225.1 -15.5  33922  285.55 0855.26
2009/04/23 07:08:19.5     -30    -63    -22     70     74 205.5 -17.6  33924  285.60 0855.26
2009/04/23 07:08:19.6     -51    -81    -15     96     98 212.1  -8.8  33922  285.56 0855.26
2009/04/23 07:08:19.7     -51    -93    -13    107    108 209.0  -7.3  33924  285.58 0855.26
2009/04/23 07:08:19.8     -38   -133      6    139    140 196.0   2.8  33920  285.53 0855.26
2009/04/23 07:08:19.9     -15   -138     30    139    143 186.3  12.2  33926  285.63 0855.26
2009/04/23 07:08:20.0     -25   -184     17    186    187 187.8   5.4  33928  285.66 0855.26
2009/04/23 07:08:20.1     -18   -159     26    161    164 186.5   9.3  33924  285.58 0855.26
2009/04/23 07:08:20.2       7   -154     67    155    168 177.4  24.9  33928  285.65 0855.26
2009/04/23 07:08:20.3      35   -166     88    170    191 168.0  29.5  33926  285.61 0855.26
2009/04/23 07:08:20.4      21   -182    122    184    220 173.3  36.7  33928  285.65 0855.26
2009/04/23 07:08:20.5      10   -181     74    182    196 176.6  23.4  33926  285.63 0855.26
2009/04/23 07:08:20.6      30   -173     66    176    187 170.0  21.5  33928  285.65 0855.26
2009/04/23 07:08:20.7      25   -145     85    148    170 170.2  32.4  33928  285.65 0855.26
2009/04/23 07:08:20.8      49   -150     82    159    178 161.7  29.5  33928  285.66 0855.26
2009/04/23 07:08:20.9      50   -138     83    147    168 160.0  32.1  33928  285.66 0855.26
2009/04/23 07:08:21.0      68   -143     85    159    180 154.6  30.6  33930  285.70 0855.26
2009/04/23 07:08:21.1      51   -156    110    165    198 162.0  37.0  33928  285.65 0855.26
2009/04/23 07:08:21.2      88   -117    108    147    182 143.0  39.7  33930  285.70 0855.26
2009/04/23 07:08:21.3      72   -130     93    149    175 151.0  35.2  33934  285.75 0855.26
2009/04/23 07:08:21.4     115   -100     93    153    179 130.9  34.2  33928  285.66 0855.26
2009/04/23 07:08:21.5      83    -84     94    119    151 135.3  42.7  33928  285.65 0855.26
2009/04/23 07:08:21.6      74    -89     94    116    149 140.4  43.7  33930  285.68 0855.26
2009/04/23 07:08:21.8      77    -76     68    109    128 134.9  35.5  33928  285.66 0855.26
2009/04/23 07:08:21.8      61    -61      9     87     88 134.6   6.5  33928  285.66 0855.26
2009/04/23 07:08:21.9      42    -86     20     96     99 153.7  12.2  33928  285.65 0855.26
2009/04/23 07:08:22.0     -11    -88     34     89     95 187.6  21.0  33928  285.65 0855.26
2009/04/23 07:08:22.1     -10   -104      5    105    106 185.8   2.8  33928  285.65 0855.26
2009/04/23 07:08:22.3     -10   -107     -4    108    109 185.3  -2.2  33928  285.65 0855.26
2009/04/23 07:08:22.4     -43    -93    -28    103    107 204.9 -15.4  33928  285.66 0855.26
2009/04/23 07:08:22.5     -38    -90    -44     98    107 203.2 -30.6  33928  285.66 0855.26
2009/04/23 07:08:22.6     -66    -73     -5     99    100 221.9  -3.2  33928  285.66 0855.26
2009/04/23 07:08:22.7     -87    -61      0    107    108 234.9   0.2  33928  285.66 0855.26
2009/04/23 07:08:22.8     -75    -70     22    103    106 226.9  12.2  33926  285.63 0855.26
2009/04/23 07:08:22.9     -66    -66      4     94     95 225.0   2.9  33928  285.66 0855.26
2009/04/23 07:08:23.0     -82    -82    -14    117    118 225.1  -7.2  33928  285.65 0855.26
2009/04/23 07:08:23.1     -78    -73    -15    108    110 226.8  -8.2  33926  285.63 0855.26
2009/04/23 07:08:23.2     -58    -55     -7     81     82 226.4  -5.6  33930  285.68 0855.26
2009/04/23 07:08:23.3     -47    -55    -23     73     76 220.5 -23.8  33928  285.66 0855.26
2009/04/23 07:08:23.4     -53    -62    -23     82     86 220.5 -16.0  33928  285.65 0855.26
2009/04/23 07:08:23.5     -91    -43    -33    101    107 244.7 -18.1  33928  285.66 0855.26
2009/04/23 07:08:23.6    -110    -65    -35    128    133 239.3 -15.5  33930  285.68 0855.26
2009/04/23 07:08:23.7     -85    -54    -31    101    105 237.6 -22.3  33928  285.66 0855.26
2009/04/23 07:08:23.8     -96    -61    -41    114    122 237.6 -19.7  33928  285.65 0855.26
2009/04/23 07:08:23.9    -114    -71    -37    135    141 238.0 -15.4  33926  285.63 0855.25
2009/04/23 07:08:24.0     -81    -67      5    106    107 230.4   2.9  33928  285.66 0855.25
2009/04/23 07:08:24.1     -47    -70      7     85     86 214.3   4.9  33926  285.63 0855.25
2009/04/23 07:08:24.2     -16    -71     48     73     87 193.4  36.0  33926  285.61 0855.25
2009/04/23 07:08:24.3     -22    -66     53     70     87 198.7  41.2  33928  285.66 0855.25
2009/04/23 07:08:24.4     -25    -43     49     50     70 210.7  51.1  33928  285.66 0855.25
2009/04/23 07:08:24.5     -22    -46     38     52     64 205.5  39.7  33930  285.68 0855.25
2009/04/23 07:08:24.6     -29    -33     31     45     54 221.4  37.6  33928  285.66 0855.25
2009/04/23 07:08:24.7     -29    -42     31     52     60 215.2  33.5  33928  285.66 0855.25
2009/04/23 07:08:24.8     -43    -41     29     60     66 226.0  27.2  33930  285.68 0855.25
2009/04/23 07:08:24.9     -80    -45     10     92     93 240.7   6.5  33928  285.66 0855.25
2009/04/23 07:08:25.0    -104    -48    -14    115    116 245.2  -7.3  33926  285.63 0855.25
2009/04/23 07:08:25.1     -79    -56    -19     98    100 234.5 -11.3  33926  285.63 0855.25
2009/04/23 07:08:25.2     -61    -81     17    102    104 217.0   9.5  33926  285.61 0855.25
2009/04/23 07:08:25.3     -70    -89     22    114    117 218.3  11.0  33922  285.56 0855.25
2009/04/23 07:08:25.4     -44    -80     16     92     94 209.0  10.1  33924  285.60 0855.25
2009/04/23 07:08:25.5     -67   -115    -44    134    141 210.3 -23.8  33928  285.65 0855.25
2009/04/23 07:08:25.6     -25    -87     26     91     95 196.5  16.3  33924  285.58 0855.25
2009/04/23 07:08:25.7       4    -76     45     77     89 176.4  33.5  33924  285.60 0855.25
2009/04/23 07:08:25.8     -33    -69     14     77     79 205.4  10.6  33926  285.61 0855.25
2009/04/23 07:08:25.9     -50    -95     19    108    110 207.6  10.1  33926  285.63 0855.25
2009/04/23 07:08:26.0     -59   -107     33    123    128 209.0  15.3  33924  285.60 0855.25
2009/04/23 07:08:26.1     -42    -68     47     81     93 211.6  33.5  33926  285.63 0855.25
2009/04/23 07:08:26.2     -43    -43     38     61     71 225.0  35.5  33924  285.58 0855.25
2009/04/23 07:08:26.3     -54    -51     57     75     94 226.9  41.2  33924  285.60 0855.25
2009/04/23 07:08:26.4     -67    -48     65     83    105 234.0  42.2  33924  285.58 0855.25
2009/04/23 07:08:26.5     -90    -51     35    104    111 240.2  18.9  33924  285.60 0855.25
2009/04/23 07:08:26.6     -48    -65      9     82     83 216.5   6.9  33928  285.65 0855.25
2009/04/23 07:08:26.7     -35    -50      6     62     63 215.2   5.9  33928  285.65 0855.25
2009/04/23 07:08:26.8     -16    -50     10     53     54 198.5  11.0  33924  285.58 0855.25
2009/04/23 07:08:26.9     -19    -20     32     28     42 223.4  53.3  33924  285.58 0855.26
2009/04/23 07:08:27.0      -7      6     44     10     45 313.1  88.0  33924  285.60 0855.26
2009/04/23 07:08:27.1     -37     10     40     39     55 285.1  49.1  33924  285.58 0855.26
2009/04/23 07:08:27.2     -51    -22     39     56     68 246.5  38.6  33924  285.60 0855.26
2009/04/23 07:08:27.3     -74    -25     29     79     84 251.4  20.4  33920  285.53 0855.26
2009/04/23 07:08:27.4     -64    -25     23     69     74 248.3  18.9  33922  285.55 0855.26
2009/04/23 07:08:27.5     -40    -33     26     52     58 230.5  28.2  33926  285.61 0855.26
2009/04/23 07:08:27.6     -51    -54     51     75     90 223.2  37.6  33926  285.61 0855.26
2009/04/23 07:08:27.7    -121    -88     56    150    160 234.1  21.3  33918  285.48 0855.26
2009/04/23 07:08:27.8    -178    -17    -83    179    197 264.3 -31.0  33926  285.61 0855.26
2009/04/23 07:08:27.9    -201     34    -60    204    213 279.6 -16.6  33928  285.66 0855.26
2009/04/23 07:08:28.0    -175      0    -73    176    190 270.0 -28.0  33926  285.63 0855.26
2009/04/23 07:08:28.1    -112   -123     59    167    177 222.3  20.2  33920  285.51 0855.26
2009/04/23 07:08:28.2     -98   -111     68    149    163 221.4  25.9  33924  285.58 0855.26
2009/04/23 07:08:28.3     -75    -70      5    103    104 226.8   3.3  33924  285.60 0855.26
2009/04/23 07:08:28.4     -40   -119     10    126    127 198.7   4.9  33924  285.58 0855.26
2009/04/23 07:08:28.5     -54   -106     55    120    132 207.2  26.6  33926  285.61 0855.26
2009/04/23 07:08:28.6     -24    -89     76     93    120 195.1  43.7  33928  285.65 0855.26
2009/04/23 07:08:28.7     -67   -105     54    125    136 212.5  25.1  33926  285.63 0855.26
2009/04/23 07:08:28.8     -81   -107     46    135    143 217.0  18.9  33926  285.61 0855.26
2009/04/23 07:08:28.9     -93   -112     57    146    156 219.7  22.5  33922  285.55 0855.26
2009/04/23 07:08:29.0     -81   -102     58    131    143 218.3  25.1  33922  285.55 0855.26
2009/04/23 07:08:29.1     -81    -99     45    129    137 219.2  19.4  33922  285.55 0855.26
2009/04/23 07:08:29.2     -65   -110     42    128    135 210.7  18.4  33922  285.56 0855.26
2009/04/23 07:08:29.4     -66   -104     57    124    136 212.5  26.6  33924  285.60 0855.26
2009/04/23 07:08:29.5     -86   -155     65    178    189 209.2  20.7  33924  285.58 0855.26
2009/04/23 07:08:29.6     -79   -124     42    148    154 212.5  16.0  33922  285.56 0855.26
2009/04/23 07:08:29.7    -152   -120     46    194    200 231.8  13.5  33914  285.41 0855.26
2009/04/23 07:08:29.8    -144   -107     66    180    191 233.4  21.0  33914  285.43 0855.26
2009/04/23 07:08:29.9    -120    -76     95    143    171 237.6  36.7  33916  285.46 0855.26
2009/04/23 07:08:30.0    -112    -62     47    129    137 241.1  21.0  33910  285.36 0855.26
2009/04/23 07:08:30.1     -15   -106     64    108    125 188.5  33.5  33924  285.58 0855.26
2009/04/23 07:08:30.2      -7    -96     91     97    133 184.5  48.5  33928  285.65 0855.26
2009/04/23 07:08:30.3     -38    -92    130    100    164 202.7  58.7  33922  285.56 0855.26
2009/04/23 07:08:30.4     -24    -87     97     91    133 195.6  51.6  33918  285.50 0855.26
2009/04/23 07:08:30.5     -31    -94     87    100    132 198.3  45.8  33924  285.58 0855.26
2009/04/23 07:08:30.6     -30    -95     74    100    124 197.8  40.1  33926  285.63 0855.26
2009/04/23 07:08:30.7     -47    -80     49     93    105 210.7  30.3  33922  285.56 0855.26
2009/04/23 07:08:30.8      -9    -70     31     71     77 188.0  25.1  33926  285.61 0855.26
2009/04/23 07:08:30.9      -1    -68     41     69     80 181.0  33.5  33926  285.61 0855.26
2009/04/23 07:08:31.0      16    -49     67     52     84 161.7  58.5  33924  285.60 0855.26
2009/04/23 07:08:31.1      -1      6     41      7     41 348.4  90.0  33926  285.61 0855.26
2009/04/23 07:08:31.2     -22      0     38     23     44 270.0  66.8  33928  285.66 0855.26
2009/04/23 07:08:31.3       2    -48     56     49     74 177.3  54.3  33926  285.61 0855.26
2009/04/23 07:08:31.4     -65   -134     56    149    159 205.9  21.5  33926  285.63 0855.26
2009/04/23 07:08:31.5     -42   -198     73    203    215 192.0  20.7  33926  285.61 0855.26
2009/04/23 07:08:31.6       0   -138     40    139    145 180.4  16.3  33928  285.66 0855.26
2009/04/23 07:08:31.7     -47    -80     -9     94     95 210.7  -5.6  33920  285.51 0855.26
2009/04/23 07:08:31.8    -111    -68    -60    131    144 238.5 -31.0  33924  285.58 0855.26
2009/04/23 07:08:31.9     -90   -189    -28    210    212 205.5  -7.7  33914  285.43 0855.26
2009/04/23 07:08:32.0     -85   -134    133    159    207 212.5  44.1  33914  285.43 0855.26
2009/04/23 07:08:32.1     -94    -77    107    122    162 230.5  45.8  33918  285.50 0855.26
2009/04/23 07:08:32.2     -60   -133    140    147    203 204.5  48.7  33922  285.56 0855.26
2009/04/23 07:08:32.3     -64    -85    106    107    150 217.0  50.0  33920  285.53 0855.26
2009/04/23 07:08:32.4     -30      0     96     31    100 270.0  81.2  33920  285.51 0855.26
2009/04/23 07:08:32.5     -93    -22    105     96    142 256.3  52.2  33916  285.46 0855.26
2009/04/23 07:08:32.6    -155    -86     88    178    198 240.9  28.5  33916  285.44 0855.26
2009/04/23 07:08:32.7    -156    -31     40    160    166 258.6  14.3  33916  285.44 0855.26
2009/04/23 07:08:32.8    -162    -12     95    163    188 265.6  32.9  33916  285.46 0855.26
2009/04/23 07:08:32.9    -187    -45     61    193    203 256.5  17.7  33908  285.33 0855.25
2009/04/23 07:08:33.0    -185    -25     40    187    192 262.3  12.2  33912  285.38 0855.25
2009/04/23 07:08:33.1    -217    -32    -12    220    221 261.6  -3.1  33920  285.53 0855.25
2009/04/23 07:08:33.2    -206     16     -1    207    208 274.6  -0.5  33918  285.50 0855.25
2009/04/23 07:08:33.3    -177      0    -28    178    181 270.0  -9.0  33920  285.51 0855.25
2009/04/23 07:08:33.4    -135    -59      0    148    149 246.5   0.2  33922  285.56 0855.25
2009/04/23 07:08:33.5    -129    -35     31    134    138 254.5  13.2  33918  285.50 0855.25
2009/04/23 07:08:33.6    -125    -26     37    128    134 258.1  16.3  33920  285.51 0855.25
2009/04/23 07:08:33.7    -135    -23      9    137    138 260.3   3.8  33916  285.44 0855.25
2009/04/23 07:08:33.8    -121    -38    -25    128    131 252.3 -11.3  33918  285.48 0855.25
2009/04/23 07:08:33.9    -128     -8     25    129    132 266.1  11.0  33916  285.46 0855.25
2009/04/23 07:08:34.0    -119      8     37    120    126 274.3  17.3  33922  285.55 0855.25
2009/04/23 07:08:34.1    -127      0     18    128    130 270.0   8.0  33920  285.53 0855.25
2009/04/23 07:08:34.2    -137      0     32    138    142 270.0  13.1  33916  285.44 0855.25
2009/04/23 07:08:34.3    -151     38     37    156    161 284.2  13.5  33910  285.36 0855.25
2009/04/23 07:08:34.4    -165     40     45    170    176 283.7  15.0  33914  285.41 0855.25
2009/04/23 07:08:34.5    -135     10     -7    136    137 274.4  -3.1  33918  285.50 0855.25
2009/04/23 07:08:34.6    -162     27      8    165    166 279.5   2.8  33924  285.60 0855.25
2009/04/23 07:08:34.7    -121      6    -25    122    125 273.0 -11.9  33920  285.53 0855.25
2009/04/23 07:08:34.8    -103      1    -12    104    105 270.8  -6.7  33924  285.60 0855.25
2009/04/23 07:08:34.9    -102     15     20    104    107 278.8  11.1  33922  285.56 0855.25
2009/04/23 07:08:35.0     -97     15     19     99    101 279.2  11.1  33920  285.53 0855.25
2009/04/23 07:08:35.1    -117     26     77    121    143 282.8  35.5  33918  285.48 0855.25
2009/04/23 07:08:35.2    -150     39    123    156    198 284.6  42.2  33914  285.43 0855.25
2009/04/23 07:08:35.3    -109     25     90    112    143 283.3  43.3  33918  285.48 0855.25
2009/04/23 07:08:35.4     -22     39     51     45     68 330.1  52.2  33916  285.44 0855.25
2009/04/23 07:08:35.5      27     -9     71     29     76 108.4  77.1  33922  285.56 0855.25
2009/04/23 07:08:35.6      25    -92    124     96    156 164.9  58.2  33928  285.65 0855.25
2009/04/23 07:08:35.7     -18   -102    115    104    155 190.2  53.3  33926  285.61 0855.25
2009/04/23 07:08:35.8      -3    -96    123     97    156 182.2  57.7  33932  285.71 0855.25
2009/04/23 07:08:35.9       7    -36    129     37    134 168.4  82.8  33924  285.60 0855.25
2009/04/23 07:08:36.0       9    -41    105     42    113 167.5  77.1  33932  285.71 0855.25
2009/04/23 07:08:36.1       2     -2     64      4     64 135.0  90.0  33928  285.66 0855.25
2009/04/23 07:08:36.2     -13    -13     46     19     49 225.0  77.1  33930  285.68 0855.25
2009/04/23 07:08:36.3     -39    -55     89     68    112 215.2  58.5  33930  285.70 0855.25
2009/04/23 07:08:36.4     -39    -57     62     70     93 214.3  46.4  33928  285.66 0855.25
2009/04/23 07:08:36.5     -36    -57     18     68     71 212.5  15.3  33932  285.71 0855.25
2009/04/23 07:08:36.6     -13    -21     -1     26     27 212.5  -2.2  33930  285.70 0855.25
2009/04/23 07:08:36.7      75     11     65     76    100  81.2  44.8  33928  285.66 0855.25
2009/04/23 07:08:36.8      67      5     79     68    104  85.6  54.8  33930  285.70 0855.25
2009/04/23 07:08:36.9      32    -16     76     37     84 117.1  72.4  33930  285.68 0855.26
2009/04/23 07:08:37.0     108    -36    100    115    152 108.6  45.8  33928  285.65 0855.26
2009/04/23 07:08:37.1     111    -58    140    126    188 117.5  53.3  33928  285.66 0855.26
2009/04/23 07:08:37.2      36      3     99     37    105  83.9  78.6  33926  285.63 0855.26
2009/04/23 07:08:37.3      50    -14    107     52    118 105.9  72.4  33926  285.61 0855.26
2009/04/23 07:08:37.4      48     31     75     58     94  57.6  58.5  33926  285.61 0855.26
2009/04/23 07:08:37.5      35     35     60     50     78  45.0  55.4  33926  285.63 0855.26
2009/04/23 07:08:37.6      47    -22     64     53     83 115.4  55.8  33930  285.70 0855.26
2009/04/23 07:08:37.7      70    -38     97     80    125 118.9  56.4  33928  285.66 0855.26
2009/04/23 07:08:37.8     127     -1     89    128    155  90.8  37.6  33928  285.65 0855.26
2009/04/23 07:08:37.9      85    -22     83     88    120 104.6  48.0  33932  285.71 0855.26
2009/04/23 07:08:38.0      70     -1     71     71    100  90.9  50.1  33926  285.63 0855.26
2009/04/23 07:08:38.1      24    -27     44     37     57 138.6  56.3  33930  285.70 0855.26
2009/04/23 07:08:38.2      -1    -53     46     54     70 181.8  43.8  33930  285.68 0855.26
2009/04/23 07:08:38.3     -30    -64     42     72     83 205.5  32.9  33930  285.70 0855.26
2009/04/23 07:08:38.4     -23    -45     37     51     63 207.2  39.7  33930  285.68 0855.26
2009/04/23 07:08:38.5     -37    -45     31     59     66 219.6  30.3  33930  285.70 0855.26
2009/04/23 07:08:38.6     -33    -15     29     37     47 244.7  42.7  33930  285.68 0855.26
2009/04/23 07:08:38.7     -17    -18      0     25     26 223.2  -1.3  33928  285.66 0855.26
2009/04/23 07:08:38.8       6    -11    -19     13     23 151.0 -64.9  33930  285.70 0855.26
2009/04/23 07:08:38.9      19     -2    -13     20     23  96.1 -39.9  33928  285.66 0855.26
2009/04/23 07:08:39.0      42    -14    -19     45     48 108.6 -27.4  33930  285.68 0855.26
2009/04/23 07:08:39.1      76      5    -18     77     80  85.7 -13.4  33924  285.58 0855.26
2009/04/23 07:08:39.2      83      9     19     84     87  83.4  13.2  33924  285.58 0855.26
2009/04/23 07:08:39.3       4      5     -8      7     10  39.6 -56.6  33920  285.53 0855.26
2009/04/23 07:08:39.4      17      7    -29     19     34  68.3 -69.0  33920  285.53 0855.26
2009/04/23 07:08:39.5      26    -23    -27     35     44 131.3 -47.1  33924  285.60 0855.26
2009/04/23 07:08:39.6      33    -32    -24     47     52 134.0 -32.6  33926  285.61 0855.26
2009/04/23 07:08:39.7      36    -37    -44     52     68 135.9 -49.2  33926  285.61 0855.26
2009/04/23 07:08:39.8      38    -12    -35     40     53 107.7 -50.2  33926  285.61 0855.26
2009/04/23 07:08:39.9      31     19    -38     37     53  57.6 -53.5  33922  285.55 0855.26
2009/04/23 07:08:40.0       9      2    -49     10     50  74.9 -90.0  33922  285.56 0855.26
2009/04/23 07:08:40.1       1     40    -24     41     47   2.7 -37.9  33924  285.58 0855.26
2009/04/23 07:08:40.2      21     13    -18     26     31  57.6 -42.0  33926  285.61 0855.26
2009/04/23 07:08:40.3      32     -2     -9     33     35  94.4 -15.5  33924  285.58 0855.26
2009/04/23 07:08:40.4      60    -38     14     72     74 122.4  11.1  33924  285.58 0855.26
2009/04/23 07:08:40.5      76    -15     -7     78     79 101.5  -5.2  33926  285.61 0855.26
2009/04/23 07:08:40.6      64    -17    -16     67     69 105.0 -13.4  33926  285.63 0855.26
2009/04/23 07:08:40.7      79    -11     -1     80     81  98.4  -1.3  33928  285.65 0855.26
2009/04/23 07:08:40.8      67      7     26     68     72  83.9  22.0  33930  285.70 0855.26
2009/04/23 07:08:40.9      61     -1     26     62     67  91.7  23.1  33928  285.66 0855.26
2009/04/23 07:08:41.0      43     -7     24     44     50  99.7  31.4  33930  285.68 0855.26
2009/04/23 07:08:41.1      48    -31     38     58     69 122.4  35.6  33928  285.65 0855.26
2009/04/23 07:08:41.2      59    -38     30     71     77 122.5  23.1  33930  285.70 0855.26
2009/04/23 07:08:41.3      45    -54      8     71     72 140.3   7.1  33930  285.70 0855.26
2009/04/23 07:08:41.4      51    -61     28     80     85 140.4  19.4  33930  285.68 0855.26
2009/04/23 07:08:41.5      63    -67     47     93    104 136.8  29.3  33932  285.73 0855.26
2009/04/23 07:08:41.6      70    -84     41    110    117 140.3  21.0  33932  285.73 0855.26
2009/04/23 07:08:41.7      73    -94     32    120    125 142.2  15.2  33932  285.71 0855.26
2009/04/23 07:08:41.8      42   -105     75    114    136 158.2  35.6  33930  285.70 0855.26
2009/04/23 07:08:41.9       0   -118     74    119    140 180.0  35.5  33930  285.68 0855.26
2009/04/23 07:08:42.0     -18   -102     95    104    140 190.2  47.9  33930  285.68 0855.26
2009/04/23 07:08:42.1     -55   -119     99    132    165 204.9  40.7  33930  285.68 0855.26
2009/04/23 07:08:42.2     -75   -135     95    155    181 209.0  34.8  33930  285.68 0855.26
2009/04/23 07:08:42.3     -55   -125     67    137    152 203.7  27.3  33930  285.70 0855.26
2009/04/23 07:08:42.4       0    -96    103     97    141 180.5  52.1  33932  285.71 0855.26
2009/04/23 07:08:42.5       5   -121     99    122    157 177.3  43.3  33930  285.68 0855.26
2009/04/23 07:08:42.6      46   -123    106    132    169 159.5  43.3  33928  285.66 0855.26
2009/04/23 07:08:42.7      12   -131     81    132    154 174.7  35.5  33932  285.73 0855.26
2009/04/23 07:08:42.8      17   -119     64    121    136 171.9  29.8  33930  285.70 0855.26
2009/04/23 07:08:42.9      43   -120     57    128    140 159.9  25.2  33932  285.71 0855.26
2009/04/23 07:08:43.0      24   -161     44    163    170 171.3  15.3  33932  285.71 0855.26
2009/04/23 07:08:43.1       0   -167     23    168    170 180.0   8.0  33934  285.76 0855.26
2009/04/23 07:08:43.2      -3   -170    -20    171    173 181.1  -6.7  33930  285.70 0855.26
2009/04/23 07:08:43.3     -61   -139     41    152    158 203.7  15.3  33930  285.70 0855.26
2009/04/23 07:08:43.4     -65   -117     21    134    136 209.0   9.0  33930  285.70 0855.26
2009/04/23 07:08:43.5     -41   -103    -19    111    113 201.8  -9.8  33932  285.71 0855.26
2009/04/23 07:08:43.6     -27    -78     -8     83     84 199.6  -5.6  33934  285.75 0855.26
2009/04/23 07:08:43.7     -23    -67    -14     71     73 199.2 -11.3  33932  285.73 0855.26
2009/04/23 07:08:43.8      -1    -60    -12     61     63 181.8 -11.5  33930  285.68 0855.26
2009/04/23 07:08:43.9      20    -36      0     42     43 150.1  -1.3  33930  285.68 0855.26
2009/04/23 07:08:44.0      22    -35    -29     42     51 148.4 -42.0  33932  285.71 0855.26
2009/04/23 07:08:44.1      50    -12    -13     52     54 104.2 -14.5  33930  285.70 0855.26
2009/04/23 07:08:44.2      68    -37     42     78     88 118.9  30.8  33930  285.70 0855.26
2009/04/23 07:08:44.3      71    -45     63     85    105 122.5  40.1  33932  285.71 0855.26
2009/04/23 07:08:44.4      57    -48     40     75     85 130.4  30.3  33930  285.70 0855.26
2009/04/23 07:08:44.5      84    -31     53     90    104 110.8  33.5  33932  285.71 0855.26
2009/04/23 07:08:44.6      67    -48     48     83     95 126.0  32.9  33932  285.71 0855.26
2009/04/23 07:08:44.7      62    -39     42     74     85 122.4  32.4  33930  285.70 0855.26
2009/04/23 07:08:44.8      19    -43     39     48     61 156.4  43.7  33928  285.66 0855.26
2009/04/23 07:08:44.9      -2    -37     22     38     43 184.5  32.4  33930  285.70 0855.26
2009/04/23 07:08:45.0     -35    -35     27     50     56 225.0  30.3  33932  285.71 0855.26
2009/04/23 07:08:45.1     -56    -27     13     63     65 243.8  12.2  33930  285.68 0855.26
2009/04/23 07:08:45.2     -49    -26     28     56     62 242.0  28.2  33930  285.68 0855.26
2009/04/23 07:08:45.3    -101    -28     50    105    116 254.5  27.2  33926  285.63 0855.26
2009/04/23 07:08:45.4    -103    -49     99    115    151 244.7  45.4  33928  285.66 0855.26
2009/04/23 07:08:45.5     -98    -25     66    102    121 255.4  36.0  33926  285.61 0855.26
2009/04/23 07:08:45.6     -71     31    -26     78     83 293.5 -18.7  33926  285.63 0855.26
2009/04/23 07:08:45.7     -86     23    -36     90     96 285.1 -26.9  33924  285.58 0855.26
2009/04/23 07:08:45.8     -74    -10     -9     75     76 262.1  -7.2  33922  285.55 0855.26
2009/04/23 07:08:45.9     -31    -48     51     58     77 212.5  45.8  33924  285.58 0855.26
2009/04/23 07:08:46.0     -19   -139     48    141    150 188.1  18.9  33928  285.66 0855.26
2009/04/23 07:08:46.1       0   -173    127    174    215 180.2  39.7  33928  285.66 0855.26
2009/04/23 07:08:46.2      34   -188    100    192    216 169.8  29.5  33926  285.61 0855.26
2009/04/23 07:08:46.3     -32   -188     16    191    192 189.8   4.9  33926  285.61 0855.26
2009/04/23 07:08:46.4      -9   -127     20    128    130 184.5   9.0  33928  285.65 0855.26
2009/04/23 07:08:46.5     -33   -129      7    134    135 194.7   3.3  33928  285.66 0855.26
2009/04/23 07:08:46.6     -56   -149     43    160    166 200.7  15.3  33928  285.65 0855.26
2009/04/23 07:08:46.7     -38   -160     86    165    186 193.4  29.5  33924  285.60 0855.26
2009/04/23 07:08:46.8     -59   -174     44    185    191 198.9  13.5  33922  285.56 0855.26
2009/04/23 07:08:46.9     -44   -106     98    115    151 202.7  44.3  33928  285.66 0855.26
2009/04/23 07:08:47.0     -55   -113     47    126    134 205.9  20.9  33926  285.63 0855.26
2009/04/23 07:08:47.1     -91   -143     24    170    172 212.5   8.2  33924  285.60 0855.26
2009/04/23 07:08:47.2     -51   -109      0    121    122 204.9   0.2  33924  285.60 0855.26
2009/04/23 07:08:47.3     -12    -36     29     39     48 198.7  40.7  33924  285.58 0855.26
2009/04/23 07:08:47.4     -33      2     32     34     46 274.4  50.0  33924  285.58 0855.26
2009/04/23 07:08:47.5     -92     30     -5     97     98 288.2  -3.2  33926  285.63 0855.26
2009/04/23 07:08:47.6     -65     41     34     77     84 302.4  24.6  33924  285.60 0855.26
2009/04/23 07:08:47.7     -42     64    -23     77     80 326.6 -21.2  33926  285.63 0855.26
2009/04/23 07:08:47.8     -34     54    -49     65     81 327.5 -45.6  33920  285.51 0855.26
2009/04/23 07:08:47.9     -73     94     32    120    125 322.2  15.3  33922  285.56 0855.26
2009/04/23 07:08:48.0     -11    111     21    112    115 354.2  11.0  33922  285.55 0855.26
2009/04/23 07:08:48.1       0     73     58     74     94   0.0  42.2  33922  285.55 0855.26
2009/04/23 07:08:48.2     -23     54     71     59     92 336.4  56.3  33922  285.55 0855.26
2009/04/23 07:08:48.3     -45     -6     62     46     77 262.1  60.5  33926  285.61 0855.26
2009/04/23 07:08:48.4     -48    -25     49     55     73 242.9  47.9  33926  285.61 0855.26
2009/04/23 07:08:48.6     -69    -26     26     74     79 249.2  19.4  33928  285.65 0855.26
2009/04/23 07:08:48.7     -51    -50      7     72     73 226.0   5.9  33928  285.66 0855.26
2009/04/23 07:08:48.8     -50    -53     -4     74     75 223.2  -3.2  33926  285.63 0855.26
2009/04/23 07:08:48.9     -39    -94    -46    103    112 202.7 -30.1  33930  285.68 0855.26
2009/04/23 07:08:48.9     -26   -112    -38    116    123 193.4 -18.1  33930  285.68 0855.26
2009/04/23 07:08:49.1      -3   -123     -2    124    125 181.8  -1.3  33930  285.68 0855.26
2009/04/23 07:08:49.2      21   -147    -24    149    152 171.9  -9.3  33932  285.71 0855.26
2009/04/23 07:08:49.3      48   -143    -19    152    154 161.3  -7.3  33928  285.66 0855.26
2009/04/23 07:08:49.4      36   -134    -32    139    143 164.9 -13.3  33926  285.63 0855.26
2009/04/23 07:08:49.5      11   -112    -34    113    118 174.2 -21.7  33928  285.65 0855.26
2009/04/23 07:08:49.6       0    -92    -11     93     94 180.4  -7.2  33926  285.63 0855.26
2009/04/23 07:08:49.7       5   -109     21    110    113 177.3  11.1  33930  285.68 0855.26
2009/04/23 07:08:49.8      12   -132     41    133    140 174.7  17.3  33932  285.71 0855.26
2009/04/23 07:08:49.9      18   -130     46    132    141 171.9  19.4  33930  285.70 0855.26
2009/04/23 07:08:50.0      24   -120     58    123    135 168.4  27.1  33930  285.68 0855.26
2009/04/23 07:08:50.1       5   -140     69    141    156 177.8  28.0  33926  285.61 0855.26
2009/04/23 07:08:50.2     -18   -129     59    131    143 188.1  25.7  33930  285.68 0855.26
2009/04/23 07:08:50.3     -23   -111     63    114    130 192.0  31.4  33930  285.68 0855.26
2009/04/23 07:08:50.4     -31    -93     55     99    113 198.7  31.4  33930  285.68 0855.26
2009/04/23 07:08:50.5     -23    -78     50     82     96 196.5  35.0  33930  285.70 0855.26
2009/04/23 07:08:50.6     -34    -91     40     98    105 200.9  23.1  33928  285.65 0855.26
2009/04/23 07:08:50.7     -79    -85     45    117    125 222.8  22.0  33932  285.71 0855.26
2009/04/23 07:08:50.8     -93    -72     38    118    125 232.2  17.9  33930  285.70 0855.26
2009/04/23 07:08:50.9     -92    -64     28    113    117 234.9  14.3  33930  285.68 0855.26
2009/04/23 07:08:51.0     -89    -56     32    106    111 238.0  16.8  33928  285.65 0855.26
2009/04/23 07:08:51.1    -104    -48     11    115    116 245.2   5.9  33926  285.63 0855.26
2009/04/23 07:08:51.2     -99    -41      2    108    109 247.4   1.2  33926  285.61 0855.26
2009/04/23 07:08:51.3    -115    -34     10    121    122 253.2   4.9  33922  285.55 0855.26
2009/04/23 07:08:51.4    -133    -44      1    141    142 251.8   0.7  33924  285.60 0855.26
2009/04/23 07:08:51.5    -123    -46     -5    132    133 249.2  -2.2  33926  285.61 0855.26
2009/04/23 07:08:51.6    -147    -39     -6    153    154 254.9  -2.6  33920  285.53 0855.26
2009/04/23 07:08:51.7    -163    -21    -40    165    170 262.5 -13.7  33922  285.56 0855.26
2009/04/23 07:08:51.8    -133    -19    -37    135    141 261.6 -15.5  33922  285.56 0855.26
2009/04/23 07:08:51.9    -154    -34    -50    158    166 257.4 -17.6  33924  285.58 0855.26
2009/04/23 07:08:52.0    -151    -37    -52    156    165 256.1 -18.7  33926  285.63 0855.26
2009/04/23 07:08:52.1     -52   -117    -58    129    141 204.1 -30.1  33928  285.65 0855.26
2009/04/23 07:08:52.2     -55   -132    -58    144    155 202.7 -27.4  33928  285.65 0855.26
2009/04/23 07:08:52.3     -15    -78    -24     80     83 191.5 -22.3  33926  285.61 0855.26
2009/04/23 07:08:52.4     -87    -69    -17    112    114 231.4  -8.8  33928  285.65 0855.26
2009/04/23 07:08:52.5    -113    -49    -12    124    125 246.5  -5.6  33926  285.61 0855.26
2009/04/23 07:08:52.6     -66   -100     -7    120    121 213.4  -3.7  33924  285.60 0855.26
2009/04/23 07:08:52.7     -84    -97    -21    129    131 221.0  -9.4  33924  285.58 0855.26
2009/04/23 07:08:52.8     -80    -50    -36     95    101 238.0 -25.9  33926  285.63 0855.26
2009/04/23 07:08:52.9     -78    -75    -31    109    114 226.0 -16.0  33926  285.61 0855.26
2009/04/23 07:08:53.0     -92    -79     -6    122    123 229.6  -3.1  33926  285.63 0855.26
2009/04/23 07:08:53.1     -98   -104    -39    143    149 223.3 -15.5  33926  285.61 0855.26
2009/04/23 07:08:53.2     -39   -165    -35    170    174 193.6 -11.9  33922  285.56 0855.26
2009/04/23 07:08:53.3    -131    -89    -61    159    170 235.8 -26.4  33916  285.46 0855.26
2009/04/23 07:08:53.4    -183    -50    -61    190    199 254.5 -22.8  33926  285.61 0855.26
2009/04/23 07:08:53.5     -86     -7    -83     87    120 264.8 -52.9  33922  285.56 0855.26
2009/04/23 07:08:53.6     -66     16    -28     69     74 284.2 -27.4  33926  285.61 0855.26
2009/04/23 07:08:53.7    -130    -19    -12    132    133 261.6  -5.6  33922  285.55 0855.26
2009/04/23 07:08:53.8       5    -65      3     66     67 175.5   2.9  33920  285.53 0855.26
2009/04/23 07:08:53.9     -15     -4     64     16     65 254.9  84.9  33922  285.56 0855.26
2009/04/23 07:08:54.0     -66    -39     66     77    101 239.3  44.8  33928  285.66 0855.27
2009/04/23 07:08:54.1     -77   -111     65    136    150 214.7  27.2  33930  285.68 0855.27
2009/04/23 07:08:54.2     -80   -112     19    138    140 215.6   8.0  33928  285.65 0855.27
2009/04/23 07:08:54.3     -93    -93     46    132    140 225.0  19.4  33930  285.68 0855.27
2009/04/23 07:08:54.4    -113   -133     10    175    176 220.5   3.3  33926  285.63 0855.27
2009/04/23 07:08:54.5    -103   -122     21    160    162 220.1   7.8  33930  285.68 0855.27
2009/04/23 07:08:54.6     -78    -85     15    116    117 222.8   7.5  33928  285.65 0855.27
2009/04/23 07:08:54.7     -90    -65    -31    112    117 234.0 -15.5  33930  285.68 0855.27
2009/04/23 07:08:54.8     -73    -55    -34     92     98 233.1 -25.9  33928  285.65 0855.27
2009/04/23 07:08:54.9     -70    -14    -27     72     76 258.6 -24.4  33926  285.63 0855.27
2009/04/23 07:08:55.0     -61    -33      4     70     71 241.1   3.8  33924  285.58 0855.27
2009/04/23 07:08:55.1     -15    -31     30     35     46 207.2  45.8  33926  285.63 0855.27
2009/04/23 07:08:55.2      -9    -56     43     57     71 189.8  41.7  33926  285.63 0855.27
2009/04/23 07:08:55.3     -25    -96     14    100    102 195.1   8.0  33928  285.65 0855.27
2009/04/23 07:08:55.4      -9   -125     -4    126    127 184.4  -2.2  33926  285.63 0855.27
2009/04/23 07:08:55.5      -8   -128      6    129    130 183.6   2.9  33928  285.66 0855.27
2009/04/23 07:08:55.6      -7   -127     24    128    131 183.1  11.0  33928  285.66 0855.27
2009/04/23 07:08:55.7     -26   -137    101    140    172 191.1  39.1  33926  285.61 0855.27
2009/04/23 07:08:55.8     -44   -145     49    152    160 197.0  18.1  33924  285.60 0855.27
2009/04/23 07:08:55.9     -52   -138     17    148    150 200.9   6.9  33928  285.65 0855.27
2009/04/23 07:08:56.0     -40   -112     52    120    130 200.0  25.1  33924  285.60 0855.27
2009/04/23 07:08:56.1       7   -116     47    117    126 176.4  23.0  33924  285.58 0855.27
2009/04/23 07:08:56.2     -45   -138     16    146    147 198.3   6.5  33926  285.63 0855.27
2009/04/23 07:08:56.3     -35   -128     -6    133    134 195.6  -2.6  33928  285.65 0855.27
2009/04/23 07:08:56.4     -60   -128     -5    142    143 205.3  -2.2  33926  285.63 0855.27
2009/04/23 07:08:56.5     -47   -146     10    154    155 197.8   3.8  33928  285.66 0855.27
2009/04/23 07:08:56.6     -36   -153     24    158    160 193.3   8.8  33926  285.63 0855.27
2009/04/23 07:08:56.7     -20   -160     38    162    167 187.3  13.2  33928  285.65 0855.27
2009/04/23 07:08:56.8     -38   -175     34    180    184 192.5  10.8  33928  285.66 0855.27
2009/04/23 07:08:56.9     -26   -183     34    185    189 188.1  10.6  33928  285.65 0855.27
2009/04/23 07:08:57.0     -28   -139     57    142    153 191.6  23.0  33928  285.66 0855.27
2009/04/23 07:08:57.1     -28   -111     60    115    129 194.3  29.3  33926  285.63 0855.27
2009/04/23 07:08:57.2       0    -99     35    100    107 180.0  19.4  33930  285.68 0855.27
2009/04/23 07:08:57.3      -3    -99     30    100    105 181.8  16.8  33926  285.63 0855.27
2009/04/23 07:08:57.4      18   -133     38    135    141 172.0  15.8  33930  285.68 0855.27
2009/04/23 07:08:57.5      17   -141     21    143    145 172.9   8.5  33926  285.63 0855.27
2009/04/23 07:08:57.6       7   -139     27    140    143 176.9  11.0  33926  285.63 0855.27
2009/04/23 07:08:57.7      30   -123     20    127    129 166.2   9.0  33928  285.66 0855.27
2009/04/23 07:08:57.8      25   -125     15    128    129 168.4   6.9  33928  285.65 0855.27
2009/04/23 07:08:57.9       2   -147     20    148    150 179.0   8.0  33926  285.63 0855.27
2009/04/23 07:08:58.0       8   -149      2    150    151 176.9   0.8  33926  285.61 0855.26
2009/04/23 07:08:58.1      38   -127     31    133    137 163.1  13.2  33926  285.63 0855.26
2009/04/23 07:08:58.2      34   -130     24    135    138 165.3  10.1  33928  285.65 0855.26
2009/04/23 07:08:58.3       8   -112     38    113    120 175.5  18.9  33928  285.66 0855.26
2009/04/23 07:08:58.4      10   -118     46    119    127 175.1  22.0  33926  285.63 0855.26
2009/04/23 07:08:58.5      21   -120     12    122    123 169.8   5.9  33926  285.61 0855.26
2009/04/23 07:08:58.6      29    -98     -2    103    104 163.5  -1.3  33924  285.58 0855.26
2009/04/23 07:08:58.7      26    -96     -5    100    101 164.9  -3.1  33924  285.58 0855.26
2009/04/23 07:08:58.8      25    -84     -1     88     89 163.5  -1.3  33926  285.61 0855.26
2009/04/23 07:08:58.9      20    -72     -2     75     76 164.0  -2.2  33928  285.65 0855.26
2009/04/23 07:08:59.0      -1    -56      2     57     58 181.8   2.8  33924  285.60 0855.26
2009/04/23 07:08:59.1       0    -45      3     46     47 180.0   4.9  33926  285.63 0855.26
2009/04/23 07:08:59.2      10    -49     18     51     55 168.5  19.4  33924  285.60 0855.26
2009/04/23 07:08:59.3       0    -45     33     46     56 180.9  38.6  33926  285.61 0855.26
2009/04/23 07:08:59.4      -3    -42     39     43     58 185.3  47.9  33924  285.60 0855.26
2009/04/23 07:08:59.5      13    -54     33     56     65 165.7  33.5  33928  285.65 0855.26
2009/04/23 07:08:59.6       7    -50     26     51     57 172.0  28.2  33928  285.66 0855.26
2009/04/23 07:08:59.7      -7    -46      9     47     48 189.8  11.1  33928  285.65 0855.26
2009/04/23 07:08:59.8     -12    -43     15     45     48 196.0  18.4  33926  285.63 0855.26
2009/04/23 07:08:59.9     -10    -50     17     52     55 191.5  18.4  33924  285.60 0855.26
2009/04/23 07:09:00.0       0    -52     25     53     58 180.9  27.1  33924  285.60 0855.26
2009/04/23 07:09:00.1      20    -77     20     80     83 164.9  14.3  33924  285.60 0855.26
2009/04/23 07:09:00.2       9    -90     37     91     98 173.8  23.1  33924  285.58 0855.26
2009/04/23 07:09:00.3      34   -102     60    108    123 161.5  31.4  33924  285.60 0855.26
2009/04/23 07:09:00.4      85    -98     45    130    138 139.0  19.4  33924  285.58 0855.26
2009/04/23 07:09:00.5     115    -68     76    134    154 120.7  32.4  33924  285.60 0855.26
2009/04/23 07:09:00.6      79    -79     88    112    142 135.0  42.2  33924  285.60 0855.26
2009/04/23 07:09:00.7      57    -97     48    113    122 149.7  24.1  33926  285.61 0855.26
2009/04/23 07:09:00.8      39   -149     37    155    160 165.3  13.7  33924  285.58 0855.26
2009/04/23 07:09:00.9      44   -146     37    153    158 163.1  13.7  33926  285.61 0855.26
2009/04/23 07:09:01.0      35   -132     48    137    146 164.8  19.4  33922  285.56 0855.26
2009/04/23 07:09:01.1      17   -123     59    125    138 171.9  27.1  33924  285.58 0855.26
2009/04/23 07:09:01.2       5   -139     56    140    150 177.8  23.0  33924  285.58 0855.26
2009/04/23 07:09:01.3     -22   -149     53    151    161 188.5  19.6  33922  285.56 0855.26
2009/04/23 07:09:01.4     -12    -82     21     83     86 188.5  14.3  33926  285.63 0855.26
2009/04/23 07:09:01.5      30    -84      4     90     91 160.0   2.9  33926  285.61 0855.26
2009/04/23 07:09:01.6     103    -76     29    129    133 126.4  12.6  33924  285.58 0855.26
2009/04/23 07:09:01.7     107    -59     14    123    124 118.9   6.9  33924  285.60 0855.26
2009/04/23 07:09:01.8      87    -27     39     92     99 107.3  24.1  33924  285.58 0855.26
2009/04/23 07:09:01.9       7    -92     61     93    111 175.5  36.0  33922  285.55 0855.26
2009/04/23 07:09:02.0      16    -85     69     87    111 169.3  43.3  33924  285.60 0855.27
2009/04/23 07:09:02.1     -22   -108     84    111    139 191.6  40.7  33924  285.60 0855.27
2009/04/23 07:09:02.2     -24   -117    138    120    182 191.6  54.3  33922  285.55 0855.27
2009/04/23 07:09:02.3      -1   -113    117    114    163 180.9  50.7  33924  285.58 0855.27
2009/04/23 07:09:02.4     -34   -155     88    159    181 192.5  31.4  33922  285.56 0855.27
2009/04/23 07:09:02.5     -66   -178    108    191    219 200.5  31.6  33924  285.60 0855.27
2009/04/23 07:09:02.6     -24    -64    180     69    192 200.9  78.4  33924  285.60 0855.27
2009/04/23 07:09:02.7      34    -51    100     62    117 146.6  65.1  33926  285.63 0855.27
2009/04/23 07:09:02.8      27   -166    133    169    215 170.7  42.2  33924  285.58 0855.27
2009/04/23 07:09:02.9      39   -187    156    192    247 168.0  43.5  33924  285.58 0855.27
2009/04/23 07:09:03.0      68   -130    131    147    196 152.4  46.4  33926  285.61 0855.27
2009/04/23 07:09:03.1      43   -119    123    127    176 159.9  49.0  33926  285.61 0855.27
2009/04/23 07:09:03.2     -12   -154    100    155    184 184.5  35.6  33924  285.58 0855.27
2009/04/23 07:09:03.3      -9   -108    144    109    180 184.9  59.2  33924  285.58 0855.27
2009/04/23 07:09:03.4     -15   -111    158    113    194 188.0  61.1  33924  285.60 0855.27
2009/04/23 07:09:03.5     -14    -82    136     84    159 190.2  65.4  33924  285.58 0855.27
2009/04/23 07:09:03.6      17     17    102     25    105  45.0  86.4  33926  285.61 0855.27
2009/04/23 07:09:03.7     -50   -140    182    149    235 200.0  56.4  33920  285.53 0855.27
2009/04/23 07:09:03.8     -37   -146    166    151    224 194.3  52.7  33926  285.63 0855.27
2009/04/23 07:09:03.9     -51   -156    186    165    248 198.0  54.0  33920  285.53 0855.27
2009/04/23 07:09:04.0      -8   -107    181    108    210 184.4  66.7  33924  285.60 0855.27
2009/04/23 07:09:04.1     -39   -145    174    151    230 195.1  54.8  33924  285.58 0855.27
2009/04/23 07:09:04.2     -85    -88    156    123    198 224.1  57.9  33922  285.56 0855.27
2009/04/23 07:09:04.3    -140   -140    148    199    248 224.9  40.4  33924  285.57 0855.27
2009/04/23 07:09:04.4    -192   -152    122    246    274 231.6  28.2  33922  285.54 0855.27
2009/04/23 07:09:04.5    -257   -102    -71    277    287 248.3 -14.5  33922  285.54 0855.27
2009/04/23 07:09:04.6    -210    -92     44    230    235 246.4  11.0  33922  285.56 0855.27
2009/04/23 07:09:04.7    -203    -52     -6    210    211 255.4  -1.8  33920  285.51 0855.27
2009/04/23 07:09:04.8    -275    -16    -10    276    277 266.5  -2.2  33918  285.49 0855.27
2009/04/23 07:09:04.9    -356      3    -77    357    366 270.6 -12.3  33916  285.45 0855.27
2009/04/23 07:09:05.0    -310    -33    -50    312    317 263.8  -9.1  33916  285.44 0855.27
2009/04/23 07:09:05.1    -231   -178    104    292    311 232.3  19.6  33916  285.45 0855.27
2009/04/23 07:09:05.2    -223   -174     66    284    292 232.0  13.2  33916  285.45 0855.27
2009/04/23 07:09:05.3    -249    -95     25    267    269 249.1   5.4  33916  285.45 0855.27
2009/04/23 07:09:05.4    -247    -78    -32    260    263 252.5  -7.2  33918  285.49 0855.27
2009/04/23 07:09:05.5    -238      0    -78    239    252 269.9 -18.1  33930  285.69 0855.27
2009/04/23 07:09:05.6    -234     47   -107    239    261 281.4 -30.1  33926  285.62 0855.27
2009/04/23 07:09:05.7    -134     22    -33    136    141 279.6 -13.9  33922  285.55 0855.27
2009/04/23 07:09:05.8     -77     58     17     97     99 306.9  10.1  33928  285.65 0855.27
2009/04/23 07:09:05.9     -82    -10     28     83     88 263.0  18.9  33926  285.61 0855.27
2009/04/23 07:09:06.0     -85    -29     68     90    112 250.9  41.2  33924  285.58 0855.28
2009/04/23 07:09:06.1     -50    -86     59    100    116 210.3  34.0  33916  285.46 0855.28
2009/04/23 07:09:06.2    -114    -61    -21    130    132 242.0  -9.3  33920  285.53 0855.28
2009/04/23 07:09:06.3    -131      0    -57    132    143 269.6 -29.0  33922  285.55 0855.28
2009/04/23 07:09:06.4    -128     30    -44    132    139 283.3 -23.6  33920  285.53 0855.28
2009/04/23 07:09:06.5     -97    -46    -83    108    136 244.7 -46.1  33926  285.63 0855.28
2009/04/23 07:09:06.6     -95      3     20     96     99 272.1  12.2  33918  285.50 0855.28
2009/04/23 07:09:06.7     -39    -83     89     92    128 205.4  49.4  33920  285.51 0855.28
2009/04/23 07:09:06.8     -88   -114     60    145    156 217.8  23.8  33912  285.39 0855.28
2009/04/23 07:09:06.9    -106   -108     -3    152    153 224.5  -1.2  33916  285.44 0855.28
2009/04/23 07:09:07.0    -132    -84      6    157    158 237.6   2.5  33914  285.43 0855.28
2009/04/23 07:09:07.1    -176     23    -28    178    181 277.5  -9.0  33912  285.38 0855.28
2009/04/23 07:09:07.2    -141    -12    -49    142    150 264.8 -23.3  33918  285.50 0855.28
2009/04/23 07:09:07.3    -107   -128     14    167    168 219.9   4.9  33914  285.43 0855.28
2009/04/23 07:09:07.4    -117   -160     40    199    204 216.1  11.4  33916  285.44 0855.28
2009/04/23 07:09:07.5    -116   -234     22    262    264 206.3   4.9  33918  285.47 0855.28
2009/04/23 07:09:07.6     -97   -208     -4    230    231 205.2  -1.1  33920  285.51 0855.28
2009/04/23 07:09:07.7    -181   -150    -18    236    237 230.4  -4.4  33914  285.42 0855.28
2009/04/23 07:09:07.8    -207    -93    -54    227    234 245.8 -13.4  33918  285.50 0855.28
2009/04/23 07:09:07.9    -142   -160    -36    215    219 221.7  -9.6  33920  285.53 0855.28
2009/04/23 07:09:08.0    -109   -192     39    222    226 209.6  10.1  33922  285.56 0855.28
2009/04/23 07:09:08.1     -84   -224     -8    240    241 200.7  -2.1  33920  285.51 0855.28
2009/04/23 07:09:08.2    -197   -255    -48    323    327 217.6  -8.6  33914  285.42 0855.28
2009/04/23 07:09:08.3    -128   -269    118    299    321 205.5  22.7  33922  285.56 0855.28
2009/04/23 07:09:08.4    -193   -288    -70    347    354 213.8 -11.5  33918  285.50 0855.28
2009/04/23 07:09:08.5    -129   -311    -11    337    338 202.6  -1.9  33918  285.50 0855.28
2009/04/23 07:09:08.6    -124   -334     97    357    371 200.5  15.3  33920  285.52 0855.28
2009/04/23 07:09:08.7    -199   -363     -9    414    415 208.7  -1.3  33918  285.49 0855.28
2009/04/23 07:09:08.8    -143   -315    -24    347    348 204.5  -4.1  33918  285.50 0855.28
2009/04/23 07:09:08.9    -327   -253      0    414    415 232.3   0.0  33916  285.46 0855.28
2009/04/23 07:09:09.0    -299   -182     70    351    358 238.6  11.3  33924  285.57 0855.28
2009/04/23 07:09:09.1    -260   -234     22    351    352 228.0   3.7  33926  285.62 0855.28
2009/04/23 07:09:09.2    -210   -210     15    298    299 225.0   2.9  33928  285.64 0855.28
2009/04/23 07:09:09.3    -229   -215    -29    315    317 226.8  -5.3  33922  285.56 0855.28
2009/04/23 07:09:09.4    -224   -228     15    320    321 224.5   2.8  33922  285.56 0855.28
2009/04/23 07:09:09.5    -217   -196    -70    293    302 228.0 -13.4  33930  285.67 0855.28
2009/04/23 07:09:09.6    -240   -213    -90    321    334 228.4 -15.7  33930  285.67 0855.28
2009/04/23 07:09:09.7    -296   -226    -22    373    374 232.6  -3.5  33928  285.65 0855.28
2009/04/23 07:09:09.8    -261   -225   -114    345    363 229.2 -23.7  33916  285.46 0855.28
2009/04/23 07:09:09.9    -217   -224    -70    312    320 224.1 -12.7  33920  285.52 0855.28
2009/04/23 07:09:10.0    -140   -285    -29    318    320 206.3  -5.3  33924  285.57 0855.28
2009/04/23 07:09:10.1     -78   -328    -74    338    347 193.4 -12.4  33928  285.65 0855.28
2009/04/23 07:09:10.2     -99   -210    -79    233    246 205.4 -23.6  33928  285.66 0855.28
2009/04/23 07:09:10.3    -101   -194   -131    219    255 207.6 -37.9  33928  285.64 0855.28
2009/04/23 07:09:10.4    -239   -285    -84    373    383 220.0 -12.7  33924  285.58 0855.28
2009/04/23 07:09:10.5    -154   -352    -27    385    386 203.6  -4.0  33926  285.63 0855.28
2009/04/23 07:09:10.6    -125   -349    -20    371    372 199.8  -3.2  33924  285.58 0855.28
2009/04/23 07:09:10.7     -51   -368    -40    372    375 187.9  -6.2  33924  285.58 0855.28
2009/04/23 07:09:10.8     -41   -227    -87    231    246 190.2 -26.1  33924  285.59 0855.28
2009/04/23 07:09:10.9     -73   -185    -77    199    213 201.6 -26.4  33928  285.66 0855.28
2009/04/23 07:09:11.0    -128   -230    -91    264    280 209.2 -19.1  33926  285.62 0855.28
2009/04/23 07:09:11.1    -155   -201   -109    254    276 217.6 -29.3  33926  285.62 0855.28
2009/04/23 07:09:11.2    -226   -166   -100    281    299 233.8 -19.6  33924  285.59 0855.28
2009/04/23 07:09:11.3    -249   -269    -90    367    378 222.8 -13.8  33918  285.48 0855.28
2009/04/23 07:09:11.4    -206   -193    -95    283    299 226.9 -18.7  33922  285.54 0855.28
2009/04/23 07:09:11.5    -189   -157    -87    246    260 230.2 -24.4  33926  285.62 0855.28
2009/04/23 07:09:11.6    -156   -160    -69    224    235 224.3 -17.3  33924  285.58 0855.28
2009/04/23 07:09:11.7    -203   -215    -69    296    304 223.3 -13.2  33918  285.49 0855.28
2009/04/23 07:09:11.8    -232   -227    -62    325    332 225.7 -10.9  33918  285.48 0855.28
2009/04/23 07:09:11.9    -194   -249    -42    316    319 217.9  -7.6  33920  285.51 0855.28
2009/04/23 07:09:12.0    -151   -158    -22    219    221 223.7  -6.0  33916  285.44 0855.28
2009/04/23 07:09:12.1    -144   -174    -12    226    227 219.6  -3.1  33918  285.48 0855.28
2009/04/23 07:09:12.2    -140   -311    -19    342    343 204.3  -3.2  33920  285.53 0855.28
2009/04/23 07:09:12.3     -88   -268     24    283    285 198.3   4.9  33922  285.56 0855.28
2009/04/23 07:09:12.4    -178   -340    -77    384    392 207.6 -11.3  33924  285.57 0855.28
2009/04/23 07:09:12.5    -147   -288    -12    324    325 207.1  -2.2  33920  285.52 0855.28
2009/04/23 07:09:12.6    -179   -262    -27    318    320 214.3  -4.9  33920  285.52 0855.28
2009/04/23 07:09:12.7     -47   -331    -46    335    339 188.2  -7.9  33920  285.53 0855.28
2009/04/23 07:09:12.8     -23   -300     15    301    302 184.5   2.9  33926  285.61 0855.28
2009/04/23 07:09:12.9     -14   -303    -27    304    306 182.7  -5.2  33926  285.61 0855.28
2009/04/23 07:09:13.0     -26   -244     -9    246    247 186.2  -2.2  33922  285.56 0855.28
2009/04/23 07:09:13.1      -9   -295     -6    296    297 181.8  -1.3  33922  285.56 0855.28
2009/04/23 07:09:13.2     -93   -317    -48    331    335 196.4  -8.4  33924  285.58 0855.28
2009/04/23 07:09:13.3     -62   -284    -92    291    306 192.5 -17.5  33924  285.59 0855.28
2009/04/23 07:09:13.4     -50   -346    -45    350    353 188.2  -7.4  33922  285.55 0855.28
2009/04/23 07:09:13.5     -99   -285    -83    302    314 199.2 -15.5  33920  285.52 0855.28
2009/04/23 07:09:13.6     -87   -355      4    366    367 193.8   0.7  33922  285.55 0855.28
2009/04/23 07:09:13.7    -130   -312    -39    339    342 202.7  -6.6  33922  285.55 0855.28
2009/04/23 07:09:13.8     -17   -372     -3    373    374 182.7  -0.5  33924  285.58 0855.28
2009/04/23 07:09:14.0     -39   -342    -80    345    355 186.6 -13.2  33926  285.62 0855.28
2009/04/23 07:09:14.0      32   -379    -59    381    386 175.0  -8.9  33926  285.62 0855.28
2009/04/23 07:09:14.1       8   -362     -7    363    364 178.6  -1.2  33924  285.57 0855.28
2009/04/23 07:09:14.3      32   -336     40    338    341 174.4   6.9  33922  285.55 0855.28
2009/04/23 07:09:14.3      -4   -305    106    306    325 180.9  19.2  33914  285.42 0855.28
2009/04/23 07:09:14.4    -104   -203     64    229    238 207.2  15.8  33924  285.57 0855.28
2009/04/23 07:09:14.6     -43   -254     62    258    266 189.6  13.7  33924  285.59 0855.28
2009/04/23 07:09:14.7     -98   -272      4    290    291 199.8   0.8  33926  285.61 0855.28
2009/04/23 07:09:14.8     -72   -225     18    237    238 197.8   4.4  33924  285.59 0855.28
2009/04/23 07:09:14.9       8   -333     53    334    339 178.6   9.0  33926  285.63 0855.28
2009/04/23 07:09:15.0     -27   -327     58    329    335 184.9  10.0  33928  285.65 0855.28
2009/04/23 07:09:15.1      20   -293    110    294    313 176.0  21.5  33926  285.61 0855.28
2009/04/23 07:09:15.2     -50   -267     58    272    279 190.7  12.1  33926  285.61 0855.28
2009/04/23 07:09:15.3     -68   -298     15    306    307 192.9   2.9  33926  285.61 0855.28
2009/04/23 07:09:15.4      -4   -286    -52    287    292 181.0 -10.3  33926  285.62 0855.28
2009/04/23 07:09:15.5     -87   -261     37    276    279 198.5   7.8  33926  285.61 0855.28
2009/04/23 07:09:15.6     -85   -270    -11    284    285 197.4  -2.2  33930  285.67 0855.28
2009/04/23 07:09:15.7     -25   -260     32    262    265 185.6   7.1  33926  285.61 0855.28
2009/04/23 07:09:15.8     -17   -220     11    221    222 184.5   2.9  33924  285.60 0855.28
2009/04/23 07:09:15.9      32   -156     56    160    170 168.4  19.4  33926  285.61 0855.28
2009/04/23 07:09:16.0      -8   -188     35    189    193 182.5  10.6  33924  285.60 0855.28
2009/04/23 07:09:16.1     -16   -234      2    235    236 184.0   0.7  33922  285.54 0855.28
2009/04/23 07:09:16.2      -3   -211      0    212    213 180.9   0.2  33922  285.56 0855.28
2009/04/23 07:09:16.3     -41   -239     24    243    245 189.8   5.7  33926  285.61 0855.28
2009/04/23 07:09:16.4    -127   -255    -77    286    297 206.5 -15.2  33924  285.59 0855.28
2009/04/23 07:09:16.5    -140   -242    -72    280    290 210.1 -14.4  33926  285.61 0855.28
2009/04/23 07:09:16.6     -93   -280    -51    296    301 198.5  -9.8  33926  285.61 0855.28
2009/04/23 07:09:16.7     -95   -252    -85    270    284 200.7 -17.6  33926  285.61 0855.28
2009/04/23 07:09:16.8     -17   -247    -59    248    255 184.0 -13.4  33924  285.57 0855.28
2009/04/23 07:09:16.9     -84   -220    -81    236    249 200.9 -23.8  33924  285.57 0855.28
2009/04/23 07:09:17.0     -33   -158    -55    162    172 191.8 -18.9  33926  285.61 0855.28
2009/04/23 07:09:17.1       0   -180    -58    181    190 180.2 -23.3  33922  285.55 0855.28
2009/04/23 07:09:17.2     -31   -370      2    372    373 184.8   0.4  33924  285.57 0855.28
2009/04/23 07:09:17.3      -5   -338    -18    339    340 180.9  -3.1  33924  285.60 0855.28
2009/04/23 07:09:17.4     -22   -295    -67    296    304 184.4 -12.9  33926  285.61 0855.28
2009/04/23 07:09:17.5      -3   -268    -49    269    274 180.7 -10.4  33924  285.59 0855.28
2009/04/23 07:09:17.6     -11   -336      0    337    338 182.0   0.0  33922  285.55 0855.28
2009/04/23 07:09:17.7       6   -320     42    321    324 178.8   7.6  33926  285.62 0855.28
2009/04/23 07:09:17.8     -27   -325     80    327    337 184.8  13.9  33924  285.60 0855.28
2009/04/23 07:09:17.9     -38   -316     68    319    327 187.0  12.2  33924  285.57 0855.28
2009/04/23 07:09:18.0     -73   -240     49    252    257 197.0  11.0  33924  285.57 0855.28
2009/04/23 07:09:18.1     -26   -238     -5    240    241 186.3  -1.3  33924  285.59 0855.28
2009/04/23 07:09:18.2     -67   -204     22    215    217 198.3   5.9  33926  285.61 0855.28
2009/04/23 07:09:18.3     -60   -178     57    188    197 198.7  17.1  33926  285.61 0855.28
2009/04/23 07:09:18.4     -40   -136    110    142    179 196.5  41.7  33924  285.60 0855.28
2009/04/23 07:09:18.5    -117   -189     51    223    229 211.9  12.9  33926  285.61 0855.28
2009/04/23 07:09:18.6     -98   -157     59    186    196 211.9  17.7  33924  285.58 0855.28
2009/04/23 07:09:18.7    -192   -232     47    302    306 219.6   9.0  33924  285.57 0855.28
2009/04/23 07:09:18.8    -151   -119     99    193    216 231.6  29.3  33924  285.58 0855.28
2009/04/23 07:09:18.9     -97   -159     97    187    210 211.4  29.3  33924  285.58 0855.28
2009/04/23 07:09:19.0      18   -158    142    160    213 173.3  46.2  33924  285.58 0855.28
2009/04/23 07:09:19.1     -24   -239    138    241    277 185.8  32.4  33926  285.61 0855.28
2009/04/23 07:09:19.2     -26   -275    113    277    299 185.6  23.1  33926  285.62 0855.28
2009/04/23 07:09:19.3     -99   -275     26    293    295 200.0   5.2  33922  285.56 0855.28
2009/04/23 07:09:19.4     -57   -195     64    204    214 196.3  17.4  33924  285.60 0855.28
2009/04/23 07:09:19.5     -45   -208     73    213    226 192.3  18.9  33926  285.61 0855.28
2009/04/23 07:09:19.6     -60   -178     67    188    199 198.7  20.4  33924  285.60 0855.28
2009/04/23 07:09:19.7     -75   -176     49    192    199 203.2  14.5  33926  285.61 0855.28
2009/04/23 07:09:19.8     -92   -252     66    269    278 200.1  13.9  33926  285.61 0855.28
2009/04/23 07:09:19.9     -61   -218    127    227    260 195.8  31.4  33924  285.59 0855.28
2009/04/23 07:09:20.0     -45   -185    192    191    270 193.8  49.9  33924  285.57 0855.28
2009/04/23 07:09:20.1     -48   -195    152    201    252 194.0  40.7  33924  285.59 0855.28
2009/04/23 07:09:20.2     -49   -150    105    158    189 198.3  36.5  33926  285.63 0855.28
2009/04/23 07:09:20.3     -87   -150     93    174    197 210.1  30.6  33924  285.60 0855.28
2009/04/23 07:09:20.4     -36   -193      1    197    198 190.7   0.5  33926  285.63 0855.28
2009/04/23 07:09:20.5      61   -191     61    201    211 162.2  17.1  33924  285.58 0855.28
2009/04/23 07:09:20.6      13   -168    108    169    200 175.3  35.6  33926  285.61 0855.28
2009/04/23 07:09:20.7      17   -202    138    203    245 174.9  37.6  33924  285.59 0855.28
2009/04/23 07:09:20.8     -31   -128     75    132    151 193.8  31.9  33924  285.58 0855.28
2009/04/23 07:09:20.9     -71   -129     80    148    168 208.9  30.8  33924  285.60 0855.28
2009/04/23 07:09:21.0     -73   -203    117    216    245 199.8  30.6  33924  285.59 0855.28
2009/04/23 07:09:21.1     -83   -209    202    226    303 201.8  46.4  33926  285.62 0855.27
2009/04/23 07:09:21.2     -96   -170    190    196    272 209.4  49.2  33926  285.61 0855.27
2009/04/23 07:09:21.3     -49   -223    162    229    280 192.5  38.6  33920  285.52 0855.27
2009/04/23 07:09:21.4     -23   -339    141    340    368 183.9  23.7  33922  285.55 0855.27
2009/04/23 07:09:21.5     -14   -314    111    315    335 182.6  19.5  33924  285.57 0855.27
2009/04/23 07:09:21.6      19   -347     90    348    360 176.8  14.6  33922  285.55 0855.27
2009/04/23 07:09:21.7       4   -289     85    290    303 179.1  16.4  33924  285.57 0855.27
2009/04/23 07:09:21.8     -33   -239     77    242    254 188.0  17.7  33922  285.56 0855.27
2009/04/23 07:09:21.9     -89   -234     67    251    260 201.0  15.0  33924  285.59 0855.27
2009/04/23 07:09:22.0     -97   -212     84    234    249 204.5  19.9  33922  285.54 0855.27
2009/04/23 07:09:22.1     -85   -134    126    159    202 212.5  42.2  33920  285.53 0855.27
2009/04/23 07:09:22.2     -92   -134     46    163    170 214.5  15.8  33924  285.60 0855.27
2009/04/23 07:09:22.3     -12   -181     -3    182    183 184.0  -1.1  33928  285.65 0855.27
2009/04/23 07:09:22.4      47   -186    -41    192    197 165.7 -12.2  33924  285.60 0855.27
2009/04/23 07:09:22.5       8   -194     -5    195    196 177.5  -1.6  33920  285.51 0855.27
2009/04/23 07:09:22.6       6   -209     45    210    215 178.2  12.2  33922  285.56 0855.27
2009/04/23 07:09:22.7      11   -288     22    289    290 177.8   4.4  33920  285.51 0855.27
2009/04/23 07:09:22.8      58   -323    158    329    364 169.7  27.3  33920  285.52 0855.27
2009/04/23 07:09:22.9     114   -285    156    308    345 158.2  28.9  33920  285.53 0855.27
2009/04/23 07:09:23.0      82   -240    153    254    296 160.9  33.7  33920  285.52 0855.27
2009/04/23 07:09:23.1      81   -233    152    247    290 160.8  34.8  33922  285.56 0855.26
2009/04/23 07:09:23.2      40   -198    185    203    274 168.4  47.0  33924  285.57 0855.26
2009/04/23 07:09:23.3      66   -200    169    211    270 161.7  43.0  33924  285.57 0855.26
2009/04/23 07:09:23.4      78   -192    136    208    248 157.7  36.3  33924  285.59 0855.26
2009/04/23 07:09:23.5      57   -150    119    161    200 159.1  40.1  33924  285.58 0855.26
2009/04/23 07:09:23.6      16   -162    165    163    231 174.2  50.1  33924  285.58 0855.26
2009/04/23 07:09:23.7     -44   -176    159    182    241 194.0  45.8  33924  285.58 0855.26
2009/04/23 07:09:23.8       0   -113    146    114    185 180.5  58.2  33922  285.55 0855.26
2009/04/23 07:09:23.9       3    -72     83     73    110 177.3  54.3  33924  285.60 0855.26
2009/04/23 07:09:24.0     -35   -106     53    112    123 198.7  27.1  33920  285.53 0855.26
2009/04/23 07:09:24.1     -17    -62    114     65    131 196.0  67.7  33922  285.55 0855.26
2009/04/23 07:09:24.2     -37   -129     95    135    165 196.0  38.6  33922  285.56 0855.26
2009/04/23 07:09:24.3     -24    -96    113    100    150 194.3  54.2  33924  285.60 0855.26
2009/04/23 07:09:24.4      18    -43     75     47     88 157.3  64.7  33922  285.55 0855.26
2009/04/23 07:09:24.5      30   -134    109    138    175 167.1  42.4  33926  285.61 0855.26
2009/04/23 07:09:24.6      22   -185     91    187    207 173.1  27.8  33924  285.58 0855.26
2009/04/23 07:09:24.7      18   -191    114    192    223 174.4  33.5  33924  285.58 0855.26
2009/04/23 07:09:24.8      51   -265     60    270    277 169.1  12.6  33924  285.57 0855.26
2009/04/23 07:09:24.9      20   -260     61    261    269 175.5  13.2  33924  285.57 0855.26
2009/04/23 07:09:25.0     -17   -245     13    246    247 184.0   3.1  33924  285.59 0855.26
2009/04/23 07:09:25.1       5   -198     69    199    211 178.4  19.2  33916  285.46 0855.26
2009/04/23 07:09:25.2      -4   -231     59    232    240 181.1  14.3  33916  285.45 0855.26
2009/04/23 07:09:25.3      11   -199     66    200    211 176.6  18.4  33918  285.50 0855.26
2009/04/23 07:09:25.4      -4   -217     71    218    230 181.1  18.1  33920  285.53 0855.26
2009/04/23 07:09:25.5      16   -243     82    244    258 176.2  18.6  33920  285.51 0855.26
2009/04/23 07:09:25.6     -18   -243    101    244    264 184.4  23.6  33918  285.47 0855.26
2009/04/23 07:09:25.7     -41   -232    101    236    256 190.2  24.3  33920  285.51 0855.26
2009/04/23 07:09:25.8     -12   -244    114    245    270 182.9  27.0  33918  285.47 0855.26
2009/04/23 07:09:25.9     -40   -200    100    204    227 191.3  27.8  33916  285.46 0855.26
2009/04/23 07:09:26.0     -17   -217    123    218    250 184.5  31.9  33920  285.51 0855.26
2009/04/23 07:09:26.1     -32   -231    143    234    274 188.0  34.4  33918  285.49 0855.26
2009/04/23 07:09:26.2     -17   -230    158    231    279 184.4  37.6  33918  285.47 0855.26
2009/04/23 07:09:26.3      22   -207    110    209    236 173.8  29.8  33918  285.50 0855.26
2009/04/23 07:09:26.4     -38   -189     95    194    216 191.6  27.8  33916  285.46 0855.26
2009/04/23 07:09:26.5      13   -196     99    197    220 176.2  28.7  33918  285.48 0855.26
2009/04/23 07:09:26.6     -47   -170     84    177    195 195.6  27.2  33918  285.50 0855.26
2009/04/23 07:09:26.7     -12   -158     90    159    182 184.5  32.1  33918  285.50 0855.26
2009/04/23 07:09:26.8      -2   -159     63    160    171 180.9  22.5  33920  285.51 0855.26
2009/04/23 07:09:26.9      66   -177     61    189    199 159.5  18.1  33918  285.50 0855.26
2009/04/23 07:09:27.0      56   -210     68    218    229 164.9  17.4  33914  285.43 0855.26
2009/04/23 07:09:27.1      43   -214     98    219    239 168.5  25.7  33920  285.52 0855.27
2009/04/23 07:09:27.2      20   -218     95    220    239 174.7  24.9  33920  285.52 0855.27
2009/04/23 07:09:27.3      27   -170    101    173    200 170.9  33.1  33920  285.51 0855.27
2009/04/23 07:09:27.4      14   -178    103    179    206 175.3  32.7  33920  285.51 0855.27
2009/04/23 07:09:27.5       6   -155     98    156    184 177.8  35.5  33920  285.51 0855.27
2009/04/23 07:09:27.6      49   -176    107    183    211 164.2  33.4  33920  285.53 0855.27
2009/04/23 07:09:27.7      38   -209    110    213    239 169.5  29.3  33922  285.55 0855.27
2009/04/23 07:09:27.8      42   -193     75    198    211 167.7  21.5  33918  285.50 0855.27
2009/04/23 07:09:27.9      20   -192     66    194    206 173.8  18.9  33922  285.55 0855.27
2009/04/23 07:09:28.0      17   -214     74    215    228 175.3  19.2  33920  285.51 0855.27
2009/04/23 07:09:28.1      24   -244     73    246    257 174.2  16.6  33922  285.54 0855.27
2009/04/23 07:09:28.2      -5   -228     95    229    247 181.4  24.1  33922  285.54 0855.27
2009/04/23 07:09:28.3      20   -197    102    199    223 174.0  29.3  33922  285.56 0855.27
2009/04/23 07:09:28.4      25   -198     79    200    215 172.7  22.8  33918  285.50 0855.27
2009/04/23 07:09:28.5      -2   -206     56    207    215 180.7  15.3  33920  285.51 0855.27
2009/04/23 07:09:28.6      -9   -269     44    270    274 182.0   9.3  33920  285.52 0855.27
2009/04/23 07:09:28.7     -23   -301     65    302    310 184.5  12.2  33918  285.49 0855.27
2009/04/23 07:09:28.8       5   -326     26    327    329 179.1   4.7  33920  285.52 0855.27
2009/04/23 07:09:28.9      -7   -328     75    329    338 181.4  12.9  33920  285.53 0855.27
2009/04/23 07:09:29.0     -31   -283     54    285    291 186.3  10.8  33922  285.54 0855.27
2009/04/23 07:09:29.1      38   -247      7    251    252 171.1   1.7  33922  285.54 0855.27
2009/04/23 07:09:29.2       4   -262    -28    263    265 179.1  -6.2  33922  285.54 0855.27
2009/04/23 07:09:29.3      25   -269     20    271    272 174.7   4.2  33918  285.47 0855.27
2009/04/23 07:09:29.4     107   -244    109    267    288 156.2  23.4  33920  285.51 0855.27
2009/04/23 07:09:29.5      40   -248     98    252    270 170.7  22.5  33922  285.54 0855.27
2009/04/23 07:09:29.6      73   -248    104    259    279 163.5  23.0  33922  285.56 0855.27
2009/04/23 07:09:29.7      72   -245    156    256    299 163.5  34.4  33924  285.57 0855.27
2009/04/23 07:09:29.8      98   -207    197    230    302 154.5  44.8  33918  285.49 0855.27
2009/04/23 07:09:29.9     141   -222    191    264    325 147.5  39.5  33918  285.49 0855.27
2009/04/23 07:09:30.0     106   -276    197    296    355 159.0  36.9  33916  285.45 0855.27
2009/04/23 07:09:30.1     106   -243    191    266    327 156.4  39.2  33920  285.52 0855.27
2009/04/23 07:09:30.2      83   -243    188    257    318 161.1  39.9  33920  285.51 0855.27
2009/04/23 07:09:30.3      24   -260    179    262    317 174.7  37.7  33920  285.52 0855.27
2009/04/23 07:09:30.4      20   -263    119    264    289 175.5  26.2  33920  285.51 0855.27
2009/04/23 07:09:30.5      62   -241    194    249    315 165.5  42.0  33922  285.54 0855.27
2009/04/23 07:09:30.6      67   -279    152    287    324 166.4  30.1  33920  285.51 0855.27
2009/04/23 07:09:30.7      53   -295     86    300    313 169.8  16.0  33920  285.52 0855.27
2009/04/23 07:09:30.8      77   -250    172    262    313 162.8  36.5  33918  285.49 0855.27
2009/04/23 07:09:30.9      22   -238    189    240    305 174.7  42.4  33920  285.52 0855.27
2009/04/23 07:09:31.0      30   -212    142    215    257 171.9  36.5  33918  285.49 0855.27
2009/04/23 07:09:31.1     -16   -219    159    220    271 184.4  39.5  33918  285.47 0855.27
2009/04/23 07:09:31.2     -49   -227    119    233    261 192.3  29.3  33920  285.51 0855.27
2009/04/23 07:09:31.3     -16   -260     98    261    278 183.6  21.3  33920  285.51 0855.27
2009/04/23 07:09:31.4      46   -296    121    300    323 171.1  23.2  33920  285.51 0855.27
2009/04/23 07:09:31.5      50   -243    177    249    305 168.2  39.1  33918  285.47 0855.27
2009/04/23 07:09:31.6      53   -239    109    246    269 167.3  25.7  33918  285.49 0855.27
2009/04/23 07:09:31.7      36   -255    113    258    281 171.8  25.1  33922  285.54 0855.27
2009/04/23 07:09:31.8     -84   -313    170    325    366 195.1  29.6  33920  285.52 0855.27
2009/04/23 07:09:31.9     -44   -271    252    275    373 189.3  47.5  33920  285.52 0855.27
2009/04/23 07:09:32.0     -70   -260    218    270    347 195.2  43.3  33920  285.51 0855.27
2009/04/23 07:09:32.1     -26   -247    222    249    333 186.2  46.3  33918  285.49 0855.28
2009/04/23 07:09:32.2       8    -99    188    100    212 175.1  69.8  33922  285.55 0855.28
2009/04/23 07:09:32.3      28   -265    141    267    301 173.8  30.3  33920  285.52 0855.28
2009/04/23 07:09:32.4     -41   -180    115    185    217 193.1  35.2  33920  285.53 0855.28
2009/04/23 07:09:32.5     -66   -185    106    197    223 199.8  30.8  33920  285.51 0855.28
2009/04/23 07:09:32.6     -52   -125     76    136    155 202.7  31.4  33920  285.51 0855.28
2009/04/23 07:09:32.7     -30    -48     82     57     99 212.5  61.5  33916  285.46 0855.28
2009/04/23 07:09:32.8     -40     64     73     76    105 327.5  49.4  33916  285.46 0855.28
2009/04/23 07:09:32.9     -75     48     74     90    116 302.9  43.7  33918  285.50 0855.28
2009/04/23 07:09:33.0     -67     34    126     76    147 297.1  65.7  33914  285.43 0855.28
2009/04/23 07:09:33.1    -206      9     58    207    216 272.6  15.8  33908  285.33 0855.28
2009/04/23 07:09:33.2    -213    108     42    239    243 297.0  10.1  33916  285.45 0855.28
2009/04/23 07:09:33.3    -257    -52     92    263    279 258.6  19.4  33916  285.44 0855.28
2009/04/23 07:09:33.4    -152    -36     89    157    180 256.7  31.9  33920  285.51 0855.28
2009/04/23 07:09:33.5    -197     -4    -27    198    200 268.7  -8.0  33918  285.48 0855.28
2009/04/23 07:09:33.6    -195     -8    -46    196    202 267.4 -13.3  33916  285.44 0855.28
2009/04/23 07:09:33.7    -165    -16    -41    166    172 264.3 -13.9  33918  285.48 0855.28
2009/04/23 07:09:33.8    -114     34    -24    120    123 286.9 -11.5  33916  285.46 0855.28
2009/04/23 07:09:33.9     -94    -31    -41    100    108 251.4 -27.4  33916  285.46 0855.28
2009/04/23 07:09:34.0    -124    -93     68    155    169 233.1  25.3  33916  285.44 0855.28
2009/04/23 07:09:34.1    -148   -190    179    241    300 217.9  40.1  33916  285.45 0855.28
2009/04/23 07:09:34.2     -92   -110    183    144    232 220.1  57.9  33916  285.46 0855.28
2009/04/23 07:09:34.3    -134   -185    120    229    258 215.8  30.1  33924  285.57 0855.28
2009/04/23 07:09:34.4    -147   -154     71    214    226 223.7  18.4  33922  285.56 0855.28
2009/04/23 07:09:34.5    -125   -196    -18    233    234 212.6  -4.6  33920  285.52 0855.28
2009/04/23 07:09:34.6    -134   -133     -2    190    191 225.2  -0.7  33916  285.44 0855.28
2009/04/23 07:09:34.7    -181    -54      2    189    190 253.4   0.8  33916  285.46 0855.28
2009/04/23 07:09:34.8    -133    -14     66    134    149 263.9  27.8  33922  285.56 0855.28
2009/04/23 07:09:34.9    -172     -7     48    173    180 267.4  15.8  33920  285.53 0855.28
2009/04/23 07:09:35.0    -143    -21    -40    145    151 261.6 -15.4  33918  285.50 0855.28
2009/04/23 07:09:35.1    -136   -102    -21    170    172 233.1  -7.3  33918  285.48 0855.28
2009/04/23 07:09:35.2    -115    -95     11    150    151 230.5   4.4  33924  285.58 0855.28
2009/04/23 07:09:35.3    -199      0    -40    200    205 270.0 -11.5  33904  285.26 0855.28
2009/04/23 07:09:35.4    -143    139    -52    200    207 314.0 -14.7  33910  285.34 0855.28
2009/04/23 07:09:35.5    -188    -23    -63    190    201 263.0 -18.3  33914  285.41 0855.28
2009/04/23 07:09:35.6    -160    -15    -54    161    169 264.3 -23.6  33910  285.36 0855.28
2009/04/23 07:09:35.7    -175     22    -81    177    194 277.2 -31.0  33910  285.36 0855.28
2009/04/23 07:09:35.8    -163     26    -10    166    167 279.2  -3.7  33910  285.34 0855.28
2009/04/23 07:09:35.9    -134     64     19    149    151 295.8   7.5  33912  285.38 0855.28
2009/04/23 07:09:36.0     -98     58      2    114    115 300.7   1.2  33914  285.41 0855.28
2009/04/23 07:09:36.1     -79     68    -26    105    109 310.4 -13.9  33912  285.38 0855.26
2009/04/23 07:09:36.2     -67     92     -2    114    115 323.9  -1.3  33914  285.41 0855.26
2009/04/23 07:09:36.3     -60    126     -7    140    141 334.6  -3.2  33914  285.43 0855.26
2009/04/23 07:09:36.4    -125    103     -8    163    164 309.5  -3.1  33916  285.44 0855.26
2009/04/23 07:09:36.5    -132     82     -4    156    157 302.0  -1.8  33916  285.44 0855.26
2009/04/23 07:09:36.6    -183     31    -46    186    192 279.9 -13.9  33916  285.44 0855.26
2009/04/23 07:09:36.7    -214     98    -55    236    243 294.6 -13.3  33916  285.44 0855.26
2009/04/23 07:09:36.8    -210     69    -28    222    224 288.2  -7.2  33918  285.48 0855.26
2009/04/23 07:09:36.9    -211     77     35    225    228 290.2   9.0  33914  285.43 0855.26
2009/04/23 07:09:37.0    -191     -5    -45    192    198 268.3 -13.3  33914  285.43 0855.26
2009/04/23 07:09:37.1    -164     10    -42    165    171 273.7 -14.5  33918  285.48 0855.26
2009/04/23 07:09:37.2    -155     55     29    165    168 289.5  10.1  33920  285.51 0855.26
2009/04/23 07:09:37.3    -141     66     22    156    158 295.2   8.2  33918  285.50 0855.26
2009/04/23 07:09:37.4    -160     88     35    183    187 298.9  11.0  33918  285.50 0855.26
2009/04/23 07:09:37.5    -108     76     36    133    138 305.1  15.3  33918  285.50 0855.26
2009/04/23 07:09:37.6    -165    -32     37    169    174 259.0  12.6  33920  285.53 0855.26
2009/04/23 07:09:37.7    -166     -7      0    167    168 267.4   0.2  33920  285.53 0855.26
2009/04/23 07:09:37.8    -157     21    -25    159    162 277.9  -9.0  33918  285.50 0855.26
2009/04/23 07:09:37.9    -181     82     -3    199    200 294.4  -1.1  33910  285.34 0855.26
2009/04/23 07:09:38.0    -168     48      7    175    176 286.2   2.5  33914  285.41 0855.26
2009/04/23 07:09:38.1    -169     69    -14    183    184 292.4  -4.4  33912  285.38 0855.27
2009/04/23 07:09:38.2    -171    100     44    199    204 300.4  12.6  33916  285.46 0855.27
2009/04/23 07:09:38.3    -209     95    -13    230    231 294.4  -3.3  33916  285.46 0855.27
2009/04/23 07:09:38.4    -217    119     -5    248    249 298.9  -1.3  33916  285.45 0855.27
2009/04/23 07:09:38.5    -263     57     52    270    276 282.3  11.0  33910  285.34 0855.27
2009/04/23 07:09:38.6    -310      0      6    311    312 270.0   1.1  33914  285.40 0855.27
2009/04/23 07:09:38.7    -278    -16    -99    279    297 266.6 -19.6  33914  285.40 0855.27
2009/04/23 07:09:38.8    -319     -4    -92    320    332 269.2 -20.7  33914  285.42 0855.27
2009/04/23 07:09:38.9    -266     33     22    269    271 277.1   4.9  33916  285.45 0855.27
2009/04/23 07:09:39.0    -247    114     48    273    278 294.8  10.0  33920  285.51 0855.27
2009/04/23 07:09:39.1    -190     93     54    212    219 296.2  14.3  33920  285.53 0855.27
2009/04/23 07:09:39.2    -164     49     52    172    180 286.6  16.8  33920  285.53 0855.27
2009/04/23 07:09:39.3    -131    155     -7    204    205 319.7  -2.2  33920  285.53 0855.27
2009/04/23 07:09:39.4    -112    129    -21    172    174 319.0  -7.2  33924  285.58 0855.27
2009/04/23 07:09:39.5    -140     61    -11    153    154 293.5  -4.1  33922  285.56 0855.27
2009/04/23 07:09:39.6    -167    113    -37    202    206 304.1 -10.5  33920  285.51 0855.27
2009/04/23 07:09:39.7     -88     81     22    120    123 312.7  10.6  33918  285.48 0855.27
2009/04/23 07:09:39.8    -131     17      2    133    134 277.5   1.2  33916  285.44 0855.27
2009/04/23 07:09:39.9    -186     25     -5    188    189 277.9  -1.8  33922  285.55 0855.27
2009/04/23 07:09:40.0    -120   -104     20    159    161 229.1   7.2  33920  285.51 0855.27
2009/04/23 07:09:40.1     -50   -149     -3    158    159 198.7  -1.1  33920  285.53 0855.27
2009/04/23 07:09:40.2       6   -173     56    174    183 178.0  17.9  33918  285.48 0855.27
2009/04/23 07:09:40.3      37   -186    -45    190    196 168.7 -13.4  33920  285.53 0855.27
2009/04/23 07:09:40.5     -45   -184     89    190    209 194.0  27.1  33916  285.44 0855.27
2009/04/23 07:09:40.5      92   -174     36    197    201 152.1  10.6  33916  285.44 0855.27
2009/04/23 07:09:40.6     108   -197    -35    225    228 151.1  -9.0  33914  285.43 0855.27
2009/04/23 07:09:40.8     117   -195    -25    228    230 149.0  -6.5  33908  285.33 0855.27
2009/04/23 07:09:40.9      29   -235     37    237    240 172.9   9.0  33918  285.49 0855.27
2009/04/23 07:09:41.0       8   -172     70    173    186 177.1  23.1  33916  285.44 0855.27
2009/04/23 07:09:41.1      -8   -148     96    149    177 183.1  35.7  33916  285.46 0855.27
2009/04/23 07:09:41.2     -49   -157    127    165    208 197.4  41.7  33914  285.41 0855.27
2009/04/23 07:09:41.3      30   -127    141    131    192 166.7  52.2  33920  285.51 0855.27
2009/04/23 07:09:41.4     -59   -147    104    159    189 201.8  36.0  33914  285.43 0855.27
2009/04/23 07:09:41.5     -43   -164    115    170    205 194.7  37.3  33912  285.38 0855.27
2009/04/23 07:09:41.6     -13   -176    142    177    226 184.4  43.3  33920  285.51 0855.27
2009/04/23 07:09:41.7     -56   -200    120    208    240 195.8  32.4  33916  285.44 0855.27
2009/04/23 07:09:41.8      45   -134    165    142    217 161.3  54.8  33918  285.48 0855.27
2009/04/23 07:09:41.9     -12   -182    163    183    245 184.0  46.2  33918  285.48 0855.27
2009/04/23 07:09:42.0     -10   -180    157    181    239 183.4  45.6  33916  285.44 0855.27
2009/04/23 07:09:42.1     -10   -180    138    181    227 183.4  41.2  33916  285.44 0855.27
2009/04/23 07:09:42.2      38   -168    148    173    227 167.1  44.8  33918  285.50 0855.29
2009/04/23 07:09:42.3      29   -228    113    230    256 172.7  28.0  33916  285.44 0855.29
2009/04/23 07:09:42.4     -33   -236     65    239    248 188.0  15.3  33916  285.45 0855.29
2009/04/23 07:09:42.5     -74   -192    136    206    246 201.2  36.5  33916  285.45 0855.29
2009/04/23 07:09:42.6     -88    -88    135    125    183 225.1  52.2  33918  285.48 0855.29
2009/04/23 07:09:42.7     -58   -149    149    161    219 201.4  47.9  33914  285.43 0855.29
2009/04/23 07:09:42.8     -72   -113    100    135    168 212.6  40.1  33916  285.46 0855.29
2009/04/23 07:09:42.9     -42    -26    139     50    147 238.5  79.7  33916  285.46 0855.29
2009/04/23 07:09:43.0     -58    -23    120     63    135 248.3  70.4  33916  285.44 0855.29
2009/04/23 07:09:43.1     -73    -73    116    104    155 225.0  53.3  33914  285.41 0855.29
2009/04/23 07:09:43.2     -40     -4     47     41     62 263.9  53.3  33916  285.46 0855.29
2009/04/23 07:09:43.3     -95     31     64    101    119 288.2  35.5  33916  285.46 0855.29
2009/04/23 07:09:43.4    -120     43     42    128    135 289.9  18.4  33918  285.50 0855.29
2009/04/23 07:09:43.5     -64     30     50     71     86 295.4  38.6  33918  285.48 0855.29
2009/04/23 07:09:43.6     -51    -47     62     70     93 226.9  46.4  33916  285.46 0855.29
2009/04/23 07:09:43.7     -94     35      5    101    102 290.4   2.9  33918  285.48 0855.29
2009/04/23 07:09:43.8     -15    -79     61     81    101 190.7  40.7  33920  285.51 0855.29
2009/04/23 07:09:43.9     -34    -91     66     98    118 200.5  37.4  33918  285.50 0855.29
2009/04/23 07:09:44.0     -55    -18     46     58     74 251.8  43.7  33914  285.41 0855.29
2009/04/23 07:09:44.1    -159    -27     30    162    165 260.3  10.8  33916  285.44 0855.29
2009/04/23 07:09:44.2    -329   -205    -49    388    392 238.0  -7.2  33918  285.50 0855.29
2009/04/23 07:09:44.3    -256    -44    -14    260    261 260.1  -3.1  33908  285.30 0855.29
2009/04/23 07:09:44.4    -304    -37     -6    307    308 262.9  -1.3  33914  285.42 0855.29
2009/04/23 07:09:44.5    -257    -88     69    272    281 251.0  14.3  33916  285.44 0855.29
2009/04/23 07:09:44.6    -258   -112     12    282    283 246.4   2.5  33918  285.49 0855.29
2009/04/23 07:09:44.7    -230    -83    -37    245    248 250.0  -8.8  33920  285.51 0855.29
2009/04/23 07:09:44.8    -208     -2    -11    209    210 269.2  -3.1  33914  285.41 0855.29
2009/04/23 07:09:44.9    -256    -69    -24    266    268 254.9  -5.2  33912  285.39 0855.29
2009/04/23 07:09:45.0    -255   -133    -14    288    289 242.5  -2.8  33914  285.42 0855.29
2009/04/23 07:09:45.1    -255    -31     -1    257    258 263.0  -0.3  33908  285.30 0855.29
2009/04/23 07:09:45.2    -203     -5    -35    204    208 268.5  -9.8  33912  285.39 0855.29
2009/04/23 07:09:45.3    -224     48    -37    230    234 282.2  -9.3  33914  285.43 0855.29
2009/04/23 07:09:45.4    -197     21    -56    199    207 276.1 -15.8  33916  285.46 0855.29
2009/04/23 07:09:45.5    -141     10    -28    142    145 274.3 -11.3  33916  285.46 0855.29
2009/04/23 07:09:45.6    -204      7     -4    205    206 272.1  -1.3  33916  285.46 0855.29
2009/04/23 07:09:45.7    -258     13    -83    259    271 273.0 -23.3  33924  285.59 0855.29
2009/04/23 07:09:45.8    -185      6   -116    186    219 272.1 -39.6  33922  285.56 0855.29
2009/04/23 07:09:45.9    -199     71   -101    212    234 289.7 -31.6  33916  285.44 0855.29
2009/04/23 07:09:46.0    -158     34   -101    162    190 282.4 -39.6  33916  285.46 0855.29
2009/04/23 07:09:46.1    -242     21    -71    243    254 275.2 -16.4  33912  285.37 0855.29
2009/04/23 07:09:46.2    -229    -14    -17    230    231 266.5  -4.4  33912  285.39 0855.29
2009/04/23 07:09:46.3    -259     50    -87    264    277 281.0 -23.6  33918  285.47 0855.29
2009/04/23 07:09:46.4    -252     46    -76    257    269 280.5 -16.6  33922  285.54 0855.29
2009/04/23 07:09:46.5    -248     60    -84    256    270 283.7 -18.3  33918  285.49 0855.29
2009/04/23 07:09:46.6    -256     49   -103    261    280 281.0 -27.4  33920  285.51 0855.29
2009/04/23 07:09:46.7    -245    115    -41    271    275 295.3  -8.6  33916  285.45 0855.29
2009/04/23 07:09:46.8    -249     58   -131    256    287 283.3 -33.6  33918  285.47 0855.29
2009/04/23 07:09:46.9    -255     41   -109    259    281 279.2 -28.6  33918  285.47 0855.29
2009/04/23 07:09:47.0    -214     26   -113    216    243 277.0 -34.2  33914  285.42 0855.29
2009/04/23 07:09:47.1    -198      2    -61    199    209 270.8 -17.0  33914  285.41 0855.29
2009/04/23 07:09:47.2    -166     35    -49    170    176 282.2 -20.4  33912  285.39 0855.29
2009/04/23 07:09:47.3    -188    -14    -15    189    190 265.6  -4.6  33916  285.44 0855.29
2009/04/23 07:09:47.4    -165    -15     29    166    169 264.8  10.1  33914  285.43 0855.29
2009/04/23 07:09:47.5    -147     20      2    149    150 277.9   0.8  33914  285.41 0855.29
2009/04/23 07:09:47.6    -198     21    -38    200    204 276.2 -10.9  33912  285.38 0855.29
2009/04/23 07:09:47.7    -200    -17      0    201    202 265.0   0.0  33914  285.43 0855.29
2009/04/23 07:09:47.8    -209     19    -22    210    212 275.5  -6.2  33912  285.39 0855.29
2009/04/23 07:09:47.9    -290     58    -78    296    307 281.5 -14.8  33918  285.47 0855.29
2009/04/23 07:09:48.0    -190     54    -36    198    202 285.9 -10.5  33916  285.44 0855.29
2009/04/23 07:09:48.1    -198     12    -26    199    201 273.5  -7.5  33916  285.46 0855.29
2009/04/23 07:09:48.2    -261     58    -82    268    280 282.6 -21.8  33918  285.49 0855.30
2009/04/23 07:09:48.3    -164      2    -50    165    172 271.0 -22.1  33914  285.43 0855.30
2009/04/23 07:09:48.4    -152     13    -73    153    169 275.2 -31.7  33914  285.41 0855.30
2009/04/23 07:09:48.5    -169     49    -85    177    196 286.4 -31.7  33912  285.38 0855.30
2009/04/23 07:09:48.6    -146     57    -54    157    167 291.5 -19.1  33912  285.38 0855.30
2009/04/23 07:09:48.7     -87    152    -52    176    184 330.4 -16.6  33916  285.44 0855.30
2009/04/23 07:09:48.8     -89    173      0    195    196 332.8   0.2  33914  285.43 0855.30
2009/04/23 07:09:48.9    -139    129      9    190    191 312.9   2.8  33910  285.34 0855.30
2009/04/23 07:09:49.0     -91     16     -4     93     94 280.1  -2.6  33910  285.36 0855.30
2009/04/23 07:09:49.1     -32     55     -3     64     65 329.3  -3.2  33912  285.38 0855.30
2009/04/23 07:09:49.2     -67    107     -8    127    128 327.9  -3.7  33912  285.39 0855.30
2009/04/23 07:09:49.3     -60     44    -33     75     81 306.0 -29.5  33914  285.41 0855.30
2009/04/23 07:09:49.4    -135     27    -17    138    140 281.4  -7.2  33914  285.41 0855.30
2009/04/23 07:09:49.5    -111     46    -42    121    129 292.6 -19.1  33914  285.43 0855.30
2009/04/23 07:09:49.6     -84    134    -28    159    162 327.9 -10.3  33920  285.53 0855.30
2009/04/23 07:09:49.7    -109    123    -23    165    167 318.6  -8.0  33918  285.50 0855.30
2009/04/23 07:09:49.8     -87    116    -44    146    153 323.0 -17.0  33918  285.50 0855.30
2009/04/23 07:09:49.9     -63     92    -18    112    114 325.7  -9.3  33918  285.50 0855.30
2009/04/23 07:09:50.0     -49     91    -17    104    106 331.9  -9.3  33918  285.50 0855.30
2009/04/23 07:09:50.1     -32     96    -36    102    109 341.7 -19.7  33918  285.50 0855.30
2009/04/23 07:09:50.2     -67    113    -19    132    134 329.3  -8.2  33918  285.48 0855.30
2009/04/23 07:09:50.3    -147     66    -17    162    163 294.2  -6.2  33914  285.41 0855.30
2009/04/23 07:09:50.4     -91     92    -36    130    135 315.1 -15.5  33918  285.48 0855.30
2009/04/23 07:09:50.5    -118     85     -3    146    147 306.0  -1.3  33914  285.43 0855.30
2009/04/23 07:09:50.6    -101     83    -16    131    133 309.5  -7.3  33920  285.51 0855.30
2009/04/23 07:09:50.7     -76     73    -13    106    107 314.0  -7.2  33918  285.48 0855.30
2009/04/23 07:09:50.8     -58    122     -6    136    137 334.7  -2.6  33916  285.46 0855.30
2009/04/23 07:09:50.9     -63     88      0    109    110 324.4   0.2  33916  285.44 0855.30
2009/04/23 07:09:51.0     -55     58     -3     81     82 316.3  -2.2  33914  285.41 0855.30
2009/04/23 07:09:51.1     -71     43    -30     84     90 301.5 -19.7  33916  285.46 0855.30
2009/04/23 07:09:51.2    -107     91    -50    141    150 310.4 -19.7  33914  285.41 0855.30
2009/04/23 07:09:51.3    -103     49    -32    115    119 295.4 -20.2  33912  285.39 0855.30
2009/04/23 07:09:51.4    -163     39    -67    168    180 283.5 -27.4  33916  285.46 0855.30
2009/04/23 07:09:51.5    -176      7    -61    177    187 272.4 -23.8  33916  285.46 0855.30
2009/04/23 07:09:51.6    -158    -13    -35    159    163 265.0 -12.6  33914  285.41 0855.30
2009/04/23 07:09:51.7    -121     57    -44    134    141 295.4 -23.8  33914  285.43 0855.30
2009/04/23 07:09:51.8    -147     44     15    154    155 286.8   5.9  33914  285.43 0855.30
2009/04/23 07:09:51.9    -163     35      3    167    168 282.4   1.2  33912  285.39 0855.30
2009/04/23 07:09:52.0    -131     22    -26    133    136 279.7 -11.3  33918  285.50 0855.30
2009/04/23 07:09:52.1    -132    -14    -14    133    134 263.9  -6.2  33916  285.44 0855.30
2009/04/23 07:09:52.2    -112    -41    -19    120    122 249.6  -9.3  33918  285.48 0855.30
2009/04/23 07:09:52.3    -129    -11    -29    130    134 264.8 -12.9  33916  285.44 0855.30
2009/04/23 07:09:52.4    -148      7     -3    149    150 273.0  -1.2  33914  285.43 0855.30
2009/04/23 07:09:52.5    -124      0    -30    125    129 270.0 -13.9  33918  285.48 0855.30
2009/04/23 07:09:52.6    -129     26    -36    132    137 281.5 -15.5  33912  285.38 0855.30
2009/04/23 07:09:52.7    -126     69    -50    144    152 298.8 -23.3  33910  285.36 0855.30
2009/04/23 07:09:52.8    -132     62    -34    146    151 295.2 -13.3  33912  285.38 0855.30
2009/04/23 07:09:52.9    -142     65    -36    157    162 294.8 -13.2  33910  285.36 0855.30
2009/04/23 07:09:53.0    -147     79    -59    168    179 298.4 -19.6  33908  285.33 0855.30
2009/04/23 07:09:53.1    -164     51    -51    172    179 287.3 -21.2  33914  285.41 0855.30
2009/04/23 07:09:53.2    -138     50    -55    147    156 290.0 -25.9  33912  285.39 0855.31
2009/04/23 07:09:53.3    -141     21    -30    143    147 278.8 -11.9  33914  285.43 0855.31
2009/04/23 07:09:53.4    -145      5    -18    146    148 272.1  -7.3  33912  285.39 0855.31
2009/04/23 07:09:53.5    -145    -11    -52    146    154 265.6 -23.8  33916  285.44 0855.31
2009/04/23 07:09:53.6    -134    -16    -61    135    148 263.0 -30.6  33916  285.44 0855.31
2009/04/23 07:09:53.7    -104    -34    -59    110    124 251.8 -35.2  33918  285.48 0855.31
2009/04/23 07:09:53.8    -133    -36    -35    138    143 254.9 -14.5  33916  285.46 0855.31
2009/04/23 07:09:53.9    -150    -30     -6    154    155 258.6  -2.2  33914  285.43 0855.31
2009/04/23 07:09:54.0    -171     38     18    176    177 282.8   5.9  33912  285.38 0855.31
2009/04/23 07:09:54.1    -189     62      2    199    200 288.2   0.8  33910  285.36 0855.31
2009/04/23 07:09:54.2    -219     58    -32    227    230 285.1  -8.2  33910  285.36 0855.31
2009/04/23 07:09:54.3    -188     39    -53    193    201 281.9 -15.4  33906  285.28 0855.31
2009/04/23 07:09:54.4    -172     95    -51    197    204 298.9 -14.5  33908  285.33 0855.31
2009/04/23 07:09:54.5    -121    182    -67    219    230 326.4 -17.0  33912  285.39 0855.31
2009/04/23 07:09:54.6    -117    144    -24    186    188 321.0  -7.5  33916  285.44 0855.31
2009/04/23 07:09:54.7    -167    109    -25    200    202 303.3  -7.3  33916  285.44 0855.31
2009/04/23 07:09:54.8    -134     80    -47    157    165 300.9 -16.8  33914  285.41 0855.31
2009/04/23 07:09:54.9    -122      0     -4    123    124 270.0  -2.2  33912  285.39 0855.31
2009/04/23 07:09:55.0    -132    -26    -22    135    137 258.6  -9.4  33912  285.38 0855.31
2009/04/23 07:09:55.1    -179     13    -57    180    188 274.3 -22.8  33912  285.39 0855.31
2009/04/23 07:09:55.2    -197     98    -69    221    232 296.4 -17.5  33912  285.38 0855.31
2009/04/23 07:09:55.3    -177    177    -86    251    265 314.9 -23.6  33910  285.35 0855.31
2009/04/23 07:09:55.4    -197    151    -77    249    261 307.5 -17.3  33914  285.42 0855.31
2009/04/23 07:09:55.5    -232    148    -85    276    288 302.5 -22.1  33918  285.49 0855.31
2009/04/23 07:09:55.6    -147    177    -66    231    240 320.4 -20.7  33916  285.44 0855.31
2009/04/23 07:09:55.7    -103    156    -87    188    207 326.6 -31.0  33920  285.51 0855.31
2009/04/23 07:09:55.8     -70    176    -65    190    200 338.2 -23.6  33918  285.48 0855.31
2009/04/23 07:09:55.9     -93    167    -76    192    206 331.0 -27.4  33918  285.48 0855.31
2009/04/23 07:09:56.0    -144    207    -67    253    262 325.3 -15.0  33914  285.40 0855.31
2009/04/23 07:09:56.1     -83    168    -36    188    192 333.7 -11.1  33916  285.44 0855.31
2009/04/23 07:09:56.2     -83    143    -62    166    177 329.9 -25.9  33914  285.43 0855.31
2009/04/23 07:09:56.3     -87     50    -59    101    116 300.2 -37.9  33918  285.48 0855.31
2009/04/23 07:09:56.4     -65     78    -36    102    109 320.4 -19.7  33918  285.48 0855.31
2009/04/23 07:09:56.5     -39     61    -20     73     76 327.4 -15.5  33916  285.44 0855.31
2009/04/23 07:09:56.6      -8     55     15     56     59 351.1  15.3  33914  285.43 0855.31
2009/04/23 07:09:56.7      -9     31     57     33     65 343.1  66.8  33912  285.39 0855.31
2009/04/23 07:09:56.8      -3     14     62     15     63 344.9  85.9  33916  285.44 0855.31
2009/04/23 07:09:56.9      10     -9     51     14     52 133.3  84.9  33914  285.43 0855.31
2009/04/23 07:09:57.0      15    -26     41     31     51 149.3  58.5  33914  285.41 0855.31
2009/04/23 07:09:57.1      12    -38     40     41     57 161.7  51.1  33912  285.39 0855.31
2009/04/23 07:09:57.2       7     -6     35     10     36 133.1  82.8  33916  285.44 0855.32
2009/04/23 07:09:57.3      -7      6     17     10     19 313.1  64.7  33916  285.44 0855.32
2009/04/23 07:09:57.4     -30     31      6     44     45 315.8   8.0  33914  285.43 0855.32
2009/04/23 07:09:57.5     -26     45     20     53     56 330.1  20.0  33914  285.43 0855.32
2009/04/23 07:09:57.6     -39     30     12     50     52 307.8  14.3  33914  285.43 0855.32
2009/04/23 07:09:57.7     -60      7    -32     61     68 277.0 -33.7  33914  285.41 0855.32
2009/04/23 07:09:57.8     -72     24    -44     77     88 288.6 -36.8  33916  285.44 0855.32
2009/04/23 07:09:57.9     -72     29    -50     78     92 292.6 -40.0  33918  285.48 0855.32
2009/04/23 07:09:58.0     -80      6    -65     81    103 274.4 -47.7  33916  285.44 0855.32
2009/04/23 07:09:58.1     -46     -7    -45     47     65 261.2 -53.4  33914  285.41 0855.32
2009/04/23 07:09:58.2     -35     22    -23     42     47 302.4 -35.8  33912  285.39 0855.32
2009/04/23 07:09:58.3     -37     41    -13     56     58 318.6 -13.4  33914  285.43 0855.32
2009/04/23 07:09:58.4     -72     46    -29     86     91 302.4 -19.1  33916  285.44 0855.32
2009/04/23 07:09:58.5     -64     46    -22     79     82 305.9 -20.2  33912  285.39 0855.32
2009/04/23 07:09:58.6     -58     46    -24     75     78 308.6 -23.8  33910  285.36 0855.32
2009/04/23 07:09:58.7     -67     48    -28     83     88 305.5 -19.1  33912  285.38 0855.32
2009/04/23 07:09:58.8    -108     37    -44    115    123 289.1 -25.9  33910  285.34 0855.32
2009/04/23 07:09:58.9    -112     37    -10    119    120 288.6  -5.2  33906  285.29 0855.32
2009/04/23 07:09:59.0    -142     24    -18    145    147 279.7  -7.2  33902  285.21 0855.32
2009/04/23 07:09:59.1    -143      0    -28    144    147 270.0 -11.3  33904  285.24 0855.32
2009/04/23 07:09:59.2    -107      8    -17    108    110 274.3  -9.3  33906  285.29 0855.32
2009/04/23 07:09:59.3     -82     23    -14     86     88 285.9  -9.8  33908  285.31 0855.32
2009/04/23 07:09:59.4     -32      8    -12     34     36 285.1 -23.3  33908  285.33 0855.32
2009/04/23 07:09:59.5     -12     16     14     21     25 323.9  35.6  33906  285.29 0855.32
2009/04/23 07:09:59.6      -3      3     30      5     30 313.3  90.0  33908  285.33 0855.32
2009/04/23 07:09:59.7       8     29      0     31     32  15.1  -1.3  33908  285.33 0855.32
2009/04/23 07:09:59.8     -37     44    -42     58     71 320.4 -44.1  33908  285.33 0855.32
2009/04/23 07:09:59.9     -81     30    -59     87    105 290.8 -41.4  33908  285.31 0855.32
2009/04/23 07:10:00.0     -62     15    -68     64     93 284.2 -55.6  33908  285.33 0855.32
2009/04/23 07:10:00.1     -57     15    -90     60    108 285.1 -68.0  33910  285.36 0855.32
2009/04/23 07:10:00.2    -110     30   -106    115    156 285.5 -52.3  33914  285.41 0855.32
2009/04/23 07:10:00.3     -76    -25    -89     81    120 251.4 -57.1  33908  285.33 0855.32
2009/04/23 07:10:00.4     -75    -70    -36    103    109 226.8 -23.3  33910  285.36 0855.32
2009/04/23 07:10:00.5     -60    -58    -17     84     86 225.6 -11.9  33910  285.34 0855.32
2009/04/23 07:10:00.6     -26    -23     -9     35     37 228.7 -15.4  33910  285.36 0855.32
2009/04/23 07:10:00.7     -24    -19     -5     31     32 232.2  -9.3  33910  285.34 0855.32
2009/04/23 07:10:00.8     -19    -14      0     24     25 234.0  -2.2  33908  285.33 0855.32
2009/04/23 07:10:00.9     -54    -34     32     65     72 237.5  27.3  33904  285.26 0855.32
2009/04/23 07:10:01.0     -70     -8     52     71     88 263.0  39.7  33904  285.26 0855.32
2009/04/23 07:10:01.1     -78    -17     58     81     99 257.2  39.5  33904  285.26 0855.32
2009/04/23 07:10:01.2     -90    -22     41     93    101 255.8  25.1  33904  285.24 0855.32
2009/04/23 07:10:01.3     -89    -38     45     97    106 246.9  26.6  33900  285.19 0855.32
2009/04/23 07:10:01.4     -74    -24     29     78     83 251.8  21.0  33902  285.21 0855.32
2009/04/23 07:10:01.5     -54     17    -30     57     64 288.2 -34.7  33904  285.26 0855.32
2009/04/23 07:10:01.6     -43     23    -70     49     85 298.0 -66.5  33906  285.29 0855.32
2009/04/23 07:10:01.7     -79     26    -37     84     91 288.4 -29.5  33904  285.26 0855.32
2009/04/23 07:10:01.8     -69      0    -19     70     73 270.0 -15.5  33904  285.24 0855.32
2009/04/23 07:10:01.9     -92      2    -12     93     94 271.7  -7.7  33904  285.26 0855.32
2009/04/23 07:10:02.0     -96      2      2     97     98 271.3   1.2  33902  285.23 0855.32
2009/04/23 07:10:02.1     -57     36      8     68     69 302.5   6.9  33904  285.24 0855.32
2009/04/23 07:10:02.2     -45     43      3     63     64 313.1   2.9  33904  285.26 0855.32
2009/04/23 07:10:02.3     -36     42     18     56     60 319.5  18.4  33904  285.24 0855.32
2009/04/23 07:10:02.4     -54     37     26     66     70 305.1  23.0  33906  285.28 0855.32
2009/04/23 07:10:02.5     -13     42     23     45     50 342.2  29.3  33904  285.26 0855.32
2009/04/23 07:10:02.6     -13     53    -16     55     58 345.7 -16.6  33904  285.24 0855.32
2009/04/23 07:10:02.7     -46     63    -11     79     80 323.9  -8.2  33906  285.28 0855.32
2009/04/23 07:10:02.8     -22     80     -1     84     85 344.4  -1.3  33910  285.36 0855.32
2009/04/23 07:10:02.9     -34    101      5    107    108 341.3   2.8  33912  285.39 0855.32
2009/04/23 07:10:03.0     -20    105     10    108    109 348.9   5.4  33912  285.39 0855.32
2009/04/23 07:10:03.1     -26     79      8     84     85 341.5   5.9  33912  285.39 0855.32
2009/04/23 07:10:03.2     -66     46      4     81     82 305.1   2.9  33912  285.38 0855.33
2009/04/23 07:10:03.3     -65     40     19     77     80 301.5  14.3  33908  285.31 0855.33
2009/04/23 07:10:03.4     -92     39     -5    100    101 293.1  -3.1  33910  285.36 0855.33
2009/04/23 07:10:03.5    -103     54    -41    117    125 297.5 -19.6  33910  285.36 0855.33
2009/04/23 07:10:03.6    -111      8    -26    112    116 274.4 -13.3  33908  285.31 0855.33
2009/04/23 07:10:03.7    -107     21    -18    110    112 281.5  -9.3  33906  285.29 0855.33
2009/04/23 07:10:03.8    -115     22    -20    118    120 281.0  -9.8  33902  285.21 0855.33
2009/04/23 07:10:03.9    -132     18     -5    134    135 278.0  -2.2  33900  285.18 0855.33
2009/04/23 07:10:04.0    -130     13    -19    131    133 276.1  -8.2  33902  285.21 0855.33
2009/04/23 07:10:04.1    -122     13    -25    123    126 276.1 -11.5  33900  285.19 0855.33
2009/04/23 07:10:04.2    -116     14    -39    117    124 277.0 -18.7  33902  285.21 0855.33
2009/04/23 07:10:04.3    -122     22      6    125    126 280.6   2.8  33900  285.19 0855.33
2009/04/23 07:10:04.4    -111     22     46    114    122 281.4  23.0  33900  285.19 0855.33
2009/04/23 07:10:04.5     -66     14     25     68     72 282.4  20.0  33904  285.26 0855.33
2009/04/23 07:10:04.6     -34      6     12     35     38 281.5  19.4  33902  285.21 0855.33
2009/04/23 07:10:04.7     -23     19     22     31     38 309.5  37.6  33904  285.24 0855.33
2009/04/23 07:10:04.8     -16     42     23     45     50 339.1  29.3  33906  285.28 0855.33
2009/04/23 07:10:04.9     -34     20      1     40     41 301.5   1.8  33906  285.28 0855.33
2009/04/23 07:10:05.0     -58     21     21     62     66 290.0  19.4  33902  285.21 0855.33
2009/04/23 07:10:05.1    -120     43      6    128    129 290.0   2.9  33900  285.19 0855.33
2009/04/23 07:10:05.2    -112     50     14    123    124 294.4   6.9  33902  285.21 0855.33
2009/04/23 07:10:05.3     -92     60    -33    111    115 303.3 -21.7  33904  285.26 0855.33
2009/04/23 07:10:05.4     -90    107    -28    141    144 319.9 -11.3  33906  285.28 0855.33
2009/04/23 07:10:05.5     -83    103    -40    133    138 321.3 -21.7  33906  285.29 0855.33
2009/04/23 07:10:05.6     -64    103    -55    122    133 327.9 -30.1  33910  285.36 0855.33
2009/04/23 07:10:05.7     -45     99    -41    109    116 335.5 -25.4  33914  285.41 0855.33
2009/04/23 07:10:05.8     -43     92    -42    102    110 334.7 -28.0  33914  285.43 0855.33
2009/04/23 07:10:05.9     -15     70    -43     72     83 347.5 -38.4  33916  285.44 0855.33
2009/04/23 07:10:06.0     -26    118    -19    121    123 347.5  -9.3  33916  285.44 0855.33
2009/04/23 07:10:06.1     -46    133     -9    141    142 340.8  -3.7  33916  285.44 0855.33
2009/04/23 07:10:06.2     -59    126    -23    140    142 334.7  -9.3  33914  285.43 0855.33
2009/04/23 07:10:06.3     -80    125    -30    149    153 327.5 -11.5  33912  285.39 0855.33
2009/04/23 07:10:06.4     -75    128     -8    149    150 329.7  -3.1  33912  285.38 0855.33
2009/04/23 07:10:06.5     -84    116    -23    144    146 323.9  -9.3  33914  285.41 0855.33
2009/04/23 07:10:06.7     -57    136    -41    148    154 337.3 -15.5  33912  285.38 0855.33
2009/04/23 07:10:06.7     -40    150    -51    156    165 344.9 -18.3  33912  285.39 0855.33
2009/04/23 07:10:06.8     -35    165    -47    169    176 347.7 -15.5  33914  285.41 0855.33
2009/04/23 07:10:06.9     -21    167    -58    169    178 352.7 -23.8  33912  285.38 0855.33
2009/04/23 07:10:07.0       4    158    -45    159    166   1.8 -16.0  33912  285.39 0855.33
2009/04/23 07:10:07.1      86    117     66    146    160  36.5  25.9  33908  285.31 0855.33
2009/04/23 07:10:07.2     105    127     37    166    171  39.6  12.6  33910  285.34 0855.33
2009/04/23 07:10:07.4     112    115     30    161    164  44.1  10.8  33910  285.36 0855.33
2009/04/23 07:10:07.5     130     82     21    154    156  57.6   8.0  33908  285.33 0855.33
2009/04/23 07:10:07.6     105     95     27    142    145  47.8  11.0  33910  285.36 0855.33
2009/04/23 07:10:07.7      61    121     14    136    137  27.1   5.9  33912  285.38 0855.33
2009/04/23 07:10:07.8      70    110    -14    131    132  32.6  -6.2  33912  285.39 0855.33
2009/04/23 07:10:07.9     112     81    -10    139    140  54.0  -4.1  33912  285.39 0855.33
2009/04/23 07:10:08.0     121     85     -5    149    150  54.9  -2.2  33912  285.39 0855.33
2009/04/23 07:10:08.1     153     63     19    166    168  67.6   6.7  33912  285.39 0855.33
2009/04/23 07:10:08.2     156     86     21    179    181  61.2   6.9  33910  285.36 0855.33
2009/04/23 07:10:08.3     105    116     71    157    172  42.3  26.2  33910  285.36 0855.33
2009/04/23 07:10:08.4     105    104     74    148    165  45.2  28.7  33912  285.39 0855.33
2009/04/23 07:10:08.5      64    101     57    120    132  32.5  27.1  33914  285.41 0855.33
2009/04/23 07:10:08.6      21    107     48    110    120  11.5  25.1  33914  285.41 0855.33
2009/04/23 07:10:08.7      33    100     47    106    115  18.5  25.7  33914  285.41 0855.33
2009/04/23 07:10:08.8      45     74     70     87    111  31.2  43.7  33912  285.39 0855.33
2009/04/23 07:10:08.9      35     34     85     50     98  45.9  67.2  33914  285.41 0855.33
2009/04/23 07:10:09.0      -4     31     89     32     94 352.0  80.7  33916  285.44 0855.33
2009/04/23 07:10:09.1     -35     63     57     73     92 331.0  42.7  33912  285.38 0855.33
2009/04/23 07:10:09.2     -11     33     49     35     60 341.5  60.5  33912  285.38 0855.33
2009/04/23 07:10:09.3     -24     -4     28     25     37 260.3  52.2  33916  285.44 0855.32
2009/04/23 07:10:09.4      22      0     56     23     60  90.0  77.0  33916  285.44 0855.32
2009/04/23 07:10:09.5      94     44     38    104    110  64.7  21.0  33916  285.44 0855.32
2009/04/23 07:10:09.6      99     46     69    110    129  65.2  35.5  33912  285.38 0855.32
2009/04/23 07:10:09.7     117     73     69    138    154  58.0  28.2  33912  285.38 0855.32
2009/04/23 07:10:09.8     141     53    110    151    186  69.2  39.7  33912  285.39 0855.32
2009/04/23 07:10:09.9     109     54    104    122    160  63.4  45.1  33916  285.44 0855.32
2009/04/23 07:10:10.0     108     36     91    114    145  71.4  42.7  33916  285.44 0855.32
2009/04/23 07:10:10.1     142     46     37    150    155  71.8  13.9  33916  285.46 0855.32
2009/04/23 07:10:10.2     153     66     58    167    177  66.7  19.2  33916  285.46 0855.32
2009/04/23 07:10:10.3     135     98     34    167    171  54.0  11.6  33924  285.58 0855.32
2009/04/23 07:10:10.4     126     80     26    150    153  57.5  10.1  33924  285.58 0855.32
2009/04/23 07:10:10.5     127     80     45    151    158  57.6  16.6  33922  285.55 0855.32
2009/04/23 07:10:10.6     121    106     90    162    185  48.7  31.4  33916  285.46 0855.32
2009/04/23 07:10:10.7      83    117     69    144    159  35.6  27.4  33920  285.51 0855.32
2009/04/23 07:10:10.8      98    109     50    147    156  41.9  18.9  33922  285.56 0855.32
2009/04/23 07:10:10.9      90     72     27    116    120  51.4  13.2  33920  285.53 0855.32
2009/04/23 07:10:11.0      94     85     12    127    128  47.8   5.4  33922  285.55 0855.32
2009/04/23 07:10:11.1      55     74     27     93     97  37.0  16.3  33920  285.51 0855.32
2009/04/23 07:10:11.2      33     68     33     76     82  26.3  24.6  33924  285.58 0855.32
2009/04/23 07:10:11.3      57     47     26     74     79  50.5  19.4  33922  285.56 0855.32
2009/04/23 07:10:11.4      55     62     28     84     89  41.4  18.4  33922  285.56 0855.32
2009/04/23 07:10:11.5      46     80     16     93     95  30.3  10.1  33922  285.55 0855.32
2009/04/23 07:10:11.6      49    101     18    113    115  25.9   9.5  33924  285.58 0855.32
2009/04/23 07:10:11.7      55     86     -4    103    104  32.5  -2.2  33918  285.50 0855.32
2009/04/23 07:10:11.8      53     45     -9     70     71  49.6  -7.3  33916  285.46 0855.32
2009/04/23 07:10:11.9      41     44    -17     61     64  43.2 -15.5  33916  285.46 0855.32
2009/04/23 07:10:12.0      29     51     -1     59     60  29.9  -1.3  33918  285.50 0855.32
2009/04/23 07:10:12.1      32     55      9     64     65  30.7   8.0  33916  285.46 0855.32
2009/04/23 07:10:12.2      28     43     22     52     56  33.4  24.1  33918  285.50 0855.32
2009/04/23 07:10:12.3      45     43     32     63     70  46.9  28.2  33920  285.53 0855.32
2009/04/23 07:10:12.4      56     43     35     71     79  52.2  28.2  33918  285.50 0855.32
2009/04/23 07:10:12.5      64     27     11     70     71  66.5   9.0  33918  285.48 0855.32
2009/04/23 07:10:12.6      33      1     27     34     43  87.4  42.7  33918  285.50 0855.32
2009/04/23 07:10:12.7      57    -11     22     59     62 101.4  21.0  33918  285.50 0855.32
2009/04/23 07:10:12.8      61      6     12     62     64  83.9  11.1  33920  285.53 0855.32
2009/04/23 07:10:12.9      37     -2     17     38     41  94.4  25.1  33918  285.50 0855.32
2009/04/23 07:10:13.0      46     18      3     50     51  68.3   3.8  33920  285.53 0855.32
2009/04/23 07:10:13.1      31     37    -10     49     51  39.6 -12.4  33922  285.55 0855.32
2009/04/23 07:10:13.2      31     -6     -9     32     33 101.5 -21.7  33922  285.56 0855.32
2009/04/23 07:10:13.3      19     -3    -13     20     23 101.5 -39.9  33920  285.51 0855.32
2009/04/23 07:10:13.4       1     83     32     84     89   0.9  21.5  33916  285.46 0855.32
2009/04/23 07:10:13.5      22    104     67    107    126  12.0  35.5  33916  285.46 0855.32
2009/04/23 07:10:13.6      51    107     43    119    126  25.4  20.4  33918  285.48 0855.32
2009/04/23 07:10:13.7      60     76     21     97    100  38.3  12.6  33918  285.50 0855.32
2009/04/23 07:10:13.8      64     64     12     91     92  44.7   8.0  33918  285.48 0855.32
2009/04/23 07:10:13.9      52     31     32     61     68  59.3  29.3  33918  285.48 0855.32
2009/04/23 07:10:14.0      31     48     18     58     61  32.6  17.3  33916  285.44 0855.32
2009/04/23 07:10:14.1      35     32    -17     48     50  47.8 -23.3  33916  285.44 0855.32
2009/04/23 07:10:14.2      16     25    -40     30     50  32.5 -62.9  33920  285.51 0855.32
2009/04/23 07:10:14.3     -39     25    -80     47     92 302.5 -71.2  33920  285.51 0855.34
2009/04/23 07:10:14.4     -40     64   -112     76    135 327.5 -67.1  33920  285.51 0855.34
2009/04/23 07:10:14.5    -116     -3    -99    117    153 268.3 -48.7  33922  285.56 0855.34
2009/04/23 07:10:14.6    -117    -35    -86    123    150 253.2 -43.0  33924  285.58 0855.34
2009/04/23 07:10:14.7    -107    -28    -90    111    142 254.9 -48.1  33924  285.58 0855.34
2009/04/23 07:10:14.8    -111     -8   -107    112    154 265.7 -53.4  33924  285.60 0855.34
2009/04/23 07:10:14.9     -59     25    -99     65    118 293.5 -68.0  33924  285.58 0855.34
2009/04/23 07:10:15.0     -14     -2    -81     15     82 258.5 -90.0  33924  285.58 0855.34
2009/04/23 07:10:15.1     -26     41    -92     49    104 327.5 -73.7  33924  285.58 0855.34
2009/04/23 07:10:15.2     -52     25   -102     58    117 296.2 -72.7  33922  285.55 0855.34
2009/04/23 07:10:15.3     -31    -31    -78     44     89 225.0 -72.1  33920  285.53 0855.34
2009/04/23 07:10:15.4     -24    -42    -50     49     70 210.7 -53.5  33920  285.53 0855.34
2009/04/23 07:10:15.5     -38    -45    -32     60     68 220.5 -35.7  33920  285.53 0855.34
2009/04/23 07:10:15.6     -58    -33    -28     67     72 240.2 -27.5  33920  285.53 0855.34
2009/04/23 07:10:15.7     -58    -54    -84     80    116 226.8 -55.6  33922  285.55 0855.34
2009/04/23 07:10:15.8     -51    -32    -63     61     87 237.5 -54.5  33918  285.50 0855.34
2009/04/23 07:10:15.9    -113    -77     19    137    139 235.8   8.0  33920  285.53 0855.34
2009/04/23 07:10:16.0    -111    -92     37    145    150 230.4  14.3  33922  285.55 0855.34
2009/04/23 07:10:16.1     -95    -80     45    125    132 230.0  20.4  33922  285.55 0855.34
2009/04/23 07:10:16.2    -101    -48     35    112    118 244.6  17.3  33920  285.53 0855.34
2009/04/23 07:10:16.3    -105    -69     29    126    130 236.7  13.2  33922  285.56 0855.33
2009/04/23 07:10:16.4     -80    -94      1    124    125 220.5   0.8  33926  285.63 0855.33
2009/04/23 07:10:16.5     -53   -103     11    116    117 207.2   5.4  33924  285.60 0855.33
2009/04/23 07:10:16.6     -25    -39     13     47     49 212.6  16.3  33920  285.51 0855.33
2009/04/23 07:10:16.7      -8     -9     30     13     32 223.4  75.0  33924  285.60 0855.33
2009/04/23 07:10:16.8      13    -11     29     18     34 129.5  64.7  33924  285.58 0855.33
2009/04/23 07:10:16.9      35    -39     22     53     57 138.6  23.0  33926  285.61 0855.33
2009/04/23 07:10:17.0      16    -88    -11     90     91 169.3  -7.3  33922  285.55 0855.33
2009/04/23 07:10:17.1     -19   -108    -32    110    114 190.2 -21.7  33924  285.58 0855.33
2009/04/23 07:10:17.2     -31   -153    -81    157    176 191.6 -33.7  33922  285.55 0855.33
2009/04/23 07:10:17.3     -47   -142    -95    150    177 198.3 -39.9  33918  285.48 0855.33
2009/04/23 07:10:17.4     -64   -124    -21    140    142 207.6  -8.8  33920  285.53 0855.33
2009/04/23 07:10:17.5     -53   -133    -15    144    145 201.9  -6.2  33920  285.53 0855.33
2009/04/23 07:10:17.6     -86   -162     33    184    188 207.9  10.3  33922  285.56 0855.33
2009/04/23 07:10:17.7     -16   -153     49    154    162 186.3  17.7  33922  285.55 0855.33
2009/04/23 07:10:17.8      15    -91     81     93    123 170.7  45.8  33918  285.48 0855.33
2009/04/23 07:10:17.9      25   -110     79    113    137 167.1  38.6  33916  285.46 0855.33
2009/04/23 07:10:18.0      51    -74     77     91    119 145.3  44.8  33918  285.50 0855.33
2009/04/23 07:10:18.1      28    -60     87     67    109 154.7  58.5  33918  285.50 0855.33
2009/04/23 07:10:18.2       0   -130     49    131    139 180.0  21.0  33914  285.43 0855.33
2009/04/23 07:10:18.3      15    -95     38     97    104 170.7  22.0  33916  285.46 0855.34
2009/04/23 07:10:18.4      32    -68     51     76     91 154.5  37.0  33916  285.46 0855.34
2009/04/23 07:10:18.5      51    -47     74     70    101 133.2  51.6  33914  285.43 0855.34
2009/04/23 07:10:18.6      -4    -37     82     38     90 186.2  73.1  33918  285.48 0855.34
2009/04/23 07:10:18.7     -10    -54     84     55    100 190.7  64.1  33916  285.44 0855.34
2009/04/23 07:10:18.8     -49    -60     78     78    110 219.7  50.1  33918  285.50 0855.34
2009/04/23 07:10:18.9     -79    -85     65    117    133 222.8  31.4  33918  285.48 0855.34
2009/04/23 07:10:19.0     -70    -96     99    120    155 216.1  43.7  33920  285.53 0855.34
2009/04/23 07:10:19.1     -39   -110     45    117    125 199.6  22.0  33918  285.50 0855.34
2009/04/23 07:10:19.2     -32    -97     25    103    106 198.5  13.7  33918  285.48 0855.34
2009/04/23 07:10:19.3     -69    -68     53     98    111 225.4  30.8  33914  285.43 0855.34
2009/04/23 07:10:19.4     -74    -78     48    108    118 223.3  25.2  33912  285.39 0855.34
2009/04/23 07:10:19.5     -83    -59     57    102    116 234.5  31.4  33912  285.39 0855.34
2009/04/23 07:10:19.6     -98    -60     15    116    117 238.5   7.5  33916  285.44 0855.34
2009/04/23 07:10:19.7     -76    -57      4     95     96 233.1   2.9  33916  285.44 0855.34
2009/04/23 07:10:19.8     -85    -46     -2     97     98 241.6  -1.3  33916  285.44 0855.34
2009/04/23 07:10:19.9     -93    -41    -28    102    106 246.0 -15.5  33914  285.43 0855.34
2009/04/23 07:10:20.0     -97    -26    -27    101    105 254.9 -15.4  33914  285.41 0855.34
2009/04/23 07:10:20.1    -103    -34    -30    109    114 251.8 -15.4  33914  285.41 0855.34
2009/04/23 07:10:20.2     -76    -25    -17     81     83 251.6 -11.9  33916  285.44 0855.34
2009/04/23 07:10:20.3     -77    -37     -7     86     87 243.8  -5.2  33914  285.43 0855.34
2009/04/23 07:10:20.4     -47    -45      0     66     67 226.0   0.8  33914  285.43 0855.34
2009/04/23 07:10:20.5     -35    -50      3     62     63 215.2   2.9  33914  285.43 0855.34
2009/04/23 07:10:20.6     -28    -49    -22     57     61 209.9 -26.4  33916  285.44 0855.34
2009/04/23 07:10:20.7     -38    -83    -32     92     98 204.5 -19.1  33916  285.46 0855.34
2009/04/23 07:10:20.8     -35    -81     -3     89     90 203.2  -2.2  33918  285.50 0855.34
2009/04/23 07:10:20.9     -54    -40    -27     68     73 233.1 -27.4  33914  285.43 0855.34
2009/04/23 07:10:21.0     -50    -13    -22     52     56 254.9 -28.5  33914  285.43 0855.34
2009/04/23 07:10:21.1     -60    -27     -7     66     67 245.6  -6.2  33914  285.43 0855.34
2009/04/23 07:10:21.2     -78    -31    -13     84     85 248.3  -8.8  33914  285.43 0855.34
2009/04/23 07:10:21.3     -69    -27    -19     75     78 248.3 -14.5  33914  285.43 0855.34
2009/04/23 07:10:21.4     -55    -20     -2     59     60 250.0  -2.2  33916  285.44 0855.34
2009/04/23 07:10:21.5     -39    -14    -14     42     44 249.2 -23.6  33914  285.43 0855.34
2009/04/23 07:10:21.6     -44    -18    -16     48     50 247.4 -23.6  33914  285.41 0855.34
2009/04/23 07:10:21.7     -18    -41    -18     45     48 203.6 -25.4  33916  285.46 0855.34
2009/04/23 07:10:21.8     -45    -24    -45     52     68 242.0 -49.2  33916  285.46 0855.34
2009/04/23 07:10:21.9     -42    -11    -28     44     52 254.9 -39.9  33918  285.48 0855.34
2009/04/23 07:10:22.0     -39     -6    -33     40     51 260.3 -48.1  33918  285.48 0855.34
2009/04/23 07:10:22.1     -24    -15    -22     29     36 237.5 -46.1  33916  285.44 0855.34
2009/04/23 07:10:22.2      -9    -10    -12     14     18 223.2 -56.4  33914  285.41 0855.34
2009/04/23 07:10:22.3      12      8    -13     15     19  57.6 -50.2  33912  285.39 0855.34
2009/04/23 07:10:22.4      24     20    -15     32     35  50.5 -31.6  33914  285.41 0855.34
2009/04/23 07:10:22.5      35      7      1     36     37  78.6   2.8  33910  285.36 0855.34
2009/04/23 07:10:22.6      10    -22     33     25     41 156.4  58.5  33912  285.39 0855.34
2009/04/23 07:10:22.7     -35    -34     24     50     55 226.0  27.3  33912  285.39 0855.34
2009/04/23 07:10:22.8     -15    -44     14     47     50 198.7  16.3  33914  285.43 0855.34
2009/04/23 07:10:22.9     -36    -71      0     80     81 207.2   0.2  33916  285.44 0855.34
2009/04/23 07:10:23.0     -39    -82     -2     91     92 205.4  -1.3  33914  285.43 0855.34
2009/04/23 07:10:23.1     -15    -77     -7     79     80 191.6  -5.2  33912  285.39 0855.34
2009/04/23 07:10:23.2     -43    -83    -20     94     97 207.6 -12.4  33912  285.39 0855.34
2009/04/23 07:10:23.3     -36    -77    -29     86     91 204.9 -19.1  33912  285.39 0855.34
2009/04/23 07:10:23.4     -24    -94     -3     98     99 194.7  -2.2  33912  285.39 0855.34
2009/04/23 07:10:23.5     -13    -99    -18    100    102 187.6 -10.3  33912  285.39 0855.34
2009/04/23 07:10:23.6      -8   -111    -16    112    114 184.5  -8.2  33914  285.41 0855.34
2009/04/23 07:10:23.7      -5   -114    -41    115    123 182.7 -19.7  33912  285.39 0855.34
2009/04/23 07:10:23.8      11   -115    -44    116    124 174.2 -25.4  33910  285.36 0855.34
2009/04/23 07:10:23.9      20    -90    -53     93    107 167.1 -36.8  33910  285.34 0855.34
2009/04/23 07:10:24.0      21    -86    -32     89     94 165.7 -23.8  33912  285.39 0855.34
2009/04/23 07:10:24.1     -14    -90    -21     92     95 188.9 -12.9  33912  285.39 0855.34
2009/04/23 07:10:24.2      -4   -114    -23    115    118 182.2 -11.5  33912  285.39 0855.34
2009/04/23 07:10:24.3     -11   -150    -19    151    153 184.4  -7.2  33914  285.43 0855.33
2009/04/23 07:10:24.4       0   -137    -18    138    140 180.4  -7.7  33912  285.39 0855.33
2009/04/23 07:10:24.5      37   -143     18    148    150 165.3   7.1  33912  285.39 0855.33
2009/04/23 07:10:24.6      32   -138     52    142    151 166.6  21.0  33910  285.34 0855.33
2009/04/23 07:10:24.7      43   -134     59    141    152 162.2  23.6  33908  285.31 0855.33
2009/04/23 07:10:24.8      24   -143     34    146    150 170.2  13.1  33908  285.33 0855.33
2009/04/23 07:10:24.9      14   -163     29    164    167 174.9  10.1  33908  285.33 0855.33
2009/04/23 07:10:25.0      -8   -164      6    165    166 182.9   2.1  33910  285.36 0855.33
2009/04/23 07:10:25.1      -1   -176     11    177    178 180.5   3.6  33910  285.34 0855.33
2009/04/23 07:10:25.2       0   -194     30    195    198 180.2   8.8  33912  285.38 0855.33
2009/04/23 07:10:25.3      63   -166     55    178    187 159.1  17.3  33910  285.34 0855.33
2009/04/23 07:10:25.4      58   -157     33    168    172 159.7  11.1  33910  285.34 0855.33
2009/04/23 07:10:25.5      32   -174     20    177    179 169.5   6.7  33912  285.38 0855.33
2009/04/23 07:10:25.6      29   -208     22    211    213 172.0   6.1  33914  285.43 0855.33
2009/04/23 07:10:25.7      41   -204     33    209    212 168.5   9.0  33914  285.41 0855.33
2009/04/23 07:10:25.8      60   -218     58    227    235 164.4  14.5  33914  285.41 0855.33
2009/04/23 07:10:25.9      50   -192     46    199    205 165.3  13.2  33914  285.43 0855.33
2009/04/23 07:10:26.0      49   -182     49    189    196 164.8  14.5  33914  285.43 0855.33
2009/04/23 07:10:26.1      40   -192     58    197    206 168.2  16.6  33912  285.39 0855.33
2009/04/23 07:10:26.2      14   -158     57    159    168 174.7  20.4  33912  285.39 0855.33
2009/04/23 07:10:26.3      20   -143     74    145    162 171.9  29.1  33916  285.44 0855.32
2009/04/23 07:10:26.4      34   -146     66    150    163 166.7  25.3  33918  285.50 0855.32
2009/04/23 07:10:26.5       0   -163     57    164    174 180.2  19.4  33918  285.48 0855.32
2009/04/23 07:10:26.6      48   -208     74    214    227 166.9  19.2  33914  285.43 0855.32
2009/04/23 07:10:26.7      11   -168     62    169    180 176.2  20.7  33914  285.41 0855.32
2009/04/23 07:10:26.8      11   -150     78    151    169 175.5  29.3  33918  285.50 0855.32
2009/04/23 07:10:26.9      29   -143     96    147    175 168.4  35.7  33916  285.44 0855.32
2009/04/23 07:10:27.0      46    -98     79    109    134 154.5  39.7  33918  285.50 0855.32
2009/04/23 07:10:27.1      74   -110     51    133    142 146.2  22.0  33916  285.44 0855.32
2009/04/23 07:10:27.2     102   -117     42    156    162 139.0  15.3  33914  285.43 0855.32
2009/04/23 07:10:27.3      75   -137     45    157    164 151.1  16.0  33916  285.44 0855.32
2009/04/23 07:10:27.4      39   -167     20    172    174 166.6   6.9  33916  285.44 0855.32
2009/04/23 07:10:27.5      43   -188     39    193    197 167.1  11.4  33918  285.48 0855.32
2009/04/23 07:10:27.6      39   -190     32    195    198 168.4   9.5  33920  285.53 0855.32
2009/04/23 07:10:27.7      52   -183     54    191    199 164.0  15.8  33920  285.51 0855.32
2009/04/23 07:10:27.8      51   -151     67    160    173 161.3  23.8  33918  285.48 0855.32
2009/04/23 07:10:27.9      49   -118     82    129    152 157.3  35.5  33916  285.46 0855.32
2009/04/23 07:10:28.0      58   -119     77    133    153 153.7  33.4  33918  285.48 0855.32
2009/04/23 07:10:28.1      28   -159     98    162    189 169.8  34.2  33916  285.46 0855.32
2009/04/23 07:10:28.2      83   -176     99    195    218 154.7  29.2  33918  285.48 0855.32
2009/04/23 07:10:28.3      94   -148     77    176    192 147.5  25.1  33922  285.55 0855.32
2009/04/23 07:10:28.4     111   -144    119    182    217 142.4  36.0  33922  285.56 0855.32
2009/04/23 07:10:28.5      94   -130     90    161    184 144.0  31.6  33920  285.53 0855.32
2009/04/23 07:10:28.6     109   -131     84    171    190 140.4  27.8  33920  285.51 0855.32
2009/04/23 07:10:28.7     107   -168     86    200    217 147.5  24.9  33922  285.55 0855.32
2009/04/23 07:10:28.8     109   -137     84    176    195 141.5  27.3  33922  285.55 0855.32
2009/04/23 07:10:28.9      62   -168     94    180    203 159.7  29.8  33920  285.53 0855.32
2009/04/23 07:10:29.0      57   -170    102    180    206 161.3  32.1  33920  285.51 0855.32
2009/04/23 07:10:29.1      28   -134    111    138    177 168.0  43.3  33922  285.55 0855.32
2009/04/23 07:10:29.2      26   -116    114    119    164 167.1  49.2  33918  285.50 0855.32
2009/04/23 07:10:29.3       5   -103    104    104    147 176.9  50.1  33922  285.56 0855.32
2009/04/23 07:10:29.4      38   -115    109    122    163 161.7  46.6  33918  285.48 0855.32
2009/04/23 07:10:29.5      36   -160     56    165    175 167.1  18.9  33918  285.48 0855.32
2009/04/23 07:10:29.6      24   -122     29    125    129 168.5  13.2  33918  285.50 0855.32
2009/04/23 07:10:29.7      20    -84     26     87     91 166.6  16.8  33918  285.48 0855.32
2009/04/23 07:10:29.8      23    -59     30     64     70 158.1  27.2  33920  285.51 0855.32
2009/04/23 07:10:29.9      19    -43     15     48     51 156.4  17.3  33918  285.50 0855.32
2009/04/23 07:10:30.0      59    -62     -4     86     87 136.3  -3.1  33920  285.53 0855.32
2009/04/23 07:10:30.1      56    -63     11     85     86 138.1   7.5  33922  285.56 0855.32
2009/04/23 07:10:30.2      54    -87     47    103    113 147.9  26.6  33920  285.53 0855.32
2009/04/23 07:10:30.3      43    -97     59    107    122 155.9  31.4  33920  285.51 0855.32
2009/04/23 07:10:30.4      12   -110     86    111    140 173.3  41.7  33920  285.53 0855.32
2009/04/23 07:10:30.5      -2   -114     69    115    134 181.0  34.4  33918  285.50 0855.32
2009/04/23 07:10:30.6      16   -151     52    152    161 173.7  19.2  33920  285.53 0855.32
2009/04/23 07:10:30.7       8   -178     58    179    189 177.3  18.1  33920  285.53 0855.32
2009/04/23 07:10:30.8      -3   -205     41    206    211 180.9  11.4  33920  285.51 0855.32
2009/04/23 07:10:30.9     -25   -228     27    230    232 186.5   6.9  33920  285.53 0855.32
2009/04/23 07:10:31.0     -16   -210     21    211    213 184.5   5.7  33918  285.50 0855.32
2009/04/23 07:10:31.1     -36   -184     56    188    197 191.1  16.6  33918  285.48 0855.32
2009/04/23 07:10:31.2     -53   -205     58    212    220 194.7  15.3  33920  285.51 0855.32
2009/04/23 07:10:31.3     -57   -221     55    229    236 194.5  13.7  33920  285.52 0855.32
2009/04/23 07:10:31.4     -83   -210     27    226    228 201.6   6.9  33920  285.51 0855.32
2009/04/23 07:10:31.5     -84   -211     38    228    232 201.8   9.5  33918  285.48 0855.32
2009/04/23 07:10:31.6     -61   -181     82    192    208 198.7  24.6  33918  285.48 0855.32
2009/04/23 07:10:31.7    -104   -189     42    216    221 208.9  11.1  33918  285.50 0855.32
2009/04/23 07:10:31.8    -125   -177     11    217    218 215.2   2.9  33918  285.48 0855.32
2009/04/23 07:10:31.9    -102   -191      0    217    218 208.1   0.0  33922  285.55 0855.32
2009/04/23 07:10:32.0     -76   -174     -4    191    192 203.6  -1.3  33918  285.50 0855.32
2009/04/23 07:10:32.1     -65   -143     12    158    159 204.5   4.4  33922  285.56 0855.32
2009/04/23 07:10:32.2     -72   -130     14    149    150 209.0   5.4  33920  285.51 0855.32
2009/04/23 07:10:32.3     -78   -117     -7    141    142 213.8  -3.1  33918  285.50 0855.32
2009/04/23 07:10:32.4     -77   -110    -14    135    136 215.2  -6.2  33920  285.51 0855.32
2009/04/23 07:10:32.5     -54   -103    -42    117    125 207.6 -19.7  33920  285.53 0855.32
2009/04/23 07:10:32.6     -45   -129    -42    137    144 199.2 -17.0  33920  285.53 0855.32
2009/04/23 07:10:32.7      -9   -153    -57    154    164 183.6 -25.4  33920  285.53 0855.32
2009/04/23 07:10:32.8     -38   -159     -9    164    165 193.4  -3.3  33918  285.50 0855.32
2009/04/23 07:10:32.9     -23   -216    -21    218    220 186.3  -5.6  33922  285.55 0855.32
2009/04/23 07:10:33.0      -6   -225    -29    226    228 181.6  -7.3  33918  285.48 0855.32
2009/04/23 07:10:33.1      -8   -185    -30    186    189 182.5  -9.3  33918  285.50 0855.32
2009/04/23 07:10:33.2     -22   -173      5    175    176 187.3   1.8  33920  285.53 0855.32
2009/04/23 07:10:33.3     -16   -158    -23    159    161 186.0  -8.2  33920  285.51 0855.32
2009/04/23 07:10:33.4       0   -168    -11    169    170 180.0  -3.7  33918  285.50 0855.32
2009/04/23 07:10:33.5       4   -156      4    157    158 178.2   1.8  33920  285.53 0855.32
2009/04/23 07:10:33.6      -4   -143     22    144    146 181.8   9.0  33918  285.48 0855.32
2009/04/23 07:10:33.7      11   -167     30    168    171 176.2  10.1  33918  285.50 0855.32
2009/04/23 07:10:33.8       3   -172     37    173    178 178.9  12.2  33920  285.53 0855.32
2009/04/23 07:10:33.9      16   -172     44    173    179 174.4  14.5  33922  285.56 0855.32
2009/04/23 07:10:34.0      32   -158     19    162    164 168.4   6.7  33922  285.55 0855.32
2009/04/23 07:10:34.1      36   -157     18    162    164 167.1   6.5  33922  285.56 0855.32
2009/04/23 07:10:34.2      38   -142      6    148    149 164.9   2.3  33922  285.55 0855.32
2009/04/23 07:10:34.3      38   -141     -9    147    148 164.9  -3.7  33922  285.56 0855.32
2009/04/23 07:10:34.4      29   -155    -41    158    164 169.3 -14.5  33922  285.55 0855.32
2009/04/23 07:10:34.5      36   -161    -32    166    170 167.3 -11.1  33922  285.56 0855.32
2009/04/23 07:10:34.6      49   -129    -38    139    145 159.1 -15.5  33922  285.55 0855.32
2009/04/23 07:10:34.7      60   -144    -28    157    160 157.3 -10.1  33922  285.56 0855.32
2009/04/23 07:10:34.8      66   -139    -28    155    158 154.5 -10.3  33920  285.53 0855.32
2009/04/23 07:10:34.9      78   -140    -17    161    162 150.8  -6.2  33920  285.53 0855.32
2009/04/23 07:10:35.1      64   -134    -21    149    151 154.5  -8.2  33920  285.51 0855.32
2009/04/23 07:10:35.2      76   -120    -41    143    148 147.5 -20.7  33920  285.51 0855.32
2009/04/23 07:10:35.3      68    -93    -35    116    121 143.9 -21.7  33920  285.51 0855.32
2009/04/23 07:10:35.4      71    -83    -21    110    113 139.5 -10.9  33920  285.53 0855.32
2009/04/23 07:10:35.5      94    -92    -36    132    137 134.4 -15.4  33916  285.46 0855.32
2009/04/23 07:10:35.6     108    -86    -27    139    142 128.6 -11.3  33920  285.51 0855.32
2009/04/23 07:10:35.7     100   -107    -18    147    149 136.8  -7.2  33918  285.50 0855.32
2009/04/23 07:10:35.8     110    -97     -5    147    148 131.3  -2.2  33922  285.55 0855.32
2009/04/23 07:10:35.9     114   -107     27    157    160 133.1   9.9  33922  285.55 0855.32
2009/04/23 07:10:36.0      83    -90     56    123    135 137.2  26.2  33924  285.58 0855.32
2009/04/23 07:10:36.1     113   -108     33    157    161 133.6  12.2  33920  285.51 0855.32
2009/04/23 07:10:36.2      65   -110     68    128    144 149.3  30.8  33918  285.48 0855.32
2009/04/23 07:10:36.3      46   -143     22    151    153 162.2   8.5  33918  285.48 0855.32
2009/04/23 07:10:36.4      14   -130     35    131    136 173.7  15.3  33920  285.51 0855.32
2009/04/23 07:10:36.5      57   -124      1    137    138 155.1   0.8  33918  285.50 0855.32
2009/04/23 07:10:36.6      76   -177      7    193    194 156.8   2.3  33924  285.58 0855.32
2009/04/23 07:10:36.7      97   -160     30    188    191 148.6   9.3  33920  285.53 0855.32
2009/04/23 07:10:36.8     121   -172    -13    211    212 145.0  -3.7  33922  285.55 0855.32
2009/04/23 07:10:36.9      72   -177    -39    192    197 157.9 -11.6  33920  285.53 0855.32
2009/04/23 07:10:37.0      86   -181    -18    201    202 154.5  -5.2  33922  285.55 0855.32
2009/04/23 07:10:37.1      14   -146    -44    147    153 174.2 -21.7  33918  285.50 0855.32
2009/04/23 07:10:37.2     -34   -104    -40    110    117 198.3 -25.3  33918  285.50 0855.32
2009/04/23 07:10:37.3       0    -79    -34     80     86 180.0 -28.5  33918  285.50 0855.32
2009/04/23 07:10:37.4      27    -24     -4     37     38 131.3  -7.2  33922  285.55 0855.32
2009/04/23 07:10:37.5      87    -22     29     90     95 104.2  17.9  33920  285.53 0855.32
2009/04/23 07:10:37.6      88    -48     50    101    112 118.9  27.3  33920  285.53 0855.32
2009/04/23 07:10:37.7      94    -77     22    122    125 129.5  10.6  33922  285.56 0855.32
2009/04/23 07:10:37.8     115    -90     68    147    161 128.2  26.4  33924  285.58 0855.32
2009/04/23 07:10:37.9     101   -120     50    157    165 139.9  17.9  33918  285.50 0855.32
2009/04/23 07:10:38.0     118   -130     29    176    179 137.7   9.3  33918  285.50 0855.32
2009/04/23 07:10:38.1     120   -123     22    173    175 135.7   7.5  33918  285.50 0855.32
2009/04/23 07:10:38.2     127    -78      9    150    151 121.5   3.8  33920  285.51 0855.32
2009/04/23 07:10:38.3     100    -84     20    131    133 130.0   8.9  33920  285.51 0855.32
2009/04/23 07:10:38.4      77   -113     46    137    145 145.7  18.9  33922  285.55 0855.32
2009/04/23 07:10:38.5      41   -139     28    146    149 163.5  11.1  33920  285.51 0855.32
2009/04/23 07:10:38.6      48   -122     36    132    137 158.6  15.3  33922  285.55 0855.32
2009/04/23 07:10:38.7      17   -124      0    126    127 172.0  -0.3  33922  285.56 0855.32
2009/04/23 07:10:38.8      36   -119     30    125    129 163.1  13.7  33920  285.53 0855.32
2009/04/23 07:10:38.9      51   -139     52    149    158 160.0  19.4  33922  285.55 0855.32
2009/04/23 07:10:39.0      31   -153     28    157    160 168.4  10.3  33922  285.55 0855.32
2009/04/23 07:10:39.1      16   -156     12    157    158 173.8   4.6  33922  285.55 0855.32
2009/04/23 07:10:39.2       0    -99     27    100    104 180.0  15.2  33922  285.55 0855.32
2009/04/23 07:10:39.3      23    -67     37     71     80 160.8  29.8  33922  285.56 0855.32
2009/04/23 07:10:39.4      42    -50     25     66     70 139.5  22.0  33922  285.56 0855.32
2009/04/23 07:10:39.5      70    -59     -2     92     93 130.0  -1.3  33924  285.58 0855.32
2009/04/23 07:10:39.6      72    -87     58    113    127 140.4  29.3  33924  285.58 0855.32
2009/04/23 07:10:39.7     118    -85     55    146    156 126.0  21.0  33924  285.58 0855.32
2009/04/23 07:10:39.8     136    -54     62    147    159 111.8  24.1  33922  285.56 0855.32
2009/04/23 07:10:39.9     122    -87     29    151    154 125.5  11.1  33922  285.56 0855.32
2009/04/23 07:10:40.0     114    -94     18    149    151 129.5   6.9  33920  285.51 0855.32
2009/04/23 07:10:40.1      97   -125     44    159    166 142.2  15.6  33920  285.51 0855.32
2009/04/23 07:10:40.2      84    -87      5    122    123 135.9   2.8  33918  285.50 0855.32
2009/04/23 07:10:40.3      83    -70      3    109    110 130.4   1.8  33920  285.53 0855.32
2009/04/23 07:10:40.4      58    -78     -5     98     99 143.5  -3.1  33920  285.53 0855.32
2009/04/23 07:10:40.5      84    -89    -24    123    126 136.8 -11.3  33918  285.50 0855.32
2009/04/23 07:10:40.6      86    -80    -21    118    120 133.1 -10.3  33920  285.51 0855.32
2009/04/23 07:10:40.7     104   -103    -10    147    148 134.9  -4.1  33922  285.55 0855.32
2009/04/23 07:10:40.8     107    -88      2    139    140 129.5   1.2  33922  285.56 0855.32
2009/04/23 07:10:40.9     108    -47     27    118    122 113.5  13.2  33920  285.53 0855.32
2009/04/23 07:10:41.0     117    -45     22    126    128 111.3  10.1  33920  285.53 0855.32
2009/04/23 07:10:41.1     110    -18     43    112    119  99.7  21.5  33922  285.56 0855.32
2009/04/23 07:10:41.2     100      1     15    101    103  89.2   8.5  33922  285.56 0855.32
2009/04/23 07:10:41.3      97    -30     16    102    104 107.7   9.0  33922  285.55 0855.32
2009/04/23 07:10:41.4     105    -31     13    110    111 106.4   6.9  33920  285.53 0855.33
2009/04/23 07:10:41.5      79    -34     -3     87     88 113.5  -2.2  33920  285.53 0855.33
2009/04/23 07:10:41.6      42    -58      4     72     73 143.9   3.8  33922  285.56 0855.33
2009/04/23 07:10:41.7      21    -66      8     70     71 161.7   6.9  33924  285.58 0855.33
2009/04/23 07:10:41.8       8    -78      6     79     80 173.8   4.9  33922  285.55 0855.33
2009/04/23 07:10:41.9       5    -74      5     75     76 175.6   3.8  33920  285.51 0855.33
2009/04/23 07:10:42.0       0    -61     26     62     67 180.9  23.1  33922  285.56 0855.33
2009/04/23 07:10:42.1       0    -61     25     62     66 179.1  23.0  33922  285.55 0855.33
2009/04/23 07:10:42.2       8    -88     36     89     96 174.7  23.0  33924  285.58 0855.33
2009/04/23 07:10:42.3      65   -127     17    143    145 152.9   6.9  33922  285.56 0855.33
2009/04/23 07:10:42.4      88   -107     43    139    146 140.4  17.3  33924  285.58 0855.33
2009/04/23 07:10:42.5      60   -101     44    118    125 149.3  21.0  33920  285.53 0855.33
2009/04/23 07:10:42.6      32   -121     72    126    145 164.9  32.4  33922  285.56 0855.33
2009/04/23 07:10:42.7      77   -143    102    163    192 151.5  35.5  33924  285.58 0855.33
2009/04/23 07:10:42.8     140   -174     75    224    237 141.0  18.6  33924  285.60 0855.33
2009/04/23 07:10:42.9     157   -174     29    235    237 137.9   7.1  33926  285.61 0855.33
2009/04/23 07:10:43.0      95   -171     -9    196    197 150.8  -2.8  33924  285.58 0855.33
2009/04/23 07:10:43.1      36   -166    -11    170    171 167.7  -3.9  33926  285.61 0855.33
2009/04/23 07:10:43.2      49   -176      0    183    184 164.4   0.0  33924  285.60 0855.33
2009/04/23 07:10:43.3      60   -193     81    203    218 162.6  23.0  33926  285.61 0855.33
2009/04/23 07:10:43.4      90   -162     86    186    204 151.0  27.0  33924  285.58 0855.34
2009/04/23 07:10:43.5     120   -162     82    202    218 143.5  23.1  33926  285.61 0855.34
2009/04/23 07:10:43.6     100   -181     54    207    214 151.0  14.7  33926  285.61 0855.34
2009/04/23 07:10:43.7      77   -173     30    190    193 155.9   9.0  33924  285.58 0855.34
2009/04/23 07:10:43.8      42   -157     25    163    166 164.8   9.0  33924  285.58 0855.34
2009/04/23 07:10:43.9      20   -146     23    148    150 172.0   9.0  33924  285.60 0855.34
2009/04/23 07:10:44.0      14   -135     24    136    139 173.7  10.1  33922  285.56 0855.34
2009/04/23 07:10:44.1      23   -121      1    124    125 169.3   0.7  33924  285.60 0855.34
2009/04/23 07:10:44.2      27   -117     -4    121    122 167.1  -2.2  33924  285.60 0855.34
2009/04/23 07:10:44.3      34   -103     -8    109    110 161.3  -4.6  33926  285.61 0855.34
2009/04/23 07:10:44.4      55    -86     -5    103    104 147.4  -3.1  33924  285.58 0855.34
2009/04/23 07:10:44.5      43    -52    -12     68     70 140.3 -10.3  33924  285.60 0855.34
2009/04/23 07:10:44.6      61    -32    -10     70     71 118.0  -8.2  33926  285.61 0855.34
2009/04/23 07:10:44.7      64    -29    -14     71     73 114.4 -11.3  33926  285.63 0855.34
2009/04/23 07:10:44.8      74    -19    -19     77     80 105.0 -13.9  33926  285.61 0855.34
2009/04/23 07:10:44.9      80    -45    -10     92     93 119.3  -6.2  33926  285.63 0855.34
2009/04/23 07:10:45.0      80    -45    -10     92     93 119.3  -6.2  33924  285.58 0855.34
2009/04/23 07:10:45.1      64    -55      4     85     86 130.9   3.3  33926  285.61 0855.34
2009/04/23 07:10:45.2      47    -74     33     88     93 147.4  20.4  33924  285.58 0855.34
2009/04/23 07:10:45.3      42    -95     28    105    109 155.9  15.3  33924  285.60 0855.34
2009/04/23 07:10:45.4      27    -96     35    100    107 164.0  19.4  33924  285.58 0855.33
2009/04/23 07:10:45.5       0   -114      7    115    116 180.4   3.8  33924  285.60 0855.33
2009/04/23 07:10:45.6      -1   -102      5    103    104 181.0   2.9  33922  285.56 0855.33
2009/04/23 07:10:45.7      -9    -98     13     99    100 185.8   7.5  33924  285.58 0855.33
2009/04/23 07:10:45.8       0    -90     11     91     92 179.5   7.5  33924  285.58 0855.33
2009/04/23 07:10:45.9      17    -81    -27     83     88 168.0 -18.1  33924  285.60 0855.33
2009/04/23 07:10:46.0      19    -71    -35     74     81 164.9 -31.0  33924  285.60 0855.33
2009/04/23 07:10:46.1      15    -58    -24     61     65 164.8 -27.4  33924  285.58 0855.33
2009/04/23 07:10:46.2      18    -54    -22     57     61 161.5 -26.4  33926  285.61 0855.33
2009/04/23 07:10:46.3      21    -56     -6     60     61 159.1  -6.2  33922  285.56 0855.33
2009/04/23 07:10:46.4      52    -33      5     62     63 122.5   4.9  33924  285.60 0855.33
2009/04/23 07:10:46.5      38    -28      9     48     49 126.0  11.1  33924  285.58 0855.33
2009/04/23 07:10:46.6      40    -14     26     43     50 109.1  34.4  33926  285.61 0855.33
2009/04/23 07:10:46.7      54    -25     47     60     76 115.2  42.7  33922  285.55 0855.33
2009/04/23 07:10:46.8      67    -33     48     75     89 116.2  35.5  33922  285.55 0855.33
2009/04/23 07:10:46.9      66    -34     34     75     82 117.1  25.7  33924  285.58 0855.33
2009/04/23 07:10:47.0      52    -33     34     62     70 122.5  31.4  33924  285.60 0855.33
2009/04/23 07:10:47.1      35    -30     62     47     77 130.4  59.4  33922  285.55 0855.33
2009/04/23 07:10:47.2      36     -7     56     37     67 101.5  64.6  33922  285.55 0855.33
2009/04/23 07:10:47.3      56    -11     55     58     79 101.5  49.0  33924  285.58 0855.33
2009/04/23 07:10:47.4      64     -6     41     65     76  96.1  35.5  33924  285.58 0855.34
2009/04/23 07:10:47.5      70      5     41     71     81  85.7  32.9  33922  285.56 0855.34
2009/04/23 07:10:47.6      54      4     41     55     68  84.8  41.7  33924  285.60 0855.34
2009/04/23 07:10:47.7      43     -7     31     44     53  99.7  38.6  33924  285.60 0855.34
2009/04/23 07:10:47.8      20    -21     29     30     41 136.8  50.0  33924  285.60 0855.34
2009/04/23 07:10:47.9       0    -20     14     21     25 177.3  35.6  33924  285.60 0855.34
2009/04/23 07:10:48.0       1    -24      8     25     27 175.5  19.4  33922  285.55 0855.34
2009/04/23 07:10:48.1      -7    -21      3     23     24 198.3   9.0  33926  285.61 0855.34
2009/04/23 07:10:48.2     -13    -21     13     26     29 212.5  27.2  33922  285.55 0855.34
2009/04/23 07:10:48.3     -20    -10      6     23     24 242.9  15.3  33924  285.58 0855.34
2009/04/23 07:10:48.4     -27     -5     13     28     30 258.5  27.1  33926  285.61 0855.34
2009/04/23 07:10:48.5     -24    -15     18     29     34 237.6  35.5  33926  285.61 0855.34
2009/04/23 07:10:48.6      -8    -26     33     28     43 196.9  54.3  33924  285.58 0855.34
2009/04/23 07:10:48.7       0     -7     26      8     27 182.7  80.7  33926  285.61 0855.34
2009/04/23 07:10:48.8      10    -14     27     18     32 143.9  64.6  33924  285.60 0855.34
2009/04/23 07:10:48.9      17    -22     30     28     41 142.2  51.2  33926  285.61 0855.34
2009/04/23 07:10:49.0      12     -8     26     15     30 122.4  66.8  33922  285.56 0855.34
2009/04/23 07:10:49.1      10     -3     24     11     26 108.4  75.0  33924  285.58 0855.34
2009/04/23 07:10:49.2       0     -5     25      6     25 182.7  86.9  33924  285.60 0855.34
2009/04/23 07:10:49.3      -2      3     10      4     10 327.5  77.1  33924  285.58 0855.34
2009/04/23 07:10:49.4       0      7     12      8     14 357.3  60.5  33926  285.61 0855.34
2009/04/23 07:10:49.5       9      3     10     10     14  68.3  50.1  33924  285.58 0855.34
2009/04/23 07:10:49.6       7      0      8      8     11  90.0  50.1  33922  285.55 0855.34
2009/04/23 07:10:49.7       8      0     16      9     18  85.6  68.8  33926  285.61 0855.34
2009/04/23 07:10:49.8      -2      3     10      4     10 327.5  77.1  33924  285.58 0855.34
2009/04/23 07:10:49.9     -10     -2      8     11     13 254.9  39.7  33922  285.56 0855.34
2009/04/23 07:10:50.0      -9     -8      0     13     14 226.9  -1.3  33924  285.58 0855.34
2009/04/23 07:10:50.1      -5    -10     -6     12     13 209.0 -31.6  33924  285.58 0855.34
2009/04/23 07:10:50.2      -3     -7     -4      8      9 205.4 -31.6  33922  285.55 0855.34
2009/04/23 07:10:50.3       3     -7     -8      8     11 154.6 -54.5  33922  285.56 0855.34
2009/04/23 07:10:50.4      12      0     -6     13     14  90.0 -27.4  33920  285.53 0855.34
2009/04/23 07:10:50.5      17      5     -8     18     19  71.6 -27.4  33926  285.61 0855.34
2009/04/23 07:10:50.6      11      7    -13     14     19  57.6 -56.4  33922  285.56 0855.34
2009/04/23 07:10:50.7      21     21     -5     31     32  45.0  -9.3  33922  285.55 0855.34
2009/04/23 07:10:50.8      13     28    -19     32     37  25.5 -39.9  33920  285.51 0855.34
2009/04/23 07:10:50.9       3     31    -15     32     35   6.2 -31.6  33920  285.53 0855.34
2009/04/23 07:10:51.0       3     22    -22     23     31   9.8 -54.4  33922  285.56 0855.34
2009/04/23 07:10:51.1      13     34    -24     37     44  21.8 -40.9  33924  285.58 0855.34
2009/04/23 07:10:51.2      23     30    -24     39     45  37.8 -39.9  33920  285.53 0855.34
2009/04/23 07:10:51.3      18     39    -29     44     52  25.4 -40.0  33920  285.53 0855.34
2009/04/23 07:10:51.4       9     39    -38     41     55  13.4 -52.3  33920  285.53 0855.34
2009/04/23 07:10:51.5       5     23    -35     24     42  13.4 -67.0  33922  285.56 0855.34
2009/04/23 07:10:51.6      13     39    -40     42     58  18.5 -55.5  33922  285.55 0855.34
2009/04/23 07:10:51.7      17     39    -41     43     59  23.6 -53.4  33920  285.53 0855.34
2009/04/23 07:10:51.8      13     23    -40     27     48  30.7 -68.0  33922  285.55 0855.34
2009/04/23 07:10:51.9      19     11    -27     23     35  59.3 -60.7  33918  285.50 0855.34
2009/04/23 07:10:52.0      26    -28    -38     39     54 136.6 -55.5  33924  285.58 0855.34
2009/04/23 07:10:52.1      35    -39    -45     53     69 138.6 -48.2  33924  285.60 0855.34
2009/04/23 07:10:52.2      37    -24    -38     45     58 123.3 -49.2  33920  285.53 0855.34
2009/04/23 07:10:52.3      35    -28    -40     45     60 128.6 -51.3  33922  285.55 0855.34
2009/04/23 07:10:52.4      24    -24    -33     34     47 134.9 -55.5  33920  285.53 0855.34
2009/04/23 07:10:52.5      35      0    -30     36     46  90.0 -49.2  33922  285.55 0855.34
2009/04/23 07:10:52.6      24     -4    -28     25     37  99.7 -56.6  33922  285.55 0855.34
2009/04/23 07:10:52.7       3      0    -29      4     29  90.0 -90.0  33920  285.53 0855.34
2009/04/23 07:10:52.8       3      0    -29      4     29  90.0 -90.0  33920  285.53 0855.34
2009/04/23 07:10:52.9       0     -5    -31      6     31 184.5 -90.0  33920  285.53 0855.34
2009/04/23 07:10:53.0       0      7    -19      8     20 357.3 -81.5  33920  285.53 0855.34
2009/04/23 07:10:53.1      11     25     -8     28     29  23.6 -23.8  33918  285.48 0855.34
2009/04/23 07:10:53.2      52     28     -2     60     61  61.1  -2.2  33922  285.55 0855.34
2009/04/23 07:10:53.3      56     32     10     65     66  60.2   9.0  33920  285.53 0855.34
2009/04/23 07:10:53.4      73     34     19     81     84  65.2  13.2  33920  285.53 0855.34
2009/04/23 07:10:53.5      74     24     26     78     83  71.6  18.9  33918  285.50 0855.34
2009/04/23 07:10:53.6      84     27     48     89    101  71.8  30.8  33918  285.50 0855.34
2009/04/23 07:10:53.7      76     15     55     78     95  78.6  38.0  33920  285.53 0855.34
2009/04/23 07:10:53.8      65     26     44     71     83  68.3  34.4  33918  285.50 0855.34
2009/04/23 07:10:53.9      67      6     52     68     85  84.8  41.2  33922  285.56 0855.34
2009/04/23 07:10:54.0      59     -4     45     60     75  94.3  39.7  33924  285.58 0855.34
2009/04/23 07:10:54.1      84     -2     30     85     91  91.7  19.4  33920  285.53 0855.34
2009/04/23 07:10:54.2      90      0     31     91     97  90.0  18.9  33920  285.53 0855.34
2009/04/23 07:10:54.3      80     10     27     81     86  82.5  18.9  33920  285.53 0855.34
2009/04/23 07:10:54.4      68     13     24     70     75  78.5  19.4  33916  285.46 0855.35
2009/04/23 07:10:54.5      46     36     40     59     71  52.2  36.5  33918  285.50 0855.35
2009/04/23 07:10:54.6      53     23     26     58     63  66.5  25.1  33916  285.44 0855.35
2009/04/23 07:10:54.7      53     23     33     58     66  66.5  32.4  33920  285.53 0855.35
2009/04/23 07:10:54.8      62     12     34     64     72  78.5  30.3  33920  285.53 0855.35
2009/04/23 07:10:55.0      24      0     47     25     53  90.0  69.8  33916  285.46 0855.35
2009/04/23 07:10:55.1      10    -22     61     25     65 156.4  77.1  33918  285.50 0855.35
2009/04/23 07:10:55.3     -17    -11     31     21     37 237.5  64.6  33918  285.50 0855.35
2009/04/23 07:10:55.4     -23    -17     25     29     38 234.0  45.8  33920  285.53 0855.35
2009/04/23 07:10:55.5     -23      0     24     24     33 270.0  50.1  33920  285.53 0855.35
2009/04/23 07:10:55.6     -24    -19      8     31     33 232.2  15.3  33918  285.50 0855.35
2009/04/23 07:10:55.7      -9    -31     24     33     40 196.9  39.7  33918  285.48 0855.35
2009/04/23 07:10:55.9      -5     -6     42      8     42 219.6  90.0  33918  285.48 0855.35
2009/04/23 07:10:56.0      -8     -6     31     11     32 230.5  81.2  33916  285.44 0855.35
2009/04/23 07:10:56.1     -27    -22     26     36     44 230.4  39.7  33916  285.46 0855.35
2009/04/23 07:10:56.2     -37    -12     16     40     43 251.4  22.0  33918  285.48 0855.35
2009/04/23 07:10:56.3     -25    -25     28     36     45 225.0  41.7  33918  285.48 0855.35
2009/04/23 07:10:56.4     -50      0     10     51     52 270.0  11.1  33920  285.53 0855.35
2009/04/23 07:10:56.5     -44     -7     15     45     48 260.3  19.2  33920  285.53 0855.35
2009/04/23 07:10:56.6     -61    -20     -2     65     66 251.8  -2.2  33920  285.51 0855.35
2009/04/23 07:10:56.7     -67    -22    -15     71     73 251.4 -12.4  33920  285.51 0855.35
2009/04/23 07:10:56.8     -61    -30    -15     69     71 243.8 -12.4  33920  285.51 0855.35
2009/04/23 07:10:56.9     -49    -20     -2     54     55 247.4  -2.2  33918  285.50 0855.35
2009/04/23 07:10:57.0     -59      8     -2     60     61 277.9  -2.2  33918  285.50 0855.35
2009/04/23 07:10:57.1     -54    -37    -14     66     68 235.8 -12.4  33916  285.46 0855.35
2009/04/23 07:10:57.2     -77    -47     -8     91     92 238.9  -5.6  33914  285.41 0855.35
2009/04/23 07:10:57.3     -94    -41    -41    103    110 246.0 -27.4  33930  285.68 0855.35
2009/04/23 07:10:57.4    -132    -53    -42    143    150 248.2 -16.6  33930  285.70 0855.35
2009/04/23 07:10:57.5    -150    -11    -31    151    155 265.7 -11.6  33928  285.66 0855.35
2009/04/23 07:10:57.6    -164    -15    -21    165    167 264.5  -7.3  33924  285.58 0855.35
2009/04/23 07:10:57.7    -186    -25    -60    188    198 262.3 -17.9  33928  285.66 0855.35
2009/04/23 07:10:57.8    -127    -39    -58    133    145 252.7 -29.5  33926  285.63 0855.35
2009/04/23 07:10:57.9     -94      0    -23     95     98 270.0 -13.9  33918  285.48 0855.35
2009/04/23 07:10:58.0    -110    -10     13    111    112 264.3   6.9  33922  285.55 0855.35
2009/04/23 07:10:58.1     -77     13     23     79     83 279.7  16.3  33920  285.53 0855.35
2009/04/23 07:10:58.2     -84     42     51     94    106 296.6  31.3  33918  285.48 0855.35
2009/04/23 07:10:58.3     -93     77     49    121    130 309.6  23.1  33916  285.46 0855.35
2009/04/23 07:10:58.4     -64     49     28     81     86 307.3  19.4  33914  285.43 0855.35
2009/04/23 07:10:58.5     -57     41     31     71     77 306.0  25.1  33912  285.39 0855.35
2009/04/23 07:10:58.6     -56     26     31     63     70 295.3  27.3  33912  285.38 0855.35
2009/04/23 07:10:58.7     -49     23     31     55     63 295.2  31.4  33912  285.39 0855.35
2009/04/23 07:10:58.8     -64     -5     29     65     71 264.8  26.2  33914  285.41 0855.35
2009/04/23 07:10:58.9     -80    -31     37     86     93 248.7  24.6  33910  285.36 0855.35
2009/04/23 07:10:59.0     -85    -36     35     93     99 246.9  21.5  33912  285.39 0855.35
2009/04/23 07:10:59.1     -66    -50     29     84     90 232.7  19.2  33914  285.43 0855.35
2009/04/23 07:10:59.2     -63    -59     10     87     88 226.9   6.9  33918  285.48 0855.35
2009/04/23 07:10:59.3     -54    -70      3     89     90 217.8   2.3  33920  285.53 0855.35
2009/04/23 07:10:59.4     -46    -95     -5    106    107 206.3  -3.1  33922  285.55 0855.35
2009/04/23 07:10:59.5     -57    -60     21     83     86 223.7  14.7  33916  285.44 0855.35
2009/04/23 07:10:59.6     -53    -33     31     63     70 237.6  27.3  33916  285.44 0855.35
2009/04/23 07:10:59.7     -45    -28     37     54     65 237.6  37.6  33914  285.43 0855.35
2009/04/23 07:10:59.8     -42    -26     33     50     59 237.6  36.5  33916  285.46 0855.35
2009/04/23 07:10:59.9     -36    -27     26     46     52 233.1  32.4  33916  285.44 0855.35
2009/04/23 07:11:00.0     -32    -27     24     43     49 229.6  31.4  33918  285.48 0855.35
2009/04/23 07:11:00.1     -18    -47     29     51     58 200.9  33.5  33918  285.48 0855.35
2009/04/23 07:11:00.2     -18    -73     41     76     86 194.3  30.8  33920  285.51 0855.35
2009/04/23 07:11:00.3     -18    -59     40     62     73 197.8  35.6  33918  285.50 0855.35
2009/04/23 07:11:00.4     -35    -42     18     55     58 219.6  18.4  33922  285.55 0855.35
2009/04/23 07:11:00.6     -10    -32     21     34     39 198.3  34.4  33920  285.51 0855.35
2009/04/23 07:11:00.7       0     -7     20      8     21 182.7  77.1  33920  285.51 0855.35
2009/04/23 07:11:00.8     -10     22     37     25     44 336.4  63.6  33920  285.53 0855.35
2009/04/23 07:11:00.9       3      8     31      9     32  25.4  82.8  33922  285.55 0855.35
2009/04/23 07:11:01.0       1     13     36     14     38   8.0  81.2  33920  285.51 0855.35
2009/04/23 07:11:01.1       8     15     41     18     44  29.0  76.1  33918  285.48 0855.35
2009/04/23 07:11:01.2      15     19     49     25     55  39.6  70.8  33918  285.50 0855.35
2009/04/23 07:11:01.3      10     32     53     34     62  18.3  64.7  33916  285.44 0855.35
2009/04/23 07:11:01.4      -2     27     51     28     58 355.5  68.8  33918  285.48 0855.35
2009/04/23 07:11:01.6     -24     -4     28     25     37 260.3  52.2  33920  285.51 0855.35
2009/04/23 07:11:01.6     -21    -25     20     33     38 219.6  35.5  33920  285.53 0855.35
2009/04/23 07:11:01.7     -11    -34     22     36     42 198.7  34.4  33918  285.50 0855.35
2009/04/23 07:11:01.8     -17    -26     38     32     49 212.5  56.3  33922  285.56 0855.35
2009/04/23 07:11:01.9       0    -46     53     47     70 180.0  53.3  33922  285.55 0855.35
2009/04/23 07:11:02.0     -41    -41     55     58     79 225.0  49.0  33918  285.48 0855.35
2009/04/23 07:11:02.1     -43    -36     51     57     76 230.4  47.9  33916  285.46 0855.35
2009/04/23 07:11:02.2     -26    -16     45     31     54 237.6  62.6  33916  285.46 0855.35
2009/04/23 07:11:02.3      -6    -14     69     16     70 205.4  89.0  33920  285.51 0855.35
2009/04/23 07:11:02.4     -86    -18     65     88    109 258.1  39.7  33918  285.48 0855.34
2009/04/23 07:11:02.5     -92     -1     27     93     97 269.2  16.3  33918  285.48 0855.34
2009/04/23 07:11:02.6     -59     30    -23     67     70 297.1 -23.3  33920  285.51 0855.34
2009/04/23 07:11:02.7     -23     15    -67     28     72 302.4 -81.4  33922  285.56 0855.34
2009/04/23 07:11:02.9      77      1     11     78     79  89.1   8.5  33920  285.53 0855.34
2009/04/23 07:11:03.0      35     -2     76     36     84  94.3  72.9  33922  285.56 0855.34
2009/04/23 07:11:03.1      14   -115     84    116    143 172.9  39.5  33926  285.61 0855.34
2009/04/23 07:11:03.2      10   -137     39    138    144 175.5  15.8  33924  285.60 0855.34
2009/04/23 07:11:03.3       4    -42     86     43     96 173.8  71.9  33924  285.58 0855.34
2009/04/23 07:11:03.4     -15     12     71     20     73 307.8  83.9  33928  285.65 0855.34
2009/04/23 07:11:03.5      30    -26     49     40     63 131.3  56.4  33928  285.65 0855.34
2009/04/23 07:11:03.6       4    -70     77     71    104 176.4  52.2  33928  285.65 0855.34
2009/04/23 07:11:03.7     -21    -86     77     89    117 194.3  45.8  33926  285.63 0855.34
2009/04/23 07:11:03.8       1    -67     63     68     92 179.0  47.9  33926  285.63 0855.34
2009/04/23 07:11:03.9      18    -30     37     36     51 149.3  50.1  33926  285.63 0855.34
2009/04/23 07:11:04.0      13      4     48     14     50  71.4  82.8  33928  285.66 0855.34
2009/04/23 07:11:04.1      30      6     37     31     48  78.5  54.3  33926  285.63 0855.34
2009/04/23 07:11:04.2      38     -2     45     39     59  94.4  54.3  33928  285.65 0855.34
2009/04/23 07:11:04.3      49    -15     35     52     62 107.7  37.6  33924  285.60 0855.34
2009/04/23 07:11:04.4      18     -5     31     19     36 108.2  64.7  33926  285.61 0855.34
2009/04/23 07:11:04.6     -17     -9     43     20     47 241.1  74.0  33928  285.65 0855.34
2009/04/23 07:11:04.7     -30     15     35     34     48 297.1  49.1  33926  285.61 0855.34
2009/04/23 07:11:04.8     -17     50      4     54     55 340.8   4.9  33924  285.58 0855.34
2009/04/23 07:11:04.9     -21     21    -28     31     41 315.0 -51.3  33926  285.63 0855.34
2009/04/23 07:11:05.0      31      0      5     32     33  90.8   9.0  33924  285.58 0855.34
2009/04/23 07:11:05.1      37     19     37     42     55  62.9  45.8  33924  285.58 0855.34
2009/04/23 07:11:05.2      20     42     20     47     51  26.3  24.1  33924  285.58 0855.34
2009/04/23 07:11:05.3      24     42     -4     49     50  30.7  -5.2  33924  285.58 0855.34
2009/04/23 07:11:05.4      12     20     -7     24     26  32.5 -17.6  33924  285.58 0855.34
2009/04/23 07:11:05.5      17     22    -23     28     36  37.8 -48.1  33926  285.61 0855.34
2009/04/23 07:11:05.6      15     31    -15     35     38  27.2 -27.4  33926  285.63 0855.34
2009/04/23 07:11:05.7       2     30     -1     31     32   4.5  -2.2  33926  285.61 0855.34
2009/04/23 07:11:05.8      -1     24     26     25     36 357.3  48.2  33924  285.60 0855.34
2009/04/23 07:11:05.9     -35     15     37     39     53 293.5  50.0  33924  285.58 0855.34
2009/04/23 07:11:06.0     -51     17     35     54     64 289.1  35.6  33926  285.63 0855.34
2009/04/23 07:11:06.1     -37     19     35     42     54 297.1  43.8  33924  285.60 0855.34
2009/04/23 07:11:06.2     -41     31     52     52     73 307.8  50.1  33924  285.60 0855.34
2009/04/23 07:11:06.3       2     43     53     44     68   3.6  56.3  33924  285.58 0855.34
2009/04/23 07:11:06.4      30     50     41     59     71  30.7  38.6  33924  285.58 0855.34
2009/04/23 07:11:06.5      20     74     19     77     80  15.2  14.3  33922  285.56 0855.34
2009/04/23 07:11:06.6      -1     72     -1     73     74 359.1  -1.3  33918  285.48 0855.34
2009/04/23 07:11:06.7     -51     92     41    106    113 331.0  22.0  33918  285.48 0855.34
2009/04/23 07:11:06.8     -70     51    -24     87     91 306.0 -15.5  33916  285.46 0855.34
2009/04/23 07:11:06.9     -60     19     -8     63     64 287.7  -7.3  33918  285.48 0855.34
2009/04/23 07:11:07.0     -16     64     17     67     70 345.7  14.3  33918  285.48 0855.34
2009/04/23 07:11:07.1     -16     74     31     76     82 347.5  23.0  33920  285.51 0855.34
2009/04/23 07:11:07.2     -39     56      9     69     70 324.8   8.0  33920  285.53 0855.34
2009/04/23 07:11:07.3     -14     69     13     71     73 348.4  11.0  33916  285.44 0855.34
2009/04/23 07:11:07.4       6    122     10    123    124   3.1   5.0  33912  285.39 0855.34
2009/04/23 07:11:07.5      26    129    -12    132    133  11.6  -5.6  33918  285.48 0855.34
2009/04/23 07:11:07.6      92    104     61    139    151  41.5  25.2  33918  285.48 0855.34
2009/04/23 07:11:07.7      57    112     35    126    131  27.2  15.8  33918  285.50 0855.34
2009/04/23 07:11:07.9      75     74     37    106    113  45.6  19.4  33920  285.51 0855.34
2009/04/23 07:11:08.0      72     81     49    109    119  41.4  25.7  33920  285.51 0855.34
2009/04/23 07:11:08.1      64     46     68     80    104  54.0  44.8  33920  285.53 0855.34
2009/04/23 07:11:08.2      70     54     65     89    110  52.2  39.7  33922  285.55 0855.34
2009/04/23 07:11:08.3      58     48     51     76     91  50.5  37.0  33920  285.51 0855.34
2009/04/23 07:11:08.4      66     50     77     83    113  52.7  48.0  33920  285.53 0855.34
2009/04/23 07:11:08.5      42     35     75     55     93  50.4  60.0  33918  285.50 0855.34
2009/04/23 07:11:08.6      82     35     61     90    108  66.5  37.0  33922  285.55 0855.34
2009/04/23 07:11:08.7      78     25     72     83    109  71.8  44.8  33922  285.55 0855.34
2009/04/23 07:11:08.8      56      8     96     57    111  81.2  66.8  33922  285.55 0855.34
2009/04/23 07:11:08.9     110     37     74    117    138  71.4  35.5  33918  285.50 0855.34
2009/04/23 07:11:09.0      79     46     54     92    106  59.8  33.5  33922  285.55 0855.34
2009/04/23 07:11:09.1      68     27     62     74     96  68.3  44.3  33918  285.50 0855.34
2009/04/23 07:11:09.2      69     16     87     71    112  76.7  56.4  33920  285.51 0855.34
2009/04/23 07:11:09.3      94     26     97     98    137  74.1  50.0  33918  285.50 0855.34
2009/04/23 07:11:09.4     113     15     89    115    145  82.1  41.7  33914  285.41 0855.34
2009/04/23 07:11:09.5      75    -24     66     79    102 108.2  44.3  33918  285.50 0855.34
2009/04/23 07:11:09.6      57    -31     58     66     87 118.9  46.4  33918  285.48 0855.34
2009/04/23 07:11:09.7      63    -40     49     75     89 122.4  36.0  33916  285.46 0855.34
2009/04/23 07:11:09.8      33    -35     52     49     71 136.8  52.1  33918  285.50 0855.34
2009/04/23 07:11:09.9       3     -8     57      9     57 154.6  90.0  33922  285.55 0855.34
2009/04/23 07:11:10.0       2      7     32      8     33  18.5  84.9  33920  285.53 0855.34
2009/04/23 07:11:10.1      21    -19     51     29     58 131.3  66.8  33920  285.53 0855.34
2009/04/23 07:11:10.2      16    -23     64     29     70 145.7  73.1  33920  285.53 0855.34
2009/04/23 07:11:10.3      76      3    115     77    138  87.4  62.7  33912  285.38 0855.34
2009/04/23 07:11:10.4     114     16    141    116    182  81.6  56.4  33914  285.41 0855.34
2009/04/23 07:11:10.5     -11     23     95     26     98 334.6  84.9  33914  285.43 0855.34
2009/04/23 07:11:10.6     -21     32     72     39     81 325.7  69.3  33916  285.44 0855.34
2009/04/23 07:11:10.7      69     50     88     86    123  54.0  50.1  33910  285.34 0855.34
2009/04/23 07:11:10.8      69     26     68     74    100  69.2  47.9  33912  285.38 0855.34
2009/04/23 07:11:10.9      30     42     67     52     84  36.1  58.5  33908  285.31 0855.34
2009/04/23 07:11:11.0     -47     87     67    100    120 331.5  37.4  33912  285.39 0855.34
2009/04/23 07:11:11.1     -90    107     54    140    150 319.9  22.0  33910  285.34 0855.34
2009/04/23 07:11:11.2     -75    110     46    134    142 325.8  18.9  33914  285.43 0855.34
2009/04/23 07:11:11.3     -17    123     64    125    140 352.0  29.3  33906  285.29 0855.34
2009/04/23 07:11:11.4      25    148     54    151    160   9.8  20.2  33912  285.38 0855.34
2009/04/23 07:11:11.5      51    134     59    144    155  20.9  23.1  33920  285.53 0855.34
2009/04/23 07:11:11.6      76    119     76    142    161  32.5  30.6  33920  285.53 0855.34
2009/04/23 07:11:11.7      95    120     92    154    179  38.3  33.7  33916  285.46 0855.34
2009/04/23 07:11:11.8     119    132    119    178    214  42.1  36.7  33920  285.51 0855.34
2009/04/23 07:11:11.9     125    120    118    174    210  46.2  37.4  33922  285.55 0855.34
2009/04/23 07:11:12.0     122    119    133    171    216  45.6  42.0  33922  285.55 0855.34
2009/04/23 07:11:12.1     129    106    119    168    205  50.7  39.1  33920  285.51 0855.34
2009/04/23 07:11:12.2     130     88    142    158    212  55.8  46.6  33920  285.53 0855.34
2009/04/23 07:11:12.3     115     83    132    142    193  54.1  48.0  33920  285.51 0855.34
2009/04/23 07:11:12.4     104     56    144    119    186  61.6  56.3  33920  285.53 0855.34
2009/04/23 07:11:12.5     135     85     96    160    186  57.6  34.0  33918  285.50 0855.35
2009/04/23 07:11:12.6     176     74    113    192    222  67.2  33.4  33920  285.51 0855.35
2009/04/23 07:11:12.7     154     78    131    173    217  62.9  40.9  33918  285.50 0855.35
2009/04/23 07:11:12.8     147     45    151    154    215  72.7  49.8  33916  285.44 0855.35
2009/04/23 07:11:12.9     172     56    183    182    258  71.8  50.1  33920  285.51 0855.35
2009/04/23 07:11:13.0     172     51    172    180    248  73.4  49.0  33920  285.51 0855.35
2009/04/23 07:11:13.1     143     38    169    149    225  74.9  54.3  33918  285.48 0855.35
2009/04/23 07:11:13.2     129     24    128    132    183  79.4  49.4  33920  285.51 0855.35
2009/04/23 07:11:13.3     145     48    147    153    212  71.6  49.2  33916  285.46 0855.35
2009/04/23 07:11:13.4     118     47    163    128    207  68.3  57.9  33916  285.46 0855.35
2009/04/23 07:11:13.5     142     59    154    154    217  67.4  50.1  33918  285.50 0855.35
2009/04/23 07:11:13.6     134     49    110    143    180  69.6  41.4  33918  285.48 0855.35
2009/04/23 07:11:13.7     147     39    126    153    198  75.0  43.7  33918  285.48 0855.35
2009/04/23 07:11:13.8     117     54    141    129    191  65.2  52.7  33916  285.46 0855.35
2009/04/23 07:11:13.9     109     56    109    123    164  62.9  46.4  33914  285.43 0855.35
2009/04/23 07:11:14.0     121     57     99    134    166  64.8  40.4  33916  285.46 0855.35
2009/04/23 07:11:14.1     118     54    121    130    177  65.2  47.9  33914  285.43 0855.35
2009/04/23 07:11:14.2      97     62    152    116    191  57.5  58.7  33914  285.41 0855.35
2009/04/23 07:11:14.3      91     22    134     94    163  76.3  61.8  33912  285.38 0855.35
2009/04/23 07:11:14.4     129     30    103    133    168  76.7  42.0  33916  285.46 0855.35
2009/04/23 07:11:14.5     117     31    108    122    162  75.0  46.4  33918  285.48 0855.35
2009/04/23 07:11:14.6     127     21    110    129    169  80.3  44.5  33916  285.44 0855.35
2009/04/23 07:11:14.7     100     31    117    105    157  72.7  53.5  33918  285.48 0855.35
2009/04/23 07:11:14.8      85     22    103     88    135  75.4  55.4  33918  285.48 0855.35
2009/04/23 07:11:14.9     106     12     98    107    145  83.0  47.9  33916  285.46 0855.35
2009/04/23 07:11:15.0      55    -22     91     60    109 111.7  64.1  33914  285.43 0855.35
2009/04/23 07:11:15.1      66    -13    101     68    121 101.5  62.7  33914  285.43 0855.35
2009/04/23 07:11:15.2     112     44     28    121    125  68.2  13.2  33914  285.43 0855.35
2009/04/23 07:11:15.3     135     36     21    140    142  75.0   8.9  33914  285.41 0855.35
2009/04/23 07:11:15.4     150     60     20    162    164  68.0   7.2  33916  285.44 0855.35
2009/04/23 07:11:15.5     169     96     37    195    199  60.5  10.8  33920  285.51 0855.35
2009/04/23 07:11:15.6     199     94     51    221    227  64.8  13.1  33916  285.46 0855.35
2009/04/23 07:11:15.8     200    113     47    230    235  60.5  11.6  33918  285.47 0855.35
2009/04/23 07:11:15.9     211    134     68    251    261  57.5  15.2  33920  285.51 0855.35
2009/04/23 07:11:16.0     179    116     74    214    227  56.9  19.2  33918  285.48 0855.35
2009/04/23 07:11:16.1     210     95     88    231    247  65.6  22.0  33918  285.47 0855.35
2009/04/23 07:11:16.2     215     99     90    237    253  65.2  21.7  33916  285.44 0855.35
2009/04/23 07:11:16.3     221     87     86    238    254  68.3  19.9  33918  285.47 0855.35
2009/04/23 07:11:16.4     252    108    102    275    293  66.7  21.0  33912  285.37 0855.35
2009/04/23 07:11:16.5     197    108     75    225    238  61.1  18.5  33916  285.45 0855.35
2009/04/23 07:11:16.6     244    111     86    269    283  65.6  17.7  33914  285.42 0855.35
2009/04/23 07:11:16.7     216     91     73    235    247  67.2  17.4  33918  285.49 0855.35
2009/04/23 07:11:16.8     198     80     80    214    228  68.0  21.3  33916  285.46 0855.35
2009/04/23 07:11:16.9     235     27     64    237    246  83.4  15.2  33916  285.45 0855.35
2009/04/23 07:11:17.0     222     89     67    240    250  68.2  15.6  33918  285.47 0855.35
2009/04/23 07:11:17.1     212     77    103    226    248  70.0  26.2  33918  285.49 0855.35
2009/04/23 07:11:17.2     212     79    115    227    254  69.4  29.1  33918  285.47 0855.35
2009/04/23 07:11:17.3     189     85    139    208    250  65.6  36.7  33920  285.51 0855.35
2009/04/23 07:11:17.4     163     59    104    174    202  70.0  33.7  33914  285.43 0855.35
2009/04/23 07:11:17.5     207     39     86    211    227  79.2  23.1  33918  285.48 0855.36
2009/04/23 07:11:17.6     231     37     69    235    245  80.8  16.4  33918  285.47 0855.36
2009/04/23 07:11:17.7     198     55     90    206    224  74.5  25.2  33918  285.48 0855.36
2009/04/23 07:11:17.8     213     45    131    218    254  77.8  33.7  33918  285.47 0855.36
2009/04/23 07:11:17.9     233     59     90    241    257  75.6  21.5  33916  285.44 0855.36
2009/04/23 07:11:18.0     260      7     82    261    274  88.3  17.4  33914  285.40 0855.36
2009/04/23 07:11:18.1     253     58     51    260    266  77.0  11.1  33910  285.35 0855.36
2009/04/23 07:11:18.2     238     31     24    241    243  82.5   5.7  33914  285.40 0855.36
2009/04/23 07:11:18.3     219     15     71    220    232  85.9  17.9  33912  285.38 0855.36
2009/04/23 07:11:18.4     228     13     55    229    236  86.7  13.5  33912  285.37 0855.36
2009/04/23 07:11:18.5     239     36     34    242    245  81.4   8.0  33910  285.35 0855.36
2009/04/23 07:11:18.6     205     51     82    212    227  75.8  22.5  33906  285.28 0855.36
2009/04/23 07:11:18.7     213     32     78    216    229  81.4  20.7  33908  285.33 0855.36
2009/04/23 07:11:18.8     179     49     34    186    190  74.5  10.3  33912  285.38 0855.36
2009/04/23 07:11:18.9     193      4     39    194    199  88.7  11.6  33912  285.38 0855.36
2009/04/23 07:11:19.0     192     14     61    193    203  85.6  17.7  33912  285.39 0855.36
2009/04/23 07:11:19.1     179    -20     64    181    193  96.6  19.6  33914  285.41 0855.36
2009/04/23 07:11:19.2     218     23     76    220    233  83.9  19.2  33908  285.33 0855.36
2009/04/23 07:11:19.3     216     30     62    219    228  82.1  16.0  33910  285.36 0855.36
2009/04/23 07:11:19.4     183     93     15    206    207  63.1   4.2  33914  285.41 0855.36
2009/04/23 07:11:19.5     152     11     28    153    156  85.6  10.6  33912  285.39 0855.36
2009/04/23 07:11:19.6     146     11     19    147    149  85.6   7.5  33914  285.41 0855.36
2009/04/23 07:11:19.7     198     27      4    200    201  82.0   1.2  33914  285.43 0855.36
2009/04/23 07:11:19.8     192     64     -7    203    204  71.6  -2.2  33912  285.39 0855.36
2009/04/23 07:11:19.9     192     70    -28    205    208  70.0  -8.0  33910  285.36 0855.36
2009/04/23 07:11:20.0     195     73    -34    209    212  69.4  -9.4  33914  285.43 0855.36
2009/04/23 07:11:20.1     182     49    -43    189    194  74.7 -12.9  33916  285.44 0855.36
2009/04/23 07:11:20.2     148     40    -22    154    156  74.9  -8.2  33914  285.43 0855.36
2009/04/23 07:11:20.3     146     53    -65    156    169  70.0 -28.2  33910  285.36 0855.36
2009/04/23 07:11:20.4     149     40    -11    155    156  74.9  -4.1  33906  285.29 0855.36
2009/04/23 07:11:20.5     156     21     16    158    159  82.0   5.9  33910  285.36 0855.36
2009/04/23 07:11:20.6     134     63     35    149    154  64.8  13.2  33912  285.39 0855.36
2009/04/23 07:11:20.7     134     35     21    139    141  75.4   8.9  33918  285.48 0855.36
2009/04/23 07:11:20.8     130     13     49    131    139  83.9  21.0  33916  285.46 0855.36
2009/04/23 07:11:20.9     145     25     42    148    154  79.9  16.0  33914  285.41 0855.36
2009/04/23 07:11:21.0     157     38     57    162    171  76.3  20.0  33916  285.44 0855.36
2009/04/23 07:11:21.1     157     32     78    161    178  78.5  27.4  33916  285.46 0855.36
2009/04/23 07:11:21.2     164     41     78    170    187  75.8  26.6  33914  285.43 0855.36
2009/04/23 07:11:21.3     114     53     55    126    137  64.8  25.1  33914  285.43 0855.36
2009/04/23 07:11:21.4      79     51     32     95    101  57.1  18.9  33916  285.44 0855.36
2009/04/23 07:11:21.5      55     26     55     61     82  64.7  47.5  33914  285.43 0855.37
2009/04/23 07:11:21.6      64     17     50     67     83  74.9  40.7  33914  285.43 0855.37
2009/04/23 07:11:21.7      56     35     28     67     72  57.6  23.1  33914  285.43 0855.37
2009/04/23 07:11:21.8     100     22     37    103    109  77.6  20.0  33912  285.39 0855.37
2009/04/23 07:11:21.9     132     57     71    145    161  66.5  28.0  33916  285.44 0855.37
2009/04/23 07:11:22.0     158     52     59    167    178  71.6  19.6  33912  285.38 0855.37
2009/04/23 07:11:22.1     139     10     48    140    149  85.6  18.9  33916  285.44 0855.37
2009/04/23 07:11:22.2     102      1     10    103    104  89.1   5.9  33916  285.44 0855.37
2009/04/23 07:11:22.3      93      9     20     94     97  83.9  12.2  33914  285.43 0855.37
2009/04/23 07:11:22.4      77    -11     24     78     82  98.4  17.3  33914  285.41 0855.37
2009/04/23 07:11:22.5      83     -1     68     84    108  90.8  43.7  33914  285.41 0855.37
2009/04/23 07:11:22.6      87    -22     98     90    133 104.2  52.2  33912  285.39 0855.37
2009/04/23 07:11:22.7      28    -35     87     46     98 141.3  70.4  33914  285.41 0855.37
2009/04/23 07:11:22.8       2     10     54     11     55  15.1  89.1  33914  285.43 0855.37
2009/04/23 07:11:22.9      27     35     42     45     61  37.0  47.9  33912  285.39 0855.37
2009/04/23 07:11:23.0      30     13     71     33     78  66.5  73.5  33914  285.43 0855.37
2009/04/23 07:11:23.1     -36     -7     44     37     57 258.6  56.3  33914  285.43 0855.37
2009/04/23 07:11:23.2      -5     10     59     12     60 331.0  89.1  33912  285.39 0855.37
2009/04/23 07:11:23.3     -43     83     51     94    106 332.4  31.3  33910  285.34 0855.37
2009/04/23 07:11:23.4     -42     88     13     98     99 334.1   8.0  33914  285.41 0855.37
2009/04/23 07:11:23.5     -55     86      4    103    104 327.5   2.3  33912  285.38 0855.37
2009/04/23 07:11:23.6     -61     90     41    109    116 325.7  21.0  33910  285.34 0855.37
2009/04/23 07:11:23.7     -58     91     21    109    112 327.5  11.0  33906  285.28 0855.37
2009/04/23 07:11:23.8     -26     93     18     97     99 344.0  10.6  33908  285.33 0855.37
2009/04/23 07:11:23.9     -26    119     43    122    130 347.5  19.4  33906  285.29 0855.37
2009/04/23 07:11:24.0     -53    146    108    156    189 340.0  38.0  33904  285.26 0855.37
2009/04/23 07:11:24.1     -67    155     95    169    193 336.6  31.9  33906  285.28 0855.37
2009/04/23 07:11:24.2     -71    129     65    148    161 331.0  25.1  33904  285.26 0855.37
2009/04/23 07:11:24.3     -68    144     63    160    171 334.7  22.5  33908  285.33 0855.37
2009/04/23 07:11:24.4     -37    113     92    119    150 341.7  41.7  33906  285.29 0855.37
2009/04/23 07:11:24.5      -7     93     85     94    126 355.5  47.5  33906  285.28 0855.37
2009/04/23 07:11:24.6     -21    106     53    109    121 348.9  27.8  33908  285.31 0855.37
2009/04/23 07:11:24.7     -23     15     51     28     58 302.5  68.8  33908  285.33 0855.37
2009/04/23 07:11:24.8     -67      3     55     68     87 272.6  43.3  33906  285.29 0855.37
2009/04/23 07:11:24.9     -24     36     68     44     80 325.7  64.1  33908  285.31 0855.37
2009/04/23 07:11:25.0     -20     85     88     88    124 346.6  50.1  33906  285.28 0855.37
2009/04/23 07:11:25.1     -27     67     95     73    119 338.2  58.5  33908  285.31 0855.37
2009/04/23 07:11:25.2     -43     43     78     62     99 314.9  57.5  33904  285.26 0855.37
2009/04/23 07:11:25.3     -85     50     93     99    135 300.7  48.5  33898  285.16 0855.37
2009/04/23 07:11:25.4    -152    101     32    183    186 303.7  10.1  33908  285.31 0855.37
2009/04/23 07:11:25.5    -140     97     43    171    177 304.9  14.3  33908  285.33 0855.37
2009/04/23 07:11:25.6    -190    104    -47    217    223 298.9 -12.4  33910  285.36 0855.37
2009/04/23 07:11:25.7    -149     56     28    160    163 290.8  10.1  33910  285.34 0855.37
2009/04/23 07:11:25.8    -113     53    -43    126    133 295.3 -23.3  33910  285.34 0855.37
2009/04/23 07:11:25.9    -119     23    -41    122    128 281.0 -23.6  33910  285.36 0855.37
2009/04/23 07:11:26.0    -130     18    -59    132    144 277.9 -30.1  33910  285.34 0855.37
2009/04/23 07:11:26.1    -113    -11    -41    114    121 264.3 -25.3  33908  285.31 0855.37
2009/04/23 07:11:26.2    -100     -7      5    101    102 265.6   2.9  33906  285.29 0855.37
2009/04/23 07:11:26.3     -62    -12     31     64     71 258.5  27.3  33908  285.31 0855.37
2009/04/23 07:11:26.4     -33    -15     89     37     96 244.8  76.6  33906  285.29 0855.37
2009/04/23 07:11:26.5      11     54     98     56    112  11.6  67.7  33908  285.31 0855.37
2009/04/23 07:11:26.6     -20     64    107     68    126 342.2  64.7  33908  285.33 0855.37
2009/04/23 07:11:26.7     -38     66     88     77    116 330.1  54.3  33908  285.31 0855.37
2009/04/23 07:11:26.8     -18     29     81     35     88 327.5  75.0  33908  285.31 0855.37
2009/04/23 07:11:26.9     -25     25     82     36     89 315.0  74.5  33904  285.26 0855.37
2009/04/23 07:11:27.0     -50     14     84     52     98 285.9  65.1  33906  285.28 0855.37
2009/04/23 07:11:27.1     -23     10     68     26     72 293.5  78.2  33904  285.26 0855.37
2009/04/23 07:11:27.2      -4     26     72     27     76 350.2  80.2  33904  285.24 0855.37
2009/04/23 07:11:27.3      16     22     77     28     81  36.1  79.7  33906  285.28 0855.37
2009/04/23 07:11:27.4      39     -7     78     40     87 100.6  70.8  33902  285.23 0855.37
2009/04/23 07:11:27.5      89     18     86     91    125  78.5  49.0  33896  285.11 0855.37
2009/04/23 07:11:27.6      88     45     76     99    124  62.9  41.6  33902  285.23 0855.37
2009/04/23 07:11:27.7      96     50     81    109    135  62.5  40.1  33904  285.26 0855.37
2009/04/23 07:11:27.9      73     46     73     87    113  58.0  44.3  33906  285.28 0855.37
2009/04/23 07:11:27.9      63     58    102     87    134  47.3  55.4  33904  285.24 0855.37
2009/04/23 07:11:28.0      48    143    123    151    194  18.7  43.7  33902  285.23 0855.37
2009/04/23 07:11:28.1      92     73    103    118    156  51.4  45.8  33904  285.26 0855.37
2009/04/23 07:11:28.2     117     55     89    130    157  64.7  37.8  33906  285.28 0855.37
2009/04/23 07:11:28.3     100     70    102    123    159  54.9  44.1  33908  285.31 0855.37
2009/04/23 07:11:28.4      34     97     88    104    136  19.6  44.3  33902  285.23 0855.37
2009/04/23 07:11:28.5     109    116     97    160    187  43.3  34.2  33910  285.34 0855.37
2009/04/23 07:11:28.6     124    124     82    176    194  45.0  27.1  33912  285.39 0855.37
2009/04/23 07:11:28.7     174     85    103    194    219  64.0  30.3  33912  285.38 0855.37
2009/04/23 07:11:28.8     155    128     97    202    224  50.5  27.3  33914  285.41 0855.37
2009/04/23 07:11:28.9     219    155     37    269    272  54.7   8.0  33910  285.34 0855.37
2009/04/23 07:11:29.0     218    117     39    248    252  61.6   9.0  33912  285.37 0855.37
2009/04/23 07:11:29.2     199     75     73    213    226  69.2  18.9  33910  285.34 0855.37
2009/04/23 07:11:29.2     203    129    131    241    274  57.6  31.0  33918  285.49 0855.37
2009/04/23 07:11:29.3      67    177    184    190    264  20.7  49.0  33916  285.44 0855.37
2009/04/23 07:11:29.4      32    186    150    189    241  10.0  42.7  33912  285.39 0855.37
2009/04/23 07:11:29.5     235    203    148    311    344  49.1  27.2  33910  285.36 0855.37
2009/04/23 07:11:29.6     208    136    150    249    290  56.7  34.0  33910  285.34 0855.37
2009/04/23 07:11:29.7     155    130    141    203    247  49.8  38.4  33910  285.34 0855.37
2009/04/23 07:11:29.8     136    208     95    249    266  33.2  22.0  33914  285.42 0855.37
2009/04/23 07:11:29.9     188    280     19    338    339  33.8   3.2  33914  285.41 0855.37
2009/04/23 07:11:30.1     107    276     21    297    298  21.2   4.2  33912  285.37 0855.37
2009/04/23 07:11:30.2      25    202     10    204    205   7.3   2.9  33912  285.39 0855.37
2009/04/23 07:11:30.3      95    149    -22    178    180  32.6  -7.3  33912  285.38 0855.37
2009/04/23 07:11:30.4      68    152    -14    167    168  24.3  -4.9  33918  285.48 0855.37
2009/04/23 07:11:30.4      71    116    -51    137    146  31.6 -25.4  33914  285.41 0855.37
2009/04/23 07:11:30.5      63    112    -16    129    131  29.4  -7.2  33914  285.41 0855.37
2009/04/23 07:11:30.7      70    111    -44    132    140  32.5 -18.7  33916  285.44 0855.37
2009/04/23 07:11:30.8      62    130      2    145    146  25.5   0.8  33914  285.43 0855.37
2009/04/23 07:11:30.9      86    126     10    153    154  34.3   3.8  33916  285.44 0855.37
2009/04/23 07:11:31.0     118    135     48    180    187  41.2  15.2  33914  285.41 0855.37
2009/04/23 07:11:31.1     116    131     98    176    201  41.4  31.4  33910  285.36 0855.37
2009/04/23 07:11:31.2      97    176     33    202    205  29.0   9.5  33914  285.43 0855.37
2009/04/23 07:11:31.3     231    187     64    298    305  50.9  12.2  33916  285.44 0855.37
2009/04/23 07:11:31.4     240    180     15    300    301  53.1   2.9  33914  285.40 0855.37
2009/04/23 07:11:31.5     137    179     25    226    228  37.4   6.5  33912  285.39 0855.37
2009/04/23 07:11:31.6      62    209     27    219    221  16.7   7.1  33914  285.43 0855.37
2009/04/23 07:11:31.7     167    151    -10    226    227  48.0  -2.6  33916  285.44 0855.37
2009/04/23 07:11:31.8     114    193     27    225    227  30.5   6.9  33916  285.44 0855.37
2009/04/23 07:11:31.9     113    150     -7    188    189  37.0  -2.2  33916  285.44 0855.37
2009/04/23 07:11:32.0      86    118    -48    147    155  36.1 -18.3  33916  285.46 0855.37
2009/04/23 07:11:32.1      88    106    -60    139    151  39.7 -29.5  33912  285.39 0855.37
2009/04/23 07:11:32.2      99     55    -56    114    127  61.1 -32.6  33910  285.36 0855.37
2009/04/23 07:11:32.3     133     12    -37    134    140  84.8 -15.5  33908  285.33 0855.37
2009/04/23 07:11:32.4     154     11    -43    155    161  85.7 -15.5  33902  285.21 0855.37
2009/04/23 07:11:32.5     177     -2     44    178    184  90.9  13.9  33904  285.26 0855.37
2009/04/23 07:11:32.6     197     37     46    201    207  79.2  12.9  33908  285.33 0855.37
2009/04/23 07:11:32.7     274     -8     68    275    284  91.7  13.9  33904  285.25 0855.37
2009/04/23 07:11:32.8     248     13     86    249    264  87.0  19.2  33904  285.25 0855.37
2009/04/23 07:11:32.9     267    -14    106    268    288  93.0  23.0  33902  285.20 0855.37
2009/04/23 07:11:33.0     219     16     73    220    232  85.7  18.4  33902  285.21 0855.37
2009/04/23 07:11:33.1     199     27     47    201    207  82.1  13.2  33902  285.23 0855.37
2009/04/23 07:11:33.2     167     21     -8    169    170  82.5  -2.8  33906  285.28 0855.37
2009/04/23 07:11:33.3     169     29     69    172    185  80.1  23.0  33906  285.28 0855.37
2009/04/23 07:11:33.4     121      6     88    122    150  87.0  39.7  33906  285.28 0855.37
2009/04/23 07:11:33.5      10    -21     79     24     82 152.8  82.8  33908  285.33 0855.37
2009/04/23 07:11:33.6      58    -54     57     80     98 133.2  39.5  33910  285.34 0855.37
2009/04/23 07:11:33.7     110    -87      9    141    142 128.2   3.8  33906  285.29 0855.37
2009/04/23 07:11:33.8     153    -54      0    163    164 109.5  -0.3  33908  285.31 0855.37
2009/04/23 07:11:33.9     -15   -140    114    141    181 186.3  43.3  33906  285.29 0855.37
2009/04/23 07:11:34.0     -22   -133    186    135    229 189.7  60.5  33908  285.33 0855.37
2009/04/23 07:11:34.1      17    -77    110     79    135 167.5  61.1  33906  285.28 0855.37
2009/04/23 07:11:34.2      27    -96     87    100    132 164.0  45.8  33912  285.39 0855.37
2009/04/23 07:11:34.3      24   -101    112    104    152 166.2  52.2  33910  285.34 0855.37
2009/04/23 07:11:34.4     -10   -146    129    147    195 184.0  45.8  33910  285.36 0855.37
2009/04/23 07:11:34.5     -61   -181    102    192    217 198.7  30.6  33908  285.33 0855.37
2009/04/23 07:11:34.6     -37   -174    120    178    214 192.0  37.4  33906  285.29 0855.37
2009/04/23 07:11:34.7      39   -145    124    151    195 164.9  43.7  33910  285.34 0855.37
2009/04/23 07:11:34.8      27    -86     96     91    132 162.2  51.6  33910  285.36 0855.37
2009/04/23 07:11:34.9      39    -70    107     81    134 151.1  59.0  33912  285.38 0855.37
2009/04/23 07:11:35.0     -53   -130    135    141    195 202.3  49.0  33908  285.31 0855.37
2009/04/23 07:11:35.1     -12    -90    122     91    152 187.6  60.0  33912  285.38 0855.37
2009/04/23 07:11:35.2      20    -42     86     47     98 153.7  69.3  33910  285.36 0855.37
2009/04/23 07:11:35.3     -36   -141    116    146    186 194.3  43.0  33906  285.29 0855.37
2009/04/23 07:11:35.4     -26    -78    112     83    139 198.3  60.5  33910  285.34 0855.37
2009/04/23 07:11:35.5     -27    -83     90     88    125 198.3  50.1  33908  285.33 0855.37
2009/04/23 07:11:35.6     -25    -30     61     40     72 219.6  64.6  33908  285.31 0855.36
2009/04/23 07:11:35.7      17     48      3     52     53  20.0   3.8  33906  285.28 0855.36
2009/04/23 07:11:35.8      54    110      1    123    124  26.3   0.8  33908  285.33 0855.36
2009/04/23 07:11:35.9      37    124     70    130    147  17.0  31.3  33910  285.34 0855.36
2009/04/23 07:11:36.0      38    132     77    138    158  16.0  31.6  33910  285.36 0855.36
2009/04/23 07:11:36.1      78    103     62    130    144  37.4  27.3  33912  285.39 0855.36
2009/04/23 07:11:36.2     113    135     97    177    201  40.1  31.4  33912  285.39 0855.36
2009/04/23 07:11:36.3     145    120     98    189    212  50.5  29.3  33914  285.43 0855.36
2009/04/23 07:11:36.4      92    120     88    152    175  37.4  32.7  33916  285.46 0855.36
2009/04/23 07:11:36.5      34    173     77    177    193  11.3  24.9  33914  285.43 0855.36
2009/04/23 07:11:36.6      96    154     16    182    183  31.9   5.2  33914  285.43 0855.36
2009/04/23 07:11:36.7     112    204    -74    233    244  28.9 -22.8  33914  285.40 0855.36
2009/04/23 07:11:36.8     110    233    -78    258    270  25.4 -17.0  33914  285.42 0855.36
2009/04/23 07:11:36.9      52    234    -59    240    248  12.7 -13.9  33916  285.44 0855.36
2009/04/23 07:11:37.0      49    209    -51    215    222  13.4 -13.4  33918  285.48 0855.36
2009/04/23 07:11:37.1      19    197    -36    198    202   5.6 -10.5  33912  285.38 0855.36
2009/04/23 07:11:37.2       0    242    -53    243    249   0.2 -12.4  33916  285.45 0855.36
2009/04/23 07:11:37.3      55    216    -72    223    235  14.3 -18.1  33916  285.44 0855.36
2009/04/23 07:11:37.4      63    136    -19    151    153  24.9  -7.3  33916  285.44 0855.36
2009/04/23 07:11:37.5     120    112     32    165    169  46.9  11.1  33920  285.51 0855.36
2009/04/23 07:11:37.6     111    158     -7    194    195  35.2  -2.2  33922  285.55 0855.35
2009/04/23 07:11:37.7      29    166     51    169    177  10.2  16.8  33918  285.48 0855.35
2009/04/23 07:11:37.8     -31    151    -24    155    157 348.4  -9.0  33912  285.39 0855.35
2009/04/23 07:11:37.9     -15    142      0    143    144 353.8  -0.3  33914  285.43 0855.35
2009/04/23 07:11:38.0      -3    126     10    127    128 358.2   4.9  33918  285.48 0855.35
2009/04/23 07:11:38.1     -53    145     -3    155    156 339.9  -1.3  33914  285.41 0855.35
2009/04/23 07:11:38.2     -50    185    -35    192    196 344.6 -10.5  33910  285.36 0855.35
2009/04/23 07:11:38.3    -102    133     10    168    169 322.6   3.6  33912  285.38 0855.35
2009/04/23 07:11:38.4    -123    141     58    188    197 318.8  17.3  33910  285.34 0855.35
2009/04/23 07:11:38.5    -128    142     46    192    198 318.1  13.7  33908  285.31 0855.35
2009/04/23 07:11:38.6    -126    179     83    220    235 324.8  21.5  33902  285.23 0855.36
2009/04/23 07:11:38.7    -192    123     81    229    242 302.6  20.0  33904  285.24 0855.36
2009/04/23 07:11:38.8    -151    161     52    221    228 316.8  13.2  33902  285.23 0855.36
2009/04/23 07:11:38.9     -64    214    133    224    260 343.3  33.5  33902  285.22 0855.36
2009/04/23 07:11:39.0     -11    222     96    223    242 357.1  24.6  33916  285.44 0855.36
2009/04/23 07:11:39.1       0    283     51    284    289   0.0  10.3  33916  285.44 0855.36
2009/04/23 07:11:39.2      48    220     99    226    246  12.3  25.1  33916  285.44 0855.36
2009/04/23 07:11:39.3      11    182     78    183    198   3.6  24.3  33908  285.31 0855.36
2009/04/23 07:11:39.4      26    173     87    175    195   8.7  28.5  33912  285.39 0855.36
2009/04/23 07:11:39.5      16    211     79    212    226   4.4  21.3  33912  285.39 0855.36
2009/04/23 07:11:39.6      16    197     61    198    208   4.9  17.3  33914  285.41 0855.36
2009/04/23 07:11:39.7      -1    167     73    168    183 359.6  24.6  33912  285.39 0855.36
2009/04/23 07:11:39.8      25    133     71    136    153  10.7  29.8  33916  285.44 0855.36
2009/04/23 07:11:39.9      22    112     95    115    149  11.5  43.7  33910  285.36 0855.36
2009/04/23 07:11:40.0       0     62     93     63    112 359.1  62.6  33914  285.43 0855.36
2009/04/23 07:11:40.1      11      6     66     13     67  61.1  89.1  33914  285.41 0855.36
2009/04/23 07:11:40.2      17    -13     58     22     62 127.8  78.2  33914  285.41 0855.36
2009/04/23 07:11:40.3      -1    -10     70     11     70 188.0  90.0  33914  285.43 0855.36
2009/04/23 07:11:40.4     -70    -51     61     87    106 233.6  38.6  33912  285.39 0855.36
2009/04/23 07:11:40.5     -27    -56     54     63     82 205.4  45.4  33916  285.44 0855.36
2009/04/23 07:11:40.6      39    -11     30     41     50 106.8  39.7  33918  285.48 0855.36
2009/04/23 07:11:40.7      43    -21      2     48     49 116.2   2.8  33918  285.48 0855.36
2009/04/23 07:11:40.8      69    -10     -7     70     71  98.8  -6.2  33918  285.50 0855.36
2009/04/23 07:11:40.9      23    -11      9     26     28 115.3  18.9  33922  285.56 0855.36
2009/04/23 07:11:41.0     -12    -62    -39     64     74 191.5 -39.9  33920  285.53 0855.36
2009/04/23 07:11:41.1    -110     27    -89    114    144 284.2 -46.1  33912  285.38 0855.36
2009/04/23 07:11:41.2    -110    -62     10    127    128 240.7   4.9  33918  285.50 0855.36
2009/04/23 07:11:41.3    -188     66     21    200    202 289.5   6.1  33918  285.50 0855.36
2009/04/23 07:11:41.4    -196     73    -19    210    211 290.6  -5.2  33920  285.51 0855.36
2009/04/23 07:11:41.5    -260     54    -98    266    283 281.9 -25.4  33918  285.49 0855.36
2009/04/23 07:11:41.6    -202     64   -144    213    257 287.7 -41.8  33918  285.47 0855.36
2009/04/23 07:11:41.7    -166     56   -137    176    223 288.6 -46.1  33922  285.56 0855.36
2009/04/23 07:11:41.8    -173     16   -179    174    249 275.5 -55.1  33916  285.44 0855.36
2009/04/23 07:11:41.9    -164    -10   -209    165    266 266.3 -61.9  33916  285.44 0855.36
2009/04/23 07:11:42.0    -117    -44   -189    126    227 249.2 -67.8  33910  285.34 0855.36
2009/04/23 07:11:42.1    -213    -92   -238    233    333 246.5 -55.2  33908  285.32 0855.36
2009/04/23 07:11:42.2    -218   -147   -261    264    371 236.0 -54.3  33914  285.41 0855.36
2009/04/23 07:11:42.3    -224   -377    -72    439    445 210.8  -9.4  33902  285.21 0855.36
2009/04/23 07:11:42.4    -201   -362     89    415    425 209.1  12.2  33910  285.34 0855.36
2009/04/23 07:11:42.5    -209   -280     29    350    352 216.8   4.9  33914  285.41 0855.36
2009/04/23 07:11:42.6     -91   -327     81    340    350 195.6  13.5  33914  285.43 0855.37
2009/04/23 07:11:42.7     -86   -274    130    288    315 197.4  25.9  33916  285.44 0855.37
2009/04/23 07:11:42.8     -98   -260    176    278    329 200.7  35.5  33912  285.39 0855.37
2009/04/23 07:11:42.9     -84   -278    119    291    314 197.0  23.6  33918  285.47 0855.37
2009/04/23 07:11:43.0    -105   -289     66    308    316 200.1  12.2  33916  285.45 0855.37
2009/04/23 07:11:43.1    -108   -237     41    261    265 204.5   9.0  33908  285.30 0855.37
2009/04/23 07:11:43.2    -122   -126    125    176    215 224.1  39.3  33914  285.43 0855.37
2009/04/23 07:11:43.3     -60   -152    148    164    220 201.6  46.9  33918  285.50 0855.37
2009/04/23 07:11:43.4     -80   -118    144    143    202 214.2  50.1  33916  285.46 0855.37
2009/04/23 07:11:43.5     -75    -75    100    107    146 225.1  48.0  33914  285.43 0855.37
2009/04/23 07:11:43.6     -56    -63    135     85    159 221.9  64.9  33910  285.36 0855.37
2009/04/23 07:11:43.7     135    -27    148    138    202 101.4  52.1  33918  285.48 0855.37
2009/04/23 07:11:43.8     199    -56    207    207    292 105.9  50.1  33914  285.42 0855.37
2009/04/23 07:11:43.9     123    -78    179    147    231 122.5  56.4  33914  285.43 0855.37
2009/04/23 07:11:44.0     212    -91    162    231    282 113.3  38.5  33916  285.45 0855.37
2009/04/23 07:11:44.1     161    -44    184    168    249 105.5  53.2  33920  285.51 0855.37
2009/04/23 07:11:44.2     174   -133    129    220    255 127.3  33.1  33920  285.51 0855.37
2009/04/23 07:11:44.3     202    -73    140    215    256 110.0  36.0  33920  285.51 0855.37
2009/04/23 07:11:44.4     216    -74    172    229    286 109.1  40.7  33918  285.47 0855.37
2009/04/23 07:11:44.5     213    -59    152    222    269 105.5  37.6  33916  285.45 0855.37
2009/04/23 07:11:44.6     132   -146    139    198    241 137.9  38.5  33918  285.48 0855.37
2009/04/23 07:11:44.7     175   -205    148    270    307 139.5  31.3  33914  285.40 0855.37
2009/04/23 07:11:44.8     -29   -219     86    221    237 187.6  22.3  33914  285.43 0855.37
2009/04/23 07:11:44.9     -61   -259     47    267    272 193.4  10.1  33920  285.51 0855.37
2009/04/23 07:11:45.0      -9   -195    124    196    231 182.7  35.5  33912  285.38 0855.37
2009/04/23 07:11:45.1      94   -215    126    235    266 156.3  30.6  33914  285.42 0855.37
2009/04/23 07:11:45.2      16   -137     81    138    160 173.3  33.1  33912  285.39 0855.37
2009/04/23 07:11:45.3       0   -131     92    132    160 180.4  38.4  33914  285.41 0855.37
2009/04/23 07:11:45.4      10   -126    107    127    166 175.1  44.3  33916  285.44 0855.37
2009/04/23 07:11:45.5     -16   -182     70    183    195 185.3  22.0  33920  285.51 0855.37
2009/04/23 07:11:45.6     -21   -169     80    171    188 187.1  27.1  33918  285.50 0855.37
2009/04/23 07:11:45.7     -11   -145     76    146    164 184.4  29.8  33920  285.51 0855.37
2009/04/23 07:11:45.8      -7   -123     57    124    136 183.6  26.6  33922  285.56 0855.37
2009/04/23 07:11:45.9       3   -133     31    134    138 178.6  13.1  33922  285.56 0855.37
2009/04/23 07:11:46.0      12   -126     33    127    132 174.2  14.7  33920  285.53 0855.37
2009/04/23 07:11:46.1      24   -140     27    143    146 170.3  11.0  33920  285.51 0855.37
2009/04/23 07:11:46.2      13   -166     48    167    174 175.5  16.3  33918  285.50 0855.37
2009/04/23 07:11:46.3      32   -167     36    171    175 169.1  12.2  33918  285.48 0855.37
2009/04/23 07:11:46.4      49   -168     60    176    187 163.7  18.9  33918  285.50 0855.37
2009/04/23 07:11:46.5      53   -167     29    176    179 162.4   9.3  33918  285.50 0855.37
2009/04/23 07:11:46.6      25   -194     48    196    202 172.4  13.9  33924  285.58 0855.35
2009/04/23 07:11:46.7      34   -147     29    152    155 166.7  11.1  33920  285.51 0855.35
2009/04/23 07:11:46.8      22   -133     49    135    143 170.2  20.9  33922  285.56 0855.35
2009/04/23 07:11:46.9      38   -145     35    150    155 165.3  13.1  33922  285.55 0855.35
2009/04/23 07:11:47.0      -7   -140     57    141    152 183.1  23.0  33918  285.50 0855.35
2009/04/23 07:11:47.1     -85   -149     74    172    187 209.9  24.9  33920  285.53 0855.35
2009/04/23 07:11:47.2     -94   -177     65    201    212 207.9  17.9  33922  285.55 0855.35
2009/04/23 07:11:47.3     -51   -134      0    144    145 200.9   0.2  33922  285.55 0855.35
2009/04/23 07:11:47.4     -17   -133     13    135    136 187.6   5.9  33920  285.51 0855.35
2009/04/23 07:11:47.5     -34   -122     -4    127    128 195.6  -2.2  33918  285.50 0855.35
2009/04/23 07:11:47.6     -38   -137      9    143    144 195.6   3.8  33920  285.53 0855.35
2009/04/23 07:11:47.7     -56   -158     -6    168    169 199.6  -2.2  33920  285.53 0855.35
2009/04/23 07:11:47.8     -73   -134     -3    153    154 208.9  -1.3  33920  285.53 0855.35
2009/04/23 07:11:47.9     -49    -91    -27    104    108 208.5 -15.0  33920  285.53 0855.35
2009/04/23 07:11:48.0     -28    -29     14     41     44 224.1  18.9  33920  285.51 0855.35
2009/04/23 07:11:48.1     -17    -67     53     70     87 194.3  41.2  33920  285.53 0855.35
2009/04/23 07:11:48.2     -19   -118     40    120    127 189.3  18.4  33918  285.50 0855.35
2009/04/23 07:11:48.3      47   -128     25    137    140 159.5  10.6  33920  285.53 0855.35
2009/04/23 07:11:48.4     102   -137     18    171    172 143.3   6.1  33920  285.51 0855.35
2009/04/23 07:11:48.5      87   -105     21    137    139 140.4   8.9  33918  285.50 0855.35
2009/04/23 07:11:48.6      77   -123      7    146    147 147.9   2.9  33920  285.51 0855.34
2009/04/23 07:11:48.7      80   -134     19    157    159 149.3   6.9  33920  285.51 0855.34
2009/04/23 07:11:48.8      66   -139     64    154    166 154.5  24.1  33918  285.48 0855.34
2009/04/23 07:11:48.9      69   -167    131    181    223 157.5  39.5  33930  285.70 0855.34
2009/04/23 07:11:49.0     117   -139    -19    182    184 139.9  -6.2  33922  285.55 0855.34
2009/04/23 07:11:49.1     114   -198     81    229    244 149.9  19.6  33932  285.72 0855.34
2009/04/23 07:11:49.2     107   -192     30    221    224 150.8   7.8  33934  285.75 0855.34
2009/04/23 07:11:49.3     104   -218     79    242    255 154.5  18.1  33932  285.72 0855.34
2009/04/23 07:11:49.4      70   -229    114    240    265 163.0  27.2  33928  285.66 0855.34
2009/04/23 07:11:49.5      45   -223     89    228    244 168.4  22.1  33928  285.64 0855.34
2009/04/23 07:11:49.6      62   -269     26    277    279 166.9   5.4  33924  285.59 0855.34
2009/04/23 07:11:49.7      54   -212     -4    219    220 165.5  -1.2  33924  285.60 0855.34
2009/04/23 07:11:49.8      24   -169     10    171    172 171.8   3.6  33928  285.65 0855.34
2009/04/23 07:11:49.9      21   -156     57    158    167 172.0  20.4  33930  285.70 0855.34
2009/04/23 07:11:50.0       8   -134     54    135    145 176.4  23.0  33930  285.68 0855.34
2009/04/23 07:11:50.1     -17   -149     75    151    168 186.7  28.2  33926  285.61 0855.34
2009/04/23 07:11:50.2     -43   -132     74    140    158 198.3  30.3  33926  285.63 0855.34
2009/04/23 07:11:50.3     -43   -130     64    138    152 198.5  27.1  33924  285.58 0855.34
2009/04/23 07:11:50.4      77    -82     84    113    140 136.8  40.1  33922  285.55 0855.34
2009/04/23 07:11:50.5      50   -151     74    160    176 161.7  26.6  33924  285.58 0855.34
2009/04/23 07:11:50.6      40   -171     89    176    197 166.6  28.7  33924  285.60 0855.33
2009/04/23 07:11:50.7       3   -209     57    210    218 179.1  15.3  33920  285.51 0855.33
2009/04/23 07:11:50.8      65   -155    100    169    196 157.1  33.4  33924  285.58 0855.33
2009/04/23 07:11:50.9     164   -152    128    224    257 132.9  32.3  33926  285.61 0855.33
2009/04/23 07:11:51.0     192   -218     79    291    302 138.6  15.3  33926  285.62 0855.33
2009/04/23 07:11:51.1      62   -261     73    269    279 166.6  15.3  33926  285.62 0855.33
2009/04/23 07:11:51.2      -2   -199     -7    200    201 180.7  -2.2  33920  285.51 0855.33
2009/04/23 07:11:51.3     -13   -181     53    182    190 184.2  16.3  33926  285.61 0855.33
2009/04/23 07:11:51.4      12   -235     83    236    251 176.9  19.4  33926  285.62 0855.33
2009/04/23 07:11:51.5      43   -164     82    170    188 165.1  27.3  33924  285.60 0855.33
2009/04/23 07:11:51.6     150   -155     97    216    236 135.9  25.7  33928  285.66 0855.33
2009/04/23 07:11:51.7      18   -240    152    241    284 175.5  35.5  33928  285.64 0855.33
2009/04/23 07:11:51.8      32   -284    177    286    336 173.5  34.8  33928  285.64 0855.33
2009/04/23 07:11:51.9      57   -261    158    268    311 167.5  33.5  33926  285.62 0855.33
2009/04/23 07:11:52.0      86   -217    142    234    273 158.2  34.2  33928  285.64 0855.33
2009/04/23 07:11:52.1     -19   -249     99    250    268 184.4  22.8  33930  285.67 0855.33
2009/04/23 07:11:52.2     -61   -228     51    237    243 195.1  12.2  33928  285.66 0855.33
2009/04/23 07:11:52.3     -66   -202     88    213    230 198.3  23.6  33928  285.66 0855.33
2009/04/23 07:11:52.4     -51   -180     28    188    191 195.8   8.5  33930  285.70 0855.33
2009/04/23 07:11:52.5     -63   -191    -17    202    203 198.3  -5.1  33930  285.68 0855.33
2009/04/23 07:11:52.6     -94   -144    -54    173    182 213.2 -17.3  33928  285.65 0855.33
2009/04/23 07:11:52.7     -78   -131     61    153    164 210.8  22.5  33930  285.68 0855.33
2009/04/23 07:11:52.8     -42   -113     42    121    129 200.5  19.4  33930  285.68 0855.33
2009/04/23 07:11:52.9     -39   -109     31    116    121 200.0  15.3  33930  285.68 0855.33
2009/04/23 07:11:53.0     -44    -57     50     73     88 217.8  37.6  33928  285.66 0855.33
2009/04/23 07:11:53.1       0    -40     31     41     51 179.1  41.7  33928  285.66 0855.33
2009/04/23 07:11:53.2      16     22     77     28     81  36.1  79.7  33928  285.66 0855.33
2009/04/23 07:11:53.3      69      3    101     70    122  87.4  62.1  33928  285.66 0855.33
2009/04/23 07:11:53.4      -7      0     95      8     95 270.0  90.0  33930  285.68 0855.33
2009/04/23 07:11:53.5      62     20    122     66    138  71.8  68.9  33930  285.68 0855.33
2009/04/23 07:11:53.6      27      0     92     28     96  90.0  81.8  33930  285.70 0855.33
2009/04/23 07:11:53.7     -13    -28    117     31    121 205.3  84.9  33932  285.73 0855.33
2009/04/23 07:11:53.8      -1    -77    134     78    155 181.0  66.8  33934  285.75 0855.33
2009/04/23 07:11:53.9      32      2    113     33    117  85.6  82.8  33936  285.78 0855.33
2009/04/23 07:11:54.0       8    -14    122     17    123 151.0  90.0  33926  285.63 0855.33
2009/04/23 07:11:54.1     -62   -203    192    213    286 197.2  46.9  33930  285.69 0855.33
2009/04/23 07:11:54.2      33   -118    166    123    206 164.4  59.8  33932  285.71 0855.33
2009/04/23 07:11:54.3      32   -156    127    160    204 168.4  42.4  33932  285.71 0855.33
2009/04/23 07:11:54.4      27   -123    120    127    174 167.5  48.7  33932  285.73 0855.33
2009/04/23 07:11:54.5     -15   -101     94    103    139 188.9  47.9  33930  285.70 0855.33
2009/04/23 07:11:54.6      -8   -172    110    173    205 182.9  35.5  33930  285.70 0855.32
2009/04/23 07:11:54.7     -35   -182    130    186    226 191.1  38.4  33930  285.68 0855.32
2009/04/23 07:11:54.8     -41   -182    143    187    235 192.9  41.4  33930  285.70 0855.32
2009/04/23 07:11:54.9     -81   -183     66    201    212 203.8  18.4  33932  285.71 0855.32
2009/04/23 07:11:55.0    -112   -214     47    242    247 207.6  11.0  33936  285.79 0855.32
2009/04/23 07:11:55.1     -60   -130     75    144    162 204.9  29.5  33934  285.75 0855.32
2009/04/23 07:11:55.2       8   -170     86    171    191 177.1  28.5  33930  285.70 0855.32
2009/04/23 07:11:55.3      16   -189     59    190    199 175.1  17.3  33932  285.71 0855.32
2009/04/23 07:11:55.4      18   -179     65    180    191 174.0  20.2  33930  285.70 0855.32
2009/04/23 07:11:55.5      26   -161     79    164    182 170.7  27.3  33930  285.70 0855.32
2009/04/23 07:11:55.6      54   -130     91    141    167 157.3  35.7  33932  285.71 0855.32
2009/04/23 07:11:55.7     -20   -122     59    124    137 189.7  27.2  33934  285.75 0855.32
2009/04/23 07:11:55.8     -68   -128     85    146    168 208.1  32.9  33930  285.70 0855.32
2009/04/23 07:11:55.9     -24    -72    108     77    132 198.7  61.1  33934  285.75 0855.32
2009/04/23 07:11:56.0     -51   -106     30    118    122 205.9  14.7  33934  285.75 0855.32
2009/04/23 07:11:56.1     -58    -78      5     98     99 216.5   3.3  33934  285.75 0855.32
2009/04/23 07:11:56.2     -48    -58     -1     76     77 219.6  -1.2  33936  285.80 0855.32
2009/04/23 07:11:56.4     -29    -49    -21     58     61 210.7 -24.4  33938  285.82 0855.32
2009/04/23 07:11:56.4     -51   -107      4    119    120 205.5   2.3  33936  285.80 0855.32
2009/04/23 07:11:56.6      -6    -98      7     99    100 184.0   4.4  33938  285.82 0855.32
2009/04/23 07:11:56.7     -22   -173    -22    175    177 187.3  -7.3  33940  285.85 0855.31
2009/04/23 07:11:56.7     -14   -120    -28    121    125 187.1 -13.4  33938  285.82 0855.31
2009/04/23 07:11:56.9      19   -133    -57    135    146 171.9 -28.5  33936  285.78 0855.31
2009/04/23 07:11:57.0      49   -100    -14    112    113 153.7  -7.3  33936  285.80 0855.31
2009/04/23 07:11:57.1      86    -94     -7    128    129 137.7  -3.2  33938  285.83 0855.31
2009/04/23 07:11:57.2     114   -101      4    153    154 131.4   1.8  33932  285.73 0855.31
2009/04/23 07:11:57.3      97    -67     -3    118    119 124.6  -1.8  33934  285.76 0855.31
2009/04/23 07:11:57.4     103    -47     29    114    118 114.4  14.3  33934  285.76 0855.31
2009/04/23 07:11:57.5      72    -36     83     81    115 117.1  50.1  33934  285.75 0855.31
2009/04/23 07:11:57.6      71    -62     89     95    130 130.9  48.0  33938  285.82 0855.31
2009/04/23 07:11:57.7      52    -85     82    100    129 148.4  43.7  33936  285.78 0855.31
2009/04/23 07:11:57.8      60    -81    105    102    146 143.5  50.7  33936  285.80 0855.31
2009/04/23 07:11:57.9      77    -41     70     88    112 118.4  43.7  33934  285.76 0855.31
2009/04/23 07:11:58.0      97    -80     53    126    136 129.6  24.1  33934  285.76 0855.31
2009/04/23 07:11:58.1      88   -121     29    151    154 143.9  11.1  33934  285.75 0855.31
2009/04/23 07:11:58.2      59   -145     28    157    160 157.7  10.3  33934  285.76 0855.31
2009/04/23 07:11:58.3      36   -159    -29    164    167 167.1 -10.1  33936  285.80 0855.31
2009/04/23 07:11:58.4     -27   -209     -8    211    212 187.6  -2.2  33942  285.90 0855.31
2009/04/23 07:11:58.5     -79   -120    -51    144    153 213.4 -19.6  33934  285.75 0855.31
2009/04/23 07:11:58.6    -132   -127    -49    184    191 226.2 -15.0  33934  285.76 0855.31
2009/04/23 07:11:58.7     -85    -91    -29    125    129 223.2 -13.3  33938  285.82 0855.32
2009/04/23 07:11:58.8     -77    -49    -38     92     99 237.1 -27.5  33936  285.80 0855.32
2009/04/23 07:11:58.9     -49      0    -48     50     69 270.0 -54.4  33934  285.76 0855.32
2009/04/23 07:11:59.0      26    -17    -67     32     74 124.2 -77.5  33934  285.76 0855.32
2009/04/23 07:11:59.1      16    -65    -90     68    112 165.7 -63.4  33942  285.90 0855.32
2009/04/23 07:11:59.2      21    -89    -75     92    118 166.6 -48.1  33944  285.93 0855.32
2009/04/23 07:11:59.3      95    -75    -59    122    135 128.2 -31.7  33942  285.90 0855.32
2009/04/23 07:11:59.4      81    -70    -30    108    113 130.9 -15.4  33938  285.82 0855.32
2009/04/23 07:11:59.5      69    -45      5     83     84 123.3   3.8  33938  285.83 0855.32
2009/04/23 07:11:59.6      71      6      8     72     73  84.8   6.9  33940  285.85 0855.32
2009/04/23 07:11:59.7     104     21     20    107    109  78.5  10.6  33940  285.85 0855.32
2009/04/23 07:11:59.8     111     67     13    130    131  58.9   5.9  33940  285.87 0855.32
2009/04/23 07:11:59.9     117     66     85    135    159  60.7  35.2  33932  285.73 0855.32
2009/04/23 07:12:00.0     106     65     77    125    146  58.5  35.5  33934  285.75 0855.32
2009/04/23 07:12:00.1      67     62     79     92    121  46.9  45.4  33934  285.76 0855.32
2009/04/23 07:12:00.2      -4     23     82     24     85 350.2  83.3  33936  285.80 0855.32
2009/04/23 07:12:00.3     -20     12     65     24     69 302.4  80.2  33942  285.88 0855.32
2009/04/23 07:12:00.4      37   -109     96    116    150 161.3  43.8  33946  285.95 0855.32
2009/04/23 07:12:00.5      40   -131     98    138    169 163.1  38.8  33948  285.98 0855.32
2009/04/23 07:12:00.6      73   -156     53    173    181 154.8  17.1  33948  285.98 0855.32
2009/04/23 07:12:00.7     126   -178      0    219    220 144.8   0.2  33946  285.95 0855.32
2009/04/23 07:12:00.8     146   -176     69    230    241 140.3  16.8  33950  286.01 0855.32
2009/04/23 07:12:00.9      83   -168     73    188    201 153.7  22.3  33950  286.02 0855.32
2009/04/23 07:12:01.0      43   -186     68    191    203 166.9  19.6  33950  286.02 0855.32
2009/04/23 07:12:01.1     138   -109     34    177    181 128.4  11.0  33948  285.98 0855.32
2009/04/23 07:12:01.2     155   -123     20    199    201 128.4   5.9  33952  286.05 0855.32
2009/04/23 07:12:01.3     126    -80     48    150    158 122.5  17.9  33950  286.02 0855.32
2009/04/23 07:12:01.4      97   -101     25    141    144 136.3  10.1  33950  286.03 0855.32
2009/04/23 07:12:01.5      84    -75    -14    113    114 131.8  -7.3  33952  286.05 0855.32
2009/04/23 07:12:01.6      93    -36    -14    100    102 111.3  -8.2  33948  286.00 0855.32
2009/04/23 07:12:01.7      83      5    -65     84    106  86.5 -46.1  33944  285.92 0855.31
2009/04/23 07:12:01.8      55     22    -67     60     89  68.3 -58.1  33944  285.92 0855.31
2009/04/23 07:12:01.9      20     20    -15     29     32  45.1 -33.7  33944  285.93 0855.31
2009/04/23 07:12:02.0      17    -52    -24     55     60 161.7 -29.5  33948  285.98 0855.31
2009/04/23 07:12:02.1      50    -68    -39     85     93 143.5 -31.0  33946  285.97 0855.31
2009/04/23 07:12:02.2      76    -62    -14     99    101 129.5  -8.2  33948  285.98 0855.31
2009/04/23 07:12:02.3     -23    -67     21     71     75 199.2  16.3  33948  285.98 0855.31
2009/04/23 07:12:02.4     -51   -107     65    119    135 205.4  31.4  33948  285.98 0855.31
2009/04/23 07:12:02.5     -50   -152     86    161    182 198.3  30.6  33950  286.02 0855.31
2009/04/23 07:12:02.6     -17   -191     29    192    195 185.1   8.8  33948  286.00 0855.31
2009/04/23 07:12:02.7     -11   -151    -43    152    159 184.5 -15.8  33948  286.00 0855.31
2009/04/23 07:12:02.8     -12   -141    -66    142    156 184.9 -31.0  33948  285.98 0855.31
2009/04/23 07:12:02.9     -42   -138    -46    145    153 197.0 -17.5  33948  285.98 0855.31
2009/04/23 07:12:03.0     -36    -82    -78     90    119 204.1 -50.2  33944  285.93 0855.31
2009/04/23 07:12:03.1     -66   -120    -27    138    141 209.0 -11.3  33944  285.93 0855.31
2009/04/23 07:12:03.2     -33   -135    -44    140    147 193.8 -17.6  33944  285.93 0855.31
2009/04/23 07:12:03.3      25    -79      2     84     85 162.2   1.8  33944  285.93 0855.31
2009/04/23 07:12:03.4      73    -31     24     80     84 113.5  16.8  33946  285.95 0855.31
2009/04/23 07:12:03.5      76    -31    -18     83     86 112.6 -12.4  33946  285.97 0855.31
2009/04/23 07:12:03.6      55    -55    -39     79     88 135.0 -32.6  33944  285.92 0855.31
2009/04/23 07:12:03.7      14     -1     -2     15     16  94.3  -7.3  33944  285.93 0855.32
2009/04/23 07:12:03.8      53      0     11     54     56  90.0  12.2  33948  286.00 0855.32
2009/04/23 07:12:03.9     119      3     28    120    124  88.3  13.2  33946  285.95 0855.32
2009/04/23 07:12:04.0     115     23     50    118    128  78.6  24.6  33946  285.95 0855.32
2009/04/23 07:12:04.1     115     26     24    118    121  77.2  11.6  33946  285.95 0855.32
2009/04/23 07:12:04.2     112      8     62    113    128  85.6  31.3  33948  285.98 0855.32
2009/04/23 07:12:04.3      54    -27     86     61    105 117.1  61.1  33950  286.02 0855.32
2009/04/23 07:12:04.4      72    -42     66     84    106 120.7  42.7  33950  286.03 0855.32
2009/04/23 07:12:04.5      58    -42     67     72     98 126.0  47.9  33952  286.05 0855.32
2009/04/23 07:12:04.6      -3    -18     39     19     43 191.6  72.9  33952  286.05 0855.32
2009/04/23 07:12:04.7      14    -72     41     74     84 168.4  31.9  33950  286.02 0855.32
2009/04/23 07:12:04.8      43    -41     56     60     82 134.1  48.5  33948  286.00 0855.32
2009/04/23 07:12:04.9      66    -49     49     83     96 126.9  34.0  33948  286.00 0855.32
2009/04/23 07:12:05.0      98    -62    -13    117    118 122.4  -6.7  33948  285.98 0855.32
2009/04/23 07:12:05.1      86    -39     -3     95     96 114.4  -2.2  33944  285.92 0855.32
2009/04/23 07:12:05.2     109    -23      5    112    113 101.9   2.8  33948  286.00 0855.32
2009/04/23 07:12:05.3     124     10     10    125    126  85.2   5.0  33948  285.98 0855.32
2009/04/23 07:12:05.4     138     23      0    140    141  80.4   0.2  33950  286.02 0855.32
2009/04/23 07:12:05.5     138    -29     33    142    146 101.9  13.2  33948  285.98 0855.32
2009/04/23 07:12:05.6     131     -8     27    132    135  93.5  11.6  33946  285.95 0855.32
2009/04/23 07:12:05.7      70    -18     34     73     80 105.1  26.6  33946  285.97 0855.31
2009/04/23 07:12:05.8     106    -67     62    126    140 122.5  27.8  33946  285.97 0855.31
2009/04/23 07:12:05.9      96    -48     95    108    143 116.6  45.9  33946  285.95 0855.31
2009/04/23 07:12:06.0      83    -68    110    108    154 129.6  50.1  33946  285.97 0855.31
2009/04/23 07:12:06.1      22    -50     82     55     98 156.4  63.2  33946  285.97 0855.31
2009/04/23 07:12:06.2      23    -72     79     76    109 161.7  51.2  33946  285.95 0855.31
2009/04/23 07:12:06.3      21   -153     50    155    163 172.0  17.9  33950  286.02 0855.31
2009/04/23 07:12:06.4      28   -155     68    158    172 169.8  24.9  33952  286.05 0855.31
2009/04/23 07:12:06.5      52   -154     89    163    185 161.3  31.0  33950  286.02 0855.31
2009/04/23 07:12:06.6      72   -156     70    173    186 155.1  23.1  33950  286.02 0855.31
2009/04/23 07:12:06.7      73   -169     21    185    187 156.6   6.7  33948  285.98 0855.31
2009/04/23 07:12:06.8     102   -151     64    183    195 145.9  19.4  33946  285.95 0855.31
2009/04/23 07:12:06.9      89   -131     66    159    172 145.8  23.8  33948  285.98 0855.31
2009/04/23 07:12:07.0      56   -118     37    131    137 154.6  15.8  33944  285.92 0855.31
2009/04/23 07:12:07.1      10   -135     45    136    144 175.5  18.4  33940  285.87 0855.31
2009/04/23 07:12:07.2     -13   -172     79    173    190 184.5  26.6  33942  285.90 0855.31
2009/04/23 07:12:07.3      15   -156    128    157    202 174.2  43.7  33944  285.93 0855.31
2009/04/23 07:12:07.4      29   -163     42    166    172 169.8  14.3  33944  285.93 0855.31
2009/04/23 07:12:07.5     -23   -113     -8    116    117 191.6  -4.1  33946  285.95 0855.31
2009/04/23 07:12:07.6     -16   -133     72    135    153 187.1  30.8  33944  285.92 0855.31
2009/04/23 07:12:07.7     -35   -162     80    166    184 192.3  27.4  33946  285.97 0855.31
2009/04/23 07:12:07.8     -39    -87     46     96    106 204.5  27.3  33944  285.93 0855.31
2009/04/23 07:12:07.9      10    -95    101     96    139 173.8  51.6  33948  285.98 0855.31
2009/04/23 07:12:08.0       4   -104    159    105    190 177.8  63.6  33944  285.93 0855.31
2009/04/23 07:12:08.1    -132   -129    116    185    218 225.8  35.5  33944  285.92 0855.31
2009/04/23 07:12:08.2    -146    -83      0    169    170 240.2   0.2  33946  285.95 0855.31
2009/04/23 07:12:08.3    -115    -67    -60    134    146 239.8 -30.6  33946  285.95 0855.31
2009/04/23 07:12:08.4     -73    -19     -8     76     77 254.9  -6.2  33944  285.93 0855.31
2009/04/23 07:12:08.5     -31    -41     26     52     58 217.8  28.2  33942  285.90 0855.31
2009/04/23 07:12:08.6     -36   -107     -8    114    115 198.7  -4.1  33946  285.95 0855.31
2009/04/23 07:12:08.7     -25    -98    -23    102    105 194.7 -12.9  33948  285.98 0855.31
2009/04/23 07:12:08.8     -19    -74     -3     77     78 195.1  -2.2  33946  285.97 0855.31
2009/04/23 07:12:08.9      47    -64     -3     80     81 143.9  -2.2  33948  285.98 0855.31
2009/04/23 07:12:09.0      43    -27      6     52     53 122.4   6.9  33946  285.95 0855.31
2009/04/23 07:12:09.1      21      7     56     23     60  71.8  77.0  33944  285.93 0855.31
2009/04/23 07:12:09.2      73     28     72     79    106  69.2  47.9  33942  285.88 0855.31
2009/04/23 07:12:09.3      54     63     73     84    111  40.5  45.4  33942  285.90 0855.31
2009/04/23 07:12:09.4      30     55     64     63     89  29.0  49.7  33946  285.95 0855.31
2009/04/23 07:12:09.5      67     47     46     83     94  54.9  31.9  33946  285.95 0855.31
2009/04/23 07:12:09.6      41     44     39     61     72  43.2  35.6  33946  285.95 0855.31
2009/04/23 07:12:09.7      14      9     54     17     56  57.6  80.7  33944  285.92 0855.31
2009/04/23 07:12:09.8      19     19     53     27     59  45.1  70.8  33944  285.92 0855.31
2009/04/23 07:12:09.9       5     15     45     16     47  18.3  81.2  33942  285.90 0855.31
2009/04/23 07:12:10.0      -3      7     35      8     35 334.6  89.0  33942  285.88 0855.31
2009/04/23 07:12:10.1       4      0     45      5     45 101.5  90.0  33944  285.92 0855.31
2009/04/23 07:12:10.2       7      0     68      8     68  90.0  90.0  33946  285.95 0855.31
2009/04/23 07:12:10.3       2      0     64      3     64  90.0  90.0  33946  285.95 0855.31
2009/04/23 07:12:10.4      70      5     92     71    116  85.6  58.5  33940  285.87 0855.31
2009/04/23 07:12:10.5      73     44     73     86    112  58.9  44.3  33942  285.90 0855.31
2009/04/23 07:12:10.6      70     33     83     78    113  64.7  51.6  33942  285.88 0855.31
2009/04/23 07:12:10.7      45     28     85     54    100  57.6  64.7  33932  285.71 0855.31
2009/04/23 07:12:10.8      30     31     83     44     93  44.1  69.8  33934  285.75 0855.31
2009/04/23 07:12:10.9      45     45     75     64     98  45.0  55.4  33938  285.82 0855.31
2009/04/23 07:12:11.0      35     32     68     48     83  47.8  61.1  33936  285.80 0855.31
2009/04/23 07:12:11.1       8     26     57     28     63  18.3  72.8  33938  285.82 0855.31
2009/04/23 07:12:11.2      28     31     39     42     57  42.3  49.0  33940  285.87 0855.31
2009/04/23 07:12:11.3      36     45     13     58     60  38.7  13.2  33944  285.93 0855.31
2009/04/23 07:12:11.4      34     62     14     72     74  29.0  11.0  33944  285.93 0855.31
2009/04/23 07:12:11.5      35     71     -6     80     81  26.3  -4.6  33944  285.92 0855.31
2009/04/23 07:12:11.6      27     92    -18     96     98  16.5 -10.9  33940  285.87 0855.31
2009/04/23 07:12:11.7      49     90    -16    103    105  28.5  -8.8  33938  285.83 0855.31
2009/04/23 07:12:11.8      77     79     57    111    124  44.1  29.3  33940  285.85 0855.31
2009/04/23 07:12:11.9     109    123     58    165    175  41.4  19.4  33918  285.50 0855.31
2009/04/23 07:12:12.0     124    102     36    161    165  50.5  12.6  33932  285.73 0855.31
2009/04/23 07:12:12.1      86    108     49    139    147  38.7  20.0  33928  285.65 0855.31
2009/04/23 07:12:12.2      51     80     54     95    109  32.6  31.9  33924  285.60 0855.31
2009/04/23 07:12:12.3      89     44     41    100    108  63.4  23.0  33932  285.73 0855.31
2009/04/23 07:12:12.4      85     68     42    110    117  51.4  22.0  33930  285.70 0855.31
2009/04/23 07:12:12.5      85     60     52    105    117  54.9  27.8  33928  285.65 0855.31
2009/04/23 07:12:12.6      33     40    110     53    122  39.6  72.8  33928  285.66 0855.31
2009/04/23 07:12:12.7      57     26    130     63    144  65.6  72.8  33930  285.68 0855.31
2009/04/23 07:12:12.8     122     49    143    132    194  67.8  52.2  33938  285.82 0855.31
2009/04/23 07:12:12.9     119     39    153    126    198  71.6  56.4  33934  285.76 0855.31
2009/04/23 07:12:13.0     127     54    149    139    203  66.9  52.1  33936  285.80 0855.31
2009/04/23 07:12:13.1     109     35    112    115    160  71.8  49.4  33938  285.83 0855.31
2009/04/23 07:12:13.2      89     40     83     98    128  65.6  44.3  33938  285.82 0855.31
2009/04/23 07:12:13.3      61     39     88     73    114  57.6  56.4  33934  285.75 0855.31
2009/04/23 07:12:13.4      23     30     76     38     84  37.8  71.4  33934  285.76 0855.31
2009/04/23 07:12:13.5      33     46     58     57     81  36.1  50.1  33934  285.76 0855.31
2009/04/23 07:12:13.6       0     41     60     42     73 359.1  60.6  33930  285.68 0855.31
2009/04/23 07:12:13.7       7     21     50     23     55  20.0  73.1  33930  285.70 0855.31
2009/04/23 07:12:13.8       6     40     57     41     70   9.8  60.5  33930  285.70 0855.31
2009/04/23 07:12:13.9      14     55     40     57     69  14.3  38.6  33932  285.71 0855.31
2009/04/23 07:12:14.0       8     62     41     63     75   8.0  35.6  33934  285.76 0855.31
2009/04/23 07:12:14.2     -36    115     29    121    125 342.6  13.7  33934  285.76 0855.31
2009/04/23 07:12:14.3     -21    128     46    130    137 350.3  20.4  33934  285.75 0855.31
2009/04/23 07:12:14.4      24    139     74    142    160   9.8  29.8  33930  285.70 0855.31
2009/04/23 07:12:14.5      13     99     66    100    119   7.6  37.0  33934  285.76 0855.31
2009/04/23 07:12:14.6       0    114     55    115    127   0.5  27.2  33934  285.75 0855.31
2009/04/23 07:12:14.7      36     48     35     61     70  37.0  32.4  33930  285.70 0855.31
2009/04/23 07:12:14.8       8     65     35     66     74   7.1  30.3  33932  285.71 0855.31
2009/04/23 07:12:14.9      23     70      3     74     75  18.7   2.9  33932  285.71 0855.31
2009/04/23 07:12:15.0      -7     38     24     39     45 348.4  35.5  33930  285.68 0855.31
2009/04/23 07:12:15.1      15     30      2     34     35  27.2   4.9  33930  285.68 0855.31
2009/04/23 07:12:15.2     -30     25    -10     40     42 310.4 -14.5  33932  285.71 0855.31
2009/04/23 07:12:15.3     -44      3     30     45     54 274.4  36.5  33930  285.70 0855.31
2009/04/23 07:12:15.4     -38      2     42     39     57 274.4  51.2  33934  285.75 0855.31
2009/04/23 07:12:15.5     -63     10     47     64     79 279.7  40.1  33932  285.73 0855.31
2009/04/23 07:12:15.6     -55     25     45     61     75 295.2  39.7  33930  285.70 0855.31
2009/04/23 07:12:15.7     -41     14     46     44     63 289.1  50.1  33930  285.68 0855.32
2009/04/23 07:12:15.8     -25      5     73     26     77 283.3  81.2  33928  285.66 0855.32
2009/04/23 07:12:15.9     -37      7     65     38     75 281.4  66.8  33928  285.66 0855.32
2009/04/23 07:12:16.0     -72     24     70     77    104 288.6  47.9  33930  285.68 0855.32
2009/04/23 07:12:16.1     -65     79     57    103    117 320.4  31.4  33932  285.71 0855.32
2009/04/23 07:12:16.2     -55     35     23     66     70 302.4  19.4  33932  285.73 0855.32
2009/04/23 07:12:16.3     -17     -2     65     18     67 262.1  84.8  33934  285.76 0855.32
2009/04/23 07:12:16.4     -27    -22     71     35     79 230.5  71.9  33938  285.82 0855.32
2009/04/23 07:12:16.5      -1    -21     41     22     46 184.5  69.8  33936  285.78 0855.32
2009/04/23 07:12:16.6      19      8     53     21     57  66.5  78.2  33938  285.82 0855.32
2009/04/23 07:12:16.7      21     15     42     26     49  54.0  64.7  33936  285.80 0855.32
2009/04/23 07:12:16.8      31     39     44     50     66  38.7  46.9  33932  285.71 0855.32
2009/04/23 07:12:16.9      22     65     40     69     79  19.2  32.9  33930  285.70 0855.32
2009/04/23 07:12:17.0       0     54     38     55     66 359.1  37.6  33930  285.70 0855.32
2009/04/23 07:12:17.1      37     32     74     50     89  48.7  63.2  33930  285.70 0855.32
2009/04/23 07:12:17.2      40     54     53     68     86  36.1  41.7  33932  285.71 0855.32
2009/04/23 07:12:17.3      86     62     57    107    121  54.1  30.3  33934  285.76 0855.32
2009/04/23 07:12:17.4      99     54     57    113    126  61.2  29.2  33934  285.75 0855.32
2009/04/23 07:12:17.5      96     32     78    102    128  71.4  41.6  33934  285.76 0855.32
2009/04/23 07:12:17.6      78     42     84     89    122  61.6  48.5  33934  285.75 0855.32
2009/04/23 07:12:17.7      63     46     89     79    119  54.0  53.7  33932  285.71 0855.32
2009/04/23 07:12:17.8       8     52     38     53     65   8.9  39.5  33928  285.66 0855.32
2009/04/23 07:12:17.9       7     47     22     48     52   8.9  27.1  33932  285.71 0855.32
2009/04/23 07:12:18.0     -51     47     13     70     72 312.2  11.1  33932  285.73 0855.32
2009/04/23 07:12:18.1     -32     16     55     37     66 297.1  63.6  33928  285.66 0855.32
2009/04/23 07:12:18.2     -43    -31    100     54    113 234.0  68.9  33928  285.66 0855.32
2009/04/23 07:12:18.3     -15    -88    112     90    143 189.8  56.9  33928  285.66 0855.32
2009/04/23 07:12:18.4     -67    -74     82    101    130 222.3  43.7  33926  285.63 0855.32
2009/04/23 07:12:18.5    -154     -7     44    155    162 267.4  15.8  33924  285.58 0855.32
2009/04/23 07:12:18.6    -144    -12     49    145    154 265.2  18.9  33928  285.65 0855.32
2009/04/23 07:12:18.7    -116     -1     30    117    121 269.2  14.7  33932  285.71 0855.32
2009/04/23 07:12:18.8     -77     13     39     79     88 279.7  28.2  33930  285.68 0855.32
2009/04/23 07:12:18.9    -100      0    -31    101    105 270.0 -22.3  33922  285.56 0855.32
2009/04/23 07:12:19.0     -41     28     65     50     82 304.2  58.5  33922  285.56 0855.32
2009/04/23 07:12:19.1     -22      1     72     23     75 274.4  80.7  33926  285.63 0855.32
2009/04/23 07:12:19.2     -19    -54     59     58     82 199.2  50.1  33924  285.58 0855.32
2009/04/23 07:12:19.3     -31     -6     81     32     87 258.5  78.2  33918  285.48 0855.32
2009/04/23 07:12:19.4    -127     70      3    146    147 298.9   1.2  33924  285.58 0855.32
2009/04/23 07:12:19.5    -126    102     -4    163    164 308.9  -1.6  33920  285.53 0855.32
2009/04/23 07:12:19.6    -117    114      6    164    165 314.2   2.3  33920  285.53 0855.32
2009/04/23 07:12:19.7     -79    142     -1    163    164 330.8  -0.5  33924  285.60 0855.32
2009/04/23 07:12:19.8     -64    169     36    182    186 339.1  11.4  33922  285.56 0855.32
2009/04/23 07:12:19.9      -9    139     94    140    168 356.0  37.0  33924  285.60 0855.32
2009/04/23 07:12:20.0      35    135     56    140    150  14.7  23.0  33926  285.61 0855.32
2009/04/23 07:12:20.1      17    125     27    127    130   8.0  12.2  33924  285.60 0855.32
2009/04/23 07:12:20.2      -6    144     25    145    148 357.4  10.1  33928  285.65 0855.32
2009/04/23 07:12:20.3      26    151     10    154    155   9.8   3.8  33926  285.63 0855.32
2009/04/23 07:12:20.4      35    172     -6    176    177  11.5  -2.2  33928  285.66 0855.32
2009/04/23 07:12:20.5       0    150    -27    151    154 359.6 -10.3  33926  285.61 0855.32
2009/04/23 07:12:20.6      32    115    -33    120    125  15.6 -15.4  33928  285.66 0855.32
2009/04/23 07:12:20.7     -52    110    -11    122    123 334.6  -5.2  33926  285.63 0855.32
2009/04/23 07:12:20.9     -80     74     47    110    119 312.7  24.1  33920  285.51 0855.32
2009/04/23 07:12:20.9     -82     50     29     97    102 301.5  16.8  33920  285.53 0855.32
2009/04/23 07:12:21.0     -86     58     20    104    107 304.2  11.1  33916  285.46 0855.32
2009/04/23 07:12:21.1     -53     67     35     86     92 321.3  23.0  33918  285.50 0855.32
2009/04/23 07:12:21.2     -63     63     38     90     97 314.9  24.1  33918  285.48 0855.32
2009/04/23 07:12:21.3     -75     66     28    101    106 311.3  15.8  33918  285.48 0855.32
2009/04/23 07:12:21.4     -89     75     18    117    119 310.0   8.9  33922  285.55 0855.32
2009/04/23 07:12:21.5     -23     86     37     90     97 344.9  23.0  33920  285.51 0855.32
2009/04/23 07:12:21.6      25     67     70     72    100  20.9  49.4  33918  285.50 0855.32
2009/04/23 07:12:21.7       2     17     69     18     71   8.0  84.9  33918  285.50 0855.32
2009/04/23 07:12:21.8      -3      0     29      4     29 270.0  90.0  33920  285.53 0855.32
2009/04/23 07:12:21.9     108     64     25    126    129  59.3  11.6  33916  285.44 0855.32
2009/04/23 07:12:22.0     161     35     70    165    179  77.6  24.1  33924  285.60 0855.32
2009/04/23 07:12:22.2     111    151     36    188    192  36.5  11.0  33922  285.55 0855.32
2009/04/23 07:12:22.2      29     96     54    101    114  16.9  30.8  33920  285.51 0855.32
2009/04/23 07:12:22.3      58     40     60     71     92  54.9  44.3  33922  285.56 0855.32
2009/04/23 07:12:22.4      78     98    -18    126    128  38.3  -8.2  33926  285.61 0855.32
2009/04/23 07:12:22.5     132     84     -6    157    158  57.5  -2.2  33924  285.60 0855.32
2009/04/23 07:12:22.7     216     45    -84    221    236  78.1 -26.4  33926  285.63 0855.32
2009/04/23 07:12:22.7     126     76     12    148    149  58.9   5.0  33920  285.53 0855.33
2009/04/23 07:12:22.9      90     47     -2    102    103  62.5  -1.3  33918  285.50 0855.33
2009/04/23 07:12:23.0      92     33     70     99    121  70.0  39.1  33918  285.50 0855.33
2009/04/23 07:12:23.0      69     52     61     87    106  52.7  38.6  33918  285.48 0855.33
2009/04/23 07:12:23.2      92    160     64    185    196  29.9  19.2  33918  285.48 0855.33
2009/04/23 07:12:23.3     118    154     26    195    197  37.4   7.8  33922  285.56 0855.33
2009/04/23 07:12:23.4     118    154     26    195    197  37.4   7.8  33922  285.56 0855.33
2009/04/23 07:12:23.5     109    124     57    166    176  41.5  19.2  33926  285.61 0855.33
2009/04/23 07:12:23.6      76     61      5     98     99  51.4   3.3  33924  285.60 0855.33
2009/04/23 07:12:23.7      69     24    -14     74     76  70.9 -11.3  33926  285.63 0855.33
2009/04/23 07:12:23.8      76     38    -24     86     89  63.4 -20.7  33926  285.63 0855.33
2009/04/23 07:12:23.9      92     81    -75    123    144  48.7 -39.4  33926  285.61 0855.33
2009/04/23 07:12:24.0      72    113     21    135    137  32.5   9.0  33926  285.61 0855.33
2009/04/23 07:12:24.1     107    122     10    163    164  41.5   3.6  33926  285.63 0855.33
2009/04/23 07:12:24.2     120    116     10    168    169  46.0   3.6  33924  285.58 0855.33
2009/04/23 07:12:24.3     134    125      5    184    185  46.9   1.8  33922  285.55 0855.33
2009/04/23 07:12:24.4     124    155    -28    199    202  38.7  -8.2  33922  285.56 0855.33
2009/04/23 07:12:24.5      75    134    -55    154    164  29.2 -19.7  33924  285.60 0855.33
2009/04/23 07:12:24.6      74    117     -1    139    140  32.5  -0.7  33926  285.61 0855.33
2009/04/23 07:12:24.7      82    129    -44    154    161  32.6 -16.0  33922  285.55 0855.33
2009/04/23 07:12:24.8     108    137    -35    175    179  38.3 -11.5  33920  285.53 0855.33
2009/04/23 07:12:24.9     104    116    -24    157    159  41.9  -9.0  33922  285.56 0855.33
2009/04/23 07:12:25.0     111     89    -31    143    147  51.4 -12.4  33922  285.56 0855.33
2009/04/23 07:12:25.1     140     41     27    146    149  73.6  10.6  33922  285.56 0855.33
2009/04/23 07:12:25.2     149     33     40    153    159  77.2  14.7  33924  285.58 0855.33
2009/04/23 07:12:25.3     153     41     75    159    175  74.9  27.1  33916  285.46 0855.33
2009/04/23 07:12:25.4     106     42     83    115    141  68.2  39.7  33920  285.53 0855.33
2009/04/23 07:12:25.5      35      0    101     36    107  90.0  80.7  33922  285.56 0855.33
2009/04/23 07:12:25.6     -42    -58     78     72    106 216.1  52.2  33922  285.56 0855.33
2009/04/23 07:12:25.7      -7    -89     93     90    129 184.9  50.7  33920  285.53 0855.33
2009/04/23 07:12:25.8      38    -93     50    101    112 157.7  27.3  33920  285.51 0855.33
2009/04/23 07:12:25.9      -8   -118     63    119    134 184.0  30.3  33920  285.51 0855.33
2009/04/23 07:12:26.0     -43   -107     84    116    143 201.9  39.5  33916  285.44 0855.33
2009/04/23 07:12:26.1     -14   -131     46    132    141 186.2  19.4  33916  285.46 0855.33
2009/04/23 07:12:26.2     -44   -147     26    154    157 196.9   9.9  33920  285.51 0855.33
2009/04/23 07:12:26.3     -46   -136     39    144    150 198.7  15.2  33920  285.51 0855.33
2009/04/23 07:12:26.4     -24   -108     16    111    113 192.9   8.5  33916  285.46 0855.33
2009/04/23 07:12:26.5      27   -176     55    179    188 171.1  17.3  33922  285.55 0855.33
2009/04/23 07:12:26.6     -37   -133     47    139    148 195.6  18.9  33912  285.39 0855.33
2009/04/23 07:12:26.7     -67   -106     32    126    131 212.1  14.3  33910  285.36 0855.33
2009/04/23 07:12:26.8     -96    -79      6    125    126 230.4   2.9  33914  285.41 0855.33
2009/04/23 07:12:26.9     -68    -45     48     82     95 236.7  34.0  33914  285.41 0855.33
2009/04/23 07:12:27.0     -63    -91     80    111    136 214.7  39.5  33918  285.48 0855.33
2009/04/23 07:12:27.1     -88    -96     72    131    149 222.3  31.3  33918  285.50 0855.33
2009/04/23 07:12:27.2    -114   -102     81    154    174 228.2  30.1  33916  285.46 0855.33
2009/04/23 07:12:27.3    -114   -134     74    177    191 220.3  23.8  33912  285.38 0855.33
2009/04/23 07:12:27.4     -91   -158     89    183    203 209.9  28.0  33906  285.29 0855.33
2009/04/23 07:12:27.5    -108   -158     83    192    209 214.3  25.1  33906  285.29 0855.33
2009/04/23 07:12:27.6    -144   -202     99    249    267 215.6  23.0  33908  285.30 0855.33
2009/04/23 07:12:27.7    -186   -115     73    219    232 238.2  18.6  33912  285.38 0855.33
2009/04/23 07:12:27.8    -143   -109     59    180    190 232.7  18.1  33910  285.34 0855.33
2009/04/23 07:12:27.9    -116   -116     36    165    169 225.1  12.4  33912  285.38 0855.33
2009/04/23 07:12:28.0    -123   -118     -6    171    172 226.2  -2.2  33912  285.38 0855.33
2009/04/23 07:12:28.1    -144   -168     36    222    226 220.5   9.3  33910  285.34 0855.33
2009/04/23 07:12:28.2    -100   -163     23    192    194 211.4   6.9  33910  285.36 0855.33
2009/04/23 07:12:28.3    -126   -147     46    194    200 220.5  13.5  33906  285.29 0855.33
2009/04/23 07:12:28.4    -164   -135     42    213    218 230.5  11.1  33904  285.24 0855.33
2009/04/23 07:12:28.5    -157   -116     12    196    197 233.6   3.6  33910  285.36 0855.33
2009/04/23 07:12:28.6    -157   -130      2    205    206 230.4   0.8  33912  285.39 0855.33
2009/04/23 07:12:28.7    -150    -98     19    180    182 236.7   6.1  33914  285.41 0855.33
2009/04/23 07:12:28.8    -172   -102      4    201    202 239.3   1.2  33912  285.38 0855.34
2009/04/23 07:12:28.9    -149   -140     -6    205    206 226.9  -1.8  33910  285.36 0855.34
2009/04/23 07:12:29.0    -156   -118     -5    196    197 232.9  -1.6  33916  285.46 0855.34
2009/04/23 07:12:29.1    -123   -106    -21    163    165 229.3  -7.5  33914  285.43 0855.34
2009/04/23 07:12:29.2    -103    -73    -40    127    134 234.5 -17.6  33916  285.44 0855.34
2009/04/23 07:12:29.3     -93    -70      2    117    118 233.1   1.2  33914  285.41 0855.34
2009/04/23 07:12:29.4    -104    -48     -2    115    116 245.2  -1.3  33918  285.48 0855.34
2009/04/23 07:12:29.5     -70    -71     20    100    103 224.5  11.6  33916  285.44 0855.34
2009/04/23 07:12:29.6     -60   -126     83    140    162 205.4  33.7  33910  285.36 0855.34
2009/04/23 07:12:29.7     -87   -149    156    173    232 210.5  46.9  33918  285.48 0855.34
2009/04/23 07:12:29.8      -7    -99    150    100    180 184.0  63.2  33918  285.50 0855.34
2009/04/23 07:12:29.9     -20   -121     99    123    157 189.7  43.3  33918  285.48 0855.34
2009/04/23 07:12:30.0     -19    -71     82     74    110 195.2  53.3  33920  285.53 0855.34
2009/04/23 07:12:30.1     -37    -78     86     87    122 205.4  50.0  33922  285.55 0855.34
2009/04/23 07:12:30.2      12   -103     93    104    139 172.9  46.9  33922  285.56 0855.34
2009/04/23 07:12:30.3       5   -128    113    129    171 177.4  45.8  33926  285.61 0855.34
2009/04/23 07:12:30.4      28   -165     21    168    170 170.2   7.2  33922  285.56 0855.34
2009/04/23 07:12:30.5      73   -219     10    231    232 161.5   2.5  33922  285.56 0855.34
2009/04/23 07:12:30.6     102   -196     26    222    224 152.4   6.9  33922  285.56 0855.34
2009/04/23 07:12:30.7      49   -147     -6    156    157 161.3  -2.2  33922  285.55 0855.34
2009/04/23 07:12:30.8      25   -152     21    155    157 170.7   8.0  33920  285.53 0855.34
2009/04/23 07:12:30.9      39   -169     84    174    193 166.9  27.4  33924  285.58 0855.34
2009/04/23 07:12:31.0      14   -152     68    153    167 174.7  25.7  33922  285.56 0855.34
2009/04/23 07:12:31.1      -7   -123     57    124    136 183.6  26.6  33922  285.56 0855.34
2009/04/23 07:12:31.2      -5    -81     59     82    101 184.0  39.5  33924  285.58 0855.34
2009/04/23 07:12:31.3      19    -26     73     33     80 143.9  74.0  33922  285.55 0855.34
2009/04/23 07:12:31.4      32    -23     71     40     81 126.0  68.3  33922  285.55 0855.34
2009/04/23 07:12:31.5      74    -44     81     87    118 120.7  48.0  33922  285.56 0855.34
2009/04/23 07:12:31.6      95    -51     74    109    131 118.4  37.4  33924  285.58 0855.34
2009/04/23 07:12:31.7      79    -27     66     84    106 109.1  42.7  33922  285.56 0855.34
2009/04/23 07:12:31.8      37    -43     77     57     95 139.5  60.0  33924  285.58 0855.34
2009/04/23 07:12:31.9      71    -71     70    101    122 135.3  38.0  33924  285.60 0855.34
2009/04/23 07:12:32.0      70    -33     47     78     91 115.4  34.0  33922  285.55 0855.34
2009/04/23 07:12:32.1     121     -1     69    122    140  90.8  31.4  33918  285.50 0855.34
2009/04/23 07:12:32.2     113      8     75    114    136  85.6  35.6  33918  285.50 0855.34
2009/04/23 07:12:32.3      77      0     48     78     91  90.0  35.0  33920  285.51 0855.34
2009/04/23 07:12:32.4      71      5     49     72     87  85.6  37.0  33920  285.53 0855.34
2009/04/23 07:12:32.5      43     -8     37     44     57 100.6  43.8  33920  285.53 0855.34
2009/04/23 07:12:32.6      30     10     34     32     46  70.0  50.1  33918  285.48 0855.34
2009/04/23 07:12:32.7       7      6     28     10     29  50.5  81.2  33920  285.51 0855.34
2009/04/23 07:12:32.8      12    -24     12     27     29 152.8  23.0  33922  285.55 0855.33
2009/04/23 07:12:32.9      42    -24     26     49     55 119.8  30.3  33922  285.55 0855.33
2009/04/23 07:12:33.0      31    -19     35     37     50 122.4  49.0  33918  285.50 0855.33
2009/04/23 07:12:33.1       7    -69     42     70     81 173.8  34.0  33920  285.53 0855.33
2009/04/23 07:12:33.2      -9    -88     49     89    101 186.2  31.4  33918  285.50 0855.33
2009/04/23 07:12:33.3      38     -7     79     39     88 101.5  71.9  33920  285.53 0855.33
2009/04/23 07:12:33.4      -1    -16     46     17     49 184.4  81.2  33918  285.50 0855.33
2009/04/23 07:12:33.5     -58    -41     47     72     85 234.9  36.0  33920  285.53 0855.33
2009/04/23 07:12:33.6       3    -26     41     27     49 172.0  63.6  33918  285.48 0855.33
2009/04/23 07:12:33.7      -9    -31     41     33     52 196.9  56.4  33918  285.50 0855.33
2009/04/23 07:12:33.8      49    -22     41     54     67 114.4  40.7  33918  285.50 0855.33
2009/04/23 07:12:33.9      69    -27     61     75     96 111.7  43.7  33918  285.50 0855.33
2009/04/23 07:12:34.0     184     35    140    188    234  79.2  40.6  33914  285.43 0855.33
2009/04/23 07:12:34.1     118     46    121    127    175  68.7  48.7  33918  285.48 0855.33
2009/04/23 07:12:34.2      34     -2    150     35    154  94.3  87.0  33918  285.48 0855.33
2009/04/23 07:12:34.3      41    -23     86     48     98 119.8  68.8  33918  285.48 0855.33
2009/04/23 07:12:34.4      38    -51     31     64     71 143.0  27.3  33920  285.51 0855.33
2009/04/23 07:12:34.5      18   -103    -37    105    112 169.8 -19.6  33918  285.48 0855.33
2009/04/23 07:12:34.6      56    -82     -7    100    101 145.7  -4.1  33920  285.51 0855.33
2009/04/23 07:12:34.7      90    -57     51    107    118 122.5  27.2  33916  285.46 0855.33
2009/04/23 07:12:34.8     121    -47     42    130    137 111.3  17.9  33916  285.46 0855.34
2009/04/23 07:12:34.9      87    -30     43     93    102 109.1  26.6  33916  285.44 0855.34
2009/04/23 07:12:35.0      71    -47     16     86     88 123.7  11.1  33922  285.55 0855.34
2009/04/23 07:12:35.1      46    -61    -14     77     79 143.0 -10.9  33920  285.51 0855.34
2009/04/23 07:12:35.2      42    -64    -34     77     84 146.6 -29.0  33922  285.55 0855.34
2009/04/23 07:12:35.3      58    -56    -80     82    114 134.0 -54.9  33918  285.48 0855.34
2009/04/23 07:12:35.4      67     13    -46     69     82  78.5 -41.4  33916  285.44 0855.34
2009/04/23 07:12:35.5      72      4    -31     73     79  86.5 -28.5  33920  285.51 0855.34
2009/04/23 07:12:35.6      66     26    -36     72     80  68.3 -33.1  33918  285.50 0855.34
2009/04/23 07:12:35.7      56     30    -22     64     68  61.2 -19.6  33916  285.44 0855.34
2009/04/23 07:12:35.8      48     13     15     50     53  74.9  17.3  33920  285.51 0855.34
2009/04/23 07:12:35.9      35    -25     47     44     64 126.0  52.1  33916  285.44 0855.34
2009/04/23 07:12:36.0      30    -89     90     94    130 161.3  49.0  33916  285.44 0855.34
2009/04/23 07:12:36.1      71   -105     68    128    144 145.8  30.8  33914  285.43 0855.34
2009/04/23 07:12:36.2      66    -74     77    100    126 138.1  41.6  33914  285.43 0855.34
2009/04/23 07:12:36.3      19    -61     56     65     85 162.2  45.4  33914  285.41 0855.34
2009/04/23 07:12:36.4       4     -3     39      6     39 129.5  90.0  33918  285.50 0855.34
2009/04/23 07:12:36.5      13     -8     47     16     49 122.4  81.0  33918  285.48 0855.34
2009/04/23 07:12:36.6      11     -3     32     12     34 108.4  81.2  33918  285.50 0855.34
2009/04/23 07:12:36.7     -14    -36     48     39     61 201.8  56.4  33916  285.44 0855.34
2009/04/23 07:12:36.8      -3     32     75     33     81 353.8  75.0  33914  285.43 0855.34
2009/04/23 07:12:36.9       8    -14     68     17     70 151.0  86.9  33918  285.48 0855.34
2009/04/23 07:12:37.0     -26     31     67     41     78 319.5  65.7  33914  285.43 0855.34
2009/04/23 07:12:37.1     -69     27     65     75     99 291.7  45.4  33914  285.41 0855.34
2009/04/23 07:12:37.2       4     62     93     63    112   4.5  62.6  33916  285.44 0855.34
2009/04/23 07:12:37.3      39     22     85     46     96  60.2  69.3  33916  285.46 0855.34
2009/04/23 07:12:37.4      48     40     82     63    103  50.5  58.5  33918  285.48 0855.34
2009/04/23 07:12:37.5     -68    -22     60     72     93 251.6  44.3  33918  285.48 0855.34
2009/04/23 07:12:37.6     -61    -36     50     72     87 239.3  38.0  33918  285.48 0855.34
2009/04/23 07:12:37.7     -29    -46     47     55     72 212.6  44.8  33916  285.46 0855.34
2009/04/23 07:12:37.8     -51    -49     14     71     73 226.0  11.1  33914  285.43 0855.34
2009/04/23 07:12:37.9     -82    -59     29    102    107 234.0  15.8  33914  285.43 0855.34
2009/04/23 07:12:38.0     -62    -61    -18     88     90 225.4 -11.9  33916  285.44 0855.34
2009/04/23 07:12:38.1     -12    -62     -2     64     65 191.6  -2.2  33914  285.43 0855.34
2009/04/23 07:12:38.2     -11    -53      2     55     56 191.6   2.9  33916  285.46 0855.34
2009/04/23 07:12:38.3     -50    -47      3     69     70 226.9   2.8  33916  285.46 0855.34
2009/04/23 07:12:38.4     -53    -59      4     80     81 221.9   3.3  33916  285.46 0855.34
2009/04/23 07:12:38.5     -37    -44     10     58     59 219.6  10.1  33918  285.48 0855.34
2009/04/23 07:12:38.6     -59   -103     -2    119    120 209.9  -1.3  33918  285.48 0855.34
2009/04/23 07:12:38.7      -6    -85      1     86     87 184.5   0.8  33914  285.43 0855.34
2009/04/23 07:12:38.8     -27    -81     29     86     91 198.7  18.9  33916  285.44 0855.33
2009/04/23 07:12:38.9      14   -102     45    104    113 172.0  24.6  33916  285.46 0855.33
2009/04/23 07:12:39.0      38    -74     64     84    105 152.8  41.2  33914  285.43 0855.33
2009/04/23 07:12:39.1      88    -58     53    106    118 123.7  28.2  33916  285.44 0855.33
2009/04/23 07:12:39.2     113    -23     43    116    123 101.5  21.0  33912  285.39 0855.33
2009/04/23 07:12:39.3      96     -7     39     97    104  94.4  23.0  33912  285.39 0855.33
2009/04/23 07:12:39.4      58      0     30     59     66  90.0  29.3  33914  285.43 0855.33
2009/04/23 07:12:39.5      23     19     37     31     48  50.5  54.3  33914  285.41 0855.33
2009/04/23 07:12:39.6      45     28     45     54     70  57.6  43.8  33914  285.41 0855.33
2009/04/23 07:12:39.7       0     34     38     35     51 359.1  52.2  33912  285.39 0855.33
2009/04/23 07:12:39.8     -29     33     24     45     51 318.6  30.3  33916  285.46 0855.33
2009/04/23 07:12:39.9     -22      0     18     23     29 270.0  43.7  33916  285.44 0855.33
2009/04/23 07:12:40.0      -2    -41     37     42     55 183.6  45.8  33912  285.39 0855.33
2009/04/23 07:12:40.1      -4    -55     23     56     60 184.4  23.1  33912  285.38 0855.33
2009/04/23 07:12:40.2     -30    -30      7     43     44 225.0  10.1  33914  285.41 0855.33
2009/04/23 07:12:40.3     -61    -21      8     65     66 250.9   7.1  33916  285.44 0855.33
2009/04/23 07:12:40.4    -102    -15    -27    104    108 261.2 -15.0  33914  285.41 0855.33
2009/04/23 07:12:40.5     -88    -62    -41    108    115 234.9 -25.4  33914  285.43 0855.33
2009/04/23 07:12:40.6     -35    -43    -51     56     75 219.7 -52.3  33914  285.41 0855.33
2009/04/23 07:12:40.7     -50      9     23     51     55 280.6  26.2  33914  285.41 0855.33
2009/04/23 07:12:40.8     -45    -48     49     67     83 223.2  40.1  33914  285.41 0855.32
2009/04/23 07:12:40.9     -85    -85     36    121    127 225.1  16.8  33912  285.39 0855.32
2009/04/23 07:12:41.0     -40    -54     40     68     78 217.0  33.5  33912  285.38 0855.32
2009/04/23 07:12:41.1     -17    -54     41     57     70 198.3  39.7  33910  285.36 0855.32
2009/04/23 07:12:41.2     -55    -53     55     77     94 225.9  39.1  33910  285.34 0855.32
2009/04/23 07:12:41.3     -45    -39     82     60    101 228.7  60.5  33910  285.36 0855.32
2009/04/23 07:12:41.4     -30    -47     69     56     88 212.6  56.4  33910  285.36 0855.32
2009/04/23 07:12:41.5     -50    -69     91     86    125 216.1  51.2  33908  285.31 0855.32
2009/04/23 07:12:41.6     -92    -48     69    104    124 242.5  36.5  33910  285.34 0855.32
2009/04/23 07:12:41.7     -60    -60     41     85     94 225.0  27.3  33910  285.36 0855.32
2009/04/23 07:12:41.8     -70    -70     47    100    110 225.0  27.1  33908  285.33 0855.32
2009/04/23 07:12:41.9     -52    -82     49     98    109 212.5  28.2  33910  285.34 0855.32
2009/04/23 07:12:42.0     -41    -88    101     98    140 205.3  51.2  33908  285.31 0855.32
2009/04/23 07:12:42.1    -100    -57     83    116    142 240.2  39.5  33906  285.28 0855.32
2009/04/23 07:12:42.2     -42    -34     51     55     75 231.4  47.9  33908  285.31 0855.32
2009/04/23 07:12:42.3      14    -27     67     31     73 152.8  73.1  33908  285.31 0855.32
2009/04/23 07:12:42.4     -12     14     40     19     44 318.6  74.0  33908  285.33 0855.32
2009/04/23 07:12:42.5     -21     21     37     30     47 315.0  56.4  33908  285.31 0855.32
2009/04/23 07:12:42.6     -25     25     41     36     54 314.9  53.3  33906  285.28 0855.32
2009/04/23 07:12:42.7     -51      3     42     52     66 274.4  43.7  33904  285.26 0855.32
2009/04/23 07:12:42.8     -62     28     28     69     74 294.4  23.0  33904  285.24 0855.32
2009/04/23 07:12:42.9     -72     34     57     80     98 295.4  39.5  33902  285.23 0855.32
2009/04/23 07:12:43.0     -54     37     27     66     71 304.2  23.0  33906  285.28 0855.32
2009/04/23 07:12:43.1      -4     55    -15     56     59 355.6 -15.4  33908  285.33 0855.32
2009/04/23 07:12:43.2       6     53    -26     54     59   7.1 -31.7  33908  285.33 0855.32
2009/04/23 07:12:43.3       7     92    -30     93     97   4.9 -23.8  33906  285.29 0855.32
2009/04/23 07:12:43.4      30     91    -30     96    101  18.3 -17.6  33908  285.31 0855.32
2009/04/23 07:12:43.5      64    101    -39    120    126  32.5 -23.8  33908  285.33 0855.32
2009/04/23 07:12:43.6      21     63    -29     67     73  18.3 -29.5  33916  285.44 0855.32
2009/04/23 07:12:43.7      46     64    -40     80     89  36.0 -32.6  33916  285.46 0855.32
2009/04/23 07:12:43.8       7     36    -67     37     76  11.6 -73.2  33908  285.33 0855.32
2009/04/23 07:12:43.9     -28     42    -42     51     66 325.7 -48.1  33908  285.31 0855.32
2009/04/23 07:12:44.0     -26      8    -33     28     43 288.6 -58.7  33912  285.38 0855.32
2009/04/23 07:12:44.1      32     32    -28     46     53  44.2 -39.9  33912  285.38 0855.32
2009/04/23 07:12:44.2      46     31    -28     56     62  55.8 -32.6  33908  285.31 0855.32
2009/04/23 07:12:44.3      40     33    -33     52     61  50.5 -39.9  33910  285.36 0855.32
2009/04/23 07:12:44.4      59     37    -62     70     93  57.5 -50.8  33912  285.39 0855.32
2009/04/23 07:12:44.5      45     39    -55     60     81  48.7 -51.9  33912  285.38 0855.32
2009/04/23 07:12:44.6      39     40    -40     57     69  44.2 -43.0  33912  285.39 0855.32
2009/04/23 07:12:44.7      16     50    -44     53     68  18.7 -48.2  33910  285.34 0855.32
2009/04/23 07:12:44.8      -4     13    -24     14     27 341.3 -69.1  33910  285.36 0855.31
2009/04/23 07:12:44.9       8     22    -24     24     33  20.0 -54.5  33910  285.36 0855.31
2009/04/23 07:12:45.0      14     17    -32     23     39  39.6 -64.9  33912  285.39 0855.31
2009/04/23 07:12:45.1      14     22    -54     27     60  32.6 -76.3  33912  285.38 0855.31
2009/04/23 07:12:45.2      32     41    -65     53     83  37.8 -60.8  33914  285.41 0855.31
2009/04/23 07:12:45.3      49     59    -59     77     97  39.7 -46.1  33914  285.41 0855.31
2009/04/23 07:12:45.4      57     63    -67     86    109  41.9 -46.6  33912  285.38 0855.31
2009/04/23 07:12:45.5      40     44    -96     60    113  42.3 -69.1  33914  285.41 0855.31
2009/04/23 07:12:45.6      86     37    -35     94    100  66.5 -25.4  33912  285.39 0855.31
2009/04/23 07:12:45.7      77     30    -15     83     85  68.3 -10.3  33910  285.36 0855.31
2009/04/23 07:12:45.8      61     20    -37     65     74  71.8 -36.8  33910  285.34 0855.32
2009/04/23 07:12:45.9      41     24    -41     48     63  59.3 -49.2  33912  285.38 0855.32
2009/04/23 07:12:46.0      38     25    -12     46     48  56.7 -15.5  33908  285.33 0855.32
2009/04/23 07:12:46.1      34     16     22     38     43  64.7  32.4  33912  285.39 0855.32
2009/04/23 07:12:46.2      50     -3      9     51     52  94.3  11.0  33910  285.36 0855.32
2009/04/23 07:12:46.3      43      4    -12     44     46  83.9 -15.5  33914  285.41 0855.32
2009/04/23 07:12:46.4      47     12    -26     49     55  74.9 -34.7  33910  285.34 0855.32
2009/04/23 07:12:46.5      24      4    -22     25     33  80.3 -50.2  33910  285.34 0855.32
2009/04/23 07:12:46.6       8     11     -7     14     15  36.1 -31.6  33910  285.36 0855.32
2009/04/23 07:12:46.7     -13     -8      5     16     17 237.6  18.9  33908  285.31 0855.32
2009/04/23 07:12:46.8     -17    -22      1     28     29 217.8   2.8  33910  285.36 0855.32
2009/04/23 07:12:46.9     -33    -23     -9     41     42 235.8 -12.4  33908  285.33 0855.32
2009/04/23 07:12:47.0     -40    -32     -7     52     53 231.4  -8.2  33910  285.36 0855.32
2009/04/23 07:12:47.1     -34    -37     -2     51     52 222.3  -2.2  33910  285.36 0855.32
2009/04/23 07:12:47.2      -2    -25     17     26     31 184.5  35.6  33912  285.38 0855.32
2009/04/23 07:12:47.3      15    -45     43     48     64 160.8  47.9  33912  285.38 0855.32
2009/04/23 07:12:47.4      22    -35     51     42     66 148.4  56.4  33912  285.39 0855.32
2009/04/23 07:12:47.5      22     -7     49     24     54 108.6  72.9  33912  285.39 0855.32
2009/04/23 07:12:47.6       2    -31     49     32     58 175.5  64.6  33910  285.36 0855.32
2009/04/23 07:12:47.7      10     -7     51     13     52 126.0  85.9  33912  285.38 0855.32
2009/04/23 07:12:47.8      48     30     42     57     70  57.5  39.7  33910  285.34 0855.33
2009/04/23 07:12:47.9      56     24     48     62     78  66.5  42.2  33908  285.33 0855.33
2009/04/23 07:12:48.0      70     29     49     76     90  67.4  35.6  33908  285.31 0855.33
2009/04/23 07:12:48.1      71     -9     49     72     87  97.9  37.0  33910  285.36 0855.33
2009/04/23 07:12:48.2      80    -24     58     84    102 107.3  38.6  33910  285.36 0855.33
2009/04/23 07:12:48.3      91    -29     68     96    117 108.2  39.5  33908  285.31 0855.33
2009/04/23 07:12:48.4      87    -30     77     93    120 109.1  43.8  33912  285.38 0855.33
2009/04/23 07:12:48.5      43    -15     83     46     94 110.0  68.3  33910  285.36 0855.33
2009/04/23 07:12:48.6      37    -14     62     40     73 111.7  64.6  33912  285.39 0855.33
2009/04/23 07:12:48.7       5     10     46     12     47  25.4  84.9  33914  285.41 0855.33
2009/04/23 07:12:48.8      -8      0     31      9     32 270.0  82.8  33912  285.39 0855.33
2009/04/23 07:12:48.9      -3    -30     42     31     52 186.2  59.4  33912  285.38 0855.33
2009/04/23 07:12:49.0      17    -18     59     25     64 136.6  77.0  33914  285.41 0855.33
2009/04/23 07:12:49.2      38      2     50     39     63  85.6  57.5  33914  285.43 0855.33
2009/04/23 07:12:49.2       8    -23     48     25     54 161.3  71.9  33914  285.43 0855.33
2009/04/23 07:12:49.3      -4    -23     31     24     39 191.6  56.4  33916  285.46 0855.33
2009/04/23 07:12:49.5      10    -58     51     59     77 170.2  45.8  33914  285.43 0855.33
2009/04/23 07:12:49.6      26    -50     56     57     79 151.9  50.0  33910  285.36 0855.33
2009/04/23 07:12:49.7      31    -28     58     43     72 132.2  60.5  33916  285.44 0855.33
2009/04/23 07:12:49.8      10     24     59     27     64  23.6  73.1  33916  285.46 0855.33
2009/04/23 07:12:49.9     -21     40     45     46     64 332.8  51.1  33916  285.44 0855.33
2009/04/23 07:12:50.0     -14    -36     72     39     81 201.8  69.3  33912  285.38 0855.33
2009/04/23 07:12:50.1     -28    -47     86     55    102 210.7  64.7  33904  285.26 0855.33
2009/04/23 07:12:50.2     -37    -54     71     66     96 214.3  51.6  33906  285.29 0855.33
2009/04/23 07:12:50.3     -80    -50     83     95    126 238.0  45.8  33898  285.14 0855.33
2009/04/23 07:12:50.4     -76    -57     95     96    135 233.1  50.5  33892  285.06 0855.33
2009/04/23 07:12:50.5     -61    -22     83     65    105 250.0  57.9  33898  285.14 0855.33
2009/04/23 07:12:50.6     -87    -34     71     94    117 248.3  40.7  33896  285.13 0855.33
2009/04/23 07:12:50.7     -97    -48     57    109    123 243.4  29.3  33904  285.24 0855.33
2009/04/23 07:12:50.8     -79    -64     44    103    112 230.9  24.1  33906  285.29 0855.33
2009/04/23 07:12:50.9    -108    -78     25    134    137 234.1  10.6  33910  285.34 0855.33
2009/04/23 07:12:51.0    -102    -73     17    126    128 234.5   8.0  33916  285.46 0855.33
2009/04/23 07:12:51.1     -48    -98     11    110    111 206.3   5.9  33910  285.36 0855.33
2009/04/23 07:12:51.2     -27   -100     35    104    110 195.1  18.9  33910  285.36 0855.33
2009/04/23 07:12:51.3     -25    -86     37     90     97 196.5  23.0  33916  285.46 0855.33
2009/04/23 07:12:51.4     -36    -84      8     92     93 203.2   5.4  33920  285.51 0855.33
2009/04/23 07:12:51.5     -31    -94     -2     99    100 198.3  -1.3  33920  285.53 0855.33
2009/04/23 07:12:51.6    -114    -46     -4    124    125 247.8  -2.2  33912  285.39 0855.33
2009/04/23 07:12:51.7    -137    -71     -4    155    156 242.5  -1.8  33912  285.38 0855.33
2009/04/23 07:12:51.8    -112    -36      2    118    119 251.8   1.2  33912  285.38 0855.33
2009/04/23 07:12:51.9     -93    -93     32    132    136 225.0  13.7  33910  285.36 0855.33
2009/04/23 07:12:52.0    -167     -7     60    168    178 267.4  20.4  33908  285.31 0855.33
2009/04/23 07:12:52.1    -166      5     69    167    180 271.9  23.6  33906  285.29 0855.33
2009/04/23 07:12:52.2    -193    -18     56    194    203 264.5  16.3  33910  285.34 0855.33
2009/04/23 07:12:52.3    -207    -32     19    210    211 261.2   5.2  33908  285.31 0855.33
2009/04/23 07:12:52.4    -223      3     48    224    230 270.8  12.2  33908  285.33 0855.33
2009/04/23 07:12:52.5    -211     27     74    213    226 277.5  19.2  33900  285.19 0855.33
2009/04/23 07:12:52.6    -210     76     85    224    239 290.0  21.7  33904  285.24 0855.33
2009/04/23 07:12:52.7    -215     73     62    228    237 288.8  15.3  33906  285.29 0855.33
2009/04/23 07:12:52.8    -178     59     60    188    198 288.4  17.9  33906  285.28 0855.33
2009/04/23 07:12:52.9    -145     52     74    155    171 289.9  27.2  33908  285.31 0855.33
2009/04/23 07:12:53.0    -122     32     83    127    151 285.0  35.6  33908  285.31 0855.33
2009/04/23 07:12:53.1    -183      0     64    184    195 270.0  19.2  33908  285.31 0855.33
2009/04/23 07:12:53.2    -157      0     34    158    162 270.0  12.2  33912  285.38 0855.33
2009/04/23 07:12:53.3    -115      4     33    116    121 272.1  16.3  33910  285.36 0855.33
2009/04/23 07:12:53.4     -98     26     58    102    117 285.0  31.9  33908  285.33 0855.33
2009/04/23 07:12:53.5    -100     23     49    103    114 283.3  27.3  33906  285.29 0855.33
2009/04/23 07:12:53.6    -125     32     44    130    138 284.6  18.9  33906  285.29 0855.33
2009/04/23 07:12:53.7     -95     36     54    102    115 290.8  30.3  33904  285.26 0855.33
2009/04/23 07:12:53.8     -75     34     60     83    102 294.8  39.7  33904  285.26 0855.33
2009/04/23 07:12:53.9     -84     19     71     87    112 283.3  43.7  33900  285.18 0855.33
2009/04/23 07:12:54.0     -99     19     65    101    120 281.4  35.6  33898  285.16 0855.33
2009/04/23 07:12:54.1    -105     33     58    111    125 287.3  29.8  33896  285.13 0855.33
2009/04/23 07:12:54.2     -62    -12     72     64     96 258.6  53.7  33898  285.16 0855.33
2009/04/23 07:12:54.3     -52    -31     51     61     79 238.5  44.3  33900  285.19 0855.33
2009/04/23 07:12:54.4     -47    -22     55     53     76 244.6  50.1  33902  285.21 0855.33
2009/04/23 07:12:54.5     -52    -22     51     57     76 246.5  47.9  33902  285.21 0855.33
2009/04/23 07:12:54.6     -32    -58     61     67     90 209.0  47.5  33906  285.28 0855.33
2009/04/23 07:12:54.7     -26    -25     42     37     55 226.7  54.3  33904  285.26 0855.33
2009/04/23 07:12:54.8     -29    -34     57     45     72 220.5  56.4  33900  285.18 0855.33
2009/04/23 07:12:54.9     -16    -49     77     52     92 198.5  63.2  33914  285.41 0855.33
2009/04/23 07:12:55.0       1    -52     90     53    104 178.2  66.8  33916  285.46 0855.33
2009/04/23 07:12:55.1     -24    -42     75     49     89 210.7  64.1  33910  285.34 0855.33
2009/04/23 07:12:55.2     -55    -19     68     59     90 250.9  54.8  33906  285.28 0855.33
2009/04/23 07:12:55.3     -42    -33     67     54     86 232.2  56.9  33906  285.29 0855.33
2009/04/23 07:12:55.4     -38     -2     62     39     73 265.6  64.7  33906  285.29 0855.33
2009/04/23 07:12:55.5     -44     -4     49     45     66 263.9  52.2  33906  285.28 0855.33
2009/04/23 07:12:55.6     -14     -9     46     17     49 237.6  81.2  33908  285.31 0855.33
2009/04/23 07:12:55.7      14    -70     62     72     95 168.4  45.4  33918  285.48 0855.33
2009/04/23 07:12:55.8       0   -101     93    102    138 180.5  47.9  33926  285.61 0855.33
2009/04/23 07:12:55.9      -7    -85    104     86    134 184.9  56.3  33920  285.53 0855.32
2009/04/23 07:12:56.0      13   -101     94    102    138 172.4  47.9  33922  285.55 0855.32
2009/04/23 07:12:56.1      31   -119     97    123    156 165.3  42.4  33922  285.56 0855.32
2009/04/23 07:12:56.2      -7   -145     93    146    173 183.1  35.5  33922  285.56 0855.32
2009/04/23 07:12:56.3       0   -113     80    114    139 180.4  39.1  33914  285.43 0855.32
2009/04/23 07:12:56.4      11   -109     66    110    128 173.8  34.0  33916  285.44 0855.32
2009/04/23 07:12:56.5       3   -113     66    114    131 178.2  32.9  33916  285.46 0855.32
2009/04/23 07:12:56.6     -24   -129     68    132    148 190.7  29.3  33924  285.58 0855.32
2009/04/23 07:12:56.7     -21   -114     56    117    129 190.7  27.3  33922  285.56 0855.32
2009/04/23 07:12:56.8     -49   -132     74    141    159 200.5  29.8  33916  285.44 0855.32
2009/04/23 07:12:56.9     -67   -113     70    132    149 210.7  30.3  33912  285.38 0855.32
2009/04/23 07:12:57.0     -79    -96     76    125    146 219.7  34.4  33912  285.39 0855.32
2009/04/23 07:12:57.1     -83    -78     67    115    133 226.8  33.5  33912  285.39 0855.32
2009/04/23 07:12:57.2     -95    -76     63    122    137 231.4  29.3  33914  285.43 0855.32
2009/04/23 07:12:57.3    -105    -58     48    121    130 241.1  22.5  33916  285.46 0855.32
2009/04/23 07:12:57.4    -105    -76     20    130    132 234.1   9.0  33916  285.44 0855.32
2009/04/23 07:12:57.5    -116    -74    -11    138    139 237.5  -4.6  33912  285.38 0855.32
2009/04/23 07:12:57.6    -101    -72    -34    125    130 234.5 -15.4  33912  285.38 0855.32
2009/04/23 07:12:57.7     -92    -73    -29    118    122 231.8 -13.9  33916  285.44 0855.32
2009/04/23 07:12:57.8    -108    -74    -36    132    137 235.4 -15.5  33916  285.46 0855.32
2009/04/23 07:12:57.9     -95    -52    -39    109    116 241.2 -19.7  33918  285.48 0855.32
2009/04/23 07:12:58.0     -81    -46    -29     94     99 240.2 -17.6  33916  285.46 0855.32
2009/04/23 07:12:58.1     -76    -48    -29     90     95 237.6 -18.1  33916  285.46 0855.32
2009/04/23 07:12:58.2     -70    -22    -30     74     79 252.3 -28.0  33914  285.43 0855.32
2009/04/23 07:12:58.3     -50    -23    -17     56     59 245.6 -17.6  33916  285.46 0855.32
2009/04/23 07:12:58.4     -26     -8    -13     28     30 251.4 -31.5  33916  285.44 0855.32
2009/04/23 07:12:58.5     -31      0    -31     32     44 270.0 -55.5  33916  285.46 0855.32
2009/04/23 07:12:58.6     -23     11    -37     26     45 297.1 -67.0  33914  285.43 0855.32
2009/04/23 07:12:58.7     -41     17    -34     45     56 292.6 -45.1  33912  285.39 0855.32
2009/04/23 07:12:58.8     -35     23    -22     42     47 303.3 -34.7  33916  285.44 0855.32
2009/04/23 07:12:58.9     -25     22    -25     34     42 311.3 -45.1  33916  285.44 0855.32
2009/04/23 07:12:59.0     -14     32    -26     35     43 336.4 -45.1  33916  285.44 0855.32
2009/04/23 07:12:59.1     -28     35    -27     46     53 321.3 -37.9  33916  285.44 0855.32
2009/04/23 07:12:59.2     -33     42    -19     54     57 321.3 -23.3  33914  285.43 0855.32
2009/04/23 07:12:59.3     -39     31     -1     50     51 308.6  -2.2  33916  285.44 0855.32
2009/04/23 07:12:59.4     -40     14     26     43     50 290.0  34.4  33916  285.44 0855.32
2009/04/23 07:12:59.5     -29     10     38     31     49 290.0  56.4  33914  285.41 0855.32
2009/04/23 07:12:59.6     -30     15     36     34     49 297.1  50.1  33916  285.44 0855.32
2009/04/23 07:12:59.7     -34     11     34     36     49 288.6  50.0  33914  285.41 0855.32
2009/04/23 07:12:59.8     -40     40     33     57     65 314.9  33.5  33908  285.31 0855.32
2009/04/23 07:12:59.9     -36     39     44     54     69 317.7  43.7  33906  285.28 0855.32
2009/04/23 07:13:00.0     -30     49     50     58     76 328.4  44.8  33904  285.26 0855.32
2009/04/23 07:13:00.1     -25     42     55     49     73 329.3  52.2  33904  285.26 0855.32
2009/04/23 07:13:00.2     -33     54     55     64     84 328.4  45.8  33910  285.36 0855.32
2009/04/23 07:13:00.3     -43     59     46     74     87 324.0  35.5  33910  285.36 0855.32
2009/04/23 07:13:00.4     -42     41     48     59     76 314.0  43.7  33906  285.29 0855.32
2009/04/23 07:13:00.5     -25     55     51     61     79 335.5  44.3  33904  285.26 0855.32
2009/04/23 07:13:00.6     -18     54     49     57     75 341.5  44.8  33906  285.29 0855.32
2009/04/23 07:13:00.7     -30     67     51     74     89 335.5  37.6  33904  285.26 0855.32
2009/04/23 07:13:00.8     -28     87     40     92    100 341.7  25.1  33906  285.29 0855.32
2009/04/23 07:13:00.9     -17    107     43    109    117 350.7  22.5  33908  285.33 0855.32
2009/04/23 07:13:01.0     -22    129     51    131    140 350.2  23.0  33912  285.38 0855.32
2009/04/23 07:13:01.1      -1    117     40    118    125 359.1  18.9  33910  285.36 0855.32
2009/04/23 07:13:01.2       0    110     34    111    117 359.6  17.3  33910  285.36 0855.32
2009/04/23 07:13:01.3      -9    101     42    102    110 354.7  23.6  33914  285.41 0855.32
2009/04/23 07:13:01.4     -21    112     39    115    122 349.3  18.9  33910  285.34 0855.32
2009/04/23 07:13:01.5     -16    118     44    120    127 352.0  21.0  33912  285.38 0855.32
2009/04/23 07:13:01.6     -12    125     53    126    136 354.2  24.1  33912  285.39 0855.32
2009/04/23 07:13:01.7      -5    109     63    110    126 357.3  32.4  33912  285.38 0855.32
2009/04/23 07:13:01.8     -32    121     67    126    142 344.9  30.3  33910  285.34 0855.32
2009/04/23 07:13:01.9     -32    105     57    110    123 343.1  29.3  33908  285.33 0855.32
2009/04/23 07:13:02.0     -12    116     74    117    138 353.8  35.5  33908  285.33 0855.32
2009/04/23 07:13:02.1      -2    111     69    112    131 358.6  35.0  33908  285.33 0855.32
2009/04/23 07:13:02.2     -35    119     92    125    155 343.5  39.7  33908  285.33 0855.32
2009/04/23 07:13:02.3       2    169    104    170    199   1.0  34.4  33912  285.38 0855.32
2009/04/23 07:13:02.4      12    162    114    163    198   4.5  38.4  33912  285.39 0855.32
2009/04/23 07:13:02.6      50    153    101    162    190  18.3  35.2  33912  285.38 0855.32
2009/04/23 07:13:02.7      28    138    107    141    177  11.5  41.2  33916  285.44 0855.32
2009/04/23 07:13:02.8      42    105    102    114    152  21.8  46.9  33912  285.39 0855.32
2009/04/23 07:13:02.9      69     83    101    109    148  39.7  47.9  33912  285.38 0855.32
2009/04/23 07:13:03.0      26     99    109    103    149  15.1  52.1  33910  285.36 0855.32
2009/04/23 07:13:03.1      74    104     90    128    156  35.6  38.6  33910  285.36 0855.32
2009/04/23 07:13:03.2      93     64     87    113    142  55.4  41.7  33912  285.39 0855.32
2009/04/23 07:13:03.3      99     59    105    116    156  58.9  47.5  33910  285.34 0855.32
2009/04/23 07:13:03.4      81     -3     96     82    126  92.1  54.8  33908  285.31 0855.32
2009/04/23 07:13:03.5      95     23    112     98    148  76.3  54.3  33908  285.31 0855.32
2009/04/23 07:13:03.6      99    -36     97    106    143 110.0  47.9  33908  285.31 0855.32
2009/04/23 07:13:03.7      72    -24     70     76    103 108.6  47.9  33912  285.39 0855.32
2009/04/23 07:13:03.8      27     35     57     45     72  37.0  56.4  33904  285.26 0855.32
2009/04/23 07:13:03.9      58      4     72     59     93  85.6  56.4  33904  285.26 0855.32
2009/04/23 07:13:04.0      82     22     74     86    113  74.5  45.4  33900  285.19 0855.32
2009/04/23 07:13:04.1     111    -37     85    118    145 108.6  39.5  33900  285.19 0855.32
2009/04/23 07:13:04.2     120    -25    102    123    159 101.9  44.1  33902  285.21 0855.32
2009/04/23 07:13:04.3     143      8     91    144    170  86.5  35.5  33902  285.21 0855.32
2009/04/23 07:13:04.4     144    -21    135    146    198  98.4  47.9  33908  285.33 0855.32
2009/04/23 07:13:04.5     145    -43    106    152    185 106.8  38.4  33908  285.33 0855.32
2009/04/23 07:13:04.6     125    -17     87    127    153  97.9  37.6  33908  285.31 0855.32
2009/04/23 07:13:04.7     157     12     47    158    166  85.4  16.8  33906  285.29 0855.32
2009/04/23 07:13:04.8     187     31     23    190    192  80.5   7.1  33912  285.38 0855.32
2009/04/23 07:13:04.9     185    -21     58    187    196  96.6  17.4  33910  285.36 0855.32
2009/04/23 07:13:05.0     154     41     77    160    177  75.0  27.3  33910  285.36 0855.32
2009/04/23 07:13:05.1     182     57    102    191    216  72.5  30.3  33910  285.36 0855.32
2009/04/23 07:13:05.2     187     63     93    198    218  71.2  27.1  33912  285.39 0855.32
2009/04/23 07:13:05.3     187     84     98    205    227  65.8  27.2  33912  285.38 0855.32
2009/04/23 07:13:05.4     136     82    120    160    200  58.9  40.7  33908  285.33 0855.32
2009/04/23 07:13:05.5     149     90    136    175    221  58.7  41.7  33910  285.36 0855.32
2009/04/23 07:13:05.6     160     99    130    189    229  58.2  37.6  33914  285.43 0855.32
2009/04/23 07:13:05.7     184     81    132    202    241  66.3  36.3  33912  285.39 0855.32
2009/04/23 07:13:05.8     195    103     68    221    232  62.2  17.3  33912  285.38 0855.32
2009/04/23 07:13:05.9     180     99     37    206    210  61.1  10.3  33912  285.38 0855.33
2009/04/23 07:13:06.0     170    134     87    217    233  51.8  23.0  33912  285.39 0855.33
2009/04/23 07:13:06.1     235    125     96    267    283  62.0  20.4  33914  285.42 0855.33
2009/04/23 07:13:06.2     279    101    110    297    316  70.1  21.3  33912  285.39 0855.33
2009/04/23 07:13:06.3     311     88     71    324    332  74.1  12.5  33910  285.35 0855.33
2009/04/23 07:13:06.4     288     30     70    290    299  83.9  13.7  33914  285.40 0855.33
2009/04/23 07:13:06.5     248     22     68    250    260  84.8  15.2  33912  285.39 0855.33
2009/04/23 07:13:06.6     272     69     33    281    284  75.6   6.9  33910  285.35 0855.33
2009/04/23 07:13:06.7     245     38     86    249    264  81.0  19.2  33908  285.30 0855.33
2009/04/23 07:13:06.8     203     50     72    210    223  76.1  18.9  33910  285.36 0855.33
2009/04/23 07:13:06.9     178    148     22    232    234  50.4   5.4  33908  285.32 0855.33
2009/04/23 07:13:07.0     221    136    -18    260    261  58.4  -4.1  33910  285.35 0855.33
2009/04/23 07:13:07.1     162     68    -60    176    187  67.2 -18.9  33912  285.38 0855.33
2009/04/23 07:13:07.2     142     32    -56    146    156  77.2 -26.4  33912  285.38 0855.33
2009/04/23 07:13:07.3     137     31    -65    141    155  77.2 -31.5  33912  285.38 0855.33
2009/04/23 07:13:07.4     105     24   -112    108    155  76.7 -55.1  33912  285.39 0855.33
2009/04/23 07:13:07.5      79     53    -71     96    119  55.8 -44.5  33912  285.39 0855.33
2009/04/23 07:13:07.6      78     38    -72     87    112  63.8 -48.2  33912  285.39 0855.33
2009/04/23 07:13:07.7      90     14    -70     92    115  81.2 -45.6  33910  285.36 0855.33
2009/04/23 07:13:07.8      68     22    -39     72     81  71.4 -35.2  33912  285.39 0855.33
2009/04/23 07:13:07.9      50     10    -48     52     70  78.6 -52.3  33914  285.41 0855.33
2009/04/23 07:13:08.0      50      3    -57     51     76  85.7 -56.6  33912  285.38 0855.33
2009/04/23 07:13:08.1      96      0    -34     97    104  90.0 -19.6  33914  285.41 0855.33
2009/04/23 07:13:08.2     144      6     25    145    148  87.5  10.1  33910  285.36 0855.33
2009/04/23 07:13:08.3     141     -2     41    142    148  90.8  16.3  33908  285.31 0855.33
2009/04/23 07:13:08.4     103    -65    -31    122    127 122.4 -14.5  33910  285.36 0855.33
2009/04/23 07:13:08.5      99    -47    -26    110    114 115.8 -13.4  33908  285.33 0855.33
2009/04/23 07:13:08.6     106    -14    -14    108    109  97.9  -7.7  33910  285.36 0855.33
2009/04/23 07:13:08.7     114      0      5    115    116  90.0   2.9  33912  285.38 0855.33
2009/04/23 07:13:08.8     110     -8     13    111    112  94.4   6.9  33908  285.31 0855.33
2009/04/23 07:13:08.9      83    -22     -2     86     87 105.1  -1.8  33906  285.28 0855.32
2009/04/23 07:13:09.0      96    -63     30    115    119 123.3  14.7  33906  285.29 0855.32
2009/04/23 07:13:09.1      78    -72     29    107    111 132.7  15.3  33908  285.31 0855.32
2009/04/23 07:13:09.2      34    -51     26     62     67 145.7  23.1  33906  285.29 0855.32
2009/04/23 07:13:09.3       0    -55     25     56     61 180.9  25.1  33906  285.28 0855.32
2009/04/23 07:13:09.4     -18    -14     43     24     49 232.2  68.8  33908  285.31 0855.32
2009/04/23 07:13:09.5     -40     -8     20     41     45 258.5  28.2  33908  285.31 0855.32
2009/04/23 07:13:09.6     -37    -34      7     51     52 227.8   8.0  33908  285.33 0855.32
2009/04/23 07:13:09.7     -40    -24     16     47     50 239.3  19.2  33906  285.28 0855.32
2009/04/23 07:13:09.8     -41     21     32     47     56 297.1  36.5  33906  285.29 0855.32
2009/04/23 07:13:09.9     -73     14     29     75     80 281.5  22.5  33908  285.33 0855.32
2009/04/23 07:13:10.0     -21     32     46     39     60 327.4  56.3  33904  285.26 0855.32
2009/04/23 07:13:10.1     -15     83     31     85     90 349.8  21.0  33906  285.29 0855.32
2009/04/23 07:13:10.2     -58     70     41     92    100 320.3  25.7  33908  285.31 0855.32
2009/04/23 07:13:10.3     -48     50     74     70    101 315.9  51.6  33904  285.26 0855.32
2009/04/23 07:13:10.4     -37     69     70     79    105 331.9  46.4  33908  285.33 0855.32
2009/04/23 07:13:10.5     -30     90     87     95    128 341.5  47.9  33910  285.34 0855.32
2009/04/23 07:13:10.6      -1    123     97    124    157 359.1  42.2  33908  285.33 0855.32
2009/04/23 07:13:10.7      12     95     70     96    118   7.6  39.7  33910  285.34 0855.32
2009/04/23 07:13:10.8      32     92     71     98    121  19.6  39.7  33910  285.34 0855.32
2009/04/23 07:13:10.9      32     90     66     96    116  19.6  37.6  33910  285.34 0855.32
2009/04/23 07:13:11.0      21     74     27     77     81  16.0  20.0  33910  285.34 0855.32
2009/04/23 07:13:11.1      -7    108    -34    109    115 356.0 -17.6  33910  285.36 0855.32
2009/04/23 07:13:11.2     -43     83     38     94    101 332.4  23.0  33906  285.29 0855.32
2009/04/23 07:13:11.3     -28    106     64    110    127 344.8  32.9  33908  285.31 0855.32
2009/04/23 07:13:11.4     -84     92     36    125    131 317.7  16.3  33906  285.28 0855.32
2009/04/23 07:13:11.5    -105    131     33    169    173 321.3  11.1  33908  285.31 0855.32
2009/04/23 07:13:11.6     -59     90     12    108    109 326.6   6.5  33904  285.26 0855.32
2009/04/23 07:13:11.7     -89     54     98    105    143 301.1  48.0  33906  285.29 0855.32
2009/04/23 07:13:11.8     -90     47     53    102    114 298.0  29.8  33906  285.29 0855.32
2009/04/23 07:13:11.9     -37     75     78     84    114 333.3  48.0  33908  285.33 0855.32
2009/04/23 07:13:12.0     -70     86     47    112    121 320.8  24.1  33908  285.33 0855.32
2009/04/23 07:13:12.1      -8     63     64     64     90 352.0  50.1  33908  285.31 0855.32
2009/04/23 07:13:12.2       2     66     57     67     87   1.8  44.8  33906  285.29 0855.32
2009/04/23 07:13:12.3      49     90     40    103    110  28.9  22.5  33908  285.33 0855.32
2009/04/23 07:13:12.4      93     81     56    124    136  48.7  26.2  33908  285.33 0855.32
2009/04/23 07:13:12.5      36    103     67    110    128  19.2  34.4  33910  285.36 0855.32
2009/04/23 07:13:12.6      26    112     80    116    140  13.4  38.0  33912  285.39 0855.32
2009/04/23 07:13:12.7       9    122     77    123    145   4.5  35.5  33910  285.36 0855.32
2009/04/23 07:13:12.8      23    135     96    138    168   9.8  38.4  33908  285.33 0855.32
2009/04/23 07:13:12.9       2    211     83    212    227   0.7  22.8  33912  285.38 0855.32
2009/04/23 07:13:13.0      55    153     88    163    185  20.0  30.8  33910  285.34 0855.32
2009/04/23 07:13:13.1      54    148    107    158    190  20.1  37.3  33908  285.31 0855.32
2009/04/23 07:13:13.2      58    162     91    173    195  19.8  29.8  33910  285.36 0855.32
2009/04/23 07:13:13.3      61    116     92    132    160  27.6  38.4  33910  285.34 0855.32
2009/04/23 07:13:13.4      71    133     87    151    174  28.1  32.9  33908  285.33 0855.32
2009/04/23 07:13:13.5     105    172     33    202    205  31.4   9.5  33912  285.38 0855.32
2009/04/23 07:13:13.6      53    180     34    188    192  16.7  10.3  33912  285.39 0855.32
2009/04/23 07:13:13.7       6    197     37    198    202   1.8  10.8  33914  285.43 0855.32
2009/04/23 07:13:13.8      46    163     59    170    181  16.0  19.2  33912  285.39 0855.32
2009/04/23 07:13:13.9      28    137     60    140    152  11.6  24.6  33910  285.36 0855.32
2009/04/23 07:13:14.0     113    113     60    160    170  45.0  21.5  33910  285.34 0855.32
2009/04/23 07:13:14.1     114     77     83    138    161  55.9  33.7  33908  285.33 0855.32
2009/04/23 07:13:14.2     100     84     76    131    151  50.0  32.9  33908  285.33 0855.32
2009/04/23 07:13:14.3     114    123     31    168    171  42.8  10.6  33910  285.36 0855.32
2009/04/23 07:13:14.4      89    174     86    196    214  27.2  25.2  33910  285.34 0855.32
2009/04/23 07:13:14.5      41    143     99    149    178  16.0  36.7  33912  285.38 0855.32
2009/04/23 07:13:14.6      16    134     63    136    149   7.1  27.1  33908  285.33 0855.32
2009/04/23 07:13:14.7     -19    125     25    127    130 351.1  11.1  33910  285.36 0855.32
2009/04/23 07:13:14.8     -21    128     57    130    141 350.7  25.1  33904  285.26 0855.32
2009/04/23 07:13:14.9     -26    170     56    173    182 351.1  17.9  33904  285.26 0855.31
2009/04/23 07:13:15.0     -66    211     54    222    229 342.6  13.7  33898  285.16 0855.31
2009/04/23 07:13:15.2     -46    176     67    182    193 345.3  20.7  33898  285.14 0855.31
2009/04/23 07:13:15.3     -41    161     38    167    172 345.7  12.9  33894  285.09 0855.31
2009/04/23 07:13:15.3     -41    137     47    144    152 343.1  18.1  33894  285.09 0855.31
2009/04/23 07:13:15.5     -15    114     58    116    129 352.4  28.7  33892  285.04 0855.31
2009/04/23 07:13:15.6       3    100     50    101    112   1.8  27.3  33894  285.07 0855.31
2009/04/23 07:13:15.7      27    159    107    162    194   9.8  36.0  33904  285.24 0855.31
2009/04/23 07:13:15.8      51    193    117    200    231  15.1  33.4  33904  285.26 0855.31
2009/04/23 07:13:15.9      40    132     95    139    168  16.9  37.6  33902  285.21 0855.31
2009/04/23 07:13:16.0      94    141     62    170    180  33.6  21.0  33902  285.23 0855.31
2009/04/23 07:13:16.1      47    179     62    186    197  14.7  18.6  33904  285.24 0855.31
2009/04/23 07:13:16.2      65    165     45    178    184  21.6  14.3  33906  285.28 0855.31
2009/04/23 07:13:16.3      78    149     22    169    171  27.6   7.5  33906  285.29 0855.31
2009/04/23 07:13:16.4      76    138     44    158    165  28.9  15.8  33906  285.28 0855.31
2009/04/23 07:13:16.5     110    122     50    165    173  41.9  17.1  33902  285.23 0855.31
2009/04/23 07:13:16.7      75    143     83    162    182  27.6  29.1  33902  285.23 0855.31
2009/04/23 07:13:16.8     103    116     98    156    184  41.5  35.5  33902  285.23 0855.31
2009/04/23 07:13:16.9     132    111     88    173    194  50.0  29.1  33904  285.24 0855.31
2009/04/23 07:13:17.0     138    182     80    229    242  37.2  20.0  33906  285.27 0855.32
2009/04/23 07:13:17.1     177    194     82    263    276  42.4  17.4  33916  285.44 0855.32
2009/04/23 07:13:17.2     141    195     75    241    253  36.0  17.4  33916  285.45 0855.32
2009/04/23 07:13:17.3     174    173     90    246    261  45.3  21.0  33914  285.42 0855.32
2009/04/23 07:13:17.4     190    166    115    253    277  48.7  26.2  33916  285.44 0855.32
2009/04/23 07:13:17.5     260    165     91    309    323  57.6  16.5  33912  285.37 0855.32
2009/04/23 07:13:17.6     233    148     82    277    290  57.5  16.6  33912  285.39 0855.32
2009/04/23 07:13:17.7     217    169     -1    276    277  52.0  -0.3  33908  285.32 0855.32
2009/04/23 07:13:17.8     221    171     13    280    281  52.3   2.8  33910  285.35 0855.32
2009/04/23 07:13:17.9     228    185     30    294    296  50.9   5.9  33910  285.34 0855.32
2009/04/23 07:13:18.0     244    182     16    305    306  53.2   3.1  33910  285.34 0855.32
2009/04/23 07:13:18.1     257    164     -3    306    307  57.4  -0.7  33908  285.30 0855.32
2009/04/23 07:13:18.2     297    159      5    338    339  61.8   0.9  33902  285.21 0855.32
2009/04/23 07:13:18.3     315     99     34    331    333  72.4   5.9  33904  285.26 0855.32
2009/04/23 07:13:18.4     274     93     15    290    291  71.2   3.1  33904  285.25 0855.32
2009/04/23 07:13:18.6     284     66     64    292    300  76.8  12.4  33900  285.19 0855.32
2009/04/23 07:13:18.7     265     43    107    269    289  80.8  23.0  33906  285.29 0855.32
2009/04/23 07:13:18.8     302     76     73    312    321  75.8  13.2  33902  285.20 0855.32
2009/04/23 07:13:18.9     327     64    114    334    354  78.8  18.9  33906  285.28 0855.32
2009/04/23 07:13:19.0     322     63     90    329    342  78.8  15.4  33904  285.25 0855.32
2009/04/23 07:13:19.1     293      4     35    294    297  89.1   6.9  33906  285.29 0855.32
2009/04/23 07:13:19.2     318     52     69    323    331  80.6  12.1  33904  285.25 0855.32
2009/04/23 07:13:19.3     276      3      3    277    278  89.2   0.7  33906  285.29 0855.32
2009/04/23 07:13:19.4     253    104     28    274    276  67.6   5.9  33912  285.37 0855.32
2009/04/23 07:13:19.5     230    125     72    263    273  61.4  15.3  33912  285.39 0855.32
2009/04/23 07:13:19.6     181     96     64    206    216  62.0  17.3  33912  285.39 0855.32
2009/04/23 07:13:19.7     160    118     88    199    217  53.6  25.2  33914  285.41 0855.32
2009/04/23 07:13:19.8     177    112     60    210    219  57.8  16.0  33910  285.36 0855.32
2009/04/23 07:13:19.9     214     89     79    232    246  67.4  18.9  33914  285.40 0855.32
2009/04/23 07:13:20.0     227     86     44    243    248  69.2  10.3  33918  285.47 0855.32
2009/04/23 07:13:20.1     205    107     18    232    233  62.5   4.6  33912  285.39 0855.32
2009/04/23 07:13:20.2     254     78     57    266    273  72.9  12.2  33912  285.37 0855.32
2009/04/23 07:13:20.3     223     37     92    227    244  80.4  23.4  33908  285.30 0855.32
2009/04/23 07:13:20.4     220     58    124    228    259  75.2  31.0  33910  285.35 0855.32
2009/04/23 07:13:20.5     228      7    111    229    254  88.1  27.8  33914  285.40 0855.32
2009/04/23 07:13:20.6     154     76     89    173    194  63.6  29.3  33908  285.31 0855.32
2009/04/23 07:13:20.7     190     14     45    191    197  85.7  13.2  33914  285.43 0855.32
2009/04/23 07:13:20.8      84     69     57    109    123  50.5  29.3  33912  285.38 0855.32
2009/04/23 07:13:20.9      95    130     49    162    170  36.1  16.8  33912  285.38 0855.32
2009/04/23 07:13:21.0      94    113     50    148    157  39.6  18.9  33912  285.38 0855.32
2009/04/23 07:13:21.1      75    117     53    140    149  32.6  21.0  33910  285.36 0855.32
2009/04/23 07:13:21.2     144    112     90    183    203  52.2  28.2  33914  285.41 0855.32
2009/04/23 07:13:21.3     126     54     70    138    154  66.9  29.2  33916  285.46 0855.32
2009/04/23 07:13:21.4     105    125     64    164    176  40.1  22.5  33916  285.46 0855.32
2009/04/23 07:13:21.5      92     76     90    120    150  50.5  40.7  33914  285.43 0855.32
2009/04/23 07:13:21.6      97     70    121    120    170  54.0  49.9  33910  285.34 0855.32
2009/04/23 07:13:21.7      41     71    106     83    134  30.3  58.4  33912  285.39 0855.32
2009/04/23 07:13:21.8      68      5     79     69    104  85.6  54.3  33912  285.39 0855.32
2009/04/23 07:13:21.9      57     -5     32     58     66  95.2  31.4  33912  285.39 0855.32
2009/04/23 07:13:22.0      41     16     54     45     70  68.3  56.3  33914  285.41 0855.32
2009/04/23 07:13:22.1      28     28     68     40     78  45.0  66.8  33914  285.41 0855.32
2009/04/23 07:13:22.2      52     33     64     62     89  57.5  50.1  33914  285.43 0855.32
2009/04/23 07:13:22.3      32     68     33     76     82  25.4  24.6  33912  285.39 0855.32
2009/04/23 07:13:22.4      43     14     70     46     83  71.8  64.1  33912  285.39 0855.32
2009/04/23 07:13:22.5      11    -41     52     43     67 164.9  56.3  33912  285.38 0855.32
2009/04/23 07:13:22.6      81    -24     45     85     96 106.8  30.3  33910  285.36 0855.32
2009/04/23 07:13:22.7      87    -34     48     94    105 111.7  29.3  33910  285.34 0855.32
2009/04/23 07:13:22.8      71    -33     51     79     94 115.4  35.6  33908  285.31 0855.32
2009/04/23 07:13:22.9      51      6     54     52     74  83.0  49.1  33908  285.31 0855.32
2009/04/23 07:13:23.0      57     15     64     60     87  74.9  51.2  33910  285.36 0855.32
2009/04/23 07:13:23.1      48     19     47     52     70  67.4  46.9  33914  285.41 0855.32
2009/04/23 07:13:23.2      41     31     59     52     78  52.2  53.7  33910  285.36 0855.32
2009/04/23 07:13:23.3      49     15     55     52     75  72.3  52.1  33912  285.38 0855.32
2009/04/23 07:13:23.4      26     -7     46     27     53 105.1  66.8  33912  285.38 0855.32
2009/04/23 07:13:23.5      42    -46     33     63     71 137.7  30.3  33912  285.38 0855.32
2009/04/23 07:13:23.6      59    -40     38     72     81 124.2  30.3  33908  285.31 0855.32
2009/04/23 07:13:23.7      29    -33     35     45     57 138.6  42.7  33910  285.34 0855.32
2009/04/23 07:13:23.8      26    -23     33     35     48 131.3  50.0  33910  285.36 0855.32
2009/04/23 07:13:23.9      57    -34     32     67     74 120.7  27.1  33908  285.31 0855.32
2009/04/23 07:13:24.0      51      3     50     52     72  86.5  50.0  33904  285.26 0855.32
2009/04/23 07:13:24.1       0     -3     47      4     47 189.7  90.0  33910  285.34 0855.32
2009/04/23 07:13:24.2      -6    -42     19     43     47 188.9  25.1  33904  285.26 0855.32
2009/04/23 07:13:24.3     -22    -39     17     45     48 209.9  20.0  33904  285.24 0855.32
2009/04/23 07:13:24.4       7    -23      6     25     26 163.1  15.3  33906  285.28 0855.32
2009/04/23 07:13:24.5      27      1     20     28     34  87.4  37.6  33908  285.31 0855.32
2009/04/23 07:13:24.6      13     -5     20     14     24 111.7  60.5  33908  285.31 0855.32
2009/04/23 07:13:24.7      14    -48     -2     51     52 163.1  -2.2  33908  285.33 0855.32
2009/04/23 07:13:24.8      23    -37     16     44     46 147.5  20.0  33908  285.31 0855.32
2009/04/23 07:13:24.9      58    -36     34     69     76 122.4  27.3  33908  285.33 0855.32
2009/04/23 07:13:25.0      41    -43     35     60     69 136.6  33.5  33910  285.34 0855.31
2009/04/23 07:13:25.1      45    -40     57     61     83 131.3  48.5  33910  285.34 0855.31
2009/04/23 07:13:25.2      18    -28     72     34     79 147.4  72.9  33910  285.34 0855.31
2009/04/23 07:13:25.3       1    -16     63     17     65 175.5  84.9  33908  285.33 0855.31
2009/04/23 07:13:25.4       4     12     58     13     59  18.3  88.0  33910  285.36 0855.31
2009/04/23 07:13:25.5      37     29     49     48     68  51.4  49.1  33912  285.38 0855.31
2009/04/23 07:13:25.6      60     34     46     70     83  60.2  36.0  33912  285.39 0855.31
2009/04/23 07:13:25.7      45      0     44     46     63  90.0  50.0  33912  285.39 0855.31
2009/04/23 07:13:25.8      37    -18     45     42     61 115.4  52.2  33910  285.36 0855.31
2009/04/23 07:13:26.0      71    -23     65     75     99 108.2  45.4  33912  285.38 0855.31
2009/04/23 07:13:26.1      83    -31     66     89    110 110.8  40.1  33912  285.39 0855.31
2009/04/23 07:13:26.2     119    -40     81    126    149 108.6  35.6  33910  285.36 0855.31
2009/04/23 07:13:26.3     120    -37    106    126    164 107.3  44.5  33912  285.38 0855.31
2009/04/23 07:13:26.4     101    -27    113    105    154 105.1  52.1  33910  285.36 0855.31
2009/04/23 07:13:26.5     126     -8    119    127    174  93.9  48.5  33914  285.41 0855.31
2009/04/23 07:13:26.6     128    -29    105    132    168 102.8  42.7  33918  285.48 0855.31
2009/04/23 07:13:26.7     131    -39    127    137    186 106.8  47.9  33914  285.41 0855.31
2009/04/23 07:13:26.8     144    -27    112    147    184 100.6  40.9  33914  285.43 0855.31
2009/04/23 07:13:26.9     116    -20    136    118    180 100.1  54.6  33912  285.38 0855.31
2009/04/23 07:13:27.0     119      0    128    120    175  90.0  52.1  33912  285.39 0855.32
2009/04/23 07:13:27.1     105    -14     54    106    118  97.9  29.3  33912  285.39 0855.32
2009/04/23 07:13:27.2     124    -13     29    125    129  96.2  13.1  33914  285.43 0855.32
2009/04/23 07:13:27.3     106      9     13    107    108  84.8   7.1  33910  285.34 0855.32
2009/04/23 07:13:27.4     118     42     48    126    134  70.1  21.0  33914  285.43 0855.32
2009/04/23 07:13:27.5     124     41     54    131    141  71.6  23.1  33914  285.41 0855.32
2009/04/23 07:13:27.6     152     12     27    153    156  85.2  10.1  33912  285.39 0855.32
2009/04/23 07:13:27.7     193     37     -4    197    198  79.0  -1.3  33916  285.46 0855.32
2009/04/23 07:13:27.8     163     18     -3    165    166  83.6  -1.3  33916  285.44 0855.32
2009/04/23 07:13:27.9     170     41    -11    175    176  76.3  -3.7  33916  285.44 0855.32
2009/04/23 07:13:28.0     152     30      8    156    157  78.6   3.1  33916  285.44 0855.32
2009/04/23 07:13:28.1     133     23    -17    136    138  79.9  -7.3  33918  285.48 0855.32
2009/04/23 07:13:28.2     153     52     14    162    163  70.9   5.2  33914  285.43 0855.32
2009/04/23 07:13:28.3     149     15     53    150    159  83.9  20.2  33916  285.46 0855.32
2009/04/23 07:13:28.4     143     62     25    157    160  66.5   9.3  33914  285.43 0855.32
2009/04/23 07:13:28.5     122     57     27    135    138  64.8  11.6  33918  285.48 0855.32
2009/04/23 07:13:28.6     123     68     16    141    142  61.1   6.5  33916  285.46 0855.32
2009/04/23 07:13:28.7     115    103     21    155    157  48.2   7.8  33918  285.48 0855.32
2009/04/23 07:13:28.8     117    117     15    166    167  45.1   5.4  33914  285.41 0855.32
2009/04/23 07:13:28.9     156     93      3    182    183  59.1   1.0  33916  285.46 0855.32
2009/04/23 07:13:29.0     209     68    -28    221    223  71.8  -7.3  33918  285.48 0855.31
2009/04/23 07:13:29.2     187     61    -41    197    202  71.8 -11.9  33916  285.46 0855.31
2009/04/23 07:13:29.2     189     81    -26    206    208  66.7  -7.2  33914  285.43 0855.31
2009/04/23 07:13:29.3     158    126    -28    203    206  51.4  -8.0  33916  285.44 0855.31
2009/04/23 07:13:29.4     133    123    -32    182    185  47.3 -10.1  33916  285.44 0855.31
2009/04/23 07:13:29.5      -3    -18    -61     19     63 191.6 -85.1  33970  286.37 0855.31
2009/04/23 07:13:29.6      94    113     20    148    150  39.7   8.0  33914  285.41 0855.31
2009/04/23 07:13:29.7      70     98      3    121    122  35.6   1.8  33916  285.44 0855.31
2009/04/23 07:13:29.8      59     93    -38    111    118  32.6 -19.1  33914  285.43 0855.31
2009/04/23 07:13:29.9      64     96    -44    116    124  33.8 -25.4  33912  285.39 0855.31
2009/04/23 07:13:30.0     107     95    -72    144    160  48.2 -32.9  33916  285.44 0855.31
2009/04/23 07:13:30.1     143     85    -59    167    177  59.3 -24.6  33916  285.44 0855.31
2009/04/23 07:13:30.2     156     46    -31    163    167  73.6 -10.9  33912  285.39 0855.31
2009/04/23 07:13:30.3     164     20     -3    166    167  83.0  -1.1  33916  285.44 0855.31
2009/04/23 07:13:30.4     156     26     29    159    162  80.4  10.6  33914  285.43 0855.31
2009/04/23 07:13:30.5     145     27     35    148    153  79.4  13.5  33914  285.43 0855.31
2009/04/23 07:13:30.6     136     44     52    144    153  71.8  20.4  33912  285.39 0855.31
2009/04/23 07:13:30.7     142     32     49    146    155  77.2  18.6  33912  285.39 0855.31
2009/04/23 07:13:30.8     126     53     11    137    138  66.9   5.0  33914  285.43 0855.31
2009/04/23 07:13:30.9     125     59     32    139    143  64.6  13.2  33914  285.43 0855.31
2009/04/23 07:13:31.0     113     67     -5    132    133  59.4  -2.2  33918  285.48 0855.31
2009/04/23 07:13:31.1      99     72    -42    123    131  54.1 -19.1  33914  285.43 0855.31
2009/04/23 07:13:31.2      82     88     44    121    128  43.2  20.9  33912  285.38 0855.31
2009/04/23 07:13:31.3      71     64     69     96    118  47.8  39.7  33914  285.41 0855.31
2009/04/23 07:13:31.4      39    126     72    133    151  17.4  31.3  33910  285.36 0855.31
2009/04/23 07:13:31.5      23    113     42    116    123  11.5  20.9  33910  285.36 0855.31
2009/04/23 07:13:31.6      22     78     41     82     91  15.6  28.2  33910  285.36 0855.31
2009/04/23 07:13:31.7      10     78     21     79     82   8.0  15.3  33910  285.36 0855.31
2009/04/23 07:13:31.8      -8     56     12     57     59 351.1  12.2  33910  285.34 0855.31
2009/04/23 07:13:31.9     -29     49     32     58     66 329.3  31.4  33910  285.34 0855.31
2009/04/23 07:13:32.0     -43     58     56     73     92 323.9  41.7  33910  285.36 0855.31
2009/04/23 07:13:32.1     -52     65     -6     84     85 321.7  -4.6  33908  285.33 0855.31
2009/04/23 07:13:32.2     -89     86      0    125    126 314.0  -0.3  33904  285.24 0855.31
2009/04/23 07:13:32.3     -95     45    -20    106    108 295.3 -10.9  33908  285.31 0855.31
2009/04/23 07:13:32.4     -98     35    -49    105    115 290.0 -31.5  33902  285.23 0855.31
2009/04/23 07:13:32.5     -87     24    -50     91    103 285.5 -35.8  33908  285.31 0855.31
2009/04/23 07:13:32.6     -75     30    -55     82     98 292.2 -41.4  33910  285.36 0855.31
2009/04/23 07:13:32.7     -64     34    -30     73     78 298.0 -27.4  33906  285.29 0855.31
2009/04/23 07:13:32.8      41     43      3     60     61  43.2   2.9  33908  285.31 0855.31
2009/04/23 07:13:32.9      24     86     29     90     95  16.0  17.9  33908  285.31 0855.31
2009/04/23 07:13:33.0     -25     78     46     82     94 342.2  32.4  33906  285.28 0855.31
2009/04/23 07:13:33.1     -47     81     62     94    112 329.7  36.0  33908  285.33 0855.31
2009/04/23 07:13:33.2     -62    138     67    152    166 335.9  25.3  33900  285.18 0855.31
2009/04/23 07:13:33.3     -58    133     63    146    159 336.3  24.6  33904  285.26 0855.31
2009/04/23 07:13:33.4     -11     98     76     99    124 353.3  41.6  33906  285.29 0855.31
2009/04/23 07:13:33.5       0     77     67     78    102   0.0  45.4  33906  285.28 0855.31
2009/04/23 07:13:33.6      16     50     55     53     76  17.8  50.1  33906  285.28 0855.31
2009/04/23 07:13:33.7      21     63     68     67     95  18.3  49.1  33904  285.24 0855.31
2009/04/23 07:13:33.8      19    139    103    141    174   8.0  39.9  33904  285.24 0855.31
2009/04/23 07:13:33.9      46    127     96    136    166  20.0  38.8  33902  285.23 0855.31
2009/04/23 07:13:34.0      42    121     73    129    148  19.2  31.9  33906  285.29 0855.31
2009/04/23 07:13:34.1      -2     88     71     89    113 358.6  43.3  33910  285.34 0855.31
2009/04/23 07:13:34.2      52    155     85    164    184  18.7  29.5  33906  285.28 0855.31
2009/04/23 07:13:34.3      90    155     51    180    188  30.3  16.0  33908  285.31 0855.31
2009/04/23 07:13:34.4      53    124     43    135    142  23.2  17.9  33910  285.34 0855.31
2009/04/23 07:13:34.5      38    109     62    116    131  19.2  30.3  33912  285.39 0855.31
2009/04/23 07:13:34.6      89    116    105    147    180  37.4  39.3  33908  285.33 0855.31
2009/04/23 07:13:34.7     108    153     40    188    193  35.4  12.0  33904  285.26 0855.31
2009/04/23 07:13:34.8     118    128     43    175    181  42.5  13.9  33906  285.29 0855.31
2009/04/23 07:13:34.9      89    140     26    167    170  32.5   9.0  33904  285.26 0855.31
2009/04/23 07:13:35.0      62    116    -25    132    135  28.1 -10.9  33906  285.28 0855.31
2009/04/23 07:13:35.1      77     93     14    122    123  39.7   6.9  33904  285.24 0855.31
2009/04/23 07:13:35.2      52    117     24    129    132  24.1  10.6  33904  285.26 0855.31
2009/04/23 07:13:35.3      62    104     24    122    125  30.7  11.1  33908  285.31 0855.31
2009/04/23 07:13:35.4      52     92     38    106    112  29.4  20.0  33918  285.48 0855.31
2009/04/23 07:13:35.5      42     74     61     86    105  29.4  39.1  33918  285.50 0855.31
2009/04/23 07:13:35.6      90     77     63    119    134  49.6  30.3  33930  285.70 0855.31
2009/04/23 07:13:35.7      89     83     66    122    138  46.9  31.3  33928  285.66 0855.31
2009/04/23 07:13:35.8      86     86     64    123    138  45.0  29.3  33926  285.63 0855.31
2009/04/23 07:13:35.9      99     95     65    138    152  46.4  27.1  33926  285.63 0855.31
2009/04/23 07:13:36.0     118     76     61    141    153  57.1  25.1  33922  285.55 0855.31
2009/04/23 07:13:36.1     111     73     61    134    147  56.7  26.6  33920  285.51 0855.31
2009/04/23 07:13:36.2     102     68     59    123    136  56.3  27.3  33926  285.63 0855.31
2009/04/23 07:13:36.3      86     62     64    107    124  54.1  33.5  33920  285.53 0855.31
2009/04/23 07:13:36.4      92     53     71    107    128  60.2  36.5  33916  285.46 0855.31
2009/04/23 07:13:36.5     101     49     79    113    137  64.2  38.6  33922  285.55 0855.31
2009/04/23 07:13:36.6      75     45     80     88    118  59.3  47.5  33922  285.56 0855.31
2009/04/23 07:13:36.7      80      6     65     81    103  85.6  43.3  33914  285.43 0855.31
2009/04/23 07:13:36.8      58     19     60     62     86  71.6  50.0  33914  285.41 0855.31
2009/04/23 07:13:36.9      43     14     70     46     83  71.8  64.1  33912  285.39 0855.31
2009/04/23 07:13:37.0      34     41     53     54     75  39.6  51.1  33926  285.61 0855.31
2009/04/23 07:13:37.1      42     46     53     63     82  42.3  44.8  33926  285.61 0855.31
2009/04/23 07:13:37.2      26     46     53     54     75  29.9  51.1  33922  285.55 0855.31
2009/04/23 07:13:37.3      12     37     41     39     56  18.3  50.1  33922  285.56 0855.31
2009/04/23 07:13:37.4      -8     15     24     18     30 331.0  58.5  33926  285.63 0855.31
2009/04/23 07:13:37.5      -8      8     31     12     33 313.1  81.2  33926  285.61 0855.31
2009/04/23 07:13:37.6      -8     26     27     28     38 341.3  52.0  33928  285.65 0855.31
2009/04/23 07:13:37.7     -12     38     20     41     45 341.5  28.2  33928  285.66 0855.31
2009/04/23 07:13:37.8      -7     42     26     43     50 350.2  34.4  33928  285.66 0855.31
2009/04/23 07:13:37.9      -7     38     24     39     45 348.4  35.5  33930  285.68 0855.31
2009/04/23 07:13:38.0       3     33     24     34     41   6.2  39.7  33930  285.68 0855.31
2009/04/23 07:13:38.1       2     23     17     24     29   6.2  37.6  33930  285.70 0855.31
2009/04/23 07:13:38.2       7     22     15     24     28  18.3  35.5  33930  285.68 0855.31
2009/04/23 07:13:38.3      15     17      8     24     26  41.4  19.4  33928  285.65 0855.31
2009/04/23 07:13:38.4      18     19      6     27     28  43.4  13.2  33930  285.68 0855.31
2009/04/23 07:13:38.5      23     18      4     30     31  52.2   9.0  33928  285.65 0855.31
2009/04/23 07:13:38.6      36     14     15     39     41  68.3  22.0  33926  285.63 0855.31
2009/04/23 07:13:38.7      55     33     -8     65     66  59.3  -7.2  33924  285.60 0855.31
2009/04/23 07:13:38.8      89     52    -15    104    106  59.8  -8.2  33916  285.46 0855.31
2009/04/23 07:13:38.9      64     46    -31     80     85  54.1 -26.4  33912  285.39 0855.31
2009/04/23 07:13:39.0      76     34     -4     84     85  66.0  -3.1  33914  285.41 0855.31
2009/04/23 07:13:39.1      71     45     30     85     91  57.5  19.4  33910  285.36 0855.31
2009/04/23 07:13:39.2       7     37     60     38     71  11.5  64.7  33914  285.41 0855.31
2009/04/23 07:13:39.3      13     21     66     26     70  32.5  77.1  33912  285.39 0855.31
2009/04/23 07:13:39.4       2    -13     57     14     58 168.4  85.9  33916  285.46 0855.31
2009/04/23 07:13:39.5      38    -24     48     45     65 122.4  52.1  33916  285.44 0855.31
2009/04/23 07:13:39.6      48    -33     50     59     77 124.2  43.8  33918  285.48 0855.31
2009/04/23 07:13:39.7      55    -14     60     57     82 105.1  51.2  33916  285.46 0855.31
2009/04/23 07:13:39.8      81     -5     55     82     98  93.5  37.0  33912  285.39 0855.31
2009/04/23 07:13:39.9      51    -24     74     57     93 115.2  57.9  33912  285.39 0855.31
2009/04/23 07:13:40.0      27     14     58     31     65  62.9  68.9  33912  285.39 0855.31
2009/04/23 07:13:40.1       8     43     57     44     72  11.6  57.5  33916  285.44 0855.31
2009/04/23 07:13:40.2       9     41     54     42     68  12.5  56.4  33914  285.41 0855.31
2009/04/23 07:13:40.3      33     26     46     43     62  51.4  52.1  33910  285.36 0855.31
2009/04/23 07:13:40.4      50     33     57     61     83  56.7  48.5  33910  285.34 0855.31
2009/04/23 07:13:40.5      55     75     63     94    113  36.5  36.5  33920  285.51 0855.31
2009/04/23 07:13:40.6      66     44     69     80    105  55.8  45.4  33918  285.50 0855.31
2009/04/23 07:13:40.8     106     53     70    119    138  63.4  33.4  33920  285.51 0855.31
2009/04/23 07:13:40.9     144     94     81    173    191  56.9  27.1  33918  285.48 0855.31
2009/04/23 07:13:41.0     130     91     64    160    172  54.9  22.8  33918  285.48 0855.31
2009/04/23 07:13:41.1     135     77     47    156    163  60.2  16.8  33918  285.48 0855.31
2009/04/23 07:13:41.2     139     62     20    153    155  66.0   7.5  33920  285.53 0855.31
2009/04/23 07:13:41.3     106     79    -38    133    138  53.1 -20.2  33920  285.53 0855.31
2009/04/23 07:13:41.4      97     57    -23    113    116  59.3 -11.9  33920  285.51 0855.31
2009/04/23 07:13:41.5     109     22    -12    112    113  78.5  -6.2  33920  285.51 0855.31
2009/04/23 07:13:41.6     159     23    -48    161    168  81.6 -21.5  33918  285.50 0855.31
2009/04/23 07:13:41.7     203      4     31    204    207  88.7   8.8  33916  285.46 0855.31
2009/04/23 07:13:41.8     173     13     52    174    182  85.7  16.8  33914  285.43 0855.31
2009/04/23 07:13:41.9     172      1     99    173    199  89.6  32.4  33914  285.41 0855.31
2009/04/23 07:13:42.0     113    -23     97    116    151 101.5  43.8  33912  285.39 0855.32
2009/04/23 07:13:42.1     133    -62     61    147    159 115.2  23.8  33912  285.39 0855.32
2009/04/23 07:13:42.2     115    -78     49    140    149 124.2  19.4  33910  285.36 0855.32
2009/04/23 07:13:42.3     104    -79     30    131    135 127.3  13.2  33914  285.41 0855.32
2009/04/23 07:13:42.4     144    -61     10    157    158 113.1   3.8  33910  285.36 0855.32
2009/04/23 07:13:42.5     172    -45     59    178    188 104.8  18.4  33912  285.38 0855.32
2009/04/23 07:13:42.6     193    -64     78    204    218 108.4  22.0  33914  285.41 0855.32
2009/04/23 07:13:42.7     206    -72     11    219    220 109.3   2.9  33908  285.33 0855.32
2009/04/23 07:13:42.9     172    -81      9    191    192 115.2   2.9  33908  285.33 0855.32
2009/04/23 07:13:43.0     165    -63      9    177    178 111.1   2.9  33912  285.38 0855.32
2009/04/23 07:13:43.1     153    -51    -10    162    163 108.4  -3.7  33910  285.34 0855.32
2009/04/23 07:13:43.2     123    -89     18    153    155 126.0   6.9  33906  285.29 0855.32
2009/04/23 07:13:43.3      77   -103     44    129    137 143.0  18.9  33904  285.24 0855.32
2009/04/23 07:13:43.4      64   -118     41    135    142 151.5  16.8  33900  285.19 0855.32
2009/04/23 07:13:43.5      63   -128     39    143    149 153.7  15.3  33898  285.14 0855.32
2009/04/23 07:13:43.6      44   -130     55    138    148 161.3  23.0  33896  285.11 0855.32
2009/04/23 07:13:43.7      43   -120     57    128    140 159.9  25.2  33898  285.14 0855.32
2009/04/23 07:13:43.8      36   -135     54    140    150 164.9  22.0  33892  285.06 0855.32
2009/04/23 07:13:43.9      41   -125     60    132    145 161.7  26.2  33896  285.13 0855.32
2009/04/23 07:13:44.0      51   -113      6    125    126 155.5   2.9  33898  285.14 0855.32
2009/04/23 07:13:44.1      51   -117     -2    128    129 156.4  -1.3  33898  285.16 0855.32
2009/04/23 07:13:44.2      18   -164     -6    166    167 173.5  -2.3  33902  285.21 0855.32
2009/04/23 07:13:44.3      20   -153    -28    155    158 172.4 -10.3  33904  285.26 0855.32
2009/04/23 07:13:44.4       8   -115    -14    116    117 176.0  -7.3  33900  285.18 0855.32
2009/04/23 07:13:44.5       0   -100    -11    101    102 180.0  -6.2  33902  285.21 0855.32
2009/04/23 07:13:44.6      28   -119    -23    123    126 166.6 -10.9  33902  285.23 0855.32
2009/04/23 07:13:44.7      19   -104    -13    106    107 169.3  -7.2  33904  285.26 0855.32
2009/04/23 07:13:44.8     -14    -70    -33     72     79 191.5 -30.1  33908  285.31 0855.32
2009/04/23 07:13:44.9     -63    -80    -13    103    104 218.3  -7.2  33902  285.23 0855.32
2009/04/23 07:13:45.0     -53   -140     23    150    152 200.9   9.0  33902  285.23 0855.32
2009/04/23 07:13:45.1     -49   -184     58    191    200 195.1  17.1  33906  285.29 0855.32
2009/04/23 07:13:45.2     -25   -180     92    182    203 188.0  29.2  33908  285.31 0855.32
2009/04/23 07:13:45.3       0   -171     79    172    189 180.0  26.6  33912  285.39 0855.32
2009/04/23 07:13:45.5       0   -173     40    174    179 179.8  13.2  33914  285.41 0855.32
2009/04/23 07:13:45.6      11   -149     29    150    153 175.5  11.1  33918  285.48 0855.32
2009/04/23 07:13:45.7      14   -130     25    131    134 173.7  11.1  33914  285.43 0855.32
2009/04/23 07:13:45.8      25   -127     19    130    132 168.9   8.5  33916  285.46 0855.32
2009/04/23 07:13:45.9      50   -138     34    147    152 159.9  13.2  33912  285.39 0855.32
2009/04/23 07:13:46.0      10   -138     52    139    148 175.5  21.0  33912  285.38 0855.32
2009/04/23 07:13:46.1      -2   -135     37    136    141 180.9  15.3  33912  285.38 0855.31
2009/04/23 07:13:46.2      19   -131     31    133    137 171.5  13.2  33910  285.36 0855.31
2009/04/23 07:13:46.3      26   -126     25    129    132 168.0  11.0  33912  285.39 0855.31
2009/04/23 07:13:46.4      31    -85     17     91     93 160.0  11.0  33912  285.39 0855.31
2009/04/23 07:13:46.5      55    -80     26     98    102 145.7  15.2  33912  285.39 0855.31
2009/04/23 07:13:46.6      30    -87     16     93     95 160.8  10.1  33912  285.39 0855.31
2009/04/23 07:13:46.7      18    -96     32     98    104 168.9  18.4  33912  285.38 0855.31
2009/04/23 07:13:46.8      -5   -146     28    147    150 182.2  11.1  33908  285.33 0855.31
2009/04/23 07:13:46.9       0   -151     19    152    154 180.4   7.1  33910  285.36 0855.31
2009/04/23 07:13:47.0     -12   -162     54    163    172 184.5  18.4  33912  285.39 0855.31
2009/04/23 07:13:47.1     -21   -151     53    153    163 188.0  19.2  33910  285.36 0855.31
2009/04/23 07:13:47.2     -17   -123     77    125    146 188.0  35.5  33914  285.41 0855.31
2009/04/23 07:13:47.3     -45   -117    109    126    166 201.4  45.4  33910  285.36 0855.31
2009/04/23 07:13:47.4     -54   -129    101    140    172 202.7  39.1  33910  285.34 0855.31
2009/04/23 07:13:47.5     -27   -136     95    139    168 191.5  37.6  33912  285.38 0855.31
2009/04/23 07:13:47.6     -20   -174     61    176    187 186.7  19.2  33914  285.41 0855.31
2009/04/23 07:13:47.7      22   -188     37    190    194 173.1  11.1  33908  285.31 0855.31
2009/04/23 07:13:47.8      26   -164     52    167    175 170.9  17.3  33914  285.41 0855.31
2009/04/23 07:13:47.9      27   -193     45    195    201 171.9  13.2  33912  285.38 0855.31
2009/04/23 07:13:48.0      41   -167     52    172    180 166.2  17.1  33914  285.41 0855.31
2009/04/23 07:13:48.1      52   -172     63    180    191 163.1  19.4  33912  285.39 0855.31
2009/04/23 07:13:48.2      52   -172     63    180    191 163.1  19.4  33912  285.39 0855.31
2009/04/23 07:13:48.3      19   -133     63    135    148 171.9  27.1  33910  285.36 0855.31
2009/04/23 07:13:48.4      -4    -78     69     79    104 183.6  45.8  33910  285.36 0855.31
2009/04/23 07:13:48.5     -21   -103     76    106    130 191.6  39.5  33912  285.39 0855.31
2009/04/23 07:13:48.6     -14    -98     83    100    129 188.5  43.8  33916  285.44 0855.31
2009/04/23 07:13:48.7     -41   -103     66    111    129 201.8  33.5  33912  285.39 0855.31
2009/04/23 07:13:48.8     -22   -110     71    113    133 191.6  35.5  33916  285.44 0855.31
2009/04/23 07:13:48.9     -37   -105     64    112    128 199.6  32.4  33920  285.53 0855.31
2009/04/23 07:13:49.0     -24    -74     47     78     91 198.3  34.0  33918  285.50 0855.31
2009/04/23 07:13:49.1      33    -52     51     62     80 147.4  43.7  33918  285.50 0855.31
2009/04/23 07:13:49.2      73    -65     58     99    114 131.8  33.5  33916  285.44 0855.31
2009/04/23 07:13:49.3       0   -116     40    117    124 180.0  18.9  33916  285.44 0855.31
2009/04/23 07:13:49.4       8   -102     43    103    111 175.5  23.6  33920  285.51 0855.31
2009/04/23 07:13:49.5      30    -55     53     63     82 151.0  44.8  33916  285.44 0855.31
2009/04/23 07:13:49.6       7    -54     75     55     93 172.0  60.0  33916  285.44 0855.31
2009/04/23 07:13:49.7       7    -62     49     63     79 172.9  42.2  33912  285.39 0855.31
2009/04/23 07:13:49.8      -7    -58     47     59     75 187.1  43.7  33914  285.41 0855.31
2009/04/23 07:13:49.9     -20    -45     58     50     76 204.5  55.4  33916  285.44 0855.31
2009/04/23 07:13:50.0      20    -42     65     47     80 154.6  60.5  33912  285.38 0855.31
2009/04/23 07:13:50.1       3    -22     71     23     74 170.2  80.7  33912  285.39 0855.30
2009/04/23 07:13:50.2      -8    -73     86     74    113 186.2  54.8  33914  285.43 0855.30
2009/04/23 07:13:50.3      -8    -95     96     96    135 185.3  50.1  33914  285.41 0855.30
2009/04/23 07:13:50.4       0    -43     64     44     77 180.9  62.6  33908  285.33 0855.30
2009/04/23 07:13:50.5       7      8     41     11     42  39.6  84.9  33906  285.29 0855.30
2009/04/23 07:13:50.6      -1     13     35     14     37 353.8  79.2  33908  285.33 0855.30
2009/04/23 07:13:50.7       9      3     37     10     38  68.3  82.8  33908  285.31 0855.30
2009/04/23 07:13:50.8      12    -16     58     21     61 142.2  80.2  33910  285.36 0855.30
2009/04/23 07:13:50.9     -37    -45     84     59    102 219.6  61.1  33910  285.34 0855.30
2009/04/23 07:13:51.0     -70    -29     72     76    104 247.4  49.0  33910  285.34 0855.30
2009/04/23 07:13:51.1     -89     54     38    105    111 301.1  20.0  33906  285.29 0855.29
2009/04/23 07:13:51.2     -56    120     31    133    137 334.7  13.2  33906  285.28 0855.29
2009/04/23 07:13:51.3     -31     99     28    104    108 342.2  15.3  33908  285.33 0855.29
2009/04/23 07:13:51.4     -31     91    -19     97     99 340.8 -11.3  33910  285.34 0855.29
2009/04/23 07:13:51.5       6     86      3     87     88   4.0   2.3  33914  285.43 0855.29
2009/04/23 07:13:51.6      53     89     46    104    113  30.7  25.7  33916  285.46 0855.29
2009/04/23 07:13:51.7      39    117     75    124    144  18.7  34.4  33918  285.48 0855.29
2009/04/23 07:13:51.8       0    183    102    184    210   0.0  31.4  33916  285.44 0855.29
2009/04/23 07:13:51.9     -10    140     69    141    156 355.5  28.0  33920  285.53 0855.29
2009/04/23 07:13:52.0     -20    139     71    141    157 351.5  29.1  33922  285.55 0855.29
2009/04/23 07:13:52.1     -36    107     60    113    127 341.3  29.8  33922  285.56 0855.29
2009/04/23 07:13:52.2     -56     56     71     80    106 315.0  46.9  33922  285.55 0855.29
2009/04/23 07:13:52.3     -63     35     77     73    106 298.9  51.6  33918  285.50 0855.29
2009/04/23 07:13:52.4    -134    -99     55    167    176 233.4  18.4  33920  285.53 0855.29
2009/04/23 07:13:52.5     -39   -130    127    136    186 196.9  47.9  33916  285.44 0855.29
2009/04/23 07:13:52.6     -24   -129    211    132    248 190.7  64.9  33918  285.48 0855.29
2009/04/23 07:13:52.7     -86     46    109     98    146 298.0  53.3  33920  285.53 0855.29
2009/04/23 07:13:52.8    -105    -33     85    111    139 252.7  41.6  33916  285.44 0855.29
2009/04/23 07:13:52.9     -71    -63     18     96     98 228.2  11.1  33918  285.48 0855.29
2009/04/23 07:13:53.0     -69   -101     45    123    130 214.3  21.0  33916  285.46 0855.29
2009/04/23 07:13:53.1     -29   -122    104    126    163 193.4  43.7  33920  285.53 0855.29
2009/04/23 07:13:53.2      -1    -73    130     74    149 180.9  68.3  33920  285.53 0855.29
2009/04/23 07:13:53.3     -20    -79    129     82    152 194.3  64.7  33922  285.56 0855.29
2009/04/23 07:13:53.4      -2    -30    102     31    106 184.5  82.3  33920  285.53 0855.29
2009/04/23 07:13:53.5      39      5     87     40     95  82.1  73.5  33916  285.44 0855.29
2009/04/23 07:13:53.6     -29      8     86     31     91 285.1  80.2  33916  285.44 0855.29
2009/04/23 07:13:53.7       6     26     80     27     84  13.4  81.0  33916  285.44 0855.29
2009/04/23 07:13:53.8      -2     34     62     35     71 355.5  68.8  33916  285.44 0855.29
2009/04/23 07:13:53.9      -5      8     41     10     42 327.5  86.9  33916  285.46 0855.29
2009/04/23 07:13:54.0     -12     31     53     34     62 338.2  64.7  33916  285.44 0855.29
2009/04/23 07:13:54.1       6     -5     60      8     60 129.5  90.0  33916  285.44 0855.29
2009/04/23 07:13:54.2     -18      7     36     20     41 291.7  68.8  33918  285.48 0855.29
2009/04/23 07:13:54.3       5     16     24     17     29  18.7  62.6  33920  285.51 0855.29
2009/04/23 07:13:54.4     -10     14     39     18     42 323.9  74.0  33916  285.44 0855.29
2009/04/23 07:13:54.5      -7     22     46     24     51 341.3  70.8  33914  285.41 0855.29
2009/04/23 07:13:54.6      10     50      2     52     53  11.5   2.9  33914  285.43 0855.29
2009/04/23 07:13:54.7      24     46     27     53     59  28.1  29.3  33914  285.41 0855.29
2009/04/23 07:13:54.8      49     46     43     68     80  46.9  35.5  33914  285.43 0855.29
2009/04/23 07:13:54.9      36     35      2     51     52  45.9   2.9  33914  285.43 0855.29
2009/04/23 07:13:55.0      21     74     20     77     80  16.0  14.7  33914  285.43 0855.29
2009/04/23 07:13:55.1      13     89     17     90     92   8.5  11.0  33916  285.46 0855.29
2009/04/23 07:13:55.2       5     67     29     68     73   4.4  23.1  33914  285.43 0855.29
2009/04/23 07:13:55.3     -30     45     49     55     73 325.7  47.9  33914  285.43 0855.29
2009/04/23 07:13:55.4     -50     21     23     55     59 292.6  23.1  33916  285.46 0855.29
2009/04/23 07:13:55.5     -56      1     11     57     59 271.7  11.0  33914  285.41 0855.29
2009/04/23 07:13:55.6     -56     26     -3     62     63 295.3  -3.1  33914  285.43 0855.29
2009/04/23 07:13:55.7     -37      7      4     38     39 281.4   5.9  33914  285.41 0855.29
2009/04/23 07:13:55.8     -54     21     26     59     64 291.7  24.1  33904  285.24 0855.29
2009/04/23 07:13:55.9     -75    -10     27     76     80 262.1  20.0  33902  285.23 0855.29
2009/04/23 07:13:56.0     -62     12      9     64     65 281.5   8.0  33908  285.31 0855.29
2009/04/23 07:13:56.1     -34      4     -1     35     36 277.9  -3.1  33910  285.36 0855.29
2009/04/23 07:13:56.2     -11     18     42     22     47 329.3  69.8  33904  285.26 0855.29
2009/04/23 07:13:56.3     -14     42     57     45     72 340.8  56.4  33910  285.34 0855.29
2009/04/23 07:13:56.4      -3      4     26      6     26 320.4  86.9  33906  285.29 0855.29
2009/04/23 07:13:56.5     -37     -5     45     38     58 262.1  55.4  33906  285.28 0855.29
2009/04/23 07:13:56.6     -67     -4     48     68     83 266.5  39.1  33910  285.34 0855.29
2009/04/23 07:13:56.7     -22    -58     38     63     73 200.9  34.4  33912  285.38 0855.29
2009/04/23 07:13:56.8       0    -62      0     63     64 179.1  -0.3  33910  285.36 0855.29
2009/04/23 07:13:56.9       7    -66    -14     67     69 173.8 -12.4  33910  285.34 0855.29
2009/04/23 07:13:57.0     -47    -47     -4     67     68 225.0  -4.1  33910  285.34 0855.29
2009/04/23 07:13:57.1     -60    -28     23     67     71 244.8  18.9  33914  285.41 0855.29
2009/04/23 07:13:57.2     -71    -59     51     93    106 230.0  31.4  33914  285.41 0855.29
2009/04/23 07:13:57.3     -72    -59     38     94    101 230.5  23.0  33912  285.38 0855.29
2009/04/23 07:13:57.4     -93    -60     35    111    117 237.1  17.4  33914  285.41 0855.29
2009/04/23 07:13:57.5     -51    -85    -30    100    105 211.2 -16.6  33912  285.38 0855.29
2009/04/23 07:13:57.6     -71    -59     51     93    106 230.4  31.4  33914  285.41 0855.29
2009/04/23 07:13:57.7     -70    -66     34     97    103 226.9  19.4  33914  285.41 0855.29
2009/04/23 07:13:57.8     -80    -75     34    110    116 226.8  17.4  33916  285.44 0855.29
2009/04/23 07:13:57.9     -26    -64     71     70     99 201.9  50.1  33914  285.43 0855.29
2009/04/23 07:13:58.0     -41    -46     80     62    101 221.4  57.9  33916  285.44 0855.29
2009/04/23 07:13:58.1     -71    -56     93     91    130 231.4  50.1  33914  285.41 0855.29
2009/04/23 07:13:58.2     -93    -29     59     98    114 252.3  34.4  33914  285.41 0855.29
2009/04/23 07:13:58.3     -78    -32     41     85     94 247.4  27.3  33916  285.44 0855.29
2009/04/23 07:13:58.4     -71    -19     50     74     89 255.0  37.0  33910  285.36 0855.29
2009/04/23 07:13:58.5     -69    -26     25     74     79 249.2  19.2  33914  285.43 0855.29
2009/04/23 07:13:58.6     -47    -18     -2     51     52 249.2  -2.2  33912  285.39 0855.29
2009/04/23 07:13:58.7     -55     -4      2     56     57 265.7   2.9  33912  285.38 0855.29
2009/04/23 07:13:58.8     -26    -20     10     34     36 232.2  17.3  33910  285.36 0855.29
2009/04/23 07:13:58.9       3    -22     17     23     28 170.2  41.7  33912  285.39 0855.29
2009/04/23 07:13:59.0      22      0     35     23     41  90.0  63.6  33916  285.44 0855.29
2009/04/23 07:13:59.1       6     -1     55      7     55 101.5  90.0  33916  285.46 0855.30
2009/04/23 07:13:59.2      32     51     59     61     84  32.6  50.0  33914  285.43 0855.30
2009/04/23 07:13:59.3      69     96     28    119    123  36.0  13.2  33916  285.46 0855.30
2009/04/23 07:13:59.4     112     93     28    146    149  50.4  11.1  33918  285.50 0855.30
2009/04/23 07:13:59.5      91     75     31    119    124  50.5  14.7  33918  285.50 0855.30
2009/04/23 07:13:59.6      70    130     66    148    162  28.5  25.7  33912  285.39 0855.30
2009/04/23 07:13:59.7      76    131     38    152    157  30.3  14.3  33918  285.48 0855.30
2009/04/23 07:13:59.8      14    123     16    124    126   6.7   7.5  33916  285.46 0855.30
2009/04/23 07:13:59.9     -65     80     -2    104    105 320.8  -1.3  33916  285.44 0855.30
2009/04/23 07:14:00.0     -66     94      2    116    117 324.8   1.2  33910  285.36 0855.30
2009/04/23 07:14:00.1     -62     91     -2    111    112 325.7  -1.3  33914  285.41 0855.30
2009/04/23 07:14:00.2     -65     41     -7     78     79 302.5  -5.2  33910  285.34 0855.30
2009/04/23 07:14:00.3     -34     48     -2     59     60 324.8  -2.2  33914  285.43 0855.30
2009/04/23 07:14:00.4       6     49     30     50     58   7.1  35.5  33914  285.43 0855.30
2009/04/23 07:14:00.5      32     50     51     60     78  32.6  45.4  33918  285.50 0855.30
2009/04/23 07:14:00.6      31     52     29     61     67  30.7  27.2  33916  285.44 0855.30
2009/04/23 07:14:00.7      54     25     49     60     77  64.6  43.7  33916  285.44 0855.30
2009/04/23 07:14:00.8      42     16     37     46     59  68.3  43.7  33916  285.46 0855.30
2009/04/23 07:14:00.9       2    -34     74     35     81 175.5  73.5  33916  285.44 0855.30
2009/04/23 07:14:01.0      -1    -17     64     18     66 184.5  83.9  33914  285.43 0855.30
2009/04/23 07:14:01.1      11      0     53     12     54  90.0  88.0  33914  285.43 0855.30
2009/04/23 07:14:01.2       2    -35     69     36     77 175.6  70.8  33916  285.44 0855.30
2009/04/23 07:14:01.3      -2    -48     77     49     91 182.7  64.7  33914  285.41 0855.30
2009/04/23 07:14:01.4      -8    -43     72     44     84 190.7  65.1  33914  285.41 0855.30
2009/04/23 07:14:01.5     -80    -54     53     97    110 235.8  31.3  33912  285.39 0855.30
2009/04/23 07:14:01.6    -104    -67     98    124    158 237.1  42.4  33910  285.36 0855.30
2009/04/23 07:14:01.7    -105    -57     54    120    131 241.1  26.2  33912  285.39 0855.30
2009/04/23 07:14:01.8    -115    -67     31    134    138 239.8  13.2  33914  285.41 0855.30
2009/04/23 07:14:01.9    -109    -48     51    120    130 246.0  24.6  33912  285.38 0855.30
2009/04/23 07:14:02.0    -101    -28     70    105    126 254.5  36.5  33910  285.36 0855.30
2009/04/23 07:14:02.1    -115    -54     45    128    136 244.7  19.4  33914  285.43 0855.30
2009/04/23 07:14:02.2    -119    -28     16    123    125 256.7   7.5  33916  285.44 0855.30
2009/04/23 07:14:02.3    -130      0     35    131    136 270.0  15.3  33910  285.36 0855.30
2009/04/23 07:14:02.4    -118     22     41    121    128 280.6  18.9  33908  285.31 0855.30
2009/04/23 07:14:02.5    -101     40     69    109    129 291.7  35.5  33912  285.38 0855.30
2009/04/23 07:14:02.6     -54      7     87     55    102 277.9  64.7  33910  285.36 0855.30
2009/04/23 07:14:02.7      -1     -6     73      7     73 189.7  90.0  33910  285.36 0855.30
2009/04/23 07:14:02.8      -1      6     73      7     73 350.3  90.0  33912  285.38 0855.30
2009/04/23 07:14:02.9      27     11     68     30     74  68.3  75.0  33914  285.43 0855.30
2009/04/23 07:14:03.0      27     -9     84     29     88 108.6  81.2  33920  285.53 0855.30
2009/04/23 07:14:03.1      15    -75    115     77    138 168.5  62.7  33920  285.53 0855.30
2009/04/23 07:14:03.2     -22   -108     90    111    142 191.5  43.7  33922  285.55 0855.30
2009/04/23 07:14:03.3     -10   -117     93    118    150 184.9  42.7  33922  285.55 0855.30
2009/04/23 07:14:03.4      19   -121     60    123    136 170.7  27.3  33924  285.58 0855.30
2009/04/23 07:14:03.5      43   -106    101    115    153 157.7  45.9  33920  285.53 0855.30
2009/04/23 07:14:03.6       2   -116     57    117    130 178.6  27.3  33920  285.53 0855.30
2009/04/23 07:14:03.7      39    -98     97    106    143 158.2  47.9  33918  285.50 0855.30
2009/04/23 07:14:03.8       0   -118     59    119    132 180.0  27.8  33920  285.51 0855.30
2009/04/23 07:14:03.9      -6   -108     95    109    144 183.6  45.8  33920  285.53 0855.30
2009/04/23 07:14:04.0      -5   -108     68    109    128 182.7  35.5  33920  285.51 0855.30
2009/04/23 07:14:04.1     -23   -103     71    106    127 192.9  37.0  33922  285.56 0855.30
2009/04/23 07:14:04.2     -20    -90     81     93    123 192.5  45.8  33920  285.53 0855.30
2009/04/23 07:14:04.3     -36   -108     75    115    137 198.7  36.0  33918  285.50 0855.30
2009/04/23 07:14:04.4     -39   -109     68    117    135 200.0  33.4  33918  285.48 0855.30
2009/04/23 07:14:04.6     -46   -133     99    141    172 199.2  38.4  33920  285.51 0855.30
2009/04/23 07:14:04.7     -55   -147     90    158    181 200.5  32.4  33920  285.51 0855.30
2009/04/23 07:14:04.8     -28   -111    107    115    157 194.3  47.9  33922  285.56 0855.30
2009/04/23 07:14:04.9     -21   -121    107    123    163 190.2  45.8  33922  285.55 0855.30
2009/04/23 07:14:05.0     -66    -91     68    113    131 216.1  34.0  33918  285.48 0855.30
2009/04/23 07:14:05.1     -63    -98     50    117    127 212.6  24.6  33916  285.44 0855.29
2009/04/23 07:14:05.2     -91    -72     48    117    126 231.8  23.1  33912  285.39 0855.29
2009/04/23 07:14:05.3    -108    -19     49    110    120 259.9  25.2  33912  285.39 0855.29
2009/04/23 07:14:05.4    -117    -69     53    137    146 239.4  22.0  33912  285.38 0855.29
2009/04/23 07:14:05.5     -18    -25     62     31     69 216.1  72.8  33914  285.43 0855.29
2009/04/23 07:14:05.6      -7    -62     76     63     98 187.1  56.3  33916  285.46 0855.29
2009/04/23 07:14:05.7     -82    -49     56     96    111 238.9  32.9  33916  285.44 0855.29
2009/04/23 07:14:05.8     -38    -46     21     61     65 219.6  19.4  33918  285.48 0855.29
2009/04/23 07:14:05.9     -10    -45     37     47     59 192.5  42.7  33918  285.48 0855.29
2009/04/23 07:14:06.0     -26   -100     47    104    114 194.7  26.2  33918  285.50 0855.29
2009/04/23 07:14:06.1     -44   -106     34    115    121 202.7  16.8  33922  285.55 0855.29
2009/04/23 07:14:06.2     -45    -70     26     84     88 212.6  17.3  33918  285.50 0855.29
2009/04/23 07:14:06.3      -8    -92     28     93     98 185.3  16.8  33920  285.51 0855.29
2009/04/23 07:14:06.4      -8   -106     -2    107    108 184.4  -1.3  33920  285.53 0855.29
2009/04/23 07:14:06.5     -16    -93    -13     95     96 190.2  -8.2  33918  285.48 0855.29
2009/04/23 07:14:06.6     -40    -85     17     95     97 205.4  10.6  33918  285.48 0855.29
2009/04/23 07:14:06.7     -41    -87      3     97     98 205.4   2.3  33918  285.48 0855.29
2009/04/23 07:14:06.8     -41   -118     29    125    129 199.2  13.2  33918  285.50 0855.29
2009/04/23 07:14:06.9     -46   -104     -2    115    116 204.1  -1.3  33920  285.51 0855.29
2009/04/23 07:14:07.0     -20   -114      9    116    117 190.2   4.9  33918  285.50 0855.29
2009/04/23 07:14:07.1       3   -101      0    102    103 177.8  -0.3  33922  285.55 0855.30
2009/04/23 07:14:07.2      21   -114     -9    117    118 169.3  -4.6  33922  285.55 0855.30
2009/04/23 07:14:07.3      33   -100    -32    106    111 161.7 -17.0  33918  285.50 0855.30
2009/04/23 07:14:07.4      16   -107    -38    109    115 171.1 -23.3  33918  285.50 0855.30
2009/04/23 07:14:07.5      -4    -92     -2     93     94 182.7  -1.8  33920  285.53 0855.30
2009/04/23 07:14:07.6       2    -76     -4     77     78 178.2  -3.1  33920  285.53 0855.30
2009/04/23 07:14:07.7      50    -71     -2     87     88 144.8  -1.8  33918  285.48 0855.30
2009/04/23 07:14:07.8      42    -31     -8     53     54 126.0  -9.3  33920  285.51 0855.30
2009/04/23 07:14:07.9      15    -16    -33     22     39 136.8 -68.0  33920  285.53 0855.30
2009/04/23 07:14:08.0       0    -21    -38     22     43 180.9 -72.1  33916  285.46 0855.30
2009/04/23 07:14:08.1      -1    -30    -46     31     55 182.6 -69.0  33916  285.46 0855.30
2009/04/23 07:14:08.2      -7    -32    -42     33     53 193.4 -60.8  33916  285.46 0855.30
2009/04/23 07:14:08.3     -18    -30    -37     36     51 210.7 -54.5  33916  285.46 0855.30
2009/04/23 07:14:08.4     -14    -36    -35     39     52 201.8 -51.3  33918  285.50 0855.30
2009/04/23 07:14:08.6     -36    -24    -29     44     52 236.7 -40.0  33920  285.53 0855.30
2009/04/23 07:14:08.7     -33     -6    -36     34     49 258.5 -54.5  33916  285.46 0855.30
2009/04/23 07:14:08.8     -27      0    -40     28     48 270.0 -65.9  33912  285.39 0855.30
2009/04/23 07:14:08.9     -12     14    -39     19     43 320.4 -77.3  33910  285.34 0855.30
2009/04/23 07:14:09.0     -30     14    -30     34     45 295.3 -51.3  33906  285.29 0855.30
2009/04/23 07:14:09.1     -24     15    -32     29     43 302.4 -56.6  33908  285.33 0855.31
2009/04/23 07:14:09.2     -28     19    -35     34     48 304.2 -53.5  33910  285.34 0855.31
2009/04/23 07:14:09.4     -24     15    -32     29     43 302.4 -56.6  33908  285.33 0855.31
2009/04/23 07:14:09.4     -21     12    -32     25     40 300.7 -62.9  33908  285.33 0855.31
2009/04/23 07:14:09.5      -7      6    -28     10     29 313.1 -85.6  33910  285.34 0855.31
2009/04/23 07:14:09.6       3      0    -22      4     22  90.0 -90.0  33906  285.29 0855.31
2009/04/23 07:14:09.7       0      0    -20      0     20   0.0 -90.0  33908  285.31 0855.31
2009/04/23 07:14:09.8       0     -7    -15      8     17 175.5 -73.2  33906  285.29 0855.31
2009/04/23 07:14:09.9       0    -11    -18     12     21 179.1 -67.0  33908  285.33 0855.31
2009/04/23 07:14:10.0     -11    -18    -31     22     38 210.7 -67.0  33912  285.39 0855.31
2009/04/23 07:14:10.1     -16    -18    -28     25     37 221.4 -56.6  33914  285.41 0855.31
2009/04/23 07:14:10.2       0    -21    -26     22     34 180.9 -58.7  33916  285.44 0855.31
2009/04/23 07:14:10.3      -4    -13    -24     14     27 198.7 -69.1  33910  285.36 0855.31
2009/04/23 07:14:10.4       0    -13    -26     14     29 182.7 -73.2  33912  285.39 0855.31
2009/04/23 07:14:10.5      -3    -21    -24     22     32 189.8 -54.5  33918  285.48 0855.31
2009/04/23 07:14:10.7       0    -32    -18     33     37 179.1 -35.8  33918  285.50 0855.31
2009/04/23 07:14:10.8       0    -33    -17     34     38 180.9 -31.7  33918  285.50 0855.31
2009/04/23 07:14:10.9     -10    -37    -15     39     41 195.1 -26.4  33920  285.53 0855.31
2009/04/23 07:14:11.0      -5    -31    -11     32     33 189.8 -23.6  33920  285.53 0855.31
2009/04/23 07:14:11.1      -2    -37    -12     38     40 184.5 -17.6  33918  285.48 0855.31
2009/04/23 07:14:11.2      -6    -30     -4     31     32 191.5  -7.3  33918  285.48 0855.30
2009/04/23 07:14:11.3      -1    -32    -13     33     35 182.6 -25.4  33920  285.51 0855.30
2009/04/23 07:14:11.4       3    -45    -15     46     48 175.5 -23.8  33920  285.53 0855.30
2009/04/23 07:14:11.5      15    -45    -18     48     51 161.5 -25.4  33920  285.51 0855.30
2009/04/23 07:14:11.6       7    -37     -4     38     39 168.4  -7.3  33918  285.50 0855.30
2009/04/23 07:14:11.7      17    -50     -2     54     55 160.8  -2.2  33918  285.50 0855.30
2009/04/23 07:14:11.8      24    -36     10     44     46 145.7  13.2  33920  285.53 0855.30
2009/04/23 07:14:11.9      17    -37     21     41     46 154.5  29.3  33918  285.50 0855.30
2009/04/23 07:14:12.0      19    -43     39     48     61 156.4  43.7  33918  285.50 0855.30
2009/04/23 07:14:12.1      39    -38     34     55     64 134.1  35.5  33916  285.46 0855.30
2009/04/23 07:14:12.2      11    -58     30     60     67 169.3  28.2  33918  285.50 0855.30
2009/04/23 07:14:12.3       5    -68      8     69     70 175.6   6.9  33918  285.48 0855.30
2009/04/23 07:14:12.4       5    -47     -1     48     49 173.8  -2.2  33918  285.50 0855.30
2009/04/23 07:14:12.5       0    -46     20     47     51 180.0  24.1  33918  285.48 0855.30
2009/04/23 07:14:12.6       4    -53      8     54     55 175.5   9.0  33918  285.48 0855.30
2009/04/23 07:14:12.7      18    -47    -15     51     54 158.2 -16.6  33920  285.51 0855.30
2009/04/23 07:14:12.8      -4    -34    -14     35     37 188.0 -25.4  33918  285.50 0855.30
2009/04/23 07:14:12.9     -12    -37      0     39     40 198.3  -1.3  33920  285.53 0855.30
2009/04/23 07:14:13.0       3    -46     17     47     49 175.5  20.0  33916  285.44 0855.30
2009/04/23 07:14:13.1       9    -27     17     29     33 160.0  33.5  33920  285.51 0855.30
2009/04/23 07:14:13.2      -1    -30     19     31     36 182.6  35.5  33918  285.48 0855.30
2009/04/23 07:14:13.3      -3    -30     15     31     34 186.2  27.2  33920  285.53 0855.30
2009/04/23 07:14:13.4      -6    -33      6     34     35 191.6  11.1  33920  285.51 0855.30
2009/04/23 07:14:13.5      -4    -56     -2     57     58 184.5  -2.2  33918  285.50 0855.30
2009/04/23 07:14:13.6     -11    -71      4     72     73 188.9   3.8  33918  285.48 0855.30
2009/04/23 07:14:13.7      -7    -68      8     69     70 186.2   7.1  33920  285.53 0855.30
2009/04/23 07:14:13.8       6    -78     20     79     82 175.5  14.7  33922  285.55 0855.30
2009/04/23 07:14:13.9       0    -75     -8     76     77 180.0  -6.2  33918  285.50 0855.30
2009/04/23 07:14:14.0       6    -70    -24     71     74 174.7 -23.6  33920  285.53 0855.30
2009/04/23 07:14:14.1       0    -78    -27     79     84 180.5 -19.1  33918  285.50 0855.30
2009/04/23 07:14:14.2       7    -66    -21     67     70 173.8 -23.8  33920  285.51 0855.30
2009/04/23 07:14:14.3      -7    -65     -8     66     67 186.2  -7.2  33918  285.50 0855.30
2009/04/23 07:14:14.4       1    -71      4     72     73 179.1   3.8  33918  285.50 0855.30
2009/04/23 07:14:14.5     -10    -91    -10     92     93 186.7  -6.2  33920  285.51 0855.30
2009/04/23 07:14:14.6     -15    -77    -15     79     81 191.6 -10.9  33918  285.48 0855.30
2009/04/23 07:14:14.7     -29   -100     -5    105    106 196.5  -3.2  33920  285.51 0855.30
2009/04/23 07:14:14.8     -26   -131     35    134    139 191.6  14.7  33922  285.55 0855.30
2009/04/23 07:14:14.9     -34   -161     15    165    166 192.0   5.4  33920  285.53 0855.30
2009/04/23 07:14:15.0     -36   -151    -15    156    157 193.4  -5.6  33918  285.48 0855.30
2009/04/23 07:14:15.1     -33   -121    -19    126    128 195.6  -8.8  33920  285.51 0855.30
2009/04/23 07:14:15.2     -13   -144     21    145    147 185.3   8.5  33920  285.51 0855.30
2009/04/23 07:14:15.3      -4   -163     16    164    165 181.6   5.9  33922  285.56 0855.30
2009/04/23 07:14:15.4     -21   -154     19    156    158 188.0   7.2  33920  285.51 0855.30
2009/04/23 07:14:15.5     -19   -163     25    165    167 186.7   8.8  33920  285.53 0855.30
2009/04/23 07:14:15.6     -42   -173      0    179    180 193.8   0.0  33920  285.53 0855.30
2009/04/23 07:14:15.7     -42   -160    -14    166    167 194.9  -4.9  33920  285.51 0855.30
2009/04/23 07:14:15.8     -25   -184    -10    186    187 187.8  -3.2  33920  285.51 0855.30
2009/04/23 07:14:15.9     -82   -190    -14    208    209 203.4  -3.9  33920  285.51 0855.30
2009/04/23 07:14:16.0    -129   -186    -69    227    238 214.7 -17.0  33920  285.52 0855.30
2009/04/23 07:14:16.1    -162   -204    -57    261    268 218.5 -12.4  33920  285.52 0855.30
2009/04/23 07:14:16.2    -140   -189     -9    236    237 216.5  -2.2  33922  285.54 0855.30
2009/04/23 07:14:16.3    -136   -187    -19    232    233 216.1  -4.9  33922  285.55 0855.30
2009/04/23 07:14:16.4    -163   -240    -42    291    295 214.2  -8.2  33922  285.54 0855.30
2009/04/23 07:14:16.5    -166   -227    -61    282    289 216.1 -12.4  33920  285.51 0855.30
2009/04/23 07:14:16.6    -143   -209    -51    254    260 214.5 -11.5  33922  285.54 0855.30
2009/04/23 07:14:16.7    -128   -202    -31    240    243 212.5  -7.5  33920  285.52 0855.30
2009/04/23 07:14:16.8    -123   -231    -33    262    265 208.1  -7.2  33920  285.52 0855.30
2009/04/23 07:14:16.9    -103   -202    -20    227    228 207.1  -5.2  33920  285.53 0855.30
2009/04/23 07:14:17.0     -94   -200    -26    222    224 205.3  -6.9  33920  285.53 0855.30
2009/04/23 07:14:17.1    -106   -198    -58    225    233 208.1 -14.5  33918  285.50 0855.30
2009/04/23 07:14:17.2    -123   -216    -26    249    251 209.6  -6.0  33922  285.54 0855.30
2009/04/23 07:14:17.3    -125   -254    -29    284    286 206.3  -6.0  33920  285.51 0855.30
2009/04/23 07:14:17.4    -160   -260    -33    306    308 211.6  -6.2  33922  285.54 0855.30
2009/04/23 07:14:17.5    -165   -226    -25    280    282 216.1  -5.2  33920  285.51 0855.30
2009/04/23 07:14:17.6    -183   -170    -67    250    259 227.1 -15.0  33922  285.54 0855.30
2009/04/23 07:14:17.7    -158   -164    -64    228    236 223.9 -20.4  33922  285.54 0855.30
2009/04/23 07:14:17.8    -131   -205    -72    244    255 212.6 -16.4  33920  285.52 0855.30
2009/04/23 07:14:17.9    -153   -205    -60    256    263 216.7 -13.3  33920  285.52 0855.30
2009/04/23 07:14:18.0    -152   -196    -83    249    263 217.8 -18.6  33920  285.52 0855.30
2009/04/23 07:14:18.1     -78   -229    -67    243    253 198.9 -15.5  33926  285.61 0855.30
2009/04/23 07:14:18.2     -68   -236     -5    246    247 196.1  -1.3  33926  285.61 0855.31
2009/04/23 07:14:18.3     -64   -230     -5    239    240 195.6  -1.3  33926  285.62 0855.31
2009/04/23 07:14:18.4    -101   -206    -37    230    234 206.1  -9.3  33918  285.48 0855.31
2009/04/23 07:14:18.5     -97   -155    -58    183    191 212.1 -22.8  33918  285.50 0855.31
2009/04/23 07:14:18.6    -105   -148    -61    182    191 215.4 -23.6  33922  285.55 0855.31
2009/04/23 07:14:18.7    -128   -141    -70    191    203 222.3 -25.3  33922  285.55 0855.31
2009/04/23 07:14:18.8    -125   -166    -79    209    223 217.0 -25.9  33922  285.56 0855.31
2009/04/23 07:14:18.9    -108   -191    -91    220    238 209.6 -28.2  33920  285.53 0855.31
2009/04/23 07:14:19.0    -113   -184   -115    217    245 211.6 -34.6  33920  285.51 0855.31
2009/04/23 07:14:19.1    -163   -163   -114    231    257 225.0 -32.6  33922  285.54 0855.31
2009/04/23 07:14:19.2    -129   -178   -142    221    262 216.0 -40.0  33922  285.54 0855.31
2009/04/23 07:14:19.3    -126   -211   -141    246    283 210.8 -36.8  33920  285.52 0855.31
2009/04/23 07:14:19.4     -68   -239    -69    249    258 196.1 -20.2  33918  285.49 0855.31
2009/04/23 07:14:19.5      -7   -176     66    177    188 182.5  21.3  33922  285.55 0855.31
2009/04/23 07:14:19.6     -69   -189     31    202    205 200.1   8.8  33922  285.56 0855.31
2009/04/23 07:14:19.7     -73   -184    -50    199    206 201.8 -14.3  33920  285.53 0855.31
2009/04/23 07:14:19.8     -62   -159    -48    171    177 201.4 -20.2  33922  285.56 0855.31
2009/04/23 07:14:19.9     -69   -143    -45    160    166 205.9 -20.4  33924  285.58 0855.31
2009/04/23 07:14:20.0     -25   -146    -30    149    153 189.8 -11.5  33920  285.53 0855.31
2009/04/23 07:14:20.1     -20   -163     45    165    172 187.1  15.3  33920  285.53 0855.31
2009/04/23 07:14:20.2     -19   -175      7    177    178 186.2   2.5  33920  285.53 0855.32
2009/04/23 07:14:20.3     -25   -149     62    152    164 189.8  23.4  33920  285.53 0855.32
2009/04/23 07:14:20.4     -41   -170     45    176    182 193.8  14.5  33920  285.53 0855.32
2009/04/23 07:14:20.5     -46   -163     -3    170    171 195.8  -1.3  33922  285.55 0855.32
2009/04/23 07:14:20.6     -46   -206      3    212    213 192.7   0.8  33920  285.51 0855.32
2009/04/23 07:14:20.7     -32   -229      2    232    233 188.1   0.7  33922  285.55 0855.32
2009/04/23 07:14:20.8     -65   -199     10    210    211 198.3   2.8  33922  285.56 0855.32
2009/04/23 07:14:20.9     -60   -189    -18    199    200 197.8  -5.2  33920  285.53 0855.32
2009/04/23 07:14:21.0     -86   -226      2    243    244 200.9   0.5  33924  285.59 0855.32
2009/04/23 07:14:21.1    -121   -190     27    226    228 212.6   6.9  33920  285.53 0855.32
2009/04/23 07:14:21.2    -115   -158     38    196    200 216.1  11.1  33922  285.55 0855.32
2009/04/23 07:14:21.3    -124   -140      0    188    189 221.4   0.0  33920  285.53 0855.32
2009/04/23 07:14:21.4    -113   -122      0    167    168 223.0   0.2  33920  285.53 0855.32
2009/04/23 07:14:21.5    -136   -119     -2    181    182 228.7  -0.7  33918  285.50 0855.32
2009/04/23 07:14:21.6    -157   -161    -35    226    229 224.3  -9.0  33922  285.55 0855.32
2009/04/23 07:14:21.7    -152   -135    -39    204    208 228.2 -10.9  33918  285.50 0855.32
2009/04/23 07:14:21.8    -157   -123    -43    200    205 232.0 -12.4  33916  285.46 0855.32
2009/04/23 07:14:21.9    -123   -109    -33    165    169 228.2 -11.6  33916  285.46 0855.32
2009/04/23 07:14:22.0    -130   -107    -49    169    175 230.5 -21.0  33920  285.51 0855.32
2009/04/23 07:14:22.1    -119    -98     -8    155    156 230.5  -3.1  33922  285.56 0855.32
2009/04/23 07:14:22.2     -76   -126     18    148    150 211.2   7.1  33922  285.56 0855.32
2009/04/23 07:14:22.3     -32   -135     49    139    147 193.4  20.0  33922  285.56 0855.32
2009/04/23 07:14:22.4       3   -112     10    113    114 178.2   5.4  33922  285.56 0855.32
2009/04/23 07:14:22.5       9   -144     17    145    147 176.4   6.9  33924  285.58 0855.32
2009/04/23 07:14:22.6      -1   -184     -7    185    186 180.5  -2.2  33922  285.56 0855.32
2009/04/23 07:14:22.7     -24   -200    -34    202    205 187.1  -9.6  33924  285.58 0855.32
2009/04/23 07:14:22.8     -45   -205    -43    211    216 192.5 -11.6  33922  285.56 0855.32
2009/04/23 07:14:22.9     -24   -200    -52    202    209 187.1 -14.5  33924  285.58 0855.32
2009/04/23 07:14:23.0     -28   -185    -55    188    195 188.7 -21.0  33922  285.56 0855.32
2009/04/23 07:14:23.1     -18   -158    -49    160    167 186.7 -22.1  33922  285.56 0855.32
2009/04/23 07:14:23.2     -34   -138    -43    143    150 193.8 -17.0  33924  285.58 0855.32
2009/04/23 07:14:23.3     -61   -111    -40    127    134 208.9 -17.6  33924  285.60 0855.32
2009/04/23 07:14:23.4     -45   -109    -45    119    127 202.7 -25.9  33922  285.56 0855.32
2009/04/23 07:14:23.5     -22   -110    -54    113    125 191.6 -31.6  33922  285.56 0855.32
2009/04/23 07:14:23.6      -9   -125    -48    126    134 184.4 -25.4  33922  285.55 0855.32
2009/04/23 07:14:23.7     -24   -111    -45    114    122 192.5 -26.9  33926  285.61 0855.32
2009/04/23 07:14:23.8     -31   -132    -46    136    143 193.3 -23.3  33922  285.56 0855.32
2009/04/23 07:14:23.9     -42   -126    -46    134    141 198.7 -23.3  33920  285.53 0855.32
2009/04/23 07:14:24.0     -27   -124    -57    128    140 192.5 -29.6  33924  285.60 0855.32
2009/04/23 07:14:24.1     -34   -139    -60    144    156 193.8 -28.0  33924  285.58 0855.32
2009/04/23 07:14:24.2     -22   -134    -48    136    144 189.3 -23.8  33922  285.56 0855.31
2009/04/23 07:14:24.3     -26   -127    -39    130    135 191.6 -21.8  33922  285.56 0855.31
2009/04/23 07:14:24.4     -24   -120    -33    123    128 191.6 -15.0  33924  285.58 0855.31
2009/04/23 07:14:24.5     -13   -127    -21    128    130 186.3  -9.3  33924  285.58 0855.31
2009/04/23 07:14:24.6     -16   -108      5    110    111 188.5   2.9  33922  285.56 0855.31
2009/04/23 07:14:24.7     -45    -86     -1     98     99 207.6  -0.7  33920  285.53 0855.31
2009/04/23 07:14:24.8     -39    -82     -2     91     92 205.4  -1.3  33924  285.58 0855.31
2009/04/23 07:14:24.9     -60    -76      3     97     98 218.3   2.3  33922  285.56 0855.31
2009/04/23 07:14:25.0     -41    -86     10     96     97 205.4   6.5  33922  285.55 0855.31
2009/04/23 07:14:25.1     -23   -102     13    105    106 192.9   7.5  33922  285.56 0855.31
2009/04/23 07:14:25.2     -16    -89      7     91     92 190.7   4.4  33924  285.58 0855.31
2009/04/23 07:14:25.3     -25    -79     13     84     86 197.8   9.0  33920  285.53 0855.31
2009/04/23 07:14:25.4     -26    -77     10     82     83 199.2   7.5  33922  285.55 0855.31
2009/04/23 07:14:25.5     -32    -75     28     82     87 203.6  19.4  33922  285.55 0855.31
2009/04/23 07:14:25.6     -30    -67     37     74     82 204.5  28.2  33924  285.58 0855.31
2009/04/23 07:14:25.7     -24    -50     42     56     70 205.4  40.7  33924  285.58 0855.31
2009/04/23 07:14:25.8       0    -57     52     58     77 180.9  47.9  33924  285.58 0855.31
2009/04/23 07:14:25.9      -5    -69     49     70     85 184.4  38.0  33922  285.55 0855.31
2009/04/23 07:14:26.0      -6    -76     57     77     95 184.5  40.1  33922  285.56 0855.31
2009/04/23 07:14:26.1       5    -69     55     70     89 175.5  42.7  33920  285.53 0855.31
2009/04/23 07:14:26.2       6    -77     63     78    100 175.5  43.3  33922  285.55 0855.31
2009/04/23 07:14:26.3       9    -66     64     67     92 172.0  49.0  33920  285.53 0855.31
2009/04/23 07:14:26.4       2    -62     57     63     84 177.3  47.5  33922  285.55 0855.31
2009/04/23 07:14:26.5      15    -75     62     77     98 168.5  43.7  33920  285.53 0855.31
2009/04/23 07:14:26.6      10    -75     64     76     99 172.0  44.3  33924  285.58 0855.31
2009/04/23 07:14:26.7      12    -87     66     88    110 171.5  40.7  33922  285.56 0855.31
2009/04/23 07:14:26.8      28    -87     70     92    115 161.7  41.2  33922  285.56 0855.31
2009/04/23 07:14:26.9      43    -85     76     96    122 153.3  42.7  33920  285.51 0855.31
2009/04/23 07:14:27.0      42    -74     68     86    109 150.6  43.3  33920  285.53 0855.31
2009/04/23 07:14:27.1      41    -55     66     69     95 143.0  49.0  33922  285.56 0855.31
2009/04/23 07:14:27.2      44    -44     56     63     84 135.0  46.9  33922  285.55 0855.31
2009/04/23 07:14:27.3      45    -54     64     71     95 140.3  46.9  33920  285.53 0855.31
2009/04/23 07:14:27.4      36    -41     69     55     88 138.6  56.4  33920  285.51 0855.31
2009/04/23 07:14:27.5      -7     -3     56      8     56 244.7  90.0  33922  285.55 0855.31
2009/04/23 07:14:27.6      -2      8     49      9     49 341.5  90.0  33922  285.56 0855.31
2009/04/23 07:14:27.7       5     15     49     16     51  18.3  80.7  33922  285.55 0855.31
2009/04/23 07:14:27.8      47    -44     80     65    103 133.1  56.4  33920  285.53 0855.31
2009/04/23 07:14:27.9      91    -35     66     98    118 111.3  37.4  33918  285.50 0855.31
2009/04/23 07:14:28.0      93    -21     71     96    119 102.8  40.1  33918  285.50 0855.31
2009/04/23 07:14:28.1      79    -42     77     90    118 118.0  45.4  33920  285.53 0855.31
2009/04/23 07:14:28.2      59    -40     79     72    106 124.2  52.2  33918  285.50 0855.30
2009/04/23 07:14:28.3      60    -49     62     78     99 129.6  42.7  33920  285.51 0855.30
2009/04/23 07:14:28.4      74    -36     62     83    103 116.2  40.7  33918  285.48 0855.30
2009/04/23 07:14:28.5      30    -80     64     86    107 159.1  40.1  33920  285.53 0855.30
2009/04/23 07:14:28.6       6    -81     66     82    105 175.5  43.3  33918  285.48 0855.30
2009/04/23 07:14:28.7      -9    -58    101     59    116 188.9  66.8  33918  285.50 0855.30
2009/04/23 07:14:28.8      23    -19     82     30     87 129.5  79.7  33918  285.50 0855.30
2009/04/23 07:14:28.9      20     10     45     23     50  62.9  70.8  33920  285.51 0855.30
2009/04/23 07:14:29.0     -16      0     35     17     38 270.0  72.9  33922  285.55 0855.30
2009/04/23 07:14:29.1     -10    -51     62     53     81 191.5  54.8  33918  285.50 0855.30
2009/04/23 07:14:29.2      15   -100    100    102    142 171.1  50.0  33918  285.48 0855.30
2009/04/23 07:14:29.3      30    -63     97     70    119 154.5  60.6  33918  285.48 0855.30
2009/04/23 07:14:29.4     -17    -66     91     69    114 194.3  59.0  33918  285.48 0855.30
2009/04/23 07:14:29.5     -12   -104    117    105    157 186.7  53.5  33914  285.43 0855.30
2009/04/23 07:14:29.6      55    -75     88     94    128 143.5  48.0  33918  285.48 0855.30
2009/04/23 07:14:29.7      57    -31     73     66     98 118.9  52.7  33916  285.46 0855.30
2009/04/23 07:14:29.8      56     -8     75     57     94  98.8  59.0  33918  285.50 0855.30
2009/04/23 07:14:29.9      36    -24     54     44     69 123.3  56.4  33920  285.51 0855.30
2009/04/23 07:14:30.0      33    -23     44     41     60 124.2  52.1  33922  285.56 0855.30
2009/04/23 07:14:30.1       4     15     35     16     38  15.1  75.0  33918  285.50 0855.30
2009/04/23 07:14:30.2       6    -40     83     41     92 171.1  72.4  33920  285.51 0855.30
2009/04/23 07:14:30.3      -5     -6     68      8     68 219.6  90.0  33918  285.48 0855.30
2009/04/23 07:14:30.4      -9     30     38     32     49 343.1  56.3  33918  285.48 0855.30
2009/04/23 07:14:30.5      -7      3     26      8     27 295.3  80.7  33918  285.50 0855.30
2009/04/23 07:14:30.6      14     22     62     27     67  32.5  76.1  33916  285.46 0855.30
2009/04/23 07:14:30.7      42    -24     73     49     87 119.8  63.2  33918  285.48 0855.30
2009/04/23 07:14:30.8      43    -26     59     51     77 120.7  54.3  33918  285.48 0855.30
2009/04/23 07:14:30.9      57    -26     65     63     90 115.2  50.7  33914  285.43 0855.30
2009/04/23 07:14:31.0      11      0     53     12     54  90.0  88.0  33916  285.44 0855.30
2009/04/23 07:14:31.1     -57     15     22     60     63 285.1  20.0  33916  285.44 0855.30
2009/04/23 07:14:31.2     -77     -5     26     78     83 265.7  18.9  33914  285.41 0855.30
2009/04/23 07:14:31.3     -86    -31     30     92     97 250.0  18.4  33912  285.39 0855.30
2009/04/23 07:14:31.4     -30    -67     51     74     89 204.5  37.6  33914  285.41 0855.30
2009/04/23 07:14:31.5     -14    -94     80     96    124 188.9  43.8  33916  285.46 0855.30
2009/04/23 07:14:31.6      19    -83     73     86    112 166.6  44.3  33914  285.41 0855.30
2009/04/23 07:14:31.7       8   -105     77    106    131 175.5  39.7  33914  285.43 0855.30
2009/04/23 07:14:31.8     -18    -86    101     88    133 192.0  54.3  33916  285.44 0855.30
2009/04/23 07:14:31.9     -26    -96     94    100    137 195.6  48.0  33914  285.41 0855.30
2009/04/23 07:14:32.0     -70   -118    100    138    170 210.7  39.7  33912  285.38 0855.30
2009/04/23 07:14:32.1     -73   -115     85    137    161 212.6  34.8  33910  285.34 0855.30
2009/04/23 07:14:32.2     -51    -77    103     93    138 213.8  52.7  33910  285.36 0855.30
2009/04/23 07:14:32.3     -28    -55     99     62    116 207.2  64.7  33910  285.34 0855.30
2009/04/23 07:14:32.4     -46    -79     82     92    123 210.7  46.9  33908  285.31 0855.30
2009/04/23 07:14:32.5     -52    -39     78     66    102 233.1  55.4  33908  285.31 0855.30
2009/04/23 07:14:32.6     -54    -58     74     80    108 223.2  47.9  33908  285.33 0855.30
2009/04/23 07:14:32.7     -18    -68     65     71     96 195.1  47.9  33912  285.38 0855.30
2009/04/23 07:14:32.8      11    -41     85     43     95 164.9  71.4  33916  285.46 0855.30
2009/04/23 07:14:32.9      24     -7     59     26     64 106.8  76.1  33914  285.41 0855.30
2009/04/23 07:14:33.0      -6      5     41      8     41 309.5  90.0  33918  285.50 0855.30
2009/04/23 07:14:33.1       6    -13     55     15     57 154.6  83.9  33916  285.46 0855.30
2009/04/23 07:14:33.2       2    -38     51     39     64 175.6  59.4  33918  285.48 0855.30
2009/04/23 07:14:33.3      40    -63     66     75     99 147.4  45.8  33916  285.44 0855.30
2009/04/23 07:14:33.4      42    -72     58     84    102 149.3  38.6  33916  285.46 0855.30
2009/04/23 07:14:33.5      47    -99     59    110    124 154.5  30.8  33918  285.50 0855.30
2009/04/23 07:14:33.6      33   -100     26    106    110 161.5  13.7  33918  285.48 0855.30
2009/04/23 07:14:33.7      73    -65     21     98    101 131.8  12.2  33918  285.50 0855.30
2009/04/23 07:14:33.8      47    -44     40     65     76 133.1  35.5  33918  285.50 0855.30
2009/04/23 07:14:33.9      36    -36     55     51     75 135.0  52.2  33918  285.50 0855.30
2009/04/23 07:14:34.0      15    -31     65     35     73 152.8  68.8  33916  285.46 0855.30
2009/04/23 07:14:34.1      66    -82     97    106    143 141.3  47.9  33918  285.48 0855.30
2009/04/23 07:14:34.2      82    -84     84    118    144 135.9  39.5  33918  285.50 0855.30
2009/04/23 07:14:34.3      60    -50     78     79    111 129.6  50.0  33918  285.50 0855.30
2009/04/23 07:14:34.4      42    -21     88     48    100 117.1  68.9  33918  285.50 0855.30
2009/04/23 07:14:34.5      56     -9    103     57    117  99.7  68.8  33918  285.50 0855.30
2009/04/23 07:14:34.6      28    -40     76     50     90 144.8  63.6  33920  285.51 0855.30
2009/04/23 07:14:34.7      33    -33     81     47     93 135.0  66.8  33918  285.50 0855.30
2009/04/23 07:14:34.8      67    -27     69     73    100 111.8  48.0  33918  285.50 0855.30
2009/04/23 07:14:34.9       4      4     58      7     58  45.0  90.0  33922  285.55 0855.30
2009/04/23 07:14:35.0     -14     18     70     24     74 322.2  81.2  33918  285.50 0855.30
2009/04/23 07:14:35.1     -20     14     66     25     70 306.0  78.2  33920  285.51 0855.30
2009/04/23 07:14:35.2     -32      7     63     33     71 283.3  69.8  33918  285.50 0855.31
2009/04/23 07:14:35.3     -18      5     69     19     71 288.2  84.8  33920  285.53 0855.31
2009/04/23 07:14:35.4       2      0     63      3     63  71.6  90.0  33920  285.51 0855.31
2009/04/23 07:14:35.5     -10      0     52     11     53 270.0  89.0  33918  285.50 0855.31
2009/04/23 07:14:35.6      10     76     58     77     96   8.0  40.7  33918  285.50 0855.31
2009/04/23 07:14:35.7     -13      9     44     17     47 306.0  79.2  33918  285.50 0855.31
2009/04/23 07:14:35.8      33      6     57     34     66  78.5  65.7  33920  285.53 0855.31
2009/04/23 07:14:35.9      66     -3     69     67     96  92.6  50.1  33918  285.48 0855.31
2009/04/23 07:14:36.0      22    -39     41     45     60 150.1  47.9  33918  285.48 0855.31
2009/04/23 07:14:36.2      45    -27     59     53     79 121.5  52.7  33918  285.48 0855.31
2009/04/23 07:14:36.2      45      0     64     46     78  90.0  60.5  33918  285.48 0855.31
2009/04/23 07:14:36.3     -12    -19     49     23     54 212.5  73.1  33914  285.43 0855.31
2009/04/23 07:14:36.4      36    -65     72     75    103 151.1  49.0  33918  285.48 0855.31
2009/04/23 07:14:36.5      15    -64     80     66    103 166.6  56.3  33916  285.44 0855.31
2009/04/23 07:14:36.6      26    -83     83     87    120 162.6  48.5  33918  285.48 0855.31
2009/04/23 07:14:36.7      28   -119     61    123    137 166.6  28.2  33920  285.51 0855.31
2009/04/23 07:14:36.8       8   -109     81    110    136 175.5  39.7  33916  285.46 0855.31
2009/04/23 07:14:36.9      30   -101     66    106    124 163.1  35.5  33918  285.48 0855.31
2009/04/23 07:14:37.0      22    -87     69     90    113 165.7  41.7  33918  285.48 0855.31
2009/04/23 07:14:37.1      23   -113     58    116    129 168.4  28.7  33918  285.50 0855.31
2009/04/23 07:14:37.2      14   -101     59    103    118 172.0  32.4  33916  285.46 0855.31
2009/04/23 07:14:37.3      16   -126     77    128    149 172.4  34.0  33918  285.48 0855.31
2009/04/23 07:14:37.5      11   -147     64    148    161 175.5  24.9  33916  285.46 0855.31
2009/04/23 07:14:37.6     -13   -148     18    149    151 185.3   6.9  33916  285.46 0855.31
2009/04/23 07:14:37.6     -28   -124     74    128    147 192.9  32.9  33916  285.44 0855.31
2009/04/23 07:14:37.7      -9   -125     77    126    147 184.4  35.0  33918  285.48 0855.31
2009/04/23 07:14:37.8       5   -125     80    126    149 177.3  35.5  33916  285.46 0855.31
2009/04/23 07:14:37.9      37   -168     35    173    177 167.3  11.4  33916  285.44 0855.31
2009/04/23 07:14:38.0      38   -186     26    190    192 168.4   7.8  33914  285.43 0855.31
2009/04/23 07:14:38.1      44   -183      9    189    190 166.4   2.9  33916  285.46 0855.31
2009/04/23 07:14:38.2      37   -191      9    195    196 168.9   2.9  33918  285.48 0855.31
2009/04/23 07:14:38.3      19   -183     13    185    186 174.0   4.2  33914  285.43 0855.31
2009/04/23 07:14:38.5      12   -172     -6    173    174 176.0  -2.2  33912  285.39 0855.31
2009/04/23 07:14:38.6      -5   -173    -13    174    175 181.8  -4.4  33914  285.41 0855.31
2009/04/23 07:14:38.7      -5   -126      1    127    128 182.7   0.8  33912  285.39 0855.31
2009/04/23 07:14:38.8       1   -119     36    120    126 179.5  16.8  33916  285.44 0855.31
2009/04/23 07:14:38.9       3   -115     40    116    123 178.2  19.4  33918  285.48 0855.31
2009/04/23 07:14:39.0      21   -113      8    116    117 169.3   4.4  33914  285.43 0855.31
2009/04/23 07:14:39.1      22    -99     14    102    104 167.1   8.0  33918  285.50 0855.31
2009/04/23 07:14:39.2      31    -93     15     99    101 161.3   9.0  33916  285.44 0855.31
2009/04/23 07:14:39.3      31    -93     15     99    101 161.3   9.0  33916  285.44 0855.31
2009/04/23 07:14:39.4      31    -93     15     99    101 161.3   9.0  33916  285.44 0855.31
2009/04/23 07:14:39.5      50    -87     12    101    102 149.7   6.9  33918  285.48 0855.31
2009/04/23 07:14:39.6      55    -74     21     93     96 143.0  13.2  33916  285.46 0855.31
2009/04/23 07:14:39.7      38    -83     37     92     99 155.5  23.0  33918  285.48 0855.31
2009/04/23 07:14:39.8      25    -85     31     89     95 163.5  19.4  33918  285.50 0855.31
2009/04/23 07:14:39.9      20    -90     27     93     97 167.1  16.3  33918  285.50 0855.31
2009/04/23 07:14:40.0       4    -87     30     88     94 177.3  18.9  33916  285.46 0855.31
2009/04/23 07:14:40.1       7    -85     34     86     92 175.1  22.5  33916  285.44 0855.31
2009/04/23 07:14:40.2       0    -91     31     92     98 180.4  18.9  33918  285.48 0855.31
2009/04/23 07:14:40.3      -5    -97     28     98    103 183.1  16.3  33918  285.48 0855.31
2009/04/23 07:14:40.4     -21   -102     50    105    116 192.0  27.2  33918  285.48 0855.31
2009/04/23 07:14:40.5     -27    -82     32     87     92 198.7  20.4  33918  285.48 0855.31
2009/04/23 07:14:40.6     -16    -87     30     89     95 190.7  18.9  33918  285.50 0855.31
2009/04/23 07:14:40.7     -19   -105     39    107    113 190.7  20.0  33918  285.50 0855.31
2009/04/23 07:14:40.8      -7   -112     25    113    116 184.0  12.6  33918  285.50 0855.31
2009/04/23 07:14:40.9     -10   -104     20    105    108 185.8  11.1  33918  285.50 0855.31
2009/04/23 07:14:41.0     -28    -95     30    100    105 196.5  16.8  33918  285.50 0855.31
2009/04/23 07:14:41.1      -8    -99     37    100    106 184.9  20.4  33920  285.51 0855.31
2009/04/23 07:14:41.2      -2    -81     44     82     93 181.8  30.3  33918  285.50 0855.31
2009/04/23 07:14:41.3       7    -85     41     86     95 175.1  27.2  33920  285.53 0855.31
2009/04/23 07:14:41.4      -5    -79     46     80     92 183.6  32.9  33918  285.48 0855.31
2009/04/23 07:14:41.5       0    -81     41     82     91 180.0  28.2  33920  285.53 0855.31
2009/04/23 07:14:41.6     -26    -79     28     84     89 198.7  18.9  33918  285.50 0855.31
2009/04/23 07:14:41.7     -37    -89     19     97     99 202.7  11.1  33918  285.50 0855.31
2009/04/23 07:14:41.8     -34    -76     16     84     86 204.5  11.0  33922  285.55 0855.31
2009/04/23 07:14:41.9     -72    -72    -13    103    104 225.1  -7.3  33918  285.50 0855.31
2009/04/23 07:14:42.0     -71    -91    -14    116    117 218.3  -7.2  33918  285.50 0855.31
2009/04/23 07:14:42.1     -72    -87    -14    114    115 219.6  -7.3  33920  285.51 0855.31
2009/04/23 07:14:42.2     -78   -108     -7    134    135 216.0  -3.1  33920  285.53 0855.31
2009/04/23 07:14:42.3     -84   -133    -16    158    159 212.5  -6.0  33918  285.50 0855.31
2009/04/23 07:14:42.4     -75   -136    -19    156    158 209.0  -7.2  33920  285.51 0855.31
2009/04/23 07:14:42.5    -124   -111    -35    167    171 228.2 -11.9  33916  285.44 0855.31
2009/04/23 07:14:42.6    -112   -106    -29    155    158 226.8 -10.9  33918  285.50 0855.31
2009/04/23 07:14:42.7     -97   -108    -52    146    156 221.9 -19.7  33918  285.48 0855.31
2009/04/23 07:14:42.8     -84   -100    -54    131    141 220.1 -27.5  33916  285.46 0855.31
2009/04/23 07:14:42.9     -52   -129    -42    140    147 201.9 -16.6  33918  285.50 0855.31
2009/04/23 07:14:43.0     -38   -124    -23    130    133 197.4 -10.3  33918  285.50 0855.31
2009/04/23 07:14:43.2     -34   -102    -37    108    114 198.7 -23.3  33918  285.48 0855.31
2009/04/23 07:14:43.3     -36   -110    -38    116    123 198.3 -18.1  33918  285.48 0855.31
2009/04/23 07:14:43.4     -12   -113    -38    114    121 186.2 -18.7  33918  285.48 0855.31
2009/04/23 07:14:43.5     -21   -102    -59    105    120 192.0 -36.3  33918  285.50 0855.31
2009/04/23 07:14:43.6     -31    -93    -64     99    117 198.7 -40.0  33918  285.48 0855.31
2009/04/23 07:14:43.7     -12    -87    -73     88    114 188.5 -48.1  33918  285.48 0855.31
2009/04/23 07:14:43.8     -19    -74    -85     77    114 195.1 -57.1  33914  285.43 0855.31
2009/04/23 07:14:43.9     -23    -65    -75     70    102 200.0 -56.5  33918  285.48 0855.31
2009/04/23 07:14:44.0     -22    -71    -69     75    101 197.8 -52.3  33918  285.48 0855.31
2009/04/23 07:14:44.1      -4    -89    -46     90    101 183.1 -33.7  33918  285.48 0855.31
2009/04/23 07:14:44.2     -50    -86    -42    100    108 210.3 -28.5  33918  285.48 0855.31
2009/04/23 07:14:44.3     -45    -95    -38    106    112 205.3 -24.4  33918  285.48 0855.31
2009/04/23 07:14:44.4     -32   -104    -32    110    115 197.4 -16.6  33918  285.50 0855.31
2009/04/23 07:14:44.5     -62    -59    -44     86     96 226.4 -33.7  33918  285.48 0855.31
2009/04/23 07:14:44.6     -23    -67    -72     71    101 199.2 -54.5  33918  285.50 0855.31
2009/04/23 07:14:44.7      11    -61    -78     63    100 169.3 -61.3  33916  285.46 0855.31
2009/04/23 07:14:44.8     -29    -21    -75     36     83 234.0 -77.3  33914  285.43 0855.31
2009/04/23 07:14:44.9     -42    -26    -73     50     88 238.5 -67.0  33918  285.48 0855.31
2009/04/23 07:14:45.0     -42    -34    -64     55     84 231.4 -58.7  33918  285.48 0855.31
2009/04/23 07:14:45.1     -82    -53    -33     98    103 237.1 -23.6  33916  285.46 0855.31
2009/04/23 07:14:45.2     -63    -40    -13     75     77 237.5 -10.3  33918  285.48 0855.31
2009/04/23 07:14:45.3     -36    -53    -22     65     69 214.3 -18.7  33920  285.51 0855.31
2009/04/23 07:14:45.4     -18    -47    -24     51     56 200.9 -31.5  33918  285.48 0855.31
2009/04/23 07:14:45.5      -5    -72    -26     73     77 184.5 -23.3  33918  285.50 0855.31
2009/04/23 07:14:45.6     -29    -74    -35     80     87 201.8 -29.0  33918  285.50 0855.31
2009/04/23 07:14:45.7      25    -54     -2     60     61 154.7  -2.2  33914  285.43 0855.31
2009/04/23 07:14:45.8      28    -68     33     74     81 157.3  25.7  33916  285.44 0855.31
2009/04/23 07:14:45.9      28    -83     48     88    100 161.3  31.3  33916  285.44 0855.31
2009/04/23 07:14:46.0      44   -100     -2    110    111 155.9  -1.3  33914  285.43 0855.31
2009/04/23 07:14:46.1      63    -70      4     95     96 137.7   2.9  33916  285.44 0855.31
2009/04/23 07:14:46.2      39    -74     -5     84     85 151.9  -3.7  33912  285.39 0855.31
2009/04/23 07:14:46.3      44   -119     -2    128    129 159.5  -1.2  33916  285.44 0855.31
2009/04/23 07:14:46.4       9   -123     -2    124    125 175.6  -1.3  33916  285.46 0855.31
2009/04/23 07:14:46.5      19   -119     13    121    122 170.7   6.5  33916  285.46 0855.31
2009/04/23 07:14:46.6      28    -81    -23     86     90 160.4 -15.0  33916  285.46 0855.31
2009/04/23 07:14:46.7      25    -55    -51     61     79 155.5 -48.7  33916  285.46 0855.31
2009/04/23 07:14:46.8      10    -58    -48     59     76 170.2 -48.1  33916  285.44 0855.31
2009/04/23 07:14:46.9       3    -38    -75     39     84 175.5 -74.8  33912  285.39 0855.31
2009/04/23 07:14:47.0      70    -72    -76    101    126 135.9 -45.1  33914  285.41 0855.31
2009/04/23 07:14:47.1      64    -70    -44     96    105 137.7 -31.0  33916  285.44 0855.31
2009/04/23 07:14:47.2      43    -92    -20    102    105 154.7 -11.3  33918  285.48 0855.31
2009/04/23 07:14:47.3      84   -102     -6    133    134 140.3  -2.6  33916  285.46 0855.31
2009/04/23 07:14:47.4      84   -108    -13    138    139 142.2  -5.6  33916  285.46 0855.31
2009/04/23 07:14:47.5      64    -79    -32    102    107 140.8 -17.6  33916  285.46 0855.31
2009/04/23 07:14:47.6      84   -108      0    138    139 142.2  -0.3  33916  285.44 0855.31
2009/04/23 07:14:47.7       5   -143     -5    144    145 177.8  -2.2  33916  285.44 0855.31
2009/04/23 07:14:47.8      50   -134     69    144    159 159.5  27.4  33914  285.41 0855.31
2009/04/23 07:14:47.9      39   -149     90    155    179 165.3  32.7  33916  285.46 0855.31
2009/04/23 07:14:48.0      21   -142     74    144    161 171.5  29.3  33916  285.44 0855.31
2009/04/23 07:14:48.1      -2   -131     74    132    151 181.0  31.4  33914  285.43 0855.31
2009/04/23 07:14:48.2     -54    -88     41    104    111 211.6  22.5  33914  285.41 0855.31
2009/04/23 07:14:48.3       2    -93    -34     94     99 178.6 -24.8  33914  285.43 0855.31
2009/04/23 07:14:48.4       8   -111    -22    112    115 175.6 -11.3  33914  285.43 0855.31
2009/04/23 07:14:48.5     -21   -124    -13    126    127 189.7  -6.2  33916  285.44 0855.31
2009/04/23 07:14:48.6     -23   -117     -6    120    121 191.1  -3.1  33918  285.48 0855.31
2009/04/23 07:14:48.7     -31   -114     -2    119    120 195.6  -1.3  33918  285.48 0855.31
2009/04/23 07:14:48.8     -68   -110     -5    130    131 211.6  -2.2  33916  285.44 0855.31
2009/04/23 07:14:48.9     -93    -76    -15    121    122 230.5  -7.3  33914  285.43 0855.31
2009/04/23 07:14:49.0     -67    -76     -4    102    103 221.4  -2.2  33916  285.44 0855.31
2009/04/23 07:14:49.1     -56    -91     -4    107    108 211.6  -2.2  33914  285.41 0855.31
2009/04/23 07:14:49.2     -68    -85     -4    109    110 218.7  -2.2  33912  285.39 0855.31
2009/04/23 07:14:49.3     -53    -83     11     99    100 212.5   6.9  33916  285.44 0855.31
2009/04/23 07:14:49.4     -33    -70     16     78     80 205.5  12.2  33916  285.44 0855.31
2009/04/23 07:14:49.5     -59    -93     12    111    112 212.5   6.5  33912  285.38 0855.31
2009/04/23 07:14:49.6     -42   -126     10    134    135 198.7   4.4  33914  285.43 0855.31
2009/04/23 07:14:49.7     -44   -133    -27    141    144 198.3 -10.9  33914  285.41 0855.31
2009/04/23 07:14:49.8     -51   -119    -41    130    137 203.2 -17.5  33912  285.39 0855.31
2009/04/23 07:14:49.9     -49    -91     30    104    109 208.5  16.3  33916  285.44 0855.31
2009/04/23 07:14:50.0     -24    -91     33     95    101 194.7  19.4  33916  285.46 0855.31
2009/04/23 07:14:50.1     -29    -77     22     83     87 200.5  15.3  33916  285.46 0855.31
2009/04/23 07:14:50.2     -14    -86     33     88     93 189.3  20.4  33918  285.48 0855.31
2009/04/23 07:14:50.3     -30    -84    -15     90     92 200.0  -9.8  33916  285.46 0855.31
2009/04/23 07:14:50.4     -42    -70    -25     82     86 211.2 -17.0  33916  285.46 0855.31
2009/04/23 07:14:50.5     -36    -71    -12     80     81 207.2  -8.8  33916  285.44 0855.31
2009/04/23 07:14:50.6     -13    -78    -17     80     82 189.8 -12.4  33916  285.46 0855.31
2009/04/23 07:14:50.7       7    -85    -23     86     90 175.1 -15.4  33916  285.44 0855.31
2009/04/23 07:14:50.8       1    -99     -3    100    101 179.1  -2.2  33916  285.46 0855.31
2009/04/23 07:14:50.9      -3   -120     19    121    123 181.8   9.0  33914  285.43 0855.31
2009/04/23 07:14:51.0      17   -123     59    125    138 171.9  27.1  33914  285.41 0855.31
2009/04/23 07:14:51.1      -6   -130     47    131    139 182.7  20.4  33914  285.41 0855.31
2009/04/23 07:14:51.2     -24   -159     57    161    170 188.7  20.0  33916  285.44 0855.31
2009/04/23 07:14:51.3     -52   -171     29    179    182 196.9   9.3  33914  285.41 0855.30
2009/04/23 07:14:51.4     -28   -184     27    187    189 188.7   8.2  33916  285.44 0855.30
2009/04/23 07:14:51.5     -15   -177     31    178    181 184.9  10.1  33916  285.46 0855.30
2009/04/23 07:14:51.6       5   -146     28    147    150 177.8  11.1  33914  285.41 0855.30
2009/04/23 07:14:51.7     -28   -147     50    150    159 191.1  18.4  33912  285.39 0855.30
2009/04/23 07:14:51.8     -29   -137     51    141    149 192.0  20.4  33914  285.43 0855.30
2009/04/23 07:14:51.9     -33   -132     48    137    146 194.3  19.4  33914  285.43 0855.30
2009/04/23 07:14:52.0     -44   -113     34    122    127 201.4  15.8  33916  285.44 0855.30
2009/04/23 07:14:52.1     -32   -134     32    138    142 193.4  13.2  33914  285.41 0855.30
2009/04/23 07:14:52.2     -21   -123     29    125    129 189.8  13.2  33916  285.46 0855.30
2009/04/23 07:14:52.3      -5   -116     27    117    121 182.7  13.2  33918  285.48 0855.30
2009/04/23 07:14:52.4     -14   -109     66    110    128 187.6  34.0  33916  285.44 0855.30
2009/04/23 07:14:52.5     -27   -100     54    104    117 195.1  29.3  33916  285.44 0855.30
2009/04/23 07:14:52.6     -58    -98     40    115    122 210.7  19.4  33918  285.48 0855.30
2009/04/23 07:14:52.7     -62   -101     44    119    126 211.6  20.9  33916  285.44 0855.30
2009/04/23 07:14:52.8     -52    -95     45    109    117 208.5  23.6  33916  285.44 0855.30
2009/04/23 07:14:52.9     -58    -91     34    108    114 212.5  17.4  33916  285.44 0855.30
2009/04/23 07:14:53.0     -68    -88     39    112    119 217.4  19.2  33916  285.44 0855.30
2009/04/23 07:14:53.1     -71    -91     44    116    124 218.3  21.0  33916  285.44 0855.30
2009/04/23 07:14:53.2     -70    -99     43    122    130 215.2  19.4  33916  285.44 0855.30
2009/04/23 07:14:53.3     -55    -75     32     94    100 216.5  19.2  33916  285.44 0855.31
2009/04/23 07:14:53.4     -21    -67     59     71     92 197.8  43.8  33914  285.43 0855.31
2009/04/23 07:14:53.5       5    -68     90     69    113 175.5  58.5  33916  285.46 0855.31
2009/04/23 07:14:53.6       0    -98     68     99    120 180.4  37.6  33914  285.43 0855.31
2009/04/23 07:14:53.7       6    -79     54     80     96 175.5  37.0  33916  285.46 0855.31
2009/04/23 07:14:53.8      30    -91     69     96    118 161.7  39.7  33914  285.43 0855.31
2009/04/23 07:14:53.9      15   -104     93    106    141 171.5  45.8  33914  285.41 0855.31
2009/04/23 07:14:54.0      17   -103     44    105    113 170.7  23.6  33916  285.44 0855.31
2009/04/23 07:14:54.1       0   -109     66    110    128 180.0  34.0  33912  285.39 0855.31
2009/04/23 07:14:54.2       7    -94     61     95    112 175.5  35.6  33914  285.41 0855.31
2009/04/23 07:14:54.3       1    -73     68     74    100 179.0  47.9  33914  285.43 0855.30
2009/04/23 07:14:54.4      -3    -38     69     39     79 184.5  67.7  33918  285.48 0855.30
2009/04/23 07:14:54.5     -11    -75     53     76     92 188.9  38.0  33914  285.43 0855.30
2009/04/23 07:14:54.6       0    -89     68     90    112 179.5  41.2  33914  285.43 0855.30
2009/04/23 07:14:54.7      -1   -116     64    117    133 180.5  31.4  33914  285.43 0855.30
2009/04/23 07:14:54.8     -16   -154     63    155    167 186.2  23.4  33914  285.41 0855.30
2009/04/23 07:14:54.9       9   -123     63    124    139 175.6  29.2  33914  285.41 0855.30
2009/04/23 07:14:55.0      41   -136     67    143    157 163.1  26.6  33916  285.46 0855.30
2009/04/23 07:14:55.1      14    -83     67     85    108 170.2  43.3  33914  285.43 0855.30
2009/04/23 07:14:55.2     -11    -83     54     84     99 188.0  35.6  33914  285.41 0855.30
2009/04/23 07:14:55.3       0    -47     48     48     67 180.9  50.1  33916  285.46 0855.30
2009/04/23 07:14:55.4     -15    -24     36     29     46 212.6  57.5  33916  285.44 0855.30
2009/04/23 07:14:55.5       0    -50     53     51     73 180.9  50.1  33914  285.43 0855.30
2009/04/23 07:14:55.6      18    -78     49     81     94 166.6  35.0  33916  285.46 0855.30
2009/04/23 07:14:55.7      38    -74     64     84    105 152.8  41.2  33914  285.43 0855.30
2009/04/23 07:14:55.8      16   -102     97    104    142 171.1  47.9  33914  285.43 0855.30
2009/04/23 07:14:55.9       6   -114    114    115    161 176.9  50.0  33916  285.44 0855.30
2009/04/23 07:14:56.0      34    -25     74     43     85 126.9  67.2  33916  285.46 0855.30
2009/04/23 07:14:56.1       7    -45     62     46     77 171.1  60.5  33914  285.43 0855.30
2009/04/23 07:14:56.2      25    -82     78     86    116 163.1  47.5  33914  285.41 0855.30
2009/04/23 07:14:56.3      41    -63     78     76    108 146.6  50.1  33918  285.48 0855.30
2009/04/23 07:14:56.4       2    -37     64     38     74 175.5  64.7  33914  285.43 0855.30
2009/04/23 07:14:56.5       7    -54     68     55     87 172.0  56.9  33912  285.39 0855.30
2009/04/23 07:14:56.6       5    -65     86     66    108 175.5  58.5  33914  285.43 0855.30
2009/04/23 07:14:56.7      -8   -108     77    109    133 184.5  38.6  33916  285.44 0855.30
2009/04/23 07:14:56.8      20   -100     74    103    126 168.4  39.5  33914  285.41 0855.30
2009/04/23 07:14:56.9      12   -103     66    104    123 172.9  35.5  33914  285.41 0855.30
2009/04/23 07:14:57.0      16    -86     57     88    104 169.3  35.6  33916  285.44 0855.30
2009/04/23 07:14:57.1      24    -83     64     87    108 164.0  40.1  33914  285.43 0855.30
2009/04/23 07:14:57.2      14    -99     68    101    121 171.5  37.4  33914  285.43 0855.30
2009/04/23 07:14:57.3      22    -87     62     90    109 165.7  38.0  33912  285.39 0855.30
2009/04/23 07:14:57.4      11    -83     72     84    110 172.4  44.8  33912  285.39 0855.30
2009/04/23 07:14:57.5       8    -73     65     74     98 173.8  46.4  33914  285.41 0855.30
2009/04/23 07:14:57.6       7    -52     60     53     80 172.0  54.3  33914  285.41 0855.30
2009/04/23 07:14:57.7      34    -51     46     62     77 145.7  39.7  33914  285.43 0855.30
2009/04/23 07:14:57.8      33    -70     42     78     88 154.6  30.8  33912  285.38 0855.30
2009/04/23 07:14:57.9      45    -45     44     65     78 135.0  36.5  33912  285.39 0855.30
2009/04/23 07:14:58.0      50    -47     41     69     80 133.1  33.5  33912  285.38 0855.30
2009/04/23 07:14:58.1      14    -55     44     57     72 164.9  42.7  33912  285.38 0855.30
2009/04/23 07:14:58.2      26    -56     46     62     77 154.6  39.7  33912  285.38 0855.30
2009/04/23 07:14:58.3      15    -49     49     52     71 162.2  48.0  33910  285.34 0855.30
2009/04/23 07:14:58.4      35    -53     54     64     83 146.6  45.4  33910  285.34 0855.30
2009/04/23 07:14:58.5      42    -50     49     66     82 140.4  40.7  33910  285.36 0855.30
2009/04/23 07:14:58.6      30    -48     38     57     68 147.4  35.6  33910  285.36 0855.30
2009/04/23 07:14:58.7      28    -40     44     50     66 144.8  46.9  33910  285.36 0855.30
2009/04/23 07:14:58.8      16    -36     36     40     53 156.4  47.9  33910  285.36 0855.30
2009/04/23 07:14:58.9      11    -43     31     45     54 164.9  37.6  33910  285.34 0855.30
2009/04/23 07:14:59.0       7    -37     42     38     56 168.4  52.2  33910  285.36 0855.30
2009/04/23 07:14:59.1       3    -53     44     54     69 176.4  43.7  33912  285.39 0855.30
2009/04/23 07:14:59.2       1    -39     43     40     58 177.3  51.2  33912  285.38 0855.30
2009/04/23 07:14:59.3       7    -24     41     26     48 163.1  64.7  33912  285.38 0855.30
2009/04/23 07:14:59.4       6    -21     47     23     52 163.1  72.8  33912  285.39 0855.30
2009/04/23 07:14:59.5      -5    -34     40     35     53 189.8  54.3  33914  285.41 0855.30
2009/04/23 07:14:59.6     -11    -33     34     35     48 198.5  51.1  33912  285.39 0855.30
2009/04/23 07:14:59.7     -12    -25     28     28     39 205.4  50.1  33914  285.41 0855.30
2009/04/23 07:14:59.8     -15    -35     24     39     45 203.6  35.5  33914  285.43 0855.30
2009/04/23 07:14:59.9     -19    -28     20     35     40 214.3  32.4  33914  285.41 0855.30
2009/04/23 07:15:00.0     -16    -20     30     26     39 219.6  54.3  33912  285.39 0855.30
2009/04/23 07:15:00.1     -11    -18     29     22     36 210.7  58.5  33914  285.43 0855.30
2009/04/23 07:15:00.2      -1     -6     26      7     26 189.7  84.9  33916  285.44 0855.30
2009/04/23 07:15:00.3       5     -2     19      6     19 115.3  80.7  33914  285.41 0855.30
2009/04/23 07:15:00.4       1      2     15      3     15  32.5  89.0  33914  285.41 0855.30
2009/04/23 07:15:00.5       1      2     15      3     15  32.5  89.0  33914  285.41 0855.30
2009/04/23 07:15:00.6       5      6     17      8     18  39.6  77.1  33912  285.39 0855.30
2009/04/23 07:15:00.7      15     16     14     22     26  43.2  35.5  33916  285.44 0855.30
2009/04/23 07:15:00.8      23     -3     10     24     26  97.9  23.0  33914  285.41 0855.30
2009/04/23 07:15:00.9      32     -2     20     33     38  94.4  35.5  33914  285.41 0855.30
2009/04/23 07:15:01.0      45     -3     34     46     57  94.4  40.7  33914  285.41 0855.30
2009/04/23 07:15:01.1      36     12      9     38     40  71.4  13.2  33914  285.41 0855.30
2009/04/23 07:15:01.2      39     11     14     41     44  74.1  18.9  33914  285.43 0855.30
2009/04/23 07:15:01.3      33      2     33     34     47  85.6  51.1  33914  285.43 0855.30
2009/04/23 07:15:01.4      36     12     37     39     53  71.4  50.0  33914  285.43 0855.30
2009/04/23 07:15:01.6      38     38     40     55     68  45.0  39.7  33912  285.39 0855.30
2009/04/23 07:15:01.7      41     55     40     69     79  37.0  32.9  33912  285.39 0855.30
2009/04/23 07:15:01.7      50     53     48     74     88  43.2  36.0  33912  285.39 0855.30
2009/04/23 07:15:01.8      62     24     41     67     78  68.3  34.4  33912  285.38 0855.30
2009/04/23 07:15:01.9      52     32     50     62     79  58.5  43.3  33912  285.39 0855.30
2009/04/23 07:15:02.0      53     48     39     72     81  47.8  30.8  33912  285.39 0855.30
2009/04/23 07:15:02.1      24     51     50     57     75  25.4  45.8  33914  285.41 0855.30
2009/04/23 07:15:02.2      28     46     40     55     68  31.6  39.7  33912  285.39 0855.30
2009/04/23 07:15:02.3      32     47     24     57     61  34.3  23.1  33912  285.38 0855.31
2009/04/23 07:15:02.4      19     40      8     45     46  25.4  11.1  33912  285.38 0855.31
2009/04/23 07:15:02.5      13     39     14     42     45  18.5  18.4  33912  285.39 0855.31
2009/04/23 07:15:02.6      20     50     32     54     62  21.8  33.5  33910  285.36 0855.31
2009/04/23 07:15:02.7      29     67     35     74     81  23.6  26.6  33912  285.39 0855.31
2009/04/23 07:15:02.8      12     73     39     75     84   9.8  29.8  33912  285.39 0855.31
2009/04/23 07:15:02.9       9     66     35     67     75   8.0  30.3  33912  285.39 0855.31
2009/04/23 07:15:03.0       5     74     31     75     81   4.4  23.6  33912  285.39 0855.31
2009/04/23 07:15:03.1      -4     61     21     62     66 355.5  19.4  33914  285.41 0855.31
2009/04/23 07:15:03.2      -4     57     22     58     62 355.6  22.0  33912  285.39 0855.31
2009/04/23 07:15:03.3       3     57     18     58     61   3.6  17.3  33912  285.38 0855.31
2009/04/23 07:15:03.4      13     65     32     67     74  11.6  27.1  33910  285.36 0855.31
2009/04/23 07:15:03.5      24     71     34     75     82  18.7  25.7  33912  285.39 0855.31
2009/04/23 07:15:03.6      15     75     35     77     84  11.6  26.2  33912  285.38 0855.31
2009/04/23 07:15:03.7       6     87     33     88     93   4.0  20.4  33914  285.41 0855.31
2009/04/23 07:15:03.8      28     69     28     75     80  22.7  21.0  33912  285.38 0855.31
2009/04/23 07:15:03.9      41     65     30     78     83  32.5  21.5  33912  285.39 0855.31
2009/04/23 07:15:04.0      52     55     23     76     80  43.2  17.3  33912  285.39 0855.31
2009/04/23 07:15:04.1      38     51     24     64     68  37.0  20.0  33910  285.36 0855.31
2009/04/23 07:15:04.2      33     53     25     63     67  32.5  23.0  33908  285.33 0855.31
2009/04/23 07:15:04.3      16     47     30     50     58  19.2  35.5  33912  285.39 0855.30
2009/04/23 07:15:04.4      12     47     19     49     52  15.1  22.0  33910  285.36 0855.30
2009/04/23 07:15:04.5       8     52     24     53     58   8.9  26.2  33910  285.36 0855.30
2009/04/23 07:15:04.6      10     51     23     53     57  11.5  25.1  33910  285.36 0855.30
2009/04/23 07:15:04.7       7     47     28     48     55   8.9  34.4  33908  285.31 0855.30
2009/04/23 07:15:04.9      19     47     36     51     62  22.7  39.5  33908  285.33 0855.30
2009/04/23 07:15:04.9      35     32     41     48     63  46.9  44.8  33908  285.31 0855.30
2009/04/23 07:15:05.0      27     47     46     55     71  29.9  43.8  33908  285.31 0855.30
2009/04/23 07:15:05.2      16     50     42     53     67  17.8  42.7  33904  285.26 0855.30
2009/04/23 07:15:05.3      15     58     35     61     70  15.1  32.4  33906  285.28 0855.30
2009/04/23 07:15:05.4       8     52     31     53     61   8.9  33.5  33906  285.28 0855.30
2009/04/23 07:15:05.5      10     42     37     44     57  13.4  43.8  33904  285.26 0855.30
2009/04/23 07:15:05.6      36     43     51     57     76  39.6  47.9  33904  285.26 0855.30
2009/04/23 07:15:05.7      59     37     71     70     99  57.5  50.1  33904  285.24 0855.30
2009/04/23 07:15:05.8      59     55     64     81    103  46.8  42.7  33908  285.31 0855.30
2009/04/23 07:15:05.9      48     75     53     90    104  32.6  33.5  33910  285.34 0855.30
2009/04/23 07:15:06.0      58     65     42     88     97  41.4  27.2  33910  285.36 0855.30
2009/04/23 07:15:06.1      61     60     52     86    100  45.6  34.4  33912  285.38 0855.30
2009/04/23 07:15:06.2      76     54     48     94    105  54.5  29.3  33912  285.39 0855.30
2009/04/23 07:15:06.3      79     50     70     94    117  57.6  40.1  33910  285.36 0855.30
2009/04/23 07:15:06.4      88     62     70    108    128  54.9  35.6  33912  285.38 0855.31
2009/04/23 07:15:06.5      84     46     76     96    122  61.1  42.7  33912  285.38 0855.31
2009/04/23 07:15:06.6      78     40     74     88    114  62.9  43.8  33912  285.39 0855.31
2009/04/23 07:15:06.7      89     34     41     96    104  68.7  23.6  33910  285.36 0855.31
2009/04/23 07:15:06.8      71     23     63     75     97  71.4  44.3  33912  285.38 0855.31
2009/04/23 07:15:06.9      91     27     64     96    115  73.2  36.0  33914  285.43 0855.31
2009/04/23 07:15:07.0     118     26     58    122    135  77.2  27.2  33910  285.36 0855.31
2009/04/23 07:15:07.1      97     30     44    102    111  72.3  25.1  33912  285.39 0855.31
2009/04/23 07:15:07.2      86     32     65     92    112  69.6  39.1  33910  285.36 0855.31
2009/04/23 07:15:07.3      79     33     57     86    103  66.9  36.5  33910  285.34 0855.31
2009/04/23 07:15:07.4      65     26     37     71     80  68.3  29.8  33912  285.39 0855.31
2009/04/23 07:15:07.5      87     27     45     92    102  72.7  27.3  33912  285.38 0855.31
2009/04/23 07:15:07.6      65     21     68     69     96  71.4  50.5  33910  285.34 0855.31
2009/04/23 07:15:07.7      71     23     77     75    107  71.4  50.1  33912  285.38 0855.31
2009/04/23 07:15:07.8      91     14     75     93    119  80.8  43.3  33912  285.38 0855.31
2009/04/23 07:15:07.9      69     26     61     74     95  69.2  43.7  33910  285.34 0855.31
2009/04/23 07:15:08.0      52     38     52     65     83  54.1  43.3  33906  285.29 0855.31
2009/04/23 07:15:08.1      41     37     48     56     73  47.8  44.8  33908  285.33 0855.31
2009/04/23 07:15:08.2      54     39     32     67     74  54.0  27.1  33910  285.36 0855.31
2009/04/23 07:15:08.3      45     43     38     63     73  46.9  34.4  33908  285.33 0855.31
2009/04/23 07:15:08.4      54     51     30     75     80  46.9  23.0  33910  285.36 0855.31
2009/04/23 07:15:08.5      41     46     20     62     66  41.4  18.4  33910  285.36 0855.31
2009/04/23 07:15:08.6      34     51     26     62     67  34.3  23.1  33910  285.34 0855.31
2009/04/23 07:15:08.7      21     55     21     59     62  20.9  20.0  33912  285.39 0855.31
2009/04/23 07:15:08.8      20     58     12     62     64  19.2  11.1  33910  285.34 0855.31
2009/04/23 07:15:08.9      14     49     21     52     56  16.0  22.0  33910  285.34 0855.31
2009/04/23 07:15:09.0      31     48     18     58     61  33.4  17.3  33910  285.34 0855.31
2009/04/23 07:15:09.1      10     45     18     47     50  13.4  21.0  33910  285.36 0855.31
2009/04/23 07:15:09.2     -14     54     46     56     72 344.9  43.8  33908  285.31 0855.31
2009/04/23 07:15:09.3     -18     62     42     65     77 343.1  35.6  33908  285.33 0855.31
2009/04/23 07:15:09.4     -10     54     37     55     66 349.3  36.5  33912  285.38 0855.31
2009/04/23 07:15:09.5      -1     67     34     68     76 359.0  28.2  33908  285.31 0855.31
2009/04/23 07:15:09.6      -3     54     30     55     62 356.4  31.3  33908  285.33 0855.31
2009/04/23 07:15:09.7       9     66     42     67     79   8.0  35.0  33908  285.31 0855.31
2009/04/23 07:15:09.8      32     47     38     57     68  34.3  35.6  33912  285.38 0855.31
2009/04/23 07:15:09.9      27     43     34     52     62  32.5  36.5  33908  285.33 0855.31
2009/04/23 07:15:10.0      34     51     40     62     73  34.3  35.6  33910  285.34 0855.31
2009/04/23 07:15:10.1      24     42     38     49     62  30.7  41.7  33908  285.31 0855.31
2009/04/23 07:15:10.2      44     40     44     60     74  47.8  39.7  33906  285.29 0855.31
2009/04/23 07:15:10.3      56     44     35     72     80  51.4  27.8  33910  285.34 0855.31
2009/04/23 07:15:10.4      58     54     27     80     85  46.9  18.9  33910  285.34 0855.31
2009/04/23 07:15:10.5      51     72     13     89     90  35.2   8.5  33908  285.31 0855.31
2009/04/23 07:15:10.6      42     72     19     84     87  30.3  13.2  33908  285.31 0855.31
2009/04/23 07:15:10.7      19     59     26     63     68  18.5  23.0  33910  285.34 0855.31
2009/04/23 07:15:10.8       7     68     27     69     74   6.2  22.0  33908  285.33 0855.31
2009/04/23 07:15:10.9      17     52     19     55     59  18.3  19.4  33908  285.31 0855.31
2009/04/23 07:15:11.0      14     49     21     52     56  16.0  22.0  33910  285.34 0855.31
2009/04/23 07:15:11.1       7     47     28     48     55   8.9  34.4  33908  285.31 0855.31
2009/04/23 07:15:11.2       9     43     43     45     62  12.5  49.0  33908  285.33 0855.31
2009/04/23 07:15:11.3      13     45     47     48     67  16.9  51.1  33910  285.36 0855.31
2009/04/23 07:15:11.4      16     35     41     39     56  25.4  50.1  33908  285.31 0855.31
2009/04/23 07:15:11.5      -1     24     41     25     48 357.3  64.7  33908  285.31 0855.31
2009/04/23 07:15:11.6      16     34     35     38     51  25.3  47.9  33910  285.34 0855.31
2009/04/23 07:15:11.7       0     23     33     24     40 359.1  60.5  33910  285.36 0855.31
2009/04/23 07:15:11.8      -7     35     34     36     49 348.4  50.0  33908  285.33 0855.31
2009/04/23 07:15:11.9      -4     43     39     44     58 354.7  46.9  33910  285.34 0855.31
2009/04/23 07:15:12.0      16     34     35     38     51  25.3  47.9  33910  285.34 0855.31
2009/04/23 07:15:12.1      10     42     30     44     53  13.4  37.6  33910  285.34 0855.31
2009/04/23 07:15:12.2      -3     50     29     51     58 355.5  33.5  33910  285.36 0855.31
2009/04/23 07:15:12.3      -9     46     37     47     59 348.4  42.7  33908  285.31 0855.31
2009/04/23 07:15:12.4     -14     44     31     47     56 341.7  35.6  33910  285.34 0855.31
2009/04/23 07:15:12.5     -15     43     44     46     63 340.0  50.0  33910  285.34 0855.31
2009/04/23 07:15:12.6      -9     50     48     51     70 349.3  48.0  33908  285.33 0855.31
2009/04/23 07:15:12.7     -13     45     60     48     76 343.1  56.4  33910  285.36 0855.31
2009/04/23 07:15:12.8      -8     47     64     48     80 350.2  59.4  33908  285.31 0855.31
2009/04/23 07:15:12.9      -7     35     59     36     69 348.4  64.7  33908  285.31 0855.31
2009/04/23 07:15:13.0      -7     21     46     23     51 341.5  72.8  33908  285.31 0855.31
2009/04/23 07:15:13.1      -6     26     40     27     48 346.6  63.6  33910  285.34 0855.31
2009/04/23 07:15:13.2      -3     14     35     15     38 344.9  77.1  33906  285.29 0855.31
2009/04/23 07:15:13.3      -7     22     31     24     39 341.7  56.4  33906  285.29 0855.31
2009/04/23 07:15:13.4     -13     13     26     19     32 313.3  60.5  33906  285.29 0855.31
2009/04/23 07:15:13.5       0     23     26     24     35 359.1  50.1  33906  285.28 0855.31
2009/04/23 07:15:13.6      -7     22     31     24     39 341.7  56.4  33906  285.29 0855.31
2009/04/23 07:15:13.7      -4     13     22     14     26 341.3  64.7  33906  285.28 0855.31
2009/04/23 07:15:13.8      -8     22     17     24     29 340.0  37.6  33906  285.28 0855.31
2009/04/23 07:15:13.9      -2     31      6     32     33 355.6  11.1  33908  285.31 0855.31
2009/04/23 07:15:14.0     -10     32      6     34     35 341.3  11.1  33910  285.34 0855.31
2009/04/23 07:15:14.1      -5     41     13     42     45 352.0  17.3  33910  285.34 0855.31
2009/04/23 07:15:14.2      -4     56     15     57     60 355.5  15.3  33906  285.29 0855.31
2009/04/23 07:15:14.3      -9     57     16     58     61 350.2  15.3  33904  285.26 0855.31
2009/04/23 07:15:14.4     -26     56     17     62     65 334.6  15.3  33902  285.23 0855.32
2009/04/23 07:15:14.5     -36     55     24     66     70 326.6  20.0  33902  285.21 0855.32
2009/04/23 07:15:14.6     -26     59     29     65     71 335.5  26.2  33902  285.21 0855.32
2009/04/23 07:15:14.7      -1     66     13     67     69 359.1  11.0  33904  285.24 0855.32
2009/04/23 07:15:14.8      -4     59     16     60     63 355.6  15.2  33900  285.18 0855.32
2009/04/23 07:15:14.9     -10     53     10     54     56 349.3  11.1  33902  285.21 0855.32
2009/04/23 07:15:15.0     -15     46     16     49     52 341.7  18.4  33898  285.16 0855.32
2009/04/23 07:15:15.1     -13     39     14     42     45 340.8  19.2  33900  285.19 0855.32
2009/04/23 07:15:15.3      -8     58      7     59     60 352.0   6.9  33904  285.26 0855.32
2009/04/23 07:15:15.4     -22     56     14     61     63 338.1  13.2  33904  285.26 0855.32
2009/04/23 07:15:15.5     -55     45     14     72     74 309.5  11.1  33902  285.23 0855.32
2009/04/23 07:15:15.6     -44     69     14     83     85 327.5   9.5  33902  285.21 0855.32
2009/04/23 07:15:15.7      -9     70      2     71     72 352.0   1.8  33906  285.28 0855.32
2009/04/23 07:15:15.8      -8     90     -5     91     92 354.7  -3.1  33902  285.21 0855.32
2009/04/23 07:15:15.9     -75     91     22    119    122 320.3  10.6  33902  285.21 0855.32
2009/04/23 07:15:16.0     -66     91      5    113    114 323.9   2.8  33902  285.21 0855.32
2009/04/23 07:15:16.1     -45     94      5    105    106 334.5   2.9  33902  285.23 0855.32
2009/04/23 07:15:16.2     -49     78      7     93     94 327.5   4.9  33902  285.21 0855.32
2009/04/23 07:15:16.3     -37     65      3     76     77 330.1   2.9  33900  285.18 0855.32
2009/04/23 07:15:16.4     -42     58      1     72     73 323.9   0.8  33900  285.19 0855.32
2009/04/23 07:15:16.5     -38     59      0     71     72 327.5  -0.3  33898  285.14 0855.32
2009/04/23 07:15:16.6     -23     78     -3     82     83 343.5  -2.6  33902  285.21 0855.32
2009/04/23 07:15:16.7     -28     55     -9     62     63 332.8  -8.2  33902  285.21 0855.32
2009/04/23 07:15:16.8     -42     58     -3     72     73 323.9  -3.1  33906  285.28 0855.32
2009/04/23 07:15:16.9     -29     29    -11     42     44 314.9 -14.5  33904  285.24 0855.32
2009/04/23 07:15:17.0     -25     22    -14     34     36 311.3 -27.4  33906  285.28 0855.32
2009/04/23 07:15:17.1     -28     12    -14     31     34 293.5 -29.5  33904  285.24 0855.32
2009/04/23 07:15:17.2     -27      5    -13     28     30 281.5 -31.5  33906  285.29 0855.32
2009/04/23 07:15:17.3     -17     22    -17     28     32 322.2 -39.9  33906  285.29 0855.32
2009/04/23 07:15:17.4     -29     21    -14     36     38 306.0 -23.3  33906  285.28 0855.32
2009/04/23 07:15:17.5     -13     13    -13     19     23 313.3 -44.1  33906  285.29 0855.32
2009/04/23 07:15:17.6     -15     31    -23     35     41 332.8 -40.9  33908  285.31 0855.32
2009/04/23 07:15:17.7     -13     53     -7     55     56 345.7  -7.3  33908  285.33 0855.32
2009/04/23 07:15:17.8      -5     61      3     62     63 354.7   2.9  33904  285.26 0855.32
2009/04/23 07:15:17.9     -10     68     13     69     71 351.1  11.1  33904  285.26 0855.32
2009/04/23 07:15:18.0     -49     72     32     88     93 325.7  20.0  33900  285.18 0855.32
2009/04/23 07:15:18.1     -65     38     13     76     78 300.7  10.1  33902  285.23 0855.32
2009/04/23 07:15:18.2     -71     38     28     81     86 298.0  19.4  33902  285.21 0855.32
2009/04/23 07:15:18.3     -67     45     33     81     87 304.2  23.0  33902  285.21 0855.32
2009/04/23 07:15:18.4     -64     30     31     71     77 295.4  25.1  33904  285.24 0855.32
2009/04/23 07:15:18.5     -52     25     41     58     71 296.2  39.5  33904  285.26 0855.32
2009/04/23 07:15:18.6     -56    -21     60     60     84 249.2  50.1  33902  285.21 0855.32
2009/04/23 07:15:18.7     -42    -33     46     54     70 232.2  43.8  33902  285.21 0855.32
2009/04/23 07:15:18.8     -38    -10     42     40     58 254.9  49.1  33908  285.31 0855.32
2009/04/23 07:15:18.9     -30    -48     41     57     70 212.6  39.7  33912  285.38 0855.32
2009/04/23 07:15:19.0     -17    -66     50     69     85 194.3  39.1  33908  285.33 0855.32
2009/04/23 07:15:19.1     -10    -49     29     51     58 191.6  33.5  33904  285.26 0855.32
2009/04/23 07:15:19.2      -2    -42     24     43     49 182.7  31.4  33904  285.26 0855.32
2009/04/23 07:15:19.3      22    -22     29     32     43 135.0  47.9  33904  285.26 0855.32
2009/04/23 07:15:19.4      -1    -34     36     35     50 182.6  49.1  33904  285.26 0855.32
2009/04/23 07:15:19.5     -28    -57     57     64     85 206.3  46.4  33902  285.23 0855.32
2009/04/23 07:15:19.6     -58    -26     46     64     78 245.6  39.7  33900  285.19 0855.32
2009/04/23 07:15:19.7     -57    -19     44     61     75 251.8  39.5  33900  285.18 0855.32
2009/04/23 07:15:19.8     -36    -46     64     59     87 218.7  52.2  33898  285.16 0855.32
2009/04/23 07:15:19.9     -29    -33     71     45     84 221.4  64.7  33900  285.19 0855.32
2009/04/23 07:15:20.0     -19    -20     59     28     65 223.4  72.9  33904  285.26 0855.32
2009/04/23 07:15:20.1     -12    -35     56     38     67 198.7  62.6  33904  285.24 0855.32
2009/04/23 07:15:20.2     -15    -21     59     26     64 216.1  76.1  33900  285.18 0855.32
2009/04/23 07:15:20.3     -44    -12     31     46     55 254.9  35.6  33900  285.18 0855.32
2009/04/23 07:15:20.4     -58    -34     26     68     72 239.3  22.0  33900  285.19 0855.32
2009/04/23 07:15:20.5     -47    -38     37     61     71 231.4  35.5  33898  285.16 0855.32
2009/04/23 07:15:20.7     -31    -26     37     41     55 230.4  46.9  33904  285.24 0855.32
2009/04/23 07:15:20.8      -7    -22     31     24     39 198.3  56.4  33906  285.29 0855.32
2009/04/23 07:15:20.9     -18     11     20     22     29 302.4  50.0  33904  285.26 0855.32
2009/04/23 07:15:21.0     -14     12     11     19     21 309.5  33.5  33904  285.26 0855.32
2009/04/23 07:15:21.1       0     14     19     15     24 357.3  56.4  33908  285.31 0855.32
2009/04/23 07:15:21.2       6      7     28     10     29  39.6  81.2  33910  285.34 0855.32
2009/04/23 07:15:21.3      19    -30     31     36     47 147.5  45.8  33912  285.39 0855.32
2009/04/23 07:15:21.4       0    -42     55     43     69 180.0  57.5  33912  285.39 0855.32
2009/04/23 07:15:21.5       0    -45     53     46     70 180.9  55.4  33912  285.39 0855.32
2009/04/23 07:15:21.6      -4    -53     75     54     92 184.5  60.5  33912  285.39 0855.32
2009/04/23 07:15:21.7     -16    -74     71     76    104 192.5  48.0  33912  285.39 0855.32
2009/04/23 07:15:21.8     -21    -64     72     68     99 198.3  51.6  33916  285.44 0855.32
2009/04/23 07:15:21.9     -32    -63     62     71     94 207.2  45.8  33912  285.39 0855.32
2009/04/23 07:15:22.0     -19    -30     55     36     65 212.5  64.6  33914  285.41 0855.32
2009/04/23 07:15:22.1       0    -33     64     34     72 179.1  69.8  33914  285.41 0855.32
2009/04/23 07:15:22.2      -3    -12     53     13     54 195.1  85.9  33912  285.38 0855.32
2009/04/23 07:15:22.3     -10      3     41     11     42 288.4  84.9  33914  285.43 0855.32
2009/04/23 07:15:22.4      -3     -3     32      5     32 223.4  90.0  33914  285.43 0855.32
2009/04/23 07:15:22.5      -9     -3     16     10     18 248.3  64.7  33914  285.43 0855.32
2009/04/23 07:15:22.6       8    -12      8     15     17 147.5  31.4  33912  285.39 0855.32
2009/04/23 07:15:22.7      20     -6     23     22     31 108.4  50.1  33912  285.38 0855.32
2009/04/23 07:15:22.8      13    -30     33     33     46 156.4  50.1  33912  285.38 0855.32
2009/04/23 07:15:22.9      40    -27     37     49     61 124.2  40.7  33914  285.43 0855.32
2009/04/23 07:15:23.0      42    -34     29     55     62 128.6  30.3  33914  285.41 0855.32
2009/04/23 07:15:23.1      34    -53     38     64     74 147.5  35.5  33916  285.46 0855.32
2009/04/23 07:15:23.2      34    -51     46     62     77 145.7  39.7  33914  285.43 0855.32
2009/04/23 07:15:23.3      35    -42     46     55     71 140.4  43.8  33914  285.41 0855.32
2009/04/23 07:15:23.4      16    -47     44     50     66 160.8  46.9  33912  285.39 0855.32
2009/04/23 07:15:23.5      13    -45     47     48     67 163.1  51.1  33910  285.36 0855.32
2009/04/23 07:15:23.6       2    -36     57     37     67 175.6  64.6  33912  285.38 0855.32
2009/04/23 07:15:23.7     -14    -70     40     72     82 191.5  31.4  33912  285.39 0855.32
2009/04/23 07:15:23.8     -11    -68     41     70     81 189.8  32.9  33916  285.44 0855.32
2009/04/23 07:15:23.9     -10    -77     45     78     90 188.0  32.9  33914  285.41 0855.32
2009/04/23 07:15:24.0      -5    -67     46     68     82 184.5  37.6  33914  285.43 0855.32
2009/04/23 07:15:24.1     -23    -67     28     71     76 199.2  22.0  33914  285.43 0855.32
2009/04/23 07:15:24.2     -23    -70     31     74     80 198.7  24.1  33912  285.39 0855.32
2009/04/23 07:15:24.3     -25    -74     26     79     84 199.2  18.4  33912  285.39 0855.32
2009/04/23 07:15:24.4     -24    -71     17     75     78 198.7  13.2  33914  285.41 0855.32
2009/04/23 07:15:24.5     -23    -67     14     71     73 199.2  11.1  33914  285.43 0855.32
2009/04/23 07:15:24.6     -36    -61    -11     72     73 210.7  -9.3  33912  285.39 0855.32
2009/04/23 07:15:24.7     -30    -55    -22     63     67 209.0 -19.7  33912  285.39 0855.32
2009/04/23 07:15:24.8     -37    -58    -13     69     71 212.6 -11.3  33914  285.41 0855.32
2009/04/23 07:15:24.9     -34    -58     -8     68     69 210.7  -7.3  33914  285.41 0855.32
2009/04/23 07:15:25.0     -23    -57     -1     62     63 201.9  -1.3  33914  285.41 0855.32
2009/04/23 07:15:25.1     -13    -51     -2     53     54 195.1  -2.2  33914  285.41 0855.32
2009/04/23 07:15:25.2     -14    -41     -4     44     45 199.2  -5.2  33914  285.43 0855.32
2009/04/23 07:15:25.3     -32    -45      5     56     57 215.2   5.9  33916  285.44 0855.32
2009/04/23 07:15:25.4     -49    -65     -2     82     83 217.4  -1.8  33914  285.41 0855.32
2009/04/23 07:15:25.5     -36    -61      1     72     73 210.7   0.8  33912  285.39 0855.32
2009/04/23 07:15:25.6     -28    -58     -4     65     66 206.3  -4.1  33914  285.41 0855.32
2009/04/23 07:15:25.7     -32    -66      3     74     75 206.3   2.9  33914  285.41 0855.32
2009/04/23 07:15:25.8     -21    -53      1     58     59 201.8   1.8  33912  285.39 0855.32
2009/04/23 07:15:25.9     -14    -41      2     44     45 199.2   2.9  33912  285.39 0855.32
2009/04/23 07:15:26.0      -9    -26      7     28     30 200.0  15.3  33912  285.39 0855.32
2009/04/23 07:15:26.1      -3    -31     15     32     35 186.2  27.2  33910  285.36 0855.32
2009/04/23 07:15:26.2      -3    -45     16     46     49 184.5  19.4  33910  285.36 0855.32
2009/04/23 07:15:26.3      -7    -37     22     38     43 191.5  32.4  33912  285.38 0855.32
2009/04/23 07:15:26.4      -7    -36     38     37     53 191.6  49.1  33910  285.36 0855.32
2009/04/23 07:15:26.5      -6    -17     47     19     50 198.7  77.1  33914  285.43 0855.32
2009/04/23 07:15:26.6     -13    -21     53     26     59 212.5  72.9  33912  285.39 0855.32
2009/04/23 07:15:26.7     -14     -3     50     15     52 254.9  82.8  33914  285.43 0855.32
2009/04/23 07:15:26.8     -13     -4     42     14     44 251.4  81.0  33914  285.43 0855.32
2009/04/23 07:15:26.9     -23    -19     43     31     53 230.4  60.5  33914  285.41 0855.32
2009/04/23 07:15:27.0     -28    -40     32     50     59 215.2  35.6  33910  285.36 0855.32
2009/04/23 07:15:27.1     -29    -29     14     42     45 225.1  19.2  33910  285.36 0855.32
2009/04/23 07:15:27.2     -19    -19     26     27     37 225.1  52.0  33910  285.34 0855.32
2009/04/23 07:15:27.3      -9    -27     29     29     41 200.0  50.1  33910  285.36 0855.32
2009/04/23 07:15:27.4      26    -27      6     38     39 136.6  10.1  33910  285.34 0855.32
2009/04/23 07:15:27.5      25    -40      3     48     49 147.5   3.8  33910  285.36 0855.32
2009/04/23 07:15:27.6      21    -25     14     33     35 140.3  23.0  33908  285.33 0855.32
2009/04/23 07:15:27.7      -9    -61     29     62     68 188.9  27.1  33908  285.33 0855.32
2009/04/23 07:15:27.8     -20    -51     17     56     59 201.8  17.3  33912  285.39 0855.32
2009/04/23 07:15:27.9     -32    -45     -1     56     57 215.2  -1.3  33910  285.36 0855.32
2009/04/23 07:15:28.0     -34    -53    -19     64     67 212.5 -16.6  33910  285.36 0855.32
2009/04/23 07:15:28.1     -40    -64    -25     76     81 212.5 -18.7  33910  285.36 0855.32
2009/04/23 07:15:28.2     -38    -38    -27     54     60 225.0 -32.6  33912  285.38 0855.32
2009/04/23 07:15:28.3     -30    -30    -13     43     46 225.0 -17.6  33910  285.36 0855.32
2009/04/23 07:15:28.4     -41    -14      5     44     45 250.9   6.9  33910  285.36 0855.32
2009/04/23 07:15:28.5     -24    -23      6     34     35 226.9  11.1  33910  285.36 0855.32
2009/04/23 07:15:28.6     -13     -3      3     14     15 254.9  15.3  33910  285.34 0855.32
2009/04/23 07:15:28.7     -18     20     27     28     38 318.6  52.0  33910  285.36 0855.32
2009/04/23 07:15:28.8     -26     41     34     49     59 327.4  38.6  33910  285.36 0855.32
2009/04/23 07:15:28.9     -44     24     29     51     58 298.9  33.5  33910  285.36 0855.32
2009/04/23 07:15:29.0     -46      2     27     47     54 272.6  33.5  33908  285.33 0855.32
2009/04/23 07:15:29.1     -24      4     22     25     33 279.7  45.8  33910  285.34 0855.32
2009/04/23 07:15:29.2     -14      3     11     15     18 285.1  39.7  33908  285.31 0855.32
2009/04/23 07:15:29.3     -22      7     11     24     26 288.2  25.1  33908  285.31 0855.32
2009/04/23 07:15:29.4     -13     -3      3     14     15 254.9  15.3  33910  285.34 0855.32
2009/04/23 07:15:29.5      -5     20     24     21     31 344.9  54.3  33910  285.34 0855.32
2009/04/23 07:15:29.6       3     22     24     23     33   9.8  48.2  33908  285.31 0855.32
2009/04/23 07:15:29.7       8     12     22     15     26  32.6  64.6  33912  285.39 0855.32
2009/04/23 07:15:29.8      41     20     22     46     51  63.8  27.2  33910  285.34 0855.32
2009/04/23 07:15:29.9      54     12     23     56     60  77.6  23.1  33910  285.36 0855.32
2009/04/23 07:15:30.0      70      2     34     71     78  88.3  27.2  33910  285.34 0855.32
2009/04/23 07:15:30.1      60      9     32     61     68  81.2  29.3  33910  285.36 0855.32
2009/04/23 07:15:30.2      66     10     44     67     80  81.2  36.5  33910  285.34 0855.32
2009/04/23 07:15:30.3      34      0     47     35     58  89.1  59.4  33912  285.38 0855.32
2009/04/23 07:15:30.4      30     19     47     36     59  57.6  58.5  33914  285.41 0855.32
2009/04/23 07:15:30.5     -21     39     73     45     85 331.0  65.1  33912  285.39 0855.32
2009/04/23 07:15:30.6      -6     61     53     62     81 353.8  45.4  33910  285.34 0855.32
2009/04/23 07:15:30.7     -18     55     42     59     72 341.3  39.5  33910  285.36 0855.32
2009/04/23 07:15:30.8     -13     47     32     49     58 344.0  35.6  33910  285.36 0855.32
2009/04/23 07:15:30.9     -23     57     35     62     71 337.3  31.4  33910  285.34 0855.32
2009/04/23 07:15:31.1     -45     56     30     72     78 321.3  23.1  33910  285.36 0855.32
2009/04/23 07:15:31.2     -42     66     44     79     90 327.4  31.4  33908  285.31 0855.32
2009/04/23 07:15:31.3     -43     68     28     81     86 327.5  19.4  33910  285.36 0855.32
2009/04/23 07:15:31.4     -45     97     16    107    109 335.1   8.5  33908  285.33 0855.32
2009/04/23 07:15:31.5     -48    104     18    115    117 335.1   8.9  33908  285.31 0855.32
2009/04/23 07:15:31.6     -42     88     14     98    100 334.5   8.5  33910  285.34 0855.32
2009/04/23 07:15:31.7     -50     78      7     93     94 327.4   4.4  33912  285.38 0855.32
2009/04/23 07:15:31.8     -51     86      7    101    102 329.3   4.4  33908  285.31 0855.32
2009/04/23 07:15:31.9     -28     81     23     86     90 340.8  15.3  33904  285.26 0855.32
2009/04/23 07:15:32.1     -22     93     14     96     98 346.6   8.5  33906  285.29 0855.32
2009/04/23 07:15:32.2     -22     84     15     88     90 344.9  10.1  33904  285.24 0855.32
2009/04/23 07:15:32.3     -23     70      8     74     75 341.3   6.9  33908  285.31 0855.32
2009/04/23 07:15:32.4     -41     80    -17     90     92 332.8 -10.9  33906  285.28 0855.32
2009/04/23 07:15:32.5     -23     78    -11     82     83 343.5  -8.2  33906  285.29 0855.32
2009/04/23 07:15:32.6     -12     73     -1     75     76 350.2  -1.3  33904  285.26 0855.32
2009/04/23 07:15:32.7     -20     58     -2     62     63 340.8  -2.2  33902  285.23 0855.32
2009/04/23 07:15:32.8     -28     58     -4     65     66 333.7  -4.1  33904  285.26 0855.32
2009/04/23 07:15:32.9     -25     45     -2     52     53 330.1  -2.2  33904  285.24 0855.32
2009/04/23 07:15:33.0     -25     42    -13     50     52 329.3 -15.5  33904  285.26 0855.32
2009/04/23 07:15:33.1     -30     30     -5     43     44 315.0  -7.3  33906  285.28 0855.32
2009/04/23 07:15:33.2     -28     35     -2     45     46 321.3  -3.1  33904  285.26 0855.32
2009/04/23 07:15:33.3     -41     17    -11     45     47 293.5 -14.5  33902  285.23 0855.32
2009/04/23 07:15:33.4     -50     10      0     52     53 281.4  -0.3  33904  285.26 0855.32
2009/04/23 07:15:33.5     -42      5    -14     43     45 277.0 -23.8  33904  285.24 0855.32
2009/04/23 07:15:33.6     -31     -6    -17     32     36 258.5 -33.7  33904  285.24 0855.32
2009/04/23 07:15:33.7     -14      3    -15     15     21 285.1 -54.5  33904  285.24 0855.32
2009/04/23 07:15:33.8      -7      8     -7     11     13 320.4 -39.9  33904  285.26 0855.32
2009/04/23 07:15:33.9      -2      3     -2      4      4 327.5 -39.9  33904  285.26 0855.32
2009/04/23 07:15:34.0      -2      3     -2      4      4 327.5 -39.9  33904  285.26 0855.32
2009/04/23 07:15:34.1      -5      5     -2      8      9 315.0 -15.5  33904  285.26 0855.32
2009/04/23 07:15:34.2       0     10      0     11     12 355.5  -3.1  33904  285.26 0855.32
2009/04/23 07:15:34.3      -2      3     -2      4      4 327.5 -39.9  33904  285.26 0855.32
2009/04/23 07:15:34.4      -7      0     -2      8      9 270.0 -15.5  33908  285.31 0855.32
2009/04/23 07:15:34.6      -1     10      3     11     12 352.0  19.2  33906  285.29 0855.32
2009/04/23 07:15:34.7      16     16     -1     23     24  45.1  -3.1  33908  285.31 0855.32
2009/04/23 07:15:34.8      16     16     -1     23     24  45.1  -3.1  33908  285.31 0855.32
2009/04/23 07:15:34.9      18      3      0     19     20  78.5  -2.2  33910  285.34 0855.32
2009/04/23 07:15:35.0      15      4      9     16     18  74.9  31.4  33910  285.34 0855.32
2009/04/23 07:15:35.1       2     13     10     14     17  11.6  39.7  33910  285.34 0855.32
2009/04/23 07:15:35.2       5     36     13     37     40   8.0  19.2  33910  285.34 0855.32
2009/04/23 07:15:35.3      18     31     11     37     39  30.7  17.3  33908  285.31 0855.32
2009/04/23 07:15:35.4      39     32     17     51     54  50.5  18.4  33906  285.29 0855.32
2009/04/23 07:15:35.5      40     40     32     57     65  45.1  31.4  33908  285.33 0855.32
2009/04/23 07:15:35.6      24     42     38     49     62  30.7  41.7  33908  285.31 0855.32
2009/04/23 07:15:35.7      27     47     46     55     71  29.9  43.8  33908  285.31 0855.32
2009/04/23 07:15:35.8      41     55     33     69     76  37.0  27.2  33908  285.31 0855.32
2009/04/23 07:15:35.9      52     65     11     84     85  38.3   7.5  33908  285.33 0855.32
2009/04/23 07:15:36.0      39     62     -2     74     75  32.6  -2.2  33906  285.29 0855.32
2009/04/23 07:15:36.1      21     46     -6     51     52  25.5  -7.3  33906  285.28 0855.32
2009/04/23 07:15:36.2      -2     47     13     48     50 357.3  15.3  33904  285.26 0855.32
2009/04/23 07:15:36.3      -1     53     24     54     59 358.2  25.1  33906  285.29 0855.32
2009/04/23 07:15:36.4      -7     31     -1     32     33 346.6  -3.1  33908  285.31 0855.32
2009/04/23 07:15:36.5     -19     14      0     24     25 306.0  -2.2  33910  285.34 0855.32
2009/04/23 07:15:36.6      -1     15     -5     16     16 355.6 -23.8  33908  285.31 0855.32
2009/04/23 07:15:36.7      -7     31     -1     32     33 346.6  -2.2  33908  285.31 0855.32
2009/04/23 07:15:36.8     -14     22     19     27     33 327.5  39.7  33908  285.31 0855.32
2009/04/23 07:15:36.9     -16      0     16     17     23 270.0  50.0  33908  285.31 0855.32
2009/04/23 07:15:37.0     -23    -19     27     30     40 230.5  46.9  33910  285.36 0855.32
2009/04/23 07:15:37.1      -6    -49     53     50     72 188.0  52.1  33910  285.34 0855.32
2009/04/23 07:15:37.2     -13    -66     56     68     88 191.6  43.8  33908  285.33 0855.32
2009/04/23 07:15:37.3       1    -74     48     75     89 179.1  35.5  33910  285.34 0855.32
2009/04/23 07:15:37.4      16    -50     62     53     81 162.2  54.8  33910  285.34 0855.32
2009/04/23 07:15:37.5       5    -66     53     67     85 175.5  42.7  33910  285.34 0855.32
2009/04/23 07:15:37.6       7    -62     75     63     97 172.9  55.8  33912  285.39 0855.32
2009/04/23 07:15:37.7       9    -24     64     26     69 158.2  77.1  33914  285.41 0855.32
2009/04/23 07:15:37.8      -4     14     48     15     50 341.5  81.8  33914  285.43 0855.32
2009/04/23 07:15:37.9     -10     -3     41     11     42 251.6  84.9  33914  285.41 0855.32
2009/04/23 07:15:38.0       3    -30     50     31     58 173.8  64.7  33910  285.36 0855.32
2009/04/23 07:15:38.1      18    -30     58     36     68 149.3  64.7  33912  285.39 0855.32
2009/04/23 07:15:38.2       1    -73     68     74    100 179.0  47.9  33914  285.43 0855.32
2009/04/23 07:15:38.3      23    -96     69     99    120 166.2  38.6  33910  285.36 0855.32
2009/04/23 07:15:38.4      29    -92     74     97    122 162.2  41.6  33910  285.34 0855.32
2009/04/23 07:15:38.5      26    -97     72    101    124 164.9  39.1  33910  285.34 0855.32
2009/04/23 07:15:38.6      33   -100     66    106    124 161.5  35.5  33910  285.34 0855.32
2009/04/23 07:15:38.7      33    -97     80    103    130 160.8  41.7  33910  285.34 0855.32
2009/04/23 07:15:38.8      32    -97     81    103    131 161.7  42.7  33910  285.36 0855.32
2009/04/23 07:15:38.9      18    -95     78     97    124 169.3  42.7  33908  285.33 0855.32
2009/04/23 07:15:39.0      17    -53     72     56     91 161.7  57.9  33908  285.31 0855.32
2009/04/23 07:15:39.1       1    -49     68     50     84 178.2  60.0  33910  285.36 0855.32
2009/04/23 07:15:39.2       8    -59     70     60     92 172.0  54.8  33908  285.33 0855.32
2009/04/23 07:15:39.3      17    -42     64     46     78 158.2  60.5  33910  285.36 0855.32
2009/04/23 07:15:39.4      -2    -25     71     26     75 184.5  81.2  33912  285.39 0855.32
2009/04/23 07:15:39.5       1     -6     58      7     58 168.4  90.0  33912  285.39 0855.32
2009/04/23 07:15:39.6       3     -7     57      8     57 154.6  90.0  33914  285.41 0855.32
2009/04/23 07:15:39.7     -13     -8     53     16     55 237.6  81.8  33912  285.39 0855.32
2009/04/23 07:15:39.8       0    -40     71     41     81 180.9  67.2  33912  285.39 0855.32
2009/04/23 07:15:39.9       7    -37     82     38     90 168.4  73.1  33910  285.36 0855.32
2009/04/23 07:15:40.0      -1    -30     66     31     72 182.6  73.1  33912  285.39 0855.32
2009/04/23 07:15:40.1       0    -13     55     14     56 179.1  85.9  33914  285.43 0855.32
2009/04/23 07:15:40.2       9     -3     57     10     57 111.7  90.0  33912  285.38 0855.32
2009/04/23 07:15:40.3     -11      1     43     12     44 277.9  83.9  33914  285.41 0855.32
2009/04/23 07:15:40.4     -14      3     50     15     52 285.1  82.8  33914  285.43 0855.32
2009/04/23 07:15:40.5      -8    -24     52     26     58 198.5  71.9  33910  285.36 0855.32
2009/04/23 07:15:40.6      -1      0     61      2     61 270.0  90.0  33908  285.33 0855.32
2009/04/23 07:15:40.7      21     21     55     31     63  45.0  68.8  33908  285.31 0855.32
2009/04/23 07:15:40.8      16     15     64     23     68  46.9  81.2  33908  285.33 0855.32
2009/04/23 07:15:40.9      11     34     71     36     79  18.7  71.4  33906  285.29 0855.32
2009/04/23 07:15:41.0      13     43     63     45     77  16.9  60.6  33904  285.26 0855.32
2009/04/23 07:15:41.1      10     42     64     44     77  13.4  62.6  33904  285.24 0855.32
2009/04/23 07:15:41.2      26     46     73     54     90  29.9  60.0  33908  285.31 0855.32
2009/04/23 07:15:41.3       7     -2     69      8     69 108.6  90.0  33908  285.33 0855.32
2009/04/23 07:15:41.4      17      5     51     18     54  71.8  81.2  33910  285.36 0855.32
2009/04/23 07:15:41.5      33     12     87     36     94  70.0  77.1  33912  285.39 0855.32
2009/04/23 07:15:41.6      28     -2     89     29     93  94.4  80.7  33910  285.34 0855.32
2009/04/23 07:15:41.7      -4     -7     82      9     82 212.5  90.0  33908  285.31 0855.32
2009/04/23 07:15:41.8      57     -4     59     58     82  94.4  50.1  33912  285.38 0855.32
2009/04/23 07:15:41.9      78     18     57     81     99  76.7  39.1  33910  285.34 0855.32
2009/04/23 07:15:42.0      61     39     68     73     99  57.6  48.0  33912  285.38 0855.32
2009/04/23 07:15:42.1      84     59     62    103    120  54.9  33.5  33910  285.34 0855.32
2009/04/23 07:15:42.2      67     36     87     77    116  62.0  53.7  33908  285.33 0855.32
2009/04/23 07:15:42.3      95     31     59    101    116  71.6  33.5  33910  285.36 0855.32
2009/04/23 07:15:42.4      83     51     55     98    112  58.5  31.4  33910  285.34 0855.32
2009/04/23 07:15:42.5     100     49     47    112    121  63.8  24.1  33910  285.36 0855.32
2009/04/23 07:15:42.6     143     80     28    164    167  60.7   9.9  33908  285.33 0855.32
2009/04/23 07:15:42.7     137     65     18    152    154  64.6   6.9  33908  285.33 0855.32
2009/04/23 07:15:42.8     131     75     56    152    161  60.2  21.0  33904  285.26 0855.32
2009/04/23 07:15:42.9     103    115     98    155    183  41.9  35.5  33904  285.26 0855.32
2009/04/23 07:15:43.0     135     85     65    160    172  57.6  23.0  33906  285.29 0855.32
2009/04/23 07:15:43.1     124     67     54    142    151  61.6  21.5  33904  285.26 0855.32
2009/04/23 07:15:43.2     105     50     40    117    124  64.7  18.9  33908  285.31 0855.32
2009/04/23 07:15:43.3     104     70     61    126    139  55.8  27.3  33904  285.24 0855.32
2009/04/23 07:15:43.4      82     73     65    110    127  48.2  33.5  33906  285.28 0855.32
2009/04/23 07:15:43.5     107     41     57    115    128  68.7  28.2  33906  285.29 0855.32
2009/04/23 07:15:43.6      84     46     44     96    105  61.1  26.6  33906  285.29 0855.32
2009/04/23 07:15:43.7      85     23     50     89    102  74.9  31.4  33908  285.31 0855.32
2009/04/23 07:15:43.8      89      7     49     90    102  85.2  31.3  33906  285.29 0855.32
2009/04/23 07:15:43.9      87      0     50     88    101  90.0  31.9  33910  285.36 0855.32
2009/04/23 07:15:44.0      86     -6     57     87    104  94.4  36.0  33912  285.39 0855.32
2009/04/23 07:15:44.1      85      0     76     86    114  90.0  46.4  33912  285.38 0855.32
2009/04/23 07:15:44.2      78      5     83     79    114  85.7  51.2  33912  285.38 0855.32
2009/04/23 07:15:44.3      60    -18     79     63    101 106.8  56.9  33910  285.34 0855.32
2009/04/23 07:15:44.4      52    -17     65     55     85 108.4  55.4  33902  285.23 0855.32
2009/04/23 07:15:44.5      60    -33     71     69     99 118.9  50.7  33906  285.29 0855.32
2009/04/23 07:15:44.6      60    -39     65     72     97 123.3  46.9  33908  285.31 0855.32
2009/04/23 07:15:44.7      18    -38     83     43     93 154.6  70.8  33906  285.28 0855.32
2009/04/23 07:15:44.8      36    -15     68     40     78 113.5  66.8  33908  285.31 0855.32
2009/04/23 07:15:44.9      15     12     49     20     52  50.5  77.1  33906  285.29 0855.32
2009/04/23 07:15:45.0      -1     21     44     22     49 355.5  72.8  33910  285.34 0855.32
2009/04/23 07:15:45.1       0    -14     46     15     48 182.7  80.7  33908  285.33 0855.32
2009/04/23 07:15:45.2     -24     -1     35     25     43 265.6  60.5  33910  285.34 0855.32
2009/04/23 07:15:45.3      -2    -13     35     14     37 191.6  79.2  33906  285.29 0855.32
2009/04/23 07:15:45.4      25     -8     45     27     52 108.6  65.7  33902  285.23 0855.32
2009/04/23 07:15:45.5      22     -7     49     24     54 108.6  72.9  33902  285.23 0855.32
2009/04/23 07:15:45.6      12      8     40     15     42  57.6  79.2  33902  285.23 0855.32
2009/04/23 07:15:45.7      52    -13     61     54     81 104.2  53.7  33906  285.29 0855.32
2009/04/23 07:15:45.8      54    -18     67     57     87 108.6  55.4  33902  285.23 0855.32
2009/04/23 07:15:45.9      -3     22     49     23     54 350.2  73.1  33904  285.24 0855.32
2009/04/23 07:15:46.0     -11    -35     68     37     77 198.3  68.9  33904  285.26 0855.32
2009/04/23 07:15:46.1     -10    -55     79     56     96 190.7  61.5  33902  285.23 0855.32
2009/04/23 07:15:46.2     -18     -6     70     20     72 251.6  83.9  33900  285.19 0855.32
2009/04/23 07:15:46.3     -28    -13     76     32     82 244.8  76.1  33904  285.24 0855.32
2009/04/23 07:15:46.4      48     31     88     58    105  57.6  64.1  33906  285.29 0855.32
2009/04/23 07:15:46.5     105     99     91    145    171  46.8  35.5  33906  285.29 0855.32
2009/04/23 07:15:46.6      18     55     98     59    114  18.7  65.7  33906  285.28 0855.32
2009/04/23 07:15:46.7     -16     42     51     45     68 339.1  52.2  33904  285.26 0855.32
2009/04/23 07:15:46.8     -31     14     35     35     49 295.2  50.1  33906  285.29 0855.32
2009/04/23 07:15:46.9     -50    -14     44     52     68 254.1  44.8  33906  285.29 0855.32
2009/04/23 07:15:47.0       1    -12     82     13     83 175.5  90.0  33908  285.31 0855.32
2009/04/23 07:15:47.1     -42    -28     75     51     90 236.7  62.6  33910  285.34 0855.32
2009/04/23 07:15:47.2     -30    -63     67     70     96 205.4  49.4  33910  285.34 0855.32
2009/04/23 07:15:47.3       2    -40     76     41     86 176.4  69.3  33908  285.31 0855.32
2009/04/23 07:15:47.4       5    -34     87     35     93 170.2  77.6  33904  285.26 0855.32
2009/04/23 07:15:47.5       7    -45     82     46     94 171.1  67.7  33908  285.31 0855.32
2009/04/23 07:15:47.6      -4    -57     66     58     87 184.5  53.7  33910  285.34 0855.32
2009/04/23 07:15:47.7     -18    -54     55     57     79 198.5  49.4  33904  285.26 0855.32
2009/04/23 07:15:47.8     -22    -46     57     52     77 205.5  52.2  33898  285.14 0855.32
2009/04/23 07:15:47.9     -36    -31     50     48     69 228.7  50.1  33898  285.16 0855.32
2009/04/23 07:15:48.0     -26     -7     33     27     42 254.9  55.4  33902  285.21 0855.32
2009/04/23 07:15:48.1     -30    -10     31     32     44 250.0  51.1  33900  285.18 0855.32
2009/04/23 07:15:48.2     -28    -19     36     34     49 235.8  50.1  33898  285.16 0855.32
2009/04/23 07:15:48.3     -17    -14     41     23     47 230.5  67.7  33898  285.16 0855.32
2009/04/23 07:15:48.5     -80     11     69     81    106 278.0  44.8  33896  285.11 0855.33
2009/04/23 07:15:48.6     -72     -5     63     73     96 265.6  45.4  33896  285.13 0855.33
2009/04/23 07:15:48.7     -77    -15     58     79     98 258.5  40.1  33896  285.13 0855.33
2009/04/23 07:15:48.8     -84    -37     42     92    101 246.0  26.6  33896  285.11 0855.33
2009/04/23 07:15:48.9     -43    -68     59     81    100 212.6  39.7  33898  285.14 0855.33
2009/04/23 07:15:49.0     -77    -71     51    106    117 227.3  27.2  33898  285.16 0855.33
2009/04/23 07:15:49.1     -99      0     46    100    110 270.0  27.1  33900  285.18 0855.33
2009/04/23 07:15:49.2     -76    -19     80     79    112 255.8  49.7  33898  285.16 0855.33
2009/04/23 07:15:49.3     -92    -44     65    103    121 244.2  35.5  33900  285.18 0855.33
2009/04/23 07:15:49.4     -77    -13     45     79     90 260.3  32.4  33896  285.11 0855.33
2009/04/23 07:15:49.5     -36    -27     47     46     65 233.1  50.1  33898  285.14 0855.33
2009/04/23 07:15:49.6     -14    -46     46     49     67 197.8  48.0  33900  285.19 0855.33
2009/04/23 07:15:49.7     -19    -44     71     49     86 203.6  62.1  33900  285.19 0855.33
2009/04/23 07:15:49.8     -28    -73     41     79     89 200.9  29.8  33900  285.19 0855.33
2009/04/23 07:15:49.9     -48    -50     53     70     87 224.1  41.2  33900  285.18 0855.33
2009/04/23 07:15:50.0     -47    -74     46     88     99 212.6  30.3  33904  285.26 0855.33
2009/04/23 07:15:50.1     -41    -78     40     89     97 208.1  25.7  33906  285.28 0855.33
2009/04/23 07:15:50.2     -44    -71     42     84     93 212.1  28.7  33902  285.21 0855.33
2009/04/23 07:15:50.3     -52    -68     30     86     92 217.8  19.4  33902  285.21 0855.33
2009/04/23 07:15:50.4     -42    -88     39     98    105 205.5  23.0  33902  285.23 0855.33
2009/04/23 07:15:50.5     -26    -91     35     95    101 196.0  21.0  33900  285.18 0855.33
2009/04/23 07:15:50.6     -15    -79     32     81     87 190.7  22.0  33900  285.19 0855.33
2009/04/23 07:15:50.7      -4    -65     51     66     83 183.6  41.7  33900  285.19 0855.33
2009/04/23 07:15:50.8     -29    -59     64     66     91 206.3  50.0  33894  285.07 0855.33
2009/04/23 07:15:50.9     -67    -44     27     81     86 236.7  18.9  33890  285.02 0855.33
2009/04/23 07:15:51.0     -57      0     24     58     62 269.2  23.1  33892  285.04 0855.33
2009/04/23 07:15:51.1     -86    -39     35     95    101 245.2  21.0  33892  285.06 0855.33
2009/04/23 07:15:51.2     -42    -68     52     81     96 211.6  35.6  33894  285.07 0855.33
2009/04/23 07:15:51.3     -77    -80     71    112    132 224.1  35.5  33896  285.13 0855.33
2009/04/23 07:15:51.4     -60    -76     71     98    121 218.3  39.7  33894  285.09 0855.33
2009/04/23 07:15:51.5     -30    -93     85     98    129 198.3  45.4  33908  285.31 0855.33
2009/04/23 07:15:51.6      19    -71    122     74    142 164.8  65.7  33908  285.31 0855.33
2009/04/23 07:15:51.7       0    -32     98     33    103 180.9  81.0  33906  285.29 0855.33
2009/04/23 07:15:51.8     -18     -1     74     19     76 265.6  84.9  33902  285.21 0855.33
2009/04/23 07:15:51.9     -16     -5     83     17     84 251.8  89.0  33902  285.23 0855.33
2009/04/23 07:15:52.0     -52    -43     69     68     96 230.5  49.7  33886  284.96 0855.33
2009/04/23 07:15:52.1     -42    -20     44     47     64 243.8  48.0  33894  285.09 0855.33
2009/04/23 07:15:52.2     -76    -33     48     83     95 246.5  32.9  33896  285.11 0855.33
2009/04/23 07:15:52.3     -83    -47     26     96    100 240.2  15.3  33894  285.07 0855.33
2009/04/23 07:15:52.4     -54    -37     23     66     70 234.9  19.4  33890  285.02 0855.33
2009/04/23 07:15:52.5     -27    -22     46     36     58 230.4  56.4  33892  285.06 0855.32
2009/04/23 07:15:52.6     -22    -22     31     32     44 225.0  51.1  33894  285.07 0855.32
2009/04/23 07:15:52.7      -1    -19     31     20     36 184.5  64.7  33894  285.07 0855.32
2009/04/23 07:15:52.8      29     -8     39     31     49 105.1  56.4  33896  285.13 0855.32
2009/04/23 07:15:52.9      -9    -31     51     33     60 196.9  64.6  33898  285.16 0855.32
2009/04/23 07:15:53.0     -12    -38     40     41     57 198.5  51.1  33904  285.24 0855.32
2009/04/23 07:15:53.1       0    -33     28     34     44 180.9  44.8  33902  285.21 0855.32
2009/04/23 07:15:53.2       0    -38     26     39     46 180.9  36.5  33906  285.29 0855.32
2009/04/23 07:15:53.3      -6    -50     26     51     57 187.1  28.2  33910  285.34 0855.32
2009/04/23 07:15:53.4     -26    -50     29     57     63 208.1  28.2  33910  285.36 0855.32
2009/04/23 07:15:53.5     -18    -39     35     44     56 205.4  43.7  33906  285.29 0855.32
2009/04/23 07:15:53.6      -2    -43     53     44     68 183.6  56.3  33902  285.21 0855.32
2009/04/23 07:15:53.7     -10    -78     51     79     94 188.0  35.6  33908  285.31 0855.32
2009/04/23 07:15:53.8     -23    -68     39     72     81 198.7  30.8  33908  285.33 0855.32
2009/04/23 07:15:53.9      -4    -49     17     50     53 185.3  18.9  33910  285.36 0855.32
2009/04/23 07:15:54.0      12    -38     19     40     44 162.2  26.2  33908  285.33 0855.32
2009/04/23 07:15:54.1      17    -36     34     40     52 154.5  44.8  33908  285.31 0855.32
2009/04/23 07:15:54.2      25    -57     31     63     70 156.4  27.3  33902  285.23 0855.32
2009/04/23 07:15:54.3      14    -54      4     56     57 164.9   4.9  33908  285.31 0855.32
2009/04/23 07:15:54.4      11    -25     -2     28     29 156.4  -5.2  33904  285.26 0855.32
2009/04/23 07:15:54.5      16    -10      0     20     21 122.5   0.8  33902  285.21 0855.33
2009/04/23 07:15:54.6       5     -9      0     11     12 151.0  -2.2  33900  285.18 0855.33
2009/04/23 07:15:54.7       5      6      5      8      9  39.6  35.5  33902  285.23 0855.33
2009/04/23 07:15:54.8     -12     16     14     21     25 323.9  35.6  33904  285.24 0855.33
2009/04/23 07:15:54.9      -3     22     22     23     31 350.2  50.0  33902  285.23 0855.33
2009/04/23 07:15:55.0      -1     20     18     21     27 355.5  45.8  33900  285.18 0855.33
2009/04/23 07:15:55.1       6     17     26     19     32  18.7  60.5  33900  285.18 0855.33
2009/04/23 07:15:55.2       4     13     44     14     46  18.7  80.7  33896  285.13 0855.33
2009/04/23 07:15:55.3       3     22     51     23     55   9.8  74.0  33898  285.16 0855.33
2009/04/23 07:15:55.4      25     22     46     34     57  48.7  59.4  33902  285.21 0855.33
2009/04/23 07:15:55.5      32     40     52     52     73  38.7  50.1  33902  285.23 0855.33
2009/04/23 07:15:55.6      24     47     41     53     67  27.2  41.7  33902  285.23 0855.33
2009/04/23 07:15:55.7      -8     22     37     24     44 340.0  63.6  33900  285.19 0855.33
2009/04/23 07:15:55.9       1     10     35     11     36   8.0  80.7  33900  285.18 0855.33
2009/04/23 07:15:55.9       7     36     39     37     53  11.6  50.1  33900  285.19 0855.33
2009/04/23 07:15:56.0      19     39     43     44     61  26.3  50.0  33898  285.14 0855.33
2009/04/23 07:15:56.1      15     58     48     61     77  15.1  43.7  33896  285.13 0855.33
2009/04/23 07:15:56.2      24     33     56     41     69  36.1  60.5  33900  285.18 0855.33
2009/04/23 07:15:56.3      10     -2     43     11     44 105.1  84.9  33900  285.18 0855.33
2009/04/23 07:15:56.4      -5    -29     55     30     62 189.8  68.9  33902  285.21 0855.33
2009/04/23 07:15:56.5     -33    -53     48     63     79 211.6  41.2  33902  285.23 0855.33
2009/04/23 07:15:56.6     -28    -70     46     76     88 201.8  34.4  33902  285.21 0855.33
2009/04/23 07:15:56.7      14    -52     47     54     71 164.9  44.8  33904  285.26 0855.33
2009/04/23 07:15:56.8      21    -39     42     45     61 151.0  47.9  33898  285.16 0855.33
2009/04/23 07:15:56.9      40    -19     44     45     62 115.3  50.0  33898  285.16 0855.33
2009/04/23 07:15:57.0      31     21     11     38     40  55.8  16.3  33898  285.14 0855.33
2009/04/23 07:15:57.1      44     14     17     47     49  71.4  20.0  33894  285.07 0855.33
2009/04/23 07:15:57.2      40     11      9     42     43  74.1  12.2  33896  285.13 0855.33
2009/04/23 07:15:57.4      42     46     12     63     65  42.3  11.1  33898  285.14 0855.33
2009/04/23 07:15:57.5      24     40     41     47     62  31.6  46.9  33898  285.14 0855.33
2009/04/23 07:15:57.6      51     54     34     75     82  43.2  25.7  33896  285.11 0855.33
2009/04/23 07:15:57.7      46     53     31     71     77  40.5  25.1  33896  285.13 0855.33
2009/04/23 07:15:57.8      46     31     38     56     67  55.8  37.6  33898  285.14 0855.33
2009/04/23 07:15:57.9      55     45     32     72     78  50.4  25.1  33898  285.16 0855.33
2009/04/23 07:15:58.0      59     20     26     63     68  71.4  23.0  33900  285.18 0855.33
2009/04/23 07:15:58.1      48      3     17     49     52  85.6  19.4  33900  285.18 0855.33
2009/04/23 07:15:58.2      37     12     17     40     43  71.4  23.0  33900  285.18 0855.33
2009/04/23 07:15:58.3      17     15      3     23     24  48.7   9.0  33904  285.24 0855.33
2009/04/23 07:15:58.4      -7     46     -2     47     48 351.1  -3.1  33898  285.16 0855.33
2009/04/23 07:15:58.5     -16     46      1     49     50 340.8   1.8  33898  285.16 0855.33
2009/04/23 07:15:58.6      -9     41     -3     43     44 346.6  -5.2  33896  285.13 0855.33
2009/04/23 07:15:58.7     -26     38    -16     47     50 325.7 -18.7  33896  285.13 0855.33
2009/04/23 07:15:58.8     -40     25    -16     48     50 302.5 -23.6  33896  285.13 0855.33
2009/04/23 07:15:58.9     -42      5    -12     43     45 277.0 -16.6  33902  285.21 0855.33
2009/04/23 07:15:59.0     -52    -10     18     54     57 258.5  18.4  33898  285.16 0855.33
2009/04/23 07:15:59.1     -48     -9     46     49     67 259.4  48.0  33898  285.14 0855.33
2009/04/23 07:15:59.2     -67      7     52     68     85 276.1  41.2  33900  285.18 0855.33
2009/04/23 07:15:59.3     -66     34     89     75    116 297.1  55.8  33898  285.16 0855.33
2009/04/23 07:15:59.4     -35     74     99     83    129 334.6  56.3  33898  285.14 0855.33
2009/04/23 07:15:59.5      -3     46     63     47     78 355.5  59.0  33898  285.14 0855.33
2009/04/23 07:15:59.6     -32     52     40     62     73 328.4  35.6  33898  285.16 0855.34
2009/04/23 07:15:59.7     -58     28     27     65     70 296.2  24.1  33902  285.21 0855.34
2009/04/23 07:15:59.8     -25     42    -17     50     52 329.3 -23.6  33900  285.18 0855.34
2009/04/23 07:15:59.9     -48     14     -6     51     52 286.8  -7.3  33900  285.18 0855.34
2009/04/23 07:16:00.0     -62     10     -2     63     64 279.7  -2.2  33900  285.18 0855.34
2009/04/23 07:16:00.1     -27      0     33     28     43 270.0  54.3  33898  285.16 0855.34
2009/04/23 07:16:00.2      34    -30     30     46     54 131.3  35.6  33898  285.14 0855.34
2009/04/23 07:16:00.3     110    -26     27    114    118 103.3  13.7  33894  285.09 0855.34
2009/04/23 07:16:00.4      94     10     28     95    100  83.4  16.3  33894  285.09 0855.34
2009/04/23 07:16:00.5      85    -13     17     87     89  98.8  11.1  33894  285.09 0855.34
2009/04/23 07:16:00.6      75    -26     -6     80     81 109.1  -4.6  33896  285.11 0855.34
2009/04/23 07:16:00.7      59    -17      3     62     63 106.8   2.9  33892  285.04 0855.34
2009/04/23 07:16:00.8      58    -42     27     72     76 126.0  20.0  33896  285.13 0855.34
2009/04/23 07:16:00.9      42    -86     33     96    102 153.7  18.9  33898  285.14 0855.34
2009/04/23 07:16:01.0      78    -48     44     92    101 121.5  27.2  33894  285.09 0855.34
2009/04/23 07:16:01.1      54    -45     45     71     84 129.6  35.5  33888  284.99 0855.34
2009/04/23 07:16:01.2      11    -55     46     57     73 168.4  43.7  33890  285.01 0855.34
2009/04/23 07:16:01.3      -1    -41     31     42     52 181.8  40.7  33890  285.02 0855.34
2009/04/23 07:16:01.4      -5    -77     62     78     99 184.4  42.7  33896  285.13 0855.34
2009/04/23 07:16:01.5      55    -73     73     92    117 143.0  43.3  33892  285.04 0855.34
2009/04/23 07:16:01.6      23    -77     68     81    105 163.1  44.3  33904  285.24 0855.34
2009/04/23 07:16:01.7       4    -90     59     91    108 176.9  35.6  33898  285.16 0855.34
2009/04/23 07:16:01.8      16    -47     73     50     88 161.3  62.6  33890  285.02 0855.34
2009/04/23 07:16:01.9      66      3     64     67     92  87.4  49.0  33892  285.06 0855.34
2009/04/23 07:16:02.0      38    -36     38     53     65 133.1  39.5  33892  285.04 0855.34
2009/04/23 07:16:02.1     -46     -7     42     47     63 261.2  47.9  33890  285.02 0855.34
2009/04/23 07:16:02.2     -55    -15     46     58     74 254.1  43.7  33888  284.99 0855.34
2009/04/23 07:16:02.3     -26      0     46     27     53 270.0  66.8  33890  285.01 0855.34
2009/04/23 07:16:02.4     -40     12     10     42     44 286.8  13.2  33888  284.97 0855.34
2009/04/23 07:16:02.5       5     35    -74     36     82   8.0 -76.8  33894  285.07 0855.34
2009/04/23 07:16:02.6      31      0    -62     32     69  90.8 -75.2  33896  285.13 0855.34
2009/04/23 07:16:02.7     -42     43    -19     61     63 315.9 -23.8  33900  285.19 0855.34
2009/04/23 07:16:02.8     -74     87    -50    115    125 319.5 -29.5  33902  285.21 0855.34
2009/04/23 07:16:02.9    -116     90    -29    147    150 307.8 -11.3  33904  285.26 0855.34
2009/04/23 07:16:03.0    -110    106    -22    153    155 314.0  -8.2  33902  285.21 0855.34
2009/04/23 07:16:03.1    -107     78     40    133    139 306.0  16.8  33902  285.21 0855.34
2009/04/23 07:16:03.2    -121     54     16    133    135 294.0   7.1  33900  285.19 0855.34
2009/04/23 07:16:03.3     -45    -48    -58     66     87 223.3 -50.8  33902  285.23 0855.34
2009/04/23 07:16:03.4     -30    -79    -51     85     99 200.9 -38.4  33900  285.19 0855.34
2009/04/23 07:16:03.5     -88    -12    -39     89     97 261.6 -29.5  33900  285.18 0855.34
2009/04/23 07:16:03.6     -30    -67    -22     74     77 204.5 -22.8  33900  285.18 0855.34
2009/04/23 07:16:03.7       1    -26    -19     27     33 177.3 -44.1  33900  285.18 0855.34
2009/04/23 07:16:03.8      41     16    -18     45     48  68.3 -25.4  33900  285.18 0855.34
2009/04/23 07:16:03.9      48      7     35     49     60  81.2  39.7  33892  285.06 0855.34
2009/04/23 07:16:04.0      14     -6     79     16     80 115.3  89.6  33894  285.07 0855.34
2009/04/23 07:16:04.1     -15    -33     83     37     90 205.4  74.0  33890  285.01 0855.34
2009/04/23 07:16:04.2     -18    -45     81     49     94 201.8  65.1  33898  285.14 0855.34
2009/04/23 07:16:04.3     -13   -102     86    103    134 187.6  43.8  33908  285.33 0855.34
2009/04/23 07:16:04.4     -27   -111     86    115    143 193.8  40.1  33908  285.33 0855.34
2009/04/23 07:16:04.5     -32   -119     82    124    148 195.2  36.5  33908  285.33 0855.34
2009/04/23 07:16:04.6     -41   -110     88    118    147 200.5  40.7  33904  285.24 0855.34
2009/04/23 07:16:04.7     -77    -91     71    120    139 220.1  33.5  33896  285.13 0855.34
2009/04/23 07:16:04.8     -56    -78     74     97    122 215.6  41.6  33898  285.16 0855.34
2009/04/23 07:16:04.9     -65    -99     75    119    140 213.4  35.5  33900  285.19 0855.34
2009/04/23 07:16:05.0     -51    -86     71    101    123 210.7  38.6  33904  285.24 0855.34
2009/04/23 07:16:05.1     -62    -74     53     97    110 220.1  31.3  33900  285.19 0855.34
2009/04/23 07:16:05.2     -75    -64     42     99    107 229.6  23.6  33898  285.16 0855.34
2009/04/23 07:16:05.3    -114    -19     39    116    123 260.3  18.9  33886  284.94 0855.34
2009/04/23 07:16:05.4    -122    -18     55    124    135 261.6  25.2  33892  285.06 0855.34
2009/04/23 07:16:05.5    -106    -12     63    107    124 263.0  33.5  33892  285.04 0855.34
2009/04/23 07:16:05.6     -79    -94     84    123    148 220.1  37.6  33906  285.29 0855.34
2009/04/23 07:16:05.7     -72    -64     67     97    117 228.2  38.0  33906  285.29 0855.34
2009/04/23 07:16:05.8     -48   -132     73    141    158 200.1  29.5  33904  285.26 0855.34
2009/04/23 07:16:05.9    -105    -82     83    134    157 232.2  34.8  33908  285.31 0855.34
2009/04/23 07:16:06.0     -74   -100     74    125    145 216.5  33.5  33906  285.28 0855.34
2009/04/23 07:16:06.1     -64   -109     59    127    140 210.3  27.1  33904  285.26 0855.34
2009/04/23 07:16:06.2     -43    -85     42     96    104 207.2  25.1  33900  285.19 0855.34
2009/04/23 07:16:06.3     -46     -9     55     47     72 258.5  55.4  33900  285.19 0855.34
2009/04/23 07:16:06.4       0      0     53      0     53   0.0 -90.0  33904  285.24 0855.34
2009/04/23 07:16:06.5       0      0     66      0     66   0.0  90.0  33904  285.24 0855.34
2009/04/23 07:16:06.6     -19     19     66     27     71 315.0  77.1  33900  285.18 0855.34
2009/04/23 07:16:06.7     -21     25     73     33     80 320.4  74.0  33900  285.18 0855.34
2009/04/23 07:16:06.8     -47     22     79     52     94 295.2  64.6  33890  285.01 0855.34
2009/04/23 07:16:06.9     -45     45     82     65    104 315.0  57.5  33888  284.99 0855.34
2009/04/23 07:16:07.0     -68     61     73     92    117 311.8  43.3  33892  285.06 0855.34
2009/04/23 07:16:07.1     -66     42     89     79    119 302.5  53.7  33888  284.97 0855.34
2009/04/23 07:16:07.2     -66     34     89     75    116 297.1  55.8  33890  285.02 0855.34
2009/04/23 07:16:07.3     -96     -7     60     97    114 265.7  35.5  33896  285.13 0855.34
2009/04/23 07:16:07.4     -96      0     53     97    110 270.0  31.3  33896  285.13 0855.34
2009/04/23 07:16:07.5     -84     14     47     86     98 279.7  30.8  33898  285.16 0855.34
2009/04/23 07:16:07.6    -112     -8     35    113    119 265.7  17.3  33902  285.21 0855.34
2009/04/23 07:16:07.7     -81      2     36     82     89 271.7  25.7  33900  285.18 0855.34
2009/04/23 07:16:07.8     -97    -22     66    100    119 256.7  37.0  33894  285.07 0855.34
2009/04/23 07:16:07.9    -117    -15     82    118    143 262.5  38.0  33892  285.06 0855.34
2009/04/23 07:16:08.0    -131    -26     61    134    147 258.6  26.6  33896  285.13 0855.34
2009/04/23 07:16:08.1    -102    -27     66    106    124 255.0  35.5  33890  285.02 0855.34
2009/04/23 07:16:08.2    -128     -3     99    129    162 268.3  41.4  33890  285.01 0855.34
2009/04/23 07:16:08.3    -111      8     87    112    141 274.3  41.7  33892  285.06 0855.34
2009/04/23 07:16:08.4    -126      0     89    127    155 270.4  38.6  33892  285.04 0855.34
2009/04/23 07:16:08.5    -123    -17     75    125    145 262.0  34.0  33890  285.01 0855.34
2009/04/23 07:16:08.6    -186    134    -38    230    234 305.7  -9.4  33944  285.93 0855.34
2009/04/23 07:16:08.7    -131     -3     47    132    140 268.3  20.0  33890  285.02 0855.34
2009/04/23 07:16:08.8    -186    -14     19    187    189 265.6   6.1  33890  285.01 0855.34
2009/04/23 07:16:08.9    -139    -45     54    147    156 251.8  20.9  33894  285.07 0855.34
2009/04/23 07:16:09.0    -139    -36     44    144    151 255.4  17.3  33894  285.09 0855.34
2009/04/23 07:16:09.1    -111    -43     37    120    126 248.7  17.4  33890  285.02 0855.34
2009/04/23 07:16:09.2     -28    -55     49     62     79 207.2  42.7  33896  285.13 0855.34
2009/04/23 07:16:09.3     -85    -26     50     90    102 252.7  31.4  33894  285.09 0855.34
2009/04/23 07:16:09.4    -129    -34     60    134    146 255.0  26.2  33894  285.09 0855.34
2009/04/23 07:16:09.5     -76     -5    101     77    127 265.7  58.5  33900  285.18 0855.34
2009/04/23 07:16:09.6     -10    -99    123    100    158 186.2  56.9  33902  285.23 0855.34
2009/04/23 07:16:09.7     -30    -98     70    103    124 197.4  37.4  33900  285.19 0855.34
2009/04/23 07:16:09.8      21    -62    102     66    121 161.3  64.1  33900  285.18 0855.34
2009/04/23 07:16:09.9     -33     11     41     35     53 288.6  54.3  33900  285.18 0855.34
2009/04/23 07:16:10.0     -31      0     22     32     38 270.0  37.6  33896  285.13 0855.34
2009/04/23 07:16:10.1     -21     23    -14     32     34 316.8 -31.5  33898  285.14 0855.34
2009/04/23 07:16:10.2     -59     61    -23     86     90 315.9 -15.4  33888  284.97 0855.34
2009/04/23 07:16:10.3     -64    100    -25    119    122 327.4 -11.9  33882  284.89 0855.34
2009/04/23 07:16:10.4    -106    116    -51    158    166 317.7 -23.3  33912  285.39 0855.34
2009/04/23 07:16:10.5    -160    105    -60    192    202 303.5 -17.3  33908  285.33 0855.34
2009/04/23 07:16:10.6    -166    120    -74    206    218 306.0 -25.1  33910  285.34 0855.34
2009/04/23 07:16:10.7    -144     81    -96    166    191 299.3 -37.3  33904  285.26 0855.34
2009/04/23 07:16:10.8     -60    179    -23    189    191 341.3  -7.2  33896  285.13 0855.34
2009/04/23 07:16:10.9     -65    190    -54    201    209 341.1 -15.2  33898  285.14 0855.34
2009/04/23 07:16:11.0    -100    157    -55    187    194 327.5 -21.7  33890  285.02 0855.34
2009/04/23 07:16:11.1     -91     87    -62    127    141 313.6 -31.7  33888  284.97 0855.34
2009/04/23 07:16:11.2     -63     96    -69    116    134 326.6 -37.9  33888  284.99 0855.34
2009/04/23 07:16:11.3     -56     94     60    110    125 329.3  31.4  33898  285.16 0855.34
2009/04/23 07:16:11.4     -39     43     48     59     76 317.7  43.7  33902  285.23 0855.34
2009/04/23 07:16:11.5     -54     34     57     64     85 302.4  46.4  33900  285.18 0855.34
2009/04/23 07:16:11.6     -37     16     63     41     75 294.4  64.6  33900  285.18 0855.35
2009/04/23 07:16:11.7     -52     13     71     54     89 284.2  59.0  33896  285.11 0855.35
2009/04/23 07:16:11.8     -81     -5     61     82    102 266.5  40.1  33894  285.07 0855.35
2009/04/23 07:16:11.9     -85    -48     76     98    124 240.2  41.7  33892  285.04 0855.35
2009/04/23 07:16:12.0     -58    -41     80     72    107 234.9  53.3  33898  285.14 0855.35
2009/04/23 07:16:12.1     -76    -73     98    106    144 226.0  47.9  33894  285.09 0855.35
2009/04/23 07:16:12.2     -87    -42     94     97    135 243.8  49.9  33896  285.13 0855.35
2009/04/23 07:16:12.3    -152    -27    102    155    185 259.9  36.3  33896  285.13 0855.35
2009/04/23 07:16:12.4    -184    -28     53    187    195 261.2  16.0  33894  285.09 0855.35
2009/04/23 07:16:12.5    -164    -61     60    176    187 249.4  18.9  33898  285.14 0855.35
2009/04/23 07:16:12.6    -182    -50     50    189    196 254.5  15.0  33900  285.18 0855.35
2009/04/23 07:16:12.7    -171    -81     59    190    199 244.6  17.3  33896  285.13 0855.35
2009/04/23 07:16:12.8    -128   -111     26    170    173 229.1   8.8  33898  285.16 0855.35
2009/04/23 07:16:12.9    -125   -125    -12    178    179 225.0  -4.1  33902  285.21 0855.35
2009/04/23 07:16:13.0    -128    -88     11    156    157 235.4   4.2  33898  285.16 0855.35
2009/04/23 07:16:13.1    -117    -32     19    122    124 254.5   8.9  33896  285.11 0855.35
2009/04/23 07:16:13.2    -129    -30     22    133    135 256.7   9.5  33892  285.06 0855.35
2009/04/23 07:16:13.3    -143      7     57    144    154 273.0  22.5  33884  284.92 0855.35
2009/04/23 07:16:13.4    -144      0     69    145    160 270.0  27.2  33882  284.87 0855.35
2009/04/23 07:16:13.5    -137     32     55    141    151 283.3  23.0  33886  284.94 0855.35
2009/04/23 07:16:13.6    -122     58     47    136    145 295.4  19.2  33882  284.89 0855.35
2009/04/23 07:16:13.7    -135     31     38    139    145 283.3  15.3  33882  284.89 0855.35
2009/04/23 07:16:13.8    -167     32     -1    171    172 281.0  -0.5  33882  284.89 0855.35
2009/04/23 07:16:13.9    -151      3     -3    152    153 271.3  -1.3  33886  284.94 0855.35
2009/04/23 07:16:14.0    -136     -6    -17    137    139 267.4  -7.3  33886  284.96 0855.35
2009/04/23 07:16:14.1     -82    -16    -30     84     90 258.5 -19.7  33890  285.01 0855.35
2009/04/23 07:16:14.2     -96     -6    -16     97     99 266.1  -9.8  33890  285.02 0855.35
2009/04/23 07:16:14.3     -96     -4     -3     97     98 267.4  -2.2  33896  285.11 0855.35
2009/04/23 07:16:14.4    -114      0    -57    115    128 270.0 -32.6  33894  285.09 0855.35
2009/04/23 07:16:14.5    -106    -32    -48    111    120 253.2 -29.5  33896  285.13 0855.35
2009/04/23 07:16:14.6     -75    -25    -36     80     87 251.4 -30.1  33902  285.23 0855.35
2009/04/23 07:16:14.7    -113    -13    -63    114    130 263.4 -35.8  33900  285.19 0855.35
2009/04/23 07:16:14.8     -85     31    -37     91     98 290.0 -27.5  33892  285.04 0855.35
2009/04/23 07:16:14.9     -79     -4    -70     80    106 266.5 -50.8  33890  285.02 0855.35
2009/04/23 07:16:15.0     -90    -24    -33     94     99 254.9 -23.8  33894  285.07 0855.35
2009/04/23 07:16:15.1    -127    -33     11    132    133 255.4   4.9  33898  285.16 0855.35
2009/04/23 07:16:15.2     -91    -18     33     93     98 258.5  20.0  33896  285.11 0855.35
2009/04/23 07:16:15.3     -87    -31     -8     93     94 250.5  -5.2  33898  285.14 0855.35
2009/04/23 07:16:15.4     -84    -40    -16     94     96 244.7  -9.8  33896  285.13 0855.35
2009/04/23 07:16:15.5     -76    -81     60    112    127 223.2  30.8  33896  285.11 0855.35
2009/04/23 07:16:15.6    -104   -109      7    151    152 223.7   2.8  33900  285.19 0855.35
2009/04/23 07:16:15.7     -91    -87      6    127    128 226.4   2.9  33900  285.19 0855.35
2009/04/23 07:16:15.8     -76    -77     83    109    137 224.5  41.6  33894  285.09 0855.35
2009/04/23 07:16:15.9    -103     -7     63    104    121 265.6  34.0  33890  285.01 0855.35
2009/04/23 07:16:16.0    -134    -10     43    135    142 265.7  17.9  33892  285.04 0855.35
2009/04/23 07:16:16.1    -105    -20     20    107    110 259.0  11.0  33894  285.09 0855.35
2009/04/23 07:16:16.2     -48    -74     34     89     95 213.4  21.0  33894  285.09 0855.35
2009/04/23 07:16:16.3     -40    -74     27     85     90 208.1  17.9  33896  285.13 0855.35
2009/04/23 07:16:16.4      25    -76     37     81     89 161.3  26.2  33902  285.21 0855.35
2009/04/23 07:16:16.5      46   -101     58    111    125 155.5  29.8  33902  285.21 0855.35
2009/04/23 07:16:16.6      34   -108     14    114    115 162.2   7.5  33902  285.21 0855.35
2009/04/23 07:16:16.7      -7    -92    -21     93     96 184.9 -12.9  33898  285.14 0855.35
2009/04/23 07:16:16.8     -62    -30    -31     70     76 243.8 -29.5  33896  285.13 0855.35
2009/04/23 07:16:16.9     -45    -24    -25     52     57 242.0 -31.6  33892  285.04 0855.35
2009/04/23 07:16:17.0     -67    -26     14     73     75 248.3  11.0  33896  285.11 0855.35
2009/04/23 07:16:17.1     -43    -43     -4     61     62 225.0  -4.1  33894  285.09 0855.35
2009/04/23 07:16:17.2     -30    -37     -7     48     49 218.7  -8.2  33894  285.07 0855.35
2009/04/23 07:16:17.3      -1    -38     -6     39     40 182.7  -9.3  33892  285.06 0855.35
2009/04/23 07:16:17.5      15    -31    -22     35     41 152.8 -39.9  33894  285.07 0855.35
2009/04/23 07:16:17.6      59    -48    -29     77     82 129.5 -25.9  33892  285.06 0855.36
2009/04/23 07:16:17.7     117     -9    -35    118    124  94.4 -16.6  33900  285.18 0855.36
2009/04/23 07:16:17.8     171      6     36    172    176  87.9  12.0  33900  285.19 0855.36
2009/04/23 07:16:17.9     219     24    136    221    259  83.6  34.5  33904  285.24 0855.36
2009/04/23 07:16:18.0     265     48     73    270    280  79.6  15.3  33904  285.25 0855.36
2009/04/23 07:16:18.1     220     39     64    224    234  79.9  16.0  33902  285.23 0855.36
2009/04/23 07:16:18.3     216     50     56    222    230  76.7  14.3  33902  285.21 0855.36
2009/04/23 07:16:18.3     211     60     91    220    238  74.1  23.8  33900  285.18 0855.36
2009/04/23 07:16:18.4     197     -2    140    198    242  90.8  38.6  33900  285.18 0855.36
2009/04/23 07:16:18.5     148      2    163    149    220  89.1  52.5  33900  285.19 0855.36
2009/04/23 07:16:18.6     154     68    171    169    240  66.0  50.1  33896  285.13 0855.36
2009/04/23 07:16:18.7     126     68    207    144    252  61.6  62.1  33902  285.23 0855.36
2009/04/23 07:16:18.8     236    134    174    272    322  60.5  35.6  33900  285.19 0855.36
2009/04/23 07:16:18.9     233    127    125    266    293  61.4  27.1  33900  285.17 0855.36
2009/04/23 07:16:19.0     200     87    112    219    245  66.5  29.1  33898  285.15 0855.36
2009/04/23 07:16:19.1     223    122     87    255    270  61.4  18.9  33902  285.20 0855.36
2009/04/23 07:16:19.2     254    139     87    290    303  61.2  16.8  33902  285.22 0855.36
2009/04/23 07:16:19.3     209     22    154    211    261  83.8  39.7  33902  285.20 0855.36
2009/04/23 07:16:19.4     227    -35    163    230    281  98.8  38.6  33902  285.22 0855.36
2009/04/23 07:16:19.5     160    -73     72    176    190 114.6  23.4  33900  285.19 0855.36
2009/04/23 07:16:19.6     128    -65    -11    144    145 117.1  -4.6  33900  285.18 0855.36
2009/04/23 07:16:19.7     137     -5     57    138    149  92.1  23.1  33900  285.19 0855.36
2009/04/23 07:16:19.8     147     -5     29    148    151  92.1  11.1  33902  285.21 0855.36
2009/04/23 07:16:19.9     150     19      1    152    153  82.5   0.7  33898  285.16 0855.36
2009/04/23 07:16:20.0     198    -28     40    201    206  98.1  11.4  33898  285.16 0855.36
2009/04/23 07:16:20.1     231    -73      8    243    244 107.7   2.1  33898  285.15 0855.36
2009/04/23 07:16:20.2     310   -106    -12    328    329 109.0  -2.2  33896  285.12 0855.36
2009/04/23 07:16:20.3     348    -56     -7    353    354  99.2  -1.2  33902  285.20 0855.36
2009/04/23 07:16:20.4     388     99    -43    401    404  75.7  -6.2  33906  285.29 0855.36
2009/04/23 07:16:20.5     269    -54     43    275    279 101.4   9.0  33904  285.24 0855.36
2009/04/23 07:16:20.6     384    -25     33    385    387  93.8   5.0  33902  285.21 0855.36
2009/04/23 07:16:20.7     289    -48     68    293    301  99.5  13.1  33902  285.22 0855.36
2009/04/23 07:16:20.8     358    -53   -153    362    393  98.5 -28.6  33902  285.20 0855.36
2009/04/23 07:16:20.9     298      0      6    299    300  90.0   1.2  33902  285.22 0855.36
2009/04/23 07:16:21.0     228    -17     11    229    230  94.3   2.8  33906  285.28 0855.36
2009/04/23 07:16:21.1     294      7     52    295    300  88.5  10.1  33906  285.29 0855.36
2009/04/23 07:16:21.2     274     64     73    282    292  76.7  14.5  33906  285.29 0855.36
2009/04/23 07:16:21.3     255    -36     69    258    268  98.1  15.0  33908  285.30 0855.36
2009/04/23 07:16:21.4     207    -90     51    226    232 113.6  12.9  33900  285.19 0855.36
2009/04/23 07:16:21.5     209    -99     67    232    242 115.4  16.3  33892  285.03 0855.36
2009/04/23 07:16:21.6     257   -115     92    282    297 114.2  18.1  33896  285.10 0855.36
2009/04/23 07:16:21.7     240    -46    128    245    276 101.0  29.8  33900  285.17 0855.36
2009/04/23 07:16:21.8     213    -95     80    234    248 114.2  18.9  33896  285.10 0855.36
2009/04/23 07:16:21.9     194    -75     83    209    224 111.3  23.0  33890  285.02 0855.36
2009/04/23 07:16:22.0     182    -89     69    203    215 116.2  18.9  33894  285.07 0855.36
2009/04/23 07:16:22.1     228   -122     55    259    265 118.2  12.2  33894  285.07 0855.36
2009/04/23 07:16:22.2     187    -10     23    188    190  93.3   7.1  33898  285.14 0855.36
2009/04/23 07:16:22.3     173    -87     39    194    199 116.9  11.6  33898  285.14 0855.36
2009/04/23 07:16:22.4     178    -45     56    184    193 104.4  17.1  33896  285.13 0855.36
2009/04/23 07:16:22.5     202    -28    128    205    241  98.0  35.2  33902  285.21 0855.36
2009/04/23 07:16:22.6     259     36     -5    262    263  82.1  -1.3  33896  285.12 0855.37
2009/04/23 07:16:22.7     362     57     21    367    368  81.0   3.3  33904  285.25 0855.37
2009/04/23 07:16:22.8     316     -4     24    317    318  90.8   4.3  33902  285.20 0855.37
2009/04/23 07:16:23.0     269     34      3    272    273  82.8   0.8  33908  285.30 0855.37
2009/04/23 07:16:23.1     287    117     75    311    320  67.8  13.6  33910  285.34 0855.37
2009/04/23 07:16:23.2     263    119     51    289    294  65.6  10.0  33906  285.27 0855.37
2009/04/23 07:16:23.3     170    134    121    217    248  51.8  31.6  33906  285.27 0855.37
2009/04/23 07:16:23.4     279    138    164    312    352  63.6  30.0  33908  285.30 0855.37
2009/04/23 07:16:23.4     255    120     98    282    299  64.8  19.2  33906  285.29 0855.37
2009/04/23 07:16:23.6     223    103    173    246    300  65.2  38.6  33906  285.29 0855.37
2009/04/23 07:16:23.7     245     98    105    265    285  68.2  23.0  33906  285.27 0855.37
2009/04/23 07:16:23.8     302    166      8    345    346  61.2   1.5  33906  285.28 0855.37
2009/04/23 07:16:23.9     266    149     57    305    311  60.7  10.6  33906  285.29 0855.37
2009/04/23 07:16:24.0     309    173     11    355    356  60.7   1.9  33908  285.30 0855.37
2009/04/23 07:16:24.1     319    243    -38    402    404  52.7  -5.5  33906  285.29 0855.37
2009/04/23 07:16:24.2     311    175    -32    358    360  60.6  -5.2  33908  285.30 0855.37
2009/04/23 07:16:24.3     335    162    -25    373    374  64.1  -3.9  33908  285.30 0855.37
2009/04/23 07:16:24.4     299    195     21    358    359  56.9   3.5  33904  285.25 0855.37
2009/04/23 07:16:24.5     272    200    -24    338    339  53.6  -4.1  33904  285.25 0855.37
2009/04/23 07:16:24.6     356    158    -84    390    400  66.1 -12.2  33908  285.31 0855.37
2009/04/23 07:16:24.7     398     73   -104    405    419  79.5 -14.5  33906  285.27 0855.35
2009/04/23 07:16:24.8     307    114    -71    328    336  69.5 -12.3  33906  285.28 0855.35
2009/04/23 07:16:24.9     293    116    -53    316    321  68.3  -9.6  33908  285.30 0855.35
2009/04/23 07:16:25.0     320    124   -103    344    360  68.7 -16.7  33906  285.28 0855.35
2009/04/23 07:16:25.1     283    123    -89    309    321  66.4 -21.0  33908  285.30 0855.35
2009/04/23 07:16:25.2     223    156    -35    273    276  54.9  -7.3  33908  285.30 0855.35
2009/04/23 07:16:25.3     219    138    -24    259    261  57.8  -5.4  33906  285.27 0855.35
2009/04/23 07:16:25.4     338    189     -7    388    389  60.7  -1.2  33904  285.25 0855.35
2009/04/23 07:16:25.5     370    181    -90    413    423  63.9 -12.4  33906  285.27 0855.35
2009/04/23 07:16:25.6     372    200    -62    423    428  61.7  -8.4  33904  285.26 0855.35
2009/04/23 07:16:25.7     402    188     79    444    452  64.9  10.1  33908  285.31 0855.35
2009/04/23 07:16:25.8     367    112    105    384    399  73.0  15.4  33906  285.28 0855.35
2009/04/23 07:16:25.9     389     36    188    391    433  84.6  27.3  33904  285.26 0855.35
2009/04/23 07:16:26.0     404     60    219    409    463  81.5  30.6  33900  285.17 0855.35
2009/04/23 07:16:26.1     421      4     92    422    433  89.4  12.4  33906  285.27 0855.35
2009/04/23 07:16:26.2     345     48    119    349    369  82.0  18.9  33904  285.25 0855.35
2009/04/23 07:16:26.3     259     -7    139    260    294  91.7  30.3  33904  285.24 0855.35
2009/04/23 07:16:26.4     215   -162      3    270    271 127.1   0.8  33900  285.19 0855.35
2009/04/23 07:16:26.5     125   -192     59    230    238 147.0  14.5  33902  285.20 0855.35
2009/04/23 07:16:26.6      70   -148     68    164    177 154.5  23.6  33902  285.21 0855.35
2009/04/23 07:16:26.7     303   -178     74    352    360 120.5  12.0  33906  285.28 0855.35
2009/04/23 07:16:26.8     357   -109    183    374    416 107.0  28.0  33900  285.17 0855.35
2009/04/23 07:16:26.9     212   -140    134    255    288 123.5  29.8  33902  285.22 0855.35
2009/04/23 07:16:27.0     186    -74    168    201    261 111.8  44.1  33904  285.25 0855.35
2009/04/23 07:16:27.1     174   -126     93    216    235 126.0  24.9  33906  285.28 0855.35
2009/04/23 07:16:27.2     213    -84    142    230    270 111.7  35.0  33910  285.34 0855.35
2009/04/23 07:16:27.3     198   -123    135    234    270 121.8  32.4  33910  285.35 0855.35
2009/04/23 07:16:27.4     192   -101     27    217    219 117.8   7.1  33910  285.34 0855.35
2009/04/23 07:16:27.5     257     25    -74    259    269  84.3 -20.7  33908  285.32 0855.35
2009/04/23 07:16:27.6     195    -49     17    202    203 104.2   5.0  33906  285.29 0855.35
2009/04/23 07:16:27.7     292     54     53    297    302  79.4  10.1  33906  285.29 0855.35
2009/04/23 07:16:27.8     377     73     23    385    386  79.0   3.5  33912  285.38 0855.35
2009/04/23 07:16:27.9     385     57     58    390    395  81.5   8.5  33916  285.45 0855.35
2009/04/23 07:16:28.0     339     46    -26    343    345  82.2  -4.5  33914  285.40 0855.35
2009/04/23 07:16:28.1     307    108    -39    326    329  70.5  -6.9  33914  285.40 0855.35
2009/04/23 07:16:28.2     340     30    -23    342    343  84.8  -3.9  33918  285.48 0855.35
2009/04/23 07:16:28.3     386     67     34    392    394  80.1   5.0  33918  285.48 0855.35
2009/04/23 07:16:28.4     253    161    -38    301    304  57.5  -7.2  33906  285.29 0855.35
2009/04/23 07:16:28.5     146    207     25    254    256  35.2   5.7  33912  285.37 0855.35
2009/04/23 07:16:28.6     205    139    -55    248    255  55.9 -12.6  33912  285.39 0855.35
2009/04/23 07:16:28.7     237    140    -21    276    277  59.4  -4.4  33914  285.42 0855.35
2009/04/23 07:16:28.8     229    122     -7    260    261  62.0  -1.6  33920  285.51 0855.35
2009/04/23 07:16:28.9     270    149     19    309    310  61.1   3.6  33928  285.64 0855.35
2009/04/23 07:16:29.0     320    163     18    360    361  62.9   2.9  33918  285.48 0855.35
2009/04/23 07:16:29.1     360    146     54    389    393  67.9   8.0  33916  285.45 0855.35
2009/04/23 07:16:29.2     338    130     87    363    374  69.0  13.6  33916  285.45 0855.35
2009/04/23 07:16:29.3     333     93     80    346    356  74.3  13.1  33912  285.38 0855.35
2009/04/23 07:16:29.4     219    100     42    241    245  65.4  10.1  33912  285.39 0855.35
2009/04/23 07:16:29.5     262     50    -42    267    271  79.2  -9.0  33912  285.37 0855.35
2009/04/23 07:16:29.6     239     42    -54    243    250  79.9 -12.6  33910  285.35 0855.35
2009/04/23 07:16:29.7     239     37    -13    242    243  81.2  -3.1  33910  285.35 0855.35
2009/04/23 07:16:29.8     315     48    -12    319    320  81.2  -2.2  33910  285.34 0855.35
2009/04/23 07:16:29.9     333    115    -33    353    355  70.8  -5.5  33910  285.36 0855.35
2009/04/23 07:16:30.0     292     88    -50    305    310  73.2  -9.3  33912  285.37 0855.35
2009/04/23 07:16:30.1     221     30     -8    224    225  82.1  -2.2  33912  285.39 0855.35
2009/04/23 07:16:30.2     218    -72    -20    230    231 108.4  -5.2  33914  285.41 0855.35
2009/04/23 07:16:30.3     194    -73    -63    208    218 110.8 -17.0  33914  285.43 0855.35
2009/04/23 07:16:30.4     234   -100    -47    255    260 113.3 -10.5  33910  285.34 0855.35
2009/04/23 07:16:30.5     223   -122     12    255    256 118.8   2.8  33910  285.34 0855.35
2009/04/23 07:16:30.6     261   -177     90    316    329 124.2  15.9  33906  285.27 0855.35
2009/04/23 07:16:30.7     260   -177    123    315    338 124.2  22.5  33904  285.26 0855.36
2009/04/23 07:16:30.8     240   -127    103    272    290 117.9  21.5  33910  285.34 0855.36
2009/04/23 07:16:30.9     275   -131    147    305    338 115.5  27.7  33908  285.32 0855.36
2009/04/23 07:16:31.0     246    -99    152    266    306 112.0  32.4  33914  285.42 0855.36
2009/04/23 07:16:31.1     288   -172    189    336    385 120.9  31.7  33908  285.33 0855.36
2009/04/23 07:16:31.2     211   -143    130    256    287 124.2  29.2  33914  285.42 0855.36
2009/04/23 07:16:31.3     262   -198     34    329    331 127.1   6.0  33910  285.35 0855.36
2009/04/23 07:16:31.4     158   -168     75    231    244 136.8  18.1  33906  285.27 0855.36
2009/04/23 07:16:31.5     160   -140     85    213    229 131.3  23.0  33906  285.28 0855.36
2009/04/23 07:16:31.6     234    -91    166    252    301 111.3  36.5  33908  285.32 0855.36
2009/04/23 07:16:31.7     346   -150    246    378    450 113.4  36.3  33910  285.34 0855.36
2009/04/23 07:16:31.8      76   -156    204    174    268 153.9  55.4  33908  285.32 0855.36
2009/04/23 07:16:31.9       8   -134    163    135    211 176.4  56.3  33910  285.34 0855.36
2009/04/23 07:16:32.0       7   -194    130    195    234 177.8  36.7  33906  285.29 0855.36
2009/04/23 07:16:32.1      46   -227    139    232    270 168.4  34.0  33906  285.29 0855.36
2009/04/23 07:16:32.2      59   -200    196    209    286 163.5  48.0  33902  285.22 0855.36
2009/04/23 07:16:32.3      40   -199    146    203    250 168.5  39.3  33908  285.30 0855.36
2009/04/23 07:16:32.4      25   -145    137    148    201 170.2  47.9  33908  285.33 0855.36
2009/04/23 07:16:32.5     119    -80     97    144    173 124.2  36.7  33914  285.43 0855.36
2009/04/23 07:16:32.6     159   -142    114    214    242 131.8  30.3  33924  285.59 0855.36
2009/04/23 07:16:32.7     259   -157    154    304    340 121.3  29.1  33924  285.60 0855.35
2009/04/23 07:16:32.8     278   -121    137    304    333 113.6  25.9  33926  285.62 0855.35
2009/04/23 07:16:32.9     204   -113     82    234    247 118.9  20.0  33912  285.39 0855.35
2009/04/23 07:16:33.0     267    -74     32    278    280 105.5   6.7  33910  285.35 0855.35
2009/04/23 07:16:33.1     276    -26     60    278    285  95.5  12.2  33914  285.40 0855.35
2009/04/23 07:16:33.2     273    -24     43    275    279  95.2   9.0  33910  285.35 0855.35
2009/04/23 07:16:33.3     221     37     39    225    229  80.3   9.9  33914  285.43 0855.35
2009/04/23 07:16:33.4     165    -54     31    174    177 108.4  10.1  33910  285.36 0855.35
2009/04/23 07:16:33.5     207    -47     55    213    221 103.0  14.5  33920  285.53 0855.35
2009/04/23 07:16:33.6     201      0     57    202    210  90.0  15.8  33918  285.48 0855.35
2009/04/23 07:16:33.7     170     17     66    171    183  84.1  22.0  33920  285.53 0855.35
2009/04/23 07:16:33.8     159     68     69    174    187  66.7  23.0  33926  285.63 0855.35
2009/04/23 07:16:33.9      87     48     59    100    116  61.1  34.0  33920  285.51 0855.35
2009/04/23 07:16:34.0     -10    108    -13    109    110 354.7  -7.2  33916  285.46 0855.35
2009/04/23 07:16:34.1     -40     64     24     76     80 327.4  17.9  33912  285.39 0855.35
2009/04/23 07:16:34.2     -65      8     97     66    117 277.0  63.2  33916  285.44 0855.35
2009/04/23 07:16:34.3       1    -70     98     71    121 179.1  60.5  33912  285.39 0855.35
2009/04/23 07:16:34.4      42    -94     98    103    142 155.9  48.5  33910  285.36 0855.35
2009/04/23 07:16:34.5       8   -112    104    113    153 175.5  47.9  33912  285.38 0855.35
2009/04/23 07:16:34.6      72    -77    110    106    152 136.8  50.7  33912  285.38 0855.35
2009/04/23 07:16:34.7     113    -60    122    128    176 118.0  48.5  33918  285.48 0855.35
2009/04/23 07:16:34.8     145    -67    124    160    202 114.8  41.7  33924  285.60 0855.35
2009/04/23 07:16:34.9      89     -6    130     90    158  94.4  62.1  33926  285.63 0855.35
2009/04/23 07:16:35.0      21     15     89     26     92  54.0  83.3  33924  285.58 0855.35
2009/04/23 07:16:35.1      50    -42    106     66    124 129.6  64.7  33924  285.58 0855.35
2009/04/23 07:16:35.2     143     24    175    146    227  80.4  56.3  33924  285.58 0855.35
2009/04/23 07:16:35.3      85     -7    149     86    172  94.8  67.5  33924  285.60 0855.35
2009/04/23 07:16:35.4      55     36    130     66    145  56.7  71.0  33922  285.56 0855.35
2009/04/23 07:16:35.5      36    173    102    177    204  11.8  32.7  33922  285.56 0855.35
2009/04/23 07:16:35.6      80    204     99    220    241  21.6  25.9  33924  285.59 0855.35
2009/04/23 07:16:35.7      78    123    111    147    184  32.5  40.7  33926  285.61 0855.35
2009/04/23 07:16:35.8      94    154     51    181    189  31.6  15.8  33922  285.56 0855.35
2009/04/23 07:16:35.9     179    125    120    219    249  55.1  31.0  33926  285.61 0855.35
2009/04/23 07:16:36.0     227     98     79    248    261  66.7  17.7  33922  285.56 0855.35
2009/04/23 07:16:36.1     199    126     54    236    243  57.6  12.9  33926  285.62 0855.35
2009/04/23 07:16:36.2     207    112    104    236    257  61.6  25.2  33924  285.57 0855.35
2009/04/23 07:16:36.3     213     88     49    231    237  67.4  12.0  33924  285.59 0855.35
2009/04/23 07:16:36.4     205     84     98    222    242  67.6  25.2  33924  285.57 0855.35
2009/04/23 07:16:36.5     144    -11     28    145    148  94.4  11.0  33918  285.50 0855.35
2009/04/23 07:16:36.6     158    -34     65    162    174 102.4  22.8  33918  285.50 0855.35
2009/04/23 07:16:36.7     219    -57    124    227    258 104.6  31.3  33922  285.54 0855.35
2009/04/23 07:16:36.8     237     -8     84    238    253  92.1  19.4  33920  285.51 0855.35
2009/04/23 07:16:36.9     229     33     45    232    237  81.6  11.1  33920  285.52 0855.35
2009/04/23 07:16:37.0     185    -11     66    186    198  93.5  19.6  33916  285.46 0855.35
2009/04/23 07:16:37.1     230      0    121    231    260  90.0  30.1  33916  285.45 0855.35
2009/04/23 07:16:37.2     185     50    125    192    229  74.9  35.7  33916  285.46 0855.35
2009/04/23 07:16:37.3     166     50    166    174    240  73.2  48.7  33916  285.44 0855.35
2009/04/23 07:16:37.4      21    -46    126     51    135 154.5  77.1  33916  285.44 0855.35
2009/04/23 07:16:37.5      92    -35    119     99    154 110.8  56.3  33920  285.51 0855.35
2009/04/23 07:16:37.6     114     23    177    117    212  78.6  63.9  33920  285.53 0855.35
2009/04/23 07:16:37.7     169     44    173    175    246  75.2  49.9  33918  285.48 0855.35
2009/04/23 07:16:37.8     200     54    162    208    263  74.7  42.0  33922  285.54 0855.35
2009/04/23 07:16:37.9     154     26    154    157    219  80.3  49.8  33920  285.51 0855.35
2009/04/23 07:16:38.0     133     74    110    153    188  60.7  39.3  33918  285.50 0855.35
2009/04/23 07:16:38.1     198     45     78    204    218  77.2  22.0  33918  285.50 0855.35
2009/04/23 07:16:38.2     189     54    107    197    224  73.8  31.3  33918  285.48 0855.35
2009/04/23 07:16:38.3     192     76     73    207    219  68.3  20.2  33918  285.48 0855.35
2009/04/23 07:16:38.4     172    102     89    201    219  59.3  25.3  33916  285.44 0855.35
2009/04/23 07:16:38.5     157    100    102    187    213  57.5  31.3  33916  285.44 0855.35
2009/04/23 07:16:38.6     142     66    112    157    192  64.8  39.1  33914  285.43 0855.35
2009/04/23 07:16:38.7     151     76    104    170    199  63.1  34.4  33916  285.44 0855.35
2009/04/23 07:16:38.8     164     54     92    173    195  71.6  30.1  33916  285.44 0855.35
2009/04/23 07:16:38.9     141     53     96    151    178  69.2  35.5  33912  285.39 0855.35
2009/04/23 07:16:39.0     125     81     81    150    170  57.1  30.6  33914  285.43 0855.35
2009/04/23 07:16:39.1     145     71     61    162    173  63.8  21.3  33916  285.44 0855.35
2009/04/23 07:16:39.2     138     73     55    157    166  62.0  20.0  33914  285.43 0855.35
2009/04/23 07:16:39.3     121    102      8    159    160  50.0   2.9  33912  285.39 0855.35
2009/04/23 07:16:39.4     124    102     -6    161    162  50.5  -2.2  33912  285.39 0855.35
2009/04/23 07:16:39.5     103     86      5    135    136  50.4   2.3  33912  285.38 0855.35
2009/04/23 07:16:39.6      95     41     28    104    108  66.5  15.3  33914  285.41 0855.35
2009/04/23 07:16:39.7      83     22     40     86     94  74.9  27.1  33916  285.44 0855.35
2009/04/23 07:16:39.8      71     33     12     79     81  65.2   9.0  33914  285.41 0855.35
2009/04/23 07:16:39.9      98     35     40    105    112  70.5  21.5  33914  285.41 0855.35
2009/04/23 07:16:40.0     107     28     50    111    121  75.4  25.7  33916  285.46 0855.35
2009/04/23 07:16:40.1     131     46      2    140    141  70.5   0.8  33916  285.44 0855.35
2009/04/23 07:16:40.2     136     45     28    144    147  71.6  11.1  33916  285.46 0855.35
2009/04/23 07:16:40.3     146     58      3    158    159  68.2   1.2  33914  285.41 0855.35
2009/04/23 07:16:40.4     127     52     37    138    144  67.8  15.2  33910  285.34 0855.35
2009/04/23 07:16:40.5      85      7     83     86    119  84.8  49.4  33912  285.39 0855.35
2009/04/23 07:16:40.6      90      1     87     91    125  89.2  49.0  33914  285.41 0855.35
2009/04/23 07:16:40.7      80     18    102     83    131  77.2  56.4  33914  285.41 0855.35
2009/04/23 07:16:40.8      46     18     99     50    110  68.3  71.9  33914  285.41 0855.35
2009/04/23 07:16:40.9       9     28     49     30     57  18.7  64.7  33914  285.41 0855.35
2009/04/23 07:16:41.0      44     27     47     52     70  58.5  46.9  33912  285.39 0855.35
2009/04/23 07:16:41.1      84     30     79     90    119  70.0  45.8  33912  285.39 0855.35
2009/04/23 07:16:41.2      68     79     65    105    123  40.5  35.5  33912  285.39 0855.35
2009/04/23 07:16:41.3      63     45     95     78    122  54.0  56.4  33908  285.31 0855.35
2009/04/23 07:16:41.4       3     70     61     71     93   2.7  45.4  33906  285.28 0855.35
2009/04/23 07:16:41.5      14     43     82     46     94  18.5  67.7  33906  285.29 0855.35
2009/04/23 07:16:41.6      32     20     96     38    103  57.6  77.1  33910  285.36 0855.35
2009/04/23 07:16:41.7      15      4     89     16     90  74.9  90.0  33912  285.38 0855.35
2009/04/23 07:16:41.8      -3      3     77      5     77 313.3  90.0  33912  285.39 0855.35
2009/04/23 07:16:41.9      -7      0     83      8     83 270.0  90.0  33912  285.38 0855.35
2009/04/23 07:16:42.0      36     -7     82     37     89 101.5  74.0  33910  285.36 0855.35
2009/04/23 07:16:42.1      20    -63     65     67     93 162.2  50.0  33908  285.33 0855.35
2009/04/23 07:16:42.2      -5    -70     41     71     81 184.4  32.9  33908  285.33 0855.35
2009/04/23 07:16:42.3      59    -42     24     73     77 126.0  18.4  33906  285.28 0855.35
2009/04/23 07:16:42.4      66    -26     15     72     74 111.7  12.2  33906  285.29 0855.35
2009/04/23 07:16:42.5      27     52     47     59     75  28.1  43.7  33908  285.33 0855.35
2009/04/23 07:16:42.6     109     73     81    132    154  56.3  35.5  33912  285.39 0855.35
2009/04/23 07:16:42.7     195     27     81    197    213  82.1  23.4  33914  285.43 0855.35
2009/04/23 07:16:42.8     180     81     91    198    217  65.8  26.4  33914  285.43 0855.35
2009/04/23 07:16:42.9     214     93    120    234    262  66.5  29.3  33912  285.39 0855.35
2009/04/23 07:16:43.0     224    133     78    261    273  59.3  16.8  33912  285.39 0855.35
2009/04/23 07:16:43.1     245    176     89    302    316  54.3  16.5  33914  285.40 0855.35
2009/04/23 07:16:43.2     222    133     84    259    273  59.1  17.9  33912  285.39 0855.35
2009/04/23 07:16:43.3     263    145     14    301    302  61.2   2.8  33912  285.37 0855.35
2009/04/23 07:16:43.4     152    101     51    183    191  56.3  15.6  33912  285.38 0855.35
2009/04/23 07:16:43.5     133    123     64    182    194  47.1  19.6  33912  285.38 0855.35
2009/04/23 07:16:43.6     103    116     72    156    171  41.5  26.6  33910  285.34 0855.35
2009/04/23 07:16:43.7     121    110     61    164    174  47.8  20.7  33912  285.38 0855.35
2009/04/23 07:16:43.8     174     81     77    193    207  64.9  23.0  33906  285.29 0855.35
2009/04/23 07:16:43.9     263     98     16    281    282  69.4   3.3  33912  285.37 0855.35
2009/04/23 07:16:44.0     249     50     20    255    256  78.6   4.6  33906  285.29 0855.35
2009/04/23 07:16:44.1     194     76    -11    209    210  68.5  -3.2  33910  285.36 0855.35
2009/04/23 07:16:44.2     116      0    102    117    155  89.6  45.8  33904  285.24 0855.35
2009/04/23 07:16:44.3     199     37    157    203    256  79.4  41.7  33902  285.22 0855.35
2009/04/23 07:16:44.4     238     64    124    247    276  74.9  28.5  33904  285.24 0855.35
2009/04/23 07:16:44.5     205     50    165    212    268  76.1  41.7  33902  285.20 0855.35
2009/04/23 07:16:44.6     127     92    139    157    209  54.0  45.9  33904  285.24 0855.35
2009/04/23 07:16:44.7     219    111    123    246    275  63.0  28.5  33908  285.30 0855.35
2009/04/23 07:16:44.8     191    138    109    236    259  54.0  26.4  33904  285.24 0855.35
2009/04/23 07:16:44.9     210    157    139    263    297  53.2  30.2  33904  285.25 0855.35
2009/04/23 07:16:45.0     148     94    130    176    218  57.4  39.9  33902  285.21 0855.35
2009/04/23 07:16:45.1     123     64     94    139    167  62.5  37.3  33902  285.21 0855.35
2009/04/23 07:16:45.2      51     48    119     71    138  46.9  66.7  33904  285.24 0855.35
2009/04/23 07:16:45.3      50    -14    120     52    130 105.9  75.0  33902  285.21 0855.35
2009/04/23 07:16:45.4      90     40    121     99    156  66.0  56.4  33902  285.21 0855.35
2009/04/23 07:16:45.5     145     29    186    148    237  78.5  57.5  33900  285.19 0855.35
2009/04/23 07:16:45.6     180     -5    166    181    245  91.7  47.1  33896  285.13 0855.35
2009/04/23 07:16:45.7     220     14    150    221    267  86.3  37.4  33900  285.17 0855.35
2009/04/23 07:16:45.8     256     20     89    257    273  85.4  19.2  33906  285.27 0855.35
2009/04/23 07:16:45.9     223     16     79    224    238  85.9  19.4  33908  285.30 0855.35
2009/04/23 07:16:46.0     217    -21     47    219    225  95.7  12.2  33908  285.31 0855.35
2009/04/23 07:16:46.1     189    -84    -26    207    209 114.0  -7.3  33906  285.28 0855.35
2009/04/23 07:16:46.2     142   -159    -28    214    216 138.1  -7.7  33904  285.24 0855.35
2009/04/23 07:16:46.3     138   -129    -74    190    203 133.1 -26.7  33904  285.26 0855.35
2009/04/23 07:16:46.4      73   -132    -78    151    169 151.0 -33.7  33904  285.26 0855.35
2009/04/23 07:16:46.6      94   -131    -53    162    171 144.2 -18.3  33904  285.24 0855.35
2009/04/23 07:16:46.6      53   -143    -62    153    165 159.5 -27.4  33906  285.28 0855.35
2009/04/23 07:16:46.7      32   -124    -49    129    137 165.3 -26.4  33904  285.26 0855.35
2009/04/23 07:16:46.8      -6   -112    -12    113    114 183.1  -6.2  33904  285.26 0855.35
2009/04/23 07:16:46.9     -14    -94     33     96    102 188.9  18.9  33912  285.38 0855.35
2009/04/23 07:16:47.0      51    -94    -12    108    109 151.5  -6.7  33908  285.33 0855.35
2009/04/23 07:16:47.1     107    -68    -62    127    141 122.4 -31.7  33912  285.39 0855.35
2009/04/23 07:16:47.2     125    -50    -89    135    161 111.8 -41.1  33908  285.33 0855.35
2009/04/23 07:16:47.3      67      6    -85     68    108  84.8 -60.8  33910  285.34 0855.35
2009/04/23 07:16:47.4      -2     22    -64     23     68 353.8 -85.6  33908  285.31 0855.35
2009/04/23 07:16:47.5     -57     12    -66     59     88 282.4 -57.7  33908  285.33 0855.35
2009/04/23 07:16:47.6     -77    -35    -16     85     87 245.2 -10.9  33908  285.33 0855.35
2009/04/23 07:16:47.7     -44    -47     22     65     69 223.3  18.9  33908  285.31 0855.36
2009/04/23 07:16:47.8     -42    -14     29     45     53 251.4  35.6  33904  285.24 0855.36
2009/04/23 07:16:47.9     -10     16     43     19     47 327.5  75.0  33904  285.26 0855.36
2009/04/23 07:16:48.0      54     39     39     67     77  54.0  33.5  33906  285.29 0855.36
2009/04/23 07:16:48.1     120     31     18    124    126  75.4   8.5  33908  285.33 0855.36
2009/04/23 07:16:48.2     166     81     24    185    187  63.8   7.5  33910  285.36 0855.36
2009/04/23 07:16:48.3     161    103     50    192    199  57.5  14.7  33910  285.36 0855.36
2009/04/23 07:16:48.4     148    106     70    183    195  54.3  22.0  33910  285.34 0855.36
2009/04/23 07:16:48.5     218    107     56    243    250  63.8  13.1  33908  285.30 0855.36
2009/04/23 07:16:48.6     143    118     63    186    197  50.4  18.9  33908  285.31 0855.36
2009/04/23 07:16:48.8     137     80     32    159    163  59.6  11.6  33906  285.29 0855.36
2009/04/23 07:16:48.8     210     70     26    222    224  71.4   6.7  33902  285.23 0855.36
2009/04/23 07:16:48.9     215     99     81    237    251  65.2  18.9  33910  285.34 0855.36
2009/04/23 07:16:49.0     235     89     41    252    256  69.1   9.3  33906  285.29 0855.36
2009/04/23 07:16:49.1     179     31    132    182    224  79.9  39.7  33906  285.29 0855.36
2009/04/23 07:16:49.2     174     27     98    177    202  81.2  31.4  33906  285.28 0855.36
2009/04/23 07:16:49.3     119     39     49    126    135  71.6  21.5  33904  285.26 0855.36
2009/04/23 07:16:49.4     103     27     20    107    110  74.9  11.0  33904  285.26 0855.36
2009/04/23 07:16:49.5      72     33    -25     80     84  65.2 -17.6  33904  285.26 0855.36
2009/04/23 07:16:49.6      69     34    -24     78     81  63.8 -22.3  33904  285.26 0855.36
2009/04/23 07:16:49.7     120     32    -47    125    133  74.9 -25.4  33904  285.24 0855.36
2009/04/23 07:16:49.8     149      7    -71    150    165  87.0 -31.4  33906  285.29 0855.36
2009/04/23 07:16:49.9      85     80    -87    118    146  46.8 -44.1  33908  285.31 0855.36
2009/04/23 07:16:50.0     122     32    -36    127    133  75.0 -16.0  33904  285.26 0855.36
2009/04/23 07:16:50.1     144     57    -47    156    162  68.2 -21.7  33906  285.28 0855.36
2009/04/23 07:16:50.2     164     22     -6    166    167  82.3  -2.2  33906  285.28 0855.36
2009/04/23 07:16:50.3     157     -4     67    158    171  91.7  24.3  33898  285.16 0855.36
2009/04/23 07:16:50.4     134    -12     65    135    149  95.2  27.3  33904  285.24 0855.36
2009/04/23 07:16:50.5     138    -37     49    143    152 105.1  18.9  33898  285.16 0855.36
2009/04/23 07:16:50.7     146    -30     55    150    159 101.9  20.7  33898  285.16 0855.36
2009/04/23 07:16:50.8      98    -37     47    105    115 110.8  26.2  33896  285.13 0855.36
2009/04/23 07:16:50.9      96    -21     72     99    122 102.8  39.7  33898  285.16 0855.36
2009/04/23 07:16:51.0     -37    -17     42     41     58 244.7  48.2  33900  285.18 0855.36
2009/04/23 07:16:51.1     -31    -39     30     50     58 218.7  35.5  33900  285.19 0855.36
2009/04/23 07:16:51.2     -63    -12     22     65     69 258.6  19.4  33902  285.23 0855.36
2009/04/23 07:16:51.3     -26    -87     88     91    126 196.9  49.4  33900  285.19 0855.36
2009/04/23 07:16:51.4      -6    -49     19     50     53 188.0  20.0  33902  285.21 0855.36
2009/04/23 07:16:51.5       0    -77     39     78     87 180.0  28.2  33900  285.19 0855.36
2009/04/23 07:16:51.6     -55   -126     18    138    140 203.7   7.5  33898  285.16 0855.36
2009/04/23 07:16:51.7     -63   -201     26    211    213 197.4   7.2  33904  285.26 0855.36
2009/04/23 07:16:51.8      62   -121     29    137    141 152.8  12.2  33902  285.23 0855.36
2009/04/23 07:16:51.9     115   -116     53    164    173 135.5  18.1  33908  285.31 0855.36
2009/04/23 07:16:52.0     125   -103     23    163    165 129.5   8.2  33906  285.28 0855.36
2009/04/23 07:16:52.1     168    -60     49    179    186 109.7  15.3  33900  285.19 0855.36
2009/04/23 07:16:52.2     125    -37     35    131    136 106.8  15.3  33902  285.21 0855.36
2009/04/23 07:16:52.3     129    -13     15    130    131  96.1   6.9  33902  285.23 0855.36
2009/04/23 07:16:52.4     200     59     37    209    213  73.4  10.1  33904  285.24 0855.36
2009/04/23 07:16:52.5     154     26    101    157    186  80.3  35.6  33900  285.19 0855.36
2009/04/23 07:16:52.6      26    -87     86     91    125 163.1  49.0  33898  285.14 0855.36
2009/04/23 07:16:52.7      48   -120    109    130    169 158.1  44.1  33898  285.16 0855.36
2009/04/23 07:16:52.8     -20    -76     87     79    117 195.2  52.7  33894  285.09 0855.36
2009/04/23 07:16:52.9     -12   -102     84    103    132 187.1  43.7  33898  285.14 0855.36
2009/04/23 07:16:53.0       1    -17     63     18     65 175.5  84.8  33900  285.18 0855.36
2009/04/23 07:16:53.1       0     62     89     63    109 359.1  61.1  33902  285.23 0855.36
2009/04/23 07:16:53.2     -32     46     88     57    104 324.8  64.6  33906  285.29 0855.36
2009/04/23 07:16:53.3     -62    -20     74     66     99 251.8  53.3  33906  285.28 0855.36
2009/04/23 07:16:53.4     -37    -49    101     62    118 217.0  65.7  33896  285.13 0855.36
2009/04/23 07:16:53.5      -3     41     75     42     85 355.5  68.3  33902  285.21 0855.36
2009/04/23 07:16:53.6      -8    -12     94     15     95 212.5  90.0  33902  285.21 0855.36
2009/04/23 07:16:53.7     -41    -93    140    102    173 204.1  60.5  33902  285.21 0855.36
2009/04/23 07:16:53.8    -103    -88     82    136    158 229.6  34.0  33904  285.24 0855.36
2009/04/23 07:16:53.9     -68    -91     67    114    132 217.0  33.4  33898  285.14 0855.36
2009/04/23 07:16:54.0    -107   -100     40    147    153 226.8  15.2  33896  285.13 0855.36
2009/04/23 07:16:54.1    -112    -81     47    139    148 234.1  18.9  33896  285.11 0855.36
2009/04/23 07:16:54.2    -112    -37     47    119    127 251.4  23.0  33900  285.19 0855.36
2009/04/23 07:16:54.3    -117    -73     36    138    143 238.0  14.7  33898  285.14 0855.36
2009/04/23 07:16:54.4     -78    -32     16     85     87 247.4  11.1  33896  285.11 0855.36
2009/04/23 07:16:54.5     -71    -33     40     79     88 244.8  28.2  33896  285.13 0855.36
2009/04/23 07:16:54.6     -34    -23     55     42     69 235.8  57.5  33898  285.16 0855.36
2009/04/23 07:16:54.7      -5    -72     69     73    100 184.4  48.0  33902  285.21 0855.36
2009/04/23 07:16:54.8      17   -102     50    104    115 170.2  27.3  33902  285.21 0855.36
2009/04/23 07:16:54.9      20    -68     62     72     95 163.1  45.4  33902  285.23 0855.36
2009/04/23 07:16:55.0      14    -86     51     88    101 170.7  32.4  33902  285.23 0855.36
2009/04/23 07:16:55.1      71    -59     41     93    101 130.0  25.1  33902  285.21 0855.36
2009/04/23 07:16:55.2      81    -27     28     86     91 108.4  17.9  33904  285.26 0855.36
2009/04/23 07:16:55.3      23   -119     61    122    136 168.9  28.2  33904  285.24 0855.36
2009/04/23 07:16:55.4      10   -118     73    119    139 175.1  35.0  33898  285.16 0855.36
2009/04/23 07:16:55.5       0   -126    120    127    174 180.0  48.7  33896  285.13 0855.36
2009/04/23 07:16:55.6     -17   -121    123    123    173 188.0  50.1  33892  285.04 0855.36
2009/04/23 07:16:55.7     -11   -149     70    150    165 184.5  26.6  33898  285.14 0855.36
2009/04/23 07:16:55.8       5   -100     37    101    107 176.9  20.4  33898  285.14 0855.36
2009/04/23 07:16:55.9      46    -45     77     65    100 134.9  55.8  33898  285.14 0855.36
2009/04/23 07:16:56.0      60   -136    123    149    193 155.9  43.7  33902  285.21 0855.36
2009/04/23 07:16:56.1      78   -142    121    163    203 151.1  40.1  33902  285.21 0855.36
2009/04/23 07:16:56.2      10   -140     53    141    150 175.5  21.5  33904  285.26 0855.36
2009/04/23 07:16:56.3       9   -149     35    150    155 176.4  13.2  33906  285.28 0855.36
2009/04/23 07:16:56.4       2   -145     67    146    160 179.1  26.2  33900  285.18 0855.36
2009/04/23 07:16:56.5      -4   -135     81    136    158 181.8  33.5  33900  285.19 0855.36
2009/04/23 07:16:56.6     -17    -98     78    100    126 190.2  41.7  33900  285.19 0855.36
2009/04/23 07:16:56.7     -47    -88     75    100    125 208.1  40.7  33898  285.14 0855.36
2009/04/23 07:16:56.8     -58   -114     96    129    160 207.2  40.4  33896  285.13 0855.36
2009/04/23 07:16:56.9     -92    -86     87    127    153 226.9  37.6  33898  285.16 0855.36
2009/04/23 07:16:57.0     -84    -75    120    114    165 228.2  51.4  33902  285.21 0855.36
2009/04/23 07:16:57.1     -66    -88    115    111    159 217.0  50.9  33900  285.18 0855.36
2009/04/23 07:16:57.2     -18     18    117     26    119 315.0  88.0  33900  285.19 0855.36
2009/04/23 07:16:57.3      62     17    122     65    138  74.1  69.3  33906  285.29 0855.36
2009/04/23 07:16:57.4      84     48     69     97    119  60.2  39.1  33902  285.23 0855.36
2009/04/23 07:16:57.5      62     45    107     77    131  54.0  60.5  33908  285.31 0855.36
2009/04/23 07:16:57.6      87     23    116     91    147  74.9  57.5  33908  285.31 0855.36
2009/04/23 07:16:57.7      49     18    117     53    128  69.2  74.0  33904  285.26 0855.36
2009/04/23 07:16:57.8      36     37    104     52    116  44.2  71.9  33904  285.24 0855.36
2009/04/23 07:16:57.9     -40     40    102     57    116 315.0  68.8  33906  285.28 0855.36
2009/04/23 07:16:58.0     109     36    147    116    187  71.4  57.5  33908  285.31 0855.36
2009/04/23 07:16:58.1      75     38    121     85    147  62.9  61.5  33906  285.29 0855.36
2009/04/23 07:16:58.2      89     68     80    113    138  52.7  39.1  33910  285.34 0855.36
2009/04/23 07:16:58.3     135     84    143    160    214  58.0  46.4  33908  285.31 0855.36
2009/04/23 07:16:58.4     177      8    131    178    221  87.2  39.7  33906  285.29 0855.36
2009/04/23 07:16:58.5     131    -30     88    135    161 103.2  36.3  33906  285.29 0855.36
2009/04/23 07:16:58.6     154    -31     78    158    176 101.5  28.0  33906  285.29 0855.36
2009/04/23 07:16:58.7     193      0    105    194    220  90.0  31.0  33904  285.24 0855.36
2009/04/23 07:16:58.8     225     17    105    226    249  85.6  27.0  33904  285.24 0855.36
2009/04/23 07:16:58.9     199     65    138    210    251  71.8  36.3  33906  285.29 0855.36
2009/04/23 07:16:59.0     207     47    145    213    257  77.0  37.6  33908  285.32 0855.36
2009/04/23 07:16:59.1     149    -11    110    150    186  94.3  39.9  33906  285.29 0855.36
2009/04/23 07:16:59.2     149    -70    108    165    197 115.4  36.3  33904  285.24 0855.36
2009/04/23 07:16:59.3     137    -75    109    157    191 118.9  38.4  33906  285.29 0855.36
2009/04/23 07:16:59.4     143    -47     94    151    177 108.2  35.0  33908  285.31 0855.36
2009/04/23 07:16:59.5     172    -22     75    174    189  97.5  24.9  33908  285.31 0855.36
2009/04/23 07:16:59.6     150    -51     55    159    169 108.8  19.2  33906  285.28 0855.36
2009/04/23 07:16:59.7     173   -100     70    200    213 120.0  19.4  33904  285.26 0855.36
2009/04/23 07:16:59.8     171    -84     37    191    195 116.4  11.0  33906  285.28 0855.36
2009/04/23 07:16:59.9     159    -40     14    164    165 104.2   5.2  33902  285.23 0855.36
2009/04/23 07:17:00.0     157    -61     30    169    172 111.5  10.3  33900  285.18 0855.36
2009/04/23 07:17:00.1     147    -59    106    159    191 111.8  36.7  33900  285.18 0855.36
2009/04/23 07:17:00.2     177    -59     96    187    210 108.4  29.2  33900  285.19 0855.36
2009/04/23 07:17:00.3     197    -54     83    205    221 105.3  23.1  33904  285.24 0855.36
2009/04/23 07:17:00.4     172    -93     81    196    212 118.4  23.6  33908  285.31 0855.36
2009/04/23 07:17:00.5     161    -66    124    175    214 112.4  38.6  33904  285.26 0855.36
2009/04/23 07:17:00.6     165    -22    125    167    208  97.7  40.7  33906  285.28 0855.36
2009/04/23 07:17:00.7     111    -75     95    135    165 124.2  38.6  33908  285.31 0855.36
2009/04/23 07:17:00.8     142    -99    114    174    208 124.9  36.3  33906  285.29 0855.37
2009/04/23 07:17:00.9     112    -76    116    136    178 124.2  44.8  33904  285.26 0855.37
2009/04/23 07:17:01.0      91    -91    104    129    165 135.0  43.0  33904  285.26 0855.37
2009/04/23 07:17:01.1     121   -151     45    194    200 141.3  13.1  33904  285.26 0855.37
2009/04/23 07:17:01.2      72    -46    -55     86    102 122.5 -39.9  33904  285.26 0855.37
2009/04/23 07:17:01.3      38     79     10     88     89  25.9   6.9  33896  285.13 0855.37
2009/04/23 07:17:01.4      39     84     49     93    105  25.4  30.3  33900  285.19 0855.37
2009/04/23 07:17:01.5      45     68     54     82     98  33.4  36.5  33906  285.28 0855.37
2009/04/23 07:17:01.6      89     84     43    123    131  46.8  19.2  33906  285.28 0855.37
2009/04/23 07:17:01.7      61    109     34    126    131  29.4  15.2  33904  285.26 0855.37
2009/04/23 07:17:01.8      22    109     -5    112    113  11.5  -2.6  33906  285.29 0855.37
2009/04/23 07:17:01.9      -9    125     58    126    138 355.6  27.1  33906  285.28 0855.37
2009/04/23 07:17:02.0      30    159      8    162    163  10.7   2.9  33904  285.26 0855.37
2009/04/23 07:17:02.1       6    181     14    182    183   2.0   4.6  33904  285.26 0855.37
2009/04/23 07:17:02.2     135     36    114    140    180  74.9  43.7  33904  285.24 0855.37
2009/04/23 07:17:02.3     189     -6    140    190    236  92.1  40.4  33900  285.18 0855.37
2009/04/23 07:17:02.4     181     35    -18    185    186  78.8  -5.6  33906  285.28 0855.37
2009/04/23 07:17:02.5     161      4     -4    162    163  88.3  -1.6  33906  285.29 0855.37
2009/04/23 07:17:02.6     118     97    -61    154    165  50.5 -26.9  33902  285.23 0855.37
2009/04/23 07:17:02.7      94     37   -133    102    167  68.2 -62.9  33902  285.23 0855.37
2009/04/23 07:17:02.8      58     46   -110     75    133  51.4 -67.1  33902  285.23 0855.38
2009/04/23 07:17:02.9      32     34    -59     48     76  43.2 -60.8  33904  285.26 0855.38
2009/04/23 07:17:03.0      92     65    -30    113    117  54.5 -15.0  33902  285.21 0855.38
2009/04/23 07:17:03.1     152     65     53    166    175  66.7  17.7  33910  285.34 0855.38
2009/04/23 07:17:03.2     154     67     43    169    175  66.3  14.5  33906  285.28 0855.38
2009/04/23 07:17:03.3     123     70     52    142    151  60.2  21.0  33904  285.24 0855.38
2009/04/23 07:17:03.4     122    101     73    159    174  50.4  26.6  33908  285.31 0855.38
2009/04/23 07:17:03.5      79    110     36    136    141  36.0  15.2  33906  285.28 0855.38
2009/04/23 07:17:03.6     -13     97     -1     98     99 352.0  -0.7  33908  285.31 0855.38
2009/04/23 07:17:03.7      42     73    -32     85     90  30.3 -25.9  33908  285.31 0855.38
2009/04/23 07:17:03.8      41     74     -1     85     86  29.4  -0.7  33904  285.24 0855.38
2009/04/23 07:17:03.9      77     40     28     87     92  62.5  17.9  33906  285.29 0855.38
2009/04/23 07:17:04.0      90     29     48     95    106  71.8  28.7  33904  285.24 0855.38
2009/04/23 07:17:04.1      87     11     85     88    122  82.5  49.4  33900  285.18 0855.38
2009/04/23 07:17:04.2      82    -17     53     84     99 101.9  35.5  33902  285.23 0855.38
2009/04/23 07:17:04.3     107    -17     26    109    113  99.2  13.7  33902  285.21 0855.38
2009/04/23 07:17:04.4     102      3      7    103    104  87.9   4.4  33906  285.28 0855.38
2009/04/23 07:17:04.5      78    -13     -3     80     81  99.7  -2.2  33902  285.21 0855.38
2009/04/23 07:17:04.6      15    -57     41     60     72 164.9  37.6  33904  285.26 0855.38
2009/04/23 07:17:04.7      11   -104     74    105    128 173.8  38.6  33908  285.33 0855.38
2009/04/23 07:17:04.8      19   -165     96    167    192 173.3  32.7  33908  285.31 0855.38
2009/04/23 07:17:05.0       4   -138     43    139    146 178.2  17.4  33906  285.28 0855.38
2009/04/23 07:17:05.1      -5   -133     55    134    144 182.2  23.0  33908  285.33 0855.38
2009/04/23 07:17:05.2      -2   -187     93    188    209 180.7  28.0  33898  285.16 0855.38
2009/04/23 07:17:05.3     -27   -196     55    198    206 188.0  15.6  33898  285.16 0855.38
2009/04/23 07:17:05.4     -11   -150    130    151    199 184.5  45.4  33902  285.23 0855.38
2009/04/23 07:17:05.5      -8   -126     33    127    132 183.6  14.7  33904  285.26 0855.38
2009/04/23 07:17:05.6     -20   -121     16    123    125 189.7   7.5  33904  285.26 0855.38
2009/04/23 07:17:05.7     -61   -194     66    204    215 197.6  17.9  33900  285.19 0855.38
2009/04/23 07:17:05.8     -94   -179     43    203    208 207.6  12.2  33898  285.16 0855.38
2009/04/23 07:17:05.9    -109   -131     28    171    174 219.6   9.5  33902  285.21 0855.38
2009/04/23 07:17:06.0    -106   -121     37    162    167 221.2  12.9  33896  285.13 0855.38
2009/04/23 07:17:06.1    -112   -195     40    225    229 209.9  10.1  33898  285.16 0855.38
2009/04/23 07:17:06.2     -97   -188     55    212    220 207.4  14.7  33898  285.16 0855.38
2009/04/23 07:17:06.3    -159   -158     35    225    228 225.1   8.9  33898  285.16 0855.38
2009/04/23 07:17:06.4    -179   -101     10    206    207 240.5   2.8  33902  285.23 0855.38
2009/04/23 07:17:06.5    -156    -48     18    164    166 252.9   6.5  33902  285.23 0855.38
2009/04/23 07:17:06.6    -164    -67     22    178    180 247.8   7.2  33902  285.23 0855.38
2009/04/23 07:17:06.7    -137   -122     22    184    186 228.4   7.1  33896  285.11 0855.38
2009/04/23 07:17:06.8    -146   -130     18    196    197 228.2   5.4  33896  285.13 0855.38
2009/04/23 07:17:06.9    -198   -142      3    244    245 234.3   0.8  33900  285.17 0855.38
2009/04/23 07:17:07.0    -111   -131     33    172    176 220.3  11.1  33894  285.07 0855.38
2009/04/23 07:17:07.1    -143   -156     95    213    233 222.5  25.9  33892  285.04 0855.38
2009/04/23 07:17:07.2    -130   -107     55    169    178 230.5  18.1  33896  285.13 0855.38
2009/04/23 07:17:07.3    -158    -38      8    163    164 256.3   3.1  33900  285.19 0855.38
2009/04/23 07:17:07.4    -124    -84     38    150    155 235.8  14.3  33900  285.18 0855.38
2009/04/23 07:17:07.5     -86   -102     69    134    150 220.1  29.3  33898  285.16 0855.38
2009/04/23 07:17:07.6     -70    -82     61    108    124 220.5  31.9  33896  285.13 0855.38
2009/04/23 07:17:07.7     -70    -68     64     98    117 226.0  35.6  33900  285.18 0855.38
2009/04/23 07:17:07.8     -49    -46     64     68     93 226.9  49.0  33900  285.19 0855.38
2009/04/23 07:17:07.9     -25    -35     67     44     80 216.1  63.6  33898  285.16 0855.38
2009/04/23 07:17:08.0     -36    -29     45     47     65 231.4  49.0  33902  285.23 0855.38
2009/04/23 07:17:08.1     -18    -39     42     44     60 205.4  49.0  33902  285.21 0855.38
2009/04/23 07:17:08.2      17    -61     49     64     80 164.0  41.2  33904  285.26 0855.38
2009/04/23 07:17:08.3      51    -70     41     87     96 143.9  27.2  33908  285.31 0855.38
2009/04/23 07:17:08.4      66    -43     53     79     95 123.3  36.5  33908  285.33 0855.38
2009/04/23 07:17:08.5      47    -42     39     64     74 132.2  35.5  33910  285.34 0855.38
2009/04/23 07:17:08.6      67    -55     46     88     99 129.5  30.3  33908  285.31 0855.38
2009/04/23 07:17:08.7      52    -33     62     62     87 122.4  50.1  33906  285.29 0855.38
2009/04/23 07:17:08.8      49    -31     77     59     97 122.5  58.5  33906  285.28 0855.39
2009/04/23 07:17:08.9      92     -7     74     93    118  94.4  42.2  33900  285.19 0855.39
2009/04/23 07:17:09.0      64    -17     63     67     91 105.1  48.5  33904  285.26 0855.39
2009/04/23 07:17:09.1      43    -58     28     73     78 143.9  21.0  33904  285.26 0855.39
2009/04/23 07:17:09.2      45    -45     24     65     69 135.0  20.0  33908  285.31 0855.39
2009/04/23 07:17:09.3      40    -55     18     69     72 143.9  15.3  33908  285.31 0855.39
2009/04/23 07:17:09.4      43    -38     32     58     66 131.3  31.4  33908  285.31 0855.39
2009/04/23 07:17:09.5      52    -38     29     65     71 126.0  26.2  33908  285.31 0855.39
2009/04/23 07:17:09.6      39    -47     -2     62     63 140.3  -2.2  33906  285.29 0855.39
2009/04/23 07:17:09.7      53    -59     -3     80     81 138.1  -2.6  33904  285.26 0855.39
2009/04/23 07:17:09.8      65    -41     -8     78     79 122.4  -6.2  33906  285.29 0855.39
2009/04/23 07:17:09.9      49      0     -6     50     51  90.0  -7.2  33906  285.29 0855.39
2009/04/23 07:17:10.0      53      6     -2     54     55  83.0  -2.2  33906  285.29 0855.39
2009/04/23 07:17:10.1      37      0     11     38     40  90.0  17.3  33906  285.28 0855.39
2009/04/23 07:17:10.2      35     11     18     37     41  71.4  27.2  33906  285.28 0855.39
2009/04/23 07:17:10.3      21     -7     35     23     41 108.4  63.6  33904  285.24 0855.39
2009/04/23 07:17:10.4     -15    -35     58     39     69 203.6  63.6  33900  285.19 0855.39
2009/04/23 07:17:10.5      16    -15     44     23     49 133.1  70.8  33902  285.23 0855.39
2009/04/23 07:17:10.6      23     11     31     26     40  62.9  55.4  33904  285.26 0855.39
2009/04/23 07:17:10.7      20     17     44     27     51  48.7  64.7  33902  285.21 0855.39
2009/04/23 07:17:10.8       9     21     42     24     48  23.6  66.8  33902  285.21 0855.39
2009/04/23 07:17:10.9      -7     32     31     33     45 346.6  49.0  33902  285.23 0855.39
2009/04/23 07:17:11.0     -13      0     46     14     48 270.0  80.7  33900  285.19 0855.39
2009/04/23 07:17:11.1      34      0     56     35     66  90.0  64.7  33898  285.16 0855.39
2009/04/23 07:17:11.2      30      8     51     32     60  74.9  64.7  33898  285.16 0855.39
2009/04/23 07:17:11.3      33     11     40     35     53  71.4  54.3  33900  285.18 0855.39
2009/04/23 07:17:11.4      20     20     14     29     32  45.1  27.2  33898  285.16 0855.39
2009/04/23 07:17:11.5       9      9      3     14     15  45.0  15.3  33900  285.18 0855.39
2009/04/23 07:17:11.6     -19      2      0     20     21 276.1  -2.2  33900  285.18 0855.39
2009/04/23 07:17:11.7     -31      3    -35     32     47 276.1 -56.6  33898  285.16 0855.39
2009/04/23 07:17:11.8     -34    -21    -25     41     48 237.6 -39.9  33900  285.18 0855.39
2009/04/23 07:17:11.9     -20    -11      0     23     24 241.1  -2.2  33900  285.18 0855.39
2009/04/23 07:17:12.0     -43    -20     -2     48     49 244.7  -3.1  33902  285.21 0855.39
2009/04/23 07:17:12.1     -35    -23     -3     43     44 236.7  -4.1  33902  285.21 0855.39
2009/04/23 07:17:12.2     -27    -30    -13     41     43 222.3 -23.8  33902  285.23 0855.39
2009/04/23 07:17:12.4     -12    -31    -20     34     39 201.8 -37.9  33902  285.21 0855.39
2009/04/23 07:17:12.5      -2    -30    -17     31     35 184.5 -37.9  33906  285.29 0855.39
2009/04/23 07:17:12.6       1    -18    -11     19     21 175.5 -37.9  33904  285.26 0855.39
2009/04/23 07:17:12.7       7    -22     -6     24     25 161.5 -15.5  33906  285.29 0855.39
2009/04/23 07:17:12.8      -3    -20     -5     21     22 189.8 -13.4  33904  285.24 0855.39
2009/04/23 07:17:12.9     -10    -10     -5     15     16 226.7 -19.7  33902  285.23 0855.39
2009/04/23 07:17:13.0     -15    -17     -2     24     25 221.4  -5.2  33904  285.26 0855.39
2009/04/23 07:17:13.1      -3    -20     -5     21     22 189.8 -13.4  33904  285.24 0855.39
2009/04/23 07:17:13.2       0    -20     -8     21     22 182.7 -25.4  33902  285.21 0855.39
2009/04/23 07:17:13.3       5    -21     -8     22     23 166.6 -23.3  33902  285.23 0855.39
2009/04/23 07:17:13.4      13    -22    -20     26     32 149.3 -48.1  33898  285.16 0855.39
2009/04/23 07:17:13.5       0    -10     -8     11     13 184.5 -44.1  33900  285.18 0855.39
2009/04/23 07:17:13.7     -21     -7     -1     23     24 251.8  -3.1  33898  285.16 0855.39
2009/04/23 07:17:13.7     -28    -10      2     30     31 250.0   4.9  33900  285.18 0855.39
2009/04/23 07:17:13.8     -27    -22      3     35     36 230.5   4.9  33902  285.21 0855.39
2009/04/23 07:17:13.9     -28    -10      2     30     31 250.0   4.9  33900  285.18 0855.39
2009/04/23 07:17:14.0     -29    -18     11     35     37 237.5  17.3  33902  285.21 0855.39
2009/04/23 07:17:14.1     -35    -19     14     40     43 241.1  19.4  33900  285.19 0855.39
2009/04/23 07:17:14.2     -38    -14     17     41     44 250.0  23.0  33900  285.18 0855.39
2009/04/23 07:17:14.3     -33    -23     14     41     44 235.8  18.9  33898  285.16 0855.39
2009/04/23 07:17:14.4     -46     -6     16     47     50 262.1  19.4  33900  285.19 0855.39
2009/04/23 07:17:14.5     -76    -11     12     77     78 261.2   9.0  33900  285.19 0855.39
2009/04/23 07:17:14.6     -45    -43     21     63     67 226.9  18.4  33902  285.21 0855.39
2009/04/23 07:17:14.7     -61    -65     -9     90     91 223.2  -6.2  33904  285.26 0855.39
2009/04/23 07:17:14.8     -48    -65     17     82     84 216.5  12.2  33904  285.26 0855.40
2009/04/23 07:17:14.9     -64    -55     31     85     90 229.1  21.0  33906  285.29 0855.40
2009/04/23 07:17:15.0     -70    -28     26     76     81 248.2  18.9  33906  285.28 0855.40
2009/04/23 07:17:15.1     -77    -24     28     81     86 252.3  19.4  33900  285.19 0855.40
2009/04/23 07:17:15.2     -89    -16    -11     91     92 259.4  -7.3  33902  285.23 0855.40
2009/04/23 07:17:15.3    -119     -9    -35    120    125 265.6 -21.7  33904  285.26 0855.40
2009/04/23 07:17:15.4    -135     39     -1    141    142 286.4  -0.7  33894  285.07 0855.40
2009/04/23 07:17:15.5    -147     39     -6    153    154 285.0  -2.2  33900  285.19 0855.40
2009/04/23 07:17:15.6    -150     -3    -13    151    152 268.7  -5.1  33906  285.28 0855.40
2009/04/23 07:17:15.7    -108    -18    -19    110    112 260.3 -10.3  33904  285.26 0855.40
2009/04/23 07:17:15.8    -114    -32    -77    119    141 254.1 -40.0  33902  285.21 0855.40
2009/04/23 07:17:15.9    -120     28    -55    124    135 283.3 -29.6  33906  285.29 0855.40
2009/04/23 07:17:16.0     -91      7    -15     92     94 274.4  -9.8  33902  285.23 0855.40
2009/04/23 07:17:16.1     -84      7      9     85     86 275.2   6.5  33906  285.28 0855.40
2009/04/23 07:17:16.2     -90     27    -21     94     97 286.8 -12.9  33906  285.29 0855.40
2009/04/23 07:17:16.3     -97     59     -6    114    115 301.5  -3.1  33904  285.26 0855.40
2009/04/23 07:17:16.4     -91     29    -19     96     98 288.2 -11.5  33908  285.31 0855.40
2009/04/23 07:17:16.5     -58     62     -6     86     87 316.8  -4.6  33906  285.29 0855.40
2009/04/23 07:17:16.6     -90     80     27    121    125 311.8  12.6  33904  285.24 0855.40
2009/04/23 07:17:16.7     -88     66     41    111    118 306.9  21.0  33902  285.21 0855.40
2009/04/23 07:17:16.8     -76     71     71    105    126 313.1  37.4  33904  285.24 0855.40
2009/04/23 07:17:16.9     -59     74     71     95    118 321.3  40.7  33904  285.24 0855.40
2009/04/23 07:17:17.0     -86     58     65    104    122 304.2  35.0  33902  285.21 0855.40
2009/04/23 07:17:17.1     -90     62     77    110    134 304.6  38.0  33898  285.14 0855.40
2009/04/23 07:17:17.2     -91     63     64    111    128 304.6  32.9  33898  285.16 0855.40
2009/04/23 07:17:17.3     -89     68     58    113    127 307.3  29.3  33896  285.13 0855.40
2009/04/23 07:17:17.4     -88     80     59    120    133 312.2  27.8  33896  285.13 0855.40
2009/04/23 07:17:17.5     -72     72     50    102    113 315.0  27.8  33896  285.13 0855.40
2009/04/23 07:17:17.6     -41     78     59     89    106 331.9  36.5  33900  285.19 0855.40
2009/04/23 07:17:17.7     -50     47     49     69     84 313.1  38.6  33900  285.19 0855.40
2009/04/23 07:17:17.8     -12     27     61     30     67 334.5  72.8  33902  285.23 0855.40
2009/04/23 07:17:17.9     -26     26     55     37     66 314.9  63.6  33904  285.24 0855.40
2009/04/23 07:17:18.0      -9     29     43     31     53 341.5  60.5  33902  285.23 0855.40
2009/04/23 07:17:18.1     -26     25     49     37     61 313.3  59.4  33900  285.19 0855.40
2009/04/23 07:17:18.2     -55     27     52     62     80 296.2  44.8  33904  285.24 0855.40
2009/04/23 07:17:18.3     -71      4     45     72     84 273.5  35.5  33902  285.23 0855.40
2009/04/23 07:17:18.5     -83    -15     47     85     97 259.4  31.9  33900  285.19 0855.40
2009/04/23 07:17:18.6     -61    -29      3     68     69 244.7   2.9  33898  285.16 0855.40
2009/04/23 07:17:18.7     -54    -20      7     58     59 249.2   6.9  33900  285.19 0855.40
2009/04/23 07:17:18.8     -29    -29     14     42     45 225.0  19.2  33902  285.21 0855.40
2009/04/23 07:17:18.9     -14      4     16     15     21 288.4  50.1  33902  285.23 0855.40
2009/04/23 07:17:19.0      47      3     19     48     51  85.6  22.0  33900  285.19 0855.40
2009/04/23 07:17:19.1      22     13     16     26     30  59.3  35.5  33900  285.19 0855.40
2009/04/23 07:17:19.2       8     29      8     31     33  15.1  15.3  33904  285.24 0855.40
2009/04/23 07:17:19.3      33     24      7     41     42  54.0  10.1  33902  285.21 0855.40
2009/04/23 07:17:19.4      63     -5     29     64     70  95.2  27.1  33902  285.21 0855.40
2009/04/23 07:17:19.5      33    -24     43     42     60 126.0  50.1  33904  285.26 0855.40
2009/04/23 07:17:19.6      -4    -85     42     86     95 183.1  27.8  33908  285.33 0855.40
2009/04/23 07:17:19.7     -28    -80     59     85    103 199.6  38.0  33908  285.31 0855.40
2009/04/23 07:17:19.8     -30    -68     55     75     93 203.6  40.1  33908  285.33 0855.40
2009/04/23 07:17:19.9     -25    -25     28     36     45 225.0  41.7  33904  285.26 0855.40
2009/04/23 07:17:20.0     -10      0     11     11     15 274.4  50.1  33906  285.29 0855.40
2009/04/23 07:17:20.1      16     29    -15     34     37  29.0 -29.5  33906  285.29 0855.40
2009/04/23 07:17:20.2      26     26     27     37     45  45.1  39.7  33906  285.28 0855.40
2009/04/23 07:17:20.3      24     -8     38     26     46 108.2  62.6  33908  285.31 0855.40
2009/04/23 07:17:20.4      31    -38      8     50     51 140.3  10.1  33908  285.31 0855.40
2009/04/23 07:17:20.5      39    -39      2     56     57 134.9   2.9  33908  285.31 0855.40
2009/04/23 07:17:20.6      12    -61     -2     63     64 168.4  -2.2  33906  285.29 0855.40
2009/04/23 07:17:20.7      10   -148     -8    149    150 176.0  -3.2  33906  285.29 0855.40
2009/04/23 07:17:20.8      17   -118     -1    120    121 171.5  -0.7  33906  285.29 0855.40
2009/04/23 07:17:20.9     -21   -124    -36    126    132 189.7 -16.0  33910  285.34 0855.40
2009/04/23 07:17:21.0     -70   -147    -54    163    171 205.5 -23.8  33904  285.26 0855.40
2009/04/23 07:17:21.1     -68   -116    -51    135    144 210.3 -25.4  33902  285.23 0855.40
2009/04/23 07:17:21.2     -60   -101      5    118    119 210.7   2.8  33904  285.24 0855.40
2009/04/23 07:17:21.3     -65    -31    -54     73     90 244.7 -44.5  33906  285.29 0855.40
2009/04/23 07:17:21.4     -52    -32    -35     62     71 238.5 -35.8  33906  285.28 0855.40
2009/04/23 07:17:21.5    -119     -9    -34    120    124 265.6 -21.2  33906  285.28 0855.40
2009/04/23 07:17:21.6    -105    -50    -69    117    135 244.2 -37.9  33904  285.26 0855.40
2009/04/23 07:17:21.7     -54    -62    -39     83     91 221.4 -31.5  33904  285.24 0855.40
2009/04/23 07:17:21.8     -18    -71     20     74     77 194.3  15.8  33906  285.28 0855.40
2009/04/23 07:17:21.9     -22    -67     46     71     84 198.7  35.6  33904  285.26 0855.40
2009/04/23 07:17:22.0     -40    -33     54     52     74 230.4  49.1  33904  285.26 0855.40
2009/04/23 07:17:22.1     -74     16      3     76     77 282.4   2.9  33904  285.24 0855.40
2009/04/23 07:17:22.2     -80     19    -20     83     86 283.3 -13.9  33904  285.26 0855.40
2009/04/23 07:17:22.3     -61    -12      3     63     64 258.5   2.9  33904  285.26 0855.40
2009/04/23 07:17:22.4     -29     -2     24     30     38 265.6  43.7  33904  285.26 0855.40
2009/04/23 07:17:22.5     -26     -7     33     27     42 254.9  55.4  33902  285.21 0855.40
2009/04/23 07:17:22.6     -39    -28     42     49     64 234.0  45.8  33904  285.24 0855.40
2009/04/23 07:17:22.7     -73    -31     21     80     83 246.5  15.3  33902  285.23 0855.40
2009/04/23 07:17:22.8     -79    -50     22     94     97 237.6  13.7  33902  285.23 0855.40
2009/04/23 07:17:22.9     -40    -49     -1     64     65 218.7  -1.2  33904  285.26 0855.40
2009/04/23 07:17:23.0       7    -42      5     43     44 170.2   6.9  33904  285.26 0855.40
2009/04/23 07:17:23.1      13    -42     37     45     58 162.2  43.8  33904  285.24 0855.40
2009/04/23 07:17:23.2      49    -50     38     71     80 135.8  30.3  33904  285.26 0855.40
2009/04/23 07:17:23.3      41    -15     47     44     64 110.0  52.1  33902  285.21 0855.40
2009/04/23 07:17:23.4      56     -6     57     57     80  96.1  50.1  33902  285.23 0855.40
2009/04/23 07:17:23.5      25     -9     51     27     57 111.7  69.8  33904  285.26 0855.40
2009/04/23 07:17:23.6      -7    -41     54     42     68 190.7  56.4  33906  285.28 0855.40
2009/04/23 07:17:23.7      48    -48     65     69     94 135.0  49.0  33906  285.29 0855.40
2009/04/23 07:17:23.8      37    -44     59     58     82 140.4  50.1  33904  285.26 0855.40
2009/04/23 07:17:23.9      39    -14     48     42     63 110.0  53.3  33904  285.24 0855.41
2009/04/23 07:17:24.0      33    -10     53     35     63 108.2  63.6  33900  285.19 0855.41
2009/04/23 07:17:24.1      23    -15     49     28     56 122.5  66.8  33900  285.18 0855.41
2009/04/23 07:17:24.2       7      3     39      8     39  64.7  90.0  33900  285.18 0855.41
2009/04/23 07:17:24.3      12      8     52     15     54  57.6  82.8  33904  285.24 0855.41
2009/04/23 07:17:24.4      12     -3     42     13     43 105.1  81.8  33900  285.19 0855.41
2009/04/23 07:17:24.5      16     15     24     23     33  46.9  48.2  33898  285.16 0855.41
2009/04/23 07:17:24.6       7      0     29      8     30  90.0  84.9  33898  285.16 0855.41
2009/04/23 07:17:24.7       0      7     20      8     21 357.3  77.1  33896  285.11 0855.41
2009/04/23 07:17:24.8       2      7     17      8     18  18.5  77.1  33894  285.07 0855.41
2009/04/23 07:17:24.9       8     13     35     16     38  32.5  75.0  33894  285.07 0855.41
2009/04/23 07:17:25.0      14     17     28     23     36  39.6  56.4  33894  285.07 0855.41
2009/04/23 07:17:25.1      27      9     20     29     35  71.4  35.6  33892  285.04 0855.41
2009/04/23 07:17:25.2      27      9     23     29     37  70.0  43.7  33892  285.04 0855.41
2009/04/23 07:17:25.3      17     22     37     28     46  37.8  59.4  33892  285.06 0855.41
2009/04/23 07:17:25.4       7     22     42     24     48  18.3  66.8  33888  284.99 0855.41
2009/04/23 07:17:25.5      16     20     36     26     44  39.6  60.5  33890  285.01 0855.41
2009/04/23 07:17:25.6      13     21     32     26     41  32.5  56.4  33888  284.99 0855.41
2009/04/23 07:17:25.7      19     10     27     22     34  62.9  56.3  33890  285.02 0855.41
2009/04/23 07:17:25.8      19      4     34     20     39  76.7  66.8  33894  285.07 0855.41
2009/04/23 07:17:25.9       8    -14     22     17     27 151.0  58.5  33894  285.07 0855.41
2009/04/23 07:17:26.0      28     -9     21     30     36 108.2  37.6  33896  285.13 0855.41
2009/04/23 07:17:26.1      22      6     16     23     28  74.9  37.6  33898  285.14 0855.41
2009/04/23 07:17:26.2       0     16     20     17     26   0.9  54.3  33898  285.16 0855.41
2009/04/23 07:17:26.3     -21     21     24     31     39 315.0  43.7  33898  285.16 0855.41
2009/04/23 07:17:26.4     -26      0     17     27     31 269.2  35.5  33898  285.16 0855.41
2009/04/23 07:17:26.5     -51    -53     20     74     77 224.2  15.8  33900  285.19 0855.41
2009/04/23 07:17:26.6     -36    -37     33     52     61 224.2  35.5  33904  285.24 0855.41
2009/04/23 07:17:26.7     -21    -25     33     33     46 219.6  50.1  33904  285.26 0855.41
2009/04/23 07:17:26.8      -2     -4     36      5     36 212.5  90.0  33902  285.23 0855.41
2009/04/23 07:17:26.9      15      7     43     17     46  64.7  78.2  33900  285.18 0855.41
2009/04/23 07:17:27.0      26     31     47     41     62  39.7  53.3  33898  285.16 0855.41
2009/04/23 07:17:27.1       0      0     39      0     39   0.0 -90.0  33902  285.23 0855.41
2009/04/23 07:17:27.2     -10    -22     25     25     35 205.4  50.1  33902  285.23 0855.41
2009/04/23 07:17:27.3     -14     -2     24     15     28 258.5  64.7  33902  285.21 0855.41
2009/04/23 07:17:27.4     -19     19     26     27     37 315.0  52.0  33900  285.18 0855.41
2009/04/23 07:17:27.5      15     16     48     23     53  43.2  72.9  33898  285.16 0855.41
2009/04/23 07:17:27.6      30     -8     51     32     60 105.1  64.7  33898  285.16 0855.41
2009/04/23 07:17:27.7      34     16     41     38     55  64.7  52.2  33898  285.16 0855.41
2009/04/23 07:17:27.8      10      9     31     14     34  46.7  75.0  33900  285.18 0855.41
2009/04/23 07:17:27.9      19     23     40     30     50  39.6  58.5  33898  285.16 0855.41
2009/04/23 07:17:28.0      21     32     35     39     52  32.6  46.9  33896  285.13 0855.41
2009/04/23 07:17:28.1       7     22     35     24     42  18.3  62.6  33898  285.14 0855.41
2009/04/23 07:17:28.2      -2     28     29     29     41 355.6  50.1  33896  285.13 0855.41
2009/04/23 07:17:28.3     -15     24     23     29     37 327.4  43.7  33896  285.13 0855.41
2009/04/23 07:17:28.4       3     31     18     32     36   6.2  33.5  33896  285.13 0855.41
2009/04/23 07:17:28.5      25     25     16     36     39  45.0  25.1  33896  285.13 0855.41
2009/04/23 07:17:28.6      25     30     13     40     43  39.6  18.4  33894  285.07 0855.41
2009/04/23 07:17:28.8      -3     47     16     48     51 355.5  18.4  33892  285.06 0855.41
2009/04/23 07:17:28.9      -3     48     29     49     56 355.5  34.4  33892  285.06 0855.41
2009/04/23 07:17:29.0     -29     42     38     52     64 324.8  39.7  33896  285.11 0855.41
2009/04/23 07:17:29.1     -15     45     39     48     61 341.3  43.7  33896  285.13 0855.41
2009/04/23 07:17:29.2     -12     37     39     40     55 341.3  51.1  33894  285.07 0855.41
2009/04/23 07:17:29.3     -12     37     26     40     47 341.7  35.6  33894  285.07 0855.41
2009/04/23 07:17:29.4      19     26     19     33     38  36.1  35.5  33896  285.11 0855.41
2009/04/23 07:17:29.5      34      3     38     35     51  83.9  52.2  33896  285.13 0855.41
2009/04/23 07:17:29.6      27     31     26     42     49  40.5  35.5  33894  285.07 0855.41
2009/04/23 07:17:29.7      21     43     25     48     54  26.3  28.2  33896  285.13 0855.41
2009/04/23 07:17:29.8      28     37     27     47     54  37.0  33.5  33898  285.14 0855.41
2009/04/23 07:17:29.9      40     40     32     57     65  45.1  31.4  33898  285.16 0855.42
2009/04/23 07:17:30.0      27     41     34     50     60  33.4  37.6  33898  285.14 0855.42
2009/04/23 07:17:30.1      14     42     22     45     50  19.2  27.3  33896  285.13 0855.42
2009/04/23 07:17:30.2      23     37     37     44     57  32.5  43.8  33894  285.09 0855.42
2009/04/23 07:17:30.3       7     38     34     39     51  11.5  45.8  33896  285.13 0855.42
2009/04/23 07:17:30.4      -1     42     27     43     50 357.4  35.5  33896  285.13 0855.42
2009/04/23 07:17:30.5     -15     39     22     43     48 338.2  29.3  33896  285.13 0855.42
2009/04/23 07:17:30.6     -30     23     36     39     53 307.8  47.9  33894  285.07 0855.42
2009/04/23 07:17:30.7     -37     37     30     53     60 314.9  31.4  33896  285.11 0855.42
2009/04/23 07:17:30.8     -65     25     13     70     72 291.7  11.1  33896  285.11 0855.42
2009/04/23 07:17:30.9     -65     32     14     73     75 296.2  11.1  33896  285.11 0855.42
2009/04/23 07:17:31.0     -53     29     12     61     63 298.9  11.1  33894  285.07 0855.42
2009/04/23 07:17:31.1     -51     34     21     62     66 304.2  18.9  33896  285.13 0855.42
2009/04/23 07:17:31.2     -48     31     32     58     66 302.5  31.4  33896  285.13 0855.42
2009/04/23 07:17:31.3     -46     26     33     53     62 299.8  35.5  33896  285.11 0855.42
2009/04/23 07:17:31.4     -60     21     36     64     73 290.0  31.4  33892  285.06 0855.42
2009/04/23 07:17:31.5     -61      0     36     62     71 270.0  33.5  33896  285.11 0855.42
2009/04/23 07:17:31.6     -57    -19     51     61     79 251.4  44.3  33896  285.11 0855.42
2009/04/23 07:17:31.7     -42    -28     48     51     70 235.8  48.0  33892  285.06 0855.42
2009/04/23 07:17:31.8     -62      0     49     63     79 270.0  42.2  33896  285.13 0855.42
2009/04/23 07:17:31.9     -67    -18     56     70     89 254.9  43.3  33896  285.11 0855.41
2009/04/23 07:17:32.0     -77     -8     39     78     87 263.9  28.2  33900  285.18 0855.41
2009/04/23 07:17:32.1     -85      3     51     86     99 272.6  33.5  33898  285.16 0855.41
2009/04/23 07:17:32.2     -76    -15     43     78     89 258.6  31.4  33898  285.14 0855.41
2009/04/23 07:17:32.3     -61    -39     42     73     84 237.6  32.9  33898  285.14 0855.41
2009/04/23 07:17:32.4     -45    -28     38     54     66 237.6  38.6  33898  285.14 0855.41
2009/04/23 07:17:32.5     -45    -39     48     60     76 228.7  43.7  33896  285.13 0855.41
2009/04/23 07:17:32.6     -44    -40     36     60     69 227.8  34.4  33896  285.13 0855.41
2009/04/23 07:17:32.7     -57    -57     31     82     87 225.0  21.0  33894  285.07 0855.41
2009/04/23 07:17:32.8     -63    -59     33     87     93 226.9  21.5  33894  285.09 0855.41
2009/04/23 07:17:32.9    -108    -34     36    114    120 252.3  17.9  33892  285.06 0855.41
2009/04/23 07:17:33.0    -103    -34     42    109    116 251.4  21.5  33890  285.02 0855.41
2009/04/23 07:17:33.1     -77    -18     34     80     86 256.7  24.1  33892  285.04 0855.41
2009/04/23 07:17:33.2     -77    -24     44     81     92 252.3  30.8  33892  285.06 0855.41
2009/04/23 07:17:33.3     -91     -4     29     92     97 267.4  17.9  33890  285.02 0855.41
2009/04/23 07:17:33.4     -76     -1     32     77     83 269.2  23.6  33888  284.99 0855.41
2009/04/23 07:17:33.5     -87     -7     49     88    100 265.2  31.4  33890  285.01 0855.41
2009/04/23 07:17:33.6     -92      3     34     93     99 272.1  20.4  33888  284.99 0855.41
2009/04/23 07:17:33.7     -92      4     18     93     95 273.0  11.1  33886  284.96 0855.41
2009/04/23 07:17:33.8    -100     -7      5    101    102 265.6   2.9  33888  284.97 0855.41
2009/04/23 07:17:33.9     -92     -4     19     93     95 267.4  11.6  33886  284.94 0855.42
2009/04/23 07:17:34.0    -111     -2     39    112    119 268.7  19.4  33880  284.86 0855.42
2009/04/23 07:17:34.1    -113      0     25    114    117 270.0  12.6  33878  284.81 0855.42
2009/04/23 07:17:34.2    -111     -1     24    112    115 269.2  12.2  33884  284.91 0855.42
2009/04/23 07:17:34.3     -94      3     42     95    103 272.1  25.1  33886  284.96 0855.42
2009/04/23 07:17:34.4     -89    -15     62     91    110 260.3  37.6  33888  284.97 0855.42
2009/04/23 07:17:34.5     -76    -20     59     79     98 255.0  40.1  33886  284.94 0855.42
2009/04/23 07:17:34.6     -69    -15     52     71     88 257.6  39.7  33888  284.97 0855.42
2009/04/23 07:17:34.7     -59    -14     36     61     70 256.7  33.5  33888  284.97 0855.42
2009/04/23 07:17:34.8     -55    -36     23     66     70 236.7  19.4  33888  284.97 0855.42
2009/04/23 07:17:34.9     -31    -53     13     62     64 210.7  12.2  33890  285.01 0855.42
2009/04/23 07:17:35.0     -38    -52     29     65     71 216.1  26.2  33888  284.99 0855.42
2009/04/23 07:17:35.1      -7      0     52      8     52 265.6  90.0  33888  284.99 0855.42
2009/04/23 07:17:35.2      -8     12     44     15     46 327.5  81.0  33894  285.07 0855.42
2009/04/23 07:17:35.3     -14     22     39     27     47 327.5  62.6  33894  285.07 0855.42
2009/04/23 07:17:35.4      -7      0     38      8     38 270.0  89.0  33894  285.09 0855.42
2009/04/23 07:17:35.5       7     -2     32      8     33 108.4  84.9  33892  285.04 0855.42
2009/04/23 07:17:35.6       0     -2     28      3     28 161.5  90.0  33892  285.06 0855.42
2009/04/23 07:17:35.7      10     -2     31     11     32 105.1  81.2  33894  285.09 0855.42
2009/04/23 07:17:35.8       9    -27     50     29     57 160.0  66.8  33896  285.11 0855.42
2009/04/23 07:17:35.9     -15    -17     57     23     61 221.4  77.1  33894  285.07 0855.42
2009/04/23 07:17:36.0     -32    -17     57     37     67 241.1  64.6  33894  285.07 0855.42
2009/04/23 07:17:36.1     -18     -6     49     20     52 251.6  77.1  33896  285.13 0855.42
2009/04/23 07:17:36.2     -14    -28     49     32     58 207.2  64.6  33894  285.07 0855.42
2009/04/23 07:17:36.3     -34     23     33     42     53 304.2  43.7  33896  285.11 0855.42
2009/04/23 07:17:36.4     -33    -12     21     36     41 250.0  32.4  33896  285.11 0855.42
2009/04/23 07:17:36.5     -25    -18      9     31     33 234.0  17.3  33896  285.13 0855.42
2009/04/23 07:17:36.6     -14    -30     21     34     39 205.4  34.4  33894  285.07 0855.42
2009/04/23 07:17:36.7     -42    -35     17     55     58 230.4  17.3  33894  285.07 0855.42
2009/04/23 07:17:36.8     -53    -50     28     74     79 226.8  21.5  33896  285.11 0855.42
2009/04/23 07:17:36.9     -39    -25     43     47     63 237.6  47.9  33896  285.13 0855.42
2009/04/23 07:17:37.0     -42    -14     26     45     51 250.9  32.4  33896  285.13 0855.42
2009/04/23 07:17:37.1     -25    -25     28     36     45 225.0  41.7  33896  285.11 0855.42
2009/04/23 07:17:37.2     -19    -30     35     36     50 212.5  51.1  33894  285.07 0855.42
2009/04/23 07:17:37.3       2    -31     30     32     43 175.5  50.0  33888  284.97 0855.42
2009/04/23 07:17:37.4     -22      4     18     23     29 281.5  43.7  33886  284.96 0855.42
2009/04/23 07:17:37.5      -7     22     11     24     26 341.7  25.1  33892  285.06 0855.42
2009/04/23 07:17:37.6     -20     57     28     61     67 340.0  26.2  33892  285.06 0855.42
2009/04/23 07:17:37.7     -40     14     20     43     47 289.1  26.2  33892  285.04 0855.42
2009/04/23 07:17:37.8     -31     10      5     33     34 288.4   9.0  33894  285.09 0855.42
2009/04/23 07:17:37.9      -8     -8     11     12     16 223.2  52.0  33890  285.02 0855.42
2009/04/23 07:17:38.0     -12    -40     28     42     50 196.9  36.5  33886  284.94 0855.42
2009/04/23 07:17:38.1     -18    -53     49     57     75 198.7  44.8  33888  284.97 0855.42
2009/04/23 07:17:38.2       5    -82     25     83     87 176.0  17.3  33890  285.02 0855.42
2009/04/23 07:17:38.3      -8    -81     33     82     88 185.8  23.0  33894  285.07 0855.42
2009/04/23 07:17:38.4      25    -76     52     81     96 161.3  35.6  33894  285.09 0855.42
2009/04/23 07:17:38.5      13    -66     48     68     83 168.4  39.1  33890  285.02 0855.42
2009/04/23 07:17:38.6       4    -54     50     55     74 175.6  47.9  33888  284.99 0855.42
2009/04/23 07:17:38.7       0    -68     46     69     82 180.0  37.0  33892  285.04 0855.42
2009/04/23 07:17:38.8      34    -67     51     76     91 152.8  37.0  33892  285.04 0855.42
2009/04/23 07:17:38.9      50    -53     55     74     92 136.8  40.7  33898  285.16 0855.42
2009/04/23 07:17:39.0      60    -33     44     69     81 118.9  35.5  33906  285.29 0855.42
2009/04/23 07:17:39.1      57    -18     28     60     66 108.2  27.1  33904  285.26 0855.42
2009/04/23 07:17:39.2      50    -14     12     53     55 105.9  13.2  33904  285.24 0855.42
2009/04/23 07:17:39.3      39    -11     24     41     47 106.8  33.5  33898  285.14 0855.42
2009/04/23 07:17:39.4      43    -36     42     57     70 129.5  39.7  33896  285.11 0855.42
2009/04/23 07:17:39.5      34    -53     48     64     80 147.5  40.7  33896  285.13 0855.42
2009/04/23 07:17:39.6      20    -55     53     59     79 160.0  47.5  33896  285.13 0855.42
2009/04/23 07:17:39.7      16    -30     44     35     56 151.0  56.4  33894  285.09 0855.42
2009/04/23 07:17:39.8       7    -27     67     29     73 164.9  75.0  33892  285.06 0855.42
2009/04/23 07:17:39.9       4    -36     56     37     67 173.8  64.6  33892  285.06 0855.42
2009/04/23 07:17:40.0      -1      0     46      2     46 288.4  90.0  33898  285.14 0855.42
2009/04/23 07:17:40.1     -12     16     48     21     52 323.9  75.0  33902  285.23 0855.42
2009/04/23 07:17:40.2      -3     32     41     33     52 353.8  56.4  33902  285.21 0855.42
2009/04/23 07:17:40.3     -13      8     39     16     42 302.4  77.1  33900  285.18 0855.42
2009/04/23 07:17:40.4     -19     19     20     27     33 314.9  41.7  33902  285.21 0855.42
2009/04/23 07:17:40.5      -3      6      2      7      8 334.6  19.4  33898  285.16 0855.42
2009/04/23 07:17:40.6       9     17      4     20     21  27.2  13.2  33896  285.13 0855.42
2009/04/23 07:17:40.7       1     17     -5     18     19   4.5 -15.5  33896  285.11 0855.42
2009/04/23 07:17:40.8      28     35     41     46     61  38.7  46.9  33882  284.89 0855.42
2009/04/23 07:17:40.9      37     58     64     70     94  32.6  47.5  33886  284.96 0855.42
2009/04/23 07:17:41.0      14     44     96     47    106  18.3  72.4  33894  285.09 0855.42
2009/04/23 07:17:41.1      15     41     76     44     87  20.0  67.2  33900  285.19 0855.42
2009/04/23 07:17:41.2      58     40     79     71    106  54.9  52.7  33900  285.18 0855.42
2009/04/23 07:17:41.3     102     90     85    137    161  48.7  34.8  33904  285.24 0855.42
2009/04/23 07:17:41.4     108    101     71    149    165  46.9  27.4  33902  285.23 0855.42
2009/04/23 07:17:41.5      81     97     57    127    139  40.1  26.2  33900  285.18 0855.42
2009/04/23 07:17:41.6      64     97     55    117    129  33.4  27.2  33898  285.16 0855.42
2009/04/23 07:17:41.7      35    114     65    120    136  17.4  30.8  33900  285.19 0855.42
2009/04/23 07:17:41.8      63    121     26    137    140  27.6  11.1  33900  285.19 0855.42
2009/04/23 07:17:41.9      68    107     14    128    129  32.5   6.5  33900  285.18 0855.41
2009/04/23 07:17:42.0      77     93     -4    122    123  39.7  -2.2  33900  285.19 0855.41
2009/04/23 07:17:42.1      59     86      6    105    106  34.3   3.3  33898  285.16 0855.41
2009/04/23 07:17:42.2      78     90     26    120    123  41.0  12.6  33900  285.18 0855.41
2009/04/23 07:17:42.3      95     61     17    114    116  57.1   8.5  33900  285.19 0855.41
2009/04/23 07:17:42.4      84     75     20    114    116  48.2  10.1  33900  285.18 0855.41
2009/04/23 07:17:42.5      72     94     27    119    123  37.4  13.1  33902  285.21 0855.41
2009/04/23 07:17:42.6      99     95     -2    138    139  46.0  -1.2  33904  285.24 0855.41
2009/04/23 07:17:42.7     111     96     -5    147    148  49.1  -2.2  33904  285.24 0855.41
2009/04/23 07:17:42.9     109     77     -5    134    135  54.9  -2.2  33902  285.21 0855.41
2009/04/23 07:17:42.9      80    103    -42    131    138  37.8 -18.1  33908  285.31 0855.42
2009/04/23 07:17:43.0     101     76    -21    127    129  52.7  -9.8  33908  285.31 0855.42
2009/04/23 07:17:43.1      46     48    -30     67     73  44.2 -30.6  33906  285.28 0855.42
2009/04/23 07:17:43.3     102     14     44    103    112  82.1  24.1  33904  285.24 0855.42
2009/04/23 07:17:43.4     113      8     44    114    122  85.7  22.0  33902  285.23 0855.42
2009/04/23 07:17:43.5     119      0     48    120    129  90.0  23.0  33904  285.24 0855.42
2009/04/23 07:17:43.6      72     14     30     74     79  78.5  23.6  33904  285.24 0855.42
2009/04/23 07:17:43.7      68     22     25     72     77  71.4  19.4  33902  285.21 0855.42
2009/04/23 07:17:43.8      60     25     32     66     73  67.4  27.3  33900  285.18 0855.42
2009/04/23 07:17:43.9      32     49     37     59     69  33.4  35.5  33906  285.28 0855.42
2009/04/23 07:17:44.0      62     67     46     92    102  43.2  28.2  33904  285.26 0855.42
2009/04/23 07:17:44.1      63     45     41     78     88  54.0  29.8  33908  285.31 0855.42
2009/04/23 07:17:44.2      84     34     35     91     97  67.8  21.5  33906  285.29 0855.42
2009/04/23 07:17:44.4      56     22     38     61     71  68.3  35.5  33906  285.28 0855.42
2009/04/23 07:17:44.4      47      8     36     48     60  80.3  40.7  33904  285.26 0855.42
2009/04/23 07:17:44.5      17      9     35     20     40  61.1  67.7  33904  285.24 0855.42
2009/04/23 07:17:44.6      -1     10     24     11     26 352.0  75.0  33904  285.26 0855.42
2009/04/23 07:17:44.7     -23     19     22     31     38 309.5  37.6  33904  285.24 0855.42
2009/04/23 07:17:44.8     -34     11     20     36     41 288.2  31.4  33904  285.26 0855.42
2009/04/23 07:17:44.9     -36     14     18     39     42 291.7  26.2  33904  285.24 0855.42
2009/04/23 07:17:45.0     -37     12     29     40     49 288.6  39.7  33898  285.16 0855.42
2009/04/23 07:17:45.1     -48      3     27     49     55 274.3  32.4  33900  285.18 0855.42
2009/04/23 07:17:45.2     -62    -29     28     69     74 244.7  23.0  33900  285.19 0855.42
2009/04/23 07:17:45.3     -71    -45     35     85     91 237.5  23.6  33900  285.18 0855.42
2009/04/23 07:17:45.4     -68    -22     24     72     77 251.6  18.9  33894  285.07 0855.42
2009/04/23 07:17:45.5     -73      7     26     74     79 276.1  19.4  33896  285.11 0855.42
2009/04/23 07:17:45.6     -72    -10     25     73     78 262.1  18.9  33894  285.09 0855.42
2009/04/23 07:17:45.7     -70    -24     -2     75     76 250.9  -2.2  33894  285.09 0855.42
2009/04/23 07:17:45.8     -82     -5     -3     83     84 266.1  -2.2  33896  285.13 0855.42
2009/04/23 07:17:45.9     -83    -12      7     84     85 261.6   4.9  33896  285.11 0855.42
2009/04/23 07:17:46.0     -78    -32      1     85     86 247.4   1.2  33896  285.13 0855.42
2009/04/23 07:17:46.1     -64    -55      1     85     86 229.6   0.8  33896  285.13 0855.42
2009/04/23 07:17:46.3     -69    -13      0     71     72 259.4  -0.3  33896  285.13 0855.42
2009/04/23 07:17:46.4     -73     -7     24     74     78 263.9  18.4  33896  285.13 0855.42
2009/04/23 07:17:46.5     -61    -27     32     67     74 245.6  27.1  33894  285.09 0855.42
2009/04/23 07:17:46.6     -45    -48     36     66     75 223.2  31.4  33894  285.09 0855.42
2009/04/23 07:17:46.7     -71    -42     39     83     91 239.3  27.1  33894  285.07 0855.42
2009/04/23 07:17:46.8     -62    -34     14     71     73 241.2  11.1  33892  285.06 0855.42
2009/04/23 07:17:46.9     -67    -13     -8     69     70 258.5  -7.3  33892  285.04 0855.42
2009/04/23 07:17:47.0     -76    -24    -17     80     82 251.8 -12.4  33890  285.02 0855.42
2009/04/23 07:17:47.1     -84    -37    -18     92     94 246.0 -11.3  33892  285.06 0855.42
2009/04/23 07:17:47.2     -66    -42    -20     79     82 237.6 -14.5  33892  285.04 0855.42
2009/04/23 07:17:47.3     -76    -57    -13     95     96 233.1  -8.2  33892  285.06 0855.42
2009/04/23 07:17:47.4     -54    -70    -26     89     92 217.8 -21.2  33898  285.14 0855.42
2009/04/23 07:17:47.5     -56    -59    -27     82     86 223.2 -23.8  33894  285.07 0855.42
2009/04/23 07:17:47.6     -49    -48    -24     69     74 225.9 -19.6  33892  285.06 0855.42
2009/04/23 07:17:47.7     -30    -48    -24     57     61 212.6 -27.5  33892  285.06 0855.42
2009/04/23 07:17:47.8     -22    -39    -22     45     50 209.9 -31.7  33894  285.07 0855.42
2009/04/23 07:17:47.9     -14    -25    -14     29     32 209.0 -31.6  33894  285.09 0855.42
2009/04/23 07:17:48.0     -13    -23    -13     27     29 210.7 -31.7  33894  285.07 0855.42
2009/04/23 07:17:48.1       0    -21     -7     22     23 180.9 -23.8  33896  285.11 0855.42
2009/04/23 07:17:48.2      -7    -21      3     23     24 200.0   9.0  33896  285.13 0855.42
2009/04/23 07:17:48.3      -7    -21      3     23     24 200.0   9.0  33896  285.13 0855.42
2009/04/23 07:17:48.4       0    -20      0     21     22 180.9  -2.2  33896  285.13 0855.42
2009/04/23 07:17:48.5      -1    -16     -2     17     18 184.5  -7.3  33896  285.11 0855.42
2009/04/23 07:17:48.6     -10    -10    -10     15     18 223.2 -40.0  33896  285.11 0855.42
2009/04/23 07:17:48.8     -13     -8    -13     16     20 237.6 -48.1  33894  285.07 0855.42
2009/04/23 07:17:48.9     -17     -4    -28     18     33 254.9 -69.0  33896  285.13 0855.42
2009/04/23 07:17:49.0     -43     -1    -42     44     60 267.4 -53.4  33894  285.09 0855.42
2009/04/23 07:17:49.1     -51     -3    -30     52     60 265.6 -36.8  33894  285.07 0855.42
2009/04/23 07:17:49.2     -50      0    -15     51     53 270.0 -22.8  33892  285.06 0855.42
2009/04/23 07:17:49.3     -75      9     -9     76     77 277.0  -7.2  33890  285.01 0855.42
2009/04/23 07:17:49.4     -90     14    -24     92     96 279.2 -15.0  33892  285.06 0855.42
2009/04/23 07:17:49.5     -87      6    -30     88     92 274.4 -23.3  33894  285.07 0855.42
2009/04/23 07:17:49.6    -103     27    -32    107    111 285.0 -21.7  33896  285.11 0855.42
2009/04/23 07:17:49.7     -96     24    -30    100    105 284.2 -16.6  33894  285.07 0855.42
2009/04/23 07:17:49.8    -144     12     -3    145    146 274.8  -1.3  33892  285.04 0855.42
2009/04/23 07:17:49.9    -103     17     -9    105    106 279.7  -5.2  33894  285.07 0855.42
2009/04/23 07:17:50.0    -118      1     36    119    125 270.8  16.8  33894  285.07 0855.42
2009/04/23 07:17:50.1     -88    -29     41     93    101 251.8  25.1  33892  285.04 0855.42
2009/04/23 07:17:50.2    -112    -47     38    122    128 246.9  17.3  33890  285.02 0855.42
2009/04/23 07:17:50.3     -93    -50     41    106    113 241.6  22.0  33892  285.06 0855.42
2009/04/23 07:17:50.4    -102    -22     13    105    106 257.6   7.5  33892  285.04 0855.42
2009/04/23 07:17:50.5     -78    -34     -3     86     87 246.0  -2.2  33894  285.07 0855.42
2009/04/23 07:17:50.6     -81    -33      6     88     89 247.8   4.4  33894  285.07 0855.42
2009/04/23 07:17:50.7     -78    -31      8     84     85 248.3   5.9  33892  285.06 0855.42
2009/04/23 07:17:50.8    -105    -67    -25    125    128 237.5 -11.3  33894  285.07 0855.42
2009/04/23 07:17:50.9     -96    -43    -29    106    111 246.0 -15.5  33894  285.07 0855.42
2009/04/23 07:17:51.0    -108    -36    -43    115    122 251.4 -25.4  33890  285.02 0855.41
2009/04/23 07:17:51.1     -91    -45    -47    102    112 243.8 -31.0  33892  285.04 0855.41
2009/04/23 07:17:51.2     -94    -14    -30     96    101 261.2 -17.6  33890  285.01 0855.41
2009/04/23 07:17:51.3     -51      3    -24     52     57 273.5 -31.5  33892  285.04 0855.41
2009/04/23 07:17:51.4     -32      0    -15     33     36 270.8 -31.5  33890  285.01 0855.41
2009/04/23 07:17:51.5     -16     21      0     27     28 322.2  -1.3  33892  285.06 0855.41
2009/04/23 07:17:51.6       2     30     10     31     33   4.5  19.4  33892  285.04 0855.41
2009/04/23 07:17:51.7       4      5     11      7     13  39.6  64.7  33892  285.04 0855.41
2009/04/23 07:17:51.8       0      3      8      4      9   4.5  72.9  33894  285.07 0855.41
2009/04/23 07:17:51.9       0      7     13      8     15 357.3  64.7  33896  285.13 0855.41
2009/04/23 07:17:52.0      14     26     28     30     41  29.0  49.0  33898  285.16 0855.41
2009/04/23 07:17:52.1       2     23     17     24     29   6.2  37.6  33900  285.18 0855.41
2009/04/23 07:17:52.2      50      0     22     51     55  89.2  25.1  33896  285.13 0855.41
2009/04/23 07:17:52.3       3    -45     44     46     63 175.5  50.0  33896  285.13 0855.41
2009/04/23 07:17:52.4       9   -103     22    104    107 174.7  12.2  33896  285.11 0855.41
2009/04/23 07:17:52.5       0   -113     40    114    121 180.0  19.4  33896  285.13 0855.41
2009/04/23 07:17:52.6     -33   -105     71    111    131 197.4  35.6  33896  285.13 0855.41
2009/04/23 07:17:52.7     -38   -115     68    122    139 198.3  31.4  33894  285.09 0855.41
2009/04/23 07:17:52.8     -62    -97      2    116    117 212.5   1.2  33894  285.07 0855.41
2009/04/23 07:17:52.9     -46    -75      0     89     90 211.6  -0.3  33896  285.13 0855.41
2009/04/23 07:17:53.1     -39    -80     31     90     96 206.3  19.2  33898  285.16 0855.41
2009/04/23 07:17:53.2     -60    -85     13    105    106 215.2   7.1  33898  285.16 0855.41
2009/04/23 07:17:53.3     -33    -98     28    104    108 198.7  15.2  33898  285.16 0855.41
2009/04/23 07:17:53.4     -24   -112      5    115    116 192.5   2.8  33900  285.18 0855.41
2009/04/23 07:17:53.5     -31   -115     37    120    126 195.2  17.3  33904  285.24 0855.41
2009/04/23 07:17:53.6     -40   -110     32    118    123 200.0  15.3  33900  285.19 0855.41
2009/04/23 07:17:53.7     -37   -110     14    117    118 198.7   6.9  33902  285.23 0855.41
2009/04/23 07:17:53.8     -35    -98     21    105    108 199.6  11.6  33902  285.21 0855.41
2009/04/23 07:17:53.9     -31    -98     20    103    106 197.8  11.1  33904  285.24 0855.41
2009/04/23 07:17:54.0     -30    -84     20     90     93 199.6  12.6  33904  285.24 0855.41
2009/04/23 07:17:54.1     -40    -87      7     96     97 204.9   4.4  33902  285.21 0855.41
2009/04/23 07:17:54.2     -40    -81     24     91     95 206.3  15.2  33904  285.26 0855.41
2009/04/23 07:17:54.3     -36    -77     29     86     91 204.9  18.9  33904  285.24 0855.41
2009/04/23 07:17:54.4     -28    -72     39     78     87 201.8  28.2  33906  285.28 0855.41
2009/04/23 07:17:54.5     -27    -64     40     70     80 202.7  32.4  33904  285.24 0855.41
2009/04/23 07:17:54.6     -25    -58     34     64     72 203.6  30.3  33906  285.29 0855.41
2009/04/23 07:17:54.7     -25    -51     42     57     70 206.3  39.7  33904  285.26 0855.41
2009/04/23 07:17:54.8     -18    -47     35     51     61 200.9  38.6  33904  285.24 0855.41
2009/04/23 07:17:54.9      -4    -54     35     55     65 184.4  35.5  33904  285.24 0855.41
2009/04/23 07:17:55.0      -6    -66     46     67     81 185.3  38.0  33904  285.26 0855.42
2009/04/23 07:17:55.1      -9    -67     33     68     75 188.1  27.3  33906  285.29 0855.42
2009/04/23 07:17:55.2     -10    -49     43     51     66 191.6  44.8  33904  285.26 0855.42
2009/04/23 07:17:55.3      -3    -39     49     40     63 184.5  56.4  33902  285.23 0855.42
2009/04/23 07:17:55.4      -7    -46     44     47     64 189.8  48.0  33904  285.24 0855.42
2009/04/23 07:17:55.5      -7    -46     30     47     55 189.8  35.5  33904  285.24 0855.42
2009/04/23 07:17:55.6     -12    -38     25     41     48 198.5  35.5  33904  285.24 0855.42
2009/04/23 07:17:55.7     -15    -26     24     31     39 210.7  43.7  33904  285.26 0855.42
2009/04/23 07:17:55.8      -9    -28     19     30     35 198.7  35.5  33902  285.23 0855.42
2009/04/23 07:17:55.9      -7    -22     24     24     33 198.3  50.1  33902  285.21 0855.42
2009/04/23 07:17:56.0       0    -13     27     14     30 180.9  70.8  33902  285.21 0855.42
2009/04/23 07:17:56.1       8    -14      8     17     18 151.0  23.0  33904  285.24 0855.42
2009/04/23 07:17:56.2      23    -15      0     28     29 122.5   0.8  33902  285.21 0855.42
2009/04/23 07:17:56.3      24     -1      3     25     26  94.4   6.9  33900  285.18 0855.42
2009/04/23 07:17:56.4      10    -16     17     19     25 147.5  47.9  33900  285.18 0855.42
2009/04/23 07:17:56.5      12     -6     26     14     29 118.9  68.8  33904  285.24 0855.42
2009/04/23 07:17:56.6      14    -10     21     18     27 126.0  54.3  33900  285.18 0855.42
2009/04/23 07:17:56.7       5    -34     33     35     48 170.2  50.0  33902  285.21 0855.42
2009/04/23 07:17:56.8     -20    -43     47     48     67 205.4  51.1  33902  285.21 0855.42
2009/04/23 07:17:56.9     -16    -55     52     58     77 196.0  47.9  33902  285.23 0855.42
2009/04/23 07:17:57.0     -37    -40     38     55     66 223.2  37.6  33900  285.19 0855.42
2009/04/23 07:17:57.1     -43    -38     16     58     61 228.7  15.3  33902  285.21 0855.42
2009/04/23 07:17:57.2     -41    -41     18     59     62 225.0  17.3  33900  285.18 0855.42
2009/04/23 07:17:57.3     -44    -37     16     58     61 230.4  15.3  33900  285.19 0855.42
2009/04/23 07:17:57.4     -38    -36     22     53     57 226.9  23.0  33900  285.19 0855.42
2009/04/23 07:17:57.5     -48    -41     22     64     68 229.6  19.4  33904  285.24 0855.42
2009/04/23 07:17:57.6     -69    -57     38     90     97 230.5  24.1  33902  285.21 0855.42
2009/04/23 07:17:57.7     -92    -58     38    109    116 237.6  19.4  33902  285.23 0855.42
2009/04/23 07:17:57.8     -66    -62     17     91     93 226.9  11.1  33902  285.21 0855.42
2009/04/23 07:17:57.9     -44    -38     -1     59     60 228.7  -1.3  33902  285.21 0855.42
2009/04/23 07:17:58.0     -85    -22    -21     88     91 255.4 -13.9  33902  285.23 0855.42
2009/04/23 07:17:58.1     -59     16    -45     62     76 285.0 -44.1  33904  285.24 0855.42
2009/04/23 07:17:58.2     -67     -7    -26     68     72 263.9 -26.4  33902  285.23 0855.42
2009/04/23 07:17:58.3     -68     20     -5     72     73 286.8  -4.1  33900  285.19 0855.42
2009/04/23 07:17:58.4     -57     55     -6     80     81 313.6  -4.6  33904  285.24 0855.42
2009/04/23 07:17:58.5     -65     33    -23     73     77 297.1 -17.6  33904  285.24 0855.42
2009/04/23 07:17:58.6     -66     31     33     74     81 295.2  25.7  33902  285.21 0855.42
2009/04/23 07:17:58.7     -55     29     16     63     66 298.0  14.3  33900  285.19 0855.42
2009/04/23 07:17:58.8     -65      8      8     66     67 277.0   6.9  33900  285.19 0855.42
2009/04/23 07:17:58.9     -62     20     -3     66     67 288.2  -3.1  33902  285.21 0855.42
2009/04/23 07:17:59.0     -69      0     19     70     73 270.0  15.3  33902  285.21 0855.42
2009/04/23 07:17:59.1     -54      0     26     55     60 270.0  27.2  33902  285.23 0855.42
2009/04/23 07:17:59.2     -41    -24     23     48     53 239.3  27.2  33900  285.19 0855.42
2009/04/23 07:17:59.3     -33    -12     28     36     45 250.0  41.7  33900  285.19 0855.42
2009/04/23 07:17:59.4      -2    -37      6     38     39 184.5  10.1  33904  285.24 0855.42
2009/04/23 07:17:59.5       9    -38     42     40     58 166.6  49.1  33902  285.21 0855.42
2009/04/23 07:17:59.6     -16    -68     30     70     76 193.4  24.1  33900  285.19 0855.42
2009/04/23 07:17:59.7     -13    -45     19     48     51 196.9  22.0  33902  285.21 0855.42
2009/04/23 07:17:59.8     -13    -45     19     48     51 196.9  22.0  33902  285.21 0855.42
2009/04/23 07:17:59.9     -10    -46     31     48     57 192.5  35.6  33902  285.23 0855.42
2009/04/23 07:18:00.0      -3    -46     28     47     54 184.5  34.4  33902  285.21 0855.42
2009/04/23 07:18:00.1      -7    -38     37     39     53 191.6  50.0  33902  285.21 0855.42
2009/04/23 07:18:00.2     -27    -30     40     41     57 222.3  51.1  33904  285.24 0855.42
2009/04/23 07:18:00.3     -31    -19     31     37     48 237.6  45.8  33902  285.23 0855.42
2009/04/23 07:18:00.4     -24    -29     11     38     40 219.6  17.3  33902  285.23 0855.42
2009/04/23 07:18:00.5     -15    -19     17     25     30 219.6  37.6  33900  285.18 0855.42
2009/04/23 07:18:00.6     -19    -11     12     23     25 239.3  29.3  33900  285.18 0855.42
2009/04/23 07:18:00.7     -14     -3      4     15     16 254.9  15.3  33900  285.18 0855.42
2009/04/23 07:18:00.8      -6    -10      6     13     14 212.5  23.0  33904  285.24 0855.42
2009/04/23 07:18:00.9       3      0     11      4     11  90.0  81.0  33902  285.21 0855.42
2009/04/23 07:18:01.0      16     10     17     19     25  57.6  47.9  33906  285.28 0855.42
2009/04/23 07:18:01.1      18     10     26     21     33  59.3  56.4  33904  285.24 0855.42
2009/04/23 07:18:01.2      14     10     29     18     34  54.0  64.7  33904  285.26 0855.42
2009/04/23 07:18:01.3      20      7     35     22     41  70.0  64.7  33902  285.23 0855.42
2009/04/23 07:18:01.4      25     16     40     30     50  57.6  58.5  33904  285.24 0855.42
2009/04/23 07:18:01.5      18      0     43     19     47  90.0  75.0  33902  285.23 0855.42
2009/04/23 07:18:01.6      10     10     37     15     39  43.2  76.1  33904  285.26 0855.42
2009/04/23 07:18:01.7      15    -26     42     31     52 149.3  59.4  33904  285.26 0855.42
2009/04/23 07:18:01.8      42    -11     42     44     60 105.1  49.0  33904  285.26 0855.42
2009/04/23 07:18:01.9      66     -4     50     67     83  94.3  40.7  33904  285.26 0855.42
2009/04/23 07:18:02.0      62    -10     46     63     78  99.7  39.7  33904  285.26 0855.42
2009/04/23 07:18:02.1      54    -13     53     56     77 104.2  49.0  33902  285.23 0855.42
2009/04/23 07:18:02.2      55     -2     68     56     88  92.6  56.3  33904  285.24 0855.42
2009/04/23 07:18:02.3      53      0     66     54     85  90.0  56.4  33904  285.24 0855.42
2009/04/23 07:18:02.4      40    -19     51     45     68 115.3  52.2  33904  285.26 0855.42
2009/04/23 07:18:02.5      33     -6     43     34     54 101.5  57.5  33904  285.26 0855.42
2009/04/23 07:18:02.6       0    -21     33     22     39 180.9  63.6  33900  285.19 0855.42
2009/04/23 07:18:02.7     -10    -40     43     42     60 194.3  50.1  33898  285.14 0855.42
2009/04/23 07:18:02.8      11    -35     44     37     57 161.3  56.3  33900  285.19 0855.42
2009/04/23 07:18:02.9     -11    -16     35     20     40 214.3  67.7  33900  285.18 0855.42
2009/04/23 07:18:03.0      -8    -13     44     16     46 212.5  80.2  33900  285.19 0855.41
2009/04/23 07:18:03.1     -24    -23     30     34     45 226.7  46.9  33898  285.16 0855.41
2009/04/23 07:18:03.2     -30    -24     28     39     48 230.5  38.6  33898  285.14 0855.41
2009/04/23 07:18:03.3      -7    -22     24     24     33 198.3  50.1  33902  285.21 0855.41
2009/04/23 07:18:03.4      -8    -13     31     16     34 212.5  70.8  33902  285.23 0855.41
2009/04/23 07:18:03.5      -8    -30     30     32     43 195.1  50.0  33904  285.24 0855.41
2009/04/23 07:18:03.6      -3    -46     42     47     63 184.5  47.9  33902  285.21 0855.41
2009/04/23 07:18:03.7     -25    -75     26     80     85 198.5  18.4  33904  285.24 0855.41
2009/04/23 07:18:03.8     -33    -71     36     79     86 205.3  25.7  33904  285.24 0855.41
2009/04/23 07:18:03.9     -14    -72     54     74     91 191.5  40.1  33904  285.26 0855.41
2009/04/23 07:18:04.0      -8    -84     58     85    102 185.8  37.6  33906  285.28 0855.41
2009/04/23 07:18:04.1     -22   -105     29    108    112 192.0  15.3  33906  285.28 0855.41
2009/04/23 07:18:04.2      -8   -106     33    107    113 184.5  17.3  33902  285.23 0855.41
2009/04/23 07:18:04.3     -12   -118     53    119    130 186.2  25.7  33904  285.24 0855.41
2009/04/23 07:18:04.4       1   -110     53    111    123 179.1  27.2  33902  285.21 0855.41
2009/04/23 07:18:04.5       5   -121     66    122    138 177.3  31.3  33904  285.24 0855.41
2009/04/23 07:18:04.6      -2   -153     57    154    164 180.9  21.0  33902  285.23 0855.41
2009/04/23 07:18:04.7     -32   -132     21    136    138 193.8   9.0  33902  285.23 0855.41
2009/04/23 07:18:04.8      -9   -116     25    117    120 184.9  12.2  33904  285.24 0855.41
2009/04/23 07:18:04.9     -14   -141     22    142    144 185.8   9.0  33904  285.26 0855.41
2009/04/23 07:18:05.0       0   -131     32    132    136 180.4  13.7  33904  285.24 0855.41
2009/04/23 07:18:05.1       6   -127     33    128    133 177.3  14.7  33904  285.24 0855.41
2009/04/23 07:18:05.2      16   -117     23    119    122 172.0  11.0  33902  285.21 0855.41
2009/04/23 07:18:05.3      28   -110     22    114    117 165.3  11.1  33902  285.23 0855.41
2009/04/23 07:18:05.4      19   -108     30    110    115 169.8  15.2  33902  285.23 0855.41
2009/04/23 07:18:05.5       0    -97     23     98    101 180.5  13.7  33904  285.24 0855.41
2009/04/23 07:18:05.6     -27   -107     24    111    114 194.3  12.6  33904  285.24 0855.41
2009/04/23 07:18:05.7     -38   -105     -3    112    113 200.0  -1.8  33904  285.26 0855.41
2009/04/23 07:18:05.8     -13   -131     -5    132    133 185.8  -2.2  33904  285.24 0855.41
2009/04/23 07:18:05.9       4   -115    -14    116    117 177.8  -7.3  33904  285.24 0855.41
2009/04/23 07:18:06.0     -54    -87    -17    103    105 211.6  -9.3  33902  285.23 0855.41
2009/04/23 07:18:06.1     -75    -71      0    104    105 226.9  -0.3  33902  285.23 0855.41
2009/04/23 07:18:06.2     -45    -86    -14     98    100 207.6  -8.2  33904  285.24 0855.41
2009/04/23 07:18:06.3     -70   -127    -29    146    149 208.9 -11.3  33902  285.21 0855.41
2009/04/23 07:18:06.4     -54   -143    -36    154    159 200.9 -13.3  33902  285.23 0855.41
2009/04/23 07:18:06.5     -48   -157    -23    165    167 196.9  -8.0  33902  285.23 0855.41
2009/04/23 07:18:06.6     -27   -157    -40    160    166 190.0 -14.3  33900  285.19 0855.41
2009/04/23 07:18:06.7     -28   -137    -42    140    146 191.6 -21.7  33902  285.21 0855.41
2009/04/23 07:18:06.8     -11    -94     -9     95     96 186.7  -5.6  33900  285.19 0855.41
2009/04/23 07:18:06.9      -3   -122     43    123    131 181.8  19.4  33902  285.21 0855.41
2009/04/23 07:18:07.0       0   -148     45    149    156 180.0  17.1  33902  285.21 0855.41
2009/04/23 07:18:07.1      46   -145     44    153    160 162.2  16.3  33902  285.21 0855.41
2009/04/23 07:18:07.2     -10   -140     17    141    143 184.5   6.9  33902  285.21 0855.41
2009/04/23 07:18:07.3      13   -113      8    114    115 173.3   4.4  33900  285.19 0855.41
2009/04/23 07:18:07.4      62    -98     -4    117    118 147.5  -2.2  33900  285.18 0855.41
2009/04/23 07:18:07.5      63    -85      5    106    107 143.5   2.9  33900  285.19 0855.41
2009/04/23 07:18:07.6      69    -66     49     96    107 134.0  28.2  33900  285.18 0855.41
2009/04/23 07:18:07.7      50    -87     75    101    125 149.7  40.1  33904  285.24 0855.41
2009/04/23 07:18:07.8      52    -82     77     98    124 147.5  41.7  33904  285.26 0855.41
2009/04/23 07:18:07.9      23    -69     61     73     95 161.3  43.8  33904  285.24 0855.41
2009/04/23 07:18:08.0       8    -77     60     78     98 173.8  42.2  33902  285.23 0855.41
2009/04/23 07:18:08.1      10    -82     64     83    104 172.9  41.2  33902  285.21 0855.41
2009/04/23 07:18:08.2      -1    -78     81     79    113 180.9  50.1  33902  285.23 0855.41
2009/04/23 07:18:08.3       2    -87    108     88    139 178.2  56.4  33904  285.24 0855.41
2009/04/23 07:18:08.4      -1   -104     83    105    133 180.9  42.7  33904  285.24 0855.41
2009/04/23 07:18:08.5     -26    -99     96    103    140 195.1  47.9  33904  285.26 0855.41
2009/04/23 07:18:08.6     -28   -102    100    106    145 195.6  48.0  33902  285.21 0855.41
2009/04/23 07:18:08.7     -49    -90     80    103    130 209.0  41.7  33902  285.23 0855.41
2009/04/23 07:18:08.8     -32    -88     75     94    120 200.0  42.7  33902  285.21 0855.41
2009/04/23 07:18:08.9      -6    -87    114     88    144 184.5  58.5  33904  285.26 0855.41
2009/04/23 07:18:09.0      -5    -74     99     75    124 184.5  59.0  33904  285.26 0855.41
2009/04/23 07:18:09.1       0    -92     93     93    131 180.4  50.1  33904  285.24 0855.41
2009/04/23 07:18:09.2     -10    -97     88     98    131 186.2  46.9  33902  285.23 0855.41
2009/04/23 07:18:09.3     -13   -117    120    118    168 186.7  50.1  33904  285.24 0855.41
2009/04/23 07:18:09.4      -8   -101     90    102    136 184.9  45.9  33902  285.21 0855.41
2009/04/23 07:18:09.5      -5    -75     86     76    114 184.4  53.7  33900  285.19 0855.41
2009/04/23 07:18:09.6      -5    -69     88     70    112 184.4  56.4  33904  285.24 0855.41
2009/04/23 07:18:09.7      16     -3     68     17     70 101.5  86.9  33902  285.21 0855.41
2009/04/23 07:18:09.8     -34    -72     76     80    110 205.4  48.5  33902  285.23 0855.41
2009/04/23 07:18:09.9     -19   -109     42    111    118 190.2  21.5  33898  285.16 0855.41
2009/04/23 07:18:10.0      18   -105     74    107    130 170.2  37.6  33900  285.18 0855.41
2009/04/23 07:18:10.1      13   -168     75    169    184 175.3  25.7  33900  285.19 0855.41
2009/04/23 07:18:10.2      -3   -122     70    123    141 181.8  31.9  33902  285.21 0855.41
2009/04/23 07:18:10.3      17    -72     95     75    121 166.6  57.9  33898  285.16 0855.41
2009/04/23 07:18:10.4      22    -39     68     45     81 150.1  63.6  33900  285.19 0855.41
2009/04/23 07:18:10.5       6    -42     54     43     69 171.1  56.4  33902  285.23 0855.41
2009/04/23 07:18:10.6       7    -85     54     86    101 175.1  35.5  33902  285.21 0855.41
2009/04/23 07:18:10.7     -25    -67     55     72     90 200.9  41.7  33902  285.21 0855.41
2009/04/23 07:18:10.8     -43    -59     50     74     89 216.1  37.0  33904  285.26 0855.41
2009/04/23 07:18:10.9      -9    -70     65     71     96 188.0  47.9  33902  285.21 0855.41
2009/04/23 07:18:11.0     -24    -71     73     76    105 199.2  49.4  33902  285.21 0855.41
2009/04/23 07:18:11.1     -16    -61     87     64    108 195.1  60.0  33902  285.21 0855.41
2009/04/23 07:18:11.2       7    -54     69     55     88 172.0  56.4  33902  285.21 0855.41
2009/04/23 07:18:11.3     -38   -126     87    132    158 196.9  36.5  33902  285.21 0855.41
2009/04/23 07:18:11.4      -8   -120     77    121    143 184.0  35.5  33900  285.19 0855.41
2009/04/23 07:18:11.5      15   -105    101    107    147 171.9  48.0  33902  285.23 0855.41
2009/04/23 07:18:11.6      17    -77     85     79    116 167.5  52.1  33902  285.23 0855.41
2009/04/23 07:18:11.7      22    -17     83     29     87 127.8  80.7  33900  285.18 0855.41
2009/04/23 07:18:11.8       2      6     71      7     71  18.3  90.0  33904  285.24 0855.41
2009/04/23 07:18:11.9      40    -40     66     57     87 134.9  54.3  33902  285.23 0855.41
2009/04/23 07:18:12.0      67    -90     97    113    148 143.5  44.8  33900  285.19 0855.40
2009/04/23 07:18:12.1      53    -89     56    104    118 149.3  30.8  33900  285.19 0855.40
2009/04/23 07:18:12.2      78    -78     -3    111    112 135.0  -1.8  33902  285.21 0855.40
2009/04/23 07:18:12.3      67    -95     10    117    118 144.8   4.9  33900  285.18 0855.40
2009/04/23 07:18:12.4      61   -117      8    133    134 152.4   3.8  33900  285.19 0855.40
2009/04/23 07:18:12.6      64   -109    -21    127    129 149.3  -9.8  33902  285.23 0855.40
2009/04/23 07:18:12.7      47   -137    -33    146    150 160.8 -12.9  33900  285.19 0855.40
2009/04/23 07:18:12.8      40   -149      7    155    156 164.9   2.8  33902  285.21 0855.40
2009/04/23 07:18:12.9       5   -160      8    161    162 178.2   2.9  33898  285.16 0855.40
2009/04/23 07:18:13.0       2   -167    -35    168    172 179.1 -11.9  33902  285.21 0855.40
2009/04/23 07:18:13.1      -3   -203    -39    204    208 180.9 -10.9  33900  285.18 0855.40
2009/04/23 07:18:13.2     -16   -207     17    208    209 184.5   4.9  33900  285.19 0855.40
2009/04/23 07:18:13.3       0   -189      7    190    191 180.0   2.1  33902  285.21 0855.40
2009/04/23 07:18:13.4     -15   -183     -3    184    185 184.9  -1.2  33900  285.19 0855.40
2009/04/23 07:18:13.6       0   -156     31    157    161 180.0  11.1  33898  285.16 0855.40
2009/04/23 07:18:13.7       8   -134     54    135    145 176.4  23.0  33902  285.21 0855.40
2009/04/23 07:18:13.8       2   -117     86    118    146 178.6  39.7  33900  285.18 0855.40
2009/04/23 07:18:13.9      30    -90     61     96    113 161.3  35.5  33900  285.18 0855.40
2009/04/23 07:18:14.0      58   -112     34    127    132 152.4  15.2  33900  285.18 0855.40
2009/04/23 07:18:14.1      35   -109      5    115    116 162.2   2.8  33900  285.18 0855.39
2009/04/23 07:18:14.2      16   -122      3    124    125 172.4   1.8  33900  285.18 0855.39
2009/04/23 07:18:14.3       9   -130     29    131    135 176.0  12.6  33900  285.19 0855.39
2009/04/23 07:18:14.4      30   -191     27    194    196 170.9   8.0  33900  285.18 0855.39
2009/04/23 07:18:14.5      34   -203     21    206    208 170.3   5.9  33902  285.23 0855.39
2009/04/23 07:18:14.6      16   -219     34    220    223 175.6   8.8  33898  285.16 0855.39
2009/04/23 07:18:14.7     -23   -204     56    206    214 186.5  15.2  33896  285.13 0855.39
2009/04/23 07:18:14.8     -22   -187     64    189    200 186.7  18.9  33902  285.21 0855.39
2009/04/23 07:18:14.9     -20   -168     65    170    182 186.9  22.0  33898  285.16 0855.39
2009/04/23 07:18:15.0     -50   -210     86    216    232 193.4  23.0  33902  285.21 0855.39
2009/04/23 07:18:15.1     -23   -188     77    190    205 187.1  23.1  33902  285.21 0855.39
2009/04/23 07:18:15.2     -47   -205     51    211    218 193.1  13.7  33900  285.19 0855.39
2009/04/23 07:18:15.3      -4   -180     25    181    183 181.4   8.0  33898  285.14 0855.39
2009/04/23 07:18:15.4     -45   -148     28    155    158 197.0  10.3  33900  285.19 0855.39
2009/04/23 07:18:15.5     -71   -151     41    168    174 205.3  13.9  33900  285.19 0855.39
2009/04/23 07:18:15.6     -27   -150     81    153    173 190.2  30.3  33902  285.21 0855.39
2009/04/23 07:18:15.7      21   -137     74    139    157 171.1  30.1  33902  285.23 0855.39
2009/04/23 07:18:15.8      19   -145     93    147    173 172.4  35.5  33900  285.19 0855.39
2009/04/23 07:18:15.9      12   -126     81    127    150 174.2  35.6  33904  285.24 0855.39
2009/04/23 07:18:16.0      18   -115     65    117    133 171.1  31.4  33904  285.24 0855.39
2009/04/23 07:18:16.1     -19   -108     66    110    128 190.2  34.0  33900  285.18 0855.40
2009/04/23 07:18:16.2      -8   -104     77    105    130 184.5  39.7  33900  285.19 0855.40
2009/04/23 07:18:16.3      21    -99     96    102    140 168.0  48.0  33900  285.18 0855.40
2009/04/23 07:18:16.4     -12   -139    114    140    180 185.3  43.7  33900  285.19 0855.40
2009/04/23 07:18:16.5     -15   -111    128    113    170 188.0  54.3  33902  285.23 0855.40
2009/04/23 07:18:16.6     -11   -101    149    102    180 186.2  62.4  33902  285.21 0855.40
2009/04/23 07:18:16.7     -12      0    126     13    126 265.6  90.0  33902  285.21 0855.40
2009/04/23 07:18:16.8      29      1     78     30     83  87.4  78.6  33900  285.19 0855.40
2009/04/23 07:18:16.9      76    -67    104    102    145 131.3  50.1  33896  285.13 0855.40
2009/04/23 07:18:17.0      18   -104    148    106    182 170.2  60.8  33900  285.18 0855.40
2009/04/23 07:18:17.1      35     -2     72     36     80  94.4  71.4  33898  285.14 0855.40
2009/04/23 07:18:17.2     127     98     87    161    183  52.2  31.0  33896  285.13 0855.40
2009/04/23 07:18:17.3     155    -57     75    166    182 110.2  25.9  33898  285.16 0855.40
2009/04/23 07:18:17.4     137     18     49    139    148  82.5  19.4  33896  285.13 0855.40
2009/04/23 07:18:17.5      90    -30     96     95    135 108.6  49.7  33898  285.16 0855.40
2009/04/23 07:18:17.6      74    -79     95    109    144 136.8  45.8  33900  285.19 0855.40
2009/04/23 07:18:17.7     120    -65    102    137    170 118.8  40.4  33902  285.21 0855.40
2009/04/23 07:18:17.8      92    -32     88     98    131 109.5  46.9  33902  285.23 0855.40
2009/04/23 07:18:17.9      66    -57     81     88    119 130.9  47.9  33902  285.23 0855.40
2009/04/23 07:18:18.0     141    -38    123    147    191 105.1  44.1  33904  285.24 0855.40
2009/04/23 07:18:18.1     158    -42     78    164    181 105.1  27.2  33900  285.19 0855.40
2009/04/23 07:18:18.2     147    -20     98    149    178  97.9  36.3  33898  285.16 0855.40
2009/04/23 07:18:18.3     104    -40     65    112    129 111.3  32.9  33900  285.19 0855.40
2009/04/23 07:18:18.4      76    -76     52    108    119 134.9  27.3  33900  285.19 0855.40
2009/04/23 07:18:18.5      82    -60     44    102    111 126.4  25.1  33900  285.19 0855.40
2009/04/23 07:18:18.6      99    -59     33    116    121 120.7  16.3  33898  285.16 0855.40
2009/04/23 07:18:18.7      83    -64     33    105    111 127.8  17.3  33898  285.16 0855.40
2009/04/23 07:18:18.8      99    -20     23    101    104 101.5  13.2  33902  285.21 0855.40
2009/04/23 07:18:18.9     104     -3     29    105    110  91.7  15.8  33900  285.19 0855.40
2009/04/23 07:18:19.0     100    -12     16    101    103  97.0   9.5  33902  285.21 0855.40
2009/04/23 07:18:19.1      97    -11     19     98    100  96.6  11.1  33900  285.19 0855.40
2009/04/23 07:18:19.2      66    -21     40     70     80 108.2  32.4  33900  285.19 0855.40
2009/04/23 07:18:19.3      56    -47     54     74     91 129.6  40.1  33902  285.23 0855.40
2009/04/23 07:18:19.4      40    -27     64     49     80 124.2  59.0  33902  285.21 0855.40
2009/04/23 07:18:19.5      -1    -19     72     20     74 184.5  83.9  33900  285.19 0855.40
2009/04/23 07:18:19.6      41     41     50     58     76  45.0  44.8  33904  285.24 0855.40
2009/04/23 07:18:19.7      68     -5     52     69     86  94.4  40.7  33904  285.24 0855.40
2009/04/23 07:18:19.8      62      0     61     63     87  90.0  50.0  33900  285.18 0855.40
2009/04/23 07:18:19.9       7    -23     55     25     60 161.5  73.1  33902  285.21 0855.40
2009/04/23 07:18:20.0       4    -57     53     58     78 175.5  47.9  33902  285.21 0855.40
2009/04/23 07:18:20.1     -35    -81     23     89     93 203.6  14.7  33900  285.19 0855.39
2009/04/23 07:18:20.2       6    -21    -23     23     32 163.1 -54.5  33902  285.21 0855.39
2009/04/23 07:18:20.3      49      0      0     50     51  90.0  -0.3  33902  285.21 0855.39
2009/04/23 07:18:20.4      81    -44     66     93    114 118.9  38.6  33900  285.18 0855.39
2009/04/23 07:18:20.5     103    -57    103    118    156 118.9  45.8  33904  285.26 0855.39
2009/04/23 07:18:20.6      54     10     70     55     89  79.4  57.5  33900  285.19 0855.39
2009/04/23 07:18:20.7      14     -6     32     16     35 115.3  72.8  33900  285.19 0855.39
2009/04/23 07:18:20.8     -30     -2     47     31     56 265.7  64.6  33902  285.23 0855.39
2009/04/23 07:18:20.9     -57     15     42     60     73 285.1  39.5  33902  285.21 0855.39
2009/04/23 07:18:21.0     -41      8     40     42     58 281.5  51.1  33904  285.24 0855.39
2009/04/23 07:18:21.1      -4    -13     41     14     43 198.7  81.0  33902  285.21 0855.39
2009/04/23 07:18:21.2      14     22     65     27     70  32.5  76.1  33902  285.23 0855.39
2009/04/23 07:18:21.3      78    -10     65     79    102  97.9  43.8  33904  285.26 0855.39
2009/04/23 07:18:21.4      97     -7     91     98    133  94.3  47.9  33902  285.23 0855.39
2009/04/23 07:18:21.5     120    -18    136    122    182  98.8  53.3  33902  285.23 0855.39
2009/04/23 07:18:21.6     118      8    140    119    183  85.7  55.6  33900  285.19 0855.39
2009/04/23 07:18:21.7     120     18     84    122    148  81.2  37.6  33900  285.19 0855.39
2009/04/23 07:18:21.8      99    -63     70    118    137 122.4  33.5  33900  285.19 0855.39
2009/04/23 07:18:21.9      42    -60    125     74    145 144.8  66.8  33900  285.18 0855.39
2009/04/23 07:18:22.0      92    -53    106    107    150 120.2  50.0  33900  285.19 0855.39
2009/04/23 07:18:22.1     -10      0    106     11    106 274.4  90.0  33900  285.19 0855.39
2009/04/23 07:18:22.2    -105     22     42    108    115 281.9  22.5  33902  285.21 0855.39
2009/04/23 07:18:22.3    -102     15     -6    104    105 278.4  -3.7  33902  285.21 0855.39
2009/04/23 07:18:22.4     -27    -18     21     33     39 235.8  35.5  33900  285.18 0855.39
2009/04/23 07:18:22.5      -4    -54     63     55     83 184.4  53.7  33902  285.23 0855.39
2009/04/23 07:18:22.6     -13    -47     47     49     67 196.0  50.0  33902  285.21 0855.39
2009/04/23 07:18:22.7     -23    -48     38     54     66 205.3  38.6  33900  285.19 0855.39
2009/04/23 07:18:22.8     -41    -31     21     52     56 233.1  22.0  33902  285.21 0855.39
2009/04/23 07:18:22.9     -76    -25     12     81     82 251.8   8.5  33900  285.18 0855.39
2009/04/23 07:18:23.0     -67    -26      4     73     74 248.3   3.8  33900  285.18 0855.39
2009/04/23 07:18:23.1     -78    -23     -3     82     83 253.6  -2.6  33900  285.19 0855.39
2009/04/23 07:18:23.2     -58    -17      0     61     62 253.2  -0.3  33900  285.19 0855.39
2009/04/23 07:18:23.3     -41     -7    -14     42     45 260.3 -18.7  33902  285.21 0855.39
2009/04/23 07:18:23.4     -33     11    -19     35     39 288.6 -35.8  33902  285.21 0855.39
2009/04/23 07:18:23.5      -1     18    -34     19     38 355.5 -73.2  33900  285.19 0855.39
2009/04/23 07:18:23.6       6     35    -40     36     53   9.8 -56.6  33900  285.18 0855.39
2009/04/23 07:18:23.7      10     30    -24     32     40  18.5 -45.1  33898  285.14 0855.39
2009/04/23 07:18:23.8      23     18     -9     30     32  52.2 -17.6  33900  285.19 0855.39
2009/04/23 07:18:23.9      42     -5      9     43     44  97.0  12.2  33902  285.21 0855.39
2009/04/23 07:18:24.0      46      1     31     47     56  88.3  35.6  33902  285.21 0855.39
2009/04/23 07:18:24.1      40     -6     40     41     57  98.8  51.1  33904  285.24 0855.40
2009/04/23 07:18:24.2      27     -9     43     29     51 110.0  62.6  33900  285.19 0855.40
2009/04/23 07:18:24.3      41     -7     52     42     66 100.6  56.4  33902  285.23 0855.40
2009/04/23 07:18:24.4       3      0     50      4     50  90.0  90.0  33902  285.21 0855.40
2009/04/23 07:18:24.5       0    -38     19     39     43 180.9  27.2  33902  285.21 0855.40
2009/04/23 07:18:24.6       0    -25     15     26     30 179.1  33.5  33902  285.21 0855.40
2009/04/23 07:18:24.7      26    -27     25     38     45 136.8  35.6  33902  285.23 0855.40
2009/04/23 07:18:24.8      30    -27     27     41     49 131.3  36.5  33902  285.21 0855.40
2009/04/23 07:18:24.9      34    -27     12     44     46 128.6  15.3  33900  285.18 0855.40
2009/04/23 07:18:25.0      18     -5     11     19     21 108.2  33.5  33902  285.21 0855.40
2009/04/23 07:18:25.1      13    -12     -8     18     19 133.3 -27.4  33900  285.19 0855.40
2009/04/23 07:18:25.2       6     -7    -16     10     18 136.8 -69.1  33900  285.18 0855.40
2009/04/23 07:18:25.3      19     26    -13     33     35  36.1 -25.4  33900  285.19 0855.40
2009/04/23 07:18:25.4      83     24    -20     87     90  73.6 -12.9  33898  285.14 0855.40
2009/04/23 07:18:25.5      89     44     28    100    104  63.4  15.8  33898  285.16 0855.40
2009/04/23 07:18:25.6      85     22     37     88     95  75.4  24.1  33898  285.16 0855.40
2009/04/23 07:18:25.7      33      5     47     34     58  80.3  60.5  33898  285.14 0855.40
2009/04/23 07:18:25.8      -8     -5     51     10     51 237.6  89.1  33900  285.19 0855.40
2009/04/23 07:18:25.9     -29    -33     51     45     68 221.4  52.2  33898  285.16 0855.40
2009/04/23 07:18:26.0     -21    -67     40     71     81 197.8  31.9  33900  285.19 0855.40
2009/04/23 07:18:26.1     -14    -72     30     74     79 191.6  23.6  33900  285.18 0855.40
2009/04/23 07:18:26.2     -21    -56     -9     60     61 200.9  -9.3  33902  285.23 0855.40
2009/04/23 07:18:26.3      30    -75    -24     81     84 158.2 -21.7  33908  285.31 0855.40
2009/04/23 07:18:26.4      -1    -81    -56     82     99 181.4 -42.4  33926  285.63 0855.40
2009/04/23 07:18:26.5      -1    -39    -47     40     61 182.6 -59.8  33920  285.53 0855.40
2009/04/23 07:18:26.6     -23    -42    -13     49     51 209.0 -15.4  33914  285.41 0855.40
2009/04/23 07:18:26.7     -35    -39     -2     53     54 222.3  -2.2  33910  285.36 0855.40
2009/04/23 07:18:26.8     -44     -6     -1     45     46 262.1  -1.3  33910  285.36 0855.40
2009/04/23 07:18:26.9     -47     36      9     60     61 307.8   9.0  33916  285.44 0855.40
2009/04/23 07:18:27.0       2     68     37     69     78   1.8  30.3  33910  285.36 0855.40
2009/04/23 07:18:27.1       4     52     46     53     70   4.5  44.8  33910  285.36 0855.41
2009/04/23 07:18:27.2      18     10     26     21     33  59.3  56.4  33906  285.29 0855.41
2009/04/23 07:18:27.3       0     15     33     16     36 357.3  72.9  33908  285.31 0855.41
2009/04/23 07:18:27.4       1    -16     35     17     38 175.6  72.9  33906  285.29 0855.41
2009/04/23 07:18:27.5      35      0     21     36     41  90.0  32.4  33902  285.23 0855.41
2009/04/23 07:18:27.6      42     17     54     46     70  67.4  56.3  33902  285.21 0855.41
2009/04/23 07:18:27.7      47     29     81     56     98  58.5  62.6  33900  285.19 0855.41
2009/04/23 07:18:27.8      21     39     74     45     86  29.0  65.7  33904  285.24 0855.41
2009/04/23 07:18:27.9       7     36     55     37     66  11.6  63.6  33900  285.19 0855.41
2009/04/23 07:18:28.0      27      2     41     28     49  85.6  62.6  33904  285.26 0855.41
2009/04/23 07:18:28.1       8    -26     39     28     48 161.3  61.5  33906  285.28 0855.41
2009/04/23 07:18:28.2      35    -35     55     50     74 134.9  52.2  33906  285.28 0855.41
2009/04/23 07:18:28.3      64    -98     83    118    144 147.0  38.6  33906  285.29 0855.41
2009/04/23 07:18:28.4      58    -89     42    107    114 147.0  22.0  33904  285.26 0855.41
2009/04/23 07:18:28.5      73    -46     67     87    109 122.0  41.7  33906  285.29 0855.41
2009/04/23 07:18:28.6      62    -34     71     71    100 118.9  50.1  33906  285.28 0855.41
2009/04/23 07:18:28.7      28    -50     20     58     62 150.1  18.9  33908  285.31 0855.41
2009/04/23 07:18:28.8      21    -56     28     60     66 159.1  27.1  33908  285.31 0855.41
2009/04/23 07:18:28.9       1    -78     59     79     98 179.1  40.1  33906  285.29 0855.41
2009/04/23 07:18:29.0     -11    -98     61     99    116 186.7  35.5  33908  285.33 0855.41
2009/04/23 07:18:29.1       4    -96     72     97    120 177.3  40.1  33908  285.31 0855.41
2009/04/23 07:18:29.2      18    -95     64     97    116 169.3  35.6  33908  285.33 0855.41
2009/04/23 07:18:29.3      27   -118     53    122    133 167.1  25.1  33906  285.29 0855.41
2009/04/23 07:18:29.4      39    -89     72     98    121 156.4  40.1  33908  285.33 0855.41
2009/04/23 07:18:29.5      15    -91     61     93    111 170.7  36.0  33906  285.29 0855.41
2009/04/23 07:18:29.6      36   -111     71    117    136 161.7  34.4  33910  285.34 0855.41
2009/04/23 07:18:29.7      16   -110     39    112    119 171.5  19.2  33908  285.31 0855.41
2009/04/23 07:18:29.8      31   -120     38    125    131 165.3  17.3  33908  285.33 0855.41
2009/04/23 07:18:29.9      36    -77     55     86    102 155.1  35.5  33908  285.31 0855.41
2009/04/23 07:18:30.0      45    -95     43    106    114 154.7  23.0  33914  285.41 0855.41
2009/04/23 07:18:30.1      82    -82     44    116    124 135.0  21.0  33910  285.34 0855.41
2009/04/23 07:18:30.2     103    -80     35    131    136 127.7  15.3  33908  285.31 0855.41
2009/04/23 07:18:30.3      73    -87     29    114    118 139.9  14.7  33906  285.28 0855.41
2009/04/23 07:18:30.4      45   -133     37    141    146 161.3  14.7  33910  285.34 0855.41
2009/04/23 07:18:30.5      11   -144     21    145    147 175.6   8.5  33906  285.29 0855.41
2009/04/23 07:18:30.6       6   -137     32    138    142 177.4  13.1  33910  285.34 0855.41
2009/04/23 07:18:30.7      45   -129     48    137    146 160.4  19.4  33912  285.39 0855.41
2009/04/23 07:18:30.8      61   -113     45    129    137 151.5  19.4  33910  285.34 0855.41
2009/04/23 07:18:30.9      77   -128     55    150    159 148.8  20.7  33912  285.38 0855.41
2009/04/23 07:18:31.0      66   -139     57    154    164 154.5  21.0  33910  285.34 0855.41
2009/04/23 07:18:31.1      44   -131     49    139    147 161.3  20.0  33910  285.34 0855.42
2009/04/23 07:18:31.2      57    -37     60     69     91 123.3  45.4  33910  285.36 0855.42
2009/04/23 07:18:31.3      48    -40     81     63    102 129.5  57.9  33910  285.34 0855.42
2009/04/23 07:18:31.4      42    -66    101     79    128 147.5  57.9  33910  285.34 0855.42
2009/04/23 07:18:31.5      19     10     74     22     77  62.9  81.8  33914  285.41 0855.42
2009/04/23 07:18:31.6      -4     45     79     46     91 353.8  67.2  33914  285.43 0855.42
2009/04/23 07:18:31.7     -10      6     73     13     74 302.4  90.0  33916  285.46 0855.42
2009/04/23 07:18:31.8       5     10     39     12     40  25.4  82.8  33918  285.50 0855.42
2009/04/23 07:18:31.9      17      5     51     18     54  71.8  81.2  33920  285.53 0855.42
2009/04/23 07:18:32.0      23    -61     66     66     93 159.1  50.1  33920  285.53 0855.42
2009/04/23 07:18:32.2      -1    -76    100     77    126 180.9  58.5  33918  285.48 0855.42
2009/04/23 07:18:32.3       5    -73     86     74    113 175.5  54.8  33916  285.46 0855.42
2009/04/23 07:18:32.4     -29   -104    106    108    151 195.6  50.0  33916  285.44 0855.42
2009/04/23 07:18:32.5     -33   -123     92    128    157 195.1  39.3  33916  285.46 0855.42
2009/04/23 07:18:32.6     -67   -141     51    157    166 205.6  18.1  33918  285.48 0855.42
2009/04/23 07:18:32.7     -32    -99     36    105    112 198.3  18.9  33916  285.46 0855.42
2009/04/23 07:18:32.8     -53    -83     25     99    103 212.6  14.3  33916  285.44 0855.42
2009/04/23 07:18:32.9     -65    -81     20    105    108 218.7  11.1  33918  285.50 0855.42
2009/04/23 07:18:33.0     -57    -85     13    103    104 213.8   7.5  33916  285.46 0855.42
2009/04/23 07:18:33.1     -98   -101    -11    141    142 224.1  -4.6  33916  285.46 0855.42
2009/04/23 07:18:33.2     -73   -102    -43    126    133 215.6 -23.3  33916  285.44 0855.42
2009/04/23 07:18:33.3     -25   -134     21    137    139 190.7   9.0  33916  285.46 0855.42
2009/04/23 07:18:33.4     -73   -132      7    151    152 209.0   2.8  33916  285.46 0855.42
2009/04/23 07:18:33.5     -85   -115    -15    144    145 216.5  -6.2  33916  285.44 0855.42
2009/04/23 07:18:33.6     -14   -121    -37    122    127 186.7 -21.8  33914  285.43 0855.42
2009/04/23 07:18:33.7      32    -87    -29     93     97 159.5 -23.3  33916  285.46 0855.42
2009/04/23 07:18:33.8      42    -65    -15     78     80 147.4 -10.9  33914  285.43 0855.42
2009/04/23 07:18:33.9       1    -72      3     73     74 179.0   2.9  33916  285.44 0855.42
2009/04/23 07:18:34.0     -33   -125     -7    130    131 195.1  -3.2  33916  285.44 0855.42
2009/04/23 07:18:34.1     -30    -90     90     96    131 198.7  48.0  33914  285.43 0855.42
2009/04/23 07:18:34.2      56    -21     80     60    100 110.8  59.4  33916  285.44 0855.42
2009/04/23 07:18:34.3      49    -85     94     99    136 150.1  49.0  33918  285.48 0855.42
2009/04/23 07:18:34.4      10    -74     70     75    102 172.0  48.0  33918  285.48 0855.42
2009/04/23 07:18:34.5      36    -41     86     55    102 138.6  64.7  33914  285.43 0855.42
2009/04/23 07:18:34.6      19     -4     57     20     60 103.3  81.2  33916  285.44 0855.42
2009/04/23 07:18:34.7       1     17     50     18     53   4.5  81.2  33920  285.51 0855.42
2009/04/23 07:18:34.8      11     36     61     38     71  18.3  64.7  33918  285.50 0855.42
2009/04/23 07:18:34.9       0     11     42     12     43 357.3  82.8  33916  285.46 0855.42
2009/04/23 07:18:35.0       6    -33     65     34     73 168.5  70.8  33916  285.44 0855.42
2009/04/23 07:18:35.1      27      2     49     28     56  85.6  66.8  33916  285.46 0855.42
2009/04/23 07:18:35.2      -9    -28     82     30     87 198.7  79.7  33914  285.43 0855.42
2009/04/23 07:18:35.3     -21    -64     85     68    108 198.3  56.4  33916  285.44 0855.42
2009/04/23 07:18:35.4      -3    -49     91     50    103 183.6  68.8  33914  285.43 0855.42
2009/04/23 07:18:35.5     -34    -41     86     54    101 219.6  64.7  33914  285.43 0855.42
2009/04/23 07:18:35.6     -67    -55     84     87    120 230.5  49.0  33916  285.44 0855.42
2009/04/23 07:18:35.7    -104    -78     71    131    149 233.1  31.3  33918  285.50 0855.42
2009/04/23 07:18:35.8    -108    -96     57    145    155 228.2  22.5  33916  285.44 0855.42
2009/04/23 07:18:35.9     -97   -104     44    143    150 223.2  17.4  33918  285.50 0855.42
2009/04/23 07:18:36.0     -93   -101     57    138    149 222.8  23.1  33914  285.43 0855.42
2009/04/23 07:18:36.1     -99    -63      6    118    119 237.6   2.9  33918  285.50 0855.42
2009/04/23 07:18:36.2     -94    -30     35     99    106 251.8  19.4  33914  285.41 0855.42
2009/04/23 07:18:36.3    -102    -67     64    123    138 236.7  29.3  33912  285.38 0855.42
2009/04/23 07:18:36.4     -40   -123    110    130    170 198.3  44.5  33916  285.46 0855.42
2009/04/23 07:18:36.5     -69   -154     74    169    184 204.1  25.1  33918  285.50 0855.42
2009/04/23 07:18:36.6     -75   -124     54    146    155 211.2  21.0  33920  285.53 0855.42
2009/04/23 07:18:36.7     -73   -117     27    139    142 212.1  11.1  33920  285.51 0855.42
2009/04/23 07:18:36.8     -36    -87     38     95    102 202.7  23.0  33920  285.53 0855.42
2009/04/23 07:18:36.9     -66    -87      0    110    111 217.0  -0.3  33918  285.48 0855.42
2009/04/23 07:18:37.0     -92    -79    -37    122    128 229.6 -17.0  33916  285.46 0855.42
2009/04/23 07:18:37.1    -100    -57    -26    116    120 240.2 -12.9  33916  285.46 0855.41
2009/04/23 07:18:37.2    -107    -70    -26    129    132 236.7 -11.5  33918  285.48 0855.41
2009/04/23 07:18:37.3    -141    -47    -52    149    159 251.4 -19.4  33918  285.48 0855.41
2009/04/23 07:18:37.4    -129    -35    -12    134    135 254.9  -5.2  33918  285.48 0855.41
2009/04/23 07:18:37.5    -170    -59    -26    181    183 250.7  -8.2  33914  285.43 0855.41
2009/04/23 07:18:37.6    -135     20    -44    137    145 278.8 -18.1  33916  285.46 0855.41
2009/04/23 07:18:37.7    -136    -10    -43    137    143 265.6 -22.8  33914  285.43 0855.41
2009/04/23 07:18:37.8    -217     49    -12    223    224 282.8  -3.2  33918  285.50 0855.41
2009/04/23 07:18:37.9    -181    -13    -19    182    184 265.6  -6.0  33918  285.48 0855.41
2009/04/23 07:18:38.0    -118    -11     -6    119    120 264.3  -3.1  33916  285.44 0855.41
2009/04/23 07:18:38.1     -93     62    -41    112    119 303.7 -25.3  33916  285.46 0855.41
2009/04/23 07:18:38.2     -58     22    -77     63     99 290.8 -60.8  33916  285.46 0855.41
2009/04/23 07:18:38.3     -35     22    -48     42     63 302.4 -57.7  33916  285.44 0855.41
2009/04/23 07:18:38.4     -64     43    -29     78     83 304.2 -25.4  33916  285.46 0855.41
2009/04/23 07:18:38.5    -118     -8    -12    119    120 266.1  -6.2  33916  285.44 0855.41
2009/04/23 07:18:38.6    -206     28    -27    208    210 277.9  -7.5  33910  285.34 0855.41
2009/04/23 07:18:38.8    -191     27    -42    193    198 278.1 -12.4  33914  285.41 0855.41
2009/04/23 07:18:38.9    -159      8    -49    160    167 273.0 -22.1  33912  285.39 0855.41
2009/04/23 07:18:39.0    -168     71      8    183    184 292.8   2.8  33914  285.41 0855.41
2009/04/23 07:18:39.1    -139     68     -1    155    156 296.2  -0.5  33916  285.46 0855.41
2009/04/23 07:18:39.2    -131     83     -6    156    157 302.5  -2.3  33918  285.48 0855.41
2009/04/23 07:18:39.3    -120     90     -8    151    152 306.9  -3.1  33914  285.41 0855.41
2009/04/23 07:18:39.4    -110    104     30    152    156 313.6  11.4  33910  285.36 0855.41
2009/04/23 07:18:39.5    -115    134     60    177    188 319.5  18.9  33904  285.26 0855.41
2009/04/23 07:18:39.6    -134    122      9    182    183 312.4   2.9  33904  285.26 0855.41
2009/04/23 07:18:39.7    -140    111      2    179    180 308.4   0.8  33906  285.28 0855.41
2009/04/23 07:18:39.8    -111    117     33    162    166 316.6  11.6  33904  285.26 0855.41
2009/04/23 07:18:39.9     -84     75     71    113    133 311.8  35.5  33908  285.33 0855.41
2009/04/23 07:18:40.0     -91     86     43    126    134 313.2  18.9  33912  285.39 0855.41
2009/04/23 07:18:40.1    -102     48     60    113    127 295.4  29.8  33916  285.46 0855.41
2009/04/23 07:18:40.2     -78    -15     68     80    104 258.6  44.8  33914  285.41 0855.41
2009/04/23 07:18:40.3     -84      0     55     85    101 270.0  36.0  33914  285.43 0855.41
2009/04/23 07:18:40.4    -105     -9     46    106    115 264.8  25.1  33914  285.41 0855.41
2009/04/23 07:18:40.5    -138    -12     17    139    141 264.8   7.1  33908  285.33 0855.41
2009/04/23 07:18:40.6    -137     12     19    138    140 275.2   8.0  33910  285.34 0855.41
2009/04/23 07:18:40.7    -142     14     64    143    156 275.7  25.7  33906  285.28 0855.41
2009/04/23 07:18:40.8    -194     31    -12    197    198 279.2  -3.7  33906  285.29 0855.41
2009/04/23 07:18:40.9    -215     47    -16    221    222 282.4  -4.4  33906  285.29 0855.41
2009/04/23 07:18:41.0    -204     -2     21    205    207 269.4   6.1  33900  285.18 0855.41
2009/04/23 07:18:41.1    -215     11      7    216    217 273.0   2.1  33900  285.18 0855.41
2009/04/23 07:18:41.2    -177    -11      3    178    179 266.3   1.0  33900  285.19 0855.41
2009/04/23 07:18:41.3    -207      0     -8    208    209 269.9  -2.2  33904  285.26 0855.41
2009/04/23 07:18:41.4    -223    -10    -35    224    227 267.4  -9.0  33904  285.24 0855.41
2009/04/23 07:18:41.5    -216    -30    -66    219    229 262.1 -16.8  33904  285.24 0855.41
2009/04/23 07:18:41.6    -211    -24    -48    213    219 263.4 -12.9  33904  285.24 0855.41
2009/04/23 07:18:41.7    -233     -3    -30    234    236 269.1  -7.5  33902  285.20 0855.41
2009/04/23 07:18:41.8    -237     12    -17    238    239 273.0  -4.1  33906  285.27 0855.41
2009/04/23 07:18:41.9    -228      9    -55    229    236 272.5 -13.7  33908  285.32 0855.41
2009/04/23 07:18:42.0    -233    -36     -5    236    237 261.2  -1.3  33908  285.30 0855.41
2009/04/23 07:18:42.1    -182    -60    -41    192    197 251.6 -12.2  33912  285.39 0855.41
2009/04/23 07:18:42.2    -174    -44      5    180    181 255.6   1.8  33906  285.29 0855.41
2009/04/23 07:18:42.3    -188    -45     -2    194    195 256.3  -0.7  33906  285.29 0855.41
2009/04/23 07:18:42.4    -196    -96    -21    219    221 243.8  -5.6  33910  285.36 0855.41
2009/04/23 07:18:42.5    -161   -126    -67    205    216 232.0 -18.3  33908  285.31 0855.41
2009/04/23 07:18:42.6    -102    -93    -38    139    145 227.8 -15.4  33910  285.36 0855.41
2009/04/23 07:18:42.7     -58    -84    -58    103    118 214.7 -35.8  33912  285.38 0855.41
2009/04/23 07:18:42.8     -48   -102    -23    113    116 205.5 -11.5  33908  285.31 0855.41
2009/04/23 07:18:42.9     -69    -55    -26     89     93 231.4 -16.6  33908  285.31 0855.41
2009/04/23 07:18:43.0     -71    -47    -31     86     91 236.7 -24.4  33908  285.33 0855.41
2009/04/23 07:18:43.1     -70    -38    -23     80     83 241.1 -20.7  33908  285.31 0855.41
2009/04/23 07:18:43.2     -72    -10    -19     73     76 262.1 -14.5  33908  285.33 0855.41
2009/04/23 07:18:43.3    -135     10     -7    136    137 274.4  -3.1  33918  285.48 0855.41
2009/04/23 07:18:43.4    -148     11     -3    149    150 274.4  -1.3  33914  285.41 0855.41
2009/04/23 07:18:43.5    -136     10     25    137    140 274.3  10.6  33918  285.50 0855.41
2009/04/23 07:18:43.6    -134     31    -12    138    139 283.3  -5.2  33916  285.46 0855.41
2009/04/23 07:18:43.7    -104    -12     15    105    107 263.4   8.5  33916  285.46 0855.41
2009/04/23 07:18:43.8    -148    -12     45    149    156 265.2  16.8  33910  285.36 0855.41
2009/04/23 07:18:43.9    -180    -75     75    196    209 247.4  21.7  33910  285.36 0855.41
2009/04/23 07:18:44.0    -163    -20    110    165    198 263.0  37.0  33914  285.41 0855.41
2009/04/23 07:18:44.1    -176     25     14    178    179 278.1   4.6  33916  285.44 0855.41
2009/04/23 07:18:44.2    -137     10     12    138    139 274.4   5.0  33914  285.43 0855.41
2009/04/23 07:18:44.3    -104     21     37    107    114 281.4  19.4  33910  285.36 0855.41
2009/04/23 07:18:44.4    -110     26     13    114    115 283.7   6.9  33904  285.26 0855.41
2009/04/23 07:18:44.5    -119      3    -21    120    122 271.7 -10.3  33910  285.34 0855.41
2009/04/23 07:18:44.6    -118      0     -2    119    120 270.0  -1.2  33912  285.39 0855.41
2009/04/23 07:18:44.7    -131    -30     21    135    137 256.7   8.9  33912  285.39 0855.41
2009/04/23 07:18:44.8    -104    -78     51    131    140 233.1  23.0  33914  285.43 0855.41
2009/04/23 07:18:44.9     -39    -94     79    103    129 202.7  41.7  33916  285.44 0855.41
2009/04/23 07:18:45.0     -67   -105     61    125    139 212.6  27.8  33918  285.50 0855.41
2009/04/23 07:18:45.1    -102   -102     69    145    160 225.0  27.2  33920  285.53 0855.41
2009/04/23 07:18:45.2    -131    -67     47    148    156 243.0  17.7  33916  285.46 0855.40
2009/04/23 07:18:45.3     -85    -27     29     90     95 252.3  17.9  33908  285.31 0855.40
2009/04/23 07:18:45.4     -85      3     58     86    103 272.6  37.0  33910  285.34 0855.40
2009/04/23 07:18:45.5     -41    -41     42     59     72 225.0  39.5  33912  285.38 0855.40
2009/04/23 07:18:45.6     -16    -80     15     82     84 191.6  10.6  33918  285.50 0855.40
2009/04/23 07:18:45.7     -40    -94      4    103    104 203.2   2.3  33920  285.53 0855.40
2009/04/23 07:18:45.8     -49   -102      0    114    115 205.9  -0.3  33922  285.55 0855.40
2009/04/23 07:18:45.9     -60    -95     32    113    118 212.5  15.8  33924  285.58 0855.40
2009/04/23 07:18:46.0     -66   -112     25    131    134 210.7  11.1  33924  285.58 0855.40
2009/04/23 07:18:46.1     -71   -126     17    145    147 209.4   6.9  33922  285.55 0855.40
2009/04/23 07:18:46.2     -37    -60     59     71     92 211.6  43.8  33922  285.55 0855.40
2009/04/23 07:18:46.3     -48    -33     69     59     90 235.8  55.4  33912  285.38 0855.40
2009/04/23 07:18:46.4     -18    -17     60     26     65 226.9  75.0  33914  285.41 0855.40
2009/04/23 07:18:46.5     -15     17     38     24     44 318.6  64.7  33914  285.43 0855.40
2009/04/23 07:18:46.6     -11     33      1     35     36 341.3   2.8  33914  285.41 0855.40
2009/04/23 07:18:46.7      -7      4     -5      9     10 302.4 -35.8  33914  285.43 0855.40
2009/04/23 07:18:46.8     -35      2    -32     36     48 274.4 -52.3  33918  285.50 0855.40
2009/04/23 07:18:46.9     -63     10    -26     64     69 279.7 -27.4  33918  285.50 0855.40
2009/04/23 07:18:47.0     -84     19    -48     87     99 282.8 -35.8  33922  285.55 0855.40
2009/04/23 07:18:47.1     -68     41    -37     80     88 301.5 -30.6  33922  285.56 0855.40
2009/04/23 07:18:47.2     -44     76    -11     89     90 329.7  -7.3  33918  285.48 0855.40
2009/04/23 07:18:47.3     -38     86     32     95    101 335.9  18.9  33918  285.50 0855.40
2009/04/23 07:18:47.4     -76     81     41    112    119 316.8  20.9  33916  285.46 0855.40
2009/04/23 07:18:47.5     -50     89    -21    103    106 330.6 -11.5  33918  285.50 0855.40
2009/04/23 07:18:47.6     -52     69    -26     87     91 322.6 -16.6  33918  285.48 0855.40
2009/04/23 07:18:47.7     -49     73    -19     89     92 326.2 -12.4  33918  285.50 0855.40
2009/04/23 07:18:47.8     -77     25     28     82     87 288.2  19.2  33918  285.50 0855.40
2009/04/23 07:18:47.9     -49     16     17     52     55 289.1  18.9  33914  285.43 0855.40
2009/04/23 07:18:48.0     -31     12     12     34     37 291.7  19.4  33916  285.46 0855.40
2009/04/23 07:18:48.1      -3    -38     15     39     41 184.5  22.0  33918  285.48 0855.40
2009/04/23 07:18:48.2       0    -57     21     58     61 179.1  20.0  33918  285.50 0855.40
2009/04/23 07:18:48.3      39    -86      4     95     96 155.5   2.8  33916  285.46 0855.40
2009/04/23 07:18:48.4      54    -65     11     85     86 140.4   7.5  33916  285.44 0855.40
2009/04/23 07:18:48.5      57    -31     73     66     98 118.9  52.7  33918  285.48 0855.40
2009/04/23 07:18:48.6      23    -25     77     35     84 136.8  74.0  33920  285.53 0855.40
2009/04/23 07:18:48.7      11      9     63     15     64  50.5  86.9  33918  285.50 0855.40
2009/04/23 07:18:48.8       2     10     54     11     55  15.1  89.1  33920  285.51 0855.40
2009/04/23 07:18:48.9       2     13     37     14     39  11.6  81.2  33920  285.53 0855.40
2009/04/23 07:18:49.0      17      0     31     18     35  90.0  64.7  33922  285.56 0855.40
2009/04/23 07:18:49.1      15      0     18     16     24  90.0  50.1  33920  285.53 0855.40
2009/04/23 07:18:49.2      -2     36     12     37     39 355.5  18.4  33922  285.56 0855.40
2009/04/23 07:18:49.3       3      7      4      8      9  25.4  27.2  33922  285.55 0855.40
2009/04/23 07:18:49.4      -1      0      0      2      3 270.0  19.2  33920  285.53 0855.40
2009/04/23 07:18:49.5      -6     -6     -2      9     10 226.9 -15.5  33920  285.53 0855.40
2009/04/23 07:18:49.6      -8    -12      4     15     16 212.5  15.3  33922  285.55 0855.40
2009/04/23 07:18:49.7     -12    -11      6     17     19 226.7  19.4  33920  285.53 0855.40
2009/04/23 07:18:49.8      -7     -6     10     10     14 226.9  50.1  33920  285.53 0855.40
2009/04/23 07:18:49.9       0    -10     10     11     14 184.5  52.0  33924  285.58 0855.40
2009/04/23 07:18:50.0      -5     -2     13      6     14 244.7  77.1  33918  285.50 0855.40
2009/04/23 07:18:50.1      -3      8     22      9     23 334.6  79.2  33922  285.55 0855.40
2009/04/23 07:18:50.2       2      9     30     10     31  15.1  81.0  33922  285.56 0855.40
2009/04/23 07:18:50.3     -31    -19     37     37     52 237.5  50.1  33924  285.58 0855.40
2009/04/23 07:18:50.4       1    -51     56     52     76 178.2  52.1  33922  285.56 0855.40
2009/04/23 07:18:50.5      -6    -49     66     50     82 188.0  59.0  33922  285.55 0855.40
2009/04/23 07:18:50.6     -10    -10     56     15     57 226.9  84.9  33922  285.56 0855.40
2009/04/23 07:18:50.7     -43      0     52     44     68 270.0  55.4  33924  285.58 0855.40
2009/04/23 07:18:50.8     -19     20     66     28     71 316.6  76.1  33926  285.61 0855.40
2009/04/23 07:18:50.9     -22      0     43     23     48 270.8  69.8  33924  285.60 0855.40
2009/04/23 07:18:51.0     -38    -24     45     45     63 237.6  50.1  33924  285.60 0855.40
2009/04/23 07:18:51.1     -70    -45     68     84    108 237.6  43.7  33924  285.58 0855.40
2009/04/23 07:18:51.2    -100    -57     57    116    129 240.2  27.8  33924  285.60 0855.40
2009/04/23 07:18:51.3     -88    -63     44    109    117 234.5  23.0  33922  285.55 0855.40
2009/04/23 07:18:51.4     -56    -81      9     99    100 214.7   5.4  33922  285.56 0855.40
2009/04/23 07:18:51.5     -79   -102     -5    130    131 217.9  -2.2  33924  285.60 0855.40
2009/04/23 07:18:51.6     -78    -72     26    107    111 227.3  13.7  33924  285.60 0855.40
2009/04/23 07:18:51.7     -63    -20    -18     67     70 251.8 -15.5  33922  285.56 0855.40
2009/04/23 07:18:51.8      51    -69     -4     87     88 143.5  -3.1  33922  285.56 0855.40
2009/04/23 07:18:51.9      58    -30     41     66     77 118.0  35.5  33920  285.53 0855.40
2009/04/23 07:18:52.0      21    -46     75     51     90 154.6  62.6  33924  285.60 0855.40
2009/04/23 07:18:52.1     -30    -64     49     71     86 205.4  38.0  33924  285.60 0855.40
2009/04/23 07:18:52.2     -12    -38     27     41     49 198.5  36.5  33922  285.56 0855.39
2009/04/23 07:18:52.3      -4    -52     -4     53     54 185.3  -5.2  33922  285.55 0855.39
2009/04/23 07:18:52.4     -16    -50    -22     53     57 197.8 -27.4  33924  285.60 0855.39
2009/04/23 07:18:52.5      -7    -46     -2     47     48 188.9  -3.1  33926  285.61 0855.39
2009/04/23 07:18:52.6      29    -76    -31     82     87 158.6 -25.4  33924  285.58 0855.39
2009/04/23 07:18:52.7      65   -102    -55    122    133 147.5 -30.1  33924  285.60 0855.39
2009/04/23 07:18:52.8      40    -67      4     79     80 149.3   2.9  33926  285.61 0855.39
2009/04/23 07:18:52.9      39    -84      7     93     94 154.7   4.4  33922  285.56 0855.39
2009/04/23 07:18:53.0       0    -57     30     58     65 180.9  30.3  33924  285.60 0855.39
2009/04/23 07:18:53.1      10    -74     30     75     80 172.0  23.0  33928  285.65 0855.39
2009/04/23 07:18:53.2      -5   -122    -22    123    125 182.7 -10.3  33926  285.61 0855.39
2009/04/23 07:18:53.3     -67    -98    -53    119    130 214.3 -30.1  33924  285.60 0855.39
2009/04/23 07:18:53.4    -134   -114     33    176    180 229.6  10.8  33920  285.53 0855.39
2009/04/23 07:18:53.5    -199   -144    -18    246    247 234.1  -4.4  33924  285.59 0855.39
2009/04/23 07:18:53.6    -168   -123     10    209    210 233.8   2.9  33922  285.56 0855.39
2009/04/23 07:18:53.7    -171    -56    -83    181    199 251.8 -30.8  33922  285.55 0855.39
2009/04/23 07:18:53.8    -121   -107    -50    162    169 228.4 -22.5  33924  285.58 0855.39
2009/04/23 07:18:53.9    -143    -69      3    159    160 244.2   1.2  33920  285.53 0855.39
2009/04/23 07:18:54.0    -115    -51     61    126    139 246.0  27.3  33928  285.65 0855.39
2009/04/23 07:18:54.1     -85   -109     19    139    141 217.9   8.0  33924  285.60 0855.39
2009/04/23 07:18:54.2     -72   -108      6    131    132 213.8   2.9  33924  285.60 0855.39
2009/04/23 07:18:54.3    -112   -154    -61    191    200 216.1 -23.0  33928  285.66 0855.39
2009/04/23 07:18:54.4    -115   -159    -83    197    213 215.8 -28.5  33926  285.61 0855.39
2009/04/23 07:18:54.5     -75   -103    -83    128    152 216.1 -40.0  33926  285.61 0855.39
2009/04/23 07:18:54.6     -76   -106    -57    131    142 216.0 -29.5  33924  285.60 0855.39
2009/04/23 07:18:54.7     -84   -122    -35    149    154 214.7 -13.3  33924  285.58 0855.39
2009/04/23 07:18:54.8     -61   -103     16    120    122 210.7   8.0  33924  285.58 0855.39
2009/04/23 07:18:54.9     -37   -104     26    111    115 200.0  13.2  33926  285.61 0855.39
2009/04/23 07:18:55.0     -25   -117    -19    120    122 192.5  -9.3  33924  285.60 0855.39
2009/04/23 07:18:55.1     -20   -148    -23    150    152 188.0  -8.8  33926  285.61 0855.39
2009/04/23 07:18:55.2       0   -179     -7    180    181 180.2  -2.2  33928  285.65 0855.39
2009/04/23 07:18:55.3      -7   -172     34    173    177 182.5  11.1  33926  285.63 0855.39
2009/04/23 07:18:55.4       3   -148     51    149    158 178.6  19.2  33926  285.63 0855.39
2009/04/23 07:18:55.5     -17   -188     38    189    193 185.3  11.4  33926  285.63 0855.39
2009/04/23 07:18:55.6     -22   -168     36    170    174 187.6  12.0  33928  285.65 0855.39
2009/04/23 07:18:55.7     -15   -140     54    141    150 186.3  22.0  33926  285.63 0855.39
2009/04/23 07:18:55.8     -41   -151     14    157    158 195.2   5.4  33926  285.63 0855.39
2009/04/23 07:18:55.9     -26   -168      9    171    172 188.9   3.3  33926  285.63 0855.39
2009/04/23 07:18:56.0     -17   -158     10    159    160 186.3   3.6  33928  285.65 0855.39
2009/04/23 07:18:56.1     -52   -134     13    144    145 201.4   5.4  33930  285.68 0855.39
2009/04/23 07:18:56.2     -47   -132      2    141    142 199.6   0.8  33926  285.61 0855.39
2009/04/23 07:18:56.3     -65   -140     29    155    158 204.9  10.6  33928  285.66 0855.39
2009/04/23 07:18:56.4     -47   -150     38    158    163 197.6  13.7  33928  285.66 0855.39
2009/04/23 07:18:56.5     -27   -139     61    142    154 191.1  25.1  33928  285.66 0855.39
2009/04/23 07:18:56.6     -37   -133     51    139    148 195.6  21.0  33930  285.68 0855.39
2009/04/23 07:18:56.7     -43   -141     59    148    159 196.9  22.8  33928  285.66 0855.39
2009/04/23 07:18:56.8     -51   -141     53    151    161 200.0  19.4  33926  285.61 0855.39
2009/04/23 07:18:56.9     -38   -113     39    120    127 198.7  17.9  33930  285.70 0855.39
2009/04/23 07:18:57.0     -14   -135     29    136    140 186.2  12.2  33928  285.66 0855.39
2009/04/23 07:18:57.1      -2   -161     57    162    171 180.9  20.0  33928  285.65 0855.39
2009/04/23 07:18:57.2     -22   -167     49    169    177 187.8  16.3  33930  285.68 0855.39
2009/04/23 07:18:57.4     -44   -132     43    140    147 198.5  17.3  33930  285.68 0855.39
2009/04/23 07:18:57.5     -38   -117     34    124    129 198.3  15.3  33928  285.65 0855.39
2009/04/23 07:18:57.6     -35   -114     23    120    123 197.0  11.1  33928  285.66 0855.39
2009/04/23 07:18:57.7     -37   -106     -9    113    114 199.6  -4.6  33930  285.70 0855.39
2009/04/23 07:18:57.8     -58    -93     26    110    114 212.1  13.2  33928  285.66 0855.39
2009/04/23 07:18:57.9     -75    -78     21    109    112 223.7  11.1  33928  285.66 0855.39
2009/04/23 07:18:58.0     -77    -76     -4    109    110 225.4  -2.6  33930  285.70 0855.39
2009/04/23 07:18:58.1     -92    -79    -14    122    123 229.6  -6.7  33928  285.66 0855.39
2009/04/23 07:18:58.2     -96    -76     -9    123    124 231.4  -4.6  33928  285.66 0855.38
2009/04/23 07:18:58.3     -97    -80    -11    126    127 230.5  -5.2  33930  285.70 0855.38
2009/04/23 07:18:58.4     -87    -72    -14    114    115 230.5  -7.3  33926  285.63 0855.38
2009/04/23 07:18:58.5     -77    -79    -20    111    113 224.1 -10.3  33930  285.68 0855.38
2009/04/23 07:18:58.6     -72    -96      3    121    122 217.0   1.8  33930  285.68 0855.38
2009/04/23 07:18:58.7     -80    -81     31    115    120 224.7  15.2  33928  285.65 0855.38
2009/04/23 07:18:58.8     -69    -83     29    109    113 219.7  15.2  33930  285.68 0855.38
2009/04/23 07:18:58.9     -55    -86     60    103    119 212.6  32.9  33930  285.68 0855.38
2009/04/23 07:18:59.0      -5   -103     61    104    120 183.1  33.4  33930  285.68 0855.38
2009/04/23 07:18:59.1       0   -100     46    101    110 180.0  26.6  33930  285.68 0855.38
2009/04/23 07:18:59.2     -19    -94     55     96    110 191.5  32.4  33928  285.65 0855.38
2009/04/23 07:18:59.3     -20    -82     30     85     91 194.3  19.4  33930  285.70 0855.38
2009/04/23 07:18:59.4       5   -101     43    102    110 176.9  24.1  33930  285.68 0855.38
2009/04/23 07:18:59.5      -1    -93     -3     94     95 180.9  -2.2  33930  285.70 0855.38
2009/04/23 07:18:59.6     -14    -81      1     83     84 190.2   1.2  33928  285.66 0855.38
2009/04/23 07:18:59.7     -17   -127     49    129    137 187.6  22.0  33930  285.68 0855.38
2009/04/23 07:18:59.8     -32   -157     28    161    164 191.8  10.1  33928  285.66 0855.38
2009/04/23 07:18:59.9     -26   -170     46    172    179 188.7  15.0  33928  285.65 0855.38
2009/04/23 07:19:00.1     -14   -153     57    154    164 185.3  21.0  33928  285.66 0855.38
2009/04/23 07:19:00.1     -22   -156     64    158    170 188.1  23.4  33930  285.68 0855.38
2009/04/23 07:19:00.2       0   -160     62    161    172 179.8  21.7  33928  285.66 0855.38
2009/04/23 07:19:00.3       9   -156     68    157    171 176.4  24.9  33926  285.63 0855.38
2009/04/23 07:19:00.4      30   -155     75    158    174 168.9  27.2  33928  285.66 0855.38
2009/04/23 07:19:00.5      15   -133     84    134    158 173.3  35.2  33928  285.66 0855.38
2009/04/23 07:19:00.6      16   -132     90    134    161 172.9  37.3  33930  285.68 0855.38
2009/04/23 07:19:00.7      24    -75    100     79    127 161.7  57.5  33928  285.65 0855.38
2009/04/23 07:19:00.8      -2    -19     43     20     47 186.2  74.0  33928  285.65 0855.38
2009/04/23 07:19:00.9      24    -38     67     46     81 147.5  62.1  33926  285.61 0855.38
2009/04/23 07:19:01.0       5    -41     59     42     72 172.0  60.6  33926  285.61 0855.38
2009/04/23 07:19:01.1       8    -26     71     28     76 161.7  78.2  33928  285.65 0855.38
2009/04/23 07:19:01.2      -2    -41     57     42     70 183.6  60.5  33928  285.66 0855.38
2009/04/23 07:19:01.4       2    -37     78     38     86 175.5  72.4  33926  285.63 0855.38
2009/04/23 07:19:01.4      -9    -41     74     42     85 192.5  67.7  33928  285.65 0855.38
2009/04/23 07:19:01.5      11    -49     72     51     88 167.5  61.5  33928  285.66 0855.38
2009/04/23 07:19:01.6      34    -62     83     71    109 151.1  55.8  33926  285.63 0855.38
2009/04/23 07:19:01.7      48    -41     81     64    103 130.4  57.5  33928  285.66 0855.38
2009/04/23 07:19:01.8      53    -33     69     63     93 122.4  52.2  33930  285.68 0855.38
2009/04/23 07:19:01.9      45    -45     85     65    107 135.0  59.0  33928  285.65 0855.38
2009/04/23 07:19:02.0      91    -34     84     98    129 110.4  44.8  33928  285.66 0855.38
2009/04/23 07:19:02.1      82    -50     88     97    130 121.5  46.9  33926  285.61 0855.38
2009/04/23 07:19:02.2      85    -28    102     90    136 108.6  54.2  33924  285.60 0855.38
2009/04/23 07:19:02.3      67    -39    102     78    128 120.7  58.5  33924  285.60 0855.38
2009/04/23 07:19:02.4      83    -24    115     87    144 106.4  59.4  33926  285.61 0855.38
2009/04/23 07:19:02.5      21    -21     69     31     75 134.9  73.1  33926  285.61 0855.38
2009/04/23 07:19:02.6      18    -49     89     53    103 160.0  66.2  33922  285.56 0855.38
2009/04/23 07:19:02.7       0      4     54      5     54 350.3  90.0  33924  285.60 0855.38
2009/04/23 07:19:02.8     -13    -12     45     18     48 226.7  79.2  33928  285.65 0855.38
2009/04/23 07:19:02.9     -10    -63     65     64     91 189.8  50.1  33926  285.63 0855.38
2009/04/23 07:19:03.0      -1    -72     97     73    121 180.9  59.0  33926  285.61 0855.38
2009/04/23 07:19:03.1      22      0     35     23     41  90.0  63.6  33926  285.61 0855.38
2009/04/23 07:19:03.2       3     12     52     13     53  15.1  85.9  33926  285.61 0855.38
2009/04/23 07:19:03.3      17      5     44     18     47  71.8  77.1  33926  285.61 0855.38
2009/04/23 07:19:03.4       0     -7     12      8     14 182.7  60.5  33926  285.61 0855.38
2009/04/23 07:19:03.5      -7     -2     37      8     37 251.4  89.0  33926  285.61 0855.38
2009/04/23 07:19:03.6     -21     10     48     24     53 295.3  72.8  33926  285.63 0855.38
2009/04/23 07:19:03.8      -2    -37     68     38     77 184.5  68.8  33926  285.63 0855.38
2009/04/23 07:19:03.8      20     -8     67     22     70 113.5  80.7  33928  285.65 0855.38
2009/04/23 07:19:03.9      35    -11     58     37     68 108.6  64.7  33924  285.60 0855.38
2009/04/23 07:19:04.0      50     -7     62     51     80  97.9  56.4  33922  285.56 0855.38
2009/04/23 07:19:04.1       7    -26     66     27     71 164.9  77.1  33920  285.51 0855.38
2009/04/23 07:19:04.2      65      0     67     66     94  90.0  49.7  33926  285.61 0855.38
2009/04/23 07:19:04.3      -1    -17     64     18     66 184.5  83.9  33924  285.58 0855.38
2009/04/23 07:19:04.4      22     -7     88     24     91 108.2  84.4  33922  285.55 0855.38
2009/04/23 07:19:04.5      16     -5     79     17     80 108.2  88.5  33922  285.55 0855.38
2009/04/23 07:19:04.6      36    -12     64     39     74 108.6  64.7  33922  285.56 0855.38
2009/04/23 07:19:04.8      31     -5     75     32     81  99.7  76.1  33924  285.60 0855.38
2009/04/23 07:19:04.9      82     -8     63     83    104  95.7  40.7  33924  285.60 0855.38
2009/04/23 07:19:05.0     103      0     52    104    116  90.0  28.2  33920  285.53 0855.38
2009/04/23 07:19:05.1      91    -30     75     97    122 108.6  41.7  33922  285.56 0855.38
2009/04/23 07:19:05.2      71    -32     54     79     95 114.4  37.0  33924  285.60 0855.38
2009/04/23 07:19:05.3      21    -46     62     51     80 154.6  56.4  33922  285.55 0855.38
2009/04/23 07:19:05.5     -31    -42     64     53     83 216.1  55.8  33922  285.56 0855.38
2009/04/23 07:19:05.6      31     31      2     44     45  45.1   2.9  33924  285.60 0855.38
2009/04/23 07:19:05.7      23     15     -3     28     29  55.8  -7.3  33924  285.60 0855.38
2009/04/23 07:19:05.8       5    -18      7     19     20 161.7  21.0  33924  285.58 0855.38
2009/04/23 07:19:05.9      11    -29     24     32     40 158.2  40.7  33924  285.60 0855.38
2009/04/23 07:19:06.0      28    -16     26     33     42 120.7  42.7  33922  285.55 0855.38
2009/04/23 07:19:06.1      42    -24     46     49     67 119.8  48.0  33926  285.63 0855.38
2009/04/23 07:19:06.2      27    -34     36     44     56 142.2  43.7  33924  285.60 0855.38
2009/04/23 07:19:06.3       6    -54     48     55     73 172.9  45.8  33926  285.61 0855.38
2009/04/23 07:19:06.4     -11    -39     34     41     53 196.9  43.8  33926  285.61 0855.38
2009/04/23 07:19:06.5      -5    -23     28     24     36 193.4  54.3  33928  285.65 0855.38
2009/04/23 07:19:06.6       0    -15     19     16     24 179.1  54.3  33926  285.63 0855.38
2009/04/23 07:19:06.7       0    -32      6     33     34 180.9  11.1  33926  285.61 0855.38
2009/04/23 07:19:06.8       9    -48     17     49     52 169.3  19.4  33926  285.61 0855.38
2009/04/23 07:19:06.9      47    -59     45     76     88 141.3  33.5  33922  285.56 0855.38
2009/04/23 07:19:07.0      73    -60     83     95    126 129.5  45.8  33922  285.56 0855.38
2009/04/23 07:19:07.1      86    -69     89    111    142 128.6  43.7  33926  285.61 0855.38
2009/04/23 07:19:07.2      80    -57     74     99    123 125.5  40.1  33922  285.55 0855.38
2009/04/23 07:19:07.3      59    -55     82     81    115 133.1  49.1  33922  285.55 0855.39
2009/04/23 07:19:07.4      37    -29     63     48     79 127.8  59.0  33922  285.56 0855.39
2009/04/23 07:19:07.5      15      0     57     16     59  90.0  84.8  33922  285.55 0855.39
2009/04/23 07:19:07.6      -7      0     57      8     57 270.0  90.0  33922  285.56 0855.39
2009/04/23 07:19:07.7      17      5     58     18     60  71.6  81.8  33924  285.60 0855.39
2009/04/23 07:19:07.8       2    -23     60     24     64 173.8  77.1  33922  285.56 0855.39
2009/04/23 07:19:07.9       1    -22     71     23     74 177.3  80.7  33922  285.55 0855.39
2009/04/23 07:19:08.0      -2     -7     50      8     50 198.5  90.0  33922  285.55 0855.39
2009/04/23 07:19:08.1      -9    -24     52     26     58 201.8  71.9  33920  285.53 0855.39
2009/04/23 07:19:08.2       1    -18     42     19     46 175.6  75.0  33920  285.53 0855.39
2009/04/23 07:19:08.3       0    -27     47     28     54 180.9  65.7  33916  285.46 0855.39
2009/04/23 07:19:08.4     -38    -95    111    103    151 201.8  52.2  33922  285.56 0855.39
2009/04/23 07:19:08.5     -75    -77    122    108    162 224.1  53.7  33918  285.48 0855.39
2009/04/23 07:19:08.6     -48    -68    123     84    148 215.2  62.6  33920  285.53 0855.39
2009/04/23 07:19:08.7     -20    -45    105     50    116 204.5  72.9  33916  285.46 0855.39
2009/04/23 07:19:08.8    -131    -61     63    145    158 244.8  24.9  33918  285.50 0855.39
2009/04/23 07:19:08.9    -135    -88     58    162    172 236.7  20.2  33918  285.50 0855.39
2009/04/23 07:19:09.0    -100   -100      6    142    143 225.0   2.8  33916  285.44 0855.39
2009/04/23 07:19:09.1    -108    -86     52    139    148 231.4  21.0  33918  285.50 0855.39
2009/04/23 07:19:09.3    -102    -99     49    143    152 226.0  18.9  33918  285.48 0855.39
2009/04/23 07:19:09.4     -67    -98     32    119    124 214.3  15.2  33918  285.48 0855.39
2009/04/23 07:19:09.5     -65   -120     21    137    139 208.5   9.0  33920  285.51 0855.39
2009/04/23 07:19:09.6     -87    -98      8    132    133 221.4   3.8  33918  285.48 0855.39
2009/04/23 07:19:09.7     -78   -123     22    146    148 212.5   8.9  33920  285.51 0855.39
2009/04/23 07:19:09.8     -81   -128     44    152    159 212.5  16.3  33920  285.51 0855.39
2009/04/23 07:19:09.9     -76   -106     23    131    134 216.0  10.1  33920  285.51 0855.39
2009/04/23 07:19:10.0     -70    -80     16    107    109 221.0   8.5  33920  285.51 0855.39
2009/04/23 07:19:10.1     -50    -60     45     79     90 219.7  32.4  33914  285.43 0855.39
2009/04/23 07:19:10.2     -48    -48     65     69     94 225.0  49.0  33912  285.39 0855.39
2009/04/23 07:19:10.3     -41     -7     52     42     66 259.4  56.4  33912  285.38 0855.39
2009/04/23 07:19:10.4      -8     22     44     24     50 340.0  68.8  33916  285.44 0855.39
2009/04/23 07:19:10.5       2     26     30     27     40   4.5  53.3  33914  285.41 0855.39
2009/04/23 07:19:10.6     -21     32     38     39     54 325.7  51.1  33912  285.38 0855.39
2009/04/23 07:19:10.7     -21     43     27     48     55 333.7  32.4  33910  285.34 0855.39
2009/04/23 07:19:10.8     -38    -26     36     47     59 235.8  41.7  33910  285.36 0855.39
2009/04/23 07:19:10.9     -12      0     74     13     75 265.6  90.0  33910  285.36 0855.39
2009/04/23 07:19:11.0     -24      1     42     25     48 274.4  65.7  33908  285.31 0855.39
2009/04/23 07:19:11.1     -40    -15     13     43     46 249.2  17.3  33906  285.29 0855.39
2009/04/23 07:19:11.2     -46    -15     16     49     52 251.8  18.4  33908  285.31 0855.39
2009/04/23 07:19:11.3     -49      0      2     50     51 270.0   2.8  33906  285.29 0855.40
2009/04/23 07:19:11.4     -60    -16     21     63     67 254.9  18.9  33906  285.28 0855.40
2009/04/23 07:19:11.5     -47    -32     15     57     60 235.8  15.3  33908  285.33 0855.40
2009/04/23 07:19:11.6     -71    -28      3     77     78 248.3   2.8  33908  285.33 0855.40
2009/04/23 07:19:11.7     -77    -35    -16     85     87 245.2 -10.9  33910  285.34 0855.40
2009/04/23 07:19:11.8     -74    -24    -15     78     80 251.8 -11.3  33910  285.34 0855.40
2009/04/23 07:19:11.9     -68    -18     -9     71     72 255.0  -7.3  33910  285.36 0855.40
2009/04/23 07:19:12.0     -34    -31      2     47     48 227.8   2.9  33912  285.39 0855.40
2009/04/23 07:19:12.1     -30    -30      0     43     44 225.0  -0.3  33910  285.36 0855.40
2009/04/23 07:19:12.2     -21    -39    -10     45     47 209.0 -13.4  33912  285.39 0855.40
2009/04/23 07:19:12.3      -8    -35      8     37     39 193.4  13.2  33910  285.34 0855.40
2009/04/23 07:19:12.4     -32    -15     -4     36     37 244.7  -7.3  33916  285.44 0855.40
2009/04/23 07:19:12.5     -37    -16    -13     41     44 245.6 -17.6  33914  285.41 0855.40
2009/04/23 07:19:12.6     -26    -23    -13     35     37 228.7 -23.3  33916  285.44 0855.40
2009/04/23 07:19:12.7     -16    -16     -3     23     24 225.0  -9.3  33914  285.41 0855.40
2009/04/23 07:19:12.8     -16    -26     17     31     35 212.5  33.5  33912  285.38 0855.40
2009/04/23 07:19:12.9     -16    -32     40     37     54 207.2  51.2  33908  285.33 0855.40
2009/04/23 07:19:13.0     -51     -5     52     52     73 263.9  50.1  33908  285.31 0855.40
2009/04/23 07:19:13.1     -71      4     31     72     78 273.5  24.1  33910  285.34 0855.40
2009/04/23 07:19:13.2     -99      7     27    100    104 274.3  15.3  33910  285.34 0855.40
2009/04/23 07:19:13.3     -90     -1     34     91     97 269.2  20.4  33908  285.31 0855.41
2009/04/23 07:19:13.4     -74    -19     -3     77     78 255.0  -2.2  33910  285.34 0855.41
2009/04/23 07:19:13.5     -66    -16     -8     69     70 255.8  -7.3  33912  285.38 0855.41
2009/04/23 07:19:13.6     -58    -49    -27     77     82 229.6 -19.7  33908  285.33 0855.41
2009/04/23 07:19:13.7     -58    -60    -20     84     87 223.7 -13.9  33906  285.28 0855.41
2009/04/23 07:19:13.8     -69    -51     20     86     89 233.6  13.2  33902  285.23 0855.41
2009/04/23 07:19:13.9     -76    -48     36     91     97 237.6  22.0  33902  285.23 0855.41
2009/04/23 07:19:14.0     -50    -10     27     52     58 258.5  29.3  33902  285.23 0855.41
2009/04/23 07:19:14.1     -34      6     46     35     57 281.5  58.5  33904  285.26 0855.41
2009/04/23 07:19:14.2     -24     36     42     44     60 325.7  49.0  33904  285.26 0855.41
2009/04/23 07:19:14.3     -22     47     45     53     69 334.7  43.8  33906  285.28 0855.41
2009/04/23 07:19:14.4     -18     54     49     57     75 341.5  44.8  33906  285.29 0855.41
2009/04/23 07:19:14.5     -21     55     24     59     63 339.1  23.0  33908  285.31 0855.41
2009/04/23 07:19:14.6     -30     26     18     40     43 311.3  25.1  33906  285.29 0855.41
2009/04/23 07:19:14.7     -34    -49     16     60     63 215.2  15.3  33904  285.26 0855.41
2009/04/23 07:19:14.8     -31    -52     21     61     65 210.7  18.9  33904  285.24 0855.41
2009/04/23 07:19:14.9     -19    -59     25     63     67 198.3  23.0  33902  285.23 0855.41
2009/04/23 07:19:15.0     -25    -44     13     51     53 209.9  14.3  33902  285.23 0855.41
2009/04/23 07:19:15.1     -54    -85    -17    101    103 212.5  -9.8  33906  285.28 0855.41
2009/04/23 07:19:15.2     -57    -81    -29    100    104 215.2 -21.2  33906  285.29 0855.41
2009/04/23 07:19:15.3    -119    -76    -33    142    146 237.6 -13.3  33908  285.31 0855.41
2009/04/23 07:19:15.4     -97    -80    -17    126    128 230.5  -7.7  33902  285.23 0855.41
2009/04/23 07:19:15.5     -89    -91    -35    128    133 224.1 -15.5  33908  285.33 0855.41
2009/04/23 07:19:15.6     -86    -86    -51    122    132 224.9 -28.0  33908  285.31 0855.41
2009/04/23 07:19:15.7     -50    -95    -55    108    121 208.1 -33.6  33904  285.26 0855.41
2009/04/23 07:19:15.8     -45    -48    -58     67     88 223.2 -49.8  33904  285.24 0855.41
2009/04/23 07:19:15.9     -17    -50    -41     54     67 199.2 -45.1  33906  285.28 0855.41
2009/04/23 07:19:16.0      -1    -22    -33     23     40 182.7 -65.9  33904  285.24 0855.41
2009/04/23 07:19:16.1      47    -15    -41     50     64 108.2 -48.1  33906  285.29 0855.41
2009/04/23 07:19:16.2      58    -27     -8     65     66 115.2  -7.2  33908  285.31 0855.41
2009/04/23 07:19:16.3      48    -33    -42     59     72 124.2 -43.9  33908  285.31 0855.41
2009/04/23 07:19:16.4      74     -4    -20     75     78  93.5 -15.5  33910  285.36 0855.41
2009/04/23 07:19:16.5      58     42    -32     72     78  54.0 -29.5  33908  285.33 0855.41
2009/04/23 07:19:16.6      95     38    -33    103    108  68.2 -23.3  33908  285.31 0855.41
2009/04/23 07:19:16.7      78     45    -25     91     95  59.8 -15.4  33908  285.33 0855.41
2009/04/23 07:19:16.8      77     64    -29    101    106  50.5 -16.0  33908  285.33 0855.41
2009/04/23 07:19:16.9      68     67    -27     96     99  45.4 -20.2  33906  285.29 0855.41
2009/04/23 07:19:17.0      47     42    -26     64     69  47.8 -27.4  33906  285.28 0855.41
2009/04/23 07:19:17.1      62     28    -41     69     80  65.6 -37.9  33904  285.26 0855.41
2009/04/23 07:19:17.2     117     25    -40    120    126  77.6 -23.6  33902  285.23 0855.41
2009/04/23 07:19:17.3     125    -22    -30    127    131 100.1 -13.4  33906  285.29 0855.40
2009/04/23 07:19:17.4     125    -16      1    127    128  97.5   0.8  33902  285.23 0855.40
2009/04/23 07:19:17.5     167     -3    -17    168    169  91.3  -6.0  33906  285.29 0855.40
2009/04/23 07:19:17.6     142     15     12    143    144  83.9   5.0  33906  285.29 0855.40
2009/04/23 07:19:17.7     137     14     79    138    159  83.8  32.4  33904  285.24 0855.40
2009/04/23 07:19:17.8     114      7     71    115    135  86.1  35.5  33904  285.24 0855.40
2009/04/23 07:19:17.9     117     42     72    125    144  70.0  32.9  33902  285.21 0855.40
2009/04/23 07:19:18.0     138     65     74    153    169  64.6  27.4  33900  285.19 0855.40
2009/04/23 07:19:18.1     139     32     74    143    161  76.7  29.5  33896  285.13 0855.40
2009/04/23 07:19:18.2     149     30     98    153    181  78.5  35.6  33902  285.21 0855.40
2009/04/23 07:19:18.3     149     30    100    152    181  78.5  36.3  33902  285.23 0855.40
2009/04/23 07:19:18.4     115     39     95    122    154  70.9  41.7  33902  285.23 0855.40
2009/04/23 07:19:18.5     126     31     71    130    148  75.8  31.3  33902  285.23 0855.40
2009/04/23 07:19:18.6     100     33    104    106    148  71.4  50.0  33900  285.18 0855.40
2009/04/23 07:19:18.7      81     36     87     89    124  66.0  50.0  33896  285.13 0855.40
2009/04/23 07:19:18.8      40    101     90    109    141  21.8  43.7  33892  285.06 0855.40
2009/04/23 07:19:18.9      55    153     98    163    190  20.1  34.0  33894  285.07 0855.40
2009/04/23 07:19:19.0     -19    177    125    179    218 353.8  38.6  33894  285.07 0855.40
2009/04/23 07:19:19.1      10    105     82    106    134   5.8  41.7  33892  285.04 0855.40
2009/04/23 07:19:19.2      47     41     60     63     87  48.7  49.0  33902  285.21 0855.40
2009/04/23 07:19:19.3      15     44     61     47     77  18.7  57.5  33894  285.09 0855.41
2009/04/23 07:19:19.4       3     27     33     28     43   8.0  54.3  33896  285.13 0855.41
2009/04/23 07:19:19.5     -23     23     37     33     49 315.0  53.3  33898  285.16 0855.41
2009/04/23 07:19:19.6     -43     -2     57     44     72 266.5  57.5  33900  285.18 0855.41
2009/04/23 07:19:19.7     -21     13     45     25     51 302.4  68.8  33896  285.11 0855.41
2009/04/23 07:19:19.8     -54     37     68     66     94 304.2  49.7  33898  285.14 0855.41
2009/04/23 07:19:19.9     -52     66     35     85     91 321.7  23.6  33896  285.13 0855.41
2009/04/23 07:19:20.0     -39     22     44     45     62 299.8  50.0  33896  285.13 0855.41
2009/04/23 07:19:20.1     -57     14     -4     59     60 284.2  -4.1  33896  285.13 0855.41
2009/04/23 07:19:20.2     -40     18     -1     44     45 294.4  -2.2  33896  285.13 0855.41
2009/04/23 07:19:20.3     -39     25     21     47     51 302.5  26.2  33900  285.18 0855.41
2009/04/23 07:19:20.4     -54      5      2     55     56 276.1   2.9  33902  285.21 0855.41
2009/04/23 07:19:20.5     -41      0      3     42     43 270.0   4.9  33900  285.19 0855.41
2009/04/23 07:19:20.6     -55    -14     19     57     61 254.9  18.9  33898  285.16 0855.41
2009/04/23 07:19:20.7     -52    -39     26     65     70 233.1  23.0  33900  285.18 0855.41
2009/04/23 07:19:20.8     -27    -44     18     52     56 211.6  19.4  33900  285.18 0855.41
2009/04/23 07:19:20.9     -44    -53     -7     70     71 219.7  -6.2  33896  285.13 0855.41
2009/04/23 07:19:21.0     -47    -32      5     57     58 235.8   5.9  33900  285.18 0855.41
2009/04/23 07:19:21.1     -44    -53     13     70     72 219.7  11.1  33902  285.21 0855.41
2009/04/23 07:19:21.2     -49    -61     27     79     84 218.7  19.4  33898  285.14 0855.41
2009/04/23 07:19:21.3     -38    -78     19     88     91 206.3  12.6  33902  285.21 0855.41
2009/04/23 07:19:21.4     -29    -80     45     86     97 200.0  29.8  33898  285.14 0855.41
2009/04/23 07:19:21.5     -55    -71     47     90    101 217.8  29.8  33902  285.21 0855.41
2009/04/23 07:19:21.6     -60    -70     54     93    107 220.5  32.9  33902  285.23 0855.41
2009/04/23 07:19:21.7     -25    -78     49     82     95 197.8  34.4  33908  285.33 0855.41
2009/04/23 07:19:21.8       2    -69     57     70     90 178.2  43.7  33912  285.39 0855.41
2009/04/23 07:19:21.9      -6    -70     37     71     80 185.3  29.8  33910  285.36 0855.41
2009/04/23 07:19:22.0     -13    -63     46     65     79 191.6  38.6  33914  285.43 0855.41
2009/04/23 07:19:22.1     -19    -58     46     62     77 198.3  39.7  33914  285.43 0855.41
2009/04/23 07:19:22.2       4    -15     58     16     60 164.9  84.9  33916  285.44 0855.41
2009/04/23 07:19:22.3      -2    -34     50     35     61 184.4  61.5  33914  285.43 0855.41
2009/04/23 07:19:22.4       4    -59     43     60     73 175.5  39.7  33916  285.44 0855.41
2009/04/23 07:19:22.5      32    -59     42     68     79 151.9  35.0  33916  285.44 0855.41
2009/04/23 07:19:22.6      26    -70     53     75     91 159.1  39.1  33916  285.44 0855.41
2009/04/23 07:19:22.7      18    -96     79     98    125 168.9  43.3  33908  285.33 0855.41
2009/04/23 07:19:22.8       4    -63    101     64    119 176.4  64.7  33904  285.26 0855.41
2009/04/23 07:19:22.9      -7    -26     73     27     77 195.1  80.2  33904  285.26 0855.41
2009/04/23 07:19:23.0      -7    -44     64     45     78 189.8  61.5  33908  285.31 0855.41
2009/04/23 07:19:23.1     -29    -47     32     56     64 211.6  32.4  33904  285.24 0855.41
2009/04/23 07:19:23.2      -8    -15     30     18     35 209.0  64.7  33902  285.23 0855.41
2009/04/23 07:19:23.3       0     28     55     29     62   0.9  69.8  33904  285.26 0855.41
2009/04/23 07:19:23.4      -3     48     75     49     89 355.5  64.1  33898  285.14 0855.41
2009/04/23 07:19:23.5     -15     58     64     61     88 344.8  50.7  33896  285.11 0855.41
2009/04/23 07:19:23.6     -16     48     65     51     82 341.3  57.5  33896  285.13 0855.41
2009/04/23 07:19:23.7     -42     12     58     44     72 285.9  58.5  33896  285.13 0855.41
2009/04/23 07:19:23.8     -31    -19     50     37     62 237.6  60.5  33898  285.16 0855.41
2009/04/23 07:19:23.9     -13    -54     74     56     92 194.3  58.5  33908  285.31 0855.41
2009/04/23 07:19:24.0       6    -47     81     48     94 172.0  66.2  33906  285.29 0855.41
2009/04/23 07:19:24.1     -14    -70    113     72    133 191.5  64.7  33912  285.38 0855.41
2009/04/23 07:19:24.2     -24    -27     75     37     83 221.4  71.9  33906  285.29 0855.41
2009/04/23 07:19:24.3     -30      0     50     31     58 270.8  64.7  33900  285.19 0855.41
2009/04/23 07:19:24.4     -30     10     51     32     60 290.0  64.7  33896  285.11 0855.41
2009/04/23 07:19:24.5      -7      3     46      8     46 295.3  90.0  33898  285.14 0855.41
2009/04/23 07:19:24.6       8     -8     32     12     34 136.8  81.2  33900  285.18 0855.41
2009/04/23 07:19:24.7       7    -22     29     24     37 161.7  56.3  33902  285.21 0855.41
2009/04/23 07:19:24.8       6    -26     20     27     33 166.6  41.7  33904  285.26 0855.41
2009/04/23 07:19:24.9      15    -26     15     31     34 149.3  27.2  33896  285.13 0855.41
2009/04/23 07:19:25.0      34      6     41     35     53  78.5  54.3  33892  285.04 0855.41
2009/04/23 07:19:25.1      10     -3     38     11     39 108.4  80.7  33894  285.09 0855.41
2009/04/23 07:19:25.2      -6     -7     30     10     31 219.6  81.0  33896  285.13 0855.41
2009/04/23 07:19:25.3      -7     -7     31     11     32 225.0  81.2  33896  285.13 0855.41
2009/04/23 07:19:25.4     -19    -30     35     36     50 212.5  51.1  33900  285.18 0855.41
2009/04/23 07:19:25.5      -9    -41     21     43     47 193.4  28.2  33900  285.19 0855.41
2009/04/23 07:19:25.6     -38    -24     17     45     48 237.6  20.0  33896  285.13 0855.41
2009/04/23 07:19:25.7     -39    -14     19     42     46 250.0  25.1  33894  285.09 0855.41
2009/04/23 07:19:25.8     -36      2     47     37     59 274.3  57.5  33894  285.09 0855.41
2009/04/23 07:19:25.9     -34      0     51     35     61 270.0  61.5  33898  285.16 0855.41
2009/04/23 07:19:26.0     -31      0     49     32     58 270.0  64.6  33898  285.14 0855.41
2009/04/23 07:19:26.1      13     21     40     26     47  32.5  64.6  33894  285.07 0855.41
2009/04/23 07:19:26.2       9     53     39     54     66   9.8  39.5  33894  285.09 0855.41
2009/04/23 07:19:26.3       7     91     29     92     97   4.9  17.9  33892  285.06 0855.41
2009/04/23 07:19:26.4     -13     89     40     90     98 351.5  25.7  33892  285.06 0855.41
2009/04/23 07:19:26.5      22     77     55     81     97  16.0  37.0  33892  285.06 0855.41
2009/04/23 07:19:26.6      53     83     37     99    105  32.6  21.5  33896  285.11 0855.41
2009/04/23 07:19:26.7      63     63     61     90    108  45.0  37.0  33894  285.07 0855.41
2009/04/23 07:19:26.8      31     79     64     85    106  21.4  40.7  33892  285.06 0855.41
2009/04/23 07:19:26.9      -8     80     77     81    111 353.8  48.5  33890  285.01 0855.41
2009/04/23 07:19:27.0       5     64     49     65     81   4.5  41.2  33890  285.02 0855.41
2009/04/23 07:19:27.1      21     43     58     48     75  26.3  56.3  33892  285.04 0855.41
2009/04/23 07:19:27.2      66     31     45     74     86  64.8  34.4  33896  285.11 0855.41
2009/04/23 07:19:27.3      31     47     37     57     67  33.4  35.6  33898  285.14 0855.41
2009/04/23 07:19:27.4      38     51     58     64     86  37.0  47.5  33896  285.11 0855.41
2009/04/23 07:19:27.5      47     42     32     64     71  47.8  27.3  33896  285.11 0855.41
2009/04/23 07:19:27.6      28     42     41     51     65  33.4  43.7  33896  285.11 0855.41
2009/04/23 07:19:27.7      28     59     41     66     77  25.4  35.5  33896  285.11 0855.41
2009/04/23 07:19:27.8      24     62     27     67     72  21.8  23.0  33892  285.06 0855.41
2009/04/23 07:19:27.9      -6     50     28     51     58 352.9  31.4  33896  285.11 0855.41
2009/04/23 07:19:28.0       6   -110     37     50     62 360.0  39.7  33896  285.11 0855.41
2009/04/23 07:19:28.1     -25     25     29     36     46 315.0  42.7  33896  285.11 0855.41
2009/04/23 07:19:28.2     -40     26      2     49     50 303.3   2.9  33900  285.18 0855.41
2009/04/23 07:19:28.3     -49     22     -2     54     55 294.4  -2.2  33898  285.14 0855.41
2009/04/23 07:19:28.4     -44     13     14     46     49 286.8  17.3  33898  285.16 0855.41
2009/04/23 07:19:28.5     -50      0     24     51     56 270.0  27.1  33902  285.21 0855.41
2009/04/23 07:19:28.6     -55      5     20     56     59 276.1  20.0  33902  285.21 0855.41
2009/04/23 07:19:28.7     -56     11     24     58     62 281.5  23.1  33902  285.21 0855.41
2009/04/23 07:19:28.8     -38      2     22     39     44 274.4  32.4  33900  285.18 0855.41
2009/04/23 07:19:28.9     -51     12     17     53     56 284.2  18.4  33902  285.23 0855.41
2009/04/23 07:19:29.0     -44     11     31     46     55 285.1  35.6  33900  285.18 0855.41
2009/04/23 07:19:29.1     -47      0     15     48     51 270.8  17.3  33900  285.18 0855.41
2009/04/23 07:19:29.2     -33      2     19     34     38 274.4  31.4  33898  285.14 0855.41
2009/04/23 07:19:29.3     -33     11     26     35     43 288.4  40.7  33900  285.18 0855.41
2009/04/23 07:19:29.4     -16     16     36     23     42 315.0  64.7  33896  285.13 0855.41
2009/04/23 07:19:29.5       5     18     39     19     43  18.3  72.9  33900  285.19 0855.41
2009/04/23 07:19:29.6       0     12     48     13     49   0.9  84.9  33900  285.18 0855.41
2009/04/23 07:19:29.7     -29     25     63     39     74 311.3  64.7  33898  285.14 0855.41
2009/04/23 07:19:29.8     -21     23     79     32     85 316.8  77.1  33892  285.06 0855.41
2009/04/23 07:19:29.9      -4     39     62     40     73 353.8  64.6  33894  285.07 0855.41
2009/04/23 07:19:30.0      15     48     53     51     73  17.8  50.1  33896  285.13 0855.41
2009/04/23 07:19:30.1     -40     40     26     57     62 315.0  26.2  33890  285.02 0855.41
2009/04/23 07:19:30.2     -34     30     11     46     48 311.3  14.3  33888  284.99 0855.41
2009/04/23 07:19:30.3     -34     22     -1     41     42 303.3  -2.2  33892  285.04 0855.41
2009/04/23 07:19:30.4       0     35    -15     36     39 359.1 -25.4  33896  285.11 0855.41
2009/04/23 07:19:30.5      16     16      1     24     25  45.0   2.8  33896  285.11 0855.41
2009/04/23 07:19:30.6      22     16     15     28     31  54.0  29.3  33898  285.16 0855.41
2009/04/23 07:19:30.7      28     23     21     37     42  50.5  32.4  33898  285.16 0855.41
2009/04/23 07:19:30.8      24     35     44     43     61  34.3  50.1  33900  285.18 0855.41
2009/04/23 07:19:30.9      74     33     20     82     85  66.0  14.3  33900  285.19 0855.41
2009/04/23 07:19:31.0     124     62     19    139    141  63.4   8.0  33900  285.18 0855.41
2009/04/23 07:19:31.1      78     74     43    108    116  46.4  23.0  33900  285.18 0855.41
2009/04/23 07:19:31.2      61     76     33     98    104  38.7  18.9  33900  285.19 0855.41
2009/04/23 07:19:31.4      43     81     32     92     98  28.1  19.4  33902  285.21 0855.41
2009/04/23 07:19:31.5      43     99     21    109    112  23.6  11.0  33900  285.18 0855.41
2009/04/23 07:19:31.6      26    124      6    127    128  12.0   2.8  33900  285.19 0855.41
2009/04/23 07:19:31.7      17    114     -1    116    117   8.9  -0.7  33904  285.24 0855.41
2009/04/23 07:19:31.8       8    112    -40    113    121   4.4 -19.6  33904  285.24 0855.41
2009/04/23 07:19:31.9      -9    121    -37    122    127 355.5 -21.8  33904  285.26 0855.41
2009/04/23 07:19:32.0     -43     91    -28    101    104 334.6 -20.2  33904  285.26 0855.41
2009/04/23 07:19:32.1     -70     78    -38    106    113 318.1 -19.7  33904  285.26 0855.41
2009/04/23 07:19:32.2     -95     74    -13    121    122 307.8  -6.2  33904  285.24 0855.41
2009/04/23 07:19:32.3     -43     98    -21    108    111 336.4 -11.3  33902  285.21 0855.41
2009/04/23 07:19:32.4     -33     76    -37     84     91 336.4 -29.5  33900  285.19 0855.41
2009/04/23 07:19:32.5     -69     91    -35    115    120 322.6 -21.8  33900  285.18 0855.41
2009/04/23 07:19:32.6     -86     97    -29    130    134 318.6 -12.9  33898  285.16 0855.41
2009/04/23 07:19:32.7     -89     70    -14    114    115 308.2  -7.2  33896  285.13 0855.41
2009/04/23 07:19:32.8     -73     77     -5    107    108 316.7  -3.1  33900  285.19 0855.41
2009/04/23 07:19:32.9     -48     75    -25     90     93 327.4 -20.2  33900  285.18 0855.41
2009/04/23 07:19:33.0     -41     79    -32     90     95 332.4 -23.8  33902  285.21 0855.41
2009/04/23 07:19:33.1     -59     71    -31     93     99 320.4 -18.7  33898  285.16 0855.41
2009/04/23 07:19:33.2     -42     79    -25     90     94 331.9 -15.5  33902  285.21 0855.41
2009/04/23 07:19:33.3     -45     55    -36     72     80 320.4 -33.1  33900  285.19 0855.41
2009/04/23 07:19:33.4     -38     84    -58     93    109 335.5 -39.9  33900  285.18 0855.41
2009/04/23 07:19:33.5     -54     70    -52     89    103 322.6 -37.3  33896  285.13 0855.41
2009/04/23 07:19:33.6     -58     70    -33     92     98 320.4 -19.7  33896  285.13 0855.41
2009/04/23 07:19:33.7     -76     80    -27    111    115 316.7 -13.9  33898  285.14 0855.41
2009/04/23 07:19:33.8     -48     73    -30     88     94 326.6 -19.1  33902  285.21 0855.41
2009/04/23 07:19:33.9     -30     79     -2     85     86 339.1  -1.8  33902  285.21 0855.41
2009/04/23 07:19:34.0     -22     68     14     72     74 342.2  11.1  33904  285.24 0855.41
2009/04/23 07:19:34.1     -21     65     18     69     72 342.2  15.3  33904  285.26 0855.41
2009/04/23 07:19:34.2     -10     50     15     52     55 348.4  16.3  33904  285.24 0855.41
2009/04/23 07:19:34.3      10     60     31     61     68   9.8  28.2  33900  285.18 0855.41
2009/04/23 07:19:34.4      12     48     11     50     52  15.1  13.2  33902  285.21 0855.41
2009/04/23 07:19:34.5       2     58      3     59     60   2.7   3.8  33902  285.21 0855.41
2009/04/23 07:19:34.6      -1     57      7     58     59 358.2   6.9  33902  285.23 0855.41
2009/04/23 07:19:34.7      -9     41     11     42     44 347.5  15.3  33900  285.19 0855.41
2009/04/23 07:19:34.8     -12     38     26     40     47 342.2  35.6  33904  285.24 0855.41
2009/04/23 07:19:34.9     -29     61     19     68     71 334.7  16.3  33900  285.19 0855.41
2009/04/23 07:19:35.0     -45     46      8     65     66 315.8   7.1  33902  285.23 0855.41
2009/04/23 07:19:35.1     -62      7     -2     63     64 277.0  -2.2  33900  285.19 0855.41
2009/04/23 07:19:35.2     -58      0    -24     59     63 270.0 -27.4  33902  285.21 0855.41
2009/04/23 07:19:35.3     -45     -7    -23     46     51 260.3 -31.7  33900  285.19 0855.41
2009/04/23 07:19:35.4     -50    -36    -25     63     67 234.0 -27.4  33900  285.18 0855.41
2009/04/23 07:19:35.5     -20    -14    -12     25     27 234.0 -31.6  33900  285.18 0855.41
2009/04/23 07:19:35.6     -14     -3     -8     15     17 254.9 -35.8  33900  285.19 0855.41
2009/04/23 07:19:35.7     -12      0     -6     13     14 270.0 -27.4  33902  285.21 0855.41
2009/04/23 07:19:35.8       3      0    -22      4     22  90.0 -90.0  33904  285.24 0855.41
2009/04/23 07:19:35.9       7     -7    -24     11     26 135.0 -79.4  33902  285.21 0855.41
2009/04/23 07:19:36.0       3    -46    -22     47     51 175.5 -31.5  33906  285.29 0855.41
2009/04/23 07:19:36.1     -54    -70    -39     89     97 217.8 -29.5  33906  285.29 0855.41
2009/04/23 07:19:36.2     -26   -140    -13    143    144 190.7  -5.2  33908  285.31 0855.41
2009/04/23 07:19:36.3     -88   -160     -4    183    184 208.9  -1.3  33910  285.36 0855.41
2009/04/23 07:19:36.4    -136    -50    -57    146    156 249.6 -26.9  33908  285.31 0855.41
2009/04/23 07:19:36.5     -98    -26    -41    102    109 254.9 -27.4  33906  285.29 0855.41
2009/04/23 07:19:36.6     -80     26    -56     85    101 288.4 -40.9  33908  285.33 0855.41
2009/04/23 07:19:36.7       0    -26     -8     27     28 180.9 -23.8  33910  285.34 0855.41
2009/04/23 07:19:36.8      25   -101     -2    105    106 166.2  -1.2  33900  285.19 0855.41
2009/04/23 07:19:36.9      33   -116     23    121    124 164.0  11.1  33900  285.18 0855.41
2009/04/23 07:19:37.0       9    -97     33     98    104 174.7  18.9  33902  285.21 0855.41
2009/04/23 07:19:37.1       6    -77     35     78     85 175.5  25.7  33904  285.24 0855.41
2009/04/23 07:19:37.2       8   -105     57    106    120 175.5  30.8  33904  285.24 0855.41
2009/04/23 07:19:37.3      17    -77     71     79    106 167.5  47.5  33904  285.24 0855.41
2009/04/23 07:19:37.4       6    -81     58     82    100 175.5  39.1  33904  285.26 0855.41
2009/04/23 07:19:37.5     -37    -87     44     95    104 203.2  26.6  33896  285.13 0855.41
2009/04/23 07:19:37.6     -55    -71     47     90    101 217.8  29.8  33902  285.21 0855.41
2009/04/23 07:19:37.7     -33    -83     46     90    101 201.8  29.3  33906  285.28 0855.41
2009/04/23 07:19:37.8      -6    -62     63     63     89 186.2  50.1  33908  285.31 0855.41
2009/04/23 07:19:37.9      18    -59     47     62     77 163.1  40.7  33910  285.36 0855.41
2009/04/23 07:19:38.0       1    -45     52     46     69 178.2  53.3  33912  285.39 0855.41
2009/04/23 07:19:38.1      12    -38     53     40     66 162.2  59.4  33912  285.39 0855.41
2009/04/23 07:19:38.2      28    -45     40     54     67 148.4  39.7  33912  285.39 0855.41
2009/04/23 07:19:38.3      26    -26     38     37     53 135.0  49.1  33914  285.41 0855.41
2009/04/23 07:19:38.4      25    -40     36     48     60 148.4  40.7  33914  285.41 0855.41
2009/04/23 07:19:38.5      28    -42     28     51     58 145.7  31.4  33914  285.43 0855.41
2009/04/23 07:19:38.6      35    -38     29     52     59 137.7  31.4  33914  285.43 0855.41
2009/04/23 07:19:38.7      57    -41     40     71     81 125.9  31.9  33916  285.44 0855.41
2009/04/23 07:19:38.8      61    -33     13     70     72 118.9  11.1  33914  285.43 0855.41
2009/04/23 07:19:38.9      75    -24     11     79     80 108.2   8.5  33916  285.44 0855.41
2009/04/23 07:19:39.0      82    -35     23     90     94 113.5  14.7  33914  285.43 0855.41
2009/04/23 07:19:39.1      77    -30     21     83     86 111.7  14.7  33916  285.44 0855.41
2009/04/23 07:19:39.2      69    -32     25     77     82 115.2  18.4  33914  285.43 0855.41
2009/04/23 07:19:39.3      68    -37     21     78     81 118.9  15.3  33914  285.43 0855.41
2009/04/23 07:19:39.4      59    -22     30     64     70 110.8  27.2  33912  285.39 0855.41
2009/04/23 07:19:39.5      47    -24     31     53     61 117.1  33.5  33916  285.44 0855.41
2009/04/23 07:19:39.6      42    -34     29     55     62 128.6  30.3  33914  285.41 0855.41
2009/04/23 07:19:39.7      59    -22     30     64     70 110.8  27.2  33912  285.39 0855.41
2009/04/23 07:19:39.8      47    -32     15     57     60 124.2  15.3  33912  285.39 0855.41
2009/04/23 07:19:39.9      23    -60      0     65     66 159.1   0.8  33910  285.36 0855.41
2009/04/23 07:19:40.0       8    -62     -8     63     64 172.0  -7.2  33912  285.39 0855.41
2009/04/23 07:19:40.1     -37    -76     16     85     87 205.9  11.1  33912  285.39 0855.41
2009/04/23 07:19:40.2     -29    -92     37     97    103 197.8  21.5  33914  285.43 0855.41
2009/04/23 07:19:40.3     -33    -65     17     74     77 207.2  13.2  33914  285.43 0855.41
2009/04/23 07:19:40.4     -58    -77     -1     97     98 217.4  -1.2  33910  285.36 0855.41
2009/04/23 07:19:40.5     -72   -108      5    131    132 213.8   2.3  33912  285.39 0855.41
2009/04/23 07:19:40.6     -70   -104      6    126    127 214.2   2.9  33914  285.41 0855.41
2009/04/23 07:19:40.7     -46    -95      5    106    107 206.3   2.9  33912  285.39 0855.41
2009/04/23 07:19:40.8     -83    -84      1    119    120 224.5   0.8  33910  285.36 0855.41
2009/04/23 07:19:40.9     -80    -90     27    121    125 221.9  12.6  33914  285.43 0855.41
2009/04/23 07:19:41.0     -77   -119     -1    142    143 213.0  -0.7  33910  285.34 0855.41
2009/04/23 07:19:41.1     -64   -135      7    150    151 205.5   2.8  33910  285.36 0855.41
2009/04/23 07:19:41.2     -38   -109     18    116    118 199.6   8.9  33912  285.38 0855.41
2009/04/23 07:19:41.3     -64   -118     21    135    137 208.5   9.0  33910  285.36 0855.41
2009/04/23 07:19:41.4     -42   -100      8    109    110 202.7   4.4  33912  285.39 0855.41
2009/04/23 07:19:41.5     -10    -80     -1     81     82 187.1  -0.7  33914  285.41 0855.41
2009/04/23 07:19:41.6       4    -93      1     94     95 177.3   0.8  33916  285.44 0855.41
2009/04/23 07:19:41.7     -19    -73     23     76     80 195.1  17.3  33912  285.39 0855.41
2009/04/23 07:19:41.8     -10    -38     55     40     68 195.1  60.5  33914  285.43 0855.41
2009/04/23 07:19:41.9      -1    -49     51     50     71 181.8  50.1  33914  285.43 0855.41
2009/04/23 07:19:42.0       0    -60     58     61     84 179.1  49.0  33916  285.46 0855.41
2009/04/23 07:19:42.1       7    -62     49     63     79 172.9  42.2  33912  285.39 0855.41
2009/04/23 07:19:42.2      -4    -65     51     66     83 183.6  41.7  33916  285.44 0855.41
2009/04/23 07:19:42.3     -18    -49     47     53     70 200.9  46.9  33914  285.41 0855.41
2009/04/23 07:19:42.4      -7    -41     46     42     62 189.8  52.2  33914  285.43 0855.42
2009/04/23 07:19:42.5      -9    -45     44     46     63 191.6  50.0  33912  285.39 0855.42
2009/04/23 07:19:42.6      -8    -12     50     15     52 212.6  82.8  33914  285.41 0855.42
2009/04/23 07:19:42.7      -3      8     29      9     30 334.6  80.7  33916  285.44 0855.42
2009/04/23 07:19:42.8      18     -5     31     19     36 108.2  64.7  33916  285.44 0855.42
2009/04/23 07:19:42.9      54    -13     47     56     73 104.2  43.8  33916  285.46 0855.42
2009/04/23 07:19:43.0      47    -14     50     50     70 106.8  50.1  33916  285.44 0855.42
2009/04/23 07:19:43.1      14     -3     49     15     51 105.1  81.8  33916  285.44 0855.42
2009/04/23 07:19:43.2     -13      0     26     14     29 270.0  68.8  33916  285.44 0855.42
2009/04/23 07:19:43.3     -21     29     29     36     46 323.9  42.7  33916  285.46 0855.42
2009/04/23 07:19:43.4     -24     29     30     38     48 320.4  42.7  33916  285.44 0855.42
2009/04/23 07:19:43.5     -21     32     31     39     49 325.7  43.7  33916  285.46 0855.42
2009/04/23 07:19:43.6     -20      4     33     21     39 281.5  64.7  33916  285.44 0855.42
2009/04/23 07:19:43.7     -19     -6     35     20     40 251.8  67.7  33916  285.44 0855.42
2009/04/23 07:19:43.8     -18     20     34     28     44 318.6  55.4  33916  285.44 0855.42
2009/04/23 07:19:43.9     -20     36     40     42     58 330.1  51.1  33910  285.34 0855.42
2009/04/23 07:19:44.0     -46     42     26     63     68 312.2  23.0  33906  285.28 0855.42
2009/04/23 07:19:44.1     -42     34     38     55     66 309.5  37.6  33902  285.21 0855.42
2009/04/23 07:19:44.2     -48     43     41     65     76 312.2  35.5  33900  285.18 0855.42
2009/04/23 07:19:44.3     -58     54     29     80     85 313.2  20.0  33898  285.16 0855.42
2009/04/23 07:19:44.4     -44     53     13     69     71 320.3  11.1  33902  285.21 0855.42
2009/04/23 07:19:44.5     -57     45     22     73     77 308.6  17.3  33906  285.28 0855.42
2009/04/23 07:19:44.6     -46     38     22     60     63 309.6  20.0  33906  285.29 0855.42
2009/04/23 07:19:44.7     -39     41     29     57     63 316.8  28.2  33908  285.31 0855.42
2009/04/23 07:19:44.8     -41     43     30     60     67 315.8  28.2  33908  285.33 0855.42
2009/04/23 07:19:44.9     -36     39     44     54     69 317.7  43.7  33906  285.28 0855.42
2009/04/23 07:19:45.0     -48     40     50     63     80 309.6  42.7  33908  285.31 0855.42
2009/04/23 07:19:45.1     -59     29     62     66     90 296.2  48.5  33906  285.28 0855.42
2009/04/23 07:19:45.2     -66     26     63     72     95 291.7  45.8  33902  285.23 0855.42
2009/04/23 07:19:45.3     -59      4     70     60     92 274.4  54.8  33904  285.24 0855.42
2009/04/23 07:19:45.4     -76     19     60     79     99 284.2  40.7  33904  285.26 0855.42
2009/04/23 07:19:45.5     -93      4     61     94    112 273.0  35.6  33908  285.33 0855.42
2009/04/23 07:19:45.6     -88     29     20     93     96 288.2  12.2  33906  285.28 0855.42
2009/04/23 07:19:45.7     -57    -19     17     61     64 251.8  16.3  33908  285.33 0855.42
2009/04/23 07:19:45.8     -48     -5     -1     49     50 263.0  -2.2  33908  285.33 0855.42
2009/04/23 07:19:45.9     -37    -34      7     51     52 227.8   8.0  33910  285.34 0855.42
2009/04/23 07:19:46.0     -41    -34      7     54     55 230.5   8.0  33914  285.41 0855.42
2009/04/23 07:19:46.1     -59    -38     16     71     73 237.6  13.2  33912  285.39 0855.42
2009/04/23 07:19:46.2     -51    -24     15     57     60 244.7  15.3  33912  285.39 0855.42
2009/04/23 07:19:46.3     -14    -47     20     50     53 196.9  22.0  33910  285.36 0855.42
2009/04/23 07:19:46.4     -20    -45     22     50     54 204.5  26.2  33910  285.36 0855.41
2009/04/23 07:19:46.5      -1    -31     -2     32     33 182.7  -5.2  33912  285.38 0855.41
2009/04/23 07:19:46.6      -3    -21     -5     22     23 189.8 -13.4  33912  285.39 0855.41
2009/04/23 07:19:46.7       0    -47      6     48     49 179.1   8.0  33910  285.36 0855.41
2009/04/23 07:19:46.8     -10    -81     35     82     89 187.6  24.1  33910  285.34 0855.41
2009/04/23 07:19:46.9     -28    -85     45     90    100 198.7  28.2  33910  285.36 0855.41
2009/04/23 07:19:47.0     -27   -102     73    106    128 195.2  37.6  33912  285.38 0855.41
2009/04/23 07:19:47.1     -74    -94     48    120    129 218.3  23.0  33912  285.38 0855.41
2009/04/23 07:19:47.2     -80    -90     41    121    128 221.9  18.9  33912  285.38 0855.41
2009/04/23 07:19:47.3     -51    -80     33     96    102 212.6  19.2  33910  285.34 0855.41
2009/04/23 07:19:47.4     -42    -55     53     70     87 217.8  41.2  33912  285.39 0855.41
2009/04/23 07:19:47.5     -31    -35     66     47     81 221.4  61.1  33908  285.33 0855.41
2009/04/23 07:19:47.6     -76    -57     42     96    104 233.1  25.1  33914  285.41 0855.41
2009/04/23 07:19:47.7     -78    -78     35    111    117 225.1  17.4  33910  285.34 0855.41
2009/04/23 07:19:47.8     -90    -48     44    103    112 241.6  24.1  33910  285.34 0855.41
2009/04/23 07:19:47.9    -117    -31     50    122    131 255.0  23.1  33908  285.31 0855.41
2009/04/23 07:19:48.0     -67    -51     21     85     88 232.7  14.3  33910  285.34 0855.41
2009/04/23 07:19:48.1     -66    -22     -8     70     71 251.4  -7.2  33912  285.38 0855.41
2009/04/23 07:19:48.2    -120      9     14    121    122 274.3   6.9  33906  285.28 0855.41
2009/04/23 07:19:48.3    -110     15      5    112    113 278.0   2.8  33908  285.33 0855.41
2009/04/23 07:19:48.4    -107     16      4    109    110 278.8   2.3  33906  285.29 0855.41
2009/04/23 07:19:48.5    -112     22     27    115    119 281.4  13.2  33904  285.26 0855.41
2009/04/23 07:19:48.6    -104     80     29    132    136 307.7  12.6  33906  285.28 0855.41
2009/04/23 07:19:48.7     -59     11     71     61     93 280.6  54.8  33908  285.31 0855.41
2009/04/23 07:19:48.8     -99      7     34    100    106 274.3  18.9  33908  285.31 0855.41
2009/04/23 07:19:48.9     -67    -51     21     85     88 232.7  14.3  33908  285.31 0855.41
2009/04/23 07:19:49.1    -133    -84      2    158    159 237.6   0.8  33912  285.38 0855.41
2009/04/23 07:19:49.2    -153    -70    -24    169    171 245.4  -8.2  33908  285.33 0855.41
2009/04/23 07:19:49.3    -133    -44    -17    141    143 251.4  -7.2  33910  285.36 0855.41
2009/04/23 07:19:49.4    -141    -19    -48    143    150 262.1 -23.6  33912  285.39 0855.41
2009/04/23 07:19:49.5    -109    -66    -38    128    133 238.5 -21.7  33908  285.33 0855.41
2009/04/23 07:19:49.6    -109    -58    -22    124    127 241.6 -10.3  33906  285.29 0855.41
2009/04/23 07:19:49.7     -99    -87     -2    133    134 228.7  -1.2  33910  285.36 0855.41
2009/04/23 07:19:49.8    -116   -160      0    198    199 216.0   0.2  33916  285.44 0855.41
2009/04/23 07:19:49.9    -129   -152    -26    200    202 220.5  -7.5  33916  285.44 0855.41
2009/04/23 07:19:50.0     -98   -130     33    164    168 217.0  11.4  33912  285.39 0855.41
2009/04/23 07:19:50.1     -71   -137     53    155    164 207.6  18.9  33908  285.31 0855.41
2009/04/23 07:19:50.2     -83   -142     73    165    180 210.3  25.3  33908  285.33 0855.41
2009/04/23 07:19:50.3     -79   -159     98    178    203 206.5  31.4  33906  285.29 0855.41
2009/04/23 07:19:50.4     -95   -171     64    196    207 209.2  18.1  33914  285.43 0855.41
2009/04/23 07:19:50.5    -100   -181     97    207    228 209.0  27.1  33912  285.39 0855.41
2009/04/23 07:19:50.6    -123   -170     74    211    224 216.0  19.4  33914  285.43 0855.41
2009/04/23 07:19:50.7    -177   -115     88    212    229 236.9  23.8  33916  285.46 0855.41
2009/04/23 07:19:50.8    -111   -122    136    166    214 222.3  43.7  33912  285.38 0855.41
2009/04/23 07:19:50.9    -142   -205    107    250    271 214.7  24.3  33914  285.40 0855.41
2009/04/23 07:19:51.0    -252   -161     50    300    305 237.4   9.5  33906  285.29 0855.41
2009/04/23 07:19:51.1    -155    -21    128    157    202 262.0  43.7  33910  285.36 0855.41
2009/04/23 07:19:51.2    -101    -10     95    102    139 264.3  47.9  33910  285.36 0855.41
2009/04/23 07:19:51.3    -104    -66     73    124    143 237.5  33.5  33910  285.36 0855.41
2009/04/23 07:19:51.4     -77    -25     67     82    105 251.8  43.7  33912  285.39 0855.41
2009/04/23 07:19:51.5    -119    -79     42    144    151 236.3  16.3  33910  285.36 0855.41
2009/04/23 07:19:51.6    -174    -82     23    193    195 244.7   6.9  33912  285.39 0855.41
2009/04/23 07:19:51.7    -162   -102      9    192    193 237.6   2.8  33906  285.29 0855.41
2009/04/23 07:19:51.8    -140    -56     19    151    153 248.2   7.5  33906  285.28 0855.41
2009/04/23 07:19:51.9    -143    -33     21    147    149 256.7   8.5  33900  285.18 0855.41
2009/04/23 07:19:52.0    -129    -47      5    138    139 250.0   2.3  33902  285.23 0855.41
2009/04/23 07:19:52.1    -102    -41     14    111    112 247.8   7.5  33900  285.19 0855.41
2009/04/23 07:19:52.2     -75    -30     22     81     85 248.2  15.3  33904  285.24 0855.41
2009/04/23 07:19:52.3     -94     -5     34     95    100 266.5  20.0  33898  285.14 0855.41
2009/04/23 07:19:52.4    -138    -22     32    140    144 260.8  13.2  33896  285.11 0855.41
2009/04/23 07:19:52.5    -135     -2     -3    136    137 268.7  -1.3  33908  285.31 0855.41
2009/04/23 07:19:52.6    -128     -2    -16    129    131 268.7  -7.3  33904  285.24 0855.41
2009/04/23 07:19:52.7    -120    -24     23    123    126 258.5  10.6  33902  285.21 0855.41
2009/04/23 07:19:52.8    -138     -6     17    139    141 267.4   7.1  33900  285.19 0855.41
2009/04/23 07:19:52.9    -137    -33     22    141    143 256.3   9.0  33902  285.23 0855.41
2009/04/23 07:19:53.0    -138    -76     28    158    161 241.1  10.1  33900  285.19 0855.41
2009/04/23 07:19:53.1    -147    -75     31    166    170 242.9  10.8  33902  285.21 0855.41
2009/04/23 07:19:53.2    -120    -87     30    149    153 234.0  11.6  33902  285.23 0855.41
2009/04/23 07:19:53.3     -91    -94     42    131    138 224.1  17.9  33912  285.39 0855.41
2009/04/23 07:19:53.4     -96    -69     10    119    120 234.1   5.0  33916  285.44 0855.41
2009/04/23 07:19:53.5     -91    -71    -26    116    119 232.2 -12.9  33924  285.58 0855.41
2009/04/23 07:19:53.6    -100   -100     -7    142    143 225.0  -3.1  33924  285.60 0855.41
2009/04/23 07:19:53.7     -73    -94     13    120    121 217.8   6.5  33918  285.48 0855.41
2009/04/23 07:19:53.8     -76   -108      6    133    134 215.2   2.9  33914  285.43 0855.41
2009/04/23 07:19:53.9     -35   -106     22    112    115 198.7  11.1  33910  285.34 0855.41
2009/04/23 07:19:54.0     -53    -93     19    108    110 209.9  10.1  33908  285.31 0855.41
2009/04/23 07:19:54.1     -59    -71     42     93    102 219.6  25.7  33908  285.33 0855.41
2009/04/23 07:19:54.2     -25    -64     34     69     76 201.8  27.3  33908  285.31 0855.41
2009/04/23 07:19:54.3     -49    -39     23     63     67 231.4  20.0  33906  285.29 0855.41
2009/04/23 07:19:54.4     -70    -38     -1     80     81 241.1  -1.3  33906  285.29 0855.41
2009/04/23 07:19:54.5     -56      0    -45     57     72 270.0 -48.1  33908  285.31 0855.41
2009/04/23 07:19:54.6     -31    -31    -18     44     47 225.1 -27.4  33906  285.28 0855.41
2009/04/23 07:19:54.7     -19     -7     -3     21     22 248.3  -9.3  33906  285.29 0855.41
2009/04/23 07:19:54.8     -32     26     -7     42     43 308.6 -10.3  33904  285.26 0855.41
2009/04/23 07:19:54.9     -37     31     -1     49     50 309.5  -2.2  33906  285.29 0855.41
2009/04/23 07:19:55.0     -60     20      0     64     65 289.1   0.8  33908  285.31 0855.41
2009/04/23 07:19:55.1     -64     62     33     90     95 314.0  20.4  33906  285.29 0855.41
2009/04/23 07:19:55.2     -75     59    -11     96     97 308.2  -6.7  33908  285.31 0855.41
2009/04/23 07:19:55.3     -71     43    -29     84     89 301.5 -19.1  33908  285.31 0855.41
2009/04/23 07:19:55.4     -72     45    -12     86     87 302.0  -8.2  33908  285.31 0855.41
2009/04/23 07:19:55.5     -76     52     -3     93     94 304.2  -2.2  33906  285.29 0855.41
2009/04/23 07:19:55.6     -74     67    -18    101    103 312.2 -10.3  33910  285.34 0855.41
2009/04/23 07:19:55.7     -63     87      7    108    109 323.9   3.8  33910  285.36 0855.41
2009/04/23 07:19:55.8     -62     62     37     89     96 315.0  23.6  33908  285.31 0855.41
2009/04/23 07:19:55.9     -52     81     19     97     99 327.4  11.1  33908  285.33 0855.41
2009/04/23 07:19:56.0     -44     69     14     83     85 327.5   9.5  33910  285.36 0855.41
2009/04/23 07:19:56.1     -37     81     -6     90     91 335.1  -4.1  33908  285.33 0855.41
2009/04/23 07:19:56.2      37     93     56    101    115  21.8  31.4  33910  285.36 0855.41
2009/04/23 07:19:56.3      41     91     56    101    115  24.5  31.4  33910  285.36 0855.41
2009/04/23 07:19:56.4      48     58     52     76     92  39.6  37.6  33910  285.34 0855.41
2009/04/23 07:19:56.5      58     39     37     71     80  55.8  29.8  33908  285.31 0855.41
2009/04/23 07:19:56.6      50     33     57     61     83  56.7  48.5  33910  285.34 0855.41
2009/04/23 07:19:56.7      67     80     58    105    119  40.1  31.4  33910  285.36 0855.41
2009/04/23 07:19:56.8      58     58     66     83    106  45.1  42.7  33912  285.38 0855.41
2009/04/23 07:19:56.9      71     46     57     85    102  57.1  37.0  33912  285.39 0855.41
2009/04/23 07:19:57.0      80     58     49    100    111  54.0  27.3  33910  285.36 0855.41
2009/04/23 07:19:57.1      66     66     32     94    100  45.0  18.9  33910  285.34 0855.41
2009/04/23 07:19:57.2      50     79     -2     94     95  32.6  -1.3  33912  285.38 0855.41
2009/04/23 07:19:57.3      56     59     -3     82     83  43.2  -2.2  33912  285.39 0855.41
2009/04/23 07:19:57.4      49     38      6     63     64  52.2   5.9  33912  285.39 0855.40
2009/04/23 07:19:57.5      36     61     -9     72     73  30.7  -7.2  33912  285.39 0855.40
2009/04/23 07:19:57.6      14     72    -21     74     78  11.6 -16.0  33910  285.34 0855.40
2009/04/23 07:19:57.7       5     74    -22     75     78   4.4 -21.7  33912  285.39 0855.40
2009/04/23 07:19:57.8      -9     65    -28     66     71 352.0 -28.5  33908  285.31 0855.40
2009/04/23 07:19:57.9       4     58    -28     59     65   4.5 -31.6  33908  285.31 0855.40
2009/04/23 07:19:58.0      18     47    -28     51     58  20.9 -35.8  33908  285.33 0855.40
2009/04/23 07:19:58.1      18     47    -42     51     66  20.9 -48.1  33908  285.33 0855.40
2009/04/23 07:19:58.2      50     47    -31     69     75  46.9 -31.5  33906  285.28 0855.40
2009/04/23 07:19:58.4       3     22    -29     23     37   9.8 -60.8  33908  285.31 0855.40
2009/04/23 07:19:58.5      11     18    -22     22     31  30.7 -54.5  33906  285.28 0855.40
2009/04/23 07:19:58.6      17     22    -35     28     44  37.8 -61.9  33906  285.29 0855.40
2009/04/23 07:19:58.7       6     18    -40     19     44  18.5 -78.4  33910  285.34 0855.40
2009/04/23 07:19:58.8      45     50    -57     68     88  42.3 -48.7  33920  285.51 0855.40
2009/04/23 07:19:58.9      46     31    -74     56     92  55.8 -62.9  33922  285.55 0855.40
2009/04/23 07:19:59.0      43     17    -72     47     85  68.3 -68.5  33918  285.48 0855.40
2009/04/23 07:19:59.1       9     27    -62     29     68  20.0 -77.5  33918  285.50 0855.40
2009/04/23 07:19:59.2      42     46    -54     63     82  42.3 -49.8  33926  285.61 0855.40
2009/04/23 07:19:59.3      39     51    -49     65     81  37.8 -45.6  33926  285.61 0855.40
2009/04/23 07:19:59.4      24     73    -28     78     82  18.5 -24.8  33920  285.53 0855.40
2009/04/23 07:19:59.5      28     67    -23     73     76  22.7 -23.8  33918  285.50 0855.40
2009/04/23 07:19:59.6      22     75    -26     79     83  16.9 -23.3  33916  285.44 0855.40
2009/04/23 07:19:59.7      14     82    -40     84     93   9.8 -31.6  33918  285.50 0855.40
2009/04/23 07:19:59.8      24     47    -25     53     58  27.2 -31.5  33914  285.41 0855.40
2009/04/23 07:19:59.9      30     63    -11     70     71  25.5  -9.3  33906  285.28 0855.40
2009/04/23 07:20:00.0      16     49    -29     52     59  18.5 -35.8  33910  285.34 0855.40
2009/04/23 07:20:00.1       4     12    -48     13     49  18.3 -89.3  33922  285.55 0855.40
2009/04/23 07:20:00.2     -29     66    -48     73     87 336.4 -40.4  33926  285.61 0855.40
2009/04/23 07:20:00.3    -112     63    -57    129    141 299.3 -29.6  33934  285.75 0855.40
2009/04/23 07:20:00.4    -167     83    -78    187    202 296.4 -28.2  33936  285.78 0855.40
2009/04/23 07:20:00.5    -193     39    -74    197    210 281.5 -25.4  33926  285.63 0855.40
2009/04/23 07:20:00.6    -211     26    -74    213    225 277.2 -23.6  33928  285.66 0855.40
2009/04/23 07:20:00.7    -194     12    -52    195    202 273.7 -15.0  33918  285.48 0855.40
2009/04/23 07:20:00.8    -152     60    -33    164    168 291.7 -11.6  33926  285.63 0855.40
2009/04/23 07:20:00.9    -194     39    -32    198    201 281.4  -9.4  33930  285.68 0855.40
2009/04/23 07:20:01.0    -150     90   -108    176    206 301.1 -39.2  33930  285.70 0855.40
2009/04/23 07:20:01.1    -127     91    -72    157    172 305.5 -30.8  33932  285.73 0855.40
2009/04/23 07:20:01.2     -44    107    -80    116    140 337.7 -42.4  33932  285.73 0855.40
2009/04/23 07:20:01.3     -76     82   -112    112    158 317.2 -54.5  33936  285.80 0855.40
2009/04/23 07:20:01.4    -152     69   -134    168    214 294.6 -47.4  33930  285.70 0855.40
2009/04/23 07:20:01.5    -157    121   -126    199    235 307.5 -39.9  33934  285.75 0855.40
2009/04/23 07:20:01.6    -170    102   -167    199    259 301.1 -48.7  33936  285.77 0855.40
2009/04/23 07:20:01.7    -171     81   -174    190    257 295.4 -51.9  33940  285.84 0855.40
2009/04/23 07:20:01.8    -211     45   -169    216    274 282.2 -46.1  33936  285.77 0855.40
2009/04/23 07:20:01.9    -249     75   -195    261    325 286.8 -45.0  33926  285.61 0855.40
2009/04/23 07:20:02.0    -248    -46   -204    253    325 259.5 -47.5  33934  285.74 0855.40
2009/04/23 07:20:02.1    -257   -141   -166    294    337 241.2 -36.3  33928  285.66 0855.40
2009/04/23 07:20:02.2    -209    -16   -127    210    245 265.4 -38.4  33920  285.52 0855.40
2009/04/23 07:20:02.3    -131     66   -118    147    188 297.0 -47.7  33920  285.53 0855.40
2009/04/23 07:20:02.4    -150     41    -88    156    179 285.5 -36.3  33918  285.48 0855.40
2009/04/23 07:20:02.5     -47     33     65     58     87 305.1  53.3  33922  285.55 0855.40
2009/04/23 07:20:02.6     -85     16     77     87    116 281.0  46.4  33924  285.60 0855.40
2009/04/23 07:20:02.7    -142   -106    -21    178    180 233.4  -6.9  33926  285.61 0855.40
2009/04/23 07:20:02.8    -157      0   -103    158    188 270.0 -40.1  33920  285.51 0855.40
2009/04/23 07:20:02.9    -171    -60    -93    182    204 250.5 -33.7  33920  285.51 0855.40
2009/04/23 07:20:03.0    -142    -18    -51    144    154 262.5 -19.7  33920  285.53 0855.40
2009/04/23 07:20:03.1    -120    -35    -50    126    135 253.6 -27.4  33924  285.58 0855.40
2009/04/23 07:20:03.2    -146     54     73    156    172 290.4  27.0  33924  285.60 0855.40
2009/04/23 07:20:03.3    -137     24     82    140    162 280.1  33.5  33924  285.60 0855.40
2009/04/23 07:20:03.4    -125     22     34    127    132 280.1  15.3  33924  285.60 0855.40
2009/04/23 07:20:03.5     -34     41     32     54     62 320.4  33.5  33924  285.58 0855.41
2009/04/23 07:20:03.6     -25     25     55     36     65 315.0  64.6  33924  285.58 0855.41
2009/04/23 07:20:03.7      -6     87     66     88    110 355.5  40.7  33922  285.55 0855.41
2009/04/23 07:20:03.8      -2    137     66    138    152 359.1  27.2  33920  285.51 0855.41
2009/04/23 07:20:03.9     -35    164     20    168    170 347.7   6.9  33920  285.53 0855.41
2009/04/23 07:20:04.0     -34    163     38    167    172 348.2  12.9  33912  285.38 0855.41
2009/04/23 07:20:04.1     -68    164     98    178    203 337.3  31.4  33916  285.46 0855.41
2009/04/23 07:20:04.2     -72    180      9    195    196 338.2   2.9  33920  285.53 0855.41
2009/04/23 07:20:04.3    -161     88      5    184    185 298.8   1.8  33918  285.50 0855.41
2009/04/23 07:20:04.4    -103    126      1    163    164 320.8   0.5  33918  285.48 0855.41
2009/04/23 07:20:04.6    -109    129     16    170    171 319.7   5.4  33918  285.48 0855.41
2009/04/23 07:20:04.7    -106    161    -17    193    194 326.6  -5.2  33916  285.44 0855.41
2009/04/23 07:20:04.8    -127    146    -38    194    198 318.8 -11.3  33912  285.38 0855.41
2009/04/23 07:20:04.9     -94    117    -23    151    153 321.3  -8.8  33910  285.36 0855.41
2009/04/23 07:20:05.0    -102    102    -63    145    158 315.0 -29.3  33910  285.36 0855.41
2009/04/23 07:20:05.1      -2    153    -41    154    160 359.0 -15.0  33914  285.43 0855.41
2009/04/23 07:20:05.2     -28    174     20    177    179 350.7   6.5  33918  285.48 0855.41
2009/04/23 07:20:05.3     -72    149     87    166    187 334.1  29.5  33916  285.46 0855.41
2009/04/23 07:20:05.4     -50    167     92    175    197 343.3  29.8  33918  285.48 0855.41
2009/04/23 07:20:05.5      36    146     54    151    160  13.8  20.2  33916  285.46 0855.40
2009/04/23 07:20:05.6      72    113     56    135    146  32.5  23.1  33924  285.58 0855.40
2009/04/23 07:20:05.7      49    146     30    155    159  18.7  11.1  33920  285.53 0855.40
2009/04/23 07:20:05.8      42    106     82    115    141  21.8  39.5  33916  285.46 0855.40
2009/04/23 07:20:05.9      16     85     74     87    114  10.7  44.8  33918  285.50 0855.40
2009/04/23 07:20:06.0     -16     65     56     68     88 345.7  43.8  33918  285.50 0855.40
2009/04/23 07:20:06.1      15     35     49     39     62  23.6  56.4  33918  285.50 0855.40
2009/04/23 07:20:06.2       0     49     47     50     68 359.1  49.0  33916  285.46 0855.40
2009/04/23 07:20:06.3     -45     45    108     64    125 315.0  66.7  33916  285.46 0855.40
2009/04/23 07:20:06.4     -11     85     61     86    105 352.4  39.1  33918  285.48 0855.40
2009/04/23 07:20:06.5     -31     31     70     44     82 314.9  64.7  33920  285.51 0855.40
2009/04/23 07:20:06.6     -46     21     62     51     80 295.4  56.4  33916  285.44 0855.40
2009/04/23 07:20:06.7     -52     13     49     54     72 284.2  47.9  33918  285.50 0855.40
2009/04/23 07:20:06.8     -22      0     44     23     49 270.0  70.8  33916  285.44 0855.40
2009/04/23 07:20:06.9      -8      8     37     12     38 313.1  80.7  33912  285.38 0855.40
2009/04/23 07:20:07.0       4      7     29      9     30  32.5  80.7  33912  285.38 0855.40
2009/04/23 07:20:07.1      41     -9     41     43     59 103.3  49.0  33914  285.41 0855.40
2009/04/23 07:20:07.2      35    -35     25     50     55 134.9  28.2  33914  285.41 0855.40
2009/04/23 07:20:07.3      78     -2     70     79    105  91.7  46.4  33914  285.43 0855.40
2009/04/23 07:20:07.4      73     94    104    120    158  37.8  45.4  33918  285.48 0855.40
2009/04/23 07:20:07.5     109     74     82    132    155  55.8  35.5  33922  285.55 0855.40
2009/04/23 07:20:07.6      59    115     76    130    150  27.2  33.4  33918  285.48 0855.40
2009/04/23 07:20:07.7      69    114     66    134    149  31.2  27.8  33924  285.60 0855.40
2009/04/23 07:20:07.8      42     99     82    108    135  23.2  41.6  33924  285.58 0855.40
2009/04/23 07:20:07.9     102    102     69    145    160  45.2  27.2  33924  285.58 0855.40
2009/04/23 07:20:08.0     102    108     69    149    164  43.2  26.6  33922  285.55 0855.40
2009/04/23 07:20:08.1      78    107     47    133    141  36.1  20.4  33924  285.58 0855.40
2009/04/23 07:20:08.2      59    101     37    118    124  30.3  17.4  33926  285.61 0855.40
2009/04/23 07:20:08.3      36    111     30    117    121  18.3  14.7  33924  285.58 0855.40
2009/04/23 07:20:08.4      88    108     27    140    143  39.2  11.1  33924  285.58 0855.40
2009/04/23 07:20:08.5     119    100     31    156    160  50.0  11.4  33924  285.58 0855.40
2009/04/23 07:20:08.6     174     91     29    197    200  62.2   8.5  33920  285.51 0855.40
2009/04/23 07:20:08.7     172     68     39    186    191  68.3  12.0  33920  285.51 0855.40
2009/04/23 07:20:08.8     177     65     36    189    193  69.6  11.0  33918  285.48 0855.40
2009/04/23 07:20:08.9     151     60     15    163    164  68.3   5.4  33920  285.51 0855.40
2009/04/23 07:20:09.0     118     97     -3    153    154  50.5  -1.3  33918  285.48 0855.40
2009/04/23 07:20:09.1      63    129     22    144    146  26.3   8.9  33920  285.51 0855.40
2009/04/23 07:20:09.2     135    127     52    186    194  46.9  15.6  33920  285.51 0855.40
2009/04/23 07:20:09.3     154    163    -12    225    226  43.3  -3.3  33916  285.46 0855.40
2009/04/23 07:20:09.4     116    127     35    173    177  42.5  11.6  33918  285.48 0855.40
2009/04/23 07:20:09.5      91    133     55    162    172  34.3  18.9  33918  285.50 0855.39
2009/04/23 07:20:09.6     110     75     69    134    150  55.8  29.3  33920  285.53 0855.39
2009/04/23 07:20:09.7      70     90     70    115    134  37.8  35.0  33920  285.51 0855.39
2009/04/23 07:20:09.8     103     40     30    111    116  68.7  15.2  33920  285.53 0855.39
2009/04/23 07:20:09.9     152     65    -25    166    168  66.7  -8.8  33920  285.51 0855.39
2009/04/23 07:20:10.0     153    119     10    195    196  52.2   3.1  33918  285.50 0855.39
2009/04/23 07:20:10.1     181     92     40    204    208  63.0  11.1  33918  285.48 0855.39
2009/04/23 07:20:10.2     158     84     66    179    190  62.0  20.7  33918  285.50 0855.39
2009/04/23 07:20:10.3     126     68     67    144    158  61.6  26.6  33918  285.48 0855.39
2009/04/23 07:20:10.4     124    115     71    170    184  47.1  23.6  33922  285.55 0855.39
2009/04/23 07:20:10.5     137    103     60    172    183  53.1  19.2  33922  285.55 0855.40
2009/04/23 07:20:10.6     154     94     59    181    191  58.5  18.1  33920  285.53 0855.40
2009/04/23 07:20:10.7     185     75     85    200    217  67.8  24.3  33916  285.46 0855.40
2009/04/23 07:20:10.8     165     69    104    180    207  67.2  32.9  33916  285.46 0855.40
2009/04/23 07:20:10.9     159     90     35    183    187  60.5  11.0  33920  285.51 0855.40
2009/04/23 07:20:11.0     159     94     -7    185    186  59.3  -2.2  33920  285.51 0855.40
2009/04/23 07:20:11.1     150     91     33    176    180  58.7  10.8  33918  285.50 0855.40
2009/04/23 07:20:11.2     137     90     17    165    166  56.7   5.9  33918  285.50 0855.40
2009/04/23 07:20:11.3     102     89     37    136    141  48.7  15.3  33920  285.53 0855.40
2009/04/23 07:20:11.4     149     55     57    160    169  69.6  20.0  33918  285.50 0855.40
2009/04/23 07:20:11.5     138     40     48    144    153  73.6  18.6  33916  285.44 0855.40
2009/04/23 07:20:11.6     155     37     11    160    161  76.3   4.2  33916  285.44 0855.40
2009/04/23 07:20:11.7     162     -6     61    163    174  92.4  21.3  33912  285.39 0855.40
2009/04/23 07:20:11.8     127     -1     30    128    132  90.8  13.2  33914  285.41 0855.40
2009/04/23 07:20:11.9     129      0     31    130    134  90.0  13.7  33916  285.46 0855.40
2009/04/23 07:20:12.0     140     10     38    141    147  85.6  15.3  33918  285.50 0855.40
2009/04/23 07:20:12.1     142     10     28    143    146  85.7  11.1  33920  285.53 0855.40
2009/04/23 07:20:12.2     139      3     34    140    145  88.7  13.7  33920  285.53 0855.40
2009/04/23 07:20:12.3     128      9     24    129    132  85.6  10.6  33918  285.50 0855.40
2009/04/23 07:20:12.4     124      8     58    125    137  86.1  26.6  33916  285.46 0855.40
2009/04/23 07:20:12.5     105     -3     36    106    113  91.7  18.9  33918  285.50 0855.40
2009/04/23 07:20:12.6      80      1     44     81     92  89.1  30.8  33918  285.50 0855.40
2009/04/23 07:20:12.7      83      0     28     84     89  90.0  18.9  33916  285.44 0855.40
2009/04/23 07:20:12.8      42    -24     19     49     52 119.8  22.0  33916  285.46 0855.40
2009/04/23 07:20:12.9      32    -36      7     49     50 137.7   9.0  33916  285.46 0855.40
2009/04/23 07:20:13.0       8    -26     11     28     30 161.3  21.0  33916  285.44 0855.40
2009/04/23 07:20:13.1      25    -22      4     34     35 131.3   6.9  33914  285.43 0855.40
2009/04/23 07:20:13.2      23     -7     14     25     28 108.6  31.4  33916  285.46 0855.40
2009/04/23 07:20:13.3      15    -13     27     20     33 131.3  58.5  33916  285.46 0855.40
2009/04/23 07:20:13.4      30    -38     32     49     58 141.3  35.6  33912  285.39 0855.40
2009/04/23 07:20:13.5      76    -19     32     79     85 104.2  23.0  33914  285.43 0855.40
2009/04/23 07:20:13.6      51     -6     40     52     65  97.0  41.7  33914  285.43 0855.40
2009/04/23 07:20:13.7      -4    -53     35     54     64 184.5  35.6  33912  285.39 0855.40
2009/04/23 07:20:13.8      -1    -37     61     38     71 182.6  64.7  33908  285.33 0855.40
2009/04/23 07:20:13.9      -9    -42     73     44     85 192.5  65.7  33912  285.39 0855.40
2009/04/23 07:20:14.0     -48    -40     25     63     67 230.5  23.0  33912  285.39 0855.40
2009/04/23 07:20:14.1     -66     15    -24     68     73 283.3 -19.7  33914  285.43 0855.40
2009/04/23 07:20:14.2    -100      7    -43    101    109 274.4 -29.0  33916  285.44 0855.40
2009/04/23 07:20:14.3    -101     33    -53    107    119 288.2 -33.1  33916  285.46 0855.40
2009/04/23 07:20:14.4     -89     18    -80     91    121 281.5 -50.2  33916  285.44 0855.40
2009/04/23 07:20:14.5    -110     22    -65    113    130 281.5 -37.3  33914  285.43 0855.40
2009/04/23 07:20:14.6     -91     30    -68     97    118 288.6 -43.0  33918  285.48 0855.40
2009/04/23 07:20:14.7     -70     51    -69     87    111 306.4 -47.7  33918  285.48 0855.40
2009/04/23 07:20:14.8    -103    -66    -52    123    133 237.1 -28.5  33916  285.44 0855.40
2009/04/23 07:20:14.9    -100     -3   -120    101    156 267.9 -60.0  33918  285.50 0855.40
2009/04/23 07:20:15.0    -138    -30   -139    142    198 257.6 -54.2  33918  285.48 0855.40
2009/04/23 07:20:15.1    -157    -12   -134    158    207 265.6 -48.9  33916  285.44 0855.40
2009/04/23 07:20:15.2    -144     57    -98    156    184 291.8 -39.9  33916  285.46 0855.40
2009/04/23 07:20:15.3    -145     -8    -86    146    169 266.5 -37.9  33918  285.48 0855.40
2009/04/23 07:20:15.4    -186    -14   -113    187    218 265.4 -38.4  33914  285.43 0855.40
2009/04/23 07:20:15.5    -175     24    -74    177    191 278.1 -28.2  33916  285.44 0855.40
2009/04/23 07:20:15.6    -163    -27    -21    166    168 260.5  -7.2  33914  285.41 0855.40
2009/04/23 07:20:15.7    -134    -53    -19    145    147 248.2  -7.7  33910  285.34 0855.40
2009/04/23 07:20:15.8     -59    -59      4     84     85 225.0   2.9  33914  285.43 0855.40
2009/04/23 07:20:15.9     -55     -8     40     56     68 261.2  39.5  33914  285.43 0855.40
2009/04/23 07:20:16.0     -43     -2     38     44     58 266.5  45.8  33914  285.41 0855.40
2009/04/23 07:20:16.1     -60     15     20     62     66 284.2  18.4  33914  285.43 0855.40
2009/04/23 07:20:16.2     -82     -8     21     83     86 263.9  14.7  33912  285.38 0855.40
2009/04/23 07:20:16.3     -82    -34     12     89     90 247.4   8.0  33912  285.39 0855.40
2009/04/23 07:20:16.4     -62    -74     46     97    107 220.1  27.1  33912  285.38 0855.40
2009/04/23 07:20:16.5    -112    -44     37    121    127 248.3  17.3  33912  285.38 0855.40
2009/04/23 07:20:16.6    -120    -50     41    131    138 247.4  17.3  33912  285.38 0855.40
2009/04/23 07:20:16.7    -104    -66     46    124    132 237.6  21.0  33910  285.36 0855.40
2009/04/23 07:20:16.8     -75    -26     27     80     85 250.9  19.2  33910  285.34 0855.40
2009/04/23 07:20:16.9    -103     14     13    105    106 278.0   7.5  33916  285.46 0855.40
2009/04/23 07:20:17.0     -64     40    -13     76     78 302.4 -10.3  33914  285.43 0855.40
2009/04/23 07:20:17.1     -53     44    -24     69     74 309.6 -19.7  33916  285.46 0855.40
2009/04/23 07:20:17.2    -137     -5    -78    138    158 267.9 -36.5  33916  285.44 0855.40
2009/04/23 07:20:17.3    -165    -85    -15    186    187 242.5  -4.9  33910  285.34 0855.40
2009/04/23 07:20:17.4     -93    162    -33    187    190 330.1 -10.1  33912  285.39 0855.40
2009/04/23 07:20:17.5    -165    122    -65    206    217 306.6 -17.6  33920  285.53 0855.40
2009/04/23 07:20:17.6    -210     83    -81    227    242 291.7 -19.7  33916  285.45 0855.40
2009/04/23 07:20:17.7    -151    111    -80    188    204 306.4 -29.0  33916  285.44 0855.40
2009/04/23 07:20:17.8    -176     64    -27    188    190 290.2  -8.2  33914  285.41 0855.40
2009/04/23 07:20:17.9    -178     71    -53    192    200 291.8 -15.5  33914  285.41 0855.40
2009/04/23 07:20:18.0    -145     63    -52    159    168 293.5 -18.1  33916  285.46 0855.40
2009/04/23 07:20:18.1    -183     83    -80    201    216 294.4 -27.4  33920  285.51 0855.40
2009/04/23 07:20:18.2    -168    117    -63    205    214 304.9 -22.1  33926  285.63 0855.40
2009/04/23 07:20:18.3    -175    110    -59    207    215 302.2 -21.0  33920  285.53 0855.40
2009/04/23 07:20:18.4    -142     94    -50    171    178 303.7 -21.0  33920  285.51 0855.40
2009/04/23 07:20:18.5    -163    122    -45    204    210 306.9 -12.6  33918  285.50 0855.39
2009/04/23 07:20:18.6    -174    151    -49    231    237 310.9 -12.2  33918  285.47 0855.39
2009/04/23 07:20:18.7    -163    133    -27    211    213 309.1  -7.3  33920  285.53 0855.39
2009/04/23 07:20:18.8    -137    104    -38    173    178 307.3 -12.6  33920  285.53 0855.39
2009/04/23 07:20:18.9     -90    124    -45    154    160 324.0 -21.2  33916  285.46 0855.39
2009/04/23 07:20:19.0     -78     32    -56     85    101 292.6 -40.9  33914  285.43 0855.39
2009/04/23 07:20:19.1     -54    -17    -51     57     76 251.8 -52.3  33914  285.43 0855.39
2009/04/23 07:20:19.2     -75    -50    -25     91     94 236.3 -20.7  33914  285.41 0855.39
2009/04/23 07:20:19.3     -50    -28     -7     58     59 241.1  -7.3  33914  285.43 0855.39
2009/04/23 07:20:19.4     -42    -42    -10     60     61 225.0 -10.3  33912  285.39 0855.39
2009/04/23 07:20:19.5     -52    -39    -22     66     69 233.1 -23.6  33912  285.39 0855.39
2009/04/23 07:20:19.6     -49    -48    -24     69     74 225.9 -19.6  33914  285.41 0855.39
2009/04/23 07:20:19.7     -17    -66     -2     69     70 194.3  -2.2  33912  285.39 0855.39
2009/04/23 07:20:19.8       4    -54      1     55     56 175.6   1.8  33912  285.39 0855.39
2009/04/23 07:20:19.9      33    -42     20     54     57 141.3  20.0  33912  285.38 0855.39
2009/04/23 07:20:20.0      31    -39     17     50     53 141.3  19.2  33912  285.39 0855.39
2009/04/23 07:20:20.1      26    -29     26     40     47 138.6  35.6  33914  285.41 0855.39
2009/04/23 07:20:20.2      45    -45     44     65     78 135.0  36.5  33912  285.39 0855.39
2009/04/23 07:20:20.3      33    -40     32     53     61 140.4  34.4  33914  285.41 0855.39
2009/04/23 07:20:20.4      34    -46     22     58     62 143.0  22.0  33912  285.39 0855.39
2009/04/23 07:20:20.6      32    -65     34     73     80 153.7  26.6  33914  285.41 0855.39
2009/04/23 07:20:20.6      45    -37     43     59     73 129.6  39.7  33916  285.44 0855.39
2009/04/23 07:20:20.7      40    -59     24     72     77 145.7  18.9  33914  285.41 0855.39
2009/04/23 07:20:20.8      14    -72     26     74     79 168.5  19.4  33912  285.39 0855.39
2009/04/23 07:20:20.9      23    -72      3     76     77 161.7   2.9  33912  285.38 0855.39
2009/04/23 07:20:21.0      39    -42     -4     58     59 137.7  -4.1  33910  285.36 0855.39
2009/04/23 07:20:21.1      55    -39     18     68     71 125.1  15.3  33910  285.36 0855.39
2009/04/23 07:20:21.2      35    -62      4     72     73 150.1   3.8  33912  285.39 0855.39
2009/04/23 07:20:21.3      23    -69      3     73     74 161.5   2.9  33912  285.38 0855.39
2009/04/23 07:20:21.4      12    -61     19     63     67 168.5  17.3  33910  285.36 0855.39
2009/04/23 07:20:21.5      13    -45     47     48     67 163.1  51.1  33910  285.36 0855.39
2009/04/23 07:20:21.6       8    -62     48     63     79 171.9  41.2  33912  285.39 0855.39
2009/04/23 07:20:21.7       4    -57     32     58     66 175.5  31.4  33912  285.39 0855.39
2009/04/23 07:20:21.8      -2    -15     30     16     34 188.0  70.8  33910  285.36 0855.39
2009/04/23 07:20:22.0     -20     19     38     28     47 313.3  59.4  33908  285.33 0855.39
2009/04/23 07:20:22.1     -21     13     31     26     40 302.4  55.4  33906  285.29 0855.39
2009/04/23 07:20:22.2     -32     20     20     39     43 302.4  28.2  33908  285.31 0855.39
2009/04/23 07:20:22.3     -24     20     15     32     35 309.6  27.2  33908  285.31 0855.39
2009/04/23 07:20:22.4     -15      7     22     17     27 295.3  58.5  33906  285.29 0855.39
2009/04/23 07:20:22.5     -36     -7     31     37     48 258.6  45.8  33906  285.29 0855.39
2009/04/23 07:20:22.6     -35     -7     17     36     39 258.5  26.2  33906  285.29 0855.39
2009/04/23 07:20:22.7     -22     -7     11     24     26 251.8  25.1  33908  285.31 0855.39
2009/04/23 07:20:22.8     -23     -4      8     24     26 260.3  19.4  33910  285.34 0855.39
2009/04/23 07:20:22.9     -33      3      4     34     35 276.1   6.9  33910  285.34 0855.39
2009/04/23 07:20:23.0      -9     17     -4     20     21 331.0 -11.3  33910  285.34 0855.39
2009/04/23 07:20:23.1      -2     42      0     43     44 356.4   0.8  33908  285.33 0855.39
2009/04/23 07:20:23.2       0     48      5     49     50 359.1   5.9  33908  285.31 0855.39
2009/04/23 07:20:23.3       9     45      0     46     47  11.6  -0.3  33908  285.31 0855.39
2009/04/23 07:20:23.4      18     45     -4     49     50  21.8  -5.2  33906  285.29 0855.39
2009/04/23 07:20:23.5       3     43     -6     44     45   4.5  -8.2  33908  285.31 0855.39
2009/04/23 07:20:23.6      -5     31    -24     32     40 350.2 -45.1  33910  285.36 0855.39
2009/04/23 07:20:23.7      -3     10     -7     11     13 341.5 -39.9  33910  285.36 0855.39
2009/04/23 07:20:23.8      -7    -10      0     13     14 216.1  -2.2  33908  285.33 0855.39
2009/04/23 07:20:23.9     -28    -55     53     62     81 207.2  45.4  33906  285.28 0855.39
2009/04/23 07:20:24.0     -22    -46     57     52     77 205.5  52.2  33906  285.28 0855.39
2009/04/23 07:20:24.1     -28    -26     38     39     54 226.9  51.1  33904  285.26 0855.39
2009/04/23 07:20:24.2     -11    -34      7     36     37 198.3  11.1  33904  285.24 0855.39
2009/04/23 07:20:24.3       8    -14     -5     17     17 151.0 -23.8  33904  285.24 0855.39
2009/04/23 07:20:24.4       1      0      5      2      5  90.0  81.0  33906  285.28 0855.39
2009/04/23 07:20:24.5       5    -41     40     42     58 172.0  51.1  33910  285.34 0855.38
2009/04/23 07:20:24.6      -7   -100     84    101    131 184.5  43.8  33926  285.61 0855.38
2009/04/23 07:20:24.7      26   -102     66    106    124 165.7  35.5  33924  285.60 0855.38
2009/04/23 07:20:24.8      50    -87     75    101    125 149.7  40.1  33922  285.56 0855.38
2009/04/23 07:20:24.9     -18    -86     62     88    107 192.0  39.5  33924  285.60 0855.38
2009/04/23 07:20:25.0     -14   -114     76    115    137 187.1  36.5  33928  285.66 0855.38
2009/04/23 07:20:25.1      -4   -151    125    152    196 181.8  43.7  33924  285.58 0855.38
2009/04/23 07:20:25.2      21   -148    116    150    189 171.9  42.0  33924  285.58 0855.38
2009/04/23 07:20:25.3      16   -156    109    157    191 173.8  38.4  33920  285.53 0855.38
2009/04/23 07:20:25.4      44   -121    102    129    164 160.0  42.2  33922  285.55 0855.38
2009/04/23 07:20:25.5     -30   -128    146    132    196 193.4  53.3  33924  285.60 0855.38
2009/04/23 07:20:25.6     -92   -163     65    188    200 209.6  19.2  33922  285.55 0855.38
2009/04/23 07:20:25.7     -96   -110     44    147    154 221.0  16.8  33922  285.56 0855.38
2009/04/23 07:20:25.9      23    -15    108     28    111 122.4  84.9  33916  285.46 0855.38
2009/04/23 07:20:25.9     113    -37    124    119    171 108.2  51.2  33922  285.55 0855.38
2009/04/23 07:20:26.0      23    -49    111     55    123 154.6  71.4  33918  285.50 0855.38
2009/04/23 07:20:26.1     -53    -84    128    100    162 212.6  57.9  33922  285.55 0855.38
2009/04/23 07:20:26.3      35    -22    112     42    119 122.5  79.1  33922  285.55 0855.38
2009/04/23 07:20:26.4     -10    -81    101     82    130 187.6  56.4  33922  285.56 0855.38
2009/04/23 07:20:26.5      59   -124    111    138    177 154.7  43.3  33924  285.58 0855.38
2009/04/23 07:20:26.6      32   -111    125    116    170 163.5  52.5  33924  285.60 0855.39
2009/04/23 07:20:26.7      -5   -108    142    109    179 182.7  58.7  33926  285.61 0855.39
2009/04/23 07:20:26.8      -8   -101    110    102    150 184.9  52.2  33926  285.61 0855.39
2009/04/23 07:20:26.9      -9   -117    155    118    194 184.4  59.0  33924  285.60 0855.39
2009/04/23 07:20:27.0      56   -123     88    136    161 155.5  35.7  33920  285.53 0855.39
2009/04/23 07:20:27.1      96    -84    108    128    167 131.3  44.5  33922  285.56 0855.39
2009/04/23 07:20:27.2      71    -96    142    120    185 143.5  55.8  33926  285.63 0855.39
2009/04/23 07:20:27.3      22    -87    108     90    140 165.7  56.3  33926  285.63 0855.39
2009/04/23 07:20:27.4      -1   -111     98    112    148 180.9  45.8  33928  285.65 0855.39
2009/04/23 07:20:27.5      21    -63     88     67    110 161.7  59.0  33924  285.60 0855.39
2009/04/23 07:20:27.6      30    -48     58     57     81 147.4  50.1  33924  285.60 0855.39
2009/04/23 07:20:27.7      10    -46     51     48     70 167.5  52.1  33924  285.58 0855.39
2009/04/23 07:20:27.8      -6    -18     33     20     38 200.0  64.7  33924  285.58 0855.39
2009/04/23 07:20:27.9     -23    -23     37     33     49 225.0  53.3  33926  285.63 0855.39
2009/04/23 07:20:28.0     -23    -17     31     29     42 234.0  51.2  33924  285.60 0855.39
2009/04/23 07:20:28.1     -40    -16     39     44     58 247.4  46.9  33924  285.60 0855.39
2009/04/23 07:20:28.2     -31    -13     23     34     41 246.5  37.6  33924  285.60 0855.39
2009/04/23 07:20:28.3     -52      4     14     53     55 275.2  15.3  33924  285.60 0855.39
2009/04/23 07:20:28.4     -49     16      2     52     53 288.2   2.8  33924  285.60 0855.39
2009/04/23 07:20:28.5     -41     31     53     52     74 307.8  49.1  33926  285.61 0855.39
2009/04/23 07:20:28.6     -22     66     53     70     87 341.3  41.2  33928  285.66 0855.38
2009/04/23 07:20:28.7       0    104    -13    105    106 359.5  -7.2  33928  285.66 0855.38
2009/04/23 07:20:28.8      47    105     14    116    117  24.1   7.1  33926  285.61 0855.38
2009/04/23 07:20:28.9      85     88     42    123    131  44.1  18.9  33926  285.61 0855.38
2009/04/23 07:20:29.0      79     30     73     85    112  69.2  44.8  33926  285.63 0855.38
2009/04/23 07:20:29.1      13    -66    139     68    154 168.4  72.8  33926  285.63 0855.38
2009/04/23 07:20:29.2     -64   -136     97    151    179 205.5  35.7  33924  285.60 0855.38
2009/04/23 07:20:29.3     -67   -121     49    139    147 209.0  20.0  33924  285.58 0855.38
2009/04/23 07:20:29.4     -80   -135     16    158    159 210.7   6.1  33924  285.60 0855.38
2009/04/23 07:20:29.5     -58   -143     -8    155    156 202.3  -3.2  33926  285.61 0855.38
2009/04/23 07:20:29.6     -78   -196     -4    212    213 201.9  -1.3  33924  285.58 0855.38
2009/04/23 07:20:29.7     -56   -169     -7    179    180 198.5  -2.3  33924  285.58 0855.38
2009/04/23 07:20:29.8     -86   -182    -25    202    204 205.3  -7.2  33924  285.58 0855.38
2009/04/23 07:20:29.9     -94   -197    -36    219    222 205.5  -9.3  33924  285.58 0855.38
2009/04/23 07:20:30.0    -147   -148    -32    210    213 224.8  -8.8  33916  285.44 0855.38
2009/04/23 07:20:30.1    -132   -170    -63    216    226 217.8 -16.4  33922  285.56 0855.38
2009/04/23 07:20:30.2    -143   -126    -64    191    201 228.7 -23.6  33920  285.53 0855.38
2009/04/23 07:20:30.3    -167    -58    -51    177    184 250.7 -21.0  33914  285.41 0855.38
2009/04/23 07:20:30.4    -135      6     26    136    139 272.6  11.1  33918  285.50 0855.38
2009/04/23 07:20:30.5     -98     45      5    109    110 294.8   2.9  33922  285.56 0855.38
2009/04/23 07:20:30.6    -110     13     20    111    113 277.0  10.6  33916  285.46 0855.39
2009/04/23 07:20:30.7     -77     63     84    100    130 309.1  43.8  33916  285.44 0855.39
2009/04/23 07:20:30.8    -108     64     44    126    134 300.7  19.4  33918  285.48 0855.39
2009/04/23 07:20:30.9    -186   -102    -42    213    218 241.1 -11.3  33972  286.39 0855.39
2009/04/23 07:20:31.0     -72     38     49     82     95 298.0  34.4  33916  285.44 0855.39
2009/04/23 07:20:31.1     -80     26     23     85     89 288.4  15.3  33920  285.51 0855.39
2009/04/23 07:20:31.2     -66     27     22     72     76 292.6  17.3  33920  285.51 0855.39
2009/04/23 07:20:31.3     -82     22     19     86     89 285.5  12.6  33920  285.53 0855.39
2009/04/23 07:20:31.4    -135     19     33    137    141 278.4  13.7  33918  285.48 0855.39
2009/04/23 07:20:31.5    -155    -46     53    162    171 253.2  18.1  33910  285.36 0855.39
2009/04/23 07:20:31.6    -154    -16     66    155    168 263.9  24.3  33906  285.29 0855.39
2009/04/23 07:20:31.7    -143      0     50    144    153 269.6  19.4  33904  285.26 0855.39
2009/04/23 07:20:31.8    -108    -19     42    110    117 259.9  22.0  33904  285.26 0855.39
2009/04/23 07:20:31.9     -80    -50     36     95    101 238.0  21.5  33912  285.39 0855.39
2009/04/23 07:20:32.0     -57    -65     43     87     97 221.4  27.8  33914  285.41 0855.39
2009/04/23 07:20:32.1     -36    -66     74     76    106 209.0  50.0  33912  285.39 0855.39
2009/04/23 07:20:32.2     -87    -57     74    105    128 236.7  38.6  33910  285.34 0855.39
2009/04/23 07:20:32.3     -52    -91     61    106    122 209.9  32.4  33918  285.50 0855.39
2009/04/23 07:20:32.4     -38    -91     42     99    107 202.7  23.6  33920  285.53 0855.39
2009/04/23 07:20:32.5     -37    -51     18     64     67 216.1  16.3  33918  285.48 0855.39
2009/04/23 07:20:32.6     -47    -44     17     65     68 226.9  15.3  33916  285.44 0855.39
2009/04/23 07:20:32.7     -63    -54      7     84     85 229.1   4.9  33910  285.36 0855.39
2009/04/23 07:20:32.8     -78    -85     15    116    117 222.8   7.5  33912  285.39 0855.39
2009/04/23 07:20:32.9     -60    -95    -31    113    117 212.5 -20.2  33916  285.44 0855.39
2009/04/23 07:20:33.0     -64   -120     26    137    140 208.1  11.0  33912  285.39 0855.39
2009/04/23 07:20:33.1     -83    -94     53    126    136 221.4  24.1  33920  285.53 0855.39
2009/04/23 07:20:33.2    -101   -145     34    177    181 215.0  11.0  33918  285.48 0855.39
2009/04/23 07:20:33.3    -131   -138    -25    191    193 223.3  -7.5  33922  285.56 0855.39
2009/04/23 07:20:33.4     -96   -117     -5    152    153 219.6  -2.2  33918  285.50 0855.39
2009/04/23 07:20:33.5     -88   -129    -46    157    164 214.3 -16.4  33922  285.55 0855.39
2009/04/23 07:20:33.6     -68   -149    -25    164    166 204.5  -8.8  33924  285.58 0855.39
2009/04/23 07:20:33.7     -21   -147    -47    149    157 188.5 -17.5  33922  285.56 0855.39
2009/04/23 07:20:33.8      -2   -147     -8    148    149 180.9  -3.1  33924  285.60 0855.39
2009/04/23 07:20:33.9     -21   -103     85    106    135 191.5  43.3  33922  285.56 0855.39
2009/04/23 07:20:34.0      -2    -87     79     88    118 181.8  46.9  33924  285.58 0855.39
2009/04/23 07:20:34.1       0    -61     65     62     89 180.9  51.2  33922  285.56 0855.39
2009/04/23 07:20:34.2      24   -141     11    144    145 170.2   4.4  33922  285.56 0855.39
2009/04/23 07:20:34.3      27   -159     54    162    171 170.2  18.4  33922  285.55 0855.39
2009/04/23 07:20:34.4       6   -162     56    163    173 177.8  19.2  33920  285.53 0855.39
2009/04/23 07:20:34.5     -41   -150     57    156    166 195.6  20.4  33920  285.53 0855.39
2009/04/23 07:20:34.6       2   -162     46    163    170 179.3  16.0  33922  285.55 0855.39
2009/04/23 07:20:34.7      10   -150     35    151    156 176.0  13.2  33922  285.56 0855.39
2009/04/23 07:20:34.8      -8   -150     58    151    161 183.1  22.0  33924  285.60 0855.39
2009/04/23 07:20:34.9     -90   -147     75    173    188 211.4  24.9  33922  285.55 0855.39
2009/04/23 07:20:35.0    -126   -136     48    186    193 222.8  14.5  33920  285.51 0855.39
2009/04/23 07:20:35.1    -154   -145     43    212    217 226.8  11.4  33918  285.50 0855.39
2009/04/23 07:20:35.2    -125   -158     41    202    207 218.3  11.4  33920  285.51 0855.39
2009/04/23 07:20:35.3     -93   -152     59    179    189 211.6  18.4  33920  285.53 0855.39
2009/04/23 07:20:35.4     -86   -145     12    169    170 210.7   4.4  33920  285.53 0855.39
2009/04/23 07:20:35.5     -76   -137     23    157    159 209.0   8.5  33922  285.55 0855.39
2009/04/23 07:20:35.6     -74   -112     26    135    138 213.4  11.0  33918  285.50 0855.39
2009/04/23 07:20:35.7     -32   -110     70    115    134 196.5  35.0  33922  285.55 0855.39
2009/04/23 07:20:35.8     -46    -98     91    109    141 205.5  43.8  33922  285.55 0855.39
2009/04/23 07:20:35.9     -43    -91     96    101    139 205.4  48.5  33922  285.56 0855.39
2009/04/23 07:20:36.0     -37    -88     76     96    122 202.7  42.7  33920  285.51 0855.39
2009/04/23 07:20:36.1     -18    -86     82     88    120 192.0  47.9  33920  285.53 0855.39
2009/04/23 07:20:36.2      -8   -105     93    106    141 184.4  45.8  33920  285.51 0855.39
2009/04/23 07:20:36.3       5   -100     92    101    136 176.9  47.5  33918  285.48 0855.39
2009/04/23 07:20:36.4      16   -118    118    120    168 172.0  50.0  33920  285.53 0855.39
2009/04/23 07:20:36.5      45   -142    117    150    190 162.2  42.2  33926  285.61 0855.39
2009/04/23 07:20:36.6      60   -138    112    151    188 156.3  40.1  33922  285.56 0855.39
2009/04/23 07:20:36.7      55   -113     87    126    153 154.1  37.6  33926  285.63 0855.39
2009/04/23 07:20:36.8      62   -109     80    126    149 150.1  35.5  33926  285.63 0855.39
2009/04/23 07:20:36.9      15   -106     82    108    135 172.0  41.6  33926  285.61 0855.39
2009/04/23 07:20:37.0       7    -67     96     68    117 173.8  60.6  33924  285.60 0855.39
2009/04/23 07:20:37.1      32    -73     82     80    114 156.4  49.7  33922  285.56 0855.39
2009/04/23 07:20:37.2      42   -120     95    128    159 160.4  40.4  33926  285.61 0855.39
2009/04/23 07:20:37.3      10   -200    117    201    232 176.9  33.1  33924  285.58 0855.39
2009/04/23 07:20:37.4      29   -171    135    174    220 170.4  41.7  33922  285.56 0855.39
2009/04/23 07:20:37.5       7   -158    127    159    203 177.3  42.7  33924  285.58 0855.39
2009/04/23 07:20:37.6     -12   -157    119    158    197 184.4  40.7  33926  285.61 0855.38
2009/04/23 07:20:37.7     -26   -167    111    170    203 189.1  36.0  33926  285.61 0855.38
2009/04/23 07:20:37.8     -68   -162     81    176    193 202.9  26.6  33924  285.60 0855.38
2009/04/23 07:20:37.9     -55   -165     80    175    192 198.5  26.4  33924  285.60 0855.38
2009/04/23 07:20:38.0     -45   -154     90    161    184 196.5  31.6  33926  285.61 0855.38
2009/04/23 07:20:38.1     -27   -125     99    129    162 192.5  41.4  33926  285.63 0855.38
2009/04/23 07:20:38.2     -16    -98     97    100    139 189.8  49.4  33928  285.66 0855.38
2009/04/23 07:20:38.3      -1   -107     86    108    138 180.9  43.3  33926  285.63 0855.38
2009/04/23 07:20:38.4     -37    -87     57     95    110 203.2  34.4  33926  285.61 0855.38
2009/04/23 07:20:38.5     -34    -83     53     90    104 202.7  33.5  33928  285.66 0855.38
2009/04/23 07:20:38.6     -19    -74     52     77     92 195.1  37.0  33928  285.65 0855.38
2009/04/23 07:20:38.7     -10    -54     31     55     63 190.7  31.4  33926  285.61 0855.38
2009/04/23 07:20:38.8     -20    -57     17     61     64 200.0  16.3  33924  285.60 0855.38
2009/04/23 07:20:38.9      -8    -30     24     32     40 195.1  40.7  33928  285.65 0855.38
2009/04/23 07:20:39.0       0    -22     52     23     56 180.9  75.0  33924  285.58 0855.38
2009/04/23 07:20:39.1      33    -23     46     41     61 124.2  53.3  33920  285.53 0855.38
2009/04/23 07:20:39.2      32    -67     45     75     87 154.5  34.4  33924  285.58 0855.38
2009/04/23 07:20:39.3      -7    -81      5     82     83 185.3   3.8  33926  285.63 0855.38
2009/04/23 07:20:39.4     -12    -67    -24     69     74 190.7 -19.7  33926  285.61 0855.38
2009/04/23 07:20:39.5     -20    -76    -39     79     88 195.1 -32.6  33922  285.55 0855.38
2009/04/23 07:20:39.6     -74    -69    -29    102    106 227.3 -20.2  33924  285.58 0855.38
2009/04/23 07:20:39.7     -73    -29    -69     79    104 248.3 -50.2  33924  285.58 0855.38
2009/04/23 07:20:39.8     -19      2    -73     20     75 277.9 -89.3  33924  285.58 0855.38
2009/04/23 07:20:39.9      14    -46    -66     49     82 162.2 -63.8  33926  285.61 0855.38
2009/04/23 07:20:40.0      21    -38    -44     44     62 150.1 -54.5  33924  285.60 0855.38
2009/04/23 07:20:40.1      41    -19    -15     46     48 115.3 -23.8  33924  285.58 0855.38
2009/04/23 07:20:40.2      14     15     -5     21     22  43.2 -15.5  33922  285.56 0855.38
2009/04/23 07:20:40.3      46     63      8     79     80  36.0   5.9  33916  285.44 0855.38
2009/04/23 07:20:40.4     -13    110     42    111    118 352.9  21.5  33918  285.50 0855.38
2009/04/23 07:20:40.5     -31    100     57    105    119 342.6  31.3  33918  285.50 0855.38
2009/04/23 07:20:40.6      -2     88     57     89    105 358.6  35.6  33918  285.48 0855.38
2009/04/23 07:20:40.7      42     65     37     78     86  33.4  27.2  33916  285.46 0855.38
2009/04/23 07:20:40.8      35    106     18    112    114  18.7   9.5  33918  285.50 0855.38
2009/04/23 07:20:40.9      37    107     71    114    134  19.2  35.5  33920  285.51 0855.38
2009/04/23 07:20:41.0      45     79     84     92    124  29.9  47.5  33920  285.51 0855.38
2009/04/23 07:20:41.1      42     95     47    105    115  24.1  26.2  33920  285.51 0855.38
2009/04/23 07:20:41.2      32     94     64    100    118  18.7  35.6  33920  285.53 0855.38
2009/04/23 07:20:41.3      21     91     69     94    116  13.4  39.7  33922  285.56 0855.38
2009/04/23 07:20:41.4       2     84     77     85    114   1.8  47.5  33920  285.53 0855.38
2009/04/23 07:20:41.5       5     71     80     72    107   4.5  53.3  33918  285.50 0855.38
2009/04/23 07:20:41.6      51     54     49     75     89  43.2  36.0  33922  285.55 0855.38
2009/04/23 07:20:41.7      41     78     33     89     94  28.1  20.4  33922  285.55 0855.38
2009/04/23 07:20:41.8      36     79     48     87     99  24.5  31.4  33922  285.55 0855.38
2009/04/23 07:20:41.9      37     74     49     83     96  26.7  34.0  33924  285.60 0855.38
2009/04/23 07:20:42.0      64     55     35     85     91  49.1  23.6  33926  285.61 0855.38
2009/04/23 07:20:42.1      70     68     26     98    102  46.0  15.3  33922  285.56 0855.38
2009/04/23 07:20:42.2      59     55     44     81     92  46.8  30.8  33922  285.55 0855.38
2009/04/23 07:20:42.3      45     71     50     85     98  32.5  32.9  33920  285.53 0855.38
2009/04/23 07:20:42.4     -10     31     58     33     66 341.3  67.7  33922  285.55 0855.38
2009/04/23 07:20:42.5      14     17     62     23     66  39.6  80.2  33920  285.51 0855.38
2009/04/23 07:20:42.6      60     21     83     64    104  70.0  59.0  33922  285.55 0855.38
2009/04/23 07:20:42.7      66     46     74     81    109  54.9  47.9  33922  285.55 0855.38
2009/04/23 07:20:42.8      56     26    107     63    124  64.7  66.8  33922  285.55 0855.38
2009/04/23 07:20:42.9     116    -24     71    119    138 101.9  33.5  33922  285.56 0855.38
2009/04/23 07:20:43.0     100    -22     97    103    141 102.4  48.0  33926  285.61 0855.38
2009/04/23 07:20:43.1      77    -28    115     83    141 110.4  60.5  33924  285.60 0855.38
2009/04/23 07:20:43.2      65     17    125     68    142  74.9  68.9  33924  285.58 0855.38
2009/04/23 07:20:43.3     117     25    120    120    169  77.6  50.1  33924  285.60 0855.38
2009/04/23 07:20:43.4     146     21     88    148    172  81.6  34.0  33926  285.61 0855.38
2009/04/23 07:20:43.5     122     17     65    124    140  82.1  29.8  33924  285.60 0855.38
2009/04/23 07:20:43.6     122      9     51    123    133  85.6  23.6  33922  285.56 0855.37
2009/04/23 07:20:43.7     100     15     43    102    110  81.2  24.1  33922  285.55 0855.37
2009/04/23 07:20:43.8     114     15     76    116    138  82.1  36.0  33924  285.58 0855.37
2009/04/23 07:20:43.9     105     34     45    111    119  71.8  23.1  33922  285.56 0855.37
2009/04/23 07:20:44.0     127      6     34    128    133  87.0  15.2  33922  285.55 0855.37
2009/04/23 07:20:44.1      93      7     40     94    102  85.7  24.1  33922  285.55 0855.37
2009/04/23 07:20:44.2      82     10     41     83     92  82.5  27.8  33922  285.55 0855.37
2009/04/23 07:20:44.3      65     25     57     70     90  68.3  43.7  33918  285.50 0855.37
2009/04/23 07:20:44.4      71     23     63     75     97  71.8  44.3  33920  285.51 0855.37
2009/04/23 07:20:44.5      91     14     68     93    115  81.2  39.7  33918  285.48 0855.37
2009/04/23 07:20:44.6      85     13     71     87    112  81.2  43.7  33918  285.48 0855.37
2009/04/23 07:20:44.7      62     29     95     69    117  64.6  60.5  33918  285.48 0855.37
2009/04/23 07:20:44.8      48     36     85     60    104  53.1  61.5  33920  285.53 0855.37
2009/04/23 07:20:44.9      50     16     82     53     97  71.4  64.6  33920  285.53 0855.37
2009/04/23 07:20:45.0      62     15     81     64    103  75.8  57.5  33920  285.51 0855.37
2009/04/23 07:20:45.1      41     36     82     55     98  48.7  63.2  33920  285.53 0855.37
2009/04/23 07:20:45.2      62     29     56     69     88  64.6  43.7  33918  285.48 0855.37
2009/04/23 07:20:45.3      56    -17     64     59     87 106.8  52.2  33918  285.50 0855.37
2009/04/23 07:20:45.4      29    -54     69     62     92 151.1  53.3  33922  285.56 0855.37
2009/04/23 07:20:45.5      39      3     82     40     91  85.6  72.4  33922  285.56 0855.37
2009/04/23 07:20:45.6       0     23     52     24     57 359.1  73.1  33924  285.58 0855.37
2009/04/23 07:20:45.7     -26     17     38     32     49 302.5  56.3  33922  285.56 0855.37
2009/04/23 07:20:45.8     -35      7     37     36     51 281.5  50.1  33920  285.53 0855.37
2009/04/23 07:20:45.9     -14      2     38     15     40 281.5  78.2  33920  285.51 0855.37
2009/04/23 07:20:46.0     -16      6     35     18     39 291.7  72.8  33916  285.44 0855.37
2009/04/23 07:20:46.1     -34     11     40     36     53 288.2  52.2  33918  285.50 0855.37
2009/04/23 07:20:46.2     -88      0     39     89     97 270.0  25.1  33918  285.48 0855.37
2009/04/23 07:20:46.3    -113    -16     35    115    121 262.0  17.3  33918  285.48 0855.37
2009/04/23 07:20:46.4     -81    -64     85    104    134 231.8  43.7  33926  285.61 0855.37
2009/04/23 07:20:46.5     -58    -58     84     83    118 225.0  50.1  33928  285.66 0855.37
2009/04/23 07:20:46.6     -65    -69     71     95    118 223.2  40.7  33926  285.61 0855.37
2009/04/23 07:20:46.7     -69    -63     40     94    102 227.3  24.1  33924  285.60 0855.37
2009/04/23 07:20:46.8     -11    -41     68     43     80 195.1  64.7  33924  285.58 0855.37
2009/04/23 07:20:46.9     -13    -30     66     33     73 203.6  72.8  33926  285.61 0855.37
2009/04/23 07:20:47.0       6    -40     54     41     67 171.1  59.4  33924  285.58 0855.37
2009/04/23 07:20:47.1      19    -10     55     22     59 117.1  77.1  33926  285.61 0855.37
2009/04/23 07:20:47.3      12     -6     46     14     48 118.9  80.7  33926  285.63 0855.37
2009/04/23 07:20:47.3      72     12     74     74    104  80.3  50.1  33924  285.60 0855.37
2009/04/23 07:20:47.4      85      2    101     86    132  88.3  55.4  33926  285.61 0855.37
2009/04/23 07:20:47.5      68      0     79     69    104  90.0  54.3  33926  285.61 0855.37
2009/04/23 07:20:47.6      42    -24     46     49     67 119.8  48.0  33926  285.63 0855.36
2009/04/23 07:20:47.7       0    -30     47     31     56 180.9  64.6  33926  285.61 0855.36
2009/04/23 07:20:47.8      -2    -52     30     53     60 182.7  31.4  33926  285.63 0855.36
2009/04/23 07:20:47.9      16    -48     24     51     56 161.5  27.1  33926  285.61 0855.36
2009/04/23 07:20:48.0      36    -24     -4     44     45 124.2  -5.2  33926  285.61 0855.36
2009/04/23 07:20:48.1      56      0     15     57     60  90.0  15.3  33926  285.61 0855.36
2009/04/23 07:20:48.2      15     -7     32     17     36 115.3  70.8  33926  285.63 0855.36
2009/04/23 07:20:48.3     -26    -26     48     37     60 225.1  58.5  33926  285.61 0855.36
2009/04/23 07:20:48.4     -33    -53     68     63     92 211.6  52.2  33926  285.63 0855.36
2009/04/23 07:20:48.5      -7    -62     76     63     98 187.1  56.3  33926  285.63 0855.36
2009/04/23 07:20:48.6     -31   -100     70    105    126 197.4  36.5  33928  285.65 0855.36
2009/04/23 07:20:48.7     -54   -111     85    124    150 205.9  37.6  33926  285.63 0855.36
2009/04/23 07:20:48.8     -36    -96     90    103    136 200.9  45.8  33926  285.63 0855.36
2009/04/23 07:20:48.9     -28    -94     99     99    140 196.5  50.1  33928  285.65 0855.36
2009/04/23 07:20:49.0     -14    -86     99     88    132 189.3  54.2  33926  285.63 0855.36
2009/04/23 07:20:49.1       6    -86     87     87    123 175.5  50.1  33924  285.60 0855.36
2009/04/23 07:20:49.2     -41   -104     73    113    134 201.8  35.6  33926  285.63 0855.36
2009/04/23 07:20:49.3     -45    -78     75     91    117 210.3  43.8  33926  285.61 0855.36
2009/04/23 07:20:49.4     -23   -103     64    106    123 192.9  34.4  33928  285.65 0855.36
2009/04/23 07:20:49.5     -14   -109     66    110    128 187.6  34.0  33926  285.61 0855.36
2009/04/23 07:20:49.6      -4    -93     62     94    112 182.7  36.0  33926  285.61 0855.36
2009/04/23 07:20:49.7      -7   -113     65    114    131 184.0  32.4  33926  285.61 0855.36
2009/04/23 07:20:49.8     -28   -111     73    115    136 194.3  35.5  33926  285.63 0855.36
2009/04/23 07:20:49.9     -12    -90     82     91    122 187.6  46.9  33924  285.58 0855.36
2009/04/23 07:20:50.0     -19    -94     69     96    118 191.5  39.7  33928  285.65 0855.36
2009/04/23 07:20:50.1     -31    -77     75     84    112 202.3  46.9  33926  285.61 0855.36
2009/04/23 07:20:50.2     -48    -94     70    106    127 207.2  36.5  33926  285.61 0855.36
2009/04/23 07:20:50.3     -62   -101     67    119    136 211.6  31.9  33926  285.61 0855.36
2009/04/23 07:20:50.4     -81   -102     59    131    143 218.7  25.7  33924  285.60 0855.36
2009/04/23 07:20:50.5     -84    -95     61    127    140 221.4  27.3  33926  285.63 0855.36
2009/04/23 07:20:50.6     -95   -115     63    150    162 219.6  23.8  33932  285.71 0855.36
2009/04/23 07:20:50.7     -60   -110     82    126    150 208.9  35.6  33930  285.68 0855.36
2009/04/23 07:20:50.8     -41   -114     81    122    146 200.0  36.5  33930  285.68 0855.36
2009/04/23 07:20:50.9      -8   -108     77    109    133 184.5  38.6  33928  285.65 0855.36
2009/04/23 07:20:51.0     -16   -117    110    119    162 188.0  47.7  33928  285.66 0855.36
2009/04/23 07:20:51.1     -39   -144    149    150    211 195.2  50.0  33932  285.71 0855.36
2009/04/23 07:20:51.3     -53   -159     99    168    195 198.5  33.5  33934  285.75 0855.36
2009/04/23 07:20:51.4     -67   -171     89    184    204 201.6  27.4  33930  285.70 0855.36
2009/04/23 07:20:51.5     -43   -152    105    159    190 196.0  36.5  33932  285.73 0855.36
2009/04/23 07:20:51.6     -35   -147    113    152    189 193.4  40.1  33934  285.75 0855.36
2009/04/23 07:20:51.7     -76   -167     82    184    201 204.5  25.3  33930  285.68 0855.36
2009/04/23 07:20:51.8     -57   -184     53    193    201 197.2  15.3  33930  285.70 0855.36
2009/04/23 07:20:51.9     -64   -206     25    216    218 197.4   6.7  33928  285.66 0855.36
2009/04/23 07:20:52.0     -81   -247     37    261    264 198.3   8.2  33930  285.69 0855.36
2009/04/23 07:20:52.1     -56   -298     62    304    311 190.7  11.6  33934  285.74 0855.36
2009/04/23 07:20:52.2     -48   -232     83    238    253 191.8  19.2  33930  285.69 0855.36
2009/04/23 07:20:52.3     -30   -202     55    205    213 188.5  15.2  33930  285.68 0855.36
2009/04/23 07:20:52.4     -32   -186     38    189    194 189.8  11.6  33930  285.68 0855.36
2009/04/23 07:20:52.5     -59   -181     14    191    192 198.3   4.4  33934  285.75 0855.36
2009/04/23 07:20:52.6     -41   -163    -32    169    173 194.3 -10.9  33932  285.71 0855.36
2009/04/23 07:20:52.7      41   -180    -22    185    187 167.1  -6.9  33932  285.71 0855.36
2009/04/23 07:20:52.8      65   -138    -44    153    160 154.7 -16.0  33930  285.68 0855.36
2009/04/23 07:20:52.9      34   -125    -90    130    158 164.4 -42.4  33928  285.65 0855.36
2009/04/23 07:20:53.0      26    -98    -68    102    122 164.9 -41.8  33928  285.65 0855.36
2009/04/23 07:20:53.1      91    -77    -60    120    134 130.0 -33.1  33926  285.61 0855.36
2009/04/23 07:20:53.2      77    -90    -39    119    125 139.5 -23.8  33928  285.65 0855.36
2009/04/23 07:20:53.3     129    -60    -39    143    149 114.8 -15.5  33928  285.65 0855.36
2009/04/23 07:20:53.4     122    -53    -30    134    138 113.5 -12.9  33928  285.65 0855.36
2009/04/23 07:20:53.5     116    -14     12    117    118  97.0   5.9  33926  285.63 0855.36
2009/04/23 07:20:53.6     112    -66     48    131    139 120.7  20.9  33924  285.60 0855.36
2009/04/23 07:20:53.7     132    -22     -4    134    135  99.7  -1.8  33928  285.66 0855.36
2009/04/23 07:20:53.8     103    -15    -17    105    107  98.4  -9.3  33930  285.68 0855.36
2009/04/23 07:20:54.0     121    -85     40    148    154 125.1  15.3  33928  285.65 0855.36
2009/04/23 07:20:54.1      30   -155     18    159    161 168.9   6.5  33928  285.65 0855.36
2009/04/23 07:20:54.2      15   -102     58    104    119 171.5  31.4  33926  285.61 0855.36
2009/04/23 07:20:54.3      56    -15      2     59     60 105.1   2.8  33924  285.58 0855.36
2009/04/23 07:20:54.4      46    -56    -19     73     76 140.4 -14.5  33928  285.65 0855.36
2009/04/23 07:20:54.5      28    -26    -62     39     73 133.3 -69.1  33928  285.65 0855.36
2009/04/23 07:20:54.6      86    -70    -79    111    136 129.1 -43.5  33924  285.60 0855.36
2009/04/23 07:20:54.7      72    -72    -90    103    136 134.9 -50.2  33924  285.60 0855.36
2009/04/23 07:20:54.8     100    -75    -48    125    133 126.9 -25.9  33924  285.60 0855.36
2009/04/23 07:20:54.9      90    -30     19     95     98 108.6  11.6  33922  285.55 0855.36
2009/04/23 07:20:55.0     120     18     57    122    134  81.2  27.1  33920  285.53 0855.36
2009/04/23 07:20:55.1     112     44     44    121    128  68.2  20.9  33926  285.61 0855.36
2009/04/23 07:20:55.2     100     48     41    112    119  64.2  20.9  33922  285.56 0855.36
2009/04/23 07:20:55.3      89     56     40    106    113  57.6  21.5  33920  285.53 0855.36
2009/04/23 07:20:55.4      51     71     22     88     91  36.1  14.3  33922  285.55 0855.36
2009/04/23 07:20:55.5      31     94      0     99    100  18.3   0.2  33926  285.61 0855.36
2009/04/23 07:20:55.6      58     56    -45     81     92  46.0 -35.8  33918  285.50 0855.36
2009/04/23 07:20:55.7      26     59    -35     65     73  23.6 -35.8  33912  285.39 0855.36
2009/04/23 07:20:55.8      28     62     -2     69     70  24.5  -2.2  33912  285.38 0855.36
2009/04/23 07:20:55.9      49     53     37     73     81  42.3  28.7  33912  285.38 0855.36
2009/04/23 07:20:56.0      33     83     46     90    101  21.8  29.3  33914  285.43 0855.36
2009/04/23 07:20:56.1      31     83     72     89    114  20.9  43.7  33914  285.41 0855.36
2009/04/23 07:20:56.2      18    109     59    111    125   9.8  30.3  33914  285.41 0855.36
2009/04/23 07:20:56.3      53    129     85    140    163  22.3  34.2  33910  285.36 0855.36
2009/04/23 07:20:56.4      46    139     79    147    166  18.3  30.3  33906  285.29 0855.36
2009/04/23 07:20:56.5      47    144     55    152    161  18.3  20.7  33912  285.38 0855.36
2009/04/23 07:20:56.6      60    151     49    163    171  21.8  16.8  33910  285.36 0855.36
2009/04/23 07:20:56.7      32    144     48    148    156  12.5  17.9  33906  285.28 0855.36
2009/04/23 07:20:56.8      31    159     57    163    173  11.1  19.4  33904  285.26 0855.36
2009/04/23 07:20:56.9      15    140      7    141    142   6.2   2.9  33912  285.39 0855.36
2009/04/23 07:20:57.0      50    138     34    147    152  20.1  13.2  33912  285.39 0855.36
2009/04/23 07:20:57.1      38    141     28    147    150  15.2  11.1  33910  285.34 0855.36
2009/04/23 07:20:57.2      70    111     52    132    141  32.1  23.0  33906  285.29 0855.36
2009/04/23 07:20:57.3      60    103     50    120    130  30.3  24.1  33908  285.31 0855.36
2009/04/23 07:20:57.4      61    107     52    124    134  29.9  24.1  33912  285.38 0855.36
2009/04/23 07:20:57.5      81     79     52    114    125  46.0  26.2  33912  285.39 0855.36
2009/04/23 07:20:57.6      87     72     43    114    121  50.4  21.0  33912  285.39 0855.36
2009/04/23 07:20:57.7     102     74     44    127    135  54.0  19.4  33914  285.43 0855.36
2009/04/23 07:20:57.8     119     88     64    149    162  53.6  24.6  33912  285.39 0855.36
2009/04/23 07:20:57.9     159     71     52    175    183  66.0  16.6  33916  285.44 0855.36
2009/04/23 07:20:58.0     173     47     74    180    194  74.9  23.6  33912  285.39 0855.36
2009/04/23 07:20:58.1     178     27     98    181    205  81.2  30.6  33914  285.43 0855.36
2009/04/23 07:20:58.2     123      0    139    124    186  90.0  53.7  33912  285.38 0855.36
2009/04/23 07:20:58.3     113     76    131    137    189  56.3  49.0  33916  285.44 0855.36
2009/04/23 07:20:58.4     205     48     70    211    223  76.8  18.4  33920  285.53 0855.36
2009/04/23 07:20:58.5     195     54     86    203    220  74.5  24.3  33920  285.53 0855.36
2009/04/23 07:20:58.6     167     18     94    169    193  83.6  31.4  33918  285.48 0855.36
2009/04/23 07:20:58.7     140     22    104    142    176  80.8  39.9  33916  285.46 0855.37
2009/04/23 07:20:58.8     116     36     68    122    139  72.7  31.4  33920  285.51 0855.37
2009/04/23 07:20:58.9      90      0     96     91    132  90.0  51.6  33916  285.46 0855.37
2009/04/23 07:20:59.0      87      6    104     88    136  85.6  55.8  33918  285.48 0855.37
2009/04/23 07:20:59.1      51     34     70     62     93  55.8  53.7  33918  285.50 0855.37
2009/04/23 07:20:59.2      54     34     70     64     94  57.6  52.7  33918  285.48 0855.37
2009/04/23 07:20:59.3      58     23     63     63     89  68.3  50.1  33918  285.48 0855.37
2009/04/23 07:20:59.4      66     31     53     74     91  64.8  39.1  33918  285.50 0855.37
2009/04/23 07:20:59.5      57     50     49     76     90  48.7  35.6  33922  285.55 0855.37
2009/04/23 07:20:59.6      31     39     50     50     70  38.7  50.1  33918  285.48 0855.37
2009/04/23 07:20:59.7      38     18     57     43     71  64.7  58.5  33916  285.44 0855.37
2009/04/23 07:20:59.8      49     21     49     54     72  66.5  47.9  33912  285.39 0855.37
2009/04/23 07:20:59.9      38     25     64     46     78  55.8  60.5  33914  285.41 0855.37
2009/04/23 07:21:00.0      33      2     53     34     62  85.6  64.7  33916  285.44 0855.37
2009/04/23 07:21:00.1      44     14     57     47     73  71.6  56.3  33912  285.39 0855.37
2009/04/23 07:21:00.2      40     25     63     48     79  57.5  59.0  33914  285.43 0855.37
2009/04/23 07:21:00.3      35     28     71     45     84  51.4  64.7  33916  285.46 0855.37
2009/04/23 07:21:00.4      21     13     62     25     66  57.5  77.1  33916  285.44 0855.37
2009/04/23 07:21:00.5     -14      3     57     15     58 285.1  84.9  33916  285.44 0855.37
2009/04/23 07:21:00.6      50     16     75     53     91  71.4  61.1  33916  285.44 0855.37
2009/04/23 07:21:00.7      71     -6    103     72    125  95.2  62.1  33912  285.39 0855.37
2009/04/23 07:21:00.8     130    -10     65    131    146  94.4  27.8  33908  285.33 0855.37
2009/04/23 07:21:00.9     124    -14     43    125    133  96.6  19.2  33912  285.38 0855.37
2009/04/23 07:21:01.0      96     -8     66     97    117  94.8  37.0  33912  285.38 0855.37
2009/04/23 07:21:01.1      97    -11     74     98    122  96.6  41.2  33910  285.34 0855.37
2009/04/23 07:21:01.2     109     37     86    116    144  70.9  39.7  33912  285.38 0855.37
2009/04/23 07:21:01.3     111     30     96    116    150  74.9  43.8  33914  285.41 0855.37
2009/04/23 07:21:01.4     137     14     85    138    162  83.9  34.4  33908  285.33 0855.37
2009/04/23 07:21:01.5     137     14     85    138    162  83.9  34.4  33904  285.26 0855.37
2009/04/23 07:21:01.6      93      0     94     94    132  90.0  50.1  33908  285.31 0855.37
2009/04/23 07:21:01.7      45      7     88     46     99  80.3  69.8  33912  285.38 0855.37
2009/04/23 07:21:01.8      49     35    103     61    119  54.9  66.8  33912  285.38 0855.37
2009/04/23 07:21:01.9      41     26     82     49     95  57.6  65.7  33910  285.36 0855.37
2009/04/23 07:21:02.0      -8      8     51     12     52 313.1  88.0  33912  285.38 0855.37
2009/04/23 07:21:02.1      -2    -29     54     30     61 184.5  68.8  33910  285.36 0855.37
2009/04/23 07:21:02.2      14      8     75     17     76  61.1  88.0  33906  285.29 0855.37
2009/04/23 07:21:02.3      14     26     62     30     68  29.0  72.9  33916  285.44 0855.37
2009/04/23 07:21:02.4      12     -8     72     15     73 126.0  89.0  33916  285.46 0855.37
2009/04/23 07:21:02.5     -29    -10     70     31     76 250.0  75.0  33916  285.44 0855.37
2009/04/23 07:21:02.6     -20    -17     66     27     71 228.7  77.1  33920  285.53 0855.37
2009/04/23 07:21:02.7     -14    -36     65     39     75 201.8  64.7  33924  285.58 0855.37
2009/04/23 07:21:02.8       9    -28     67     30     73 161.3  74.0  33920  285.51 0855.37
2009/04/23 07:21:02.9      16    -56     81     59    100 164.0  60.5  33924  285.58 0855.37
2009/04/23 07:21:03.0      13    -45     66     48     81 163.1  60.0  33924  285.60 0855.37
2009/04/23 07:21:03.1     -12    -84     74     85    112 188.5  45.4  33928  285.65 0855.37
2009/04/23 07:21:03.2     -27    -90     76     95    121 196.9  42.7  33926  285.63 0855.37
2009/04/23 07:21:03.3     -23    -80     49     84     97 196.5  33.5  33930  285.68 0855.37
2009/04/23 07:21:03.4     -35    -79     64     87    108 204.1  40.1  33926  285.63 0855.37
2009/04/23 07:21:03.5     -42    -66     57     79     97 212.6  39.7  33928  285.66 0855.37
2009/04/23 07:21:03.6     -39    -61     65     73     97 212.5  46.9  33926  285.61 0855.37
2009/04/23 07:21:03.7     -10    -54     50     55     74 190.7  47.9  33930  285.68 0855.37
2009/04/23 07:21:03.8     -10    -54     64     55     84 190.7  54.3  33930  285.70 0855.37
2009/04/23 07:21:03.9      -8    -63     64     64     90 188.0  50.1  33926  285.63 0855.37
2009/04/23 07:21:04.0      -1    -37     47     38     60 182.6  56.4  33930  285.68 0855.37
2009/04/23 07:21:04.1      33    -15     51     37     63 115.3  60.5  33930  285.68 0855.37
2009/04/23 07:21:04.2      13     21     32     26     41  32.5  56.4  33926  285.63 0855.37
2009/04/23 07:21:04.3      12     -8     33     15     36 122.4  73.1  33928  285.65 0855.37
2009/04/23 07:21:04.4      -8    -14     37     17     40 209.0  74.0  33926  285.63 0855.37
2009/04/23 07:21:04.5       7     35     52     36     63  11.6  61.5  33928  285.65 0855.37
2009/04/23 07:21:04.6      17     27     52     33     61  32.6  64.7  33928  285.65 0855.37
2009/04/23 07:21:04.7      21     25     27     33     42  39.6  44.8  33928  285.65 0855.36
2009/04/23 07:21:04.8       3     14     11     15     18  15.1  39.7  33930  285.68 0855.36
2009/04/23 07:21:04.9     -17     -7    -10     19     21 248.3 -33.7  33930  285.68 0855.36
2009/04/23 07:21:05.0     -56    -41     -9     70     71 234.1  -7.3  33930  285.68 0855.36
2009/04/23 07:21:05.1     -74    -51     31     90     96 235.4  19.4  33930  285.70 0855.36
2009/04/23 07:21:05.2     -62    -34     31     71     77 241.1  25.1  33928  285.66 0855.36
2009/04/23 07:21:05.3     -52    -25     11     58     60 243.8  11.0  33928  285.65 0855.36
2009/04/23 07:21:05.4     -49    -28     -2     57     58 240.2  -2.2  33928  285.65 0855.36
2009/04/23 07:21:05.5     -37    -16     -3     41     42 245.6  -5.2  33928  285.65 0855.36
2009/04/23 07:21:05.6     -25    -11    -17     28     32 246.5 -39.9  33928  285.65 0855.36
2009/04/23 07:21:05.7     -17      3      0     18     19 281.5  -2.2  33928  285.66 0855.36
2009/04/23 07:21:05.8     -37      2      9     38     40 274.4  13.2  33928  285.66 0855.36
2009/04/23 07:21:05.9     -34     -6     12     35     38 258.5  19.4  33930  285.68 0855.36
2009/04/23 07:21:06.0     -52     -4     -6     53     54 265.6  -7.3  33928  285.66 0855.36
2009/04/23 07:21:06.1     -81     -1     -8     82     83 268.7  -5.6  33928  285.65 0855.36
2009/04/23 07:21:06.2     -91    -15      7     93     94 260.3   4.4  33926  285.63 0855.36
2009/04/23 07:21:06.3     -83     -8     19     84     87 264.3  13.2  33930  285.68 0855.36
2009/04/23 07:21:06.4     -72      6      3     73     74 275.2   2.9  33926  285.61 0855.36
2009/04/23 07:21:06.5     -49      0    -10     50     52 270.0 -11.3  33926  285.61 0855.36
2009/04/23 07:21:06.6     -20    -44     17     49     52 204.5  19.4  33926  285.63 0855.36
2009/04/23 07:21:06.7     -43    -43     31     61     68 225.0  28.2  33928  285.65 0855.36
2009/04/23 07:21:06.8     -20    -61     22     65     69 198.3  18.9  33928  285.66 0855.36
2009/04/23 07:21:06.9      -9    -64     22     65     69 188.0  19.4  33928  285.65 0855.36
2009/04/23 07:21:07.0     -35    -63     -4     73     74 209.0  -3.1  33926  285.63 0855.36
2009/04/23 07:21:07.1     -58    -68    -30     90     94 220.5 -23.6  33928  285.65 0855.36
2009/04/23 07:21:07.2     -84    -73     22    112    115 229.1  11.1  33926  285.63 0855.36
2009/04/23 07:21:07.3     -78    -40    -30     88     92 242.5 -23.3  33926  285.61 0855.36
2009/04/23 07:21:07.4     -59    -87    -39    106    112 214.3 -24.8  33928  285.65 0855.36
2009/04/23 07:21:07.5    -108    -95    -60    145    156 228.7 -28.2  33922  285.56 0855.36
2009/04/23 07:21:07.6    -150    -45    -38    157    162 253.2 -13.7  33922  285.56 0855.36
2009/04/23 07:21:07.7    -128      7    -57    129    141 273.5 -29.6  33924  285.60 0855.36
2009/04/23 07:21:07.8     -72     40    -44     83     93 298.9 -34.7  33924  285.60 0855.36
2009/04/23 07:21:07.9     -55     53    -54     77     94 314.0 -42.4  33926  285.61 0855.36
2009/04/23 07:21:08.0     -37     74    -49     83     96 333.3 -38.4  33924  285.60 0855.36
2009/04/23 07:21:08.1      -8    115     -6    116    117 355.6  -3.1  33926  285.63 0855.36
2009/04/23 07:21:08.2     -14     68     59     70     91 348.4  44.3  33928  285.66 0855.36
2009/04/23 07:21:08.3       7     32     82     33     88  13.4  77.1  33926  285.63 0855.36
2009/04/23 07:21:08.4     -29     84     50     89    102 340.8  31.4  33924  285.58 0855.36
2009/04/23 07:21:08.5     -16     85     64     87    108 348.9  40.1  33926  285.63 0855.36
2009/04/23 07:21:08.6     -16     79     55     81     97 348.4  37.0  33926  285.63 0855.36
2009/04/23 07:21:08.7     -31     94     41    100    108 341.7  23.0  33924  285.58 0855.37
2009/04/23 07:21:08.8     -23     89     30     92     97 345.3  18.4  33924  285.60 0855.37
2009/04/23 07:21:08.9     -23     68     25     73     78 340.8  19.4  33926  285.61 0855.37
2009/04/23 07:21:09.0     -27     78     33     83     89 340.8  22.5  33926  285.63 0855.37
2009/04/23 07:21:09.1     -16     79     61     81    101 348.5  40.7  33922  285.56 0855.37
2009/04/23 07:21:09.2     -26     78     73     83    110 341.7  45.8  33926  285.63 0855.37
2009/04/23 07:21:09.3     -41     70     74     82    110 329.3  46.9  33926  285.63 0855.37
2009/04/23 07:21:09.4     -55     87     66    104    123 327.5  35.5  33926  285.61 0855.37
2009/04/23 07:21:09.5     -61     90     46    110    119 325.7  23.6  33924  285.58 0855.37
2009/04/23 07:21:09.6     -60     73     37     95    101 320.4  22.5  33924  285.58 0855.37
2009/04/23 07:21:09.7     -38     81     27     90     95 334.7  16.8  33922  285.56 0855.37
2009/04/23 07:21:09.8     -25     75     26     80     85 341.5  18.4  33922  285.55 0855.37
2009/04/23 07:21:09.9     -45     82     33     94    100 331.0  19.4  33924  285.60 0855.37
2009/04/23 07:21:10.0     -57     86     35    104    111 326.2  18.9  33922  285.56 0855.37
2009/04/23 07:21:10.1     -78     74     38    108    115 313.6  19.4  33920  285.53 0855.37
2009/04/23 07:21:10.2    -111     90     28    144    147 309.1  11.1  33918  285.50 0855.37
2009/04/23 07:21:10.3     -93     77     17    121    123 309.6   8.0  33920  285.53 0855.37
2009/04/23 07:21:10.4     -74     81     51    110    121 317.7  26.6  33920  285.53 0855.37
2009/04/23 07:21:10.5     -73     72     41    103    110 314.4  23.0  33920  285.53 0855.37
2009/04/23 07:21:10.6     -82     95     38    126    132 319.0  16.8  33922  285.56 0855.37
2009/04/23 07:21:10.7     -80     76     76    111    134 313.6  37.4  33918  285.48 0855.37
2009/04/23 07:21:10.8     -58     89     70    107    127 327.0  36.0  33918  285.50 0855.37
2009/04/23 07:21:10.9    -104    155     36    187    191 326.2  11.0  33920  285.51 0855.37
2009/04/23 07:21:11.0     -69    174     73    188    201 338.2  22.3  33920  285.53 0855.37
2009/04/23 07:21:11.1    -110    133     15    173    174 320.4   5.2  33928  285.66 0855.37
2009/04/23 07:21:11.2    -142    134    -25    196    198 313.3  -7.3  33930  285.70 0855.37
2009/04/23 07:21:11.3    -199    107    -17    227    228 298.4  -4.4  33928  285.65 0855.37
2009/04/23 07:21:11.4    -160    102    -10    191    192 302.6  -3.1  33936  285.78 0855.37
2009/04/23 07:21:11.5    -105    117      6    158    159 318.1   2.5  33936  285.80 0855.37
2009/04/23 07:21:11.6     -87    119     39    148    154 323.9  15.0  33938  285.82 0855.37
2009/04/23 07:21:11.7     -98    104     28    143    146 316.7  11.1  33938  285.82 0855.37
2009/04/23 07:21:11.8    -136     58     12    148    149 293.1   5.0  33936  285.78 0855.37
2009/04/23 07:21:11.9    -198    101    -40    223    227 297.0 -10.3  33940  285.85 0855.37
2009/04/23 07:21:12.0    -206    113     -9    235    236 298.8  -2.2  33938  285.81 0855.37
2009/04/23 07:21:12.1    -207     90     -4    226    227 293.6  -1.1  33940  285.87 0855.37
2009/04/23 07:21:12.2    -222     68    -16    233    234 287.1  -4.1  33942  285.88 0855.37
2009/04/23 07:21:12.3    -224     45    -36    229    232 281.5  -9.0  33940  285.85 0855.37
2009/04/23 07:21:12.4    -189     32    -65    192    203 279.9 -18.9  33940  285.87 0855.37
2009/04/23 07:21:12.5    -182      2    -54    183    191 270.9 -16.6  33942  285.88 0855.37
2009/04/23 07:21:12.6    -180     -5    -51    181    188 268.3 -20.4  33942  285.88 0855.37
2009/04/23 07:21:12.7    -175    -22    -68    177    189 262.8 -26.4  33940  285.85 0855.38
2009/04/23 07:21:12.8    -188     10    -72    189    202 273.3 -26.1  33930  285.70 0855.38
2009/04/23 07:21:12.9    -131      8    -20    132    134 273.5  -8.8  33932  285.71 0855.38
2009/04/23 07:21:13.0    -158      0    -20    159    161 270.0  -7.3  33930  285.68 0855.38
2009/04/23 07:21:13.1     -96     53    -31    110    114 298.9 -20.7  33928  285.65 0855.38
2009/04/23 07:21:13.2    -137      0    -32    138    142 269.6 -13.3  33930  285.68 0855.38
2009/04/23 07:21:13.3    -146    -25    -41    149    155 260.3 -15.5  33930  285.70 0855.38
2009/04/23 07:21:13.4    -170      7    -51    171    178 272.6 -21.5  33926  285.63 0855.38
2009/04/23 07:21:13.5    -154    -14    -84    155    176 264.8 -35.2  33928  285.66 0855.38
2009/04/23 07:21:13.6    -173      0    -52    174    181 270.0 -21.5  33926  285.61 0855.38
2009/04/23 07:21:13.7    -169     26    -54    172    180 279.0 -22.8  33924  285.58 0855.39
2009/04/23 07:21:13.8    -161     12    -57    162    172 274.6 -19.6  33922  285.56 0855.39
2009/04/23 07:21:14.0    -123     17    -38    125    130 277.9 -21.8  33920  285.53 0855.39
2009/04/23 07:21:14.1     -81     27    -12     86     87 288.6  -8.2  33922  285.55 0855.39
2009/04/23 07:21:14.1     -45     77    -14     90     92 329.7  -8.8  33926  285.63 0855.39
2009/04/23 07:21:14.2     -21    113      2    116    117 349.3   1.2  33924  285.58 0855.39
2009/04/23 07:21:14.3     -40     93     -4    102    103 336.8  -2.2  33926  285.61 0855.39
2009/04/23 07:21:14.4     -36    107    -31    114    119 341.3 -15.5  33928  285.65 0855.39
2009/04/23 07:21:14.5     -19     76    -25     79     82 345.7 -22.8  33928  285.65 0855.39
2009/04/23 07:21:14.6       9     64    -51     65     82   8.0 -47.1  33926  285.63 0855.39
2009/04/23 07:21:14.7       0     87    -72     88    113   0.5 -48.1  33926  285.63 0855.39
2009/04/23 07:21:14.8       9    120    -52    121    131   4.4 -29.5  33928  285.65 0855.39
2009/04/23 07:21:14.9      51    172      8    180    181  16.5   2.8  33930  285.68 0855.39
2009/04/23 07:21:15.0      42    196     30    201    204  12.3   8.5  33930  285.68 0855.39
2009/04/23 07:21:15.2      40    200     36    205    209  11.5  10.1  33930  285.70 0855.39
2009/04/23 07:21:15.3      62    161     47    173    180  21.2  15.2  33930  285.68 0855.39
2009/04/23 07:21:15.3      98    140     67    172    184  35.0  22.3  33928  285.66 0855.39
2009/04/23 07:21:15.4      72    170     30    185    188  22.9   9.3  33926  285.63 0855.39
2009/04/23 07:21:15.5      55    193     12    201    202  16.0   3.6  33926  285.63 0855.39
2009/04/23 07:21:15.6      68    195     -4    207    208  19.4  -1.3  33924  285.58 0855.39
2009/04/23 07:21:15.7      58    191     -7    200    201  16.9  -2.3  33922  285.55 0855.39
2009/04/23 07:21:15.8      43    196      1    201    202  12.5   0.5  33918  285.50 0855.39
2009/04/23 07:21:15.9      41    160     15    166    167  14.5   5.2  33922  285.56 0855.39
2009/04/23 07:21:16.0      68    143      8    159    160  25.5   3.1  33922  285.55 0855.39
2009/04/23 07:21:16.1     113    115     18    162    164  44.5   6.5  33924  285.60 0855.39
2009/04/23 07:21:16.2     121    171     25    210    212  35.2   6.9  33922  285.55 0855.39
2009/04/23 07:21:16.4      87    128     33    155    159  34.3  12.2  33918  285.50 0855.39
2009/04/23 07:21:16.4      82    129      0    153    154  32.5  -0.3  33918  285.48 0855.39
2009/04/23 07:21:16.5      96    121     -1    155    156  38.3  -0.5  33918  285.50 0855.39
2009/04/23 07:21:16.6      96    116     12    151    152  39.6   4.9  33922  285.56 0855.39
2009/04/23 07:21:16.8     155    159     35    223    226  44.3   9.0  33924  285.60 0855.39
2009/04/23 07:21:16.9     136    186      1    231    232  36.1   0.5  33924  285.58 0855.39
2009/04/23 07:21:16.9     164    164      0    232    233  45.0   0.0  33928  285.64 0855.39
2009/04/23 07:21:17.0     188    141      7    235    236  53.1   1.7  33930  285.69 0855.39
2009/04/23 07:21:17.1     190    128     11    230    231  55.9   2.8  33928  285.66 0855.39
2009/04/23 07:21:17.2     183     90     37    204    208  63.8  10.3  33928  285.66 0855.39
2009/04/23 07:21:17.3     194     99     34    218    221  62.9   8.9  33930  285.70 0855.39
2009/04/23 07:21:17.4     189     62     39    199    203  71.8  11.1  33928  285.65 0855.39
2009/04/23 07:21:17.5     161     55     59    171    182  70.9  19.2  33928  285.66 0855.39
2009/04/23 07:21:17.6     145     71     81    162    181  63.8  28.5  33930  285.68 0855.39
2009/04/23 07:21:17.7     134     78     86    156    178  59.8  31.4  33928  285.65 0855.39
2009/04/23 07:21:17.8     106     76     90    131    158  54.1  37.8  33926  285.63 0855.39
2009/04/23 07:21:17.9     126     80     89    150    174  57.6  33.7  33926  285.61 0855.39
2009/04/23 07:21:18.0     147     93     67    175    187  57.5  22.0  33926  285.63 0855.39
2009/04/23 07:21:18.1     142    109     42    180    185  52.5  13.2  33926  285.63 0855.39
2009/04/23 07:21:18.2     117    106     83    159    179  47.8  29.8  33928  285.65 0855.39
2009/04/23 07:21:18.3      85    109     80    139    160  37.8  32.4  33922  285.55 0855.39
2009/04/23 07:21:18.4       5    135    142    136    196   2.2  51.4  33922  285.55 0855.39
2009/04/23 07:21:18.5      28    117    100    121    156  13.4  44.1  33922  285.55 0855.39
2009/04/23 07:21:18.6      86    120     78    148    167  35.6  29.8  33924  285.58 0855.39
2009/04/23 07:21:18.7      74    101     72    126    145  36.5  32.4  33926  285.61 0855.39
2009/04/23 07:21:18.8      69     98     63    120    135  35.2  29.8  33926  285.61 0855.39
2009/04/23 07:21:18.9      31    115     61    120    134  15.2  29.2  33924  285.60 0855.39
2009/04/23 07:21:19.0      14    120     55    121    132   7.1  26.2  33924  285.58 0855.39
2009/04/23 07:21:19.1       7    104     59    105    120   4.0  31.9  33924  285.58 0855.39
2009/04/23 07:21:19.2      18     63     44     66     79  16.0  37.0  33922  285.56 0855.39
2009/04/23 07:21:19.3      49     59     32     77     83  39.7  23.6  33922  285.56 0855.39
2009/04/23 07:21:19.4      34     51     39     62     73  34.3  35.5  33918  285.48 0855.39
2009/04/23 07:21:19.5      59     37     70     70     98  57.5  50.1  33922  285.56 0855.39
2009/04/23 07:21:19.6     102     21     82    105    133  78.1  42.2  33926  285.63 0855.39
2009/04/23 07:21:19.7     107     83     57    136    147  52.2  23.6  33924  285.58 0855.38
2009/04/23 07:21:19.8     115     73     22    137    139  57.6   9.5  33922  285.55 0855.38
2009/04/23 07:21:19.9     110      8     52    111    122  85.7  26.6  33920  285.53 0855.38
2009/04/23 07:21:20.1     136      3     87    137    162  88.7  35.5  33922  285.55 0855.38
2009/04/23 07:21:20.1     140     30     65    144    157  77.6  25.7  33920  285.53 0855.38
2009/04/23 07:21:20.2     131     56     12    143    144  66.9   4.9  33916  285.46 0855.38
2009/04/23 07:21:20.3     121     67     53    139    148  61.1  22.0  33920  285.51 0855.38
2009/04/23 07:21:20.5      88     28     92     93    130  72.3  50.0  33920  285.53 0855.38
2009/04/23 07:21:20.5      80     16     98     82    127  78.1  56.3  33918  285.50 0855.38
2009/04/23 07:21:20.6     133     -6     62    134    147  92.6  27.1  33920  285.53 0855.38
2009/04/23 07:21:20.8     102     45     47    112    121  66.0  24.1  33920  285.53 0855.38
2009/04/23 07:21:20.9      86    -14     84     88    121  99.7  49.0  33920  285.53 0855.38
2009/04/23 07:21:21.0      67     10     63     68     92  81.2  47.9  33914  285.43 0855.38
2009/04/23 07:21:21.1      40     34     70     53     87  49.6  59.0  33916  285.44 0855.38
2009/04/23 07:21:21.2      24     42     77     49     91  30.7  64.7  33914  285.43 0855.38
2009/04/23 07:21:21.3      58     18     91     61    109  72.3  63.2  33918  285.48 0855.38
2009/04/23 07:21:21.4      70      5    102     71    124  85.7  62.6  33920  285.51 0855.38
2009/04/23 07:21:21.5      74      2     66     75     99  88.3  45.8  33918  285.50 0855.38
2009/04/23 07:21:21.6      51     -3     56     52     76  94.4  52.1  33918  285.50 0855.38
2009/04/23 07:21:21.7      26      0     46     27     53  90.0  66.8  33918  285.48 0855.38
2009/04/23 07:21:21.8     -18     17     28     26     38 313.1  48.2  33918  285.50 0855.38
2009/04/23 07:21:21.9     -32     25     13     41     44 307.8  18.4  33918  285.50 0855.38
2009/04/23 07:21:22.0      43     74     12     86     87  30.3   8.0  33918  285.50 0855.38
2009/04/23 07:21:22.1      66     31    -60     74     95  64.8 -48.1  33920  285.53 0855.38
2009/04/23 07:21:22.2      58     43    -84     73    111  53.1 -59.2  33918  285.50 0855.38
2009/04/23 07:21:22.3      62     45    -85     77    114  54.0 -57.1  33922  285.56 0855.38
2009/04/23 07:21:22.4      89      0    -68     90    112  90.4 -45.6  33922  285.55 0855.38
2009/04/23 07:21:22.5     122     49    -82    132    155  67.8 -39.9  33920  285.53 0855.38
2009/04/23 07:21:22.6     180    129      0    222    223  54.3   0.0  33920  285.51 0855.38
2009/04/23 07:21:22.7     181    100     56    207    215  61.1  15.3  33916  285.46 0855.38
2009/04/23 07:21:22.8     169     69    116    183    216  67.8  35.5  33914  285.43 0855.38
2009/04/23 07:21:22.9      97     62    130    116    174  57.6  53.7  33918  285.48 0855.38
2009/04/23 07:21:23.0       0     48    114     49    124 359.1  75.5  33918  285.50 0855.38
2009/04/23 07:21:23.1     -29      1    134     30    137 272.6  87.5  33922  285.55 0855.38
2009/04/23 07:21:23.2      21      7     88     23     90  71.4  85.9  33922  285.56 0855.38
2009/04/23 07:21:23.3      -3      8     68      9     68 334.6  90.0  33926  285.61 0855.38
2009/04/23 07:21:23.4      13     16     66     21     69  39.6  80.7  33924  285.60 0855.38
2009/04/23 07:21:23.5      -8      5     85     10     85 302.4  90.0  33924  285.60 0855.38
2009/04/23 07:21:23.6      -3      0     76      4     76 270.0  90.0  33928  285.65 0855.38
2009/04/23 07:21:23.7      -9    -76     90     77    118 187.1  54.8  33926  285.61 0855.38
2009/04/23 07:21:23.8      29    -45     70     54     88 147.4  57.9  33924  285.60 0855.38
2009/04/23 07:21:23.9      -1    -73     64     74     97 181.0  45.8  33924  285.60 0855.38
2009/04/23 07:21:24.0     -16    -74     71     76    104 192.5  48.0  33926  285.61 0855.38
2009/04/23 07:21:24.1     -11    -83     68     84    108 188.0  43.7  33924  285.58 0855.38
2009/04/23 07:21:24.2     -10    -85     83     86    119 187.1  49.4  33924  285.60 0855.38
2009/04/23 07:21:24.3     -51    -80     69     96    118 212.6  39.7  33916  285.46 0855.38
2009/04/23 07:21:24.4     -66    -90     74    112    134 216.1  36.0  33914  285.41 0855.38
2009/04/23 07:21:24.5     -80    -94     71    124    142 220.5  32.4  33916  285.44 0855.38
2009/04/23 07:21:24.6    -104    -83     70    134    151 231.4  29.3  33914  285.41 0855.38
2009/04/23 07:21:24.7     -59    -59     65     84    106 225.1  41.7  33916  285.46 0855.38
2009/04/23 07:21:24.8     -18      5     62     19     64 288.2  81.8  33916  285.44 0855.38
2009/04/23 07:21:24.9      -5      6     75      8     75 320.4  90.0  33918  285.48 0855.38
2009/04/23 07:21:25.0      21    -12     79     25     82 120.7  81.8  33918  285.48 0855.38
2009/04/23 07:21:25.1     -53    -63     60     83    102 220.5  39.7  33916  285.46 0855.38
2009/04/23 07:21:25.2     -60    -28     23     67     71 244.8  18.9  33914  285.41 0855.38
2009/04/23 07:21:25.3     -21    -26     19     34     38 219.6  31.4  33914  285.43 0855.38
2009/04/23 07:21:25.4       0    -42     28     43     51 180.0  35.6  33914  285.43 0855.38
2009/04/23 07:21:25.5       0    -43     41     44     60 180.9  48.0  33914  285.41 0855.38
2009/04/23 07:21:25.6     -28     -9     37     30     47 251.8  56.4  33914  285.43 0855.38
2009/04/23 07:21:25.7     -48     12     33     50     59 284.2  36.5  33914  285.41 0855.38
2009/04/23 07:21:25.8     -62     20     30     66     72 288.2  27.1  33914  285.43 0855.38
2009/04/23 07:21:25.9     -92     -7     37     93    100 265.6  23.0  33910  285.36 0855.38
2009/04/23 07:21:26.0     -83    -14     28     85     90 259.9  18.4  33912  285.39 0855.38
2009/04/23 07:21:26.1     -54    -21      5     59     60 248.3   4.9  33912  285.38 0855.38
2009/04/23 07:21:26.2     -35    -34     21     50     54 225.9  23.0  33912  285.39 0855.38
2009/04/23 07:21:26.3     -15    -43     24     46     51 200.0  29.3  33914  285.41 0855.38
2009/04/23 07:21:26.4     -13    -36     13     39     42 200.9  19.2  33912  285.38 0855.38
2009/04/23 07:21:26.5     -18    -38      6     43     44 205.4   9.0  33916  285.44 0855.38
2009/04/23 07:21:26.6       8    -29     -5     31     32 164.9  -9.3  33912  285.39 0855.38
2009/04/23 07:21:26.7       5    -28     -5     29     30 168.4 -11.3  33912  285.38 0855.38
2009/04/23 07:21:26.8       1    -35    -10     36     38 177.3 -15.5  33912  285.38 0855.38
2009/04/23 07:21:26.9      11    -27     -8     30     32 158.2 -15.5  33910  285.36 0855.38
2009/04/23 07:21:27.0       0    -14    -13     15     19 182.7 -50.2  33912  285.39 0855.38
2009/04/23 07:21:27.1       9     -3    -16     10     18 111.7 -69.1  33910  285.36 0855.38
2009/04/23 07:21:27.2       7      0    -18      8     19  90.0 -81.5  33912  285.39 0855.38
2009/04/23 07:21:27.3       2     -3      2      4      4 147.5  35.5  33914  285.43 0855.38
2009/04/23 07:21:27.4      16    -12     16     21     26 127.8  41.7  33914  285.41 0855.38
2009/04/23 07:21:27.5      27     -5     27     28     38 101.5  52.0  33916  285.44 0855.38
2009/04/23 07:21:27.6      49      0     35     50     61  90.0  38.6  33916  285.44 0855.38
2009/04/23 07:21:27.7      79      0     20     80     83  90.0  14.3  33916  285.46 0855.38
2009/04/23 07:21:27.8     120     -2      6    121    122  91.3   2.9  33914  285.43 0855.38
2009/04/23 07:21:27.9      86     -5     78     87    116  93.5  46.9  33914  285.41 0855.38
2009/04/23 07:21:28.0      30     39     26     50     56  37.0  29.3  33914  285.41 0855.38
2009/04/23 07:21:28.1      38     92     37    100    106  22.7  20.4  33914  285.43 0855.38
2009/04/23 07:21:28.2      41     70     46     82     94  30.7  32.4  33916  285.46 0855.38
2009/04/23 07:21:28.3      66     49     25     83     87  53.6  16.8  33916  285.44 0855.38
2009/04/23 07:21:28.4      59     69     30     91     96  40.5  18.4  33918  285.48 0855.38
2009/04/23 07:21:28.5      91     65     -4    112    113  54.5  -2.2  33918  285.48 0855.38
2009/04/23 07:21:28.6     159     24     41    161    167  81.4  14.3  33916  285.46 0855.38
2009/04/23 07:21:28.7     120     82     64    146    159  55.8  25.3  33918  285.48 0855.38
2009/04/23 07:21:28.8      59    139     57    152    162  23.2  21.3  33914  285.43 0855.38
2009/04/23 07:21:28.9      59    125     82    139    161  25.3  33.1  33916  285.46 0855.38
2009/04/23 07:21:29.0      48     78     45     92    102  31.6  27.3  33916  285.44 0855.38
2009/04/23 07:21:29.1      81     53     79     98    125  56.7  43.3  33914  285.43 0855.38
2009/04/23 07:21:29.2     127     28     86    131    156  77.2  35.6  33914  285.43 0855.38
2009/04/23 07:21:29.3     122     -9     77    123    145  94.3  35.5  33916  285.44 0855.38
2009/04/23 07:21:29.4     169    -12      1    170    171  94.3   0.5  33918  285.48 0855.38
2009/04/23 07:21:29.5     171      0     70    172    185  90.0  23.1  33916  285.44 0855.38
2009/04/23 07:21:29.6     204     34     53    207    214  80.3  14.5  33914  285.43 0855.38
2009/04/23 07:21:29.7     175     90     91    198    217  62.7  26.4  33916  285.44 0855.38
2009/04/23 07:21:29.8     173     57     50    183    190  71.6  15.3  33914  285.43 0855.38
2009/04/23 07:21:29.9     177     78     91    194    214  66.3  27.1  33916  285.44 0855.38
2009/04/23 07:21:30.0     185     74     71    200    213  68.0  19.6  33916  285.46 0855.38
2009/04/23 07:21:30.1     194     91     82    215    230  64.8  21.7  33916  285.44 0855.38
2009/04/23 07:21:30.2     196     92     83    217    232  64.7  22.0  33916  285.46 0855.38
2009/04/23 07:21:30.3     172     93     88    196    214  61.6  25.9  33912  285.39 0855.38
2009/04/23 07:21:30.4     184     81     38    202    206  66.3  10.8  33916  285.44 0855.38
2009/04/23 07:21:30.5     169     99     46    197    203  59.6  13.2  33916  285.44 0855.38
2009/04/23 07:21:30.6     180     89      0    202    203  63.6   0.2  33916  285.44 0855.38
2009/04/23 07:21:30.7     157    110      3    192    193  54.9   1.0  33916  285.44 0855.38
2009/04/23 07:21:30.8     150     99    -12    180    181  56.5  -3.9  33916  285.44 0855.38
2009/04/23 07:21:30.9     139    123    -28    186    189  48.4  -8.8  33918  285.48 0855.38
2009/04/23 07:21:31.0     188     95    -31    211    214  63.1  -8.6  33918  285.50 0855.38
2009/04/23 07:21:31.1     174     81    -24    193    195  64.9  -7.3  33920  285.53 0855.38
2009/04/23 07:21:31.2     185     85    -34    204    207  65.2  -9.6  33918  285.48 0855.38
2009/04/23 07:21:31.3     199     46     -4    205    206  76.8  -1.3  33916  285.44 0855.38
2009/04/23 07:21:31.4     227     53    -36    234    237  76.7  -8.8  33922  285.54 0855.38
2009/04/23 07:21:31.5     165    -15    -37    166    171  95.2 -12.6  33916  285.46 0855.38
2009/04/23 07:21:31.6     158     36     65    163    175  77.2  23.0  33920  285.51 0855.38
2009/04/23 07:21:31.7     163      6     57    164    174  87.6  19.4  33922  285.55 0855.38
2009/04/23 07:21:31.8     167     23     55    169    178  81.9  18.1  33920  285.53 0855.38
2009/04/23 07:21:31.9     164      4     58    165    175  88.3  19.4  33922  285.55 0855.38
2009/04/23 07:21:32.0     188      0     -6    189    190  90.0  -2.1  33920  285.53 0855.38
2009/04/23 07:21:32.1     189     -1    -54    190    198  90.6 -16.0  33918  285.50 0855.38
2009/04/23 07:21:32.2     238     48    -25    243    245  78.5  -6.0  33918  285.49 0855.38
2009/04/23 07:21:32.3     242     56    -37    249    252  77.0  -8.6  33922  285.54 0855.38
2009/04/23 07:21:32.4     214     34    -50    217    223  80.8 -13.2  33920  285.53 0855.38
2009/04/23 07:21:32.5     213     62     -4    223    224  73.6  -1.3  33920  285.53 0855.38
2009/04/23 07:21:32.6     224     50     -8    230    231  77.2  -2.1  33924  285.58 0855.38
2009/04/23 07:21:32.7     196     70      2    209    210  70.3   0.8  33924  285.58 0855.38
2009/04/23 07:21:32.8     183     41     -1    188    189  77.4  -0.5  33918  285.50 0855.38
2009/04/23 07:21:32.9     202    -21     41    204    209  96.1  11.4  33918  285.48 0855.38
2009/04/23 07:21:33.0     187    -66      6    199    200 109.5   1.8  33916  285.44 0855.38
2009/04/23 07:21:33.1     169    -45     11    175    176 105.1   3.6  33914  285.43 0855.38
2009/04/23 07:21:33.2     167    -38     27    172    175 103.0   9.0  33912  285.39 0855.38
2009/04/23 07:21:33.3     170    -71     36    185    189 112.6  11.0  33916  285.44 0855.38
2009/04/23 07:21:33.4     187    -45     24    193    195 103.5   7.1  33920  285.53 0855.38
2009/04/23 07:21:33.5     202    -27     -4    204    205  97.7  -1.3  33918  285.48 0855.38
2009/04/23 07:21:33.6     178      8    -30    179    182  87.2  -9.6  33920  285.51 0855.38
2009/04/23 07:21:33.7     170     23      4    172    173  82.1   1.6  33920  285.51 0855.38
2009/04/23 07:21:33.8     147    -21    -53    149    159  98.4 -19.6  33920  285.51 0855.38
2009/04/23 07:21:34.0     136    -48     -1    145    146 109.5  -0.7  33918  285.50 0855.38
2009/04/23 07:21:34.1     129    -56    -27    141    144 113.5 -10.9  33916  285.44 0855.38
2009/04/23 07:21:34.2     183     -5     71    184    197  91.7  22.3  33914  285.43 0855.38
2009/04/23 07:21:34.3      93    -16     98     95    136 100.1  50.2  33920  285.51 0855.38
2009/04/23 07:21:34.4      39    -38     88     55    103 134.1  64.7  33918  285.48 0855.38
2009/04/23 07:21:34.5      55     -5     92     56    107  96.1  65.1  33918  285.50 0855.38
2009/04/23 07:21:34.6      10     -9     64     14     65 133.3  89.0  33914  285.43 0855.38
2009/04/23 07:21:34.7       7    -91     73     92    117 175.5  43.3  33904  285.24 0855.38
2009/04/23 07:21:34.8      20   -105     59    108    123 168.9  31.3  33904  285.24 0855.38
2009/04/23 07:21:34.9      29   -126     39    130    136 167.1  16.8  33906  285.28 0855.38
2009/04/23 07:21:35.0      56   -129     17    141    143 156.4   6.9  33908  285.31 0855.38
2009/04/23 07:21:35.1      22   -142     18    144    146 171.1   7.1  33906  285.29 0855.38
2009/04/23 07:21:35.2       9   -121    -15    122    123 175.5  -7.2  33908  285.33 0855.38
2009/04/23 07:21:35.3       6   -144    -18    145    147 177.3  -7.3  33910  285.36 0855.38
2009/04/23 07:21:35.4     -10   -139     11    140    141 184.4   4.9  33912  285.38 0855.38
2009/04/23 07:21:35.5     -11   -148     43    149    156 184.4  16.0  33910  285.36 0855.38
2009/04/23 07:21:35.6      -4   -180     82    181    198 181.4  25.9  33918  285.48 0855.38
2009/04/23 07:21:35.7       8   -189     82    190    206 177.3  25.1  33918  285.48 0855.38
2009/04/23 07:21:35.8      22   -181     94    183    205 172.9  29.2  33918  285.48 0855.38
2009/04/23 07:21:35.9      31   -168    107    171    201 169.3  35.5  33914  285.43 0855.38
2009/04/23 07:21:36.0      37   -167    105    172    201 167.3  34.2  33912  285.39 0855.38
2009/04/23 07:21:36.1      22   -159     87    161    183 172.0  31.0  33916  285.44 0855.38
2009/04/23 07:21:36.2      15   -155     82    156    176 174.2  30.1  33922  285.55 0855.38
2009/04/23 07:21:36.3      24   -193     77    195    209 172.9  22.8  33920  285.53 0855.38
2009/04/23 07:21:36.4      43   -194     61    199    209 167.3  17.1  33922  285.55 0855.38
2009/04/23 07:21:36.5      23   -182     55    184    193 172.7  16.8  33926  285.63 0855.38
2009/04/23 07:21:36.6      14   -159     69    160    174 174.7  24.6  33926  285.63 0855.38
2009/04/23 07:21:36.7      35   -159     88    163    185 167.5  30.8  33922  285.56 0855.38
2009/04/23 07:21:36.8      34   -159     82    163    182 167.7  28.5  33920  285.51 0855.38
2009/04/23 07:21:36.9      37   -157     66    162    174 166.7  23.4  33926  285.61 0855.38
2009/04/23 07:21:37.0      19   -154     24    156    158 172.9   8.8  33928  285.65 0855.38
2009/04/23 07:21:37.1      14   -158      3    159    160 174.7   1.2  33926  285.61 0855.38
2009/04/23 07:21:37.2      22   -156     26    158    161 171.9   9.5  33930  285.68 0855.38
2009/04/23 07:21:37.3      75   -136     38    156    161 151.0  13.9  33928  285.65 0855.38
2009/04/23 07:21:37.4     117   -154     26    194    196 142.6   7.8  33932  285.71 0855.38
2009/04/23 07:21:37.5     105   -141     48    177    184 143.3  15.2  33934  285.75 0855.38
2009/04/23 07:21:37.6     103   -162     74    193    206 147.5  22.0  33934  285.75 0855.38
2009/04/23 07:21:37.7      75   -203     80    217    231 159.5  20.9  33928  285.65 0855.38
2009/04/23 07:21:37.8      96   -234     67    253    262 157.7  15.0  33930  285.69 0855.38
2009/04/23 07:21:37.9      78   -238     91    251    268 161.7  19.9  33928  285.64 0855.38
2009/04/23 07:21:38.0      81   -221     75    236    248 159.7  17.7  33928  285.66 0855.38
2009/04/23 07:21:38.1     100   -211     88    234    250 154.7  21.5  33930  285.67 0855.38
2009/04/23 07:21:38.2      69   -206     82    218    232 161.3  21.3  33930  285.70 0855.38
2009/04/23 07:21:38.3      68   -191     74    203    216 160.4  20.9  33930  285.68 0855.38
2009/04/23 07:21:38.4      68   -159     99    174    200 156.8  32.1  33930  285.70 0855.38
2009/04/23 07:21:38.5      44   -151     89    158    181 163.5  31.6  33930  285.68 0855.38
2009/04/23 07:21:38.6      96   -166    119    193    226 149.9  35.0  33932  285.73 0855.38
2009/04/23 07:21:38.7      81   -112    121    139    184 144.0  45.6  33930  285.70 0855.38
2009/04/23 07:21:38.8     132   -141     70    194    206 136.8  20.9  33930  285.70 0855.39
2009/04/23 07:21:38.9     111   -154     69    191    203 144.2  20.7  33930  285.68 0855.39
2009/04/23 07:21:39.0      92   -151    125    177    216 148.6  38.8  33924  285.60 0855.39
2009/04/23 07:21:39.1     178   -136    156    225    273 127.5  38.0  33930  285.67 0855.39
2009/04/23 07:21:39.2     174   -111    100    207    229 122.6  27.3  33930  285.68 0855.39
2009/04/23 07:21:39.3     166    -97     93    193    214 120.2  27.3  33930  285.68 0855.39
2009/04/23 07:21:39.4     105   -103    114    148    186 134.4  42.0  33930  285.70 0855.39
2009/04/23 07:21:39.5     127   -163    101    207    230 142.1  27.4  33928  285.66 0855.39
2009/04/23 07:21:39.6     134   -134    101    190    215 135.0  30.3  33932  285.73 0855.39
2009/04/23 07:21:39.7      78   -174    136    191    234 155.7  38.8  33932  285.71 0855.39
2009/04/23 07:21:39.8      83   -151    125    173    213 151.3  39.5  33930  285.68 0855.39
2009/04/23 07:21:39.9      41   -143    112    149    186 164.0  40.9  33930  285.70 0855.39
2009/04/23 07:21:40.0      56   -128    115    140    181 156.3  43.7  33928  285.66 0855.39
2009/04/23 07:21:40.1      67   -168    126    181    220 158.2  38.4  33926  285.63 0855.39
2009/04/23 07:21:40.2      49   -185    133    192    233 165.1  37.8  33926  285.63 0855.39
2009/04/23 07:21:40.3      43   -203    130    208    245 168.0  35.2  33928  285.66 0855.39
2009/04/23 07:21:40.4      59   -199    109    208    234 163.3  29.8  33932  285.71 0855.39
2009/04/23 07:21:40.5      36   -195     38    199    203 169.5  10.8  33928  285.65 0855.39
2009/04/23 07:21:40.6      50   -164     12    172    173 162.8   4.2  33930  285.68 0855.39
2009/04/23 07:21:40.7      55   -168     29    177    180 161.7   9.5  33930  285.68 0855.39
2009/04/23 07:21:40.8      52   -193     57    200    209 164.9  16.0  33930  285.68 0855.39
2009/04/23 07:21:40.9      34   -179     22    183    185 169.1   6.9  33928  285.66 0855.39
2009/04/23 07:21:41.0      33   -185     22    189    191 169.8   6.7  33928  285.65 0855.39
2009/04/23 07:21:41.1      39   -195     24    199    201 168.5   6.9  33928  285.66 0855.39
2009/04/23 07:21:41.2       3   -189     34    190    194 178.9  10.3  33928  285.66 0855.39
2009/04/23 07:21:41.3     -32   -230     54    233    240 188.0  13.1  33920  285.52 0855.39
2009/04/23 07:21:41.4     -17   -242     81    243    257 184.0  18.4  33926  285.61 0855.39
2009/04/23 07:21:41.5     -16   -211     77    212    225 184.5  20.7  33924  285.60 0855.39
2009/04/23 07:21:41.6      -4   -185     74    186    200 181.4  23.0  33924  285.60 0855.39
2009/04/23 07:21:41.7     -43   -178     71    184    197 193.6  22.3  33922  285.55 0855.39
2009/04/23 07:21:41.8     -66   -158     98    172    197 202.7  32.4  33922  285.56 0855.39
2009/04/23 07:21:41.9     -44   -153     69    160    174 196.0  24.6  33924  285.58 0855.39
2009/04/23 07:21:42.0     -51   -144     54    153    163 199.6  19.4  33924  285.60 0855.39
2009/04/23 07:21:42.1     -44   -119     62    128    142 200.5  27.3  33926  285.61 0855.39
2009/04/23 07:21:42.2     -21   -113     60    116    130 190.7  29.3  33924  285.58 0855.39
2009/04/23 07:21:42.3       2   -134     47    135    144 179.1  19.4  33926  285.61 0855.39
2009/04/23 07:21:42.4       4   -133     47    134    143 178.2  19.4  33924  285.58 0855.39
2009/04/23 07:21:42.5      21   -127     62    129    143 170.3  27.2  33926  285.61 0855.39
2009/04/23 07:21:42.6      50   -138     51    147    156 160.0  19.4  33922  285.56 0855.39
2009/04/23 07:21:42.7       1   -142     40    143    149 179.5  15.8  33922  285.56 0855.39
2009/04/23 07:21:42.8      39   -131      6    137    138 163.1   2.8  33924  285.58 0855.39
2009/04/23 07:21:42.9      57   -168    -18    178    179 161.3  -6.0  33924  285.58 0855.39
2009/04/23 07:21:43.0      15   -145    -18    146    148 173.8  -7.2  33924  285.58 0855.39
2009/04/23 07:21:43.1       6   -112    -12    113    114 176.9  -6.2  33924  285.58 0855.39
2009/04/23 07:21:43.2       1   -120    -15    121    122 179.5  -7.3  33924  285.58 0855.39
2009/04/23 07:21:43.3      30    -92     -3     97     98 161.7  -2.2  33924  285.60 0855.39
2009/04/23 07:21:43.4      19    -71     -9     74     75 164.9  -7.3  33924  285.60 0855.39
2009/04/23 07:21:43.5       8   -104     -4    105    106 175.5  -2.6  33922  285.56 0855.39
2009/04/23 07:21:43.6      24   -109     -5    112    113 167.1  -2.6  33920  285.51 0855.39
2009/04/23 07:21:43.7      21   -125    -17    127    129 170.3  -7.7  33920  285.51 0855.39
2009/04/23 07:21:43.8      33   -104     13    110    111 162.2   6.9  33920  285.53 0855.39
2009/04/23 07:21:43.9       6   -108    -41    109    116 176.4 -25.4  33920  285.53 0855.39
2009/04/23 07:21:44.0      14    -81    -24     83     86 170.2 -21.2  33914  285.41 0855.39
2009/04/23 07:21:44.1      -1    -53    -19     54     57 181.8 -23.3  33920  285.53 0855.39
2009/04/23 07:21:44.2      26    -27    -15     38     40 136.8 -26.4  33922  285.56 0855.39
2009/04/23 07:21:44.3      41    -24    -25     48     54 120.7 -32.6  33922  285.55 0855.39
2009/04/23 07:21:44.4      41     -7    -25     42     48 100.6 -38.8  33922  285.55 0855.39
2009/04/23 07:21:44.5      33    -15    -16     37     40 115.2 -29.5  33920  285.53 0855.39
2009/04/23 07:21:44.6      22     -8     16     24     28 110.0  35.6  33918  285.50 0855.39
2009/04/23 07:21:44.7      24     -1     -1     25     26  92.6  -3.1  33922  285.55 0855.39
2009/04/23 07:21:44.8      34     22    -13     41     43  56.7 -23.8  33918  285.50 0855.38
2009/04/23 07:21:44.9      41     26    -17     49     51  57.6 -23.3  33918  285.50 0855.38
2009/04/23 07:21:45.0      45     13    -13     47     49  73.2 -15.5  33920  285.53 0855.38
2009/04/23 07:21:45.1      32     34     -7     48     49  43.2  -8.2  33922  285.56 0855.38
2009/04/23 07:21:45.2      34     21     -1     41     42  57.6  -2.2  33920  285.51 0855.38
2009/04/23 07:21:45.3       0     32    -13     33     35 359.1 -25.4  33922  285.56 0855.38
2009/04/23 07:21:45.4      12     28    -21     31     37  23.6 -40.0  33920  285.51 0855.38
2009/04/23 07:21:45.5      46     15      2     49     50  71.8   2.9  33922  285.56 0855.38
2009/04/23 07:21:45.6      55     22     18     60     63  68.3  17.3  33922  285.55 0855.38
2009/04/23 07:21:45.7      92     21     33     95    101  77.2  19.4  33926  285.63 0855.38
2009/04/23 07:21:45.8      77     28     23     82     86  70.0  15.8  33922  285.56 0855.38
2009/04/23 07:21:45.9      62     54      0     83     84  48.7  -0.3  33920  285.53 0855.38
2009/04/23 07:21:46.0      34     59    -23     69     73  29.9 -18.7  33922  285.55 0855.38
2009/04/23 07:21:46.1      46     22     -5     52     53  64.6  -6.2  33924  285.58 0855.38
2009/04/23 07:21:46.2      53     17     28     56     62  71.4  28.2  33922  285.56 0855.38
2009/04/23 07:21:46.3      33     11     46     35     57  71.6  58.5  33924  285.58 0855.38
2009/04/23 07:21:46.4      50    -14     61     52     80 105.9  55.4  33926  285.61 0855.38
2009/04/23 07:21:46.5      46    -32     64     57     85 125.1  53.7  33926  285.63 0855.38
2009/04/23 07:21:46.6      47     -3     53     48     71  94.4  52.2  33928  285.66 0855.38
2009/04/23 07:21:46.7      43      1     62     44     76  87.4  60.6  33928  285.65 0855.38
2009/04/23 07:21:46.8      84     -6     51     85     99  94.4  34.0  33926  285.61 0855.39
2009/04/23 07:21:46.9      58      7     65     59     87  83.0  52.7  33926  285.63 0855.39
2009/04/23 07:21:47.0      48     23     75     54     92  64.7  60.5  33922  285.56 0855.39
2009/04/23 07:21:47.1      22     22     64     32     71  45.1  72.8  33924  285.58 0855.39
2009/04/23 07:21:47.3     -16     13     55     22     59 309.5  77.1  33926  285.61 0855.39
2009/04/23 07:21:47.4     -12     27     57     30     64 334.6  69.8  33928  285.65 0855.39
2009/04/23 07:21:47.5      -7      6     57     10     57 313.1  90.0  33926  285.61 0855.39
2009/04/23 07:21:47.6     -51    -22     52     56     76 246.5  48.0  33928  285.65 0855.39
2009/04/23 07:21:47.7     -79    -42     61     90    108 241.6  37.0  33924  285.60 0855.39
2009/04/23 07:21:47.8     -63    -54     58     84    102 229.6  38.6  33924  285.60 0855.39
2009/04/23 07:21:47.9     -60    -24     49     65     81 248.3  41.2  33928  285.65 0855.39
2009/04/23 07:21:48.0     -53    -25     50     59     77 244.8  43.8  33926  285.63 0855.39
2009/04/23 07:21:48.1     -57     -4     38     58     69 265.6  35.6  33926  285.63 0855.39
2009/04/23 07:21:48.2     -48      3     32     49     58 274.4  35.6  33924  285.58 0855.39
2009/04/23 07:21:48.3     -32      8     28     34     44 285.1  44.8  33926  285.63 0855.39
2009/04/23 07:21:48.4     -57     22     -1     62     63 291.7  -1.3  33926  285.63 0855.39
2009/04/23 07:21:48.5     -57     27     -1     64     65 295.4  -1.3  33926  285.63 0855.39
2009/04/23 07:21:48.6     -62     91     47    111    120 325.7  24.6  33922  285.56 0855.39
2009/04/23 07:21:48.7     -65    129     51    145    154 333.3  19.4  33922  285.55 0855.39
2009/04/23 07:21:48.8     -54    105     57    119    131 332.8  27.3  33924  285.58 0855.39
2009/04/23 07:21:48.9       5     92     43     93    102   3.6  26.6  33922  285.55 0855.40
2009/04/23 07:21:49.0     -26     92     43     96    105 344.0  25.7  33922  285.56 0855.40
2009/04/23 07:21:49.1     -30     69     36     76     84 336.4  27.2  33924  285.58 0855.40
2009/04/23 07:21:49.2     -43     65      9     79     80 326.6   6.9  33920  285.53 0855.40
2009/04/23 07:21:49.3     -67     25      8     72     73 290.8   6.9  33922  285.56 0855.40
2009/04/23 07:21:49.4     -34    -16     61     38     71 244.6  64.7  33924  285.60 0855.40
2009/04/23 07:21:49.5       3    -81     54     82     98 177.3  36.5  33926  285.63 0855.40
2009/04/23 07:21:49.6      33    -27     46     43     62 129.5  52.1  33928  285.65 0855.40
2009/04/23 07:21:49.7      85    -10     66     86    108  97.0  41.7  33928  285.66 0855.40
2009/04/23 07:21:49.8     124    -31     79    128    150 104.2  35.5  33926  285.61 0855.40
2009/04/23 07:21:49.9     137    -34     89    142    167 104.2  35.2  33928  285.65 0855.40
2009/04/23 07:21:50.0     117    -26    111    120    163 102.8  47.9  33930  285.68 0855.40
2009/04/23 07:21:50.1     113    -31    137    118    180 105.5  55.0  33926  285.61 0855.40
2009/04/23 07:21:50.2     130    -30    133    134    188 103.3  50.2  33928  285.66 0855.40
2009/04/23 07:21:50.3      91    -17    108     93    142 101.0  54.8  33926  285.63 0855.40
2009/04/23 07:21:50.4     -13   -103    121    104    159 187.6  55.0  33926  285.63 0855.40
2009/04/23 07:21:50.5     -57    -74    156     94    182 217.8  66.0  33924  285.58 0855.40
2009/04/23 07:21:50.6     -31   -109    122    114    166 196.0  52.2  33928  285.65 0855.40
2009/04/23 07:21:50.7     -74    -71    115    103    154 226.0  53.7  33926  285.61 0855.40
2009/04/23 07:21:50.8     -81    -86    118    119    167 223.3  50.0  33926  285.63 0855.40
2009/04/23 07:21:50.9     -42   -102    100    111    149 202.3  46.9  33928  285.65 0855.39
2009/04/23 07:21:51.0     -51   -104    117    116    164 206.3  49.9  33926  285.63 0855.39
2009/04/23 07:21:51.1     -40   -122    123    129    178 198.3  48.7  33924  285.60 0855.39
2009/04/23 07:21:51.2     -11    -53    120     55    132 191.6  73.5  33930  285.70 0855.39
2009/04/23 07:21:51.3     -27      0    106     28    109 270.0  84.9  33932  285.71 0855.39
2009/04/23 07:21:51.4      -1    -12    109     13    109 186.2  90.0  33932  285.71 0855.39
2009/04/23 07:21:51.5      16     40     77     44     88  21.8  67.7  33930  285.68 0855.39
2009/04/23 07:21:51.6      21     13     68     26     72  57.5  78.2  33930  285.68 0855.39
2009/04/23 07:21:51.7      17     -5     83     18     84 108.2  88.5  33924  285.60 0855.39
2009/04/23 07:21:51.8     -20    -34     59     40     71 210.7  63.6  33924  285.58 0855.39
2009/04/23 07:21:51.9     -17    -14     55     23     59 230.5  77.0  33926  285.63 0855.39
2009/04/23 07:21:52.0      10     22     57     25     62  23.6  75.0  33928  285.66 0855.39
2009/04/23 07:21:52.1     -13     22     65     26     70 329.3  77.1  33930  285.68 0855.39
2009/04/23 07:21:52.2     -34    -23     69     42     80 235.8  66.2  33926  285.63 0855.39
2009/04/23 07:21:52.3       7    -69     89     70    113 173.8  57.5  33926  285.61 0855.39
2009/04/23 07:21:52.4      17    -84    117     86    145 168.4  60.5  33926  285.63 0855.39
2009/04/23 07:21:52.5      19    -58     95     62    113 161.5  64.6  33926  285.61 0855.39
2009/04/23 07:21:52.6      36    -55    101     66    120 146.6  64.1  33926  285.61 0855.39
2009/04/23 07:21:52.7      60     -2     53     61     80  92.6  45.8  33920  285.53 0855.39
2009/04/23 07:21:52.8      38     -9     51     40     64 103.3  58.5  33924  285.58 0855.39
2009/04/23 07:21:52.9      28    -35      7     45     46 141.3   9.0  33920  285.51 0855.40
2009/04/23 07:21:53.0      30     -6     17     31     35 101.5  33.5  33922  285.56 0855.40
2009/04/23 07:21:53.1     -29     28     36     41     54 314.9  46.9  33922  285.56 0855.40
2009/04/23 07:21:53.2     -53     48     25     72     77 312.2  19.2  33924  285.58 0855.40
2009/04/23 07:21:53.3     -66     31     26     74     79 295.2  19.4  33926  285.61 0855.40
2009/04/23 07:21:53.4     -69      6     27     70     75 275.2  21.0  33922  285.56 0855.40
2009/04/23 07:21:53.5     -61    -39     64     73     97 237.6  45.8  33926  285.61 0855.40
2009/04/23 07:21:53.6     -94    -48     48    106    116 242.9  26.6  33924  285.60 0855.40
2009/04/23 07:21:53.7     -87    -41     40     97    104 244.6  23.0  33926  285.61 0855.40
2009/04/23 07:21:53.8     -18    -39     62     44     76 205.4  60.6  33926  285.61 0855.40
2009/04/23 07:21:53.9       2    -31     44     32     54 175.5  60.5  33926  285.61 0855.40
2009/04/23 07:21:54.0      25    -45     38     52     64 150.1  39.7  33924  285.58 0855.40
2009/04/23 07:21:54.1      25    -25     24     36     43 135.0  37.6  33924  285.58 0855.40
2009/04/23 07:21:54.2      21    -32     14     39     41 147.4  20.0  33924  285.60 0855.40
2009/04/23 07:21:54.3      24    -24     11     34     37 134.9  18.9  33926  285.61 0855.40
2009/04/23 07:21:54.4      13     -8      5     16     17 122.4  18.9  33926  285.63 0855.40
2009/04/23 07:21:54.5      13      1      0     14     15  85.6   2.9  33922  285.56 0855.40
2009/04/23 07:21:54.6      23     23     11     33     36  45.0  19.4  33922  285.56 0855.40
2009/04/23 07:21:54.7      34     30     41     46     61  48.7  46.9  33926  285.61 0855.40
2009/04/23 07:21:54.8      56     31     57     65     86  61.1  46.4  33924  285.58 0855.40
2009/04/23 07:21:54.9      -8     91     32     92     98 354.7  19.4  33922  285.56 0855.39
2009/04/23 07:21:55.0     -21     87     43     90     99 346.2  27.2  33922  285.55 0855.39
2009/04/23 07:21:55.1     -34    102     69    108    128 341.3  35.5  33918  285.48 0855.39
2009/04/23 07:21:55.2     -35     89     68     96    117 338.2  39.5  33918  285.48 0855.39
2009/04/23 07:21:55.3     -50     77     57     93    109 327.0  35.0  33916  285.44 0855.39
2009/04/23 07:21:55.4     -65     69     71     95    118 316.8  40.7  33916  285.44 0855.39
2009/04/23 07:21:55.5     -64     90     40    111    117 324.8  20.9  33922  285.55 0855.39
2009/04/23 07:21:55.6     -68     63     32     93     99 312.7  18.9  33922  285.55 0855.39
2009/04/23 07:21:55.7     -80     46     40     93    101 300.2  24.6  33922  285.56 0855.39
2009/04/23 07:21:55.8     -76     15     74     78    107 281.5  48.5  33922  285.55 0855.39
2009/04/23 07:21:55.9     -65     42     49     78     92 303.3  35.5  33922  285.55 0855.39
2009/04/23 07:21:56.0     -38     38     31     54     62 314.9  31.4  33924  285.58 0855.39
2009/04/23 07:21:56.1     -36     66     15     76     78 331.0  11.1  33924  285.60 0855.39
2009/04/23 07:21:56.2       6     86      4     87     88   4.5   2.8  33924  285.58 0855.39
2009/04/23 07:21:56.3      17    116     30    118    122   8.5  14.7  33924  285.60 0855.39
2009/04/23 07:21:56.4      29    141     54    145    154  11.6  20.9  33924  285.58 0855.39
2009/04/23 07:21:56.5      10     95     51     96    108   6.2  30.3  33924  285.58 0855.39
2009/04/23 07:21:56.6      47     82     33     95    101  30.3  19.2  33922  285.55 0855.39
2009/04/23 07:21:56.7      53     79     67     96    117  33.8  38.0  33922  285.55 0855.39
2009/04/23 07:21:56.8      23     79     49     83     96  16.5  34.0  33926  285.61 0855.39
2009/04/23 07:21:56.9      15     77     47     79     91  11.6  34.0  33922  285.56 0855.39
2009/04/23 07:21:57.0     -63     24     52     68     85 290.8  41.2  33922  285.55 0855.39
2009/04/23 07:21:57.1    -100     51      1    113    114 297.1   0.8  33922  285.55 0855.39
2009/04/23 07:21:57.2     -89    108     55    141    151 320.4  23.0  33920  285.51 0855.39
2009/04/23 07:21:57.3     -49    114     60    125    138 336.8  27.2  33924  285.58 0855.39
2009/04/23 07:21:57.4     -75     72     13    105    106 314.0   7.1  33920  285.53 0855.39
2009/04/23 07:21:57.5     -96     93     13    134    135 314.0   5.9  33920  285.51 0855.39
2009/04/23 07:21:57.6     -93     99     50    137    145 316.8  20.4  33918  285.50 0855.39
2009/04/23 07:21:57.7     -36    117     21    123    125 343.0  10.1  33920  285.53 0855.39
2009/04/23 07:21:57.8      22     84     26     87     91  14.7  16.8  33924  285.58 0855.39
2009/04/23 07:21:57.9      42     64     32     77     83  33.4  23.6  33922  285.56 0855.39
2009/04/23 07:21:58.0      35     41     21     54     57  40.5  21.0  33924  285.60 0855.39
2009/04/23 07:21:58.1      31     52    -12     61     63  30.7 -11.3  33922  285.56 0855.39
2009/04/23 07:21:58.2      31     56    -22     65     68  29.0 -23.6  33922  285.55 0855.39
2009/04/23 07:21:58.3     -21     24     -4     33     34 318.6  -7.2  33922  285.56 0855.39
2009/04/23 07:21:58.4     -47    -22     64     53     83 244.6  55.8  33922  285.56 0855.39
2009/04/23 07:21:58.5     -52    -21     56     57     79 247.4  50.0  33922  285.56 0855.39
2009/04/23 07:21:58.6     -18    -24     47     31     56 217.8  64.6  33924  285.58 0855.39
2009/04/23 07:21:58.7      -6    -78     75     79    108 184.4  48.5  33926  285.61 0855.39
2009/04/23 07:21:58.8     -17    -97     85     99    130 190.2  45.4  33928  285.65 0855.39
2009/04/23 07:21:58.9       0    -85     91     86    125 179.5  51.2  33926  285.63 0855.39
2009/04/23 07:21:59.0      12    -86     86     87    122 172.0  50.0  33928  285.65 0855.39
2009/04/23 07:21:59.1       6    -76     95     77    122 175.5  56.4  33928  285.65 0855.39
2009/04/23 07:21:59.2     -12    -70     86     72    112 189.8  56.3  33926  285.63 0855.39
2009/04/23 07:21:59.3       0    -29     66     30     72 180.9  73.1  33922  285.56 0855.39
2009/04/23 07:21:59.4      -8      2     48      9     48 288.4  90.0  33928  285.65 0855.39
2009/04/23 07:21:59.5      -3    -21     49     22     53 189.8  75.0  33928  285.66 0855.39
2009/04/23 07:21:59.6      -3    -21     56     22     60 189.8  77.1  33926  285.63 0855.39
2009/04/23 07:21:59.7     -18    -29     41     35     53 212.6  54.3  33926  285.61 0855.39
2009/04/23 07:21:59.8      -6    -30     24     31     39 191.6  43.7  33926  285.63 0855.39
2009/04/23 07:21:59.9       6    -44     15     45     48 171.1  19.4  33926  285.63 0855.40
2009/04/23 07:22:00.0      11    -55      2     57     58 168.4   2.9  33926  285.61 0855.40
2009/04/23 07:22:00.1      15    -51     27     54     60 163.1  28.2  33926  285.61 0855.40
2009/04/23 07:22:00.2       3    -48     41     49     63 175.5  44.8  33928  285.65 0855.40
2009/04/23 07:22:00.3      -9    -70     31     71     77 188.0  25.1  33926  285.61 0855.40
2009/04/23 07:22:00.4     -23    -62     15     67     69 200.9  13.2  33924  285.60 0855.40
2009/04/23 07:22:00.5     -15    -87      8     89     90 189.8   5.4  33924  285.58 0855.40
2009/04/23 07:22:00.6     -26    -68     54     73     90 200.9  40.1  33922  285.56 0855.40
2009/04/23 07:22:00.7     -24    -46     29     53     60 208.1  31.4  33924  285.58 0855.40
2009/04/23 07:22:00.8      -7    -22     11     24     26 198.3  25.1  33920  285.53 0855.40
2009/04/23 07:22:00.9      31     -6     31     32     44 101.5  51.1  33922  285.55 0855.40
2009/04/23 07:22:01.0      77     10     78     78    110  82.1  50.1  33918  285.50 0855.40
2009/04/23 07:22:01.1      31     27     79     42     89  49.6  69.8  33918  285.48 0855.40
2009/04/23 07:22:01.2      32      3     59     33     67  83.9  68.8  33914  285.43 0855.40
2009/04/23 07:22:01.3      48    -18     66     52     84 110.8  57.9  33916  285.44 0855.40
2009/04/23 07:22:01.4      57      0     69     58     90  90.0  56.3  33914  285.43 0855.40
2009/04/23 07:22:01.5      65     41     44     78     89  57.5  32.4  33918  285.48 0855.40
2009/04/23 07:22:01.6      22     70     55     74     92  17.8  40.7  33918  285.48 0855.40
2009/04/23 07:22:01.7      11     80     32     81     87   8.1  22.0  33920  285.51 0855.40
2009/04/23 07:22:01.8      -6     72     25     73     78 354.7  19.4  33920  285.53 0855.40
2009/04/23 07:22:01.9       7     56     35     57     66   8.0  35.5  33914  285.43 0855.40
2009/04/23 07:22:02.0      56     30     52     64     82  61.1  43.7  33912  285.38 0855.40
2009/04/23 07:22:02.1      68     42     68     81    105  58.0  44.3  33918  285.48 0855.40
2009/04/23 07:22:02.2      62     29     61     69     92  64.6  46.4  33914  285.41 0855.40
2009/04/23 07:22:02.3      75     78     69    109    129  44.1  35.5  33912  285.39 0855.40
2009/04/23 07:22:02.4      80     75     44    111    119  46.8  22.5  33916  285.44 0855.40
2009/04/23 07:22:02.5     108     73     57    131    142  55.8  25.1  33916  285.44 0855.40
2009/04/23 07:22:02.6     113     88     -7    144    145  52.3  -3.1  33916  285.44 0855.40
2009/04/23 07:22:02.7      94    110     17    146    148  40.5   6.9  33914  285.41 0855.40
2009/04/23 07:22:02.8      57     77     66     96    116  36.5  37.6  33912  285.39 0855.40
2009/04/23 07:22:02.9       3      3     73      5     73  45.0  90.0  33916  285.46 0855.40
2009/04/23 07:22:03.0       0     11     49     12     50 357.3  88.0  33920  285.51 0855.40
2009/04/23 07:22:03.1       7     24     66     26     70  16.9  77.1  33922  285.55 0855.40
2009/04/23 07:22:03.2       2     17     69     18     71   8.0  84.9  33924  285.60 0855.40
2009/04/23 07:22:03.3       0      2     84      3     84 350.3  90.0  33926  285.63 0855.40
2009/04/23 07:22:03.4      24      0    101     25    104  90.0  85.4  33926  285.61 0855.40
2009/04/23 07:22:03.5      -4     15    115     16    116 344.9  90.0  33926  285.61 0855.40
2009/04/23 07:22:03.6     -28    -31    126     42    132 222.3  81.0  33926  285.63 0855.40
2009/04/23 07:22:03.7     -35    -30     91     47    102 229.6  70.8  33926  285.63 0855.40
2009/04/23 07:22:03.8     -33    -36     82     50     96 222.3  65.1  33926  285.63 0855.40
2009/04/23 07:22:03.9     -27    -22     67     36     76 230.4  68.9  33926  285.61 0855.40
2009/04/23 07:22:04.0     -25    -60     48     66     81 202.7  40.1  33918  285.50 0855.40
2009/04/23 07:22:04.1     -27    -39     46     48     66 214.3  50.0  33920  285.53 0855.40
2009/04/23 07:22:04.2       0      3     43      4     43 350.3  90.0  33922  285.56 0855.40
2009/04/23 07:22:04.3      22     22     35     32     47  45.0  52.2  33922  285.55 0855.40
2009/04/23 07:22:04.4      29      5     60     30     67  80.3  71.9  33924  285.58 0855.40
2009/04/23 07:22:04.5      39      0     73     40     83  90.0  69.3  33920  285.53 0855.40
2009/04/23 07:22:04.6      28     -7     58     29     64 105.1  71.9  33922  285.55 0855.40
2009/04/23 07:22:04.7      44      1     63     45     77  88.3  60.6  33926  285.61 0855.40
2009/04/23 07:22:04.8       7      0     42      8     42  90.0  90.0  33926  285.63 0855.40
2009/04/23 07:22:04.9      -1    -10     38     11     39 188.0  80.7  33924  285.58 0855.40
2009/04/23 07:22:05.1      18     10     46     21     50  59.3  73.1  33924  285.58 0855.40
2009/04/23 07:22:05.2      35      3     55     36     65  83.9  64.6  33920  285.51 0855.40
2009/04/23 07:22:05.3      25     22     66     34     74  48.7  70.8  33918  285.50 0855.40
2009/04/23 07:22:05.4      44     13     57     46     73  73.2  56.4  33920  285.51 0855.40
2009/04/23 07:22:05.5      70      1     58     71     91  89.1  43.7  33920  285.53 0855.40
2009/04/23 07:22:05.6      68     22     67     72     98  71.4  47.9  33922  285.56 0855.40
2009/04/23 07:22:05.7      76     15     74     78    107  78.5  48.5  33920  285.51 0855.40
2009/04/23 07:22:05.8      58      9     80     59     99  80.3  60.5  33918  285.48 0855.40
2009/04/23 07:22:05.9      77     15     68     79    104  78.5  45.4  33922  285.56 0855.40
2009/04/23 07:22:06.0      70     18     55     73     91  75.0  41.2  33924  285.58 0855.40
2009/04/23 07:22:06.1      81     15     52     83     97  79.4  35.5  33922  285.56 0855.40
2009/04/23 07:22:06.2      85      0     64     86    107  90.0  40.1  33920  285.53 0855.40
2009/04/23 07:22:06.3      82      0     53     83     98  90.0  35.6  33922  285.55 0855.40
2009/04/23 07:22:06.4      69     -5     26     70     74  94.4  20.0  33922  285.55 0855.40
2009/04/23 07:22:06.5      77      0     26     78     83  90.0  18.4  33922  285.55 0855.40
2009/04/23 07:22:06.6      58      1     52     59     78  88.3  46.4  33918  285.50 0855.40
2009/04/23 07:22:06.7      66     -4     64     67     92  94.3  49.0  33918  285.48 0855.40
2009/04/23 07:22:06.8      76     31     55     83     99  67.8  36.5  33920  285.53 0855.40
2009/04/23 07:22:06.9      65     25     57     70     90  68.3  43.7  33918  285.50 0855.40
2009/04/23 07:22:07.0      70     38     45     80     91  61.6  31.9  33918  285.50 0855.40
2009/04/23 07:22:07.1      97     36     36    104    111  69.2  19.4  33920  285.53 0855.40
2009/04/23 07:22:07.2     104     42     57    113    126  67.8  29.2  33916  285.46 0855.40
2009/04/23 07:22:07.3      95     41     28    104    108  66.5  15.3  33918  285.48 0855.40
2009/04/23 07:22:07.4     100     48     55    112    124  64.2  28.2  33914  285.41 0855.40
2009/04/23 07:22:07.5     106     36     74    113    135  70.9  35.6  33912  285.38 0855.40
2009/04/23 07:22:07.6      90     44     12    101    102  63.8   6.9  33916  285.46 0855.40
2009/04/23 07:22:07.7      89     76      1    118    119  49.6   0.8  33916  285.44 0855.40
2009/04/23 07:22:07.8      97     46     -5    108    109  64.2  -3.1  33916  285.46 0855.40
2009/04/23 07:22:07.9      78     52     25     94     98  56.3  15.3  33914  285.43 0855.40
2009/04/23 07:22:08.0      89     43     19     99    101  64.2  11.0  33916  285.46 0855.40
2009/04/23 07:22:08.1      37     50     44     63     76  36.1  37.6  33914  285.43 0855.40
2009/04/23 07:22:08.2      41     70     46     82     94  30.7  32.4  33918  285.48 0855.40
2009/04/23 07:22:08.3      57     54     36     79     86  46.8  25.7  33916  285.44 0855.40
2009/04/23 07:22:08.4      59     37     37     70     79  57.5  30.3  33918  285.48 0855.40
2009/04/23 07:22:08.5      69     41     21     81     84  58.9  14.7  33916  285.44 0855.40
2009/04/23 07:22:08.6      74     15     21     76     80  78.5  15.8  33916  285.44 0855.40
2009/04/23 07:22:08.7      71      5     14     72     74  85.6  11.1  33916  285.44 0855.40
2009/04/23 07:22:08.8      90     19    -18     93     95  77.6 -11.3  33918  285.50 0855.40
2009/04/23 07:22:08.9      81     39    -24     91     95  64.2 -15.0  33918  285.50 0855.40
2009/04/23 07:22:09.0      80     48      4     94     95  59.3   2.8  33916  285.46 0855.40
2009/04/23 07:22:09.1     115     31     11    120    121  75.0   5.4  33916  285.46 0855.40
2009/04/23 07:22:09.2      89     51     24    103    106  60.2  13.2  33916  285.44 0855.40
2009/04/23 07:22:09.3      77     69     -2    104    105  47.8  -1.3  33916  285.46 0855.40
2009/04/23 07:22:09.4     105     87      7    137    138  50.5   3.3  33916  285.46 0855.40
2009/04/23 07:22:09.5     130     97     21    163    165  53.1   7.5  33916  285.44 0855.40
2009/04/23 07:22:09.6     131     62     16    145    146  64.6   6.5  33914  285.43 0855.40
2009/04/23 07:22:09.7     123     68     38    141    147  61.1  15.3  33912  285.38 0855.40
2009/04/23 07:22:09.8     182     80     66    199    210  66.3  18.6  33916  285.44 0855.40
2009/04/23 07:22:09.9     176     81     68    194    206  65.2  19.4  33920  285.53 0855.40
2009/04/23 07:22:10.0     160     69     48    175    182  66.7  15.3  33916  285.46 0855.40
2009/04/23 07:22:10.1     203     80     26    219    221  68.3   6.9  33922  285.56 0855.40
2009/04/23 07:22:10.2     208     83      8    225    226  68.2   2.1  33922  285.56 0855.40
2009/04/23 07:22:10.3     189     75     -7    204    205  68.2  -2.2  33920  285.53 0855.40
2009/04/23 07:22:10.4     177     91     10    200    201  62.7   3.1  33920  285.53 0855.40
2009/04/23 07:22:10.5     214     85     20    231    232  68.3   5.0  33916  285.46 0855.40
2009/04/23 07:22:10.6     211    102      4    235    236  64.2   1.0  33920  285.51 0855.40
2009/04/23 07:22:10.7     177     51     25    185    187  73.8   7.8  33920  285.53 0855.40
2009/04/23 07:22:10.8     173     13     23    174    176  85.6   7.8  33918  285.48 0855.40
2009/04/23 07:22:10.9     181     25      7    183    184  82.1   2.3  33922  285.55 0855.40
2009/04/23 07:22:11.0     183     60    -16    193    194  71.8  -4.9  33922  285.55 0855.40
2009/04/23 07:22:11.1     204     60    -30    213    216  73.4  -8.0  33920  285.51 0855.40
2009/04/23 07:22:11.2     144     35     -5    149    150  76.3  -2.2  33918  285.50 0855.40
2009/04/23 07:22:11.3     155     42      8    161    162  74.7   3.1  33920  285.53 0855.40
2009/04/23 07:22:11.4     135    107    -22    173    175  51.6  -7.3  33920  285.53 0855.40
2009/04/23 07:22:11.5     139     87     -9    165    166  58.0  -3.1  33916  285.46 0855.40
2009/04/23 07:22:11.6     140     66     21    155    157  64.7   8.0  33918  285.50 0855.40
2009/04/23 07:22:11.7     129     57     52    142    151  66.0  21.0  33918  285.50 0855.40
2009/04/23 07:22:11.8     133     44     49    141    150  71.4  19.4  33918  285.50 0855.40
2009/04/23 07:22:11.9     206     76     19    220    221  69.6   5.0  33922  285.55 0855.41
2009/04/23 07:22:12.0     171    124    -14    212    213  54.1  -3.9  33922  285.56 0855.41
2009/04/23 07:22:12.1     143    109      9    181    182  52.7   3.1  33926  285.63 0855.41
2009/04/23 07:22:12.2     157    103      0    189    190  56.7  -0.3  33924  285.58 0855.41
2009/04/23 07:22:12.3     181    107     -4    211    212  59.3  -1.3  33922  285.56 0855.41
2009/04/23 07:22:12.4     236     74     -1    248    249  72.5  -0.3  33922  285.54 0855.41
2009/04/23 07:22:12.5     241     71     -1    252    253  73.6  -0.3  33922  285.56 0855.41
2009/04/23 07:22:12.6     198     45     18    204    205  77.0   5.2  33920  285.53 0855.41
2009/04/23 07:22:12.7     114     53     28    126    130  64.8  12.6  33922  285.55 0855.41
2009/04/23 07:22:12.9      86    111     77    141    160  37.9  31.0  33920  285.53 0855.41
2009/04/23 07:22:13.0     102    136    103    171    199  37.0  33.7  33920  285.53 0855.41
2009/04/23 07:22:13.0      56    159     92    169    192  19.6  31.3  33922  285.55 0855.41
2009/04/23 07:22:13.1      41    172     96    177    201  13.4  30.8  33920  285.51 0855.41
2009/04/23 07:22:13.2      59    178     45    188    194  18.5  13.7  33916  285.44 0855.41
2009/04/23 07:22:13.4      38    187     65    191    202  11.5  18.9  33916  285.46 0855.41
2009/04/23 07:22:13.5     116    182     61    216    225  32.5  15.8  33918  285.48 0855.41
2009/04/23 07:22:13.6     104    154     64    187    198  34.1  18.9  33920  285.51 0855.41
2009/04/23 07:22:13.7     105    137     95    173    197  37.6  31.4  33918  285.48 0855.41
2009/04/23 07:22:13.8      29    217    102    220    242   7.8  26.4  33920  285.51 0855.41
2009/04/23 07:22:13.9      44    176    -10    182    183  14.3  -3.3  33920  285.53 0855.41
2009/04/23 07:22:14.0      32     80    -41     87     96  21.8 -31.6  33920  285.53 0855.40
2009/04/23 07:22:14.1     -35     38    -28     52     59 317.7 -35.7  33920  285.53 0855.40
2009/04/23 07:22:14.2     -53     53    -33     76     82 314.9 -29.0  33918  285.50 0855.40
2009/04/23 07:22:14.3    -121     96    -91    155    179 308.6 -37.5  33926  285.61 0855.40
2009/04/23 07:22:14.4    -189    109    -98    219    239 300.0 -30.1  33928  285.64 0855.40
2009/04/23 07:22:14.5    -219    103   -113    243    267 295.2 -31.5  33928  285.64 0855.40
2009/04/23 07:22:14.6    -216    179   -102    281    298 309.6 -25.3  33924  285.59 0855.40
2009/04/23 07:22:14.7    -160    199    -72    256    265 321.3 -20.4  33924  285.59 0855.40
2009/04/23 07:22:14.8    -102    192    -89    218    235 331.9 -28.0  33914  285.43 0855.40
2009/04/23 07:22:14.9    -119    196    -36    230    233 328.8  -9.0  33920  285.53 0855.40
2009/04/23 07:22:15.0    -137    150    -29    204    207 317.5  -8.2  33916  285.44 0855.40
2009/04/23 07:22:15.1    -125    144    -14    191    192 319.0  -4.4  33918  285.48 0855.40
2009/04/23 07:22:15.2    -149    123    -58    194    202 309.5 -21.7  33916  285.46 0855.40
2009/04/23 07:22:15.3    -141    134    -64    195    205 313.6 -23.8  33916  285.46 0855.40
2009/04/23 07:22:15.4     -66    154      2    168    169 336.8   0.8  33916  285.44 0855.40
2009/04/23 07:22:15.5    -156    147    -59    215    224 313.3 -15.5  33918  285.48 0855.40
2009/04/23 07:22:15.6    -158    176    -36    237    240 318.1  -8.8  33918  285.49 0855.40
2009/04/23 07:22:15.7    -144    143    -39    203    207 314.8 -11.1  33916  285.44 0855.40
2009/04/23 07:22:15.8     -84    209    -19    226    227 337.9  -4.9  33918  285.48 0855.40
2009/04/23 07:22:15.9     -60    206     16    215    216 343.7   4.4  33916  285.44 0855.40
2009/04/23 07:22:16.0     -35    173     92    177    199 348.4  29.5  33916  285.46 0855.40
2009/04/23 07:22:16.1     -97    204     46    227    232 334.5  11.6  33912  285.38 0855.40
2009/04/23 07:22:16.2    -217    146    -83    262    275 304.1 -17.6  33926  285.62 0855.40
2009/04/23 07:22:16.3    -149     58    -97    160    187 291.3 -38.6  33928  285.66 0855.40
2009/04/23 07:22:16.4    -141    127    -35    191    195 312.0 -10.5  33922  285.55 0855.40
2009/04/23 07:22:16.5    -149    133     -6    200    201 311.8  -1.8  33922  285.56 0855.40
2009/04/23 07:22:16.6    -116    109     11    160    161 313.1   4.2  33922  285.55 0855.40
2009/04/23 07:22:16.7    -127    127     24    180    182 315.1   7.8  33918  285.48 0855.40
2009/04/23 07:22:16.8     -84    153     21    175    177 331.3   6.9  33916  285.46 0855.40
2009/04/23 07:22:16.9     -50    156     58    164    175 342.2  19.6  33914  285.41 0855.40
2009/04/23 07:22:17.0     -55    138     52    149    159 338.2  19.4  33914  285.41 0855.40
2009/04/23 07:22:17.1     -57    114     42    128    135 333.3  18.4  33918  285.48 0855.40
2009/04/23 07:22:17.2     -80    113      7    139    140 324.4   2.9  33916  285.44 0855.40
2009/04/23 07:22:17.3    -101    107     -3    148    149 316.8  -1.3  33908  285.33 0855.40
2009/04/23 07:22:17.4     -75    116      1    139    140 327.0   0.7  33914  285.41 0855.40
2009/04/23 07:22:17.5     -64    109     14    127    128 329.3   6.5  33912  285.39 0855.40
2009/04/23 07:22:17.6     -70    103     14    125    126 325.8   6.5  33916  285.46 0855.40
2009/04/23 07:22:17.7     -57    100     13    116    117 330.1   6.9  33918  285.50 0855.40
2009/04/23 07:22:17.8     -63     87    -13    108    109 324.0  -7.2  33916  285.44 0855.40
2009/04/23 07:22:17.9     -48     47    -18     68     71 314.1 -15.4  33920  285.53 0855.40
2009/04/23 07:22:18.0     -12     27    -23     30     37 334.6 -46.1  33920  285.53 0855.40
2009/04/23 07:22:18.1       0      6    -25      7     25 355.5 -87.2  33918  285.50 0855.40
2009/04/23 07:22:18.2      -2     -8    -38      9     39 198.3 -90.0  33918  285.50 0855.40
2009/04/23 07:22:18.3       1    -18    -24     19     30 175.6 -60.8  33918  285.48 0855.40
2009/04/23 07:22:18.4      -3    -22    -11     23     25 188.0 -31.6  33916  285.46 0855.40
2009/04/23 07:22:18.5       7    -54    -17     55     57 172.0 -23.8  33916  285.44 0855.40
2009/04/23 07:22:18.6       0    -56     -2     57     58 180.9  -2.2  33920  285.53 0855.40
2009/04/23 07:22:18.7       0    -48     -6     49     50 179.1  -7.3  33920  285.51 0855.40
2009/04/23 07:22:18.8      11    -29      6     32     33 158.2  11.1  33920  285.53 0855.40
2009/04/23 07:22:18.9      34    -33     -1     48     49 134.1  -2.2  33918  285.50 0855.40
2009/04/23 07:22:19.0      31    -31     11     45     47 135.0  14.3  33920  285.53 0855.40
2009/04/23 07:22:19.1      21    -25     14     33     35 140.4  23.0  33918  285.50 0855.40
2009/04/23 07:22:19.2      18    -18      5     26     27 134.9  11.1  33918  285.48 0855.40
2009/04/23 07:22:19.3      13     -4      8     14     16 108.6  35.5  33918  285.50 0855.40
2009/04/23 07:22:19.4       7     -3     12      8     14 115.3  60.5  33918  285.50 0855.40
2009/04/23 07:22:19.5       5     16     23     17     28  18.3  58.5  33920  285.51 0855.40
2009/04/23 07:22:19.6      18     26     26     32     41  34.3  43.7  33918  285.48 0855.40
2009/04/23 07:22:19.7       0     15      5     16     17 357.3  18.9  33918  285.48 0855.40
2009/04/23 07:22:19.8     -18    -12     25     22     33 235.8  54.3  33910  285.34 0855.40
2009/04/23 07:22:19.9     -19    -28     61     34     69 214.3  68.8  33904  285.26 0855.40
2009/04/23 07:22:20.0     -22    -38     65     45     79 210.7  62.1  33908  285.31 0855.40
2009/04/23 07:22:20.1     -48    -25     68     55     87 242.9  56.9  33910  285.36 0855.40
2009/04/23 07:22:20.2     -89    133    -29    161    164 326.2 -10.3  33964  286.27 0855.40
2009/04/23 07:22:20.3       7     -3     61      8     61 115.3  90.0  33910  285.36 0855.40
2009/04/23 07:22:20.4     -50    -42     32     66     73 230.4  27.3  33914  285.41 0855.40
2009/04/23 07:22:20.5    -109    -28     -1    113    114 255.4  -0.7  33914  285.41 0855.40
2009/04/23 07:22:20.6    -121     -8     -6    122    123 266.1  -3.1  33910  285.34 0855.40
2009/04/23 07:22:20.7    -132      0     -5    133    134 270.0  -2.2  33910  285.36 0855.40
2009/04/23 07:22:20.8    -128     -1    -17    129    131 269.2  -7.7  33912  285.39 0855.40
2009/04/23 07:22:20.9     -93    -21    -16     96     98 257.2  -9.8  33912  285.38 0855.40
2009/04/23 07:22:21.0    -116     -3    -46    117    125 268.3 -26.9  33912  285.38 0855.39
2009/04/23 07:22:21.1     -72    -83    -22    111    114 221.0 -11.3  33914  285.43 0855.39
2009/04/23 07:22:21.2     -38   -114    -50    121    130 198.3 -28.0  33912  285.39 0855.39
2009/04/23 07:22:21.3     -82    -93      2    125    126 221.4   1.2  33916  285.44 0855.39
2009/04/23 07:22:21.4     -88    -80    -14    120    121 227.8  -6.7  33912  285.38 0855.39
2009/04/23 07:22:21.5     -97    -61    -32    115    120 237.6 -15.5  33914  285.41 0855.39
2009/04/23 07:22:21.6     -92    -73    -21    118    120 231.8 -10.3  33910  285.36 0855.39
2009/04/23 07:22:21.7     -47    -72      3     87     88 213.4   2.3  33914  285.41 0855.39
2009/04/23 07:22:21.8     -71    -54     -3     90     91 232.7  -2.2  33914  285.41 0855.39
2009/04/23 07:22:21.9     -83    -47     -6     96     97 240.2  -4.1  33914  285.41 0855.39
2009/04/23 07:22:22.0     -76    -28    -14     82     84 249.6  -9.8  33918  285.48 0855.39
2009/04/23 07:22:22.1     -62    -33    -13     71     73 242.0 -10.3  33922  285.56 0855.39
2009/04/23 07:22:22.2     -46     -3    -35     47     58 265.6 -45.1  33922  285.56 0855.39
2009/04/23 07:22:22.3     -10    -32      6     34     35 198.5  11.1  33922  285.55 0855.39
2009/04/23 07:22:22.4       9    -27     43     29     51 161.5  62.6  33918  285.50 0855.39
2009/04/23 07:22:22.5      28    -45     32     54     62 148.4  33.5  33918  285.48 0855.39
2009/04/23 07:22:22.6      -2    -70     40     71     81 181.8  31.9  33916  285.44 0855.39
2009/04/23 07:22:22.7      -5    -44     34     45     56 187.1  40.7  33916  285.44 0855.39
2009/04/23 07:22:22.8     -30      6     28     31     41 281.5  46.9  33918  285.48 0855.39
2009/04/23 07:22:22.9     -45     21     22     50     54 295.4  26.2  33916  285.44 0855.39
2009/04/23 07:22:23.0     -49     10     15     51     54 281.5  16.3  33914  285.41 0855.39
2009/04/23 07:22:23.1     -38     22     25     45     51 300.7  31.4  33912  285.38 0855.39
2009/04/23 07:22:23.2     -34     12      1     37     38 290.0   2.9  33912  285.39 0855.39
2009/04/23 07:22:23.3     -31     11      6     34     35 290.0  11.1  33914  285.43 0855.39
2009/04/23 07:22:23.4     -34      4     -1     35     36 277.9  -3.1  33910  285.36 0855.39
2009/04/23 07:22:23.5     -29     24      9     38     40 309.5  13.2  33914  285.41 0855.39
2009/04/23 07:22:23.6     -32     39     -4     51     52 320.4  -5.2  33912  285.38 0855.39
2009/04/23 07:22:23.7     -36     16      1     40     41 294.4   1.8  33914  285.41 0855.39
2009/04/23 07:22:23.8     -10     10     22     15     26 315.0  64.6  33912  285.39 0855.39
2009/04/23 07:22:23.9      -5     18     33     19     38 341.7  64.7  33914  285.43 0855.39
2009/04/23 07:22:24.0     -16     11     25     20     32 304.2  56.4  33914  285.41 0855.39
2009/04/23 07:22:24.1     -44     14      8     47     48 288.6  10.1  33912  285.39 0855.39
2009/04/23 07:22:24.2     -40      5     -1     41     42 277.9  -2.2  33912  285.39 0855.39
2009/04/23 07:22:24.3     -42     -3     -1     43     44 264.8  -2.2  33914  285.41 0855.39
2009/04/23 07:22:24.4     -32    -15     -4     36     37 244.7  -7.3  33916  285.44 0855.39
2009/04/23 07:22:24.5     -26    -22      0     35     36 230.4  -1.3  33914  285.43 0855.39
2009/04/23 07:22:24.6     -15    -24     10     29     31 212.5  19.4  33914  285.41 0855.39
2009/04/23 07:22:24.7     -23    -26      1     36     37 221.4   2.8  33914  285.41 0855.39
2009/04/23 07:22:24.8     -32    -77    -23     84     87 202.7 -20.2  33912  285.38 0855.39
2009/04/23 07:22:24.9     -32    -51    -16     61     64 212.6 -15.4  33908  285.31 0855.39
2009/04/23 07:22:25.0     -19    -49     -2     53     54 201.8  -2.2  33910  285.34 0855.39
2009/04/23 07:22:25.1     -19    -59      8     63     64 197.8   8.0  33910  285.34 0855.39
2009/04/23 07:22:25.2     -45    -54     35     71     79 219.7  28.2  33906  285.29 0855.39
2009/04/23 07:22:25.3     -89    -26      9     93     94 253.6   5.9  33912  285.38 0855.39
2009/04/23 07:22:25.4     -62     -6      7     63     64 263.9   7.1  33910  285.36 0855.39
2009/04/23 07:22:25.5     -76    -30     34     82     88 248.3  23.6  33908  285.33 0855.39
2009/04/23 07:22:25.6     -85    -46     21     97    100 241.6  12.2  33910  285.34 0855.39
2009/04/23 07:22:25.7      -6    -31     23     32     39 191.5  39.7  33910  285.36 0855.39
2009/04/23 07:22:25.8     -11    -29     34     32     46 201.8  50.1  33910  285.36 0855.39
2009/04/23 07:22:25.9      -6    -26     40     27     48 193.4  63.6  33912  285.39 0855.39
2009/04/23 07:22:26.0      -6    -25     34     26     42 193.4  58.5  33914  285.41 0855.39
2009/04/23 07:22:26.1      -1    -34     36     35     50 182.6  49.1  33916  285.44 0855.39
2009/04/23 07:22:26.2      23    -91     22     94     97 165.7  13.7  33920  285.53 0855.39
2009/04/23 07:22:26.3      38    -93     33    101    107 157.7  18.4  33918  285.50 0855.39
2009/04/23 07:22:26.4      56    -89     27    106    110 147.5  14.7  33918  285.50 0855.39
2009/04/23 07:22:26.5      45    -49     23     67     71 137.7  18.9  33918  285.50 0855.39
2009/04/23 07:22:26.6      10    -51     23     53     57 168.4  25.1  33916  285.46 0855.39
2009/04/23 07:22:26.7     -31    -65     35     73     80 205.4  27.8  33916  285.46 0855.39
2009/04/23 07:22:26.8      -6    -85     41     86     95 184.4  27.2  33916  285.46 0855.39
2009/04/23 07:22:26.9     -11   -101     45    102    111 186.2  25.7  33916  285.46 0855.39
2009/04/23 07:22:27.0      14    -86     45     88     98 170.7  28.7  33916  285.46 0855.39
2009/04/23 07:22:27.1      14   -101     46    103    112 171.9  25.7  33916  285.44 0855.39
2009/04/23 07:22:27.2      36    -87     19     95     98 157.7  11.6  33916  285.44 0855.39
2009/04/23 07:22:27.3      28    -94     58     99    114 163.5  33.5  33918  285.48 0855.39
2009/04/23 07:22:27.4      61   -103     10    121    122 149.3   4.9  33918  285.48 0855.39
2009/04/23 07:22:27.5      59   -107     74    123    143 151.0  34.0  33918  285.50 0855.39
2009/04/23 07:22:27.6      43   -116     90    124    153 159.5  39.7  33920  285.51 0855.39
2009/04/23 07:22:27.7      30   -110     84    115    142 164.4  39.7  33916  285.46 0855.39
2009/04/23 07:22:27.8       7    -94     68     95    116 175.5  39.1  33918  285.48 0855.39
2009/04/23 07:22:27.9       9   -114     45    115    123 175.1  22.5  33918  285.50 0855.39
2009/04/23 07:22:28.0      27   -123     38    126    132 167.5  16.8  33916  285.46 0855.39
2009/04/23 07:22:28.1      25    -81     21     85     88 162.6  14.3  33918  285.48 0855.39
2009/04/23 07:22:28.2      10    -75     31     76     82 172.0  23.0  33918  285.50 0855.39
2009/04/23 07:22:28.3      15    -57     35     60     69 164.9  33.5  33920  285.51 0855.39
2009/04/23 07:22:28.4      16    -34     48     38     61 154.6  56.4  33918  285.50 0855.39
2009/04/23 07:22:28.5      24    -50     45     56     71 153.7  43.7  33918  285.50 0855.39
2009/04/23 07:22:28.7      12    -38     32     41     52 161.7  42.7  33918  285.48 0855.39
2009/04/23 07:22:28.8      12    -30     39     33     51 158.2  55.4  33916  285.44 0855.39
2009/04/23 07:22:28.9      26    -23     39     35     52 131.3  53.3  33916  285.44 0855.39
2009/04/23 07:22:29.0      21    -26     27     34     43 140.4  42.7  33918  285.50 0855.39
2009/04/23 07:22:29.1      32     -9     26     34     42 106.8  41.7  33918  285.50 0855.39
2009/04/23 07:22:29.2      19     -2     26     20     32  96.1  56.4  33918  285.50 0855.39
2009/04/23 07:22:29.3      18    -15     24     24     33 131.3  50.1  33918  285.48 0855.39
2009/04/23 07:22:29.4     -15    -31     27     35     44 207.2  42.7  33918  285.50 0855.39
2009/04/23 07:22:29.5     -27    -30     20     41     45 222.3  28.2  33918  285.48 0855.39
2009/04/23 07:22:29.6      -4    -53     15     54     57 184.4  16.3  33918  285.48 0855.39
2009/04/23 07:22:29.7       3    -61     16     62     65 176.4  14.3  33916  285.44 0855.39
2009/04/23 07:22:29.8      36    -55     14     66     68 146.6  12.2  33920  285.53 0855.39
2009/04/23 07:22:29.9      32    -59     21     68     72 151.0  17.3  33920  285.53 0855.39
2009/04/23 07:22:30.0      24    -74     26     78     83 161.7  18.4  33918  285.50 0855.39
2009/04/23 07:22:30.1      26    -73     13     78     80 160.0   9.5  33916  285.46 0855.39
2009/04/23 07:22:30.2      32    -67     27     75     79 154.5  20.4  33918  285.50 0855.39
2009/04/23 07:22:30.3      42    -58     -1     72     73 143.9  -1.3  33920  285.51 0855.39
2009/04/23 07:22:30.4      41    -50     16     65     68 140.4  14.3  33920  285.53 0855.39
2009/04/23 07:22:30.5      26    -38      4     47     48 145.7   5.9  33920  285.53 0855.39
2009/04/23 07:22:30.6      10    -57      2     59     60 169.3   2.8  33918  285.50 0855.39
2009/04/23 07:22:30.7       2    -51      9     52     53 177.3  10.1  33918  285.50 0855.39
2009/04/23 07:22:30.8      -5    -48     -1     49     50 186.2  -2.2  33920  285.51 0855.39
2009/04/23 07:22:30.9       0    -41      9     42     43 180.9  12.2  33918  285.50 0855.39
2009/04/23 07:22:31.0      10    -48     12     50     52 168.4  14.3  33918  285.50 0855.40
2009/04/23 07:22:31.1       6    -33     11     34     37 168.4  18.9  33918  285.50 0855.40
2009/04/23 07:22:31.2       6    -33     11     34     37 168.4  18.9  33918  285.50 0855.40
2009/04/23 07:22:31.3      22    -40     15     46     49 151.0  18.9  33918  285.48 0855.40
2009/04/23 07:22:31.4      39    -40      2     56     57 135.8   2.9  33918  285.48 0855.40
2009/04/23 07:22:31.5      40    -61     -9     74     75 146.6  -7.3  33920  285.51 0855.40
2009/04/23 07:22:31.6      50    -41     -1     65     66 129.5  -1.3  33918  285.48 0855.40
2009/04/23 07:22:31.7      21    -32     22     39     44 145.7  32.4  33916  285.46 0855.40
2009/04/23 07:22:31.8      25    -34     30     43     52 143.9  38.6  33918  285.50 0855.40
2009/04/23 07:22:31.9      13    -23     33     27     42 149.3  55.4  33918  285.48 0855.40
2009/04/23 07:22:32.0       0    -21     34     22     40 180.9  63.6  33920  285.51 0855.40
2009/04/23 07:22:32.1       0     -3     41      4     41 189.7  90.0  33920  285.51 0855.40
2009/04/23 07:22:32.2      -5     -6     35      8     35 219.6  89.0  33922  285.56 0855.40
2009/04/23 07:22:32.3      -6     -2     33      7     33 251.8  89.0  33922  285.56 0855.40
2009/04/23 07:22:32.4     -10      3     36     11     37 288.4  80.7  33918  285.50 0855.40
2009/04/23 07:22:32.5     -12     11     35     17     38 313.3  72.9  33922  285.55 0855.40
2009/04/23 07:22:32.6     -13      8     33     16     36 302.4  72.9  33916  285.46 0855.40
2009/04/23 07:22:32.7     -13      8     33     16     36 302.4  72.9  33916  285.46 0855.40
2009/04/23 07:22:32.8     -16      6     35     18     39 291.7  72.8  33916  285.44 0855.40
2009/04/23 07:22:32.9     -23     13     31     27     41 298.9  54.3  33916  285.44 0855.40
2009/04/23 07:22:33.0     -17     22     35     28     44 322.2  57.5  33916  285.46 0855.40
2009/04/23 07:22:33.1     -27     22     39     35     52 309.5  53.3  33916  285.44 0855.40
2009/04/23 07:22:33.2     -23     19     29     31     42 309.5  49.0  33914  285.43 0855.40
2009/04/23 07:22:33.3     -17      5     29     18     34 288.2  64.7  33910  285.36 0855.40
2009/04/23 07:22:33.4     -12      8     33     15     36 302.4  73.1  33914  285.41 0855.40
2009/04/23 07:22:33.5       6     17     33     19     38  18.7  64.7  33914  285.41 0855.40
2009/04/23 07:22:33.6       9     29     36     31     47  18.7  54.3  33914  285.43 0855.40
2009/04/23 07:22:33.7       0     41     40     42     58 359.1  51.1  33916  285.44 0855.40
2009/04/23 07:22:33.8      -1     53     31     54     62 358.2  31.4  33918  285.50 0855.40
2009/04/23 07:22:33.9      -3     41     28     42     50 355.5  36.5  33918  285.48 0855.40
2009/04/23 07:22:34.0       0     41     40     42     58 359.1  51.1  33916  285.44 0855.40
2009/04/23 07:22:34.1     -15     43     31     46     55 340.0  35.6  33918  285.50 0855.40
2009/04/23 07:22:34.2     -28     44     32     53     61 327.5  34.4  33916  285.46 0855.40
2009/04/23 07:22:34.3       6     49     29     50     57   8.0  33.5  33916  285.46 0855.40
2009/04/23 07:22:34.4      18     45     31     49     57  21.8  35.5  33916  285.44 0855.40
2009/04/23 07:22:34.5      17     50     26     54     59  19.2  27.3  33916  285.44 0855.40
2009/04/23 07:22:34.6      15     35     41     39     56  23.6  50.1  33914  285.41 0855.40
2009/04/23 07:22:34.7       8     26     37     28     46  18.3  59.4  33914  285.41 0855.40
2009/04/23 07:22:34.8      19     23     24     30     38  39.6  43.7  33918  285.48 0855.40
2009/04/23 07:22:34.9      19     20     26     28     38  43.4  52.0  33916  285.44 0855.40
2009/04/23 07:22:35.0      12     21     32     25     40  29.0  58.5  33916  285.46 0855.40
2009/04/23 07:22:35.1      19      3     40     20     44  78.5  70.8  33916  285.44 0855.40
2009/04/23 07:22:35.2      18     10     39     21     44  59.3  68.8  33918  285.50 0855.40
2009/04/23 07:22:35.3      15     17     35     24     42  41.4  62.6  33918  285.50 0855.40
2009/04/23 07:22:35.4       5     24     25     25     35  11.6  50.1  33916  285.46 0855.40
2009/04/23 07:22:35.5       4     19     27     20     33  11.6  58.5  33918  285.50 0855.40
2009/04/23 07:22:35.6      -8     26     40     28     48 341.3  61.5  33918  285.50 0855.40
2009/04/23 07:22:35.7      -9     27     39     29     48 341.3  59.4  33918  285.50 0855.40
2009/04/23 07:22:35.8       0     60     49     61     78   0.9  43.7  33918  285.50 0855.40
2009/04/23 07:22:35.9     -41     43     64     60     87 316.6  51.2  33914  285.43 0855.40
2009/04/23 07:22:36.0     -60     56     48     83     95 313.1  32.9  33914  285.41 0855.40
2009/04/23 07:22:36.1     -36     55     44     66     79 326.6  37.0  33916  285.44 0855.40
2009/04/23 07:22:36.2     -15     43     24     46     51 340.0  29.3  33914  285.41 0855.40
2009/04/23 07:22:36.3     -17     46     29     50     57 340.0  33.5  33916  285.46 0855.40
2009/04/23 07:22:36.4      -6     78     53     79     95 355.5  36.5  33918  285.50 0855.40
2009/04/23 07:22:36.5     -16     79     55     81     97 348.4  37.0  33916  285.46 0855.40
2009/04/23 07:22:36.6     -25     64     53     69     87 338.1  41.7  33916  285.44 0855.40
2009/04/23 07:22:36.7     -23     58     55     63     83 338.1  46.4  33914  285.43 0855.40
2009/04/23 07:22:36.8     -32     46     62     57     84 324.8  52.2  33916  285.44 0855.40
2009/04/23 07:22:36.9     -25     40     56     48     73 328.4  55.4  33914  285.41 0855.40
2009/04/23 07:22:37.0     -12     37     53     40     66 341.7  59.4  33912  285.39 0855.40
2009/04/23 07:22:37.1       1     29     42     30     51   2.7  60.5  33914  285.41 0855.40
2009/04/23 07:22:37.2       7     32     42     33     53  13.4  56.4  33916  285.46 0855.40
2009/04/23 07:22:37.3       5     29     46     30     54   9.8  64.6  33916  285.46 0855.40
2009/04/23 07:22:37.4       2     37     54     38     66   4.5  61.5  33916  285.44 0855.40
2009/04/23 07:22:37.5      14     10     41     18     44  54.0  76.1  33914  285.41 0855.40
2009/04/23 07:22:37.6     -10     50     68     52     85 348.4  59.0  33914  285.41 0855.40
2009/04/23 07:22:37.7     -15    107    115    109    158 352.0  51.4  33914  285.43 0855.40
2009/04/23 07:22:37.8     -34    126    115    131    174 344.9  45.8  33916  285.44 0855.40
2009/04/23 07:22:37.9      -1    150    128    151    197 359.5  44.8  33916  285.46 0855.40
2009/04/23 07:22:38.0      -2    173     90    174    195 359.1  29.3  33914  285.43 0855.41
2009/04/23 07:22:38.1      16    149    111    150    186   6.3  40.1  33912  285.39 0855.41
2009/04/23 07:22:38.2      30    149     89    153    177  11.5  32.9  33914  285.41 0855.41
2009/04/23 07:22:38.3      32     99     97    105    142  18.3  47.9  33914  285.41 0855.41
2009/04/23 07:22:38.4      30    172    137    175    222  10.0  42.0  33912  285.39 0855.41
2009/04/23 07:22:38.5      91    134    133    163    210  34.2  43.7  33906  285.28 0855.41
2009/04/23 07:22:38.6     143    162    180    217    281  41.4  43.8  33910  285.35 0855.41
2009/04/23 07:22:38.7      62    195    166    205    263  17.8  43.5  33916  285.44 0855.41
2009/04/23 07:22:38.8      41    201    160    206    260  11.6  41.7  33914  285.40 0855.41
2009/04/23 07:22:38.9      10    190    144    191    239   3.1  40.7  33914  285.43 0855.41
2009/04/23 07:22:39.1      46    124     98    133    165  20.5  39.9  33912  285.39 0855.41
2009/04/23 07:22:39.1     -15    192     92    193    213 355.5  27.3  33916  285.44 0855.41
2009/04/23 07:22:39.3       4    169     63    170    181   1.4  21.3  33910  285.36 0855.41
2009/04/23 07:22:39.3     -12    153    102    154    184 355.5  36.5  33906  285.29 0855.41
2009/04/23 07:22:39.5     -14    210    140    211    253 356.0  36.5  33906  285.27 0855.41
2009/04/23 07:22:39.6      41    201    125    206    240  11.5  34.4  33910  285.36 0855.41
2009/04/23 07:22:39.7      40    172    109    177    207  13.1  34.8  33908  285.33 0855.41
2009/04/23 07:22:39.8       3    172     92    173    195   1.0  30.1  33898  285.16 0855.41
2009/04/23 07:22:39.9     -21    163     54    165    174 352.4  18.4  33900  285.19 0855.41
2009/04/23 07:22:40.0     -25    178     52    180    188 352.0  16.3  33910  285.36 0855.41
2009/04/23 07:22:40.1     -20    165     54    167    176 352.9  17.9  33910  285.34 0855.41
2009/04/23 07:22:40.2     -59    167     29    178    181 340.6   9.5  33906  285.28 0855.41
2009/04/23 07:22:40.3      12    171     39    172    177   4.0  12.9  33910  285.34 0855.41
2009/04/23 07:22:40.4      42    105     41    114    121  21.8  20.9  33914  285.41 0855.41
2009/04/23 07:22:40.5      31     91     40     97    104  19.2  23.0  33914  285.43 0855.41
2009/04/23 07:22:40.6      53     68     39     87     95  37.8  26.2  33916  285.44 0855.41
2009/04/23 07:22:40.7      66     73     36     99    105  42.3  20.0  33916  285.44 0855.41
2009/04/23 07:22:40.8     108     64     44    126    134  59.3  19.4  33916  285.44 0855.41
2009/04/23 07:22:40.9     120     91     90    151    175  52.7  34.0  33914  285.43 0855.41
2009/04/23 07:22:41.0      58    123     82    137    159  25.3  33.7  33914  285.43 0855.41
2009/04/23 07:22:41.1      43     91     54    101    114  25.4  30.8  33912  285.39 0855.41
2009/04/23 07:22:41.2      37    119     -9    125    126  17.4  -4.1  33916  285.44 0855.41
2009/04/23 07:22:41.3      74    126    -18    147    149  30.7  -7.2  33914  285.43 0855.41
2009/04/23 07:22:41.4     136     66    -38    152    157  64.2 -14.3  33914  285.43 0855.41
2009/04/23 07:22:41.5     166     66    -84    179    197  68.3 -31.4  33916  285.46 0855.41
2009/04/23 07:22:41.6     236     77    -83    249    262  71.8 -23.6  33916  285.44 0855.41
2009/04/23 07:22:41.7     212     69    -71    224    234  71.8 -22.8  33920  285.51 0855.41
2009/04/23 07:22:41.8     199     82    -46    216    221  67.4 -12.2  33924  285.58 0855.41
2009/04/23 07:22:41.9     230    123    -11    262    263  61.8  -2.6  33926  285.62 0855.41
2009/04/23 07:22:42.0     239    129     28    272    274  61.6   6.0  33926  285.62 0855.41
2009/04/23 07:22:42.1     229    122     31    260    262  62.0   6.9  33934  285.76 0855.42
2009/04/23 07:22:42.2     204    137     39    246    250  56.0   9.0  33930  285.67 0855.42
2009/04/23 07:22:42.3     222    146     19    266    267  56.7   4.2  33934  285.76 0855.42
2009/04/23 07:22:42.4     245    131     10    279    280  61.8   2.1  33932  285.71 0855.42
2009/04/23 07:22:42.5     270    127     20    299    300  64.8   3.9  33928  285.66 0855.42
2009/04/23 07:22:42.6     277    106     35    297    300  68.9   6.9  33922  285.54 0855.42
2009/04/23 07:22:42.7     292     96     54    308    313  71.8  10.1  33920  285.52 0855.42
2009/04/23 07:22:42.8     312     64     58    319    325  78.3  10.4  33920  285.51 0855.42
2009/04/23 07:22:42.9     281    107     58    301    307  69.1  11.0  33920  285.52 0855.42
2009/04/23 07:22:43.0     234    111     66    259    268  64.6  14.3  33924  285.57 0855.42
2009/04/23 07:22:43.1     244    123     80    274    286  63.1  16.3  33922  285.56 0855.42
2009/04/23 07:22:43.2     272     91    100    288    305  71.4  19.2  33920  285.52 0855.42
2009/04/23 07:22:43.3     280     70     73    289    299  75.8  14.3  33926  285.61 0855.42
2009/04/23 07:22:43.4     323     17     63    324    331  87.0  11.1  33922  285.56 0855.42
2009/04/23 07:22:43.5     290     45     78    294    305  81.0  14.9  33922  285.54 0855.42
2009/04/23 07:22:43.6     286     79     58    297    303  74.5  11.1  33922  285.54 0855.42
2009/04/23 07:22:43.7     254     48     95    259    275  79.2  21.0  33916  285.45 0855.42
2009/04/23 07:22:43.8     207    136     76    248    260  56.7  17.1  33922  285.56 0855.42
2009/04/23 07:22:43.9     249    117     43    276    280  64.8   9.0  33920  285.52 0855.42
2009/04/23 07:22:44.0     285     92     26    300    302  72.1   5.0  33920  285.51 0855.42
2009/04/23 07:22:44.1     257     75     72    268    278  73.6  15.2  33922  285.54 0855.42
2009/04/23 07:22:44.2     226     99     82    247    261  66.3  18.5  33922  285.54 0855.42
2009/04/23 07:22:44.3     176     93     99    200    223  62.2  28.2  33920  285.53 0855.42
2009/04/23 07:22:44.4     100    157     46    187    193  32.5  13.9  33922  285.56 0855.42
2009/04/23 07:22:44.5     102    169      2    198    199  31.2   0.7  33922  285.55 0855.42
2009/04/23 07:22:44.6      74    184      2    199    200  22.1   0.8  33920  285.51 0855.42
2009/04/23 07:22:44.7      84    175     -7    195    196  25.6  -2.2  33922  285.55 0855.42
2009/04/23 07:22:44.8      73    124    -51    145    154  30.7 -19.4  33922  285.56 0855.42
2009/04/23 07:22:44.9      62    151    -52    164    172  22.3 -23.0  33920  285.51 0855.42
2009/04/23 07:22:45.0      81    125     -6    150    151  33.0  -2.6  33922  285.55 0855.42
2009/04/23 07:22:45.1      78     87    -24    118    121  41.9 -11.9  33920  285.53 0855.42
2009/04/23 07:22:45.2     107     78    -72    133    151  54.0 -35.7  33920  285.53 0855.42
2009/04/23 07:22:45.3      96     79    -54    125    136  50.4 -29.5  33922  285.55 0855.42
2009/04/23 07:22:45.4     146     67     19    161    163  65.4   6.7  33920  285.51 0855.42
2009/04/23 07:22:45.5     146     75     48    165    172  62.7  16.3  33922  285.55 0855.42
2009/04/23 07:22:45.6     148    127     23    196    198  49.3   6.9  33918  285.48 0855.42
2009/04/23 07:22:45.7     127    147    -10    195    196  41.0  -3.2  33922  285.55 0855.42
2009/04/23 07:22:45.8     135    111     -6    176    177  50.5  -2.1  33922  285.56 0855.42
2009/04/23 07:22:45.9     155     66     22    169    171  66.9   7.5  33924  285.60 0855.42
2009/04/23 07:22:46.0     165     43     43    171    177  75.4  14.3  33924  285.60 0855.42
2009/04/23 07:22:46.1     129     18     23    131    134  82.1  10.1  33922  285.55 0855.43
2009/04/23 07:22:46.2     104     -2     21    105    108  91.3  11.6  33922  285.56 0855.43
2009/04/23 07:22:46.3     131      2     20    132    134  88.7   9.0  33922  285.56 0855.43
2009/04/23 07:22:46.4     132     14     31    133    137  83.8  13.2  33924  285.60 0855.43
2009/04/23 07:22:46.5     136     40     22    142    144  73.6   9.0  33924  285.60 0855.43
2009/04/23 07:22:46.6     151     38     72    156    171  75.8  26.6  33926  285.63 0855.43
2009/04/23 07:22:46.7     142     32     76    146    164  77.2  29.8  33928  285.66 0855.43
2009/04/23 07:22:46.8     117     40     67    124    140  70.9  31.3  33930  285.68 0855.43
2009/04/23 07:22:46.9     113     53     64    126    141  64.7  29.2  33926  285.63 0855.43
2009/04/23 07:22:47.0      84     46     71     96    119  61.1  40.1  33926  285.61 0855.43
2009/04/23 07:22:47.1      99     39     69    107    127  68.2  35.6  33926  285.63 0855.43
2009/04/23 07:22:47.2      79     20     64     82    104  75.8  42.2  33924  285.58 0855.43
2009/04/23 07:22:47.3      67     15     59     69     90  76.7  44.8  33920  285.53 0855.43
2009/04/23 07:22:47.4      68     32     87     76    115  64.8  54.8  33918  285.50 0855.43
2009/04/23 07:22:47.5      74     15    103     76    128  78.5  60.0  33916  285.46 0855.43
2009/04/23 07:22:47.6     169      2    114    170    204  89.2  37.0  33916  285.46 0855.43
2009/04/23 07:22:47.7     167      0    117    168    204  90.0  38.0  33910  285.36 0855.43
2009/04/23 07:22:47.8     104     31    155    109    189  73.2  61.3  33916  285.44 0855.43
2009/04/23 07:22:47.9     136     55    101    147    178  67.8  38.0  33922  285.55 0855.43
2009/04/23 07:22:48.0     113     42    100    121    156  69.2  44.1  33918  285.50 0855.43
2009/04/23 07:22:48.1     106     -8    123    107    163  94.4  54.3  33918  285.50 0855.43
2009/04/23 07:22:48.2     162      4    154    163    224  88.3  48.2  33922  285.55 0855.43
2009/04/23 07:22:48.3     152     12    126    153    198  85.2  43.7  33920  285.53 0855.43
2009/04/23 07:22:48.4     127    -30    117    131    175 103.3  46.6  33918  285.48 0855.43
2009/04/23 07:22:48.5      85     57     68    103    123  56.3  36.0  33920  285.51 0855.43
2009/04/23 07:22:48.6      94     68     87    117    145  54.0  40.1  33916  285.46 0855.43
2009/04/23 07:22:48.7      33     93    123     99    157  19.6  56.9  33916  285.46 0855.43
2009/04/23 07:22:48.8     101    127     90    163    186  38.7  31.3  33918  285.48 0855.43
2009/04/23 07:22:49.0     152     96     85    180    199  57.6  27.1  33922  285.55 0855.43
2009/04/23 07:22:49.1     188     38     68    192    203  78.5  20.2  33918  285.48 0855.43
2009/04/23 07:22:49.2     234     78    118    247    273  71.6  27.3  33918  285.47 0855.43
2009/04/23 07:22:49.3     209     78    130    224    258  69.6  32.7  33918  285.49 0855.43
2009/04/23 07:22:49.4     231     43    104    235    256  79.4  25.2  33912  285.39 0855.43
2009/04/23 07:22:49.5     175    109     58    207    216  58.0  15.8  33920  285.51 0855.43
2009/04/23 07:22:49.6     188     82     82    206    221  66.3  23.0  33918  285.50 0855.43
2009/04/23 07:22:49.7     161     75     46    178    184  64.8  14.5  33918  285.48 0855.43
2009/04/23 07:22:49.8     191    107     11    219    220  60.7   2.9  33914  285.43 0855.43
2009/04/23 07:22:49.9     293    149     21    329    330  63.0   3.7  33916  285.46 0855.43
2009/04/23 07:22:50.0     246    156      1    292    293  57.6   0.2  33918  285.47 0855.43
2009/04/23 07:22:50.1     203     72    -27    216    218  70.3  -7.3  33916  285.46 0855.43
2009/04/23 07:22:50.2     202     15    -33    203    206  85.6  -9.3  33914  285.43 0855.43
2009/04/23 07:22:50.3     208    114    -57    238    245  61.1 -13.7  33920  285.52 0855.43
2009/04/23 07:22:50.4     151    152    -46    215    220  44.8 -12.2  33918  285.50 0855.43
2009/04/23 07:22:50.5     191    107     27    220    222  60.7   7.1  33916  285.44 0855.43
2009/04/23 07:22:50.6     187    127     71    227    238  55.8  17.4  33920  285.52 0855.43
2009/04/23 07:22:50.7      95    170     72    195    207  29.2  21.0  33920  285.51 0855.43
2009/04/23 07:22:50.8      85    242     32    257    260  19.4   7.2  33920  285.51 0855.43
2009/04/23 07:22:50.9      85    178      2    198    199  25.6   0.7  33924  285.60 0855.43
2009/04/23 07:22:51.0     110    147      3    184    185  36.7   1.2  33922  285.56 0855.43
2009/04/23 07:22:51.1     134    173    -12    219    220  37.8  -3.2  33924  285.60 0855.43
2009/04/23 07:22:51.2      90    177    -62    199    209  27.2 -17.3  33926  285.61 0855.43
2009/04/23 07:22:51.3      72    177    -20    192    194  22.3  -6.2  33924  285.58 0855.43
2009/04/23 07:22:51.4     172    144     84    225    240  50.0  21.3  33918  285.47 0855.43
2009/04/23 07:22:51.5     173     47    115    180    213  74.9  35.6  33914  285.41 0855.43
2009/04/23 07:22:51.6     107     54    124    121    173  63.0  50.4  33910  285.34 0855.43
2009/04/23 07:22:51.7      52     43     71     68     98  50.5  50.7  33916  285.44 0855.43
2009/04/23 07:22:51.8     162    -53     68    171    184 108.2  22.8  33914  285.41 0855.43
2009/04/23 07:22:51.9     205    -28     63    208    218  98.0  16.8  33918  285.48 0855.43
2009/04/23 07:22:52.0     202    -12     78    203    217  93.5  22.3  33916  285.44 0855.43
2009/04/23 07:22:52.1     203     65    102    214    237  72.3  27.2  33914  285.41 0855.43
2009/04/23 07:22:52.2     165    -38     43    170    176 103.0  14.3  33912  285.39 0855.43
2009/04/23 07:22:52.3     181    -82     46    199    205 114.4  13.2  33912  285.39 0855.43
2009/04/23 07:22:52.4     177    -76     45    193    199 113.3  13.1  33910  285.36 0855.43
2009/04/23 07:22:52.5     168    -56     43    178    184 108.4  13.7  33912  285.38 0855.43
2009/04/23 07:22:52.6     135    -54      3    146    147 111.8   1.2  33912  285.39 0855.43
2009/04/23 07:22:52.7     115    -61      6    131    132 118.0   2.8  33914  285.43 0855.43
2009/04/23 07:22:52.8     104    -27     30    108    113 104.6  15.8  33910  285.34 0855.43
2009/04/23 07:22:52.9     112    -24     31    115    120 102.4  15.3  33904  285.26 0855.43
2009/04/23 07:22:53.0     124    -67     34    141    146 118.4  13.7  33902  285.23 0855.43
2009/04/23 07:22:53.1     121    -84     23    148    150 124.6   9.0  33904  285.26 0855.43
2009/04/23 07:22:53.2     134    -97      4    166    167 126.0   1.6  33908  285.33 0855.43
2009/04/23 07:22:53.3     141    -98     -9    173    174 124.9  -3.1  33914  285.41 0855.43
2009/04/23 07:22:53.4     148    -82     14    170    171 118.9   4.9  33908  285.33 0855.43
2009/04/23 07:22:53.5     148   -122     24    193    195 129.5   7.2  33912  285.39 0855.43
2009/04/23 07:22:53.6     146   -146      6    207    208 135.0   1.8  33906  285.28 0855.43
2009/04/23 07:22:53.7     155   -165     28    227    229 136.7   7.2  33910  285.34 0855.43
2009/04/23 07:22:53.8     151   -159     49    220    226 136.3  12.6  33914  285.43 0855.43
2009/04/23 07:22:53.9     125   -159     30    203    206 141.9   8.5  33914  285.41 0855.43
2009/04/23 07:22:54.0     146   -127     72    194    206 130.9  21.3  33916  285.46 0855.43
2009/04/23 07:22:54.1     145    -99    -29    176    179 124.4  -9.6  33916  285.46 0855.43
2009/04/23 07:22:54.2     155   -131     55    204    212 130.2  15.3  33914  285.41 0855.43
2009/04/23 07:22:54.3     138   -116      3    181    182 130.0   1.0  33920  285.51 0855.43
2009/04/23 07:22:54.4     126    -42     49    134    142 108.6  20.9  33912  285.39 0855.43
2009/04/23 07:22:54.5     162   -110    -24    196    198 124.2  -7.2  33910  285.34 0855.43
2009/04/23 07:22:54.6     200   -109    -12    228    229 118.6  -3.1  33922  285.55 0855.43
2009/04/23 07:22:54.7     220   -137    -14    260    261 122.0  -3.1  33922  285.56 0855.43
2009/04/23 07:22:54.8     133   -128    -39    185    190 134.0 -11.9  33922  285.56 0855.43
2009/04/23 07:22:54.9     153   -105    -57    186    195 124.6 -17.3  33924  285.60 0855.43
2009/04/23 07:22:55.0     177   -100    -15    204    205 119.5  -4.4  33926  285.63 0855.43
2009/04/23 07:22:55.1     209    -84      9    226    227 112.0   2.5  33926  285.61 0855.43
2009/04/23 07:22:55.2     176    -69     -2    190    191 111.5  -0.7  33924  285.58 0855.43
2009/04/23 07:22:55.3     212    -48     11    218    219 102.8   2.9  33924  285.58 0855.43
2009/04/23 07:22:55.4     201    -55     41    209    214 105.3  11.1  33922  285.56 0855.43
2009/04/23 07:22:55.5     186   -110     46    217    223 120.7  12.2  33924  285.58 0855.43
2009/04/23 07:22:55.6     192   -126     54    230    237 123.3  13.2  33924  285.59 0855.43
2009/04/23 07:22:55.7     169   -180     96    248    265 136.8  22.3  33924  285.59 0855.43
2009/04/23 07:22:55.8     185   -131     79    227    241 125.3  19.2  33924  285.59 0855.43
2009/04/23 07:22:55.9     135   -164     76    213    226 140.4  20.2  33924  285.58 0855.43
2009/04/23 07:22:56.0      99   -195     73    219    232 152.9  18.6  33920  285.51 0855.43
2009/04/23 07:22:56.1     128   -225     47    259    264 150.4  10.3  33922  285.54 0855.43
2009/04/23 07:22:56.2     139   -222     31    263    265 147.9   6.9  33922  285.54 0855.43
2009/04/23 07:22:56.3     161   -189     24    249    251 139.5   5.7  33922  285.56 0855.43
2009/04/23 07:22:56.4     195   -140     63    241    250 125.7  14.7  33922  285.56 0855.43
2009/04/23 07:22:56.5     192   -122     53    228    235 122.4  13.2  33922  285.55 0855.43
2009/04/23 07:22:56.6     180   -116     50    215    221 122.9  13.1  33920  285.53 0855.43
2009/04/23 07:22:56.7     190    -76    119    205    237 111.8  32.9  33920  285.51 0855.43
2009/04/23 07:22:56.8     156    -98    148    185    236 122.0  42.8  33920  285.51 0855.43
2009/04/23 07:22:56.9     109    -73    121    132    179 124.1  47.7  33918  285.48 0855.43
2009/04/23 07:22:57.0      68    -69    113     98    149 135.5  54.8  33920  285.51 0855.43
2009/04/23 07:22:57.1      83   -138    127    162    205 148.8  42.2  33918  285.50 0855.43
2009/04/23 07:22:57.2      60   -154    150    166    223 158.6  47.1  33920  285.51 0855.43
2009/04/23 07:22:57.3      33   -131    145    136    198 165.7  52.1  33920  285.51 0855.43
2009/04/23 07:22:57.4     -25   -201    181    203    271 187.3  46.6  33922  285.54 0855.43
2009/04/23 07:22:57.5     -26   -255    161    257    303 186.0  35.5  33918  285.49 0855.43
2009/04/23 07:22:57.6     -17   -239    150    240    283 184.2  35.5  33916  285.45 0855.43
2009/04/23 07:22:57.7     -13   -227    139    228    267 183.4  34.4  33918  285.47 0855.43
2009/04/23 07:22:57.8     -38   -234     88    238    253 189.3  21.0  33908  285.30 0855.43
2009/04/23 07:22:57.9     -33   -230    104    233    255 188.2  25.7  33910  285.35 0855.43
2009/04/23 07:22:58.0     -17   -228    147    229    272 184.4  35.6  33916  285.44 0855.43
2009/04/23 07:22:58.1     -17   -201    130    202    240 185.1  35.7  33914  285.43 0855.44
2009/04/23 07:22:58.2     -17   -226    129    227    261 184.5  32.3  33914  285.42 0855.44
2009/04/23 07:22:58.3     -42   -222    126    227    259 190.9  31.4  33922  285.54 0855.44
2009/04/23 07:22:58.4     -40   -198    120    202    234 191.5  33.5  33922  285.55 0855.44
2009/04/23 07:22:58.5     -24   -223     60    225    233 186.2  15.0  33914  285.43 0855.44
2009/04/23 07:22:58.6     -33   -235     31    238    240 188.1   7.5  33918  285.49 0855.44
2009/04/23 07:22:58.7     -56   -254     46    261    266 192.5  10.1  33916  285.44 0855.44
2009/04/23 07:22:58.8     -55   -250     35    257    260 192.5   7.8  33914  285.40 0855.44
2009/04/23 07:22:58.9     -22   -241     25    243    245 185.3   5.9  33914  285.40 0855.44
2009/04/23 07:22:59.0     -76    -84     52    114    125 222.3  26.2  33912  285.38 0855.44
2009/04/23 07:22:59.1    -140    -77     21    160    162 241.2   7.8  33916  285.44 0855.43
2009/04/23 07:22:59.2    -143    -69    -36    159    164 244.2 -12.9  33908  285.31 0855.43
2009/04/23 07:22:59.3    -201    -94    -45    223    228 244.8 -11.6  33908  285.33 0855.43
2009/04/23 07:22:59.4    -179    -99    -47    205    211 240.9 -12.9  33910  285.34 0855.43
2009/04/23 07:22:59.5     -62   -130     -5    145    146 205.5  -2.2  33910  285.34 0855.43
2009/04/23 07:22:59.6     -66    -93    -14    115    116 215.2  -7.2  33912  285.39 0855.43
2009/04/23 07:22:59.7     -86    -60    -21    106    109 234.9 -11.3  33912  285.39 0855.43
2009/04/23 07:22:59.8     -97    -62    -53    116    127 237.1 -30.6  33910  285.34 0855.43
2009/04/23 07:22:59.9     -86    -49    -32    100    105 240.2 -23.8  33908  285.31 0855.43
2009/04/23 07:23:00.0     -64    -55      1     85     86 229.1   0.8  33906  285.28 0855.43
2009/04/23 07:23:00.1     -78    -34     -9     86     87 246.5  -6.2  33908  285.33 0855.43
2009/04/23 07:23:00.2     -75    -76     40    107    114 224.7  20.4  33908  285.33 0855.43
2009/04/23 07:23:00.3     -27   -119     29    123    127 192.9  13.2  33912  285.39 0855.43
2009/04/23 07:23:00.4     -61   -154      1    166    167 201.8   0.5  33906  285.28 0855.43
2009/04/23 07:23:00.5    -118   -205     17    237    238 210.1   4.2  33908  285.32 0855.43
2009/04/23 07:23:00.6    -118   -166     20    204    206 215.4   5.7  33906  285.28 0855.43
2009/04/23 07:23:00.7    -152    -91     -5    178    179 239.1  -1.8  33906  285.29 0855.43
2009/04/23 07:23:00.8    -114    -92    -13    147    148 230.9  -5.1  33908  285.33 0855.43
2009/04/23 07:23:00.9     -93   -105    -27    141    144 221.4 -10.9  33908  285.31 0855.43
2009/04/23 07:23:01.0    -105   -149      5    183    184 215.2   1.8  33904  285.26 0855.43
2009/04/23 07:23:01.1    -130   -176      9    220    221 216.5   2.3  33910  285.34 0855.43
2009/04/23 07:23:01.2     -95   -169      9    195    196 209.4   2.9  33910  285.34 0855.43
2009/04/23 07:23:01.3    -117   -115    -28    165    168 225.6  -9.6  33914  285.41 0855.43
2009/04/23 07:23:01.4     -81   -106    -41    134    141 217.4 -17.0  33918  285.50 0855.43
2009/04/23 07:23:01.5     -46    -93    -18    104    106 206.3  -9.8  33918  285.48 0855.43
2009/04/23 07:23:01.6     -40    -63    -26     75     79 212.6 -23.8  33916  285.44 0855.43
2009/04/23 07:23:01.7     -11    -76     -9     77     78 188.9  -7.3  33914  285.43 0855.43
2009/04/23 07:23:01.8      -6    -98      5     99    100 184.0   2.9  33912  285.38 0855.43
2009/04/23 07:23:01.9     -22    -75     23     79     83 196.5  16.8  33912  285.38 0855.43
2009/04/23 07:23:02.0      -7    -67     25     68     72 186.2  20.0  33910  285.36 0855.43
2009/04/23 07:23:02.1      15    -54     11     57     59 164.0  11.1  33912  285.39 0855.43
2009/04/23 07:23:02.2     -24    -49     -7     55     56 206.3  -7.3  33908  285.31 0855.43
2009/04/23 07:23:02.3     -26    -56    -10     62     63 205.4  -9.3  33910  285.36 0855.43
2009/04/23 07:23:02.4     -19    -68     27     71     75 196.0  21.0  33910  285.36 0855.43
2009/04/23 07:23:02.5      -5    -68     47     69     83 184.5  37.6  33912  285.39 0855.43
2009/04/23 07:23:02.6     -15    -75     37     77     85 191.6  27.8  33914  285.43 0855.43
2009/04/23 07:23:02.7     -28    -83     51     88    101 199.2  32.4  33914  285.41 0855.43
2009/04/23 07:23:02.8     -76    -86     41    116    124 221.4  19.4  33910  285.34 0855.43
2009/04/23 07:23:02.9     -61    -68     23     92     95 222.3  14.3  33910  285.36 0855.43
2009/04/23 07:23:03.0     -39   -103      3    111    112 200.9   1.8  33914  285.41 0855.43
2009/04/23 07:23:03.1     -15   -199     48    200    206 184.5  13.7  33924  285.58 0855.43
2009/04/23 07:23:03.2     -22   -222     49    224    230 185.8  12.4  33924  285.58 0855.43
2009/04/23 07:23:03.3      26   -199     62    201    211 172.4  17.3  33920  285.53 0855.43
2009/04/23 07:23:03.4      32   -182     83    185    202 169.8  25.7  33920  285.51 0855.43
2009/04/23 07:23:03.5      -5   -140     95    141    170 182.2  37.3  33920  285.53 0855.43
2009/04/23 07:23:03.6      51   -174     74    182    196 163.5  23.4  33926  285.61 0855.43
2009/04/23 07:23:03.7       0   -163     65    164    176 180.0  22.8  33926  285.61 0855.43
2009/04/23 07:23:03.8       3   -149     57    150    160 178.6  21.5  33922  285.55 0855.43
2009/04/23 07:23:03.9       1   -152     49    153    161 179.5  17.9  33926  285.61 0855.43
2009/04/23 07:23:04.0      20   -152     30    154    157 172.4  11.1  33924  285.60 0855.43
2009/04/23 07:23:04.1      60   -189     39    199    203 162.4  11.1  33920  285.53 0855.43
2009/04/23 07:23:04.2      66   -180     67    192    204 159.7  19.2  33922  285.56 0855.43
2009/04/23 07:23:04.3      31   -181     14    184    185 170.0   4.6  33922  285.56 0855.43
2009/04/23 07:23:04.4      13   -172     -6    173    174 175.5  -2.2  33924  285.60 0855.43
2009/04/23 07:23:04.5      25   -157      8    160    161 170.7   3.1  33922  285.56 0855.43
2009/04/23 07:23:04.6      14   -187      8    188    189 175.6   2.5  33926  285.61 0855.43
2009/04/23 07:23:04.7      21   -196     -6    198    199 173.8  -1.8  33928  285.65 0855.43
2009/04/23 07:23:04.8      59   -210     32    219    222 164.2   8.5  33920  285.53 0855.43
2009/04/23 07:23:04.9      35   -210     56    213    221 170.4  14.7  33918  285.50 0855.43
2009/04/23 07:23:05.0      29   -220     78    222    236 172.4  19.4  33924  285.58 0855.43
2009/04/23 07:23:05.1      23   -243     87    245    259 174.6  20.2  33922  285.56 0855.43
2009/04/23 07:23:05.2       8   -274     45    275    279 178.2   9.3  33926  285.62 0855.43
2009/04/23 07:23:05.3      16   -273     45    274    278 176.6   9.3  33928  285.64 0855.43
2009/04/23 07:23:05.4      20   -263     33    264    267 175.6   7.2  33928  285.66 0855.43
2009/04/23 07:23:05.5      25   -219     35    221    224 173.3   9.0  33922  285.55 0855.43
2009/04/23 07:23:05.6      40   -178     63    183    194 167.1  19.2  33920  285.53 0855.43
2009/04/23 07:23:05.7      26   -186     69    188    200 172.0  20.9  33924  285.58 0855.43
2009/04/23 07:23:05.8       9   -201     60    202    211 177.3  16.8  33926  285.63 0855.43
2009/04/23 07:23:05.9      -1   -201     65    202    213 180.5  17.9  33924  285.60 0855.43
2009/04/23 07:23:06.0      26   -191     87    193    211 172.0  25.9  33926  285.63 0855.43
2009/04/23 07:23:06.2      30   -186     88    189    208 170.7  27.1  33924  285.60 0855.43
2009/04/23 07:23:06.3      15   -174    104    175    203 174.9  33.5  33928  285.65 0855.43
2009/04/23 07:23:06.4      22   -164     95    166    191 172.2  32.1  33926  285.63 0855.43
2009/04/23 07:23:06.5      46   -172     91    179    200 164.9  29.2  33928  285.65 0855.43
2009/04/23 07:23:06.6      32   -163     66    167    179 168.7  22.8  33928  285.66 0855.43
2009/04/23 07:23:06.7      13   -159     51    160    168 175.1  17.7  33928  285.65 0855.43
2009/04/23 07:23:06.8      -2   -147     42    148    155 181.0  16.0  33926  285.61 0855.43
2009/04/23 07:23:06.9     -18   -130     20    132    134 188.0   8.9  33926  285.61 0855.43
2009/04/23 07:23:07.0     -22   -133     -7    135    136 189.8  -3.1  33926  285.63 0855.43
2009/04/23 07:23:07.1     -35   -116      1    122    123 197.0   0.7  33924  285.60 0855.43
2009/04/23 07:23:07.2      -5    -72     91     73    116 184.5  56.4  33928  285.65 0855.43
2009/04/23 07:23:07.3      21    -67     70     71     99 162.2  50.0  33926  285.63 0855.43
2009/04/23 07:23:07.4       4    -53     77     54     94 175.6  62.1  33928  285.65 0855.43
2009/04/23 07:23:07.5      17    -99     19    101    103 169.8  11.0  33928  285.66 0855.43
2009/04/23 07:23:07.6     -38    -75     27     85     90 207.2  17.9  33924  285.60 0855.43
2009/04/23 07:23:07.7     -60    -89     41    108    115 214.3  21.0  33928  285.65 0855.43
2009/04/23 07:23:07.8     -42   -110     42    118    125 200.9  20.0  33926  285.61 0855.43
2009/04/23 07:23:07.9     -42    -88    -25     98    102 205.5 -14.5  33926  285.63 0855.43
2009/04/23 07:23:08.0     -36    -90    -30     98    102 201.8 -22.3  33924  285.60 0855.43
2009/04/23 07:23:08.1     -59   -125    -22    139    141 205.3  -9.4  33924  285.60 0855.43
2009/04/23 07:23:08.2     -21   -124      0    126    127 189.8  -0.3  33926  285.61 0855.43
2009/04/23 07:23:08.3     -20    -63     23     67     72 197.8  19.4  33924  285.60 0855.43
2009/04/23 07:23:08.4     -18    -70     -9     73     74 194.3  -7.2  33926  285.61 0855.43
2009/04/23 07:23:08.5      30    -56    -16     64     67 151.1 -14.5  33924  285.58 0855.43
2009/04/23 07:23:08.6      33    -88    -19     95     97 159.5 -11.3  33924  285.60 0855.43
2009/04/23 07:23:08.7      18    -77    -28     80     84 166.6 -23.8  33926  285.63 0855.43
2009/04/23 07:23:08.8      45    -87    -35     99    105 152.4 -23.8  33924  285.60 0855.43
2009/04/23 07:23:08.9      23    -67    -29     72     77 160.8 -27.4  33924  285.58 0855.43
2009/04/23 07:23:09.0     -11    -54    -24     56     60 191.6 -28.5  33924  285.58 0855.43
2009/04/23 07:23:09.1       2     -9    -44     10     45 168.4 -90.0  33924  285.58 0855.43
2009/04/23 07:23:09.2       0    -17    -35     18     39 180.9 -77.2  33924  285.58 0855.44
2009/04/23 07:23:09.3     -15     -4    -29     16     33 254.9 -73.2  33924  285.58 0855.44
2009/04/23 07:23:09.4     -12     -4    -30     13     32 251.4 -79.4  33924  285.60 0855.44
2009/04/23 07:23:09.5     -12      0    -20     13     23 270.0 -69.1  33924  285.58 0855.44
2009/04/23 07:23:09.6     -15     25     -2     30     31 329.3  -5.2  33924  285.58 0855.44
2009/04/23 07:23:09.7     -41     34     -3     54     55 309.6  -3.1  33924  285.58 0855.44
2009/04/23 07:23:09.8     -28     20     -1     35     36 306.0  -3.1  33924  285.60 0855.44
2009/04/23 07:23:09.9      -6     20      5     22     23 341.5  13.2  33924  285.60 0855.44
2009/04/23 07:23:10.0      -7     17     14     19     23 338.2  41.7  33924  285.60 0855.44
2009/04/23 07:23:10.1      -8     -8     31     12     33 226.9  81.2  33926  285.61 0855.44
2009/04/23 07:23:10.2      -9     11     28     15     31 320.4  70.8  33922  285.56 0855.44
2009/04/23 07:23:10.3     -20     24      6     32     33 320.4  11.0  33924  285.58 0855.44
2009/04/23 07:23:10.4     -18     18      5     26     27 314.9  11.1  33924  285.58 0855.44
2009/04/23 07:23:10.5     -36      3     -1     37     38 276.1  -2.2  33922  285.56 0855.44
2009/04/23 07:23:10.6     -20      7     -8     22     23 290.0 -23.3  33922  285.55 0855.44
2009/04/23 07:23:10.7      -7     -3    -19      8     20 244.7 -81.5  33924  285.58 0855.44
2009/04/23 07:23:10.8      -2      3    -29      4     29 327.5 -90.0  33924  285.58 0855.44
2009/04/23 07:23:10.9     -14     30    -45     34     56 334.6 -63.8  33922  285.55 0855.44
2009/04/23 07:23:11.0     -52     22    -39     57     69 293.5 -42.0  33924  285.60 0855.44
2009/04/23 07:23:11.1     -61     -8    -36     62     71 262.1 -37.9  33924  285.58 0855.44
2009/04/23 07:23:11.2     -37    -36    -31     52     60 226.0 -37.9  33922  285.55 0855.44
2009/04/23 07:23:11.3     -14    -36    -28     39     48 201.8 -43.0  33924  285.58 0855.44
2009/04/23 07:23:11.4     -17    -22     -8     29     31 217.8 -15.4  33924  285.60 0855.44
2009/04/23 07:23:11.5     -37      2     16     38     41 274.4  24.1  33924  285.58 0855.44
2009/04/23 07:23:11.6     -41     26     25     49     55 302.4  29.3  33922  285.56 0855.44
2009/04/23 07:23:11.7     -46     28     25     55     60 301.5  27.1  33922  285.55 0855.44
2009/04/23 07:23:11.8     -16     16     35     23     41 314.9  63.6  33922  285.55 0855.44
2009/04/23 07:23:11.9      17     31     44     36     56  29.0  56.4  33918  285.48 0855.44
2009/04/23 07:23:12.0      48     48     59     68     90  45.0  45.4  33916  285.46 0855.44
2009/04/23 07:23:12.1      66     48     69     82    107  53.6  44.3  33918  285.50 0855.44
2009/04/23 07:23:12.2      41     64     66     77    101  32.5  44.8  33920  285.51 0855.44
2009/04/23 07:23:12.3      22     76     65     80    103  16.0  43.7  33920  285.51 0855.44
2009/04/23 07:23:12.4      -1     77     49     78     92 359.1  35.5  33920  285.53 0855.44
2009/04/23 07:23:12.5     -22     67     25     71     76 341.5  19.4  33918  285.48 0855.44
2009/04/23 07:23:12.6     -24     62     32     67     74 338.2  27.1  33916  285.46 0855.44
2009/04/23 07:23:12.7     -10     82     42     83     93 352.9  28.2  33914  285.41 0855.44
2009/04/23 07:23:12.8     -13     78     47     80     92 350.2  33.5  33910  285.36 0855.44
2009/04/23 07:23:12.9     -11     56     39     58     69 348.4  36.5  33912  285.38 0855.44
2009/04/23 07:23:13.0     -13     54     27     56     62 345.7  27.2  33912  285.39 0855.44
2009/04/23 07:23:13.1       0     50     26     51     57   0.0  28.2  33912  285.39 0855.44
2009/04/23 07:23:13.2       1     47     22     48     52   1.8  27.1  33910  285.34 0855.44
2009/04/23 07:23:13.3      12     47     19     49     52  15.1  22.0  33910  285.36 0855.44
2009/04/23 07:23:13.4      20     50     11     54     56  21.8  12.2  33910  285.34 0855.44
2009/04/23 07:23:13.5      20     35     13     41     44  29.9  18.4  33910  285.34 0855.44
2009/04/23 07:23:13.6      14     36      7     39     40  21.8  11.1  33910  285.34 0855.44
2009/04/23 07:23:13.7       3     42     24     43     49   4.5  31.4  33908  285.31 0855.44
2009/04/23 07:23:13.8      -2     37     24     38     44 355.6  35.5  33904  285.26 0855.44
2009/04/23 07:23:13.9      -7     40     31     41     51 349.3  41.7  33906  285.29 0855.44
2009/04/23 07:23:14.0      -6     32     24     33     40 348.5  39.7  33906  285.29 0855.44
2009/04/23 07:23:14.1      -9     31     24     33     40 343.1  39.7  33908  285.31 0855.44
2009/04/23 07:23:14.2     -10     50     28     52     59 348.5  31.3  33906  285.28 0855.44
2009/04/23 07:23:14.3     -14     52     46     54     70 344.9  43.8  33898  285.14 0855.44
2009/04/23 07:23:14.4     -31     87     55     93    108 340.4  34.0  33898  285.16 0855.44
2009/04/23 07:23:14.5     -51    107     49    119    128 334.1  23.6  33900  285.19 0855.44
2009/04/23 07:23:14.6     -59     77     82     98    127 322.6  43.8  33902  285.21 0855.44
2009/04/23 07:23:14.7     -72     71     82    102    130 314.4  43.7  33902  285.21 0855.44
2009/04/23 07:23:14.8    -106     57     42    121    129 298.4  19.4  33896  285.11 0855.44
2009/04/23 07:23:14.9    -117     67     51    135    144 299.8  21.0  33892  285.04 0855.44
2009/04/23 07:23:15.0     -98     89     58    133    145 312.2  25.1  33890  285.01 0855.44
2009/04/23 07:23:15.1     -82    121     81    147    167 325.7  31.4  33898  285.14 0855.44
2009/04/23 07:23:15.2     -91    105     73    140    157 319.0  29.5  33894  285.09 0855.44
2009/04/23 07:23:15.3     -90     81     53    122    133 312.2  25.1  33890  285.01 0855.44
2009/04/23 07:23:15.4     -99     63     42    118    125 302.4  20.0  33890  285.01 0855.44
2009/04/23 07:23:15.5     -84     66     44    107    115 308.2  23.1  33890  285.02 0855.44
2009/04/23 07:23:15.6     -91     50     48    104    114 298.8  27.1  33890  285.02 0855.44
2009/04/23 07:23:15.7    -109     45     47    119    127 292.6  23.0  33894  285.07 0855.44
2009/04/23 07:23:15.8    -127     41     12    134    135 288.2   5.4  33900  285.18 0855.44
2009/04/23 07:23:15.9    -131     26      1    134    135 281.4   0.8  33902  285.21 0855.44
2009/04/23 07:23:16.0    -120     -5    -16    121    123 267.4  -7.7  33902  285.21 0855.44
2009/04/23 07:23:16.1     -67      0     41     68     79 269.2  34.0  33904  285.26 0855.44
2009/04/23 07:23:16.2     -19    -41     81     46     93 204.5  68.3  33900  285.18 0855.44
2009/04/23 07:23:16.3     -31    -41     69     52     86 217.8  59.4  33900  285.18 0855.44
2009/04/23 07:23:16.4     -65    -33     49     74     88 242.9  36.5  33906  285.28 0855.44
2009/04/23 07:23:16.5     -56    -15     27     59     64 254.9  27.1  33902  285.23 0855.44
2009/04/23 07:23:16.6     -40      5     41     41     57 277.9  50.1  33900  285.18 0855.44
2009/04/23 07:23:16.7     -28    -37     32     47     56 217.8  36.5  33900  285.19 0855.44
2009/04/23 07:23:16.8     -74    -71     56    103    117 226.0  31.3  33902  285.21 0855.44
2009/04/23 07:23:16.9     -81    -69     43    107    115 229.6  23.0  33904  285.26 0855.44
2009/04/23 07:23:17.0     -93    -76     28    121    125 230.5  13.2  33904  285.26 0855.44
2009/04/23 07:23:17.1    -118    -97     56    153    162 230.5  20.7  33902  285.21 0855.44
2009/04/23 07:23:17.2     -89   -123     63    153    165 216.0  23.6  33904  285.24 0855.45
2009/04/23 07:23:17.3     -39   -129     98    135    166 196.9  39.9  33908  285.33 0855.45
2009/04/23 07:23:17.4     -49   -209    100    215    237 193.3  26.4  33914  285.43 0855.45
2009/04/23 07:23:17.5     -16   -188     89    189    208 185.1  27.1  33914  285.41 0855.45
2009/04/23 07:23:17.6      33   -198     64    201    211 170.4  17.7  33914  285.41 0855.45
2009/04/23 07:23:17.7      49   -147    123    156    198 161.3  42.2  33920  285.51 0855.45
2009/04/23 07:23:17.8      -9   -235     90    236    252 182.2  22.0  33914  285.42 0855.45
2009/04/23 07:23:17.9     -32   -287     33    289    291 186.5   6.7  33918  285.47 0855.45
2009/04/23 07:23:18.0     -37   -216     90    220    237 189.8  23.6  33918  285.48 0855.45
2009/04/23 07:23:18.1       0   -171      0    172    173 180.2   0.0  33914  285.43 0855.45
2009/04/23 07:23:18.2      63    -96     89    116    146 146.6  41.6  33914  285.41 0855.45
2009/04/23 07:23:18.3      43    -52    115     68    133 140.3  66.7  33918  285.48 0855.45
2009/04/23 07:23:18.4      52    -86    127    101    162 148.8  57.5  33922  285.55 0855.45
2009/04/23 07:23:18.5      17   -128    119    130    176 172.4  47.5  33920  285.53 0855.45
2009/04/23 07:23:18.6       2   -147    130    148    196 179.0  45.9  33918  285.48 0855.45
2009/04/23 07:23:18.7     -44   -130    131    138    190 198.7  48.5  33910  285.36 0855.45
2009/04/23 07:23:18.8     -69   -226    121    237    266 197.0  29.1  33906  285.29 0855.45
2009/04/23 07:23:18.9     -62   -188    133    198    238 198.3  37.3  33900  285.19 0855.45
2009/04/23 07:23:19.0     -76   -190     55    205    213 201.9  15.2  33902  285.23 0855.45
2009/04/23 07:23:19.1     -87   -199     84    218    233 203.6  22.0  33904  285.26 0855.45
2009/04/23 07:23:19.2    -129   -217    111    253    276 210.7  25.2  33900  285.19 0855.45
2009/04/23 07:23:19.3     -86   -201    102    219    241 203.2  26.6  33904  285.24 0855.45
2009/04/23 07:23:19.4     -67   -156     78    170    187 203.4  26.6  33904  285.24 0855.45
2009/04/23 07:23:19.5     -82   -189     56    207    215 203.4  15.3  33902  285.21 0855.45
2009/04/23 07:23:19.6    -120   -201     16    235    236 210.8   3.9  33904  285.24 0855.45
2009/04/23 07:23:19.7    -146   -193     13    243    244 217.2   3.1  33904  285.25 0855.45
2009/04/23 07:23:19.8    -108   -209     58    236    244 207.4  13.9  33902  285.22 0855.45
2009/04/23 07:23:19.9     -59   -200     71    209    221 196.5  18.9  33902  285.21 0855.45
2009/04/23 07:23:20.0     -84   -209    128    226    259 202.1  32.1  33898  285.15 0855.45
2009/04/23 07:23:20.1    -120   -217     92    249    265 209.0  21.0  33904  285.25 0855.45
2009/04/23 07:23:20.2    -127   -210     52    246    252 211.2  12.0  33902  285.22 0855.45
2009/04/23 07:23:20.3    -150   -254    -19    296    297 210.7  -3.7  33906  285.29 0855.45
2009/04/23 07:23:20.4    -121   -226    -16    257    258 208.1  -3.7  33914  285.40 0855.45
2009/04/23 07:23:20.5    -120   -214    -31    246    249 209.4  -7.3  33910  285.35 0855.45
2009/04/23 07:23:20.6    -162   -144    -64    217    227 228.4 -16.6  33916  285.44 0855.45
2009/04/23 07:23:20.7    -147   -168    -15    224    225 221.2  -3.9  33926  285.63 0855.45
2009/04/23 07:23:20.8    -108   -182     41    212    217 210.7  11.1  33918  285.48 0855.45
2009/04/23 07:23:20.9    -165   -212    -20    269    270 217.9  -4.4  33926  285.61 0855.45
2009/04/23 07:23:21.0    -120   -230      3    260    261 207.6   0.8  33908  285.32 0855.45
2009/04/23 07:23:21.1    -105   -250     39    272    275 202.7   8.2  33908  285.32 0855.45
2009/04/23 07:23:21.2    -117   -268     19    293    294 203.6   3.8  33908  285.30 0855.45
2009/04/23 07:23:21.3    -108   -219     48    245    250 206.3  11.1  33910  285.35 0855.45
2009/04/23 07:23:21.4    -136   -217    113    257    280 212.1  25.2  33918  285.49 0855.45
2009/04/23 07:23:21.5    -155   -209     46    261    266 216.5  10.1  33912  285.39 0855.45
2009/04/23 07:23:21.6    -175   -190     38    259    262 222.8   8.5  33906  285.27 0855.45
2009/04/23 07:23:21.7    -197   -167    -10    259    260 229.6  -2.2  33908  285.30 0855.45
2009/04/23 07:23:21.8    -185   -224    -11    291    292 219.6  -2.2  33910  285.34 0855.45
2009/04/23 07:23:21.9    -260   -217    -93    339    352 230.1 -15.4  33916  285.45 0855.45
2009/04/23 07:23:22.0    -191   -242    -67    309    317 218.3 -12.4  33918  285.47 0855.45
2009/04/23 07:23:22.1    -129   -273    -11    303    304 205.3  -2.1  33908  285.32 0855.45
2009/04/23 07:23:22.2    -142   -262    -38    299    302 208.5  -7.3  33914  285.40 0855.45
2009/04/23 07:23:22.3    -161   -262    -99    308    324 211.6 -17.9  33914  285.40 0855.45
2009/04/23 07:23:22.4     -56   -276    -78    282    293 191.6 -15.5  33914  285.40 0855.45
2009/04/23 07:23:22.5     -40   -255    -52    259    265 188.9 -11.3  33916  285.44 0855.45
2009/04/23 07:23:22.6      -4   -217    -85    218    233 181.1 -26.7  33910  285.34 0855.45
2009/04/23 07:23:22.7     -21   -178   -123    180    218 186.9 -42.0  33918  285.48 0855.45
2009/04/23 07:23:22.8    -153   -134   -100    204    227 228.9 -32.2  33916  285.44 0855.45
2009/04/23 07:23:23.0    -262    -36    -33    265    268 262.1  -7.2  33908  285.32 0855.45
2009/04/23 07:23:23.1    -286   -121    -69    311    319 246.9 -12.5  33912  285.37 0855.45
2009/04/23 07:23:23.2    -284   -113    -92    306    319 248.3 -21.7  33914  285.40 0855.45
2009/04/23 07:23:23.3    -152   -106    -69    186    198 234.9 -25.4  33912  285.39 0855.45
2009/04/23 07:23:23.4    -177    -84    -75    197    210 244.6 -26.1  33912  285.39 0855.45
2009/04/23 07:23:23.5    -166    -39   -106    171    201 256.5 -39.2  33912  285.39 0855.45
2009/04/23 07:23:23.6    -142   -103    -93    176    199 234.0 -34.5  33914  285.43 0855.45
2009/04/23 07:23:23.7    -218   -146    -50    263    268 236.0 -10.9  33914  285.42 0855.45
2009/04/23 07:23:23.8    -222    -38    -79    226    239 260.1 -24.4  33918  285.47 0855.45
2009/04/23 07:23:23.9    -118   -150    -75    192    206 218.3 -26.9  33914  285.41 0855.45
2009/04/23 07:23:24.0     -75   -153    -87    171    191 206.1 -33.1  33912  285.39 0855.45
2009/04/23 07:23:24.1     -55   -127    -78    139    159 203.7 -36.3  33912  285.38 0855.45
2009/04/23 07:23:24.2     -39   -125    -72    132    150 197.4 -35.7  33910  285.36 0855.45
2009/04/23 07:23:24.3     -32   -137    -59    141    152 193.4 -28.0  33914  285.41 0855.45
2009/04/23 07:23:24.4      15   -156    -42    157    163 174.2 -15.0  33918  285.50 0855.45
2009/04/23 07:23:24.5      10   -136    -55    137    147 175.6 -27.4  33920  285.51 0855.45
2009/04/23 07:23:24.6     -25    -47    -59     54     79 208.1 -56.6  33918  285.48 0855.45
2009/04/23 07:23:24.7      33    -23    -45     41     60 124.2 -56.6  33916  285.44 0855.45
2009/04/23 07:23:24.8      95    -75     -1    122    123 128.2  -0.7  33918  285.50 0855.45
2009/04/23 07:23:24.9      26    -62     -8     68     69 157.3  -7.3  33918  285.48 0855.45
2009/04/23 07:23:25.0      23    -80    -25     84     88 163.5 -17.0  33918  285.50 0855.45
2009/04/23 07:23:25.1      18    -85     20     87     90 168.0  13.2  33918  285.50 0855.45
2009/04/23 07:23:25.2      -1    -97     -1     98     99 180.9  -0.7  33918  285.50 0855.45
2009/04/23 07:23:25.3       0    -90    -25     91     95 180.4 -15.4  33918  285.48 0855.45
2009/04/23 07:23:25.4     -25    -98    -33    102    108 194.7 -18.1  33916  285.44 0855.45
2009/04/23 07:23:25.5     -18    -81      2     84     85 192.9   1.8  33916  285.44 0855.45
2009/04/23 07:23:25.6      16   -107     69    109    129 171.5  35.5  33922  285.56 0855.45
2009/04/23 07:23:25.7      13   -103     74    104    127 172.4  39.5  33926  285.63 0855.45
2009/04/23 07:23:25.8       0    -89     55     90    105 179.5  35.0  33924  285.58 0855.45
2009/04/23 07:23:25.9      26    -79     53     84     99 161.3  35.5  33922  285.56 0855.45
2009/04/23 07:23:26.0      24    -71     29     76     81 161.3  21.5  33926  285.61 0855.45
2009/04/23 07:23:26.1      44    -76     31     89     95 149.7  19.4  33924  285.58 0855.45
2009/04/23 07:23:26.2      38    -74     37     84     91 152.4  25.1  33924  285.58 0855.45
2009/04/23 07:23:26.3      42    -89     26     99    103 154.5  14.7  33922  285.55 0855.45
2009/04/23 07:23:26.4      58   -105     19    121    123 151.0   9.0  33920  285.51 0855.45
2009/04/23 07:23:26.5      65    -66      8     93     94 135.5   5.4  33920  285.51 0855.45
2009/04/23 07:23:26.6      69    -55     10     89     90 128.6   6.9  33920  285.53 0855.45
2009/04/23 07:23:26.7      40    -68     38     80     88 149.3  27.2  33918  285.50 0855.45
2009/04/23 07:23:26.8      68    -71     53     99    112 135.9  30.8  33922  285.56 0855.45
2009/04/23 07:23:26.9      73    -72     44    103    112 134.4  24.1  33926  285.61 0855.45
2009/04/23 07:23:27.0      87    -22     51     90    103 104.2  31.4  33926  285.63 0855.45
2009/04/23 07:23:27.1     109    -61     62    126    140 119.3  27.8  33928  285.66 0855.45
2009/04/23 07:23:27.2      92    -81     27    123    127 131.3  12.6  33926  285.63 0855.45
2009/04/23 07:23:27.3     127    -34     37    132    138 105.0  15.8  33928  285.66 0855.45
2009/04/23 07:23:27.4     111     -8     39    112    119  94.4  19.4  33928  285.66 0855.45
2009/04/23 07:23:27.5      78     18     72     81    108  76.7  46.4  33926  285.63 0855.45
2009/04/23 07:23:27.6      48     40     55     63     83  50.5  46.4  33926  285.63 0855.45
2009/04/23 07:23:27.7      55     42     36     70     78  52.2  29.3  33928  285.65 0855.45
2009/04/23 07:23:27.8      81     17     14     83     85  77.6   9.5  33930  285.68 0855.45
2009/04/23 07:23:27.9     102     -1     65    103    121  90.8  35.5  33928  285.65 0855.45
2009/04/23 07:23:28.0     107    -35     83    113    140 108.6  39.7  33928  285.66 0855.45
2009/04/23 07:23:28.1     128    -30     90    132    159 103.3  37.8  33928  285.65 0855.45
2009/04/23 07:23:28.2      73    -17    106     76    130 103.3  60.6  33928  285.65 0855.45
2009/04/23 07:23:28.4      33     17     87     38     94  62.9  75.0  33926  285.63 0855.45
2009/04/23 07:23:28.4      21     40     74     46     87  27.2  64.7  33922  285.56 0855.45
2009/04/23 07:23:28.5      28     52     74     60     95  28.1  56.4  33924  285.60 0855.45
2009/04/23 07:23:28.6      87     19     67     90    112  77.6  40.1  33924  285.60 0855.45
2009/04/23 07:23:28.7      76    -13     40     78     87  99.7  29.3  33928  285.66 0855.45
2009/04/23 07:23:28.8      79     11      0     80     81  82.1   0.2  33928  285.66 0855.45
2009/04/23 07:23:28.9      48     50    -20     70     72  43.3 -20.7  33926  285.63 0855.45
2009/04/23 07:23:29.0       1     21     22     22     31   4.5  50.1  33922  285.55 0855.45
2009/04/23 07:23:29.1     -49     21     64     54     83 293.5  54.8  33926  285.63 0855.45
2009/04/23 07:23:29.2      -7    -38     56     39     68 191.5  61.5  33926  285.63 0855.45
2009/04/23 07:23:29.3       0    -47     61     48     77 180.9  56.4  33924  285.58 0855.45
2009/04/23 07:23:29.4     -12    -31     53     34     62 201.8  64.7  33926  285.61 0855.45
2009/04/23 07:23:29.5      -1    -10     77     11     77 188.0  90.0  33926  285.61 0855.45
2009/04/23 07:23:29.6     -21     26     73     34     80 320.4  73.5  33924  285.58 0855.45
2009/04/23 07:23:29.7     -20     21     34     30     45 316.8  53.3  33924  285.58 0855.45
2009/04/23 07:23:29.8      -7     -6     44     10     45 226.9  88.0  33926  285.61 0855.45
2009/04/23 07:23:29.9     -15      0     41     16     44 270.0  79.2  33926  285.61 0855.45
2009/04/23 07:23:30.0     -15      7     41     17     44 295.3  77.1  33924  285.60 0855.45
2009/04/23 07:23:30.1      -7     15     28     17     32 334.6  64.7  33924  285.60 0855.45
2009/04/23 07:23:30.2       0     51     34     52     62 359.1  36.5  33926  285.63 0855.44
2009/04/23 07:23:30.3      32     50     72     60     93  32.6  55.8  33926  285.63 0855.44
2009/04/23 07:23:30.4      42     16     49     46     67  68.3  52.1  33926  285.61 0855.44
2009/04/23 07:23:30.5      18      2     39     19     43  82.1  72.9  33928  285.65 0855.44
2009/04/23 07:23:30.6       3    -39     37     40     54 175.5  49.0  33926  285.63 0855.44
2009/04/23 07:23:30.7       0    -29     20     30     36 180.9  35.6  33928  285.65 0855.44
2009/04/23 07:23:30.8     -22    -17     -8     28     29 232.2 -23.8  33926  285.61 0855.44
2009/04/23 07:23:30.9     -34     37     18     51     55 317.7  19.4  33924  285.58 0855.44
2009/04/23 07:23:31.0     -47     10     48     49     68 282.4  51.1  33926  285.63 0855.44
2009/04/23 07:23:31.1     -38     -2     56     39     68 265.7  61.5  33924  285.58 0855.44
2009/04/23 07:23:31.2     -44    -28     58     53     78 237.6  52.2  33928  285.65 0855.44
2009/04/23 07:23:31.3     -14    -36     50     39     63 201.8  57.5  33926  285.63 0855.44
2009/04/23 07:23:31.4     -12    -87     74     88    114 188.5  43.8  33928  285.65 0855.44
2009/04/23 07:23:31.5       1   -162     63    163    174 179.5  21.7  33926  285.63 0855.44
2009/04/23 07:23:31.6      -9   -117     84    118    144 184.5  39.5  33926  285.61 0855.44
2009/04/23 07:23:31.7      21    -83    105     86    135 165.3  56.4  33930  285.68 0855.44
2009/04/23 07:23:31.8       0   -127    101    128    163 180.4  42.4  33940  285.85 0855.44
2009/04/23 07:23:31.9      93   -181    163    204    261 152.8  42.8  33944  285.91 0855.44
2009/04/23 07:23:32.0      56   -158    135    168    215 160.2  43.3  33938  285.83 0855.44
2009/04/23 07:23:32.1      49    -32     96     59    112 123.3  65.1  33938  285.82 0855.44
2009/04/23 07:23:32.2      23    -18    106     30    110 127.8  84.4  33940  285.87 0855.44
2009/04/23 07:23:32.3     -31    -31    108     44    116 225.0  77.1  33938  285.83 0855.44
2009/04/23 07:23:32.4      23      0     62     24     66  90.0  78.2  33940  285.87 0855.44
2009/04/23 07:23:32.5      -6    -79    125     80    148 184.5  64.6  33942  285.88 0855.44
2009/04/23 07:23:32.6      11     12     38     17     41  43.2  75.0  33940  285.87 0855.44
2009/04/23 07:23:32.7     -22     -8     42     24     48 250.0  66.8  33940  285.87 0855.44
2009/04/23 07:23:32.8    -148    198     -4    248    249 323.3  -1.1  33936  285.77 0855.44
2009/04/23 07:23:32.9    -252    -26    -96    254    271 263.9 -26.1  33934  285.76 0855.44
2009/04/23 07:23:33.0    -205     13    -73    206    219 273.7 -19.6  33932  285.73 0855.44
2009/04/23 07:23:33.1    -250   -206     72    325    333 230.5  12.5  33932  285.72 0855.44
2009/04/23 07:23:33.2    -272   -197      0    337    338 234.0   0.1  33930  285.68 0855.44
2009/04/23 07:23:33.3    -226   -148    -26    271    273 236.7  -5.6  33932  285.71 0855.44
2009/04/23 07:23:33.4    -206    -95    -36    228    231 245.2  -9.0  33930  285.70 0855.44
2009/04/23 07:23:33.5    -149    -59     35    161    165 248.2  12.4  33934  285.75 0855.44
2009/04/23 07:23:33.6    -131    -53     -5    142    143 247.8  -2.2  33932  285.71 0855.44
2009/04/23 07:23:33.7     -64     -6     17     65     68 263.9  15.3  33932  285.71 0855.44
2009/04/23 07:23:33.8       7     23     29     25     38  18.5  54.3  33932  285.73 0855.44
2009/04/23 07:23:34.0       5     71    -20     72     74   4.5 -20.7  33936  285.78 0855.44
2009/04/23 07:23:34.1      -4     42    -32     43     53 353.8 -45.1  33934  285.75 0855.44
2009/04/23 07:23:34.2     -84     12    -21     85     88 278.4 -13.9  33934  285.75 0855.44
2009/04/23 07:23:34.3     -34     22     30     41     50 303.3  39.7  33932  285.73 0855.45
2009/04/23 07:23:34.4     -17     54     67     57     87 342.2  55.4  33932  285.71 0855.45
2009/04/23 07:23:34.5     -68     67    -11     96     97 314.6  -6.7  33930  285.70 0855.45
2009/04/23 07:23:34.6    -100     90     -2    135    136 312.2  -1.3  33928  285.65 0855.45
2009/04/23 07:23:34.7    -106    118    -21    159    161 318.1  -7.7  33928  285.65 0855.45
2009/04/23 07:23:34.8    -136     23     32    138    142 279.7  13.2  33928  285.65 0855.45
2009/04/23 07:23:34.9    -144    114     65    184    195 308.4  20.0  33922  285.56 0855.45
2009/04/23 07:23:35.0     -94    120     57    153    163 321.7  21.3  33924  285.60 0855.45
2009/04/23 07:23:35.1     -87    157     17    180    181 331.0   5.7  33924  285.60 0855.45
2009/04/23 07:23:35.2     -35    207    -16    211    212 350.2  -4.6  33928  285.65 0855.45
2009/04/23 07:23:35.3     -76    212    -29    226    228 340.2  -7.3  33926  285.61 0855.45
2009/04/23 07:23:35.4    -108    154     -6    189    190 325.0  -2.1  33930  285.68 0855.45
2009/04/23 07:23:35.5    -106    127    -22    166    168 319.9  -7.7  33930  285.70 0855.45
2009/04/23 07:23:35.6    -116    122      0    169    170 316.6   0.2  33928  285.66 0855.45
2009/04/23 07:23:35.7    -135     19     46    137    145 278.0  18.9  33932  285.73 0855.45
2009/04/23 07:23:35.8     -95    -20     28     98    103 258.1  16.3  33934  285.75 0855.45
2009/04/23 07:23:35.9     -81     41      6     92     93 297.1   3.8  33932  285.73 0855.45
2009/04/23 07:23:36.0      -1    112    -30    113    117 359.1 -15.0  33932  285.71 0855.45
2009/04/23 07:23:36.1      13    140    -50    141    150   5.3 -19.6  33932  285.71 0855.45
2009/04/23 07:23:36.2      28    162    -48    165    172  10.0 -16.4  33926  285.63 0855.45
2009/04/23 07:23:36.3      73    140    -49    158    165  27.6 -22.5  33926  285.61 0855.45
2009/04/23 07:23:36.4     144     68    -16    160    161  64.5  -6.0  33922  285.56 0855.45
2009/04/23 07:23:36.5     181     50      9    188    189  74.5   2.8  33924  285.58 0855.45
2009/04/23 07:23:36.6     158     52     70    167    181  71.6  23.8  33924  285.58 0855.45
2009/04/23 07:23:36.7      89     39     75     98    123  66.5  41.6  33926  285.61 0855.45
2009/04/23 07:23:36.8     142     17     96    144    173  83.0  36.5  33924  285.58 0855.45
2009/04/23 07:23:36.9      81     53    139     98    170  56.7  61.5  33918  285.48 0855.45
2009/04/23 07:23:37.0      80     39    113     90    144  63.8  57.5  33920  285.51 0855.45
2009/04/23 07:23:37.1      85    -13     57     87    104  98.8  36.0  33924  285.58 0855.45
2009/04/23 07:23:37.2      66     -9     38     67     77  97.9  32.4  33924  285.58 0855.45
2009/04/23 07:23:37.3      19      6     35     21     40  71.6  65.7  33922  285.55 0855.45
2009/04/23 07:23:37.4     -31     -3     32     32     45 263.9  50.1  33922  285.56 0855.45
2009/04/23 07:23:37.5     -35     12     17     38     41 290.0  25.1  33922  285.55 0855.45
2009/04/23 07:23:37.6      -9      0      9     10     13 269.2  52.0  33922  285.56 0855.45
2009/04/23 07:23:37.7       6     20     19     22     29  18.5  47.9  33924  285.58 0855.45
2009/04/23 07:23:37.8      14     30     18     34     38  25.3  29.3  33922  285.56 0855.45
2009/04/23 07:23:37.9      27     39     14     48     51  34.3  16.3  33924  285.60 0855.45
2009/04/23 07:23:38.0     -14     25     12     29     31 331.0  23.0  33922  285.56 0855.45
2009/04/23 07:23:38.1     -22      9      1     25     26 293.5   2.9  33924  285.58 0855.45
2009/04/23 07:23:38.2     -14      0     -5     15     16 270.0 -19.7  33922  285.55 0855.45
2009/04/23 07:23:38.3     -17     -9    -16     20     25 241.1 -48.1  33924  285.60 0855.47
2009/04/23 07:23:38.4     -50    -23    -23     56     60 244.8 -27.5  33922  285.55 0855.47
2009/04/23 07:23:38.5     -54    -29    -31     62     69 242.0 -31.7  33920  285.53 0855.47
2009/04/23 07:23:38.6     -59    -22    -37     64     73 249.2 -36.8  33924  285.58 0855.47
2009/04/23 07:23:38.7     -56     30    -13     64     66 298.8 -11.5  33920  285.53 0855.47
2009/04/23 07:23:38.8     -48     15     23     51     55 287.7  26.2  33922  285.56 0855.47
2009/04/23 07:23:38.9     -53     17     27     56     62 288.6  27.2  33922  285.55 0855.47
2009/04/23 07:23:39.0    -120      2     19    121    123 271.3   9.0  33924  285.58 0855.47
2009/04/23 07:23:39.1    -151     -2      6    152    153 269.1   2.3  33918  285.50 0855.47
2009/04/23 07:23:39.2    -133    -26     -5    136    137 258.6  -2.2  33918  285.48 0855.47
2009/04/23 07:23:39.3    -145     24     18    148    150 279.6   7.1  33916  285.44 0855.47
2009/04/23 07:23:39.5    -114     23     42    117    124 281.5  20.0  33916  285.46 0855.47
2009/04/23 07:23:39.6     -93     18     19     95     98 281.4  11.6  33914  285.41 0855.47
2009/04/23 07:23:39.7     -82      8     28     83     88 276.1  19.2  33916  285.46 0855.47
2009/04/23 07:23:39.8     -99    -16      6    101    102 260.8   3.8  33918  285.50 0855.47
2009/04/23 07:23:39.9     -99    -63      5    118    119 237.6   2.8  33918  285.48 0855.47
2009/04/23 07:23:40.0     -55    -57     17     80     82 223.7  12.6  33918  285.50 0855.47
2009/04/23 07:23:40.1     -47    -74     10     88     89 212.5   6.9  33918  285.48 0855.47
2009/04/23 07:23:40.2     -32    -58     23     67     71 209.0  18.9  33918  285.50 0855.47
2009/04/23 07:23:40.3      62     -7     67     63     91  97.0  51.6  33920  285.51 0855.46
2009/04/23 07:23:40.4      41     -7     72     42     83 100.6  67.2  33916  285.46 0855.46
2009/04/23 07:23:40.5      69     -7     77     70    104  96.1  52.2  33920  285.53 0855.46
2009/04/23 07:23:40.6      35     38     82     52     97  42.3  64.7  33918  285.50 0855.46
2009/04/23 07:23:40.7      10    105     52    106    118   5.8  27.8  33922  285.55 0855.46
2009/04/23 07:23:40.8      18    132     47    134    143   8.0  19.4  33922  285.56 0855.46
2009/04/23 07:23:40.9     -20     99     12    101    102 348.5   6.9  33924  285.58 0855.46
2009/04/23 07:23:41.0     -10     84     15     85     87 352.9  10.1  33924  285.58 0855.46
2009/04/23 07:23:41.1     -42     65     -4     78     79 326.6  -3.1  33924  285.58 0855.46
2009/04/23 07:23:41.2     -39     50     -1     64     65 322.2  -1.2  33924  285.58 0855.46
2009/04/23 07:23:41.3     -16     27     -1     32     33 329.3  -2.2  33922  285.56 0855.47
2009/04/23 07:23:41.4      -7     22     36     24     43 341.3  62.6  33922  285.55 0855.47
2009/04/23 07:23:41.5       6     44     73     45     85   8.0  65.1  33920  285.53 0855.47
2009/04/23 07:23:41.6      -3     41     75     42     85 355.5  68.3  33922  285.56 0855.47
2009/04/23 07:23:41.7       6     17    100     19    101  18.7  90.0  33924  285.58 0855.47
2009/04/23 07:23:41.8       8     15     62     18     64  29.0  82.8  33922  285.55 0855.47
2009/04/23 07:23:41.9      29      8     19     31     36  74.9  35.5  33922  285.55 0855.47
2009/04/23 07:23:42.0      77     -5     24     78     82  93.9  17.3  33920  285.53 0855.47
2009/04/23 07:23:42.1      71     50     29     87     92  54.9  18.9  33924  285.58 0855.47
2009/04/23 07:23:42.2      59     55     37     81     89  46.8  26.2  33926  285.61 0855.47
2009/04/23 07:23:42.3      28     59     41     66     77  25.5  35.5  33924  285.58 0855.47
2009/04/23 07:23:42.4      -1     66     13     67     69 359.1  11.1  33922  285.55 0855.47
2009/04/23 07:23:42.5      16     78     29     80     85  11.6  20.0  33922  285.55 0855.47
2009/04/23 07:23:42.6      96     79     53    125    135  50.5  24.6  33926  285.61 0855.47
2009/04/23 07:23:42.7     115     83     65    142    156  54.1  26.6  33926  285.61 0855.47
2009/04/23 07:23:42.8     134     63     53    149    159  64.6  19.6  33926  285.61 0855.47
2009/04/23 07:23:42.9      84     80      1    117    118  46.4   0.8  33924  285.58 0855.47
2009/04/23 07:23:43.0      94     48     -4    106    107  62.5  -2.2  33924  285.60 0855.47
2009/04/23 07:23:43.1     135     10    -46    136    144  85.6 -18.7  33924  285.58 0855.47
2009/04/23 07:23:43.2     206      0    -23    207    209  90.0  -6.5  33926  285.61 0855.47
2009/04/23 07:23:43.3     187    -44     67    193    205 103.3  19.2  33922  285.55 0855.47
2009/04/23 07:23:43.4     130    -30    141    134    194 103.3  51.4  33926  285.61 0855.47
2009/04/23 07:23:43.5       0    -73    119     74    140 180.0  64.7  33924  285.60 0855.47
2009/04/23 07:23:43.6      -8    -63    111     64    128 188.0  67.2  33922  285.55 0855.47
2009/04/23 07:23:43.8      41    -31    126     52    136 127.8  76.6  33920  285.53 0855.47
2009/04/23 07:23:43.9     154     11    129    155    201  85.6  44.1  33924  285.58 0855.47
2009/04/23 07:23:44.0     148     22    156    150    216  81.2  51.4  33922  285.56 0855.47
2009/04/23 07:23:44.1      41     13    143     44    149  72.3  82.3  33926  285.63 0855.47
2009/04/23 07:23:44.2      50    -16     75     53     91 108.6  61.1  33924  285.60 0855.47
2009/04/23 07:23:44.3     -21     60     98     64    117 340.0  64.6  33924  285.58 0855.47
2009/04/23 07:23:44.4       3     51     98     52    110   4.4  69.8  33924  285.60 0855.47
2009/04/23 07:23:44.5     -11     18     76     22     79 329.3  83.3  33924  285.58 0855.47
2009/04/23 07:23:44.6      17      9    106     20    107  61.1  89.1  33922  285.55 0855.47
2009/04/23 07:23:44.7     -62     -7     58     63     85 263.0  47.9  33924  285.60 0855.47
2009/04/23 07:23:44.8    -116    -50     28    127    131 246.5  12.6  33922  285.56 0855.47
2009/04/23 07:23:44.9     -90    -30     15     96     98 251.4   9.0  33922  285.56 0855.47
2009/04/23 07:23:45.0     -41     44     21     61     65 316.7  18.9  33922  285.56 0855.47
2009/04/23 07:23:45.1    -120     36     54    126    137 286.8  24.6  33922  285.56 0855.47
2009/04/23 07:23:45.2    -120    -32     24    125    128 254.9  11.0  33926  285.61 0855.47
2009/04/23 07:23:45.3     -74     -2     -9     75     76 268.3  -7.3  33922  285.56 0855.47
2009/04/23 07:23:45.4     -75     15    -36     77     85 281.5 -31.0  33926  285.63 0855.47
2009/04/23 07:23:45.5     -86     16    -42     88     97 280.6 -31.6  33924  285.58 0855.47
2009/04/23 07:23:45.6      -8     25     72     27     76 341.3  80.2  33924  285.58 0855.47
2009/04/23 07:23:45.7     -42    -24    113     49    123 240.2  75.0  33926  285.63 0855.47
2009/04/23 07:23:45.8     -92    -62     66    112    130 235.8  33.5  33924  285.60 0855.47
2009/04/23 07:23:45.9    -106     -8    -29    107    112 265.7 -15.5  33926  285.61 0855.47
2009/04/23 07:23:46.0    -164     -2    -62    165    176 269.0 -25.9  33924  285.58 0855.47
2009/04/23 07:23:46.1    -152    -71    -52    168    175 244.8 -22.8  33926  285.61 0855.47
2009/04/23 07:23:46.2    -112     37    -68    119    137 288.6 -36.3  33922  285.55 0855.47
2009/04/23 07:23:46.3     -87     44    -81     98    127 297.1 -48.2  33922  285.56 0855.47
2009/04/23 07:23:46.4     -15    182     18    183    184 355.1   5.9  33922  285.56 0855.47
2009/04/23 07:23:46.5       0    182     10    183    184   0.0   3.1  33924  285.58 0855.47
2009/04/23 07:23:46.6      34    136    -39    141    147  14.3 -15.5  33922  285.55 0855.47
2009/04/23 07:23:46.7      68     82    -16    107    109  39.7  -8.8  33924  285.58 0855.47
2009/04/23 07:23:46.8      72     72      5    103    104  45.0   2.9  33924  285.60 0855.47
2009/04/23 07:23:46.9      23     35     38     43     57  33.4  46.9  33922  285.56 0855.47
2009/04/23 07:23:47.0      58     -6     50     59     77  96.1  43.8  33926  285.63 0855.47
2009/04/23 07:23:47.1      78    -36     32     87     92 114.8  20.4  33926  285.63 0855.47
2009/04/23 07:23:47.2       5    -61     17     62     65 174.7  15.2  33928  285.66 0855.47
2009/04/23 07:23:47.3     -15    -45    -43     48     64 199.2 -52.3  33926  285.63 0855.47
2009/04/23 07:23:47.4     -35      2    -93     36     99 274.3 -82.6  33936  285.78 0855.47
2009/04/23 07:23:47.5     -27    -83    -34     88     94 198.5 -25.9  33938  285.82 0855.47
2009/04/23 07:23:47.6     -43    -82    -21     93     96 208.1 -12.9  33932  285.73 0855.47
2009/04/23 07:23:47.7     -63   -134    -43    149    155 205.3 -21.7  33930  285.70 0855.47
2009/04/23 07:23:47.8     -77   -128     53    150    159 211.2  20.2  33928  285.65 0855.47
2009/04/23 07:23:47.9    -158    -70    -21    173    175 246.0  -7.2  33926  285.63 0855.47
2009/04/23 07:23:48.0    -132   -126    -15    183    184 226.4  -4.9  33926  285.61 0855.47
2009/04/23 07:23:48.1    -139   -118    -37    183    187 229.6 -11.5  33924  285.60 0855.47
2009/04/23 07:23:48.2    -133   -175     -4    220    221 217.2  -1.2  33924  285.60 0855.47
2009/04/23 07:23:48.3     -87   -144     12    169    170 211.0   4.4  33924  285.60 0855.47
2009/04/23 07:23:48.4     -62   -209     59    219    227 196.5  15.2  33932  285.73 0855.47
2009/04/23 07:23:48.5     -68   -196     33    208    211 199.2   9.0  33930  285.68 0855.47
2009/04/23 07:23:48.6     -80   -187     36    204    208 203.2  10.1  33936  285.78 0855.47
2009/04/23 07:23:48.7     -88   -121     29    150    153 216.0  11.1  33936  285.78 0855.47
2009/04/23 07:23:48.8     -74    -98    -13    123    124 217.0  -6.2  33944  285.92 0855.47
2009/04/23 07:23:48.9     -52    -67    -24     85     88 217.8 -20.7  33956  286.12 0855.47
2009/04/23 07:23:49.0     -59    -42    -54     73     90 234.0 -44.5  33952  286.05 0855.47
2009/04/23 07:23:49.1     -92    -15    -35     94    100 260.3 -25.4  33930  285.68 0855.47
2009/04/23 07:23:49.2     -77      0    -28     78     82 270.0 -24.8  33930  285.68 0855.47
2009/04/23 07:23:49.3      -9    124    -30    125    129 355.6 -13.9  33936  285.80 0855.49
2009/04/23 07:23:49.4      38    126    -16    132    134  16.9  -7.2  33938  285.82 0855.49
2009/04/23 07:23:49.5      50    106    -16    118    120  25.3  -7.7  33938  285.83 0855.49
2009/04/23 07:23:49.6      33     79    -28     86     90  22.7 -23.8  33940  285.85 0855.49
2009/04/23 07:23:49.7      10     74    -50     75     90   8.0 -40.9  33940  285.85 0855.49
2009/04/23 07:23:49.8      41    137    -34    144    149  16.9 -13.4  33944  285.92 0855.49
2009/04/23 07:23:49.9      21    120     -6    122    123  10.2  -3.1  33944  285.93 0855.49
2009/04/23 07:23:50.0      -1    119     41    120    127 359.1  18.9  33938  285.82 0855.49
2009/04/23 07:23:50.1     -49    184     68    191    202 345.1  20.2  33936  285.80 0855.49
2009/04/23 07:23:50.2    -129    173    -27    217    219 323.3  -7.2  33938  285.83 0855.49
2009/04/23 07:23:50.3    -200    249    -55    320    325 321.3  -9.9  33936  285.79 0855.49
2009/04/23 07:23:50.4    -190    257    -49    320    324 323.5  -8.8  33954  286.09 0855.49
2009/04/23 07:23:50.5    -229    273     15    357    358 319.9   2.5  33940  285.87 0855.49
2009/04/23 07:23:50.6    -250    202    -44    322    326 308.9  -7.9  33944  285.91 0855.49
2009/04/23 07:23:50.7    -223    144    -89    266    281 302.9 -18.6  33940  285.86 0855.49
2009/04/23 07:23:50.8    -205    131    -47    244    249 302.5 -10.9  33940  285.86 0855.49
2009/04/23 07:23:50.9    -268    153    -17    309    310 299.8  -3.3  33942  285.89 0855.49
2009/04/23 07:23:51.0    -334    178    -60    379    384 298.1  -9.0  33962  286.21 0855.49
2009/04/23 07:23:51.1    -270    143    -72    306    315 298.0 -13.3  33962  286.23 0855.49
2009/04/23 07:23:51.2    -215    195    -11    291    292 312.3  -2.2  33952  286.04 0855.49
2009/04/23 07:23:51.3    -288    241    -62    376    382 309.9  -9.5  33962  286.22 0855.50
2009/04/23 07:23:51.4    -280    242   -106    371    387 310.9 -16.0  33952  286.04 0855.50
2009/04/23 07:23:51.5    -319    245    -26    403    404 307.6  -3.7  33952  286.06 0855.50
2009/04/23 07:23:51.6    -276    242    -60    368    373 311.3  -9.4  33972  286.41 0855.50
2009/04/23 07:23:51.7    -306    185    -74    358    366 301.2 -11.8  33972  286.41 0855.50
2009/04/23 07:23:51.8    -288    161    -77    331    340 299.2 -13.1  33974  286.43 0855.50
2009/04/23 07:23:51.9    -301    175   -111    349    367 300.1 -17.7  33964  286.26 0855.50
2009/04/23 07:23:52.0    -333    167   -104    373    388 296.6 -15.7  33936  285.78 0855.50
2009/04/23 07:23:52.1    -365    131    -35    388    390 289.8  -5.2  33956  286.12 0855.50
2009/04/23 07:23:52.2    -337    159    -50    373    377 295.4  -7.7  33968  286.34 0855.50
2009/04/23 07:23:52.3    -332    145    -89    363    374 293.6 -13.8  33970  286.36 0855.50
2009/04/23 07:23:52.4    -382    146   -129    410    430 290.9 -17.5  33968  286.32 0855.50
2009/04/23 07:23:52.5    -403    166    -84    436    445 292.4 -10.9  33964  286.27 0855.50
2009/04/23 07:23:52.6    -395    162    -67    427    433 292.3  -9.0  33968  286.32 0855.50
2009/04/23 07:23:52.7    -362    139    -54    388    392 291.1  -8.0  33952  286.07 0855.50
2009/04/23 07:23:52.8    -313     93    -13    327    328 286.6  -2.3  33944  285.93 0855.50
2009/04/23 07:23:52.9    -285    117     98    309    325 292.4  17.7  33942  285.88 0855.50
2009/04/23 07:23:53.0    -318    129     92    344    357 292.1  15.0  33940  285.84 0855.50
2009/04/23 07:23:53.1    -304     65     -2    312    313 282.2  -0.4  33954  286.08 0855.50
2009/04/23 07:23:53.2    -265    119     55    291    297 294.2  10.8  33936  285.77 0855.50
2009/04/23 07:23:53.3    -300    124     -7    325    326 292.6  -1.4  33964  286.25 0855.49
2009/04/23 07:23:53.4    -308    102     -6    325    326 288.4  -1.1  33968  286.33 0855.49
2009/04/23 07:23:53.5    -289    110    -17    310    311 290.8  -3.3  33964  286.26 0855.49
2009/04/23 07:23:53.6    -300    135    -42    330    333 294.3  -7.4  33968  286.34 0855.49
2009/04/23 07:23:53.7    -291    156    -57    331    337 298.2  -9.9  33968  286.34 0855.49
2009/04/23 07:23:53.8    -305    137    -72    335    343 294.2 -12.3  33966  286.29 0855.49
2009/04/23 07:23:53.9    -294    153    -44    332    335 297.5  -7.6  33962  286.24 0855.49
2009/04/23 07:23:54.0    -310    184    -59    361    366 300.7  -9.4  33968  286.31 0855.49
2009/04/23 07:23:54.1    -310    171    -63    354    360 298.9 -10.1  33968  286.34 0855.49
2009/04/23 07:23:54.2    -275    164    -40    321    324 300.9  -7.2  33968  286.31 0855.49
2009/04/23 07:23:54.3    -259    163    -67    307    315 302.2 -12.4  33970  286.35 0855.49
2009/04/23 07:23:54.4    -264    137    -85    298    311 297.5 -16.0  33968  286.33 0855.49
2009/04/23 07:23:54.5    -247    138    -67    284    292 299.3 -13.4  33968  286.33 0855.49
2009/04/23 07:23:54.6    -222    147    -58    267    274 303.5 -12.4  33968  286.31 0855.49
2009/04/23 07:23:54.7    -221    151    -49    268    273 304.4 -10.4  33968  286.31 0855.49
2009/04/23 07:23:54.8    -217    147    -47    263    268 304.1 -10.1  33970  286.35 0855.49
2009/04/23 07:23:54.9    -207    138    -65    250    259 303.7 -14.7  33966  286.28 0855.49
2009/04/23 07:23:55.0    -193    140    -65    239    248 306.0 -15.4  33970  286.35 0855.49
2009/04/23 07:23:55.1    -193    145    -76    242    254 306.9 -17.5  33968  286.33 0855.49
2009/04/23 07:23:55.2    -191    148    -62    242    250 307.8 -14.5  33970  286.35 0855.49
2009/04/23 07:23:55.3    -202    172    -73    266    276 310.5 -15.4  33966  286.28 0855.49
2009/04/23 07:23:55.4    -197    196    -66    279    287 314.9 -13.4  33968  286.31 0855.49
2009/04/23 07:23:55.5    -203    190    -56    279    285 313.1 -11.5  33966  286.30 0855.49
2009/04/23 07:23:55.6    -216    178    -46    281    285 309.5  -9.3  33968  286.31 0855.49
2009/04/23 07:23:55.7    -208    192    -56    284    290 312.7 -11.3  33966  286.28 0855.49
2009/04/23 07:23:55.8    -199    198    -55    281    287 314.9 -11.1  33966  286.28 0855.49
2009/04/23 07:23:55.9    -220    216    -27    309    311 314.4  -5.1  33964  286.25 0855.49
2009/04/23 07:23:56.0    -250    150    -56    292    298 300.9 -10.9  33960  286.20 0855.49
2009/04/23 07:23:56.1    -242    127    -45    274    278 297.8  -9.3  33958  286.15 0855.49
2009/04/23 07:23:56.2    -237    115    -57    264    271 296.0 -12.2  33956  286.13 0855.49
2009/04/23 07:23:56.3    -230    117    -47    259    264 297.0 -10.3  33958  286.15 0855.49
2009/04/23 07:23:56.4    -227    112    -58    254    261 296.2 -12.9  33958  286.15 0855.49
2009/04/23 07:23:56.5    -249     99    -65    268    276 291.7 -13.7  33956  286.11 0855.49
2009/04/23 07:23:56.6    -217    121    -55    249    256 299.1 -12.6  33954  286.09 0855.49
2009/04/23 07:23:56.7    -195     85    -59    213    222 293.6 -15.5  33954  286.10 0855.49
2009/04/23 07:23:56.8    -167     83    -53    187    195 296.4 -16.0  33958  286.17 0855.49
2009/04/23 07:23:56.9    -143     91    -60    170    181 302.5 -19.7  33958  286.17 0855.49
2009/04/23 07:23:57.0    -115     97    -53    151    160 310.0 -24.4  33958  286.17 0855.49
2009/04/23 07:23:57.1    -102     96    -41    141    146 313.1 -21.2  33960  286.19 0855.49
2009/04/23 07:23:57.2    -127    101    -50    163    170 308.6 -22.3  33958  286.17 0855.49
2009/04/23 07:23:57.3    -121     81    -51    146    154 303.7 -23.3  33954  286.10 0855.50
2009/04/23 07:23:57.4    -118     98    -45    154    160 309.6 -21.2  33954  286.10 0855.50
2009/04/23 07:23:57.5    -103    103    -29    147    150 315.0 -11.3  33952  286.05 0855.50
2009/04/23 07:23:57.6    -102    123    -34    161    165 320.4 -12.2  33946  285.97 0855.50
2009/04/23 07:23:57.7     -73    166    -27    182    185 336.2  -8.6  33954  286.08 0855.50
2009/04/23 07:23:57.8     -64    161    -30    174    177 338.2  -9.8  33950  286.02 0855.50
2009/04/23 07:23:57.9     -90    155    -44    180    186 329.7 -13.9  33952  286.07 0855.50
2009/04/23 07:23:58.0     -48    158    -32    166    170 343.1 -11.1  33952  286.05 0855.50
2009/04/23 07:23:58.1     -40    142    -35    148    153 344.0 -13.4  33952  286.07 0855.50
2009/04/23 07:23:58.2     -43    108    -42    117    124 338.2 -24.4  33952  286.05 0855.50
2009/04/23 07:23:58.3     -73    127    -57    147    157 330.1 -26.7  33950  286.03 0855.50
2009/04/23 07:23:58.4     -78    111    -68    136    152 324.8 -32.6  33950  286.02 0855.50
2009/04/23 07:23:58.5     -59    150    -64    162    174 338.6 -26.9  33946  285.95 0855.50
2009/04/23 07:23:58.6     -44    130    -49    138    146 341.3 -24.4  33948  285.98 0855.50
2009/04/23 07:23:58.7     -36    109    -39    115    121 341.7 -23.3  33948  286.00 0855.50
2009/04/23 07:23:58.8     -22    111    -35    114    119 348.5 -21.8  33950  286.02 0855.50
2009/04/23 07:23:58.9      19     71    -42     74     85  15.1 -36.8  33948  286.00 0855.50
2009/04/23 07:23:59.0      -7     32    -55     33     64 346.6 -69.1  33944  285.93 0855.50
2009/04/23 07:23:59.1     -48     29    -42     57     70 301.5 -44.1  33948  286.00 0855.50
2009/04/23 07:23:59.2     -65     30    -41     72     82 295.4 -36.3  33942  285.90 0855.50
2009/04/23 07:23:59.3     -87     48    -63    100    118 298.8 -39.9  33940  285.85 0855.51
2009/04/23 07:23:59.4    -119     43    -65    127    142 289.9 -33.7  33934  285.75 0855.51
2009/04/23 07:23:59.5     -98     50    -86    111    140 297.1 -46.1  33936  285.80 0855.51
2009/04/23 07:23:59.6    -151     15   -106    152    185 275.7 -42.8  33934  285.76 0855.51
2009/04/23 07:23:59.7    -159     22    -72    161    176 277.9 -30.1  33934  285.75 0855.51
2009/04/23 07:23:59.8    -127    -45    -46    135    142 250.5 -23.3  33938  285.83 0855.51
2009/04/23 07:23:59.9    -118    -49    -40    128    135 247.4 -17.5  33936  285.78 0855.51
2009/04/23 07:24:00.0    -188    -77    -37    204    208 247.6 -10.5  33936  285.80 0855.51
2009/04/23 07:24:00.1    -243     18    -72    244    254 274.3 -21.5  33932  285.71 0855.51
2009/04/23 07:24:00.2    -230    -34    -80    233    247 261.4 -19.1  33934  285.76 0855.51
2009/04/23 07:24:00.3    -212     13     -9    213    214 273.7  -2.6  33938  285.82 0855.51
2009/04/23 07:24:00.4    -200     42    -41    205    210 281.9 -11.3  33936  285.80 0855.51
2009/04/23 07:24:00.5    -224      0    -66    225    235 270.0 -16.5  33936  285.80 0855.51
2009/04/23 07:24:00.6    -180    -32    -73    183    197 259.9 -27.4  33940  285.85 0855.51
2009/04/23 07:24:00.7    -157     -7    -90    158    181 267.4 -36.8  33940  285.85 0855.51
2009/04/23 07:24:00.8     -89    -13    -91     91    128 261.2 -54.5  33938  285.83 0855.51
2009/04/23 07:24:00.9       0     -7    -15      8     17 175.5 -73.2  33934  285.75 0855.51
2009/04/23 07:24:01.0     -67     67     82     96    126 315.0  45.4  33936  285.78 0855.51
2009/04/23 07:24:01.1     -91     92     95    130    161 315.1  39.9  33938  285.83 0855.51
2009/04/23 07:24:01.2     -48    102    109    114    157 334.6  48.7  33938  285.83 0855.51
2009/04/23 07:24:01.3       8    147    100    148    178   3.1  37.3  33938  285.82 0855.53
2009/04/23 07:24:01.4      16    155     43    156    162   6.2  15.6  33936  285.78 0855.53
2009/04/23 07:24:01.5      -7    219     43    220    225 358.0  11.1  33932  285.73 0855.53
2009/04/23 07:24:01.6      -5    292     11    293    294 358.9   2.3  33938  285.81 0855.53
2009/04/23 07:24:01.8       9    232     24    233    235   2.2   5.9  33940  285.84 0855.53
2009/04/23 07:24:01.9      43    231     95    236    254  10.7  23.0  33934  285.76 0855.53
2009/04/23 07:24:02.0     174    246     81    302    313  35.2  15.0  33940  285.86 0855.53
2009/04/23 07:24:02.1     195    209     98    287    304  43.0  18.9  33936  285.79 0855.53
2009/04/23 07:24:02.2     235    200    120    309    331  49.6  22.4  33932  285.71 0855.53
2009/04/23 07:24:02.3     200    140    169    245    297  54.9  37.8  33934  285.74 0855.53
2009/04/23 07:24:02.4     181    132     72    225    237  53.8  17.9  33936  285.80 0855.52
2009/04/23 07:24:02.5     314    148     19    348    349  64.8   3.2  33936  285.80 0855.52
2009/04/23 07:24:02.6     179     66    101    192    216  69.6  29.8  33936  285.80 0855.52
2009/04/23 07:24:02.7      42     26     96     50    108  57.6  70.8  33936  285.78 0855.52
2009/04/23 07:24:02.8     -24     20     49     32     58 309.5  64.6  33938  285.82 0855.52
2009/04/23 07:24:02.9    -109     22     79    112    137 281.5  39.1  33934  285.75 0855.52
2009/04/23 07:24:03.0     -42     79    193     90    212 331.5  73.2  33934  285.76 0855.52
2009/04/23 07:24:03.1     -83     31    157     89    180 290.4  68.3  33936  285.78 0855.52
2009/04/23 07:24:03.2       2     26    170     27    172   4.4  90.0  33942  285.90 0855.52
2009/04/23 07:24:03.3     -59    -35    127     69    144 239.3  68.9  33940  285.87 0855.52
2009/04/23 07:24:03.4     -21     13     59     25     64 302.4  77.0  33938  285.82 0855.52
2009/04/23 07:24:03.5     -30    181     97    184    208 350.4  29.8  33938  285.82 0855.52
2009/04/23 07:24:03.6    -189    236     95    303    318 321.3  17.5  33940  285.84 0855.52
2009/04/23 07:24:03.7    -233    158   -140    282    314 304.2 -32.8  33940  285.86 0855.52
2009/04/23 07:24:03.8    -124   -106   -115    164    200 229.3 -43.0  33934  285.75 0855.52
2009/04/23 07:24:03.9    -313   -180    -54    362    367 240.1  -8.6  33938  285.82 0855.52
2009/04/23 07:24:04.0    -336   -163    -33    374    376 244.1  -5.1  33940  285.85 0855.52
2009/04/23 07:24:04.2    -439    -36     38    441    443 265.2   5.0  33942  285.90 0855.52
2009/04/23 07:24:04.3    -401      0    -28    402    403 270.0  -4.1  33942  285.90 0855.52
2009/04/23 07:24:04.4    -297     -9   -126    298    323 268.1 -28.9  33946  285.94 0855.50
2009/04/23 07:24:04.5    -374     64   -173    380    417 279.7 -30.6  33938  285.81 0855.50
2009/04/23 07:24:04.6    -230    108     59    255    262 295.2  13.1  33938  285.83 0855.50
2009/04/23 07:24:04.7    -225     45    -26    230    232 281.5  -6.5  33934  285.76 0855.50
2009/04/23 07:24:04.8    -199     87    -77    218    232 293.5 -19.6  33938  285.83 0855.50
2009/04/23 07:24:04.9    -138     41   -107    145    180 286.8 -44.5  33938  285.82 0855.50
2009/04/23 07:24:05.0     -29     66   -114     73    135 336.4 -69.0  33938  285.83 0855.50
2009/04/23 07:24:05.1     -32     -2    -99     33    104 265.6 -85.4  33936  285.80 0855.50
2009/04/23 07:24:05.2     -80   -115    -71    141    157 214.7 -33.5  33938  285.82 0855.50
2009/04/23 07:24:05.3    -116    -86    -75    145    163 233.6 -34.2  33938  285.83 0855.50
2009/04/23 07:24:05.4    -363    -58     -8    368    369 260.8  -1.3  33930  285.68 0855.50
2009/04/23 07:24:05.5    -381    -29    -56    382    387 265.6  -8.4  33936  285.80 0855.50
2009/04/23 07:24:05.6    -287    -43    -90    291    305 261.4 -17.3  33938  285.81 0855.50
2009/04/23 07:24:05.7    -301    -61     26    308    310 258.6   4.9  33938  285.81 0855.50
2009/04/23 07:24:05.8    -154   -121    -61    197    207 231.8 -17.3  33936  285.80 0855.50
2009/04/23 07:24:05.9     -65   -132    -33    148    152 206.3 -12.9  33936  285.78 0855.50
2009/04/23 07:24:06.0     -11    -85    -29     86     90 187.6 -23.6  33934  285.76 0855.50
2009/04/23 07:24:06.1     -23    -66    -23     70     73 199.2 -23.8  33938  285.82 0855.50
2009/04/23 07:24:06.2     -45    -32    -24     56     60 234.0 -28.5  33934  285.76 0855.50
2009/04/23 07:24:06.3      -8     -3    -38      9     39 244.7 -90.0  33936  285.80 0855.50
2009/04/23 07:24:06.4      66   -103     -4    123    124 147.4  -2.2  33932  285.73 0855.49
2009/04/23 07:24:06.5      91   -108     27    142    145 139.9  11.1  33938  285.82 0855.49
2009/04/23 07:24:06.6      98    -86     16    131    133 131.3   7.1  33936  285.78 0855.49
2009/04/23 07:24:06.7     120    -71     58    140    151 120.7  23.6  33938  285.83 0855.49
2009/04/23 07:24:06.8     109   -116     74    160    176 136.8  26.6  33938  285.83 0855.49
2009/04/23 07:24:06.9     259   -187      2    320    321 126.0   0.5  33934  285.76 0855.49
2009/04/23 07:24:07.0     225   -124    -66    257    266 118.9 -14.5  33938  285.81 0855.49
2009/04/23 07:24:07.1     196    -28    -22    199    201  98.1  -6.5  33940  285.85 0855.49
2009/04/23 07:24:07.2      96    -84    -36    128    132 131.3 -20.7  33936  285.80 0855.49
2009/04/23 07:24:07.3     104   -123     -6    162    163 139.9  -2.2  33940  285.87 0855.49
2009/04/23 07:24:07.4     109   -128     -2    169    170 139.5  -0.7  33938  285.83 0855.49
2009/04/23 07:24:07.5      79   -235     -1    249    250 161.3  -0.3  33938  285.81 0855.49
2009/04/23 07:24:07.6      61   -225     40    234    238 164.8   9.9  33938  285.83 0855.49
2009/04/23 07:24:07.7      63   -241     48    250    255 165.3  11.0  33942  285.88 0855.49
2009/04/23 07:24:07.8      17   -210     94    211    230 175.1  25.7  33940  285.85 0855.49
2009/04/23 07:24:07.9      12   -185    -44    186    192 176.2 -13.4  33938  285.83 0855.49
2009/04/23 07:24:08.0      67   -170    -17    183    184 158.4  -5.4  33940  285.87 0855.49
2009/04/23 07:24:08.1      48   -205     -8    211    212 166.6  -2.2  33938  285.83 0855.49
2009/04/23 07:24:08.2      42   -194     -7    199    200 167.7  -2.1  33942  285.88 0855.49
2009/04/23 07:24:08.3      52   -199    100    206    228 165.3  27.4  33940  285.85 0855.49
2009/04/23 07:24:08.4      60   -233    115    241    267 165.5  27.3  33940  285.84 0855.48
2009/04/23 07:24:08.5     108   -101    131    149    198 133.1  45.9  33936  285.80 0855.48
2009/04/23 07:24:08.6     153   -172     95    231    249 138.5  23.8  33940  285.86 0855.48
2009/04/23 07:24:08.7     219   -103     47    243    248 115.3  11.1  33936  285.79 0855.48
2009/04/23 07:24:08.8      95    -23    132     98    164 103.7  59.8  33940  285.85 0855.48
2009/04/23 07:24:08.9      84     -1    160     85    181  91.3  69.8  33932  285.73 0855.48
2009/04/23 07:24:09.0      90     23    231     93    249  75.4  77.1  33944  285.93 0855.48
2009/04/23 07:24:09.1     126     70    202    145    248  60.7  60.8  33940  285.87 0855.48
2009/04/23 07:24:09.2     308     62    115    315    335  78.5  21.0  33942  285.89 0855.48
2009/04/23 07:24:09.3     286     52     89    291    305  79.6  17.1  33950  286.01 0855.48
2009/04/23 07:24:09.4     177    110    139    209    251  58.0  36.5  33958  286.16 0855.48
2009/04/23 07:24:09.5     138     10    136    139    194  85.7  49.8  33944  285.93 0855.48
2009/04/23 07:24:09.6     132     89    214    160    267  55.8  59.6  33952  286.06 0855.48
2009/04/23 07:24:09.7     222     85    292    238    376  68.9  56.6  33950  286.02 0855.48
2009/04/23 07:24:09.8     320    139    187    350    396  66.5  30.3  33952  286.04 0855.48
2009/04/23 07:24:09.9     293    150    137    330    357  62.8  23.8  33954  286.10 0855.48
2009/04/23 07:24:10.0     258    131    168    290    335  63.0  32.8  33960  286.18 0855.48
2009/04/23 07:24:10.1     232    122    197    263    328  62.2  40.7  33958  286.16 0855.48
2009/04/23 07:24:10.2     212    165    184    269    325  52.2  37.7  33952  286.04 0855.48
2009/04/23 07:24:10.3     153    153    178    217    280  45.1  43.7  33948  285.98 0855.48
2009/04/23 07:24:10.4     191    191    176    271    323  45.1  36.0  33954  286.08 0855.47
2009/04/23 07:24:10.5     315     76    144    325    355  76.3  25.3  33952  286.07 0855.47
2009/04/23 07:24:10.6     226    112    125    253    282  63.6  28.2  33952  286.06 0855.47
2009/04/23 07:24:10.7     233    147    178    276    328  57.6  35.9  33946  285.94 0855.47
2009/04/23 07:24:10.8     182    235    110    298    317  37.8  21.3  33948  285.98 0855.47
2009/04/23 07:24:10.9     205    172     92    268    284  50.0  18.9  33946  285.94 0855.47
2009/04/23 07:24:11.0     146    146    130    207    244  45.1  35.5  33950  286.01 0855.47
2009/04/23 07:24:11.1      56    141    153    152    215  21.9  50.1  33948  285.98 0855.47
2009/04/23 07:24:11.2     -11    152    137    153    205 355.6  46.4  33946  285.97 0855.47
2009/04/23 07:24:11.3     100    149     95    180    203  34.1  30.1  33948  285.98 0855.47
2009/04/23 07:24:11.4      94    139     97    169    194  34.1  32.7  33948  285.98 0855.47
2009/04/23 07:24:11.5      10    164     92    165    188   3.6  31.4  33950  286.03 0855.47
2009/04/23 07:24:11.6     118    130    105    176    204  42.3  33.5  33948  286.00 0855.47
2009/04/23 07:24:11.7     103    116     94    156    182  41.5  34.2  33946  285.97 0855.47
2009/04/23 07:24:11.8     132    103    101    168    196  52.2  33.7  33950  286.03 0855.47
2009/04/23 07:24:11.9     109    116     84    160    180  43.3  30.1  33948  285.98 0855.47
2009/04/23 07:24:12.0      88    106    110    138    176  39.6  43.0  33950  286.02 0855.47
2009/04/23 07:24:12.1      58     59     62     83    103  44.5  40.7  33948  285.98 0855.47
2009/04/23 07:24:12.2       5     89     79     90    119   3.6  45.8  33946  285.97 0855.47
2009/04/23 07:24:12.3      12    156     84    157    178   4.5  30.6  33946  285.97 0855.47
2009/04/23 07:24:12.4       7    156     78    157    175   2.7  28.2  33948  286.00 0855.45
2009/04/23 07:24:12.5       7    123     58    124    136   3.6  27.1  33950  286.03 0855.45
2009/04/23 07:24:12.6      18    115     57    117    130   8.9  27.3  33946  285.97 0855.45
2009/04/23 07:24:12.7      -7    127     40    128    135 356.9  17.4  33950  286.02 0855.45
2009/04/23 07:24:12.8     -19    124     65    126    141 351.1  29.3  33946  285.95 0855.45
2009/04/23 07:24:12.9     -20     99     60    102    118 348.4  33.5  33942  285.90 0855.45
2009/04/23 07:24:13.0     -16     72     57     74     93 347.5  42.2  33946  285.95 0855.45
2009/04/23 07:24:13.1     -21     29     32     36     48 323.9  47.9  33944  285.92 0855.45
2009/04/23 07:24:13.2      -6      0     12      7     13 274.4  68.8  33944  285.93 0855.45
2009/04/23 07:24:13.3       0     -7     39      8     39 182.7  90.0  33944  285.93 0855.45
2009/04/23 07:24:13.4      -1    -15     47     16     49 184.4  81.0  33946  285.95 0855.45
2009/04/23 07:24:13.5      22    -30     41     38     55 143.9  52.2  33948  285.98 0855.45
2009/04/23 07:24:13.6      16    -21     30     27     40 142.2  53.3  33944  285.93 0855.45
2009/04/23 07:24:13.7      19      8     24     21     31  66.5  54.3  33946  285.95 0855.45
2009/04/23 07:24:13.8       7     11     21     14     25  32.5  64.6  33946  285.97 0855.45
2009/04/23 07:24:13.9     -39     25     42     47     63 303.3  47.9  33938  285.82 0855.45
2009/04/23 07:24:14.0     -38     60     93     72    117 327.5  58.4  33928  285.65 0855.45
2009/04/23 07:24:14.1     -94     85     61    127    140 312.2  27.3  33936  285.78 0855.45
2009/04/23 07:24:14.2     -67     57      5     89     90 310.4   3.3  33938  285.82 0855.45
2009/04/23 07:24:14.3     -55     35      2     66     67 302.4   1.8  33938  285.82 0855.45
2009/04/23 07:24:14.4     -39     13    -18     42     45 289.1 -28.5  33938  285.83 0855.43
2009/04/23 07:24:14.5     -25     34    -24     43     49 323.9 -35.8  33936  285.80 0855.43
2009/04/23 07:24:14.6     -10     42    -37     44     57 346.6 -48.2  33936  285.80 0855.43
2009/04/23 07:24:14.7     -39     40    -53     56     77 315.8 -53.4  33942  285.88 0855.43
2009/04/23 07:24:14.8     -47     11    -46     49     67 283.3 -52.4  33942  285.90 0855.43
2009/04/23 07:24:14.9     -61    -15    -29     63     69 255.8 -31.5  33954  286.10 0855.43
2009/04/23 07:24:15.0    -103    -40      5    111    112 248.7   2.8  33954  286.08 0855.43
2009/04/23 07:24:15.1    -113    -31    -14    118    119 254.5  -7.2  33960  286.19 0855.43
2009/04/23 07:24:15.2     -89    -75    -27    117    121 230.0 -13.3  33958  286.15 0855.43
2009/04/23 07:24:15.3    -126    -68    -82    144    165 241.6 -36.8  33940  285.87 0855.43
2009/04/23 07:24:15.4     -67   -121     82    139    161 208.9  33.1  33948  285.98 0855.43
2009/04/23 07:24:15.5     -26    -78    119     83    145 198.7  62.1  33950  286.02 0855.43
2009/04/23 07:24:15.6      -4    -47     94     48    105 185.3  70.8  33948  286.00 0855.43
2009/04/23 07:24:15.7      28    -11    104     31    108 111.7  83.3  33942  285.90 0855.43
2009/04/23 07:24:15.8      71      1    115     72    135  89.1  64.7  33946  285.97 0855.43
2009/04/23 07:24:15.9     100     45    105    110    152  65.6  48.5  33942  285.90 0855.43
2009/04/23 07:24:16.0      97     62    110    116    159  57.6  48.7  33940  285.85 0855.43
2009/04/23 07:24:16.1      95    115     84    150    171  39.6  31.9  33944  285.92 0855.43
2009/04/23 07:24:16.2      81    104     77    132    152  37.9  33.4  33942  285.90 0855.43
2009/04/23 07:24:16.3      79    102     62    130    144  37.8  27.3  33940  285.87 0855.43
2009/04/23 07:24:16.4      19    142     -2    144    145   7.6  -1.2  33944  285.92 0855.44
2009/04/23 07:24:16.5      -1    137    -22    138    140 359.5  -9.3  33946  285.95 0855.44
2009/04/23 07:24:16.6     -19     94    -22     96     99 348.4 -12.9  33940  285.87 0855.44
2009/04/23 07:24:16.7     -42    156    -13    162    163 344.9  -4.6  33938  285.83 0855.44
2009/04/23 07:24:16.8     -49    184    -38    191    195 344.9 -11.3  33952  286.05 0855.44
2009/04/23 07:24:16.9    -124     84     29    150    153 304.1  11.1  33956  286.12 0855.44
2009/04/23 07:24:17.0    -108     -4     58    109    123 267.9  30.3  33956  286.14 0855.44
2009/04/23 07:24:17.1      11      0     39     12     40  90.0  82.8  33954  286.08 0855.44
2009/04/23 07:24:17.2      40     31     99     51    111  52.2  70.8  33948  286.00 0855.44
2009/04/23 07:24:17.3      20     63     93     67    114  17.8  60.6  33950  286.03 0855.44
2009/04/23 07:24:17.4      -3     35     46     36     58 353.8  56.4  33952  286.07 0855.44
2009/04/23 07:24:17.5     -29    125    -39    129    135 346.6 -17.0  33952  286.05 0855.44
2009/04/23 07:24:17.6      64    135    -53    150    160  25.3 -19.4  33956  286.12 0855.44
2009/04/23 07:24:17.7     137    103    -59    172    181  53.1 -23.6  33950  286.03 0855.44
2009/04/23 07:24:17.8      83     91    -76    124    145  42.3 -39.4  33954  286.10 0855.44
2009/04/23 07:24:17.9      39    119    -64    126    141  18.3 -33.6  33960  286.19 0855.44
2009/04/23 07:24:18.0      88     88     -5    125    126  45.0  -2.6  33964  286.27 0855.44
2009/04/23 07:24:18.1      75     59     68     96    117  51.4  39.5  33960  286.20 0855.44
2009/04/23 07:24:18.2      48     31    108     58    122  57.6  69.3  33958  286.17 0855.44
2009/04/23 07:24:18.3      41     37    104     56    118  47.8  69.3  33958  286.17 0855.44
2009/04/23 07:24:18.4      70     68     88     98    131  45.6  46.9  33956  286.14 0855.43
2009/04/23 07:24:18.5      54     70     86     89    123  37.4  49.4  33948  286.00 0855.43
2009/04/23 07:24:18.6      95    102     94    140    168  42.8  37.0  33942  285.88 0855.43
2009/04/23 07:24:18.7     121    100     60    158    169  50.5  21.7  33946  285.95 0855.43
2009/04/23 07:24:18.8      17    158     70    159    173   6.2  25.1  33944  285.93 0855.43
2009/04/23 07:24:18.9     -15    150     66    151    164 354.2  25.1  33944  285.92 0855.43
2009/04/23 07:24:19.0      92    104     81    139    160  41.5  32.9  33938  285.82 0855.43
2009/04/23 07:24:19.1      72    112     97    134    165  33.0  39.3  33940  285.87 0855.43
2009/04/23 07:24:19.2      91     86    134    126    183  46.4  52.0  33940  285.85 0855.43
2009/04/23 07:24:19.3     115    145    116    186    219  38.5  35.2  33938  285.83 0855.43
2009/04/23 07:24:19.4      54    103     57    117    130  27.6  27.3  33938  285.82 0855.43
2009/04/23 07:24:19.5       5     77     75     78    108   4.4  49.0  33934  285.75 0855.43
2009/04/23 07:24:19.6     118     80    143    143    202  55.8  50.1  33936  285.80 0855.43
2009/04/23 07:24:19.7     129    115    175    174    246  48.2  50.1  33942  285.88 0855.43
2009/04/23 07:24:19.8     177    147     99    231    251  50.2  24.6  33942  285.89 0855.43
2009/04/23 07:24:19.9     199     94     77    221    235  64.6  19.2  33946  285.95 0855.43
2009/04/23 07:24:20.0     122     77     99    145    175  57.6  37.8  33948  286.00 0855.43
2009/04/23 07:24:20.1       1    124     76    125    146   0.9  34.4  33944  285.92 0855.43
2009/04/23 07:24:20.2     -35    116     31    122    126 343.0  14.3  33944  285.92 0855.43
2009/04/23 07:24:20.3      18    100     41    102    109  10.7  23.0  33944  285.92 0855.43
2009/04/23 07:24:20.4      27    150     44    153    160  10.2  16.0  33946  285.95 0855.45
2009/04/23 07:24:20.5      30    197     39    200    204   8.7  11.1  33950  286.03 0855.45
2009/04/23 07:24:20.6      98    194     68    218    229  26.7  17.3  33952  286.07 0855.45
2009/04/23 07:24:20.7      91    166     62    190    200  28.9  18.1  33954  286.08 0855.45
2009/04/23 07:24:20.8      66    163    -15    176    177  22.1  -4.9  33956  286.12 0855.45
2009/04/23 07:24:20.9      94    172     11    197    198  28.7   3.3  33956  286.14 0855.45
2009/04/23 07:24:21.0      53    208     67    215    226  14.3  17.3  33954  286.10 0855.45
2009/04/23 07:24:21.1      13    161     57    162    171   4.9  20.0  33954  286.08 0855.45
2009/04/23 07:24:21.2     178    158     23    239    241  48.4   5.7  33954  286.09 0855.45
2009/04/23 07:24:21.3      48    193     90    199    218  14.0  25.9  33952  286.05 0855.45
2009/04/23 07:24:21.4     -47    175    115    182    215 344.9  35.5  33950  286.03 0855.45
2009/04/23 07:24:21.5    -102    226     90    249    264 335.7  20.4  33952  286.04 0855.45
2009/04/23 07:24:21.6     -87    231    120    247    274 339.3  27.8  33954  286.08 0855.45
2009/04/23 07:24:21.7      40    122    102    129    164  18.3  42.2  33952  286.07 0855.45
2009/04/23 07:24:21.8     105    166     32    197    200  32.5   9.3  33956  286.14 0855.45
2009/04/23 07:24:21.9      97    204    -49    226    232  25.5 -12.4  33954  286.08 0855.45
2009/04/23 07:24:22.0      89    161    -56    185    193  29.0 -22.1  33954  286.08 0855.45
2009/04/23 07:24:22.1     265     44     28    269    271  80.4   6.1  33954  286.09 0855.45
2009/04/23 07:24:22.2     284    147    -26    320    322  62.6  -4.8  33950  286.01 0855.45
2009/04/23 07:24:22.3     360    160   -107    394    409  66.0 -15.2  33952  286.05 0855.45
2009/04/23 07:24:22.4     399    150    -54    427    431  69.3  -7.2  33954  286.10 0855.46
2009/04/23 07:24:22.5     458    147      6    481    482  72.2   0.8  33952  286.04 0855.46
2009/04/23 07:24:22.6     400     35     42    402    405  84.9   6.0  33948  285.98 0855.46
2009/04/23 07:24:22.7     358     38    -59    361    366  83.9  -9.3  33952  286.04 0855.46
2009/04/23 07:24:22.8     365    -39     10    368    369  96.2   1.7  33952  286.04 0855.46
2009/04/23 07:24:22.9     574    144     86    592    599  75.9   8.3  33958  286.16 0855.46
2009/04/23 07:24:23.0     533     29     46    534    537  86.9   5.0  33952  286.07 0855.46
2009/04/23 07:24:23.1     461     20    -34    462    464  87.5  -4.2  33954  286.08 0855.46
2009/04/23 07:24:23.2     473     51     -1    476    477  83.8  -0.2  33956  286.14 0855.46
2009/04/23 07:24:23.3     513    131     26    530    531  75.6   2.9  33962  286.22 0855.46
2009/04/23 07:24:23.4     484    129     27    502    503  75.0   3.1  33962  286.24 0855.47
2009/04/23 07:24:23.5     465    115     45    479    482  76.1   5.4  33964  286.26 0855.47
2009/04/23 07:24:23.6     437    122     89    454    463  74.3  11.1  33958  286.15 0855.47
2009/04/23 07:24:23.7     421    157     87    450    459  69.5  11.0  33958  286.15 0855.47
2009/04/23 07:24:23.8     378    171      5    416    417  65.6   0.8  33956  286.11 0855.47
2009/04/23 07:24:23.9     354    189     12    402    403  61.9   1.7  33954  286.09 0855.47
2009/04/23 07:24:24.0     356    169     30    395    397  64.6   4.4  33952  286.07 0855.47
2009/04/23 07:24:24.1     439     88    -14    448    449  78.6  -1.8  33956  286.11 0855.47
2009/04/23 07:24:24.2     383    126    -28    404    405  71.8  -4.0  33954  286.10 0855.47
2009/04/23 07:24:24.3     244    165     -5    295    296  55.8  -1.2  33948  285.98 0855.47
2009/04/23 07:24:24.4     235    104    -56    258    265  66.0 -12.4  33952  286.06 0855.47
2009/04/23 07:24:24.5     298     60    -83    304    316  78.5 -15.4  33952  286.06 0855.47
2009/04/23 07:24:24.6     262     50    -51    267    272  79.0 -10.9  33952  286.06 0855.47
2009/04/23 07:24:24.7     268     66    -27    277    279  76.1  -5.6  33954  286.08 0855.47
2009/04/23 07:24:24.8     246     89     22    262    264  70.0   4.9  33950  286.03 0855.47
2009/04/23 07:24:24.9     306    107      5    325    326  70.6   1.0  33954  286.08 0855.47
2009/04/23 07:24:25.0     304    148     13    339    340  64.1   2.3  33952  286.07 0855.47
2009/04/23 07:24:25.1     308    170     51    352    356  61.1   8.3  33952  286.07 0855.47
2009/04/23 07:24:25.2     268    162     55    314    319  58.9  10.1  33952  286.06 0855.47
2009/04/23 07:24:25.3     241    145     14    282    283  58.9   2.9  33956  286.13 0855.47
2009/04/23 07:24:25.4     238    104     42    260    264  66.3   9.3  33952  286.06 0855.47
2009/04/23 07:24:25.5     183    109     64    214    224  59.3  16.6  33952  286.07 0855.47
2009/04/23 07:24:25.6     194    124     69    231    242  57.4  16.8  33952  286.06 0855.47
2009/04/23 07:24:25.7     274    102     49    293    298  69.4   9.5  33954  286.08 0855.47
2009/04/23 07:24:25.8     238    126     35    270    273  62.0   7.5  33952  286.06 0855.47
2009/04/23 07:24:25.9     240     95    -48    259    264  68.3 -10.5  33952  286.06 0855.47
2009/04/23 07:24:26.0     221     96    -87    242    257  66.4 -25.1  33954  286.08 0855.47
2009/04/23 07:24:26.1     227    122     12    258    259  61.6   2.8  33952  286.06 0855.47
2009/04/23 07:24:26.2     218    181     47    284    288  50.2   9.5  33952  286.04 0855.47
2009/04/23 07:24:26.3     313    168     83    356    366  61.7  13.2  33948  285.99 0855.47
2009/04/23 07:24:26.4     257    174    140    311    341  55.9  25.8  33942  285.90 0855.47
2009/04/23 07:24:26.5     277    285    182    398    437  44.2  26.2  33954  286.08 0855.47
2009/04/23 07:24:26.6     243    243    104    345    361  45.0  16.8  33950  286.02 0855.47
2009/04/23 07:24:26.7     221    126     16    255    256  60.2   3.6  33952  286.06 0855.47
2009/04/23 07:24:26.8     181    136    -42    227    231  53.1 -10.5  33946  285.97 0855.47
2009/04/23 07:24:26.9     117     55    -53    130    140  64.7 -27.5  33952  286.05 0855.47
2009/04/23 07:24:27.0     121     25    -43    124    131  78.1 -23.3  33954  286.08 0855.47
2009/04/23 07:24:27.1     166     53    -53    175    184  72.3 -17.0  33950  286.02 0855.47
2009/04/23 07:24:27.2     171     -1    -24    172    174  90.6  -8.2  33950  286.02 0855.47
2009/04/23 07:24:27.3     139     31    -41    143    148  77.2 -20.7  33950  286.03 0855.47
2009/04/23 07:24:27.4     185      3    -12    186    187  89.0  -3.9  33946  285.95 0855.47
2009/04/23 07:24:27.5     151     11     -8    152    153  85.6  -3.1  33952  286.05 0855.47
2009/04/23 07:24:27.6     140     -2      3    141    142  90.9   1.2  33950  286.03 0855.47
2009/04/23 07:24:27.7     174     13    -22    175    177  85.6  -7.3  33950  286.02 0855.47
2009/04/23 07:24:27.8     213    -33     -6    216    217  98.8  -1.8  33944  285.93 0855.47
2009/04/23 07:24:27.9     200    -61     32    210    213 106.9   8.8  33950  286.03 0855.47
2009/04/23 07:24:28.1     189    -66    -24    201    203 109.3  -6.9  33952  286.07 0855.47
2009/04/23 07:24:28.1     185   -101    -13    211    212 118.6  -3.7  33950  286.03 0855.47
2009/04/23 07:24:28.3     225    -20     43    226    231  95.2  10.8  33950  286.02 0855.47
2009/04/23 07:24:28.3     237    -11     53    238    244  92.8  12.6  33948  285.99 0855.47
2009/04/23 07:24:28.5     185     14     37    186    190  85.6  11.4  33948  286.00 0855.47
2009/04/23 07:24:28.6     138      1     67    139    154  89.2  27.3  33950  286.02 0855.47
2009/04/23 07:24:28.7     149    -27     83    152    173 100.6  31.0  33950  286.02 0855.47
2009/04/23 07:24:28.8     121   -132     30    180    183 137.5   9.5  33952  286.05 0855.47
2009/04/23 07:24:28.9     113    -23     97    116    151 101.5  43.8  33950  286.03 0855.47
2009/04/23 07:24:29.0     112    -45    107    121    161 112.2  46.4  33950  286.02 0855.47
2009/04/23 07:24:29.1     101    -40    111    109    155 111.7  50.1  33946  285.97 0855.47
2009/04/23 07:24:29.2     108    -46    111    118    162 113.1  48.2  33950  286.02 0855.47
2009/04/23 07:24:29.3     138     21    157    140    210  81.2  54.0  33946  285.97 0855.47
2009/04/23 07:24:29.4     191    -95    184    214    282 116.6  45.4  33946  285.94 0855.47
2009/04/23 07:24:29.5     185    -45    142    191    238 103.7  40.4  33936  285.80 0855.46
2009/04/23 07:24:29.6     248      0    260    249    360  90.0  51.3  33946  285.96 0855.46
2009/04/23 07:24:29.7     255    -35    145    258    295  98.0  31.6  33948  285.99 0855.46
2009/04/23 07:24:29.8     251    -18    113    252    276  94.1  25.7  33946  285.96 0855.46
2009/04/23 07:24:29.9     149     76     39    168    173  62.9  13.2  33938  285.82 0855.46
2009/04/23 07:24:30.0     188    258     -2    320    321  36.1  -0.4  33940  285.86 0855.46
2009/04/23 07:24:30.1     156    310    -16    348    349  26.7  -2.8  33950  286.02 0855.46
2009/04/23 07:24:30.2     136    317    -13    346    347  23.3  -2.2  33950  286.02 0855.46
2009/04/23 07:24:30.3     168    270    -12    318    319  31.9  -2.2  33952  286.06 0855.46
2009/04/23 07:24:30.4     133    258     25    291    293  27.4   5.0  33946  285.96 0855.46
2009/04/23 07:24:30.5      93    165     10    190    191  29.6   3.1  33950  286.02 0855.46
2009/04/23 07:24:30.6     211     21     52    213    220  84.1  13.9  33944  285.93 0855.46
2009/04/23 07:24:30.7     171     59    104    181    208  70.9  32.7  33946  285.97 0855.46
2009/04/23 07:24:30.8      72     24     44     76     87  71.4  32.9  33946  285.95 0855.46
2009/04/23 07:24:30.9      91     32     31     97    102  70.5  17.9  33948  285.98 0855.46
2009/04/23 07:24:31.0     138     46    -22    146    148  71.4  -8.8  33946  285.95 0855.46
2009/04/23 07:24:31.1     162     63    -50    174    182  68.7 -16.0  33948  285.98 0855.46
2009/04/23 07:24:31.2     177    152     12    234    235  49.3   3.1  33944  285.93 0855.46
2009/04/23 07:24:31.3     157    174     51    235    241  41.9  12.4  33948  285.98 0855.46
2009/04/23 07:24:31.4     203    133     22    243    245  56.7   5.2  33946  285.96 0855.46
2009/04/23 07:24:31.5     163    124    -63    206    215  52.7 -22.1  33946  285.97 0855.45
2009/04/23 07:24:31.6     194     91    -58    215    223  64.9 -15.2  33946  285.97 0855.45
2009/04/23 07:24:31.7     226    123    -52    258    264  61.4 -11.6  33948  285.98 0855.45
2009/04/23 07:24:31.8     287    153    -26    326    328  61.9  -4.6  33944  285.91 0855.45
2009/04/23 07:24:31.9     314    183    -13    364    365  59.7  -2.1  33948  285.99 0855.45
2009/04/23 07:24:32.0     361    169     14    399    400  64.9   2.1  33944  285.92 0855.45
2009/04/23 07:24:32.1     398    169     -8    433    434  67.0  -1.2  33946  285.95 0855.45
2009/04/23 07:24:32.2     238    104   -118    261    286  66.3 -30.6  33948  285.99 0855.45
2009/04/23 07:24:32.3     288    133     -8    318    319  65.2  -1.6  33946  285.96 0855.45
2009/04/23 07:24:32.4     235     40     42    239    243  80.3  10.0  33946  285.94 0855.45
2009/04/23 07:24:32.5     173     10     87    174    194  86.5  28.2  33944  285.93 0855.45
2009/04/23 07:24:32.6     207     58    183    215    282  74.3  44.9  33948  285.98 0855.45
2009/04/23 07:24:32.7     221    -38    106    225    248  99.9  27.1  33946  285.94 0855.45
2009/04/23 07:24:32.8     241      3     18    242    243  89.2   4.4  33946  285.96 0855.45
2009/04/23 07:24:32.9     222     17     65    223    233  85.4  16.4  33948  285.98 0855.45
2009/04/23 07:24:33.0     246     34     78    249    262  82.0  17.4  33946  285.94 0855.45
2009/04/23 07:24:33.1     211    -57     43    219    224 105.3  11.1  33948  286.00 0855.45
2009/04/23 07:24:33.2     260    -27    -28    262    264  96.1  -6.2  33944  285.93 0855.45
2009/04/23 07:24:33.3     315     55     53    320    325  80.0   9.5  33946  285.96 0855.45
2009/04/23 07:24:33.4     321    145    172    353    392  65.7  28.0  33944  285.92 0855.45
2009/04/23 07:24:33.5     276     23    -50    277    282  85.2 -10.3  33946  285.94 0855.46
2009/04/23 07:24:33.6     217     14    -40    218    222  86.3 -10.5  33946  285.97 0855.46
2009/04/23 07:24:33.7     134     51     40    144    150  69.2  15.8  33940  285.87 0855.46
2009/04/23 07:24:33.8     118     56     58    131    143  64.6  25.1  33946  285.97 0855.46
2009/04/23 07:24:33.9      83    -20    138     86    162 103.7  64.9  33950  286.02 0855.46
2009/04/23 07:24:34.0      75     36    164     84    184  64.2  70.8  33946  285.95 0855.46
2009/04/23 07:24:34.1      77      8    129     78    150  83.9  66.2  33946  285.95 0855.46
2009/04/23 07:24:34.2      88    -22     90     91    127 104.6  50.0  33944  285.93 0855.46
2009/04/23 07:24:34.3     119    -16     92    121    152  98.0  41.6  33946  285.95 0855.46
2009/04/23 07:24:34.4     121      5    101    122    158  87.4  44.1  33946  285.97 0855.46
2009/04/23 07:24:34.5     228     31     55    231    238  82.1  13.5  33946  285.96 0855.46
2009/04/23 07:24:34.6     196     62     82    206    221  72.5  23.0  33944  285.92 0855.46
2009/04/23 07:24:34.7     159     69     74    174    189  66.3  24.6  33944  285.93 0855.46
2009/04/23 07:24:34.8     161     12    124    162    204  85.7  41.4  33944  285.92 0855.46
2009/04/23 07:24:34.9     161    -13    101    162    190  94.8  35.2  33944  285.93 0855.46
2009/04/23 07:24:35.0     100     -9    133    101    167  95.7  58.7  33944  285.92 0855.46
2009/04/23 07:24:35.1      95      0    106     96    143  90.0  52.2  33944  285.92 0855.46
2009/04/23 07:24:35.2     128      9    153    129    200  85.7  55.6  33942  285.88 0855.46
2009/04/23 07:24:35.3     148    -48    105    156    188 108.2  37.0  33946  285.95 0855.46
2009/04/23 07:24:35.4     132      8     37    133    139  86.5  15.8  33942  285.90 0855.46
2009/04/23 07:24:35.5      90     18     24     92     96  78.6  14.7  33942  285.88 0855.45
2009/04/23 07:24:35.6     106     72     31    129    133  55.9  13.7  33946  285.97 0855.45
2009/04/23 07:24:35.7      83     34     30     90     95  67.4  18.4  33946  285.95 0855.45
2009/04/23 07:24:35.8     113     23     22    116    119  78.6  11.0  33946  285.95 0855.45
2009/04/23 07:24:35.9     139     42    -13    146    147  73.2  -5.1  33946  285.95 0855.45
2009/04/23 07:24:36.0     129    -51     36    139    144 111.7  14.7  33942  285.90 0855.45
2009/04/23 07:24:36.1      96   -114     99    150    179 139.9  36.5  33948  286.00 0855.45
2009/04/23 07:24:36.2      64    -64     80     91    121 134.9  45.8  33944  285.93 0855.45
2009/04/23 07:24:36.3      61      8     74     62     96  82.1  55.8  33944  285.92 0855.45
2009/04/23 07:24:36.4      89     49     11    102    103  61.2   6.5  33946  285.97 0855.45
2009/04/23 07:24:36.5      91     47     12    103    104  62.5   7.1  33944  285.93 0855.45
2009/04/23 07:24:36.6      89     57     10    106    107  57.1   5.4  33944  285.92 0855.45
2009/04/23 07:24:36.7     110     44     32    119    124  68.2  15.2  33944  285.93 0855.45
2009/04/23 07:24:36.8     125     67     26    143    146  61.6  10.6  33944  285.92 0855.45
2009/04/23 07:24:36.9      78     71     42    106    114  47.8  22.5  33946  285.95 0855.45
2009/04/23 07:24:37.0      87     72     39    114    121  50.5  19.2  33946  285.95 0855.45
2009/04/23 07:24:37.1      82     66     36    106    113  50.9  18.9  33946  285.97 0855.45
2009/04/23 07:24:37.2      75     46     48     89    101  58.5  30.8  33944  285.92 0855.45
2009/04/23 07:24:37.3     108     16     35    110    116  81.2  17.9  33948  285.98 0855.45
2009/04/23 07:24:37.4      57     58      5     82     83  44.5   3.8  33948  285.98 0855.45
2009/04/23 07:24:37.5      57     50     21     76     79  48.7  15.8  33946  285.97 0855.44
2009/04/23 07:24:37.6      53     53     27     76     80  45.0  20.0  33946  285.97 0855.44
2009/04/23 07:24:37.7      55     25     21     61     65  64.8  18.9  33946  285.97 0855.44
2009/04/23 07:24:37.8      62     45     15     77     79  54.0  11.1  33946  285.95 0855.44
2009/04/23 07:24:37.9      67     74      0    101    102  42.3  -0.3  33948  285.98 0855.44
2009/04/23 07:24:38.0     100    100     26    142    145  45.0  10.6  33944  285.93 0855.44
2009/04/23 07:24:38.1      52     88     12    103    104  30.7   7.1  33946  285.95 0855.44
2009/04/23 07:24:38.2      65     78     10    102    103  39.7   5.9  33944  285.93 0855.44
2009/04/23 07:24:38.3      55     81     18     99    101  34.3  10.6  33946  285.95 0855.44
2009/04/23 07:24:38.4      47     65     26     81     86  36.0  17.9  33946  285.95 0855.44
2009/04/23 07:24:38.5      54     24     81     60    100  65.6  60.0  33946  285.97 0855.44
2009/04/23 07:24:38.6      39     32     86     51     99  50.5  66.8  33950  286.02 0855.44
2009/04/23 07:24:38.7      53     23     73     58     93  66.5  56.9  33948  286.00 0855.44
2009/04/23 07:24:38.8      37     36     76     52     92  45.9  62.6  33950  286.02 0855.44
2009/04/23 07:24:38.9      45     31     71     55     89  54.9  57.9  33950  286.02 0855.44
2009/04/23 07:24:39.0      57     25     75     63     97  66.5  55.8  33946  285.97 0855.44
2009/04/23 07:24:39.1      44     14     57     47     73  71.6  56.3  33948  286.00 0855.44
2009/04/23 07:24:39.2      50     32     87     60    105  57.6  62.6  33944  285.93 0855.44
2009/04/23 07:24:39.3      17     31     64     36     73  29.0  68.8  33948  285.98 0855.44
2009/04/23 07:24:39.4     -10     30     53     32     61 341.7  65.7  33944  285.92 0855.44
2009/04/23 07:24:39.5      15     45     61     48     77  18.7  56.4  33944  285.92 0855.45
2009/04/23 07:24:39.6     -19     54     77     58     96 340.8  59.4  33944  285.93 0855.45
2009/04/23 07:24:39.7       0     45     82     46     94   0.9  67.7  33942  285.90 0855.45
2009/04/23 07:24:39.8      12     21     73     25     77  29.0  81.2  33946  285.95 0855.45
2009/04/23 07:24:39.9       7     10     72     13     73  36.1  90.0  33944  285.92 0855.45
2009/04/23 07:24:40.0      18      9     39     21     44  62.9  68.8  33944  285.92 0855.45
2009/04/23 07:24:40.1      34     73     48     81     94  25.3  34.0  33944  285.92 0855.45
2009/04/23 07:24:40.2      58     66     41     89     97  41.4  26.6  33942  285.90 0855.45
2009/04/23 07:24:40.3      42     55     61     70     92  37.8  45.8  33944  285.93 0855.45
2009/04/23 07:24:40.4      68      0     66     69     95  90.0  49.0  33944  285.93 0855.45
2009/04/23 07:24:40.5      76     24     80     80    113  71.8  50.1  33948  285.98 0855.45
2009/04/23 07:24:40.6     102     56     54    117    128  61.1  26.6  33946  285.97 0855.45
2009/04/23 07:24:40.7      86     52     23    101    104  58.5  13.2  33946  285.95 0855.45
2009/04/23 07:24:40.8      64     30     42     71     82  64.6  33.5  33946  285.95 0855.45
2009/04/23 07:24:40.9      64     30     82     71    108  64.6  54.8  33946  285.95 0855.45
2009/04/23 07:24:41.0      54     97     45    112    120  29.0  23.0  33944  285.93 0855.45
2009/04/23 07:24:41.1      51    106     30    118    122  25.9  14.3  33946  285.95 0855.45
2009/04/23 07:24:41.2      55     71     53     90    104  37.8  33.5  33944  285.93 0855.45
2009/04/23 07:24:41.3      12     73     46     75     87   9.8  35.0  33946  285.95 0855.45
2009/04/23 07:24:41.4      -5     92     42     93    102 356.9  25.7  33946  285.95 0855.45
2009/04/23 07:24:41.5     -17     73     49     76     90 346.6  35.6  33944  285.92 0855.45
2009/04/23 07:24:41.6     -10     71     57     72     91 352.0  42.7  33944  285.92 0855.45
2009/04/23 07:24:41.7     -17     54     47     57     73 342.2  43.8  33946  285.95 0855.45
2009/04/23 07:24:41.8     -10     49     49     51     70 348.4  49.0  33946  285.97 0855.45
2009/04/23 07:24:41.9     -21     25     47     33     57 320.4  61.5  33944  285.93 0855.45
2009/04/23 07:24:42.0     -22      0     45     23     50 270.8  70.8  33944  285.92 0855.45
2009/04/23 07:24:42.1     -24     -4     35     25     43 260.3  60.5  33946  285.97 0855.45
2009/04/23 07:24:42.2     -29    -15     33     33     46 242.9  50.1  33946  285.95 0855.45
2009/04/23 07:24:42.3      -5      6     55      8     55 320.4  90.0  33946  285.95 0855.45
2009/04/23 07:24:42.4      23     19     44     31     53  50.5  61.5  33946  285.97 0855.45
2009/04/23 07:24:42.5      39     32     46     51     68  50.5  47.9  33950  286.02 0855.45
2009/04/23 07:24:42.6      40     32     33     52     61  51.4  35.5  33948  286.00 0855.45
2009/04/23 07:24:42.7      35     34     26     49     55  45.9  30.3  33948  285.98 0855.45
2009/04/23 07:24:42.8       5     51     13     52     54   6.2  14.3  33946  285.97 0855.45
2009/04/23 07:24:42.9      14     43     16     46     49  18.3  19.4  33948  286.00 0855.45
2009/04/23 07:24:43.0      25     45     22     52     56  29.9  24.1  33948  285.98 0855.45
2009/04/23 07:24:43.1      18     45     25     49     55  21.8  29.3  33946  285.97 0855.45
2009/04/23 07:24:43.2      12     36     32     38     49  18.5  43.8  33946  285.97 0855.45
2009/04/23 07:24:43.3      -2     85     22     86     89 358.2  14.7  33944  285.92 0855.45
2009/04/23 07:24:43.4     -10     72      3     73     74 352.0   2.8  33944  285.92 0855.45
2009/04/23 07:24:43.5     -15     47     17     50     54 342.2  19.2  33942  285.90 0855.45
2009/04/23 07:24:43.6     -35     69     16     78     80 332.8  11.6  33944  285.92 0855.45
2009/04/23 07:24:43.7     -23     67     29     72     77 340.8  23.0  33944  285.93 0855.45
2009/04/23 07:24:43.8      -6     61     39     62     73 353.8  35.5  33948  285.98 0855.45
2009/04/23 07:24:43.9       2     68     37     69     78   1.8  30.3  33948  286.00 0855.45
2009/04/23 07:24:44.0      -8     47     37     48     60 350.2  41.7  33946  285.95 0855.45
2009/04/23 07:24:44.1      -2     43     30     44     53 356.4  37.6  33946  285.97 0855.45
2009/04/23 07:24:44.2      14     41     21     44     48  19.2  26.2  33946  285.97 0855.45
2009/04/23 07:24:44.3      18     48     -2     52     53  20.9  -2.2  33946  285.97 0855.45
2009/04/23 07:24:44.4       4     52     -6     53     54   4.4  -7.3  33946  285.97 0855.45
2009/04/23 07:24:44.5      13     39      4     42     43  18.5   5.9  33946  285.95 0855.45
2009/04/23 07:24:44.6      -3     31      0     32     33 353.8   0.8  33948  286.00 0855.45
2009/04/23 07:24:44.7       2     26     -5     27     28   4.5 -11.3  33946  285.97 0855.45
2009/04/23 07:24:44.8       5     17      0     18     19  18.7  -2.2  33948  285.98 0855.45
2009/04/23 07:24:44.9       0     10      0     11     12   4.5  -1.3  33946  285.95 0855.45
2009/04/23 07:24:45.0       2     -4     -3      5      5 147.5 -39.9  33946  285.97 0855.45
2009/04/23 07:24:45.1      30     -9     23     32     39 106.8  39.7  33946  285.97 0855.45
2009/04/23 07:24:45.2      18    -16     36     25     43 131.3  61.5  33944  285.93 0855.45
2009/04/23 07:24:45.3      40    -19     51     45     68 115.3  52.2  33942  285.90 0855.45
2009/04/23 07:24:45.4      28    -15     46     32     56 118.9  62.6  33946  285.95 0855.45
2009/04/23 07:24:45.5      47    -11     39     49     62 103.3  43.7  33948  285.98 0855.45
2009/04/23 07:24:45.6      59    -29     41     66     77 116.2  35.5  33952  286.05 0855.45
2009/04/23 07:24:45.7      68    -32     35     76     83 115.4  26.2  33950  286.03 0855.45
2009/04/23 07:24:45.8      67    -14     32     69     76 102.4  27.1  33948  286.00 0855.45
2009/04/23 07:24:45.9      36    -37     29     52     59 135.8  31.4  33950  286.02 0855.45
2009/04/23 07:24:46.0       6    -70     42     71     82 174.7  33.5  33948  286.00 0855.45
2009/04/23 07:24:46.1      48    -58     66     76    100 140.4  45.8  33948  285.98 0855.45
2009/04/23 07:24:46.2      26    -91     69     95    117 164.0  39.7  33950  286.02 0855.45
2009/04/23 07:24:46.3     -10   -102     49    103    114 185.8  27.3  33950  286.02 0855.45
2009/04/23 07:24:46.4       4    -70     45     71     84 176.4  35.5  33950  286.03 0855.45
2009/04/23 07:24:46.5      63    -52     55     82     98 129.5  37.0  33952  286.07 0855.44
2009/04/23 07:24:46.6      73    -77     90    107    139 136.7  43.8  33954  286.10 0855.44
2009/04/23 07:24:46.7      76    -73     80    106    132 134.0  41.6  33956  286.14 0855.44
2009/04/23 07:24:46.8      74    -74     68    105    125 135.0  35.6  33956  286.12 0855.44
2009/04/23 07:24:46.9      64    -70     68     96    117 137.7  39.5  33958  286.15 0855.44
2009/04/23 07:24:47.0      57    -74     74     94    119 142.2  42.2  33956  286.14 0855.44
2009/04/23 07:24:47.1      50   -100     83    113    140 153.3  39.7  33956  286.14 0855.44
2009/04/23 07:24:47.2      43    -92     89    102    135 155.1  45.8  33954  286.08 0855.44
2009/04/23 07:24:47.3      23    -58     82     63    103 158.1  58.5  33954  286.10 0855.44
2009/04/23 07:24:47.4      26    -16     60     31     67 122.4  70.8  33954  286.10 0855.44
2009/04/23 07:24:47.5     -15      9     50     18     53 302.5  81.2  33954  286.10 0855.44
2009/04/23 07:24:47.6      -1    -39     80     40     89 182.7  71.9  33952  286.07 0855.44
2009/04/23 07:24:47.7     -17    -73    104     76    128 193.4  60.5  33950  286.02 0855.44
2009/04/23 07:24:47.8     -12    -77    102     78    128 188.9  58.5  33946  285.95 0855.44
2009/04/23 07:24:47.9     -26    -56     66     62     90 205.4  51.6  33944  285.93 0855.44
2009/04/23 07:24:48.0       0    -46     66     47     81 180.9  61.1  33942  285.88 0855.44
2009/04/23 07:24:48.1       1    -35     55     36     65 177.3  64.6  33942  285.90 0855.44
2009/04/23 07:24:48.2      14    -26     41     30     50 151.0  60.5  33942  285.90 0855.44
2009/04/23 07:24:48.3      14     -3      0     15     16 105.1   2.9  33942  285.90 0855.44
2009/04/23 07:24:48.4      19    -14    -17     24     29 126.0 -42.0  33942  285.90 0855.44
2009/04/23 07:24:48.5      19    -19    -19     27     33 134.9 -44.1  33942  285.90 0855.45
2009/04/23 07:24:48.6      24      8     -8     26     28  71.4 -17.6  33940  285.85 0855.45
2009/04/23 07:24:48.7      16      0      4     17     18  90.0  15.3  33940  285.87 0855.45
2009/04/23 07:24:48.8      26    -22      5     35     36 129.6   9.0  33940  285.85 0855.45
2009/04/23 07:24:48.9       8      5      2     10     11  57.6  15.3  33938  285.83 0855.45
2009/04/23 07:24:49.0       8     15     -5     18     19  29.0 -15.5  33940  285.87 0855.45
2009/04/23 07:24:49.1      -3     14      0     15     16 344.9   2.9  33940  285.85 0855.45
2009/04/23 07:24:49.2      -2     37     17     38     41 355.5  25.1  33938  285.82 0855.45
2009/04/23 07:24:49.3     -41     42     21     59     62 315.8  20.0  33934  285.76 0855.45
2009/04/23 07:24:49.4     -41     55     32     69     76 323.0  27.1  33926  285.63 0855.45
2009/04/23 07:24:49.5     -38     46     24     60     64 320.4  23.0  33926  285.63 0855.45
2009/04/23 07:24:49.6     -33     54     28     64     69 328.4  26.2  33926  285.63 0855.45
2009/04/23 07:24:49.7     -53     56     36     78     85 316.8  26.6  33928  285.65 0855.45
2009/04/23 07:24:49.8     -48     45      9     67     68 313.1   8.0  33930  285.68 0855.45
2009/04/23 07:24:49.9     -50     41      8     66     67 309.5   6.9  33928  285.66 0855.45
2009/04/23 07:24:50.0     -49     38      8     63     64 307.8   8.0  33926  285.63 0855.45
2009/04/23 07:24:50.1     -75     28    -10     81     82 290.4  -7.3  33930  285.68 0855.45
2009/04/23 07:24:50.2     -42      3    -22     43     48 274.4 -33.7  33928  285.66 0855.45
2009/04/23 07:24:50.3     -57     15    -24     60     64 285.1 -27.4  33930  285.68 0855.45
2009/04/23 07:24:50.4     -40     14    -32     43     53 290.0 -45.1  33930  285.68 0855.45
2009/04/23 07:24:50.5     -45     15    -44     48     65 288.4 -52.3  33932  285.71 0855.44
2009/04/23 07:24:50.6     -40      7    -59     41     71 280.6 -65.9  33932  285.73 0855.44
2009/04/23 07:24:50.7     -10      2    -72     11     72 285.1 -90.0  33930  285.70 0855.44
2009/04/23 07:24:50.8      53    -17    -36     56     66 108.2 -40.0  33928  285.66 0855.44
2009/04/23 07:24:50.9      64    -27    -26     70     74 113.5 -24.4  33928  285.66 0855.44
2009/04/23 07:24:51.0      47    -15    -21     50     54 108.2 -27.4  33930  285.70 0855.44
2009/04/23 07:24:51.1      32     -7    -22     33     39 103.3 -40.9  33934  285.76 0855.44
2009/04/23 07:24:51.2      51    -22     -7     56     57 113.5  -7.2  33940  285.87 0855.44
2009/04/23 07:24:51.3      60    -18     -2     63     64 106.8  -2.2  33944  285.93 0855.44
2009/04/23 07:24:51.4      68     -5     -8     69     70  94.4  -7.3  33946  285.95 0855.44
2009/04/23 07:24:51.5      89     -2     22     90     93  91.7  14.3  33940  285.87 0855.44
2009/04/23 07:24:51.6      70     -5     38     71     80  94.4  30.3  33940  285.85 0855.44
2009/04/23 07:24:51.7      36     38     28     53     59  43.2  30.3  33936  285.80 0855.44
2009/04/23 07:24:51.8       0     40      5     41     42 359.1   6.9  33940  285.85 0855.44
2009/04/23 07:24:51.9     -49     50    -13     71     73 315.9 -10.3  33942  285.88 0855.44
2009/04/23 07:24:52.0     -59     70    -37     92     99 319.9 -27.4  33946  285.95 0855.44
2009/04/23 07:24:52.1      -4     59     -7     60     61 355.5  -7.3  33942  285.88 0855.44
2009/04/23 07:24:52.2       0     29      5     30     31 359.1  11.1  33946  285.97 0855.44
2009/04/23 07:24:52.3      10    -10     11     15     18 135.0  39.7  33946  285.95 0855.44
2009/04/23 07:24:52.4      16    -35    -10     39     41 155.5 -14.5  33944  285.92 0855.44
2009/04/23 07:24:52.5      61    -27    -30     67     73 114.4 -30.6  33946  285.97 0855.45
2009/04/23 07:24:52.6      87    -48    -18    100    102 118.9 -10.3  33950  286.02 0855.45
2009/04/23 07:24:52.7      67    -62     -3     92     93 133.1  -2.2  33954  286.08 0855.45
2009/04/23 07:24:52.8      64    -67     18     94     96 136.3  11.1  33952  286.05 0855.45
2009/04/23 07:24:52.9      52    -81      1     97     98 147.5   0.8  33948  285.98 0855.45
2009/04/23 07:24:53.0      41    -99     -8    108    109 157.3  -4.6  33946  285.97 0855.45
2009/04/23 07:24:53.1      96   -107     28    145    148 138.1  11.0  33946  285.95 0855.45
2009/04/23 07:24:53.2     132   -171     27    217    219 142.4   7.1  33944  285.92 0855.45
2009/04/23 07:24:53.3      46   -141    -47    149    156 161.7 -22.5  33944  285.93 0855.45
2009/04/23 07:24:53.4       3    -85    -12     86     87 177.8  -8.2  33950  286.02 0855.45
2009/04/23 07:24:53.5     -14    -89    -20     91     94 189.3 -12.9  33952  286.07 0855.45
2009/04/23 07:24:53.6      14    -73    -44     75     86 168.5 -37.9  33956  286.12 0855.45
2009/04/23 07:24:53.7      10    -66    -42     67     79 171.1 -39.4  33954  286.10 0855.45
2009/04/23 07:24:53.8      17    -77    -63     79    101 167.5 -47.7  33950  286.02 0855.45
2009/04/23 07:24:53.9      39    -78    -82     88    120 153.3 -52.3  33950  286.02 0855.45
2009/04/23 07:24:54.0       4    -42    -79     43     89 173.8 -73.7  33946  285.97 0855.45
2009/04/23 07:24:54.1      47    -15    -36     50     61 108.6 -44.1  33950  286.02 0855.45
2009/04/23 07:24:54.2      21    -40    -54     46     70 152.8 -60.7  33942  285.90 0855.45
2009/04/23 07:24:54.3       7    -32    -31     33     45 166.6 -53.4  33940  285.87 0855.45
2009/04/23 07:24:54.4      25    -40    -43     48     64 148.4 -52.3  33940  285.85 0855.45
2009/04/23 07:24:54.5      57   -117    -19    131    133 154.1  -8.2  33944  285.93 0855.45
2009/04/23 07:24:54.7      96    -97    -37    137    143 135.1 -15.4  33944  285.92 0855.45
2009/04/23 07:24:54.8     101   -101     -7    144    145 135.0  -3.1  33950  286.02 0855.45
2009/04/23 07:24:54.9     105   -108      7    151    152 135.9   2.9  33948  285.98 0855.45
2009/04/23 07:24:55.0      97   -101     25    141    144 136.3  10.1  33950  286.03 0855.45
2009/04/23 07:24:55.1     102   -123     55    160    170 140.4  18.9  33950  286.03 0855.45
2009/04/23 07:24:55.2      80   -125     15    149    150 147.5   5.9  33948  285.98 0855.45
2009/04/23 07:24:55.3      95   -142     20    171    173 146.2   6.9  33948  286.00 0855.45
2009/04/23 07:24:55.4      59   -178     20    188    190 161.5   6.1  33946  285.97 0855.45
2009/04/23 07:24:55.5      67   -164      5    178    179 157.7   1.8  33942  285.90 0855.45
2009/04/23 07:24:55.6     100   -227     30    249    251 156.2   6.9  33948  285.98 0855.45
2009/04/23 07:24:55.7      55   -171    -34    180    184 162.2 -10.9  33948  286.00 0855.45
2009/04/23 07:24:55.8      13   -125    -40    126    133 173.7 -17.6  33948  285.98 0855.45
2009/04/23 07:24:55.9       0   -116    -45    117    125 180.0 -26.4  33948  286.00 0855.45
2009/04/23 07:24:56.0       0   -113    -62    114    129 180.5 -35.7  33948  285.98 0855.45
2009/04/23 07:24:56.1     -10   -147    -56    148    158 184.0 -26.1  33948  286.00 0855.45
2009/04/23 07:24:56.2     -11   -156    -48    157    164 184.4 -22.1  33950  286.02 0855.45
2009/04/23 07:24:56.3     -13   -137    -48    138    146 185.8 -23.3  33944  285.92 0855.45
2009/04/23 07:24:56.4     -25   -140    -18    143    145 190.2  -7.3  33948  286.00 0855.45
2009/04/23 07:24:56.5     -36   -109      0    115    116 198.3   0.2  33950  286.03 0855.45
2009/04/23 07:24:56.6      -2   -115      5    116    117 181.0   2.9  33950  286.02 0855.45
2009/04/23 07:24:56.7       1   -138     -6    139    140 179.5  -2.6  33950  286.02 0855.45
2009/04/23 07:24:56.8      -8   -132     -6    133    134 183.6  -2.6  33948  286.00 0855.45
2009/04/23 07:24:56.9     -18   -125     -7    127    128 188.5  -3.2  33950  286.02 0855.45
2009/04/23 07:24:57.0      21   -125     -4    127    128 170.3  -2.2  33948  286.00 0855.45
2009/04/23 07:24:57.1      33   -109    -14    114    115 163.1  -7.2  33946  285.95 0855.45
2009/04/23 07:24:57.2      42   -117     -9    125    126 160.0  -4.1  33948  285.98 0855.45
2009/04/23 07:24:57.3      44   -126     43    134    141 160.4  17.9  33948  286.00 0855.45
2009/04/23 07:24:57.4      56   -146     50    157    165 159.1  17.9  33956  286.12 0855.45
2009/04/23 07:24:57.5      80   -144     40    165    170 151.0  13.9  33956  286.14 0855.45
2009/04/23 07:24:57.6      60   -163     45    174    180 159.7  14.7  33956  286.14 0855.45
2009/04/23 07:24:57.7      17   -164     71    165    179 174.0  24.9  33952  286.07 0855.45
2009/04/23 07:24:57.8      20   -164     68    166    179 172.9  23.4  33954  286.08 0855.45
2009/04/23 07:24:57.9      10   -147     50    148    157 176.0  18.9  33954  286.10 0855.45
2009/04/23 07:24:58.0      38   -132     90    138    164 164.0  36.0  33958  286.15 0855.45
2009/04/23 07:24:58.1      40   -159     87    165    186 165.7  30.1  33958  286.17 0855.45
2009/04/23 07:24:58.2      41   -176     99    181    206 166.6  31.0  33958  286.17 0855.45
2009/04/23 07:24:58.3      15   -174    104    175    203 174.9  33.5  33956  286.12 0855.45
2009/04/23 07:24:58.4      13   -168    115    169    204 175.3  37.6  33956  286.14 0855.45
2009/04/23 07:24:58.5      14   -160    115    161    197 174.9  39.3  33956  286.14 0855.45
2009/04/23 07:24:58.6      10   -168     98    169    195 176.4  32.9  33956  286.14 0855.46
2009/04/23 07:24:58.7      15   -183    103    184    210 175.1  31.6  33958  286.15 0855.46
2009/04/23 07:24:58.8      13   -180     72    181    194 175.8  22.8  33954  286.10 0855.46
2009/04/23 07:24:58.9       3   -173     92    174    196 178.9  30.1  33956  286.14 0855.46
2009/04/23 07:24:59.0      -8   -184     93    185    207 182.5  28.5  33958  286.15 0855.46
2009/04/23 07:24:59.1     -21   -200     59    202    211 186.2  16.3  33958  286.15 0855.46
2009/04/23 07:24:59.2     -61   -204     38    214    218 196.7  10.1  33956  286.14 0855.46
2009/04/23 07:24:59.3     -38   -189      1    194    195 191.6   0.5  33956  286.14 0855.46
2009/04/23 07:24:59.4      -1   -190     29    191    194 180.5   8.8  33956  286.14 0855.46
2009/04/23 07:24:59.5      45   -191     19    197    198 166.6   5.7  33956  286.12 0855.46
2009/04/23 07:24:59.6      42   -160     21    166    168 165.1   7.5  33956  286.14 0855.46
2009/04/23 07:24:59.7      39   -142     56    148    158 164.4  21.7  33956  286.12 0855.46
2009/04/23 07:24:59.8       0   -149     59    150    161 180.0  22.5  33958  286.17 0855.46
2009/04/23 07:24:59.9     -25   -159     18    162    164 189.1   6.5  33956  286.14 0855.46
2009/04/23 07:25:00.0     -41   -167     17    173    174 194.0   5.9  33956  286.14 0855.46
2009/04/23 07:25:00.1     -44   -168     35    174    178 194.9  11.6  33958  286.15 0855.46
2009/04/23 07:25:00.2     -31   -175     29    178    181 190.2   9.3  33958  286.15 0855.46
2009/04/23 07:25:00.3     -63   -178     35    190    194 199.6  10.6  33956  286.14 0855.46
2009/04/23 07:25:00.4     -68   -168     35    182    186 202.1  11.1  33954  286.10 0855.46
2009/04/23 07:25:00.5     -80   -206     39    222    226 201.2  10.1  33954  286.10 0855.46
2009/04/23 07:25:00.6     -84   -211     38    228    232 201.8   9.5  33956  286.12 0855.46
2009/04/23 07:25:00.7     -75   -222     21    235    236 198.7   5.2  33954  286.09 0855.46
2009/04/23 07:25:00.8     -47   -233     -1    238    239 191.5  -0.3  33956  286.11 0855.46
2009/04/23 07:25:00.9     -75   -246     -1    258    259 196.9  -0.3  33954  286.08 0855.46
2009/04/23 07:25:01.0     -87   -185     17    205    206 205.4   5.0  33952  286.05 0855.46
2009/04/23 07:25:01.1    -123   -172     27    212    214 215.6   7.5  33950  286.02 0855.46
2009/04/23 07:25:01.2    -113   -203     24    233    235 209.0   5.9  33948  285.99 0855.46
2009/04/23 07:25:01.3    -107   -259      4    281    282 202.5   1.0  33952  286.04 0855.46
2009/04/23 07:25:01.4    -105   -222    -66    246    255 205.5 -15.0  33952  286.04 0855.46
2009/04/23 07:25:01.5     -85   -244    -20    259    260 199.2  -4.6  33950  286.01 0855.46
2009/04/23 07:25:01.6    -201   -206     -9    289    290 224.3  -1.8  33946  285.96 0855.46
2009/04/23 07:25:01.7    -233    -98    -59    253    260 247.2 -13.2  33952  286.04 0855.46
2009/04/23 07:25:01.8    -227   -135    -15    265    266 239.3  -3.3  33950  286.03 0855.46
2009/04/23 07:25:01.9    -311   -246    -52    397    401 231.6  -7.6  33942  285.90 0855.46
2009/04/23 07:25:02.0    -353   -239   -115    427    443 235.9 -15.1  33948  286.00 0855.46
2009/04/23 07:25:02.1    -285   -157    -22    326    327 241.2  -3.9  33946  285.96 0855.46
2009/04/23 07:25:02.2    -148   -304    -49    339    343 206.0  -8.4  33946  285.95 0855.46
2009/04/23 07:25:02.3    -219   -144      3    263    264 236.7   0.8  33948  285.99 0855.46
2009/04/23 07:25:02.4    -162   -202     -1    260    261 218.7  -0.3  33948  285.98 0855.46
2009/04/23 07:25:02.5    -132   -164    -20    211    213 218.7  -5.6  33942  285.90 0855.46
2009/04/23 07:25:02.6     -48   -162     31    170    173 196.5  10.6  33950  286.02 0855.47
2009/04/23 07:25:02.7    -214   -147    -47    260    265 235.4 -10.3  33946  285.96 0855.47
2009/04/23 07:25:02.8    -237   -141     54    276    282 239.3  11.1  33948  285.98 0855.47
2009/04/23 07:25:02.9    -198   -185     51    272    277 226.9  10.8  33954  286.09 0855.47
2009/04/23 07:25:03.0    -336   -114     -4    355    356 251.2  -0.7  33942  285.89 0855.47
2009/04/23 07:25:03.1    -265    -91   -102    281    298 251.0 -25.3  33944  285.93 0855.47
2009/04/23 07:25:03.2    -229   -241     -5    333    334 223.5  -0.9  33948  286.00 0855.47
2009/04/23 07:25:03.3    -229   -227    -41    323    326 225.3  -7.3  33950  286.03 0855.47
2009/04/23 07:25:03.4    -201   -200    -56    284    290 225.2 -11.3  33948  285.98 0855.47
2009/04/23 07:25:03.5    -204   -170    -34    266    269 230.2  -7.3  33946  285.96 0855.47
2009/04/23 07:25:03.6     -91    -97     46    134    142 223.2  18.9  33948  286.00 0855.47
2009/04/23 07:25:03.7     -22     22     71     32     77 315.0  74.0  33938  285.82 0855.47
2009/04/23 07:25:03.8     -75    -24     50     79     93 251.8  35.5  33946  285.95 0855.47
2009/04/23 07:25:03.9     -90      0      7     91     92 270.0   4.9  33946  285.95 0855.47
2009/04/23 07:25:04.0     -13   -111      6    112    113 187.1   3.3  33944  285.92 0855.47
2009/04/23 07:25:04.1     -46   -215     -1    221    222 192.3  -0.3  33944  285.93 0855.47
2009/04/23 07:25:04.2    -149    -80    -74    170    185 241.6 -29.3  33946  285.97 0855.47
2009/04/23 07:25:04.3    -149   -159    -80    219    233 223.2 -25.1  33944  285.93 0855.47
2009/04/23 07:25:04.4    -189   -139    -36    235    238 233.6  -8.8  33944  285.91 0855.47
2009/04/23 07:25:04.5    -286   -130    -96    315    329 245.6 -22.1  33948  285.99 0855.47
2009/04/23 07:25:04.6    -168    -97   -132    195    235 240.0 -42.0  33942  285.90 0855.47
2009/04/23 07:25:04.7    -124   -201   -132    237    271 211.6 -35.8  33948  285.98 0855.47
2009/04/23 07:25:04.8    -143   -130    -92    194    214 227.8 -31.6  33948  285.98 0855.47
2009/04/23 07:25:04.9     -89    -61    -75    109    132 235.4 -42.0  33946  285.97 0855.47
2009/04/23 07:25:05.0     -66   -130    -18    146    148 207.1  -7.3  33948  285.98 0855.47
2009/04/23 07:25:05.1     -53   -151    -43    161    167 199.6 -15.2  33948  285.98 0855.47
2009/04/23 07:25:05.2     -48   -133    -94    142    170 200.0 -40.9  33944  285.92 0855.47
2009/04/23 07:25:05.3     -36   -172    -63    176    186 192.0 -24.8  33946  285.95 0855.47
2009/04/23 07:25:05.4     -37   -176    -57    180    188 192.0 -22.8  33946  285.97 0855.47
2009/04/23 07:25:05.5     -78   -123   -137    147    200 212.5 -52.3  33948  285.98 0855.47
2009/04/23 07:25:05.6    -199    -79   -103    215    238 248.3 -31.8  33946  285.97 0855.46
2009/04/23 07:25:05.7    -219   -120    -81    250    262 241.2 -23.0  33946  285.94 0855.46
2009/04/23 07:25:05.8    -230   -156    -92    279    293 235.8 -23.8  33942  285.89 0855.46
2009/04/23 07:25:05.9    -171    -17    -46    172    179 264.3 -15.2  33944  285.93 0855.46
2009/04/23 07:25:06.0    -102    -81    -65    131    146 231.4 -32.2  33944  285.93 0855.46
2009/04/23 07:25:06.1     -56   -123   -122    136    182 204.5 -51.3  33942  285.90 0855.46
2009/04/23 07:25:06.2     -88   -108    -98    140    170 219.2 -43.0  33942  285.90 0855.46
2009/04/23 07:25:06.3     -32    -87    -49     93    105 200.5 -34.7  33944  285.93 0855.46
2009/04/23 07:25:06.4     -27    -84    -80     89    119 197.8 -51.3  33944  285.93 0855.46
2009/04/23 07:25:06.5       0    -57   -102     58    117 180.9 -72.7  33950  286.02 0855.46
2009/04/23 07:25:06.6      16    -38    -97     42    105 156.4 -79.9  33948  285.98 0855.46
2009/04/23 07:25:06.7      -6    -21   -142     23    143 196.9 -90.0  33944  285.93 0855.46
2009/04/23 07:25:06.8     -73    -34   -128     81    151 244.6 -69.1  33946  285.95 0855.46
2009/04/23 07:25:06.9    -102    -90   -126    137    186 228.7 -51.9  33944  285.93 0855.46
2009/04/23 07:25:07.0    -100    -94   -130    138    189 226.9 -52.6  33944  285.93 0855.46
2009/04/23 07:25:07.1    -121   -106   -185    162    245 228.7 -58.7  33950  286.02 0855.46
2009/04/23 07:25:07.2     -19   -178   -172    180    248 186.2 -53.4  33948  285.98 0855.46
2009/04/23 07:25:07.3     -99   -200   -138    224    263 206.5 -39.2  33940  285.86 0855.46
2009/04/23 07:25:07.4    -120   -156   -228    198    301 217.6 -58.7  33944  285.93 0855.46
2009/04/23 07:25:07.5    -128   -231   -219    265    343 209.0 -48.2  33952  286.04 0855.46
2009/04/23 07:25:07.6     -54   -246   -179    253    309 192.5 -43.0  33950  286.03 0855.45
2009/04/23 07:25:07.7     -85   -267    -84    281    294 197.8 -16.8  33938  285.81 0855.45
2009/04/23 07:25:07.8    -191   -277    -83    337    348 214.6 -13.9  33946  285.97 0855.45
2009/04/23 07:25:07.9    -237   -291   -131    376    399 219.1 -19.3  33940  285.85 0855.45
2009/04/23 07:25:08.0    -270   -269   -138    382    406 225.1 -25.1  33944  285.92 0855.45
2009/04/23 07:25:08.1    -182   -369   -123    412    429 206.3 -21.6  33944  285.93 0855.45
2009/04/23 07:25:08.2    -247   -373   -138    448    469 213.5 -17.2  33940  285.86 0855.45
2009/04/23 07:25:08.3    -224   -311   -178    384    423 215.8 -31.3  33946  285.95 0855.45
2009/04/23 07:25:08.4    -206   -310   -159    373    405 213.7 -29.0  33946  285.95 0855.45
2009/04/23 07:25:08.5    -399   -211   -171    452    483 242.1 -26.1  33946  285.94 0855.45
2009/04/23 07:25:08.6    -311   -129   -152    337    369 247.4 -30.3  33946  285.94 0855.45
2009/04/23 07:25:08.7    -329   -156   -136    365    389 244.6 -25.7  33944  285.92 0855.45
2009/04/23 07:25:08.8    -280   -248   -104    375    390 228.5 -15.5  33948  285.99 0855.45
2009/04/23 07:25:08.9    -283   -316   -155    425    452 221.8 -25.4  33942  285.88 0855.45
2009/04/23 07:25:09.0    -263   -307   -129    405    426 220.5 -17.7  33944  285.93 0855.45
2009/04/23 07:25:09.1    -251   -119   -229    278    360 244.6 -48.1  33952  286.07 0855.45
2009/04/23 07:25:09.2    -122   -194   -177    230    290 212.1 -46.0  33950  286.01 0855.45
2009/04/23 07:25:09.3    -131   -205   -156    244    289 212.5 -40.0  33942  285.89 0855.45
2009/04/23 07:25:09.4    -163   -240   -147    291    326 214.3 -33.3  33942  285.89 0855.45
2009/04/23 07:25:09.5    -158   -185   -166    244    295 220.5 -42.0  33940  285.86 0855.45
2009/04/23 07:25:09.6    -229   -228   -178    324    369 225.2 -35.8  33948  286.00 0855.43
2009/04/23 07:25:09.7    -222   -340   -134    407    428 213.2 -23.7  33946  285.96 0855.43
2009/04/23 07:25:09.8    -159   -243   -119    291    314 213.2 -28.0  33944  285.91 0855.43
2009/04/23 07:25:09.9    -148   -188   -162    240    289 218.1 -41.8  33948  285.99 0855.43
2009/04/23 07:25:10.0    -170   -255   -121    307    329 213.8 -27.1  33940  285.86 0855.43
2009/04/23 07:25:10.1    -283   -281   -126    400    419 225.2 -22.6  33946  285.95 0855.43
2009/04/23 07:25:10.2    -289   -264   -173    392    428 227.6 -29.7  33940  285.86 0855.43
2009/04/23 07:25:10.3    -277   -364   -163    458    487 217.3 -19.6  33940  285.84 0855.43
2009/04/23 07:25:10.4    -314   -284   -219    424    477 227.9 -33.8  33948  285.98 0855.43
2009/04/23 07:25:10.5    -320   -298   -179    438    473 227.1 -27.9  33944  285.91 0855.43
2009/04/23 07:25:10.6    -243   -201   -189    316    368 230.4 -38.0  33946  285.97 0855.43
2009/04/23 07:25:10.7    -231   -216   -226    317    389 226.9 -43.4  33952  286.07 0855.43
2009/04/23 07:25:10.8    -254   -223   -236    339    413 228.7 -42.8  33952  286.05 0855.43
2009/04/23 07:25:10.9    -233   -191   -231    302    380 230.7 -45.6  33948  286.00 0855.43
2009/04/23 07:25:11.0    -171   -187   -264    254    366 222.4 -55.6  33954  286.10 0855.43
2009/04/23 07:25:11.1    -182   -196   -242    268    361 222.8 -51.2  33952  286.07 0855.43
2009/04/23 07:25:11.2    -136   -308   -157    337    371 203.8 -31.4  33950  286.02 0855.43
2009/04/23 07:25:11.3     -92   -210   -156    230    277 203.8 -42.0  33944  285.91 0855.43
2009/04/23 07:25:11.4    -112   -100   -164    151    222 228.2 -56.6  33944  285.93 0855.43
2009/04/23 07:25:11.5    -156   -166   -197    229    302 223.2 -49.8  33950  286.03 0855.43
2009/04/23 07:25:11.6    -151   -118   -187    192    268 232.0 -53.6  33946  285.96 0855.43
2009/04/23 07:25:11.7    -168   -161   -113    234    259 226.2 -31.8  33948  285.98 0855.43
2009/04/23 07:25:11.8    -197   -200    -68    282    291 224.5 -13.7  33946  285.94 0855.43
2009/04/23 07:25:11.9    -228   -250    -91    339    352 222.3 -15.1  33946  285.95 0855.43
2009/04/23 07:25:12.0    -234   -170   -102    290    307 234.0 -24.4  33942  285.89 0855.43
2009/04/23 07:25:12.1    -237   -150    -94    281    296 237.6 -23.6  33942  285.89 0855.43
2009/04/23 07:25:12.2    -120   -180    -67    217    227 213.8 -22.1  33948  285.98 0855.43
2009/04/23 07:25:12.3    -103   -161   -117    192    224 212.6 -38.8  33944  285.93 0855.43
2009/04/23 07:25:12.4    -121   -121   -110    172    204 225.0 -40.0  33944  285.92 0855.43
2009/04/23 07:25:12.5     -83   -100   -107    131    169 219.6 -48.1  33946  285.97 0855.43
2009/04/23 07:25:12.6    -127    -56   -126    140    188 246.0 -51.3  33946  285.95 0855.43
2009/04/23 07:25:12.7     -55    -51    -94     76    120 226.9 -60.8  33946  285.95 0855.43
2009/04/23 07:25:12.8     -68    -82    -80    107    133 219.6 -44.5  33942  285.90 0855.43
2009/04/23 07:25:12.9     -79   -102    -94    130    160 217.9 -44.1  33944  285.93 0855.43
2009/04/23 07:25:13.0    -216    -94   -121    236    265 246.3 -33.6  33944  285.93 0855.43
2009/04/23 07:25:13.1    -151   -148   -103    212    235 225.6 -32.2  33948  285.98 0855.43
2009/04/23 07:25:13.2    -128   -104   -159    165    229 230.9 -53.6  33948  285.98 0855.43
2009/04/23 07:25:13.3    -224   -153   -121    272    297 235.6 -29.6  33942  285.89 0855.43
2009/04/23 07:25:13.4    -250    -87   -125    265    293 250.7 -31.5  33940  285.86 0855.43
2009/04/23 07:25:13.5    -268    -54   -103    274    292 258.5 -25.9  33940  285.86 0855.43
2009/04/23 07:25:13.6    -196    -46    -68    202    214 256.7 -18.7  33944  285.93 0855.42
2009/04/23 07:25:13.7    -199    -66   -108    210    236 251.6 -33.7  33944  285.93 0855.42
2009/04/23 07:25:13.8    -144    -48    -89    152    176 251.4 -37.3  33948  286.00 0855.42
2009/04/23 07:25:13.9    -184    -50   -102    191    216 254.7 -34.7  33946  285.97 0855.42
2009/04/23 07:25:14.0    -117    -94   -111    151    187 231.4 -44.3  33944  285.93 0855.42
2009/04/23 07:25:14.1    -140    -88   -119    166    204 237.6 -43.5  33948  285.98 0855.42
2009/04/23 07:25:14.2    -147    -87   -114    172    206 239.3 -41.1  33946  285.97 0855.42
2009/04/23 07:25:14.3    -110    -22   -125    113    168 258.5 -57.7  33948  286.00 0855.42
2009/04/23 07:25:14.4     -83    -28   -114     88    144 251.4 -62.9  33946  285.95 0855.42
2009/04/23 07:25:14.5     -50    -53   -101     74    125 223.2 -64.9  33948  285.98 0855.42
2009/04/23 07:25:14.6     -41    -72    -87     84    120 209.9 -55.6  33946  285.95 0855.42
2009/04/23 07:25:14.7      22   -110    -64    113    129 168.4 -36.3  33948  286.00 0855.42
2009/04/23 07:25:14.8      -2   -159    -61    160    171 180.9 -26.1  33946  285.97 0855.42
2009/04/23 07:25:14.9     -62   -118    -82    134    157 207.6 -38.8  33948  286.00 0855.42
2009/04/23 07:25:15.0     -67   -148    -98    163    190 204.5 -38.4  33946  285.97 0855.42
2009/04/23 07:25:15.1     -60   -138    -78    151    169 203.7 -33.7  33944  285.93 0855.42
2009/04/23 07:25:15.2    -193    -63    -88    204    222 251.8 -29.3  33944  285.92 0855.42
2009/04/23 07:25:15.3    -159    -39   -109    164    196 256.1 -41.1  33946  285.95 0855.42
2009/04/23 07:25:15.4    -158    -93   -120    184    219 239.6 -40.4  33946  285.95 0855.42
2009/04/23 07:25:15.5     -63    -25    -99     68    120 248.2 -67.0  33946  285.95 0855.42
2009/04/23 07:25:15.6     -76    -36    -60     85    104 244.7 -43.0  33944  285.93 0855.40
2009/04/23 07:25:15.7     -56    -31    -59     65     87 241.2 -51.9  33944  285.93 0855.40
2009/04/23 07:25:15.8       0    -61      5     62     63 180.0   4.9  33946  285.95 0855.40
2009/04/23 07:25:15.9      -5    -70     22     71     75 184.4  17.3  33946  285.95 0855.40
2009/04/23 07:25:16.0       2   -186     50    187    194 179.3  15.0  33948  285.98 0855.40
2009/04/23 07:25:16.1     -42   -201     10    206    207 192.0   2.9  33948  285.98 0855.40
2009/04/23 07:25:16.2    -100   -190    -32    215    218 207.9  -8.6  33948  285.98 0855.40
2009/04/23 07:25:16.3     -84   -193     10    211    212 203.7   2.8  33948  286.00 0855.40
2009/04/23 07:25:16.4    -114   -240     56    266    273 205.5  12.0  33950  286.01 0855.40
2009/04/23 07:25:16.5    -118   -197     33    230    233 211.0   8.2  33946  285.95 0855.40
2009/04/23 07:25:16.6    -129   -178     55    220    227 216.0  14.2  33950  286.02 0855.40
2009/04/23 07:25:16.7    -128   -158     43    204    209 219.2  12.0  33952  286.05 0855.40
2009/04/23 07:25:16.8    -126   -114     -1    171    172 227.8  -0.5  33950  286.03 0855.40
2009/04/23 07:25:16.9     -92    -79     -2    122    123 229.6  -1.3  33952  286.05 0855.40
2009/04/23 07:25:17.0    -124    -90     90    154    178 234.0  32.9  33948  285.98 0855.40
2009/04/23 07:25:17.1    -121   -120     78    171    187 225.3  26.4  33948  286.00 0855.40
2009/04/23 07:25:17.2     -14   -167    -31    168    171 184.9 -10.5  33948  285.98 0855.40
2009/04/23 07:25:17.3     -31   -191      5    194    195 189.3   1.6  33950  286.03 0855.40
2009/04/23 07:25:17.4     -48   -148     65    156    169 198.3  23.8  33946  285.95 0855.40
2009/04/23 07:25:17.5      -1   -159     12    160    161 180.5   4.6  33948  285.98 0855.40
2009/04/23 07:25:17.6      31   -183     27    186    189 170.2   8.5  33950  286.03 0855.39
2009/04/23 07:25:17.7      15   -146     23    147    149 173.8   9.0  33950  286.03 0855.39
2009/04/23 07:25:17.8     -17   -115     -4    117    118 188.5  -2.2  33948  285.98 0855.39
2009/04/23 07:25:17.9     -34   -129     38    134    140 195.1  15.8  33950  286.02 0855.39
2009/04/23 07:25:18.0     -19   -135     68    137    152 188.1  27.8  33948  285.98 0855.39
2009/04/23 07:25:18.1     -29   -122     70    126    144 193.4  31.4  33950  286.02 0855.39
2009/04/23 07:25:18.2     -30    -99     85    104    134 196.9  43.7  33950  286.02 0855.39
2009/04/23 07:25:18.3     -38    -92     96    100    138 202.7  49.0  33952  286.05 0855.39
2009/04/23 07:25:18.4     -14    -94    114     96    149 188.9  56.3  33948  286.00 0855.39
2009/04/23 07:25:18.5     -29   -123     82    127    151 193.3  35.6  33950  286.03 0855.39
2009/04/23 07:25:18.6     -32   -141     82    145    166 192.9  32.1  33948  286.00 0855.39
2009/04/23 07:25:18.7     -41   -124    115    131    174 198.7  45.8  33950  286.03 0855.39
2009/04/23 07:25:18.8    -108   -137    141    175    224 218.3  43.5  33948  286.00 0855.39
2009/04/23 07:25:18.9    -187   -133    159    230    279 234.5  37.8  33948  285.98 0855.39
2009/04/23 07:25:19.0     -97   -142    154    173    231 214.3  46.2  33948  286.00 0855.39
2009/04/23 07:25:19.1    -177    -81    -16    195    196 245.4  -4.9  33940  285.85 0855.39
2009/04/23 07:25:19.2    -257    -99    -53    276    282 248.9 -10.9  33942  285.88 0855.39
2009/04/23 07:25:19.3    -275   -186    -91    333    346 235.9 -15.4  33944  285.92 0855.39
2009/04/23 07:25:19.4    -231   -167    -97    286    303 234.0 -18.7  33942  285.89 0855.39
2009/04/23 07:25:19.5    -158   -104   -116    190    222 236.5 -39.2  33940  285.85 0855.39
2009/04/23 07:25:19.6    -166    -87    -98    188    212 242.2 -34.2  33944  285.93 0855.39
2009/04/23 07:25:19.7    -137   -176    -67    224    233 217.9 -21.7  33944  285.92 0855.39
2009/04/23 07:25:19.8    -143   -230    -74    271    282 211.9 -15.4  33944  285.91 0855.39
2009/04/23 07:25:19.9    -194   -182    -63    267    275 226.8 -13.4  33940  285.84 0855.39
2009/04/23 07:25:20.0    -161   -139    -62    213    222 229.1 -16.4  33942  285.90 0855.39
2009/04/23 07:25:20.1    -128    -43    -39    136    141 251.4 -20.2  33936  285.80 0855.39
2009/04/23 07:25:20.2    -198     31    -90    201    220 279.0 -30.1  33940  285.85 0855.39
2009/04/23 07:25:20.4    -124     -8    -93    125    155 266.1 -44.5  33940  285.87 0855.39
2009/04/23 07:25:20.4     -86    -31    -99     92    135 250.0 -56.6  33944  285.92 0855.39
2009/04/23 07:25:20.5    -124    -59   -107    138    174 244.6 -46.1  33948  285.98 0855.39
2009/04/23 07:25:20.6    -154    -53    -74    164    179 250.9 -30.6  33946  285.95 0855.39
2009/04/23 07:25:20.7    -103    -75    -43    128    136 234.0 -18.7  33946  285.97 0855.39
2009/04/23 07:25:20.8     -85    -91    -55    125    136 223.2 -29.6  33940  285.87 0855.39
2009/04/23 07:25:20.9     -88   -125    -46    153    161 215.2 -17.0  33938  285.83 0855.39
2009/04/23 07:25:21.1    -144   -155     -2    212    213 222.8  -0.7  33938  285.82 0855.39
2009/04/23 07:25:21.2    -147   -197     25    247    249 216.7   5.9  33936  285.77 0855.39
2009/04/23 07:25:21.3    -124   -183      0    222    223 214.2   0.0  33934  285.75 0855.39
2009/04/23 07:25:21.4    -123   -139     -8    186    187 221.4  -2.6  33932  285.71 0855.39
2009/04/23 07:25:21.5    -122   -101    -25    159    162 230.5  -9.0  33936  285.80 0855.39
2009/04/23 07:25:21.6     -65   -110    -55    129    140 210.7 -29.0  33936  285.78 0855.39
2009/04/23 07:25:21.7     -20    -82    -52     85     99 194.3 -38.8  33938  285.82 0855.38
2009/04/23 07:25:21.8      27    -39    -73     48     87 145.7 -68.5  33940  285.85 0855.38
2009/04/23 07:25:21.9      30    -10    -64     32     71 110.0 -77.2  33942  285.90 0855.38
2009/04/23 07:25:22.0      -2      2    -74      4     74 315.0 -90.0  33942  285.88 0855.38
2009/04/23 07:25:22.1       7      0    -59      8     59  94.4 -90.0  33940  285.87 0855.38
2009/04/23 07:25:22.2      40     16    -64     44     77  68.3 -67.0  33940  285.87 0855.38
2009/04/23 07:25:22.3      57     57    -65     81    103  45.0 -47.7  33944  285.92 0855.38
2009/04/23 07:25:22.4     -28     31    -67     43     79 317.7 -68.5  33942  285.90 0855.38
2009/04/23 07:25:22.5     -24     41    -56     48     73 329.3 -59.8  33940  285.87 0855.38
2009/04/23 07:25:22.6     -62     39    -48     74     88 302.4 -40.4  33944  285.93 0855.38
2009/04/23 07:25:22.7     -69     10    -35     70     78 278.8 -31.7  33940  285.87 0855.38
2009/04/23 07:25:22.8    -112      8    -33    113    117 274.4 -21.7  33940  285.87 0855.38
2009/04/23 07:25:22.9    -135     -4    -83    136    159 268.3 -38.6  33940  285.87 0855.38
2009/04/23 07:25:23.0    -146      0    -50    147    155 270.0 -23.3  33938  285.83 0855.38
2009/04/23 07:25:23.1    -127    -78    -48    150    158 238.5 -17.9  33936  285.78 0855.38
2009/04/23 07:25:23.2    -142    -38    -29    148    151 254.9 -11.3  33934  285.76 0855.38
2009/04/23 07:25:23.3    -193    -48    -25    200    202 255.8  -7.3  33932  285.71 0855.38
2009/04/23 07:25:23.4     -76    -51     48     92    103 235.8  30.3  33940  285.85 0855.38
2009/04/23 07:25:23.5     -58    -74     65     95    115 218.3  37.6  33942  285.90 0855.38
2009/04/23 07:25:23.6     -39    -51      3     65     66 217.0   2.9  33938  285.83 0855.38
2009/04/23 07:25:23.7     -74    -24    -15     78     80 251.8 -11.3  33938  285.82 0855.39
2009/04/23 07:25:23.8     -78    -58     11     98     99 233.6   6.5  33936  285.78 0855.39
2009/04/23 07:25:23.9     -54    -57     55     79     96 223.2  38.0  33936  285.80 0855.39
2009/04/23 07:25:24.0     -26   -129     45    132    140 191.6  18.9  33940  285.85 0855.39
2009/04/23 07:25:24.1      32   -120     -4    125    126 164.9  -2.2  33940  285.87 0855.39
2009/04/23 07:25:24.2      -3   -101      5    102    103 182.2   2.9  33940  285.87 0855.39
2009/04/23 07:25:24.3     -19    -52    -20     56     59 200.0 -24.4  33942  285.88 0855.39
2009/04/23 07:25:24.4     -42    -96     41    105    112 203.6  22.5  33942  285.88 0855.39
2009/04/23 07:25:24.5     -40   -122     68    129    145 198.3  30.3  33942  285.90 0855.39
2009/04/23 07:25:24.6     -28   -122     57    126    138 192.9  25.7  33946  285.95 0855.39
2009/04/23 07:25:24.7     -35    -34     33     50     59 225.9  36.5  33942  285.90 0855.39
2009/04/23 07:25:24.8      13    -13     52     19     55 133.3  81.2  33944  285.93 0855.39
2009/04/23 07:25:24.9      10    -54     49     55     73 169.3  47.9  33944  285.93 0855.39
2009/04/23 07:25:25.0       1    -75     48     76     89 179.1  35.5  33946  285.97 0855.39
2009/04/23 07:25:25.1       5    -73     59     74     94 175.5  42.7  33942  285.90 0855.39
2009/04/23 07:25:25.2     -30    -80     63     86    106 200.5  39.7  33944  285.92 0855.39
2009/04/23 07:25:25.3     -40    -77     41     88     97 207.6  26.6  33944  285.92 0855.39
2009/04/23 07:25:25.4     -18   -111     11    113    114 189.3   5.9  33944  285.92 0855.39
2009/04/23 07:25:25.5      37   -128     15    134    135 164.0   6.5  33940  285.87 0855.39
2009/04/23 07:25:25.6      89   -143     69    169    182 147.9  23.1  33944  285.92 0855.39
2009/04/23 07:25:25.7      86   -116     68    145    160 143.5  27.0  33942  285.90 0855.40
2009/04/23 07:25:25.8      57   -155     82    166    185 159.7  28.0  33942  285.90 0855.40
2009/04/23 07:25:25.9      33   -115     86    120    147 164.0  39.5  33940  285.85 0855.40
2009/04/23 07:25:26.0      15   -113    110    114    158 172.4  49.2  33942  285.88 0855.40
2009/04/23 07:25:26.1      37    -59    104     70    125 147.5  62.7  33942  285.90 0855.40
2009/04/23 07:25:26.2       3    -81     87     82    119 177.3  51.6  33942  285.88 0855.40
2009/04/23 07:25:26.3       6    -40    103     41    110 171.1  77.1  33942  285.88 0855.40
2009/04/23 07:25:26.4      23    -15     62     28     68 122.4  74.0  33940  285.85 0855.40
2009/04/23 07:25:26.5      25    -30     86     40     94 140.3  73.1  33944  285.93 0855.40
2009/04/23 07:25:26.6     -65   -114     30    132    136 209.9  13.1  33946  285.95 0855.40
2009/04/23 07:25:26.7     -87   -105     46    137    145 219.6  18.9  33944  285.92 0855.41
2009/04/23 07:25:26.8     -38    -95     55    103    116 201.9  30.8  33944  285.92 0855.41
2009/04/23 07:25:26.9     -13   -103     74    104    127 187.6  39.5  33944  285.92 0855.41
2009/04/23 07:25:27.0     -75   -103     49    128    137 216.0  21.5  33944  285.92 0855.41
2009/04/23 07:25:27.1     -71    -95     38    119    126 217.0  17.9  33946  285.97 0855.41
2009/04/23 07:25:27.2       0   -136    112    137    176 180.0  43.7  33944  285.93 0855.41
2009/04/23 07:25:27.3    -119   -130     74    177    191 222.5  23.8  33946  285.95 0855.41
2009/04/23 07:25:27.4    -143   -144     55    203    211 224.8  15.2  33948  285.98 0855.41
2009/04/23 07:25:27.5     -64   -147     79    161    179 203.6  28.0  33944  285.92 0855.41
2009/04/23 07:25:27.6     -37   -141    118    146    187 194.7  43.5  33944  285.93 0855.41
2009/04/23 07:25:27.7       3   -226    118    227    255 179.1  29.5  33946  285.96 0855.41
2009/04/23 07:25:27.8     -30   -218     88    221    237 188.0  23.0  33952  286.07 0855.41
2009/04/23 07:25:27.9     -70   -212     17    224    225 198.5   4.6  33942  285.88 0855.41
2009/04/23 07:25:28.0    -125   -196     24    233    235 212.6   5.9  33940  285.84 0855.41
2009/04/23 07:25:28.2     -22   -149     77    151    169 188.5  29.1  33946  285.95 0855.41
2009/04/23 07:25:28.3      -2   -131     61    132    145 180.9  26.6  33948  286.00 0855.41
2009/04/23 07:25:28.4      -4   -131     42    132    139 181.8  17.9  33946  285.95 0855.41
2009/04/23 07:25:28.5     -35    -91     12     98     99 201.4   7.5  33942  285.88 0855.41
2009/04/23 07:25:28.6     -44   -131     79    139    159 198.7  32.1  33944  285.93 0855.41
2009/04/23 07:25:28.7     -43   -167     35    173    177 194.5  11.6  33942  285.88 0855.42
2009/04/23 07:25:28.8    -103   -136     32    171    175 217.2  10.8  33942  285.88 0855.42
2009/04/23 07:25:28.9    -135   -104     31    171    174 232.5  10.3  33942  285.88 0855.42
2009/04/23 07:25:29.0    -159   -105      9    191    192 236.5   2.9  33936  285.78 0855.42
2009/04/23 07:25:29.1    -116   -172      7    208    209 214.2   2.1  33946  285.95 0855.42
2009/04/23 07:25:29.2     -92   -215      2    234    235 203.2   0.7  33950  286.03 0855.42
2009/04/23 07:25:29.3    -100   -215     25    238    240 204.9   6.1  33948  285.98 0855.42
2009/04/23 07:25:29.4    -111   -206     14    235    236 208.3   3.6  33946  285.96 0855.42
2009/04/23 07:25:29.5    -129   -152    -10    200    201 220.5  -3.1  33944  285.93 0855.42
2009/04/23 07:25:29.6     -97   -152     28    181    184 212.7   9.0  33948  285.98 0855.42
2009/04/23 07:25:29.7    -111   -157     14    193    194 215.2   4.4  33946  285.95 0855.42
2009/04/23 07:25:29.8    -118   -143      6    186    187 219.7   2.1  33946  285.95 0855.42
2009/04/23 07:25:29.9    -128   -111     16    170    171 228.9   5.7  33940  285.87 0855.42
2009/04/23 07:25:30.0    -113   -149      9    188    189 217.2   2.9  33946  285.95 0855.42
2009/04/23 07:25:30.1    -103   -148     21    181    183 214.7   6.7  33944  285.93 0855.42
2009/04/23 07:25:30.2    -117   -179     -8    214    215 213.2  -2.2  33948  285.98 0855.42
2009/04/23 07:25:30.3     -71   -171     39    186    191 202.7  12.0  33946  285.97 0855.42
2009/04/23 07:25:30.4     -87   -192    -11    211    212 204.5  -3.1  33942  285.90 0855.42
2009/04/23 07:25:30.5    -137   -145    -18    200    201 223.4  -5.4  33942  285.90 0855.42
2009/04/23 07:25:30.6    -147   -150    -28    211    213 224.3  -7.7  33946  285.95 0855.42
2009/04/23 07:25:30.7    -114   -127      5    171    172 221.9   1.8  33946  285.95 0855.43
2009/04/23 07:25:30.8     -69   -110     80    130    152 212.1  35.5  33944  285.93 0855.43
2009/04/23 07:25:30.9     -59   -179     68    189    200 198.5  20.4  33944  285.93 0855.43
2009/04/23 07:25:31.0     -36   -180    102    184    210 191.5  31.4  33946  285.97 0855.43
2009/04/23 07:25:31.1     -13   -179     80    180    196 184.2  25.3  33946  285.97 0855.43
2009/04/23 07:25:31.2      -5   -122     91    123    153 182.7  39.7  33948  285.98 0855.43
2009/04/23 07:25:31.3       8   -246     99    247    266 178.0  23.0  33946  285.94 0855.43
2009/04/23 07:25:31.5       5   -276     81    277    289 178.9  16.3  33948  285.99 0855.43
2009/04/23 07:25:31.6      12   -267     83    268    281 177.3  17.3  33946  285.94 0855.43
2009/04/23 07:25:31.7       8   -244     90    245    261 178.0  20.9  33944  285.91 0855.43
2009/04/23 07:25:31.8       4   -237     87    238    253 178.9  20.7  33942  285.89 0855.43
2009/04/23 07:25:31.9     -24   -187    110    189    218 187.6  32.9  33944  285.92 0855.43
2009/04/23 07:25:32.0     -21   -208    100    210    232 185.8  27.3  33944  285.92 0855.43
2009/04/23 07:25:32.1      -3   -204    102    205    228 181.0  28.2  33944  285.92 0855.43
2009/04/23 07:25:32.2      16   -209    114    210    238 175.5  30.8  33940  285.87 0855.43
2009/04/23 07:25:32.3      15   -198    109    199    226 175.5  31.3  33944  285.92 0855.43
2009/04/23 07:25:32.4       4   -175    149    176    230 178.4  44.3  33942  285.90 0855.43
2009/04/23 07:25:32.5     -26   -173    127    176    217 188.7  39.5  33944  285.93 0855.43
2009/04/23 07:25:32.6       9   -140    150    141    205 176.0  52.1  33946  285.97 0855.43
2009/04/23 07:25:32.7       6   -149    128    150    197 177.4  45.1  33944  285.93 0855.44
2009/04/23 07:25:32.8      77   -128    101    150    180 148.8  37.3  33946  285.97 0855.44
2009/04/23 07:25:32.9      89   -136    101    163    191 146.6  35.5  33944  285.93 0855.44
2009/04/23 07:25:33.0      97   -139     83    170    189 145.0  27.4  33946  285.97 0855.44
2009/04/23 07:25:33.1      81   -181    104    199    224 155.7  29.8  33946  285.95 0855.44
2009/04/23 07:25:33.2      44    -69    140     82    162 147.5  66.8  33944  285.92 0855.44
2009/04/23 07:25:33.3     100    -75    120    125    173 126.9  49.2  33946  285.97 0855.44
2009/04/23 07:25:33.4      26   -158     86    161    182 170.7  30.6  33942  285.90 0855.44
2009/04/23 07:25:33.5     -20   -131     47    133    141 188.9  20.4  33948  285.98 0855.44
2009/04/23 07:25:33.6     -39   -136     77    142    161 196.0  30.8  33948  286.00 0855.44
2009/04/23 07:25:33.7     -12   -119     88    120    148 185.8  39.7  33946  285.97 0855.44
2009/04/23 07:25:33.8     -44   -130     83    138    161 198.7  33.7  33946  285.97 0855.44
2009/04/23 07:25:33.9     -69   -147    102    163    192 205.3  35.5  33948  285.98 0855.44
2009/04/23 07:25:34.0     -59   -166    102    177    204 199.6  32.7  33948  285.98 0855.44
2009/04/23 07:25:34.1     -23   -209    107    211    236 186.5  29.1  33948  286.00 0855.44
2009/04/23 07:25:34.2     -73   -215     70    228    239 198.7  17.1  33946  285.94 0855.44
2009/04/23 07:25:34.3     -71   -179     77    193    207 201.8  23.0  33944  285.93 0855.44
2009/04/23 07:25:34.4     -72   -148     72    165    180 205.9  25.1  33946  285.97 0855.44
2009/04/23 07:25:34.5     -70   -142     78    159    177 206.3  27.8  33944  285.93 0855.44
2009/04/23 07:25:34.6     -76   -119     67    142    157 212.6  27.0  33948  285.98 0855.44
2009/04/23 07:25:34.7     -87   -105     84    137    160 219.6  34.4  33948  285.98 0855.44
2009/04/23 07:25:34.8     -34   -102     83    108    136 198.5  41.7  33946  285.95 0855.44
2009/04/23 07:25:34.9       4   -101    120    102    157 177.3  55.0  33946  285.97 0855.44
2009/04/23 07:25:35.0      -2   -128     71    129    147 180.9  31.3  33948  285.98 0855.44
2009/04/23 07:25:35.1       5    -91     59     92    109 176.4  35.6  33944  285.93 0855.44
2009/04/23 07:25:35.2      33    -75     60     83    102 155.9  39.7  33942  285.90 0855.44
2009/04/23 07:25:35.3       4    -55     75     56     93 175.6  59.4  33946  285.95 0855.44
2009/04/23 07:25:35.4      16    -84     33     86     92 168.9  21.5  33946  285.95 0855.44
2009/04/23 07:25:35.5       8   -108     -2    109    110 175.6  -1.2  33946  285.95 0855.44
2009/04/23 07:25:35.6     -57    -99     44    115    123 209.9  21.5  33946  285.95 0855.44
2009/04/23 07:25:35.7     -43   -134     44    141    148 197.8  17.4  33946  285.95 0855.44
2009/04/23 07:25:35.8     -48   -174     26    181    183 195.4   8.2  33946  285.95 0855.44
2009/04/23 07:25:35.9     -67   -213     33    224    227 197.4   8.5  33944  285.92 0855.44
2009/04/23 07:25:36.0     -31   -153     20    157    159 191.5   7.5  33946  285.95 0855.44
2009/04/23 07:25:36.1     -29   -105    -14    110    111 195.6  -7.3  33946  285.95 0855.44
2009/04/23 07:25:36.2     -19   -108     -4    110    111 190.2  -2.2  33944  285.93 0855.44
2009/04/23 07:25:36.3       6   -114      7    115    116 176.9   3.8  33946  285.95 0855.44
2009/04/23 07:25:36.4      17    -96     19     98    100 169.8  11.1  33948  285.98 0855.44
2009/04/23 07:25:36.5      30    -84     40     90     98 160.4  25.7  33946  285.95 0855.44
2009/04/23 07:25:36.6      85    -79     57    117    130 133.1  27.3  33944  285.92 0855.44
2009/04/23 07:25:36.7      95    -79     79    124    147 129.6  35.5  33942  285.90 0855.45
2009/04/23 07:25:36.8      41   -112     60    120    134 160.0  28.7  33940  285.87 0855.45
2009/04/23 07:25:36.9      31    -41    -76     52     92 142.2 -67.0  33946  285.97 0855.45
2009/04/23 07:25:37.0      26    -50    -39     57     69 152.8 -42.0  33946  285.95 0855.45
2009/04/23 07:25:37.1       8   -124    -15    125    127 176.0  -7.2  33946  285.95 0855.45
2009/04/23 07:25:37.2      38   -114    -21    121    123 161.3 -10.3  33946  285.95 0855.45
2009/04/23 07:25:37.3      52    -81      1     97     98 147.5   0.8  33946  285.97 0855.45
2009/04/23 07:25:37.4     104    -88     28    137    140 130.4  11.6  33944  285.93 0855.45
2009/04/23 07:25:37.5      42   -153     74    159    175 164.4  27.0  33946  285.97 0855.45
2009/04/23 07:25:37.6      42   -167     30    173    176 165.7  10.1  33946  285.97 0855.45
2009/04/23 07:25:37.7      42   -137     32    144    148 163.0  12.6  33944  285.93 0855.45
2009/04/23 07:25:37.8      38   -158     33    163    167 166.2  11.6  33948  286.00 0855.45
2009/04/23 07:25:37.9      39   -193     46    198    204 168.4  13.2  33950  286.02 0855.45
2009/04/23 07:25:38.0      97   -217     48    238    243 155.9  11.4  33946  285.96 0855.45
2009/04/23 07:25:38.1      55   -119     73    132    150 155.1  31.4  33950  286.02 0855.45
2009/04/23 07:25:38.2      53   -133     65    144    157 158.2  25.7  33950  286.02 0855.45
2009/04/23 07:25:38.3      39   -131     28    137    140 163.1  11.6  33946  285.97 0855.45
2009/04/23 07:25:38.4      33   -128    -17    133    135 165.3  -7.3  33948  285.98 0855.45
2009/04/23 07:25:38.5      49   -102    -19    114    116 154.1  -9.8  33948  285.98 0855.45
2009/04/23 07:25:38.6      42    -98      5    107    108 156.4   2.8  33948  285.98 0855.45
2009/04/23 07:25:38.7      43    -98     -7    108    109 156.4  -4.1  33948  285.98 0855.45
2009/04/23 07:25:38.8      40   -102     12    110    111 158.6   6.5  33950  286.02 0855.45
2009/04/23 07:25:38.9      52    -95     13    109    110 151.1   6.9  33948  286.00 0855.45
2009/04/23 07:25:39.0      53    -84     33    100    106 147.5  18.4  33946  285.97 0855.45
2009/04/23 07:25:39.1      65    -89     29    111    115 143.9  14.7  33948  286.00 0855.45
2009/04/23 07:25:39.2      21    -78     55     81     97 164.4  37.0  33948  286.00 0855.45
2009/04/23 07:25:39.3      15    -45     69     48     84 160.8  62.1  33950  286.03 0855.45
2009/04/23 07:25:39.4      27    -63     84     69    108 156.4  56.4  33952  286.05 0855.45
2009/04/23 07:25:39.5      -5    -91     75     92    118 183.1  43.7  33952  286.07 0855.45
2009/04/23 07:25:39.6       0   -101     52    102    114 179.5  29.3  33954  286.08 0855.45
2009/04/23 07:25:39.7       5   -127     71    128    146 177.4  31.4  33952  286.07 0855.45
2009/04/23 07:25:39.8     -10   -150     70    151    166 184.0  26.6  33952  286.07 0855.45
2009/04/23 07:25:39.9     -13   -177     25    178    180 184.5   8.2  33952  286.05 0855.45
2009/04/23 07:25:40.0      -8   -184     24    185    187 182.7   7.5  33952  286.05 0855.45
2009/04/23 07:25:40.1     -60   -187     -4    197    198 197.8  -1.3  33950  286.03 0855.45
2009/04/23 07:25:40.3     -79   -174      6    192    193 204.5   1.8  33948  285.98 0855.45
2009/04/23 07:25:40.3     -82   -149    -24    171    173 208.7  -8.2  33948  285.98 0855.45
2009/04/23 07:25:40.4     -64   -136    -21    151    153 205.3  -8.2  33948  286.00 0855.45
2009/04/23 07:25:40.5     -54   -136    -29    147    150 201.9 -11.3  33948  286.00 0855.45
2009/04/23 07:25:40.6     -38    -72    -34     82     88 208.1 -28.0  33952  286.05 0855.45
2009/04/23 07:25:40.7       6    -66    -46     67     81 174.7 -42.4  33950  286.03 0855.45
2009/04/23 07:25:40.8       1     -4    -59      5     59 168.4 -90.0  33948  286.00 0855.45
2009/04/23 07:25:40.9      16     22    -55     28     61  36.1 -76.3  33948  285.98 0855.45
2009/04/23 07:25:41.0      36     50    -52     62     80  36.1 -49.2  33946  285.97 0855.45
2009/04/23 07:25:41.1      60     62    -42     87     96  43.7 -31.7  33948  286.00 0855.45
2009/04/23 07:25:41.2      20     63    -63     67     91  17.8 -52.9  33950  286.02 0855.45
2009/04/23 07:25:41.3      31     35    -70     48     84  41.4 -67.0  33950  286.02 0855.45
2009/04/23 07:25:41.4      32     21    -62     39     73  55.8 -69.1  33950  286.02 0855.45
2009/04/23 07:25:41.5      25      8    -54     27     60  71.4 -76.3  33952  286.05 0855.45
2009/04/23 07:25:41.6      38     34    -35     52     62  47.8 -42.0  33950  286.03 0855.45
2009/04/23 07:25:41.7      45     45    -22     65     68  45.0 -23.6  33950  286.03 0855.45
2009/04/23 07:25:41.8      53     66    -29     85     89  38.7 -23.3  33952  286.05 0855.45
2009/04/23 07:25:41.9      44      0    -23     45     50  89.2 -33.7  33950  286.02 0855.45
2009/04/23 07:25:42.0      80      4    -21     81     84  86.5 -15.0  33952  286.05 0855.45
2009/04/23 07:25:42.1      50     50     25     72     77  45.0  19.4  33950  286.03 0855.45
2009/04/23 07:25:42.2      23     67      8     72     73  19.2   6.9  33952  286.05 0855.45
2009/04/23 07:25:42.3      10     51     44     53     68  11.5  43.8  33950  286.03 0855.45
2009/04/23 07:25:42.4       7     56     42     57     70   8.0  39.7  33948  286.00 0855.45
2009/04/23 07:25:42.5      23     59     37     64     73  21.9  32.4  33948  286.00 0855.45
2009/04/23 07:25:42.6      15     80      1     82     83  11.1   1.2  33950  286.02 0855.45
2009/04/23 07:25:42.7      26     77    -17     82     84  19.2 -11.9  33950  286.02 0855.45
2009/04/23 07:25:42.8      24     33     -3     42     43  36.1  -4.1  33952  286.05 0855.45
2009/04/23 07:25:42.9      31     48     24     58     62  32.6  23.1  33948  286.00 0855.45
2009/04/23 07:25:43.0      23     15     40     28     48  57.6  61.5  33950  286.02 0855.45
2009/04/23 07:25:43.1      -3     32     56     33     65 353.8  66.8  33948  286.00 0855.45
2009/04/23 07:25:43.2      -3     49     28     50     57 355.5  32.4  33948  286.00 0855.45
2009/04/23 07:25:43.3     -15     52     14     55     57 344.0  14.3  33950  286.02 0855.45
2009/04/23 07:25:43.4      -5     65     -1     66     67 355.5  -1.3  33948  286.00 0855.45
2009/04/23 07:25:43.5       0     52    -14     53     55   0.9 -15.4  33948  286.00 0855.45
2009/04/23 07:25:43.6      22     42     -2     48     49  28.1  -3.1  33948  285.98 0855.45
2009/04/23 07:25:43.7      48     31     29     58     64  57.6  28.2  33948  286.00 0855.45
2009/04/23 07:25:43.8      55     35     23     66     70  57.5  19.4  33950  286.02 0855.45
2009/04/23 07:25:43.9      32     58     19     67     70  29.0  16.3  33950  286.02 0855.45
2009/04/23 07:25:44.0      10     56     27     57     63  10.7  27.2  33948  285.98 0855.45
2009/04/23 07:25:44.1     -14     42     19     45     48 341.5  23.0  33948  286.00 0855.45
2009/04/23 07:25:44.2     -21     46     10     51     52 334.5  11.1  33948  286.00 0855.45
2009/04/23 07:25:44.3     -30     44     14     54     56 325.7  15.3  33950  286.02 0855.45
2009/04/23 07:25:44.4     -41     55     40     69     79 323.0  32.9  33948  286.00 0855.45
2009/04/23 07:25:44.5     -42     58     42     72     83 323.9  32.9  33950  286.03 0855.45
2009/04/23 07:25:44.6     -64     55     51     85     99 310.4  34.0  33948  286.00 0855.45
2009/04/23 07:25:44.7     -54     38      3     67     68 305.1   2.9  33950  286.03 0855.45
2009/04/23 07:25:44.8     -45     54     14     71     73 320.4  11.1  33948  286.00 0855.45
2009/04/23 07:25:44.9     -54     55     33     78     84 315.8  23.6  33948  286.00 0855.45
2009/04/23 07:25:45.0     -72    -36     35     81     88 242.9  25.1  33950  286.02 0855.45
2009/04/23 07:25:45.1     -85    -40      4     95     96 244.7   2.8  33948  286.00 0855.45
2009/04/23 07:25:45.2     -99    -20     16    101    103 258.5   9.5  33946  285.97 0855.45
2009/04/23 07:25:45.3     -93    -44     -4    104    105 244.6  -2.2  33948  286.00 0855.45
2009/04/23 07:25:45.4     -61    -50     27     80     85 230.5  18.9  33950  286.02 0855.45
2009/04/23 07:25:45.5     -70    -75      8    103    104 223.2   4.9  33948  286.00 0855.45
2009/04/23 07:25:45.6     -34    -37     -2     51     52 222.3  -2.2  33948  286.00 0855.45
2009/04/23 07:25:45.7      -8    -36    -29     38     47 193.4 -46.1  33948  285.98 0855.45
2009/04/23 07:25:45.8      50   -105    -29    117    121 154.7 -13.9  33946  285.97 0855.45
2009/04/23 07:25:45.9      76   -119    -18    142    144 147.5  -7.3  33946  285.95 0855.45
2009/04/23 07:25:46.0      85   -127    -36    154    159 146.2 -13.2  33946  285.97 0855.45
2009/04/23 07:25:46.1     104   -138      8    173    174 143.0   2.8  33946  285.97 0855.45
2009/04/23 07:25:46.2     104   -142      4    177    178 143.9   1.6  33944  285.93 0855.45
2009/04/23 07:25:46.3     112   -140     28    180    183 141.3   8.8  33946  285.95 0855.45
2009/04/23 07:25:46.4     118   -170     50    208    215 145.3  13.7  33946  285.97 0855.45
2009/04/23 07:25:46.5     106   -140     52    176    184 142.8  16.6  33944  285.92 0855.45
2009/04/23 07:25:46.6      98   -136     31    168    171 144.2  10.6  33946  285.95 0855.45
2009/04/23 07:25:46.7      86    -89     38    124    130 135.9  17.4  33944  285.93 0855.46
2009/04/23 07:25:46.8      89    -54     41    105    112 121.5  22.5  33948  285.98 0855.46
2009/04/23 07:25:46.9      95    -42     61    105    121 114.0  32.9  33942  285.90 0855.46
2009/04/23 07:25:47.0     122    -28     68    126    143 103.3  31.3  33946  285.97 0855.46
2009/04/23 07:25:47.1     131    -43     47    138    146 108.2  18.9  33944  285.92 0855.46
2009/04/23 07:25:47.3      99    -11     62    100    117  96.6  35.0  33946  285.97 0855.46
2009/04/23 07:25:47.3      79    -15     60     81    100 101.0  40.1  33946  285.95 0855.46
2009/04/23 07:25:47.5      77    -14     75     79    108 100.6  48.5  33944  285.93 0855.46
2009/04/23 07:25:47.6     111     -3    107    112    154  91.7  49.0  33942  285.90 0855.46
2009/04/23 07:25:47.7     104      7    108    105    150  86.1  50.2  33946  285.97 0855.46
2009/04/23 07:25:47.8     126     -3     82    127    151  91.7  35.6  33946  285.95 0855.46
2009/04/23 07:25:47.9     115     11     94    116    149  84.3  43.7  33946  285.95 0855.46
2009/04/23 07:25:48.0     165    -13     51    166    174  94.8  17.1  33948  286.00 0855.46
2009/04/23 07:25:48.1     139     -5     83    140    162  92.1  33.7  33946  285.95 0855.46
2009/04/23 07:25:48.2     104      0    105    105    148  90.0  50.1  33946  285.97 0855.46
2009/04/23 07:25:48.3      82      8    114     83    141  84.3  60.5  33948  286.00 0855.46
2009/04/23 07:25:48.4      53      4     86     54    101  85.6  64.7  33948  285.98 0855.46
2009/04/23 07:25:48.5      27      9     74     29     79  71.6  78.2  33948  286.00 0855.46
2009/04/23 07:25:48.6      55     26     74     61     95  64.7  56.4  33948  285.98 0855.46
2009/04/23 07:25:48.7      66     12     57     68     88  79.4  44.3  33948  285.98 0855.46
2009/04/23 07:25:48.8      37     45     43     59     73  39.6  39.7  33946  285.97 0855.46
2009/04/23 07:25:48.9       1     44     41     45     60   1.8  47.9  33944  285.93 0855.46
2009/04/23 07:25:49.0      -2     54     31     55     63 357.3  31.4  33946  285.97 0855.46
2009/04/23 07:25:49.1      -4     63     32     64     71 355.6  27.3  33946  285.97 0855.46
2009/04/23 07:25:49.2      -6     52     26     53     59 352.9  27.2  33946  285.97 0855.46
2009/04/23 07:25:49.3      -2     36     31     37     48 355.6  45.8  33946  285.97 0855.46
2009/04/23 07:25:49.4      22     16     29     28     40  54.0  50.1  33948  285.98 0855.46
2009/04/23 07:25:49.5      32      0     36     33     48  90.0  51.2  33948  286.00 0855.46
2009/04/23 07:25:49.6      44     22     37     50     62  62.9  39.7  33948  286.00 0855.46
2009/04/23 07:25:49.7      91     24     42     95    103  74.9  25.1  33948  285.98 0855.46
2009/04/23 07:25:49.8      99     26     49    103    114  74.9  27.3  33950  286.02 0855.46
2009/04/23 07:25:49.9      98     21     23    101    104  77.6  13.2  33948  285.98 0855.46
2009/04/23 07:25:50.0      62     20      5     66     67  71.8   4.9  33944  285.92 0855.46
2009/04/23 07:25:50.1      24     -2     17     25     30  96.1  37.6  33948  285.98 0855.46
2009/04/23 07:25:50.2      26     -7     43     27     50 105.1  64.7  33946  285.97 0855.46
2009/04/23 07:25:50.3       6     -6     54      9     54 136.6  90.0  33948  285.98 0855.46
2009/04/23 07:25:50.4      24     -2     71     25     75  96.1  81.2  33948  285.98 0855.46
2009/04/23 07:25:50.5      10     38     63     40     74  15.1  64.7  33944  285.92 0855.46
2009/04/23 07:25:50.6       0     33     74     34     81 359.1  74.0  33944  285.93 0855.46
2009/04/23 07:25:50.7     -50      0     64     51     81 270.0  57.5  33950  286.02 0855.46
2009/04/23 07:25:50.8     -59      0     63     60     87 270.0  51.2  33944  285.92 0855.46
2009/04/23 07:25:50.9     -52     -4     49     53     72 265.7  47.9  33946  285.97 0855.46
2009/04/23 07:25:51.0     -23      0     44     24     50 270.0  68.8  33944  285.93 0855.46
2009/04/23 07:25:51.1       6     -2     14      7     15 108.2  72.9  33946  285.97 0855.46
2009/04/23 07:25:51.2      -6    -30      1     31     32 191.5   2.9  33948  285.98 0855.46
2009/04/23 07:25:51.3      -4    -52      0     53     54 184.4   0.8  33946  285.95 0855.46
2009/04/23 07:25:51.4     -16    -65      3     68     69 194.3   2.8  33944  285.93 0855.46
2009/04/23 07:25:51.5       3    -51     23     52     56 176.4  25.1  33944  285.93 0855.46
2009/04/23 07:25:51.6      19    -41     41     46     61 155.5  46.9  33942  285.90 0855.46
2009/04/23 07:25:51.7      54      6     80     55     97  83.0  62.6  33944  285.92 0855.46
2009/04/23 07:25:51.8      35     44     92     57    108  38.7  64.7  33946  285.95 0855.46
2009/04/23 07:25:51.9      35     13     55     38     66  70.0  62.6  33944  285.93 0855.46
2009/04/23 07:25:52.0      57    -15     71     60     92 105.1  55.8  33944  285.93 0855.46
2009/04/23 07:25:52.1      97    -26     35    101    108 105.1  19.4  33944  285.93 0855.46
2009/04/23 07:25:52.2      61    -25     14     67     69 112.6  12.2  33944  285.92 0855.46
2009/04/23 07:25:52.3      57    -62     11     85     86 137.2   7.5  33940  285.85 0855.46
2009/04/23 07:25:52.4      65    -49     34     82     88 126.9  23.6  33940  285.87 0855.46
2009/04/23 07:25:52.5      91    -46     19    103    105 117.1  10.6  33944  285.92 0855.46
2009/04/23 07:25:52.6      95    -58     13    112    113 121.5   6.9  33940  285.87 0855.46
2009/04/23 07:25:52.7      97    -42     36    106    113 113.5  18.9  33942  285.90 0855.46
2009/04/23 07:25:52.8      81    -30     27     87     92 110.8  17.3  33940  285.87 0855.46
2009/04/23 07:25:52.9      96     -7     29     97    102  94.4  16.8  33944  285.92 0855.46
2009/04/23 07:25:53.0     121     30     24    125    128  75.8  11.1  33944  285.92 0855.46
2009/04/23 07:25:53.1     102     27     52    106    118  75.0  27.8  33948  285.98 0855.46
2009/04/23 07:25:53.2     126     42     68    133    149  71.6  29.2  33950  286.02 0855.46
2009/04/23 07:25:53.3     121     62     51    137    146  62.9  21.0  33946  285.95 0855.46
2009/04/23 07:25:53.4      78     53     40     95    103  55.4  23.6  33948  285.98 0855.46
2009/04/23 07:25:53.5      45     30     64     55     84  55.8  54.3  33946  285.95 0855.46
2009/04/23 07:25:53.6      63     24     62     68     92  69.2  47.5  33944  285.92 0855.46
2009/04/23 07:25:53.7      52     92     50    106    117  29.4  27.1  33938  285.83 0855.46
2009/04/23 07:25:53.8      32     92     25     98    102  19.2  14.7  33936  285.80 0855.46
2009/04/23 07:25:53.9      24     21     -9     32     34  48.7 -15.5  33940  285.85 0855.46
2009/04/23 07:25:54.0      12    -24    -34     27     43 152.8 -61.9  33938  285.83 0855.46
2009/04/23 07:25:54.1     -15    -45    -47     48     67 198.7 -55.5  33938  285.83 0855.46
2009/04/23 07:25:54.2     -64    -34    -29     73     78 242.0 -26.9  33940  285.85 0855.46
2009/04/23 07:25:54.3     -81    -42    -33     92     98 242.5 -19.7  33938  285.83 0855.46
2009/04/23 07:25:54.4     -52    -77     -9     94     95 214.3  -5.6  33938  285.82 0855.46
2009/04/23 07:25:54.5     -60    -73     33     95    101 219.6  19.4  33932  285.73 0855.46
2009/04/23 07:25:54.6     -43    -58     80     73    108 216.1  52.7  33934  285.76 0855.46
2009/04/23 07:25:54.7       1    -75     73     76    105 179.1  49.4  33934  285.76 0855.46
2009/04/23 07:25:54.8     -10    -74     68     75    101 188.0  47.5  33938  285.83 0855.46
2009/04/23 07:25:54.9      37    -44     82     58    100 140.4  61.1  33936  285.80 0855.46
2009/04/23 07:25:55.0      57    -67     88     89    125 139.5  50.0  33940  285.87 0855.46
2009/04/23 07:25:55.1      51    -74     77     91    119 145.3  44.8  33942  285.90 0855.46
2009/04/23 07:25:55.2      88    -29     85     93    125 108.6  47.9  33944  285.92 0855.46
2009/04/23 07:25:55.3      69    -42     87     81    118 121.5  52.1  33944  285.92 0855.46
2009/04/23 07:25:55.4      24    -63     76     68    101 159.1  53.3  33944  285.92 0855.46
2009/04/23 07:25:55.5       9    -68     96     69    118 172.0  60.5  33938  285.83 0855.46
2009/04/23 07:25:55.6      -7    -97     73     98    122 184.4  40.7  33944  285.93 0855.46
2009/04/23 07:25:55.7     -28   -110     23    114    117 194.7  11.6  33942  285.90 0855.46
2009/04/23 07:25:55.8     -80   -158     -9    178    179 207.0  -3.1  33942  285.90 0855.47
2009/04/23 07:25:55.9    -123   -176    -11    216    217 215.0  -3.1  33936  285.80 0855.47
2009/04/23 07:25:56.0    -203   -145     -1    250    251 234.3  -0.3  33940  285.84 0855.47
2009/04/23 07:25:56.1    -226   -150     -1    272    273 236.5  -0.3  33942  285.89 0855.47
2009/04/23 07:25:56.2    -216    -48     30    222    225 257.4   7.8  33938  285.83 0855.47
2009/04/23 07:25:56.3    -208     27     32    210    213 277.5   8.8  33930  285.70 0855.47
2009/04/23 07:25:56.4    -229    -17     28    230    232 265.6   7.1  33936  285.80 0855.47
2009/04/23 07:25:56.5    -205    -21    -21    207    209 263.9  -6.0  33938  285.82 0855.47
2009/04/23 07:25:56.6    -178     77    -43    195    200 293.5 -12.6  33942  285.88 0855.47
2009/04/23 07:25:56.7    -177    102    -63    205    215 300.0 -17.3  33938  285.83 0855.47
2009/04/23 07:25:56.8    -169     85    -69    190    202 296.9 -25.3  33940  285.87 0855.47
2009/04/23 07:25:56.9    -157     71    -68    173    185 294.4 -26.9  33948  285.98 0855.47
2009/04/23 07:25:57.0    -181     32    -61    184    193 280.1 -23.8  33948  285.98 0855.47
2009/04/23 07:25:57.1    -136     36    -50    141    149 285.1 -23.8  33944  285.93 0855.47
2009/04/23 07:25:57.2     -99     45     -8    109    110 294.4  -4.6  33944  285.92 0855.47
2009/04/23 07:25:57.3     -78     15     44     80     91 281.4  31.4  33944  285.92 0855.47
2009/04/23 07:25:57.4     -82    -14     66     84    106 260.3  42.7  33942  285.90 0855.47
2009/04/23 07:25:57.5     -78    -49     75     93    119 237.6  43.3  33940  285.87 0855.47
2009/04/23 07:25:57.6     -48    -68     88     84    121 215.6  51.2  33944  285.92 0855.47
2009/04/23 07:25:57.7     -53    -56     83     78    113 223.2  51.6  33942  285.90 0855.47
2009/04/23 07:25:57.8     -19    -30     52     36     63 212.5  61.5  33944  285.92 0855.47
2009/04/23 07:25:57.9       9    -97      8     98     99 174.2   4.9  33944  285.93 0855.47
2009/04/23 07:25:58.0      14    -69     21     71     75 168.5  16.3  33946  285.95 0855.47
2009/04/23 07:25:58.1      30    -37     36     48     60 141.3  40.7  33944  285.93 0855.47
2009/04/23 07:25:58.2      -1    -41     51     42     66 181.8  56.4  33942  285.90 0855.47
2009/04/23 07:25:58.3       0    -38     80     39     89 180.9  72.8  33944  285.93 0855.47
2009/04/23 07:25:58.4      36    -75     45     84     95 154.1  30.3  33946  285.95 0855.47
2009/04/23 07:25:58.5      77    -72     42    106    114 133.1  22.5  33944  285.93 0855.47
2009/04/23 07:25:58.6      83   -130     31    155    159 147.5  11.4  33948  286.00 0855.47
2009/04/23 07:25:58.7     118   -144    -23    187    189 140.8  -7.2  33948  285.98 0855.47
2009/04/23 07:25:58.8     113   -118     -7    164    165 136.1  -2.6  33946  285.95 0855.47
2009/04/23 07:25:58.9     165    -37     34    170    174 102.8  11.4  33946  285.95 0855.47
2009/04/23 07:25:59.0     138    -23     59    140    151  99.7  24.1  33948  286.00 0855.47
2009/04/23 07:25:59.1     122     -3     44    123    130  91.7  20.0  33948  285.98 0855.47
2009/04/23 07:25:59.2      98      0     30     99    104  90.0  16.8  33950  286.02 0855.47
2009/04/23 07:25:59.3     115    -26    -10    118    119 102.8  -5.2  33946  285.97 0855.47
2009/04/23 07:25:59.4     100    -26     26    104    108 105.0  14.3  33946  285.97 0855.47
2009/04/23 07:25:59.5      89    -43     24     99    102 115.8  13.7  33946  285.95 0855.47
2009/04/23 07:25:59.6      77    -44     63     89    109 119.8  39.1  33948  286.00 0855.47
2009/04/23 07:25:59.7       5    -75     53     76     92 175.5  38.0  33946  285.97 0855.47
2009/04/23 07:25:59.8      25    -96     13    100    101 165.3   7.5  33948  286.00 0855.47
2009/04/23 07:25:59.9      11   -108     17    109    111 173.8   9.0  33948  286.00 0855.47
2009/04/23 07:26:00.0      24   -100     20    103    106 166.2  11.1  33950  286.02 0855.47
2009/04/23 07:26:00.1      50   -103     61    115    130 154.1  30.3  33950  286.03 0855.47
2009/04/23 07:26:00.2      44   -102     50    112    122 156.8  25.2  33948  286.00 0855.47
2009/04/23 07:26:00.3      55    -97     53    112    123 150.1  27.1  33950  286.03 0855.47
2009/04/23 07:26:00.4      60   -138     65    151    164 156.3  24.9  33950  286.02 0855.47
2009/04/23 07:26:00.5      52   -120     97    131    163 156.4  40.1  33946  285.95 0855.47
2009/04/23 07:26:00.6     103   -113    126    154    198 137.7  43.7  33946  285.95 0855.47
2009/04/23 07:26:00.7      80    -83    111    116    160 135.9  48.7  33946  285.97 0855.47
2009/04/23 07:26:00.8      54   -111     93    124    155 154.1  40.1  33950  286.03 0855.47
2009/04/23 07:26:00.9      34    -97     81    104    131 160.4  41.7  33948  286.00 0855.47
2009/04/23 07:26:01.0     -18   -103     69    105    125 190.2  36.0  33948  286.00 0855.47
2009/04/23 07:26:01.1     -18   -141     76    143    161 187.6  30.1  33950  286.03 0855.47
2009/04/23 07:26:01.2      11   -145     71    146    162 175.6  27.8  33950  286.02 0855.47
2009/04/23 07:26:01.3       0   -171     93    172    195 180.0  30.8  33950  286.03 0855.47
2009/04/23 07:26:01.4      26   -206     92    208    227 172.7  25.3  33950  286.03 0855.47
2009/04/23 07:26:01.5      28   -187     82    190    206 171.3  25.1  33946  285.97 0855.47
2009/04/23 07:26:01.6      11   -161    103    162    191 175.8  35.5  33946  285.97 0855.47
2009/04/23 07:26:01.7       3   -193     39    194    199 179.0  11.6  33948  286.00 0855.47
2009/04/23 07:26:01.8      87   -184     10    204    205 154.7   2.9  33948  286.00 0855.47
2009/04/23 07:26:01.9     136    -82     85    160    181 121.1  30.3  33946  285.95 0855.47
2009/04/23 07:26:02.0     132    -94     94    163    188 125.5  32.7  33948  286.00 0855.47
2009/04/23 07:26:02.1     147   -141     86    205    222 133.8  23.8  33950  286.02 0855.47
2009/04/23 07:26:02.2      85   -210     92    227    244 157.9  23.4  33950  286.03 0855.47
2009/04/23 07:26:02.3     103   -161     79    192    207 147.4  23.6  33948  285.98 0855.47
2009/04/23 07:26:02.4     123   -181     76    220    234 145.7  19.2  33950  286.02 0855.47
2009/04/23 07:26:02.5      -2   -154     56    155    164 181.0  20.2  33948  286.00 0855.47
2009/04/23 07:26:02.6      22   -165     17    167    168 172.2   6.1  33950  286.02 0855.47
2009/04/23 07:26:02.7       0   -139    -18    140    142 180.0  -7.3  33950  286.03 0855.47
2009/04/23 07:26:02.8       1   -127    -16    128    130 179.5  -7.3  33952  286.05 0855.47
2009/04/23 07:26:02.9      -3   -134     -7    135    136 181.4  -3.2  33952  286.05 0855.47
2009/04/23 07:26:03.0      12   -119     -4    120    121 174.2  -2.2  33950  286.02 0855.47
2009/04/23 07:26:03.1      62   -110     13    127    128 150.6   5.9  33952  286.07 0855.47
2009/04/23 07:26:03.2      96   -107     90    144    169 138.1  35.2  33946  285.95 0855.47
2009/04/23 07:26:03.3     122   -228     97    259    276 151.9  21.5  33954  286.08 0855.47
2009/04/23 07:26:03.4     -14   -299    138    300    330 182.7  26.5  33950  286.01 0855.47
2009/04/23 07:26:03.5      35   -343    225    345    411 174.1  36.4  33948  285.99 0855.47
2009/04/23 07:26:03.6     108   -296    304    316    438 160.0  49.0  33948  285.99 0855.47
2009/04/23 07:26:03.7      85   -333    242    344    420 165.6  38.6  33950  286.02 0855.47
2009/04/23 07:26:03.8      10   -222    149    223    268 177.3  36.7  33944  285.93 0855.48
2009/04/23 07:26:03.9      17   -224    161    225    276 175.6  39.3  33950  286.01 0855.48
2009/04/23 07:26:04.0     129   -224    111    259    281 150.1  24.6  33950  286.03 0855.48
2009/04/23 07:26:04.1      39   -293     55    296    302 172.4  10.6  33948  285.98 0855.48
2009/04/23 07:26:04.2      -1   -295    -11    296    297 180.2  -2.2  33946  285.94 0855.48
2009/04/23 07:26:04.3    -131   -375     49    398    402 199.3   7.1  33946  285.97 0855.48
2009/04/23 07:26:04.4    -180   -289    -54    341    346 211.9  -9.1  33948  285.99 0855.48
2009/04/23 07:26:04.5    -132   -261     -5    293    294 207.0  -1.2  33948  285.99 0855.48
2009/04/23 07:26:04.6     -68   -222     26    233    235 197.2   6.5  33946  285.94 0855.48
2009/04/23 07:26:04.7     -21   -156    -30    158    161 188.0 -10.9  33946  285.97 0855.48
2009/04/23 07:26:04.8      93   -112    -13    146    147 140.4  -5.2  33946  285.95 0855.48
2009/04/23 07:26:04.9     103    -71     34    126    131 124.6  15.3  33946  285.97 0855.48
2009/04/23 07:26:05.0      95    -79     72    124    143 129.6  33.4  33948  285.98 0855.48
2009/04/23 07:26:05.1      70   -118    108    138    175 149.3  42.2  33952  286.05 0855.48
2009/04/23 07:26:05.2     100   -141    132    173    217 144.6  41.2  33946  285.97 0855.48
2009/04/23 07:26:05.3      87   -136    130    162    207 147.5  43.0  33946  285.95 0855.48
2009/04/23 07:26:05.4     109   -115    127    159    203 136.7  42.7  33946  285.95 0855.48
2009/04/23 07:26:05.5      99   -145    116    176    210 145.5  36.5  33948  286.00 0855.48
2009/04/23 07:26:05.6     116   -160     77    198    212 144.0  22.3  33948  286.00 0855.48
2009/04/23 07:26:05.7     105   -190     52    218    225 151.0  13.5  33948  285.98 0855.48
2009/04/23 07:26:05.8       6   -185    -10    186    187 178.0  -3.1  33948  286.00 0855.48
2009/04/23 07:26:05.9      54   -141      7    152    153 159.1   2.8  33950  286.03 0855.48
2009/04/23 07:26:06.0      53   -112    -16    125    127 154.5  -7.3  33950  286.03 0855.48
2009/04/23 07:26:06.1      99   -129     16    163    164 142.6   5.7  33948  286.00 0855.48
2009/04/23 07:26:06.2      87   -184     48    204    210 154.5  13.2  33950  286.02 0855.48
2009/04/23 07:26:06.3      83   -145     70    168    182 150.1  23.8  33948  286.00 0855.48
2009/04/23 07:26:06.4     172    -67    127    185    224 111.3  37.6  33948  285.98 0855.48
2009/04/23 07:26:06.5     108    -62    169    125    210 119.8  60.0  33952  286.07 0855.48
2009/04/23 07:26:06.6      86    -86    159    123    201 135.0  58.5  33946  285.97 0855.48
2009/04/23 07:26:06.7      68    -83    165    108    197 140.4  63.9  33948  286.00 0855.48
2009/04/23 07:26:06.8       8     12    116     15    116  32.6  90.0  33952  286.05 0855.48
2009/04/23 07:26:06.9      68    -88     65    112    129 142.6  32.9  33954  286.08 0855.48
2009/04/23 07:26:07.0      34   -125     34    130    135 164.4  14.7  33954  286.08 0855.48
2009/04/23 07:26:07.1      16   -209     21    210    212 175.6   5.9  33952  286.05 0855.48
2009/04/23 07:26:07.2      49   -135     17    144    146 160.0   6.9  33948  286.00 0855.48
2009/04/23 07:26:07.3      63    -60    -32     88     93 133.6 -24.4  33952  286.05 0855.48
2009/04/23 07:26:07.4      25    -19    -55     32     63 127.8 -72.1  33952  286.05 0855.48
2009/04/23 07:26:07.5      -8      8    -73     12     73 313.1 -90.0  33950  286.03 0855.48
2009/04/23 07:26:07.6      16   -100    -20    102    105 170.7 -11.5  33954  286.10 0855.48
2009/04/23 07:26:07.7      26   -175    -54    177    186 171.5 -17.0  33954  286.08 0855.48
2009/04/23 07:26:07.8     106    -70    107    128    166 123.3  44.1  33954  286.08 0855.49
2009/04/23 07:26:07.9     102    -29    166    107    197 105.9  64.4  33958  286.17 0855.49
2009/04/23 07:26:08.0      25     39    113     47    122  32.6  76.6  33954  286.08 0855.49
2009/04/23 07:26:08.1     -58   -152     95    163    188 200.9  32.9  33956  286.14 0855.49
2009/04/23 07:26:08.2      17   -186      2    187    188 174.7   0.8  33954  286.08 0855.49
2009/04/23 07:26:08.3      55   -176     -7    185    186 162.4  -2.2  33950  286.03 0855.49
2009/04/23 07:26:08.4      73   -195     58    209    217 159.5  15.6  33952  286.05 0855.49
2009/04/23 07:26:08.5     133   -208     74    247    258 147.4  16.8  33954  286.08 0855.49
2009/04/23 07:26:08.6     193   -234     94    304    319 140.4  17.3  33950  286.01 0855.49
2009/04/23 07:26:08.7     225   -153    139    273    306 124.2  29.2  33956  286.13 0855.49
2009/04/23 07:26:08.8     258   -262     96    368    381 135.5  14.6  33958  286.16 0855.49
2009/04/23 07:26:08.9     219   -322    -17    390    391 145.8  -2.6  33956  286.12 0855.49
2009/04/23 07:26:09.0     227   -319    -17    392    393 144.5  -2.6  33956  286.12 0855.49
2009/04/23 07:26:09.1     119   -318     66    340    347 159.4  11.1  33956  286.14 0855.49
2009/04/23 07:26:09.2      74   -281    -69    291    300 165.1 -13.4  33954  286.08 0855.49
2009/04/23 07:26:09.3     101   -282    -37    300    303 160.2  -7.2  33958  286.15 0855.49
2009/04/23 07:26:09.4     122   -321     -6    344    345 159.1  -1.2  33958  286.16 0855.49
2009/04/23 07:26:09.5     192   -295    -15    353    354 146.9  -2.5  33964  286.26 0855.49
2009/04/23 07:26:09.6     264   -264     23    374    375 135.1   3.6  33964  286.27 0855.49
2009/04/23 07:26:09.7     293   -212      0    362    363 125.9   0.1  33962  286.22 0855.49
2009/04/23 07:26:09.8     258   -149     58    298    304 120.0  11.1  33962  286.21 0855.49
2009/04/23 07:26:09.9     219    -69    102    230    251 107.5  25.3  33962  286.23 0855.49
2009/04/23 07:26:10.0     102    -18     35    104    111 100.1  18.9  33958  286.15 0855.49
2009/04/23 07:26:10.1      69    -43    -53     82     97 122.4 -40.0  33958  286.17 0855.49
2009/04/23 07:26:10.2     142   -189    -82    237    251 143.0 -19.1  33958  286.16 0855.49
2009/04/23 07:26:10.3     207   -220    -56    303    309 136.8 -10.5  33962  286.23 0855.49
2009/04/23 07:26:10.4     141   -160     10    214    215 138.5   2.9  33962  286.24 0855.49
2009/04/23 07:26:10.5      96   -143     35    173    177 146.2  11.4  33960  286.20 0855.49
2009/04/23 07:26:10.6      90   -134     84    162    182 146.2  29.8  33958  286.17 0855.49
2009/04/23 07:26:10.7     121   -124    116    174    209 135.7  37.0  33962  286.22 0855.49
2009/04/23 07:26:10.8      71   -112     67    133    148 147.5  28.7  33962  286.22 0855.50
2009/04/23 07:26:10.9      99   -120     70    156    170 140.4  25.9  33962  286.24 0855.50
2009/04/23 07:26:11.0      78   -122    130    146    195 147.4  46.2  33960  286.20 0855.50
2009/04/23 07:26:11.1      30   -227    112    230    255 172.4  27.8  33964  286.25 0855.50
2009/04/23 07:26:11.2     133   -309     71    337    345 156.6  12.0  33962  286.24 0855.50
2009/04/23 07:26:11.3     116   -269    102    294    312 156.6  19.2  33964  286.25 0855.50
2009/04/23 07:26:11.4     140   -246    120    284    308 150.4  24.2  33964  286.25 0855.50
2009/04/23 07:26:11.5     189   -208    193    282    341 137.7  37.7  33964  286.25 0855.50
2009/04/23 07:26:11.6     209   -236    208    316    378 138.6  36.4  33962  286.24 0855.50
2009/04/23 07:26:11.7     207   -278    183    347    392 143.3  30.1  33958  286.17 0855.50
2009/04/23 07:26:11.8     213   -286    177    357    398 143.3  28.2  33962  286.21 0855.50
2009/04/23 07:26:11.9     201   -231    179    307    355 139.0  33.0  33962  286.21 0855.50
2009/04/23 07:26:12.0      88   -245    180    261    317 160.2  37.9  33962  286.23 0855.50
2009/04/23 07:26:12.1      44   -215    131    220    256 168.4  33.5  33960  286.18 0855.50
2009/04/23 07:26:12.2     -20   -244    143    245    283 184.9  33.1  33960  286.20 0855.50
2009/04/23 07:26:12.3     -17   -220    143    221    263 184.5  35.7  33960  286.20 0855.50
2009/04/23 07:26:12.4      -4   -243    142    244    282 181.0  33.1  33962  286.21 0855.50
2009/04/23 07:26:12.5       3   -287    135    288    318 179.3  27.0  33958  286.16 0855.50
2009/04/23 07:26:12.6       0   -226     94    227    245 180.2  24.1  33962  286.23 0855.50
2009/04/23 07:26:12.7      51   -187     25    195    197 164.6   7.5  33960  286.19 0855.50
2009/04/23 07:26:12.8      68   -142     -3    158    159 154.5  -1.1  33960  286.20 0855.49
2009/04/23 07:26:12.9      43   -127     40    135    141 161.3  16.8  33958  286.17 0855.49
2009/04/23 07:26:13.0      16   -133    -15    135    136 172.9  -6.7  33964  286.25 0855.49
2009/04/23 07:26:13.1     -21   -153     15    155    156 188.0   5.7  33960  286.20 0855.49
2009/04/23 07:26:13.2      -7   -138    -25    139    142 183.1 -10.3  33958  286.17 0855.49
2009/04/23 07:26:13.3    -197   -202    -81    283    295 224.3 -16.0  33956  286.13 0855.49
2009/04/23 07:26:13.4    -111   -166    -77    201    215 213.8 -26.1  33954  286.10 0855.49
2009/04/23 07:26:13.5    -102    -98    -43    142    149 226.0 -17.0  33956  286.12 0855.49
2009/04/23 07:26:13.6     -19   -109      3    111    112 190.2   1.8  33954  286.10 0855.49
2009/04/23 07:26:13.7      42    -74    -31     86     91 150.6 -24.4  33956  286.14 0855.49
2009/04/23 07:26:13.8      13    -87   -112     89    143 171.1 -61.9  33954  286.10 0855.49
2009/04/23 07:26:14.0      31   -165    -80    169    186 169.1 -31.5  33954  286.08 0855.49
2009/04/23 07:26:14.1     111   -152      9    189    190 143.9   2.8  33952  286.07 0855.49
2009/04/23 07:26:14.2      14   -131    -11    132    133 173.8  -5.1  33956  286.12 0855.49
2009/04/23 07:26:14.3     110    -57     17    124    126 117.5   8.0  33954  286.08 0855.49
2009/04/23 07:26:14.4     150    -58     56    161    171 111.3  19.2  33956  286.14 0855.49
2009/04/23 07:26:14.5     163    -71     61    179    190 113.7  18.9  33958  286.15 0855.49
2009/04/23 07:26:14.6     150    -72     71    167    181 115.8  24.3  33960  286.19 0855.49
2009/04/23 07:26:14.7     137    -54     75    148    165 111.8  29.1  33960  286.19 0855.49
2009/04/23 07:26:14.8     148    -39     66    154    167 105.0  24.6  33960  286.19 0855.49
2009/04/23 07:26:14.9     134    -73     70    153    168 118.8  26.2  33960  286.20 0855.49
2009/04/23 07:26:15.0     143    -89     77    169    185 122.0  26.4  33962  286.22 0855.49
2009/04/23 07:26:15.1     137   -165     89    215    232 140.4  23.6  33962  286.22 0855.49
2009/04/23 07:26:15.2     203   -162    121    260    286 128.6  27.0  33958  286.15 0855.49
2009/04/23 07:26:15.3      17   -272    131    273    302 176.4  27.3  33960  286.20 0855.49
2009/04/23 07:26:15.4     175   -224    115    285    307 142.1  23.1  33958  286.15 0855.49
2009/04/23 07:26:15.5     273   -195     97    336    350 125.5  16.1  33956  286.14 0855.49
2009/04/23 07:26:15.6     264   -414     14    492    493 147.5   1.7  33962  286.23 0855.49
2009/04/23 07:26:15.7     201   -398     29    446    447 153.2   3.8  33966  286.30 0855.49
2009/04/23 07:26:15.8      60   -416    101    421    434 171.8  13.6  33958  286.15 0855.49
2009/04/23 07:26:15.9     273   -389     10    476    477 145.0   1.2  33962  286.23 0855.49
2009/04/23 07:26:16.0     221   -424     81    479    486 152.5   9.7  33962  286.21 0855.49
2009/04/23 07:26:16.1     260   -349     85    436    445 143.3  11.1  33960  286.18 0855.49
2009/04/23 07:26:16.2     130   -402    112    423    438 162.1  14.9  33958  286.15 0855.49
2009/04/23 07:26:16.3      25   -391    203    392    441 176.2  29.3  33956  286.11 0855.49
2009/04/23 07:26:16.4      23   -356    204    357    411 176.2  32.3  33956  286.14 0855.49
2009/04/23 07:26:16.5     133   -334    129    360    382 158.3  20.4  33958  286.16 0855.49
2009/04/23 07:26:16.6      97   -346    197    360    410 164.3  31.3  33952  286.05 0855.49
2009/04/23 07:26:16.7     109   -265    192    287    345 157.5  36.9  33948  285.98 0855.49
2009/04/23 07:26:16.8      36   -295     93    298    313 172.9  17.3  33954  286.09 0855.49
2009/04/23 07:26:16.9    -146   -322     22    354    355 204.4   3.6  33952  286.07 0855.50
2009/04/23 07:26:17.0    -149   -410    -79    437    445 200.0 -10.3  33954  286.10 0855.50
2009/04/23 07:26:17.1    -167   -427   -158    459    486 201.4 -19.1  33952  286.07 0855.50
2009/04/23 07:26:17.2     -42   -360    -92    363    375 186.7 -14.3  33954  286.10 0855.50
2009/04/23 07:26:17.3     -54   -354    -88    359    370 188.8 -13.9  33954  286.10 0855.50
2009/04/23 07:26:17.4    -118   -355   -119    375    394 198.5 -17.6  33952  286.05 0855.50
2009/04/23 07:26:17.5     -66   -311   -112    318    337 192.0 -24.5  33954  286.09 0855.50
2009/04/23 07:26:17.6      43   -312    -89    316    328 172.0 -20.4  33952  286.06 0855.50
2009/04/23 07:26:17.7      38   -308   -100    311    326 172.8 -23.0  33958  286.15 0855.50
2009/04/23 07:26:17.8     -19   -396   -104    397    411 182.8 -14.7  33958  286.17 0855.50
2009/04/23 07:26:17.9     -21   -332   -107    333    350 183.7 -17.9  33956  286.14 0855.50
2009/04/23 07:26:18.0      80   -311    -70    322    330 165.5 -12.4  33960  286.20 0855.50
2009/04/23 07:26:18.1      72   -267    -86    277    290 164.8 -22.3  33958  286.15 0855.50
2009/04/23 07:26:18.2     138   -251   -177    287    337 151.1 -39.2  33954  286.08 0855.50
2009/04/23 07:26:18.3      37   -295   -194    298    355 172.7 -40.6  33956  286.14 0855.50
2009/04/23 07:26:18.4      80   -249   -198    262    328 162.1 -45.3  33954  286.08 0855.50
2009/04/23 07:26:18.5       4   -180   -155    181    238 178.6 -49.3  33958  286.15 0855.50
2009/04/23 07:26:18.6      62   -188    -72    198    210 161.7 -25.1  33960  286.19 0855.50
2009/04/23 07:26:18.7      -6    -90    -86     91    125 184.0 -53.4  33958  286.17 0855.50
2009/04/23 07:26:18.8       6   -180    -90    181    202 178.0 -32.6  33962  286.22 0855.50
2009/04/23 07:26:18.9      52   -231    -85    237    251 167.1 -24.8  33960  286.20 0855.51
2009/04/23 07:26:19.0      32   -166   -117    170    206 169.1 -42.2  33958  286.17 0855.51
2009/04/23 07:26:19.1       3   -125   -161    126    204 178.2 -62.8  33958  286.17 0855.51
2009/04/23 07:26:19.2      83   -176    -90    195    214 154.7 -31.0  33954  286.08 0855.51
2009/04/23 07:26:19.3      87    -98    -57    132    143 138.6 -29.0  33952  286.07 0855.51
2009/04/23 07:26:19.4      92    -30    -63     97    115 108.4 -40.0  33954  286.10 0855.51
2009/04/23 07:26:19.5      88     -9    -74     89    115  96.1 -48.2  33954  286.08 0855.51
2009/04/23 07:26:19.6       1    -12    -98     13     98 172.0 -90.0  33956  286.14 0855.51
2009/04/23 07:26:19.7      77     23    -99     81    127  73.2 -60.8  33958  286.15 0855.51
2009/04/23 07:26:19.8     121     32    -91    126    155  75.0 -43.9  33956  286.14 0855.51
2009/04/23 07:26:19.9      54     63    -66     84    106  40.5 -47.1  33956  286.14 0855.51
2009/04/23 07:26:20.0      64     35    -38     74     83  61.1 -33.7  33956  286.14 0855.51
2009/04/23 07:26:20.1     131    -10     15    132    133  94.4   6.9  33960  286.20 0855.51
2009/04/23 07:26:20.2      75     15     56     77     95  78.6  39.7  33958  286.15 0855.51
2009/04/23 07:26:20.3      28     50     57     58     81  29.9  50.0  33958  286.17 0855.51
2009/04/23 07:26:20.4      57     83     31    101    106  34.7  17.3  33956  286.14 0855.51
2009/04/23 07:26:20.5      39     72     82     83    116  28.5  50.5  33958  286.17 0855.51
2009/04/23 07:26:20.6     111      1    127    112    169  89.2  54.3  33958  286.17 0855.51
2009/04/23 07:26:20.7      40     10    109     42    116  74.9  78.6  33960  286.20 0855.51
2009/04/23 07:26:20.8      23     23    100     33    105  45.0  80.7  33958  286.17 0855.51
2009/04/23 07:26:20.9     163     81    109    183    213  63.6  33.7  33956  286.14 0855.50
2009/04/23 07:26:21.0     205     94     74    226    238  65.4  18.1  33958  286.16 0855.50
2009/04/23 07:26:21.1     241     46     34    246    249  79.0   8.0  33960  286.18 0855.50
2009/04/23 07:26:21.2     244      0     45    245    250  90.0  10.6  33958  286.15 0855.50
2009/04/23 07:26:21.3     245    -22    114    247    272  95.2  26.6  33958  286.16 0855.50
2009/04/23 07:26:21.4     123   -123     66    175    187 134.9  21.7  33958  286.17 0855.50
2009/04/23 07:26:21.5     101   -137     91    171    193 143.5  30.6  33958  286.15 0855.50
2009/04/23 07:26:21.6      41   -133     80    140    161 162.6  32.4  33960  286.20 0855.50
2009/04/23 07:26:21.7      57   -130     39    143    149 156.3  15.3  33960  286.19 0855.50
2009/04/23 07:26:21.8     163    -11     32    164    168  93.9  11.0  33956  286.12 0855.50
2009/04/23 07:26:21.9     112      1     88    113    143  89.2  41.7  33954  286.08 0855.50
2009/04/23 07:26:22.0     122    -14    121    123    172  97.0  50.0  33956  286.12 0855.50
2009/04/23 07:26:22.1      63    -15    115     65    132 104.2  68.3  33958  286.17 0855.50
2009/04/23 07:26:22.2     114     -8    137    115    178  94.3  55.8  33960  286.19 0855.50
2009/04/23 07:26:22.3      45    -25    130     52    140 118.9  77.1  33958  286.15 0855.50
2009/04/23 07:26:22.4      15    -78    204     80    219 168.5  77.4  33958  286.15 0855.50
2009/04/23 07:26:22.5      24   -177    226    179    288 172.2  57.7  33956  286.13 0855.50
2009/04/23 07:26:22.6      20      7    220     22    221  70.0  90.0  33958  286.15 0855.50
2009/04/23 07:26:22.7      16    -36    185     40    189 156.4  88.8  33954  286.08 0855.50
2009/04/23 07:26:22.8     143    -97    198    173    262 124.2  54.3  33958  286.15 0855.50
2009/04/23 07:26:22.9      64    -40    196     76    210 122.5  77.8  33956  286.14 0855.50
2009/04/23 07:26:23.0     114     -3    167    115    202  91.7  62.6  33960  286.19 0855.50
2009/04/23 07:26:23.1     138   -116    173    181    250 130.2  49.0  33960  286.19 0855.50
2009/04/23 07:26:23.2      60   -181    107    191    218 161.5  31.4  33956  286.12 0855.50
2009/04/23 07:26:23.3      23   -105    175    108    205 167.5  65.4  33956  286.12 0855.50
2009/04/23 07:26:23.4      70   -211    236    223    324 161.7  51.9  33954  286.08 0855.50
2009/04/23 07:26:23.5      77   -342    203    351    405 167.3  32.7  33964  286.26 0855.50
2009/04/23 07:26:23.6     130   -282    121    311    333 155.3  22.5  33958  286.16 0855.50
2009/04/23 07:26:23.7      48   -238    195    243    311 168.5  43.0  33958  286.15 0855.50
2009/04/23 07:26:23.8     155   -301    111    339    357 152.7  18.1  33956  286.14 0855.50
2009/04/23 07:26:23.9     205   -291     55    357    362 144.8   8.9  33958  286.17 0855.50
2009/04/23 07:26:24.0     121   -261    181    288    340 155.1  35.3  33960  286.20 0855.50
2009/04/23 07:26:24.1     220   -357    168    420    452 148.4  23.0  33956  286.11 0855.50
2009/04/23 07:26:24.2     218   -260     83    340    351 140.0  13.8  33958  286.17 0855.50
2009/04/23 07:26:24.3     262   -230    221    349    413 131.3  35.5  33958  286.16 0855.50
2009/04/23 07:26:24.4     306   -203    181    368    410 123.6  28.1  33954  286.10 0855.50
2009/04/23 07:26:24.5      81   -299    156    310    347 164.8  28.7  33962  286.21 0855.50
2009/04/23 07:26:24.6     112   -404      0    420    421 164.5   0.0  33960  286.20 0855.50
2009/04/23 07:26:24.7     184   -299    -47    352    356 148.4  -7.7  33958  286.16 0855.50
2009/04/23 07:26:24.8     186   -321     44    372    375 149.9   6.9  33960  286.19 0855.50
2009/04/23 07:26:24.9     253   -305    111    397    413 140.3  15.7  33956  286.11 0855.49
2009/04/23 07:26:25.0     100   -424    219    436    487 166.7  28.7  33956  286.14 0855.49
2009/04/23 07:26:25.1     155   -341    172    375    412 155.6  26.3  33956  286.12 0855.49
2009/04/23 07:26:25.2     238   -436    116    497    511 151.4  13.2  33960  286.18 0855.49
2009/04/23 07:26:25.3     314   -379    190    493    528 140.3  22.3  33956  286.14 0855.49
2009/04/23 07:26:25.4     345   -522     35    627    629 146.5   3.2  33954  286.10 0855.49
2009/04/23 07:26:25.5     208   -406      8    457    458 152.9   1.1  33954  286.10 0855.49
2009/04/23 07:26:25.6      99   -396     33    409    411 166.0   4.7  33956  286.13 0855.49
2009/04/23 07:26:25.7      58   -377    -55    382    387 171.2  -8.3  33956  286.14 0855.49
2009/04/23 07:26:25.8     176   -259     33    314    316 145.7   6.1  33956  286.11 0855.49
2009/04/23 07:26:25.9      49   -361    -33    365    367 172.2  -5.2  33958  286.16 0855.49
2009/04/23 07:26:26.0      17   -368    -60    369    375 177.2  -9.3  33958  286.16 0855.49
2009/04/23 07:26:26.1      29   -339    -68    341    348 175.0 -11.3  33954  286.10 0855.49
2009/04/23 07:26:26.2      74   -279    -79    289    300 165.1 -15.4  33952  286.04 0855.49
2009/04/23 07:26:26.3     -21   -222    -73    224    236 185.6 -18.1  33954  286.08 0855.49
2009/04/23 07:26:26.4     -57   -142    -50    154    161 201.9 -23.3  33954  286.10 0855.49
2009/04/23 07:26:26.5     -88    -88     10    125    126 225.0   5.0  33956  286.14 0855.49
2009/04/23 07:26:26.6     -67   -117    -26    135    138 209.9 -10.9  33956  286.12 0855.49
2009/04/23 07:26:26.7     -32   -253    -52    256    262 187.2 -11.5  33958  286.16 0855.49
2009/04/23 07:26:26.8     -10   -236     33    237    240 182.5   8.0  33956  286.13 0855.49
2009/04/23 07:26:26.9     -47   -254     46    259    264 190.6  10.1  33950  286.01 0855.47
2009/04/23 07:26:27.0     -36   -296    -54    299    304 187.1 -10.3  33954  286.08 0855.47
2009/04/23 07:26:27.1     -17   -257    -96    258    275 183.8 -25.7  33952  286.04 0855.47
2009/04/23 07:26:27.2    -173   -209   -140    272    305 219.7 -33.7  33952  286.04 0855.47
2009/04/23 07:26:27.3    -156   -204    -70    257    267 217.4 -15.4  33952  286.04 0855.47
2009/04/23 07:26:27.4     -89   -306    -29    319    321 196.3  -5.4  33954  286.08 0855.47
2009/04/23 07:26:27.5      27   -369    -71    370    377 175.8 -10.9  33954  286.10 0855.47
2009/04/23 07:26:27.6     -81   -363    -96    373    386 192.7 -14.5  33954  286.10 0855.47
2009/04/23 07:26:27.7    -156   -256   -107    300    319 211.4 -19.7  33956  286.11 0855.47
2009/04/23 07:26:27.8     -98   -226    -64    247    256 203.6 -14.5  33960  286.18 0855.47
2009/04/23 07:26:27.9     -65   -216    -68    226    236 196.9 -21.7  33958  286.16 0855.47
2009/04/23 07:26:28.0      35   -330   -196    332    385 173.8 -37.8  33956  286.12 0855.47
2009/04/23 07:26:28.1      67   -309     -1    317    318 167.6  -0.3  33956  286.11 0855.47
2009/04/23 07:26:28.2     -13   -282    -98    283    300 182.7 -19.1  33968  286.31 0855.47
2009/04/23 07:26:28.3    -122   -346   -117    368    386 199.5 -22.8  33960  286.19 0855.47
2009/04/23 07:26:28.4     -13   -291   -118    292    314 182.7 -27.8  33956  286.13 0855.47
2009/04/23 07:26:28.5      87   -275    -57    289    295 162.4 -11.3  33958  286.16 0855.47
2009/04/23 07:26:28.6       7   -224    -37    225    229 178.2  -9.3  33958  286.15 0855.47
2009/04/23 07:26:28.7      77   -238      7    251    252 162.0   1.8  33956  286.13 0855.47
2009/04/23 07:26:28.8      62   -326     48    332    336 169.2   8.3  33958  286.16 0855.47
2009/04/23 07:26:28.9      -4   -310     72    311    320 180.9  13.1  33956  286.11 0855.45
2009/04/23 07:26:29.0     127   -247    -35    278    281 152.8  -7.3  33956  286.13 0855.45
2009/04/23 07:26:29.1     159   -236     24    285    287 145.9   5.0  33956  286.13 0855.45
2009/04/23 07:26:29.2     175   -228      6    288    289 142.4   1.2  33952  286.04 0855.45
2009/04/23 07:26:29.3     192   -365      2    413    414 152.3   0.4  33964  286.25 0855.45
2009/04/23 07:26:29.4     149   -290     36    327    330 152.8   6.4  33958  286.15 0855.45
2009/04/23 07:26:29.5     229   -195    -25    301    303 130.4  -4.9  33958  286.15 0855.45
2009/04/23 07:26:29.6     240   -174     48    297    302 126.0   9.3  33960  286.18 0855.45
2009/04/23 07:26:29.7     335   -176    122    379    399 117.7  17.8  33962  286.22 0855.45
2009/04/23 07:26:29.8     342   -387     81    517    524 138.6   8.9  33964  286.25 0855.45
2009/04/23 07:26:29.9     285   -422    139    510    529 145.9  15.3  33960  286.19 0855.45
2009/04/23 07:26:30.0     288   -395     79    490    497 143.9   9.2  33962  286.21 0855.45
2009/04/23 07:26:30.1     248   -383     27    457    458 147.0   3.5  33960  286.18 0855.45
2009/04/23 07:26:30.2     222   -436     -2    490    491 153.0  -0.3  33960  286.19 0855.45
2009/04/23 07:26:30.3     232   -485    -21    538    539 154.4  -2.2  33962  286.22 0855.45
2009/04/23 07:26:30.4     252   -491     -8    552    553 152.8  -0.9  33958  286.17 0855.45
2009/04/23 07:26:30.5     224   -496     13    545    546 155.7   1.4  33962  286.22 0855.45
2009/04/23 07:26:30.6     251   -462    -12    526    527 151.5  -1.4  33954  286.08 0855.45
2009/04/23 07:26:30.7     299   -503     18    586    587 149.3   1.8  33954  286.08 0855.45
2009/04/23 07:26:30.8     327   -529    120    622    634 148.3  11.0  33952  286.07 0855.45
2009/04/23 07:26:30.9     164   -483    192    511    545 161.2  21.5  33954  286.08 0855.45
2009/04/23 07:26:31.0     198   -492    198    531    566 158.1  21.5  33958  286.15 0855.45
2009/04/23 07:26:31.1     -19   -497    253    498    558 182.2  29.1  33956  286.13 0855.45
2009/04/23 07:26:31.2     -83   -481    132    489    507 189.9  15.1  33952  286.04 0855.45
2009/04/23 07:26:31.3    -201   -421    104    467    479 205.6  12.6  33958  286.16 0855.45
2009/04/23 07:26:31.4    -249   -299     14    390    391 219.8   2.1  33952  286.05 0855.45
2009/04/23 07:26:31.5    -235   -251    -39    344    347 223.1  -6.6  33956  286.12 0855.45
2009/04/23 07:26:31.6    -116   -359    -83    378    388 197.9 -12.4  33952  286.07 0855.45
2009/04/23 07:26:31.7    -147   -334    -34    366    368 203.8  -5.3  33954  286.09 0855.45
2009/04/23 07:26:31.8    -112   -293    -95    314    328 201.0 -21.7  33956  286.13 0855.45
2009/04/23 07:26:31.9     -35   -296    -77    299    309 186.9 -14.5  33958  286.15 0855.46
2009/04/23 07:26:32.0      -7   -429    -85    430    439 181.0 -11.2  33958  286.15 0855.46
2009/04/23 07:26:32.1     -77   -393   -116    401    418 191.2 -16.2  33958  286.17 0855.46
2009/04/23 07:26:32.2     -52   -368    -80    372    381 188.1 -12.2  33958  286.17 0855.46
2009/04/23 07:26:32.3     -35   -335    -78    337    347 186.1 -13.1  33958  286.16 0855.46
2009/04/23 07:26:32.4     -16   -326    -86    327    339 182.9 -14.8  33956  286.12 0855.46
2009/04/23 07:26:32.5       0   -299    -93    300    314 180.1 -22.2  33956  286.13 0855.46
2009/04/23 07:26:32.6      32   -263   -126    266    294 172.9 -31.6  33960  286.20 0855.46
2009/04/23 07:26:32.7      16   -215   -126    216    250 175.5 -37.5  33956  286.13 0855.46
2009/04/23 07:26:32.8      50   -228    -77    234    247 167.6 -18.3  33962  286.23 0855.46
2009/04/23 07:26:32.9      31   -249    -71    251    261 172.8 -15.8  33958  286.16 0855.46
2009/04/23 07:26:33.0      72   -372    -31    379    381 169.0  -4.8  33958  286.17 0855.46
2009/04/23 07:26:33.1      42   -455    -48    458    461 174.7  -6.1  33954  286.10 0855.46
2009/04/23 07:26:33.2     135   -471    -18    491    492 164.0  -2.1  33958  286.16 0855.46
2009/04/23 07:26:33.3     150   -556     46    577    579 164.9   4.6  33960  286.18 0855.46
2009/04/23 07:26:33.4     143   -495     67    516    521 163.9   7.5  33958  286.16 0855.46
2009/04/23 07:26:33.5     115   -510     39    523    525 167.2   4.3  33958  286.17 0855.46
2009/04/23 07:26:33.6      64   -528    -20    532    533 173.0  -2.2  33962  286.24 0855.46
2009/04/23 07:26:33.7      80   -458    -94    466    476 170.0 -11.5  33962  286.23 0855.46
2009/04/23 07:26:33.8     111   -486    -91    499    508 167.1 -10.4  33956  286.14 0855.46
2009/04/23 07:26:33.9     142   -427    -76    451    458 161.6  -9.6  33960  286.18 0855.46
2009/04/23 07:26:34.0     134   -405    -74    427    434 161.6  -9.9  33962  286.22 0855.46
2009/04/23 07:26:34.1     153   -459    -68    485    490 161.5  -8.0  33956  286.14 0855.46
2009/04/23 07:26:34.2     197   -384    -38    432    434 152.8  -5.1  33952  286.06 0855.46
2009/04/23 07:26:34.3     208   -490     46    533    536 156.9   5.0  33958  286.17 0855.46
2009/04/23 07:26:34.4     187   -412    -86    453    462 155.5 -10.8  33962  286.22 0855.46
2009/04/23 07:26:34.5     190   -476     10    513    514 158.2   1.2  33956  286.12 0855.46
2009/04/23 07:26:34.6      53   -612    -19    615    616 175.0  -1.8  33958  286.15 0855.46
2009/04/23 07:26:34.7      33   -595    -83    596    603 176.8  -8.0  33954  286.09 0855.46
2009/04/23 07:26:34.8      57   -586    -64    589    593 174.4  -6.3  33956  286.11 0855.46
2009/04/23 07:26:34.9      49   -588    -74    591    596 175.2  -7.2  33956  286.13 0855.46
2009/04/23 07:26:35.0      61   -562    -72    566    571 173.8  -7.3  33952  286.04 0855.46
2009/04/23 07:26:35.1      25   -536    -61    537    541 177.3  -6.6  33954  286.10 0855.46
2009/04/23 07:26:35.2      43   -485    -80    487    494 174.9  -9.4  33954  286.09 0855.46
2009/04/23 07:26:35.3      78   -446   -102    453    465 170.0 -12.7  33952  286.05 0855.46
2009/04/23 07:26:35.4      35   -577     29    579    580 176.5   2.9  33954  286.09 0855.46
2009/04/23 07:26:35.5      33   -608     57    609    612 176.9   5.4  33954  286.08 0855.46
2009/04/23 07:26:35.6      65   -535     70    539    544 173.0   7.5  33952  286.07 0855.46
2009/04/23 07:26:35.7     -32   -529     -2    530    531 183.5  -0.3  33954  286.10 0855.46
2009/04/23 07:26:35.8     -24   -488    -80    489    496 182.9  -9.3  33954  286.09 0855.46
2009/04/23 07:26:35.9     -52   -444    -95    448    459 186.7 -12.0  33958  286.17 0855.46
2009/04/23 07:26:36.0     -56   -410   -114    414    430 187.8 -15.5  33958  286.15 0855.46
2009/04/23 07:26:36.1     -60   -365   -117    370    388 189.4 -22.8  33960  286.19 0855.46
2009/04/23 07:26:36.2     -75   -332   -188    341    389 192.8 -35.8  33962  286.21 0855.46
2009/04/23 07:26:36.3    -103   -346   -147    362    390 196.7 -27.6  33958  286.17 0855.46
2009/04/23 07:26:36.4     -16   -340   -117    341    361 182.8 -19.0  33956  286.14 0855.46
2009/04/23 07:26:36.5     -41   -385   -121    388    407 186.1 -17.3  33958  286.16 0855.46
2009/04/23 07:26:36.6     -96   -316    -95    331    344 196.9 -20.9  33956  286.14 0855.46
2009/04/23 07:26:36.7    -128   -343   -118    367    386 200.5 -17.9  33958  286.17 0855.46
2009/04/23 07:26:36.8    -136   -301   -110    331    348 204.3 -23.8  33958  286.17 0855.46
2009/04/23 07:26:36.9     -68   -325   -105    333    350 191.9 -17.5  33962  286.21 0855.46
2009/04/23 07:26:37.0     -36   -257    -90    260    276 188.0 -19.1  33960  286.18 0855.46
2009/04/23 07:26:37.1     -72   -298   -104    307    324 193.6 -23.6  33958  286.16 0855.46
2009/04/23 07:26:37.2    -101   -265   -117    284    307 201.0 -27.8  33960  286.18 0855.46
2009/04/23 07:26:37.3     -93   -291   -112    306    325 197.8 -25.4  33958  286.15 0855.46
2009/04/23 07:26:37.4     -83   -307   -104    319    336 195.2 -18.2  33960  286.19 0855.46
2009/04/23 07:26:37.5    -149   -133   -137    200    242 228.2 -42.0  33958  286.17 0855.46
2009/04/23 07:26:37.6    -190   -121   -123    226    257 237.4 -35.4  33958  286.15 0855.46
2009/04/23 07:26:37.7    -111   -199   -101    229    250 209.2 -29.7  33958  286.16 0855.46
2009/04/23 07:26:37.8     -93   -196    -83    218    233 205.4 -25.9  33958  286.17 0855.46
2009/04/23 07:26:37.9     -34   -276   -102    279    297 187.1 -25.4  33958  286.15 0855.47
2009/04/23 07:26:38.0     -79   -295    -95    306    320 195.1 -22.3  33956  286.13 0855.47
2009/04/23 07:26:38.1    -112    -58     -7    127    128 242.5  -3.1  33952  286.05 0855.47
2009/04/23 07:26:38.2    -167     22    -96    169    194 277.7 -36.5  33958  286.15 0855.47
2009/04/23 07:26:38.3     -21     21    -43     30     52 315.0 -65.9  33952  286.07 0855.47
2009/04/23 07:26:38.4      52   -168     16    177    178 162.6   5.4  33960  286.19 0855.47
2009/04/23 07:26:38.5      95   -216     97    237    256 156.3  23.4  33958  286.16 0855.47
2009/04/23 07:26:38.6     -48    -88    124    101    159 208.5  56.9  33956  286.14 0855.47
2009/04/23 07:26:38.7    -172    -52    -77    180    195 252.9 -29.0  33960  286.20 0855.47
2009/04/23 07:26:38.8    -123   -134    -80    182    198 222.5 -29.6  33960  286.19 0855.47
2009/04/23 07:26:38.9     -37   -111    -86    118    146 198.7 -44.1  33958  286.17 0855.47
2009/04/23 07:26:39.0       0    -97    -66     98    118 180.0 -41.8  33962  286.22 0855.47
2009/04/23 07:26:39.1      33   -196    -84    199    216 170.4 -28.5  33962  286.22 0855.47
2009/04/23 07:26:39.2       2   -156    -67    157    170 179.1 -29.0  33958  286.15 0855.47
2009/04/23 07:26:39.3     -18   -134     -9    136    137 188.0  -4.1  33962  286.24 0855.47
2009/04/23 07:26:39.4     -78    -44    -47     90    101 240.7 -34.2  33960  286.19 0855.47
2009/04/23 07:26:39.5     -99    -59    -14    116    117 239.3  -7.2  33962  286.22 0855.47
2009/04/23 07:26:39.6     -80    -70    -27    107    111 228.7 -14.5  33958  286.17 0855.47
2009/04/23 07:26:39.7     -54     18    -27     58     63 288.6 -30.6  33960  286.20 0855.47
2009/04/23 07:26:39.8     -50     41     -1     66     67 309.5  -1.2  33962  286.22 0855.47
2009/04/23 07:26:39.9     -10     22     51     25     56 336.4  72.8  33958  286.15 0855.48
2009/04/23 07:26:40.0     -14     22     54     27     60 327.4  71.9  33960  286.19 0855.48
2009/04/23 07:26:40.1     -23     15     17     28     32 304.2  35.5  33962  286.24 0855.48
2009/04/23 07:26:40.2       2     27    -24     28     36   4.5 -50.2  33960  286.20 0855.48
2009/04/23 07:26:40.3      27     49    -42     57     70  29.0 -44.1  33960  286.20 0855.48
2009/04/23 07:26:40.4      97    -22    -40    100    107 103.3 -27.4  33960  286.19 0855.48
2009/04/23 07:26:40.5     135    -36    -40    140    145 105.1 -20.7  33958  286.17 0855.48
2009/04/23 07:26:40.6     147      0    -24    148    151  90.4  -9.3  33958  286.17 0855.48
2009/04/23 07:26:40.7     117      8      1    118    119  85.7   0.7  33960  286.20 0855.48
2009/04/23 07:26:40.8     146    -30     35    150    155 101.9  13.2  33962  286.24 0855.48
2009/04/23 07:26:40.9     184    -66    115    196    227 110.0  33.4  33956  286.14 0855.48
2009/04/23 07:26:41.0     140    -42     82    147    168 106.9  31.6  33962  286.22 0855.48
2009/04/23 07:26:41.1     146   -100     65    178    189 124.4  20.7  33958  286.17 0855.48
2009/04/23 07:26:41.2      58   -103    -41    119    125 150.6 -23.3  33956  286.12 0855.48
2009/04/23 07:26:41.3      47   -117    -25    127    130 158.2 -11.3  33960  286.20 0855.48
2009/04/23 07:26:41.4       0    -82     -8     83     84 180.0  -5.6  33956  286.14 0855.48
2009/04/23 07:26:41.5     -20   -133     83    135    158 188.9  34.4  33958  286.15 0855.48
2009/04/23 07:26:41.6     -80   -162     59    181    191 206.3  18.1  33958  286.15 0855.48
2009/04/23 07:26:41.8     -55   -128    -39    140    146 203.2 -15.5  33960  286.20 0855.48
2009/04/23 07:26:41.9     -26   -110    -18    114    116 193.4  -9.3  33956  286.14 0855.48
2009/04/23 07:26:42.0     -53   -134      1    145    146 201.8   0.7  33958  286.17 0855.48
2009/04/23 07:26:42.1     -44   -133     10    141    142 198.3   4.4  33958  286.17 0855.48
2009/04/23 07:26:42.2     -42   -158     29    164    167 194.9  10.1  33960  286.19 0855.48
2009/04/23 07:26:42.3     -92   -180     41    203    208 207.1  11.6  33958  286.17 0855.48
2009/04/23 07:26:42.4      -2   -152      4    153    154 180.9   1.8  33958  286.15 0855.48
2009/04/23 07:26:42.5      43   -211    135    216    254 168.4  35.2  33962  286.21 0855.48
2009/04/23 07:26:42.6     137   -171    197    220    295 141.3  46.4  33964  286.26 0855.48
2009/04/23 07:26:42.7      76   -226    198    239    310 161.3  43.8  33962  286.21 0855.48
2009/04/23 07:26:42.8      20   -247    135    248    282 175.3  31.3  33962  286.21 0855.48
2009/04/23 07:26:42.9      12   -259     81    260    273 177.3  17.4  33960  286.20 0855.48
2009/04/23 07:26:43.0      93   -196     17    218    219 154.5   4.6  33960  286.19 0855.48
2009/04/23 07:26:43.1      59   -151     -1    163    164 158.6  -0.5  33960  286.19 0855.48
2009/04/23 07:26:43.2      46    -93    -50    104    115 153.7 -31.7  33958  286.15 0855.48
2009/04/23 07:26:43.3      34   -167    -21    171    173 168.4  -7.2  33958  286.17 0855.48
2009/04/23 07:26:43.4      92   -129      5    159    160 144.4   2.1  33960  286.19 0855.48
2009/04/23 07:26:43.5     107   -121     43    162    168 138.6  15.0  33958  286.17 0855.48
2009/04/23 07:26:43.6     143   -172     41    224    228 140.3  10.6  33958  286.15 0855.48
2009/04/23 07:26:43.7     145   -221      2    265    266 146.8   0.5  33958  286.16 0855.48
2009/04/23 07:26:43.8     161   -244      1    293    294 146.6   0.2  33958  286.16 0855.48
2009/04/23 07:26:43.9     173   -274     12    325    326 147.7   2.2  33956  286.13 0855.48
2009/04/23 07:26:44.0     161   -244     36    293    296 146.6   7.1  33962  286.21 0855.48
2009/04/23 07:26:44.1     116   -227     17    256    257 152.8   3.8  33960  286.18 0855.48
2009/04/23 07:26:44.2     103   -254      3    275    276 157.9   0.8  33958  286.16 0855.48
2009/04/23 07:26:44.3     124   -257    -47    286    290 154.1  -9.4  33954  286.08 0855.48
2009/04/23 07:26:44.4     177   -214     -2    278    279 140.4  -0.5  33950  286.03 0855.48
2009/04/23 07:26:44.5     169   -210     13    270    271 141.2   2.8  33958  286.15 0855.48
2009/04/23 07:26:44.6     103   -240     34    262    265 156.8   7.5  33954  286.08 0855.48
2009/04/23 07:26:44.7      78   -280     35    291    294 164.4   6.9  33956  286.11 0855.48
2009/04/23 07:26:44.8      81   -327     40    338    341 166.0   6.8  33958  286.16 0855.48
2009/04/23 07:26:44.9      93   -298     54    313    318 162.6   9.9  33956  286.11 0855.48
2009/04/23 07:26:45.0      84   -324     40    335    338 165.3   6.9  33958  286.16 0855.48
2009/04/23 07:26:45.1     140   -301     55    332    337 155.1   9.5  33958  286.17 0855.48
2009/04/23 07:26:45.2     121   -306     45    330    334 158.4   7.8  33958  286.17 0855.48
2009/04/23 07:26:45.3      98   -299     24    315    316 161.7   4.4  33956  286.13 0855.48
2009/04/23 07:26:45.4      29   -281     29    283    285 174.0   5.9  33958  286.16 0855.48
2009/04/23 07:26:45.5      -7   -306     37    307    310 181.4   6.9  33956  286.11 0855.48
2009/04/23 07:26:45.6      -7   -305    -19    306    307 181.4  -3.7  33956  286.11 0855.48
2009/04/23 07:26:45.7     -29   -315     -4    317    318 185.3  -0.9  33956  286.11 0855.48
2009/04/23 07:26:45.8     -27   -291      2    293    294 185.3   0.5  33954  286.09 0855.48
2009/04/23 07:26:45.9     -15   -281    -11    282    283 183.1  -2.2  33954  286.08 0855.48
2009/04/23 07:26:46.0      -5   -283    -56    284    290 181.1 -11.3  33956  286.13 0855.47
2009/04/23 07:26:46.1      86   -272    -57    286    292 162.4 -11.3  33956  286.13 0855.47
2009/04/23 07:26:46.2     104   -291    -20    310    311 160.2  -3.7  33956  286.11 0855.47
2009/04/23 07:26:46.3      81   -257    -74    270    281 162.4 -15.4  33954  286.08 0855.47
2009/04/23 07:26:46.4      83   -257    -39    271    274 162.1  -8.2  33952  286.06 0855.47
2009/04/23 07:26:46.5     116   -295     -2    318    319 158.4  -0.5  33956  286.11 0855.47
2009/04/23 07:26:46.6      86   -275     -1    289    290 162.6  -0.3  33958  286.16 0855.47
2009/04/23 07:26:46.7      61   -280    -48    287    292 167.6  -9.6  33954  286.08 0855.47
2009/04/23 07:26:46.8      92   -202    -52    223    229 155.5 -13.2  33952  286.05 0855.47
2009/04/23 07:26:46.9     113   -202    -73    232    244 150.8 -17.6  33954  286.09 0855.47
2009/04/23 07:26:47.0      54   -314      0    319    320 170.2   0.0  33956  286.13 0855.47
2009/04/23 07:26:47.1      94   -314     58    328    334 163.3  10.1  33954  286.10 0855.47
2009/04/23 07:26:47.2      62   -329     24    335    336 169.2   4.2  33954  286.10 0855.47
2009/04/23 07:26:47.3      31   -301    -16    303    304 174.0  -3.2  33954  286.08 0855.47
2009/04/23 07:26:47.4      41   -250    -24    254    256 170.7  -5.6  33954  286.08 0855.47
2009/04/23 07:26:47.5      19   -255    -10    256    257 175.6  -2.2  33956  286.13 0855.47
2009/04/23 07:26:47.6      26   -241    -21    243    245 173.8  -5.1  33954  286.09 0855.47
2009/04/23 07:26:47.7       2   -212    -72    213    225 179.3 -18.7  33956  286.14 0855.47
2009/04/23 07:26:47.8      22   -287    -16    288    289 175.6  -3.2  33956  286.11 0855.47
2009/04/23 07:26:47.9     -22   -359    -30    360    362 183.6  -4.9  33952  286.07 0855.47
2009/04/23 07:26:48.0     -25   -331     25    332    333 184.4   4.3  33956  286.14 0855.48
2009/04/23 07:26:48.1     -62   -347    -47    353    357 190.3  -7.6  33956  286.14 0855.48
2009/04/23 07:26:48.2    -105   -316     -3    334    335 198.5  -0.6  33954  286.09 0855.48
2009/04/23 07:26:48.3    -129   -273     31    302    304 205.3   5.9  33956  286.11 0855.48
2009/04/23 07:26:48.4    -130   -308     16    335    336 203.0   2.8  33956  286.14 0855.48
2009/04/23 07:26:48.5    -106   -312    -75    330    339 198.9 -12.9  33956  286.12 0855.48
2009/04/23 07:26:48.6     -97   -334   -119    348    368 196.3 -18.9  33958  286.16 0855.48
2009/04/23 07:26:48.7     -97   -296    -86    312    323 198.3 -20.1  33956  286.13 0855.48
2009/04/23 07:26:48.8     -86   -306    -96    319    333 195.8 -21.5  33958  286.15 0855.48
2009/04/23 07:26:48.9    -109   -272   -106    294    312 201.9 -25.1  33962  286.21 0855.48
2009/04/23 07:26:49.0     -98   -320    -94    335    347 197.2 -20.3  33962  286.21 0855.48
2009/04/23 07:26:49.1     -71   -298   -109    307    325 193.4 -24.7  33962  286.21 0855.48
2009/04/23 07:26:49.2     -58   -274   -101    281    298 192.0 -25.1  33962  286.23 0855.48
2009/04/23 07:26:49.3     -13   -277    -91    278    292 182.7 -23.8  33962  286.21 0855.48
2009/04/23 07:26:49.4      16   -242    -95    243    260 176.2 -26.9  33962  286.21 0855.48
2009/04/23 07:26:49.5     -34   -199    -61    202    212 189.7 -16.8  33962  286.22 0855.48
2009/04/23 07:26:49.6      -9   -218    -31    219    222 182.5  -8.2  33960  286.19 0855.48
2009/04/23 07:26:49.7       0   -184    -37    185    189 180.0 -11.3  33960  286.20 0855.48
2009/04/23 07:26:49.8     -14   -152    -40    153    159 185.3 -14.7  33960  286.20 0855.48
2009/04/23 07:26:49.9     -69   -127    -42    145    150 208.5 -20.7  33956  286.14 0855.48
2009/04/23 07:26:50.0     -55   -119   -107    132    169 204.9 -47.9  33954  286.08 0855.48
2009/04/23 07:26:50.1       4   -158    -67    159    172 178.2 -28.5  33958  286.15 0855.48
2009/04/23 07:26:50.2      14   -141    -97    142    171 174.2 -42.0  33960  286.19 0855.48
2009/04/23 07:26:50.3      13   -123   -141    124    187 173.7 -58.7  33958  286.15 0855.48
2009/04/23 07:26:50.4     -22    -72   -102     76    127 196.9 -63.4  33960  286.19 0855.48
2009/04/23 07:26:50.5      18   -128    -75    130    150 172.0 -36.8  33960  286.19 0855.48
2009/04/23 07:26:50.6      25    -95    -77     99    125 165.3 -46.1  33958  286.15 0855.48
2009/04/23 07:26:50.7      45    -55    -89     72    114 140.3 -60.8  33962  286.22 0855.48
2009/04/23 07:26:50.8      42   -108    -99    117    153 158.6 -48.7  33960  286.19 0855.48
2009/04/23 07:26:50.9      43   -128    -86    136    160 161.3 -39.9  33958  286.17 0855.48
2009/04/23 07:26:51.0      42   -105   -102    114    152 158.2 -51.3  33956  286.12 0855.48
2009/04/23 07:26:51.1      13    -81   -113     83    140 170.7 -64.9  33958  286.15 0855.48
2009/04/23 07:26:51.2      80    -66    -79    104    130 129.5 -46.0  33958  286.15 0855.48
2009/04/23 07:26:51.3      35    -66    -67     75    100 151.9 -51.3  33960  286.19 0855.48
2009/04/23 07:26:51.4      67    -92   -109    114    157 143.9 -53.1  33962  286.24 0855.48
2009/04/23 07:26:51.5      65    -65   -103     93    138 134.9 -57.1  33960  286.20 0855.48
2009/04/23 07:26:51.6      65   -102    -70    122    140 147.4 -36.8  33962  286.24 0855.48
2009/04/23 07:26:51.7     103   -120    -88    159    181 139.5 -35.8  33962  286.24 0855.48
2009/04/23 07:26:51.8     139   -167    -68    218    228 140.4 -22.5  33962  286.24 0855.48
2009/04/23 07:26:51.9     154   -145    -67    212    222 133.2 -22.5  33964  286.25 0855.48
2009/04/23 07:26:52.0     170   -159    -64    233    241 133.1 -20.0  33964  286.25 0855.48
2009/04/23 07:26:52.1     168   -130    -98    213    234 127.8 -30.6  33962  286.22 0855.48
2009/04/23 07:26:52.2     166   -126    -81    209    224 127.3 -26.7  33962  286.24 0855.48
2009/04/23 07:26:52.3     215   -128    -27    251    253 120.7  -6.2  33964  286.25 0855.48
2009/04/23 07:26:52.4     222    -94    -17    242    243 113.1  -4.1  33962  286.21 0855.48
2009/04/23 07:26:52.5     199    -96     26    221    223 115.8   6.9  33962  286.22 0855.48
2009/04/23 07:26:52.6     178    -20    -18    180    182  96.6  -6.0  33962  286.24 0855.48
2009/04/23 07:26:52.7     181    -61    -67    192    203 108.6 -24.0  33962  286.24 0855.48
2009/04/23 07:26:52.8     197    -59    -53    206    213 106.8 -14.5  33962  286.22 0855.48
2009/04/23 07:26:52.9     207    -38     10    211    212 100.6   2.9  33962  286.22 0855.48
2009/04/23 07:26:53.0     199    -49     11    206    207 103.9   3.3  33960  286.20 0855.48
2009/04/23 07:26:53.1     173   -106     48    204    210 121.5  13.2  33958  286.17 0855.48
2009/04/23 07:26:53.2     197   -110     25    226    228 119.3   6.5  33962  286.24 0855.48
2009/04/23 07:26:53.3     223   -146     97    267    284 123.3  20.9  33962  286.23 0855.48
2009/04/23 07:26:53.4     250   -164    110    300    319 123.3  21.0  33962  286.21 0855.48
2009/04/23 07:26:53.5     215   -128     60    251    259 120.7  13.5  33962  286.21 0855.48
2009/04/23 07:26:53.6     154   -164      7    226    227 136.8   1.8  33960  286.20 0855.48
2009/04/23 07:26:53.7     175   -170     47    245    250 134.2  11.0  33964  286.25 0855.48
2009/04/23 07:26:53.8     216   -135     27    255    257 122.0   6.1  33960  286.20 0855.48
2009/04/23 07:26:53.9     206    -62      6    216    217 106.8   1.8  33962  286.24 0855.48
2009/04/23 07:26:54.0     173   -100     70    200    213 120.0  19.4  33962  286.22 0855.48
2009/04/23 07:26:54.1     221   -145     72    265    275 123.3  15.2  33960  286.20 0855.48
2009/04/23 07:26:54.2     228   -149     38    273    276 123.1   8.0  33962  286.23 0855.48
2009/04/23 07:26:54.3     204   -131     65    243    252 122.9  15.0  33962  286.23 0855.48
2009/04/23 07:26:54.4     234   -106     83    257    271 114.4  17.9  33960  286.20 0855.48
2009/04/23 07:26:54.5     212    -94     80    232    246 114.0  19.2  33964  286.25 0855.48
2009/04/23 07:26:54.6     153   -103     92    185    206 124.0  28.2  33960  286.19 0855.48
2009/04/23 07:26:54.7     138   -136    118    194    227 134.6  34.4  33962  286.22 0855.48
2009/04/23 07:26:54.8     169   -120    143    208    252 125.5  37.6  33962  286.23 0855.48
2009/04/23 07:26:54.9     158   -170    130    233    266 137.2  31.4  33960  286.20 0855.48
2009/04/23 07:26:55.0     190   -132    124    232    263 124.9  30.6  33958  286.16 0855.47
2009/04/23 07:26:55.1     186    -82    189    204    278 113.7  47.9  33964  286.26 0855.47
2009/04/23 07:26:55.2     223   -175    168    284    329 128.2  33.6  33960  286.20 0855.47
2009/04/23 07:26:55.3     201    -98    149    224    269 116.0  36.5  33958  286.15 0855.47
2009/04/23 07:26:55.4     171    -34    146    175    227 101.5  43.8  33960  286.20 0855.47
2009/04/23 07:26:55.5      54      0    138     55    148  90.0  77.1  33962  286.24 0855.47
2009/04/23 07:26:55.6      30     -9    107     32    111 108.2  82.8  33962  286.22 0855.47
2009/04/23 07:26:55.7      23     46     77     52     92  27.2  63.2  33960  286.19 0855.47
2009/04/23 07:26:55.8      65    -36    140     75    158 118.8  69.6  33960  286.19 0855.47
2009/04/23 07:26:55.9      26    -45    107     53    119 150.1  71.4  33960  286.19 0855.47
2009/04/23 07:26:56.0      16     16    114     23    116  45.0  89.1  33956  286.14 0855.47
2009/04/23 07:26:56.1      14    -20     99     25    102 143.9  85.4  33960  286.19 0855.47
2009/04/23 07:26:56.2      27      0    119     28    122  90.0  86.9  33960  286.19 0855.47
2009/04/23 07:26:56.3      80     23    151     84    172  74.1  68.5  33960  286.20 0855.47
2009/04/23 07:26:56.4      61      2    166     62    177  87.4  78.6  33956  286.12 0855.47
2009/04/23 07:26:56.5      54     13    114     56    127  75.8  71.9  33958  286.15 0855.47
2009/04/23 07:26:56.6      28      2    143     29    145  85.7  89.0  33960  286.19 0855.47
2009/04/23 07:26:56.7      -5     19     91     20     93 343.1  88.5  33960  286.20 0855.47
2009/04/23 07:26:56.8      56    -27    110     63    126 116.2  67.7  33960  286.19 0855.47
2009/04/23 07:26:56.9      37    -17    103     41    110 115.4  77.1  33960  286.20 0855.47
2009/04/23 07:26:57.0      81    -11    133     82    156  98.4  64.7  33958  286.17 0855.47
2009/04/23 07:26:57.1      45    -23    124     51    134 117.1  77.0  33960  286.20 0855.47
2009/04/23 07:26:57.2     113    -52    117    125    171 114.8  48.2  33960  286.20 0855.47
2009/04/23 07:26:57.3     126    -54    137    138    194 113.1  50.5  33962  286.24 0855.47
2009/04/23 07:26:57.4     155    -31    143    159    213 101.5  46.9  33964  286.25 0855.47
2009/04/23 07:26:57.5     151    -30    119    155    195 101.5  41.6  33964  286.25 0855.47
2009/04/23 07:26:57.6     131    -17    140    133    193  97.5  51.6  33962  286.24 0855.47
2009/04/23 07:26:57.7      46     -3    137     47    144  94.4  81.2  33962  286.24 0855.47
2009/04/23 07:26:57.8       7    -24     98     26    101 163.1  84.9  33960  286.20 0855.47
2009/04/23 07:26:57.9      95    -58    135    112    175 121.5  56.3  33958  286.17 0855.47
2009/04/23 07:26:58.0     111    -14    115    112    160  97.5  50.7  33960  286.20 0855.47
2009/04/23 07:26:58.1      98    -34    138    104    172 109.5  59.2  33960  286.19 0855.47
2009/04/23 07:26:58.2     103    -54    135    117    178 117.5  54.8  33962  286.22 0855.47
2009/04/23 07:26:58.3     113    -15    137    115    178  97.9  55.8  33962  286.24 0855.47
2009/04/23 07:26:58.4     113    -22    138    116    180 101.4  55.8  33962  286.24 0855.47
2009/04/23 07:26:58.5     135   -111    129    176    218 129.5  39.7  33962  286.24 0855.47
2009/04/23 07:26:58.6     163    -54    136    172    219 108.6  42.4  33960  286.19 0855.47
2009/04/23 07:26:58.7     160    -80    136    180    225 116.6  41.2  33960  286.19 0855.47
2009/04/23 07:26:58.8     134    -84    123    159    201 122.0  41.7  33960  286.19 0855.47
2009/04/23 07:26:58.9     157    -85    101    179    205 118.4  31.9  33960  286.20 0855.47
2009/04/23 07:26:59.0     141    -90     90    168    190 122.5  30.6  33958  286.17 0855.47
2009/04/23 07:26:59.1     126    -70     98    145    175 119.3  37.0  33960  286.20 0855.47
2009/04/23 07:26:59.2     141   -103     93    175    198 126.2  30.3  33962  286.22 0855.47
2009/04/23 07:26:59.3     150   -126     76    196    210 130.0  22.3  33956  286.14 0855.47
2009/04/23 07:26:59.4     175   -139     76    224    237 128.6  18.9  33960  286.20 0855.47
2009/04/23 07:26:59.5     144   -163     69    218    229 138.6  17.7  33960  286.19 0855.47
2009/04/23 07:26:59.6     126   -173     90    215    233 143.9  23.8  33958  286.17 0855.47
2009/04/23 07:26:59.7      92   -192    115    213    242 154.4  30.8  33960  286.18 0855.47
2009/04/23 07:26:59.8      91   -182     94    204    224 153.3  27.0  33958  286.17 0855.47
2009/04/23 07:26:59.9     116   -127     63    173    184 137.7  20.7  33958  286.17 0855.47
2009/04/23 07:27:00.0     153    -87     62    177    188 119.8  19.4  33960  286.20 0855.47
2009/04/23 07:27:00.1     162    -65    110    175    206 112.0  35.5  33956  286.12 0855.47
2009/04/23 07:27:00.2     114    -75    114    137    178 123.3  44.1  33960  286.19 0855.47
2009/04/23 07:27:00.3      38    -59     96     71    119 147.5  60.0  33956  286.14 0855.47
2009/04/23 07:27:00.4     132    -35     94    137    166 105.1  37.6  33956  286.14 0855.47
2009/04/23 07:27:00.5     136    -27    123    139    185 101.4  46.2  33958  286.15 0855.47
2009/04/23 07:27:00.6     119    -23    128    122    176 101.0  51.6  33956  286.12 0855.47
2009/04/23 07:27:00.7      55    -50    121     75    142 132.2  64.7  33956  286.14 0855.47
2009/04/23 07:27:00.8     -19     41     68     46     82 335.5  62.6  33960  286.20 0855.47
2009/04/23 07:27:00.9      81     -7     98     82    127  95.2  56.3  33958  286.15 0855.47
2009/04/23 07:27:01.0      97    -29    116    102    154 106.8  54.3  33956  286.12 0855.47
2009/04/23 07:27:01.1     115    -45    111    124    166 111.7  46.4  33954  286.10 0855.47
2009/04/23 07:27:01.2      53    -33     88     63    108 122.4  60.5  33956  286.14 0855.47
2009/04/23 07:27:01.3      33    -36     68     50     84 137.7  60.0  33956  286.14 0855.47
2009/04/23 07:27:01.4      17    -51     69     54     87 161.3  57.9  33958  286.15 0855.47
2009/04/23 07:27:01.5     -13    -14     80     20     82 223.2  85.9  33952  286.07 0855.47
2009/04/23 07:27:01.6      32      0     48     33     58  89.2  63.6  33958  286.17 0855.47
2009/04/23 07:27:01.7       7      3     66      8     66  64.7  90.0  33956  286.14 0855.47
2009/04/23 07:27:01.8     -41      8     54     42     68 281.5  56.4  33956  286.12 0855.47
2009/04/23 07:27:01.9     -11    -74    122     75    143 188.9  65.1  33956  286.12 0855.47
2009/04/23 07:27:02.0       0    -81    136     82    158 180.5  66.2  33956  286.14 0855.47
2009/04/23 07:27:02.1     -15    -87    131     89    158 190.2  62.6  33954  286.10 0855.47
2009/04/23 07:27:02.2      70      5     99     71    121  85.7  60.6  33954  286.08 0855.47
2009/04/23 07:27:02.3      20    -74     92     77    119 164.9  56.3  33956  286.14 0855.47
2009/04/23 07:27:02.4      71    -51    100     88    133 125.5  54.2  33958  286.15 0855.47
2009/04/23 07:27:02.5     -11    -25     87     28     91 203.6  81.2  33956  286.12 0855.47
2009/04/23 07:27:02.6     -15    -31     74     35     81 207.2  73.5  33960  286.19 0855.47
2009/04/23 07:27:02.7      -4    -53     61     54     81 184.4  53.7  33960  286.19 0855.47
2009/04/23 07:27:02.8      -8    -59     59     60     84 188.0  50.5  33960  286.19 0855.47
2009/04/23 07:27:02.9      -7    -85    104     86    134 185.3  56.3  33958  286.17 0855.47
2009/04/23 07:27:03.0     -42   -129    125    136    184 198.3  47.9  33960  286.19 0855.46
2009/04/23 07:27:03.1     -50   -127    160    137    210 201.8  55.4  33958  286.15 0855.46
2009/04/23 07:27:03.2     -68    -87    152    111    188 218.3  60.5  33954  286.10 0855.46
2009/04/23 07:27:03.3     -74    -79    137    109    175 222.8  57.5  33958  286.17 0855.46
2009/04/23 07:27:03.4    -131   -134     82    188    205 224.3  25.2  33958  286.17 0855.46
2009/04/23 07:27:03.5     -59    -97     70    114    133 211.2  35.5  33958  286.17 0855.46
2009/04/23 07:27:03.6     -61   -103     82    120    145 210.7  37.6  33956  286.12 0855.46
2009/04/23 07:27:03.7     -62   -105     74    123    143 210.7  34.0  33952  286.05 0855.46
2009/04/23 07:27:03.8     -38   -100     63    108    125 200.9  33.4  33952  286.05 0855.46
2009/04/23 07:27:03.9     -70   -114     88    134    160 211.6  36.5  33954  286.10 0855.46
2009/04/23 07:27:04.0     -12    -98     63     99    117 187.1  35.5  33950  286.02 0855.46
2009/04/23 07:27:04.1      -7    -94     85     95    127 184.5  46.4  33952  286.05 0855.46
2009/04/23 07:27:04.2     -13    -40     94     43    103 197.8  74.0  33952  286.05 0855.46
2009/04/23 07:27:04.3     -56    -37     75     68    101 236.7  52.7  33946  285.95 0855.46
2009/04/23 07:27:04.4    -100    -63    107    119    160 237.5  46.6  33946  285.97 0855.46
2009/04/23 07:27:04.5     -36   -107    126    113    169 198.7  53.5  33942  285.90 0855.46
2009/04/23 07:27:04.6     -76     10     54     77     94 277.9  38.0  33948  285.98 0855.46
2009/04/23 07:27:04.7    -112     36      1    118    119 288.2   0.7  33950  286.02 0855.46
2009/04/23 07:27:04.8     -71    -68     11     99    100 226.4   6.5  33948  286.00 0855.46
2009/04/23 07:27:04.9     -76   -110    -15    134    135 214.7  -6.7  33952  286.07 0855.46
2009/04/23 07:27:05.0      38   -132     92    138    165 164.0  36.7  33952  286.05 0855.46
2009/04/23 07:27:05.1      53   -152    119    162    201 160.8  39.9  33954  286.08 0855.46
2009/04/23 07:27:05.2     -17   -132    104    134    169 187.6  42.0  33952  286.07 0855.46
2009/04/23 07:27:05.3     -46   -126     55    135    145 200.1  23.1  33954  286.10 0855.46
2009/04/23 07:27:05.4     -42   -126     31    134    138 198.7  13.1  33954  286.10 0855.46
2009/04/23 07:27:05.5     -84    -82    -37    118    124 226.0 -17.6  33954  286.10 0855.46
2009/04/23 07:27:05.6    -110    -60    -23    126    129 241.1 -10.3  33954  286.08 0855.46
2009/04/23 07:27:05.7     -36    -55     22     66     70 213.4  18.4  33952  286.07 0855.46
2009/04/23 07:27:05.8     -89    -57     41    106    113 237.1  22.0  33954  286.08 0855.46
2009/04/23 07:27:05.9    -103    -21     37    106    113 258.1  19.4  33952  286.07 0855.46
2009/04/23 07:27:06.0    -103    -86     53    135    145 230.4  23.0  33954  286.10 0855.46
2009/04/23 07:27:06.1     -76   -106     90    131    158 216.0  37.8  33950  286.03 0855.46
2009/04/23 07:27:06.2     -51    -63     84     82    117 218.7  50.2  33954  286.08 0855.46
2009/04/23 07:27:06.3     -40   -100    101    108    147 201.8  47.9  33954  286.10 0855.46
2009/04/23 07:27:06.4     -45   -101    112    111    157 204.1  50.1  33956  286.14 0855.46
2009/04/23 07:27:06.5      -5    -74     80     75    109 184.5  52.1  33956  286.14 0855.46
2009/04/23 07:27:06.6      32    -55     50     64     81 149.3  42.2  33954  286.10 0855.46
2009/04/23 07:27:06.7      59    -58     39     83     91 134.4  27.1  33956  286.12 0855.46
2009/04/23 07:27:06.8      74    -59     21     95     98 128.6  12.6  33958  286.15 0855.46
2009/04/23 07:27:06.9      50    -60     29     79     84 140.3  20.4  33958  286.15 0855.46
2009/04/23 07:27:07.0      41     -5     21     42     46  97.0  28.2  33954  286.10 0855.47
2009/04/23 07:27:07.1       2      3     15      4     15  32.5  84.9  33954  286.08 0855.47
2009/04/23 07:27:07.2     -38     52      3     65     66 324.0   2.9  33954  286.08 0855.47
2009/04/23 07:27:07.3     -26     21     -1     34     35 309.6  -2.2  33954  286.08 0855.47
2009/04/23 07:27:07.5       0    -15     19     16     24 179.1  54.3  33954  286.10 0855.47
2009/04/23 07:27:07.6       3      0     31      4     31  90.0  90.0  33954  286.08 0855.47
2009/04/23 07:27:07.7     -14     -9     33     17     37 237.6  70.8  33954  286.10 0855.47
2009/04/23 07:27:07.8     -11    -20     29     23     37 209.0  56.4  33954  286.10 0855.47
2009/04/23 07:27:07.9      11    -23     20     26     32 154.6  43.7  33954  286.10 0855.47
2009/04/23 07:27:08.0      18    -15     24     24     33 131.3  50.1  33956  286.12 0855.47
2009/04/23 07:27:08.1      12     -8     33     15     36 122.4  73.1  33956  286.12 0855.47
2009/04/23 07:27:08.2      25    -23     46     35     57 133.1  58.5  33958  286.15 0855.47
2009/04/23 07:27:08.3      36     -2     30     37     47  94.4  43.7  33956  286.14 0855.47
2009/04/23 07:27:08.4      18     17     24     26     35  46.9  50.0  33956  286.12 0855.47
2009/04/23 07:27:08.5      10      5     33     12     35  61.1  81.2  33954  286.10 0855.47
2009/04/23 07:27:08.6       3     -2     45      4     45 122.4  90.0  33954  286.10 0855.47
2009/04/23 07:27:08.7       2     25     36     26     44   4.5  60.5  33954  286.10 0855.47
2009/04/23 07:27:08.8     -31     42     -2     53     54 323.0  -2.2  33952  286.05 0855.47
2009/04/23 07:27:08.9     -38     38     13     55     57 314.9  13.2  33950  286.03 0855.47
2009/04/23 07:27:09.0     -18     -7     22     20     29 248.3  50.1  33954  286.08 0855.47
2009/04/23 07:27:09.1       8      0     15      9     17  90.0  64.7  33954  286.08 0855.47
2009/04/23 07:27:09.2      25      0      5     26     27  90.0  11.1  33954  286.10 0855.47
2009/04/23 07:27:09.3      20      7      0     22     23  71.4   0.8  33956  286.12 0855.47
2009/04/23 07:27:09.4      13      4      8     14     16  71.4  35.5  33956  286.14 0855.47
2009/04/23 07:27:09.6       3     -8     10      9     13 154.6  48.2  33954  286.10 0855.47
2009/04/23 07:27:09.7      -1     -8     11      9     14 189.7  52.2  33954  286.08 0855.47
2009/04/23 07:27:09.8      -6    -30     10     31     33 191.5  19.4  33954  286.10 0855.47
2009/04/23 07:27:09.9      -2    -67     -1     68     69 181.8  -1.3  33954  286.10 0855.47
2009/04/23 07:27:10.0      -3    -60     15     61     63 183.6  14.3  33958  286.15 0855.47
2009/04/23 07:27:10.1     -12    -60     21     62     66 191.6  19.4  33958  286.15 0855.47
2009/04/23 07:27:10.2     -20    -65     17     69     72 196.9  14.3  33960  286.19 0855.47
2009/04/23 07:27:10.3      -2    -59     23     60     64 182.7  21.0  33958  286.15 0855.47
2009/04/23 07:27:10.4       5    -75     24     76     80 175.6  17.9  33958  286.15 0855.47
2009/04/23 07:27:10.5      22    -56     23     61     65 158.2  22.0  33960  286.19 0855.47
2009/04/23 07:27:10.6      18    -45     25     49     55 157.3  29.3  33956  286.12 0855.47
2009/04/23 07:27:10.7      12    -31     25     34     42 158.2  40.7  33954  286.08 0855.47
2009/04/23 07:27:10.8       2    -27     32     28     42 175.5  53.3  33956  286.14 0855.47
2009/04/23 07:27:10.9     -14    -29     45     33     55 205.4  60.5  33958  286.15 0855.47
2009/04/23 07:27:11.0     -48    -24     42     54     68 242.9  43.7  33958  286.15 0855.47
2009/04/23 07:27:11.1     -70    -14     32     72     78 258.6  25.1  33958  286.15 0855.47
2009/04/23 07:27:11.2    -107      1     24    108    111 270.8  12.6  33960  286.19 0855.47
2009/04/23 07:27:11.3     -78     28      7     83     84 290.0   4.9  33958  286.15 0855.47
2009/04/23 07:27:11.4     -74     29     14     80     82 291.8  10.1  33956  286.12 0855.47
2009/04/23 07:27:11.5     -27     14     30     31     43 297.1  50.0  33958  286.15 0855.47
2009/04/23 07:27:11.6      -5     38     76     39     85 352.0  70.8  33960  286.19 0855.47
2009/04/23 07:27:11.8      15     57     70     60     92  15.1  54.8  33956  286.14 0855.47
2009/04/23 07:27:11.9       7     23     68     25     72  18.5  80.2  33958  286.15 0855.47
2009/04/23 07:27:12.0       0      3     73      4     73 350.3  90.0  33956  286.14 0855.47
2009/04/23 07:27:12.1     -28     12     58     31     65 293.5  68.9  33954  286.10 0855.47
2009/04/23 07:27:12.2     -22    -39     50     46     67 209.9  52.1  33954  286.10 0855.47
2009/04/23 07:27:12.3     -18    -73     83     76    112 194.3  52.2  33958  286.15 0855.47
2009/04/23 07:27:12.4      12     27     47     30     55  25.5  64.7  33956  286.14 0855.47
2009/04/23 07:27:12.5       1    -23     29     24     37 175.5  56.3  33960  286.19 0855.47
2009/04/23 07:27:12.6      -5    -74     43     75     86 184.5  32.9  33956  286.14 0855.47
2009/04/23 07:27:12.7      12   -119      8    120    121 174.2   3.8  33960  286.20 0855.47
2009/04/23 07:27:12.8      36   -135     11    140    141 164.9   4.9  33958  286.17 0855.47
2009/04/23 07:27:12.9      34   -103     -3    109    110 161.3  -1.8  33958  286.17 0855.47
2009/04/23 07:27:13.0      36    -87    -34     95    101 157.3 -19.7  33958  286.15 0855.47
2009/04/23 07:27:13.1      34   -103    -37    109    116 161.3 -18.7  33960  286.19 0855.47
2009/04/23 07:27:13.2      43   -116    -37    124    129 159.5 -21.7  33958  286.17 0855.47
2009/04/23 07:27:13.3      76    -92    -40    120    126 140.3 -23.6  33956  286.14 0855.47
2009/04/23 07:27:13.4      84    -86    -47    121    129 135.9 -26.4  33958  286.17 0855.47
2009/04/23 07:27:13.5      64    -65    -31     92     98 135.5 -18.7  33960  286.19 0855.47
2009/04/23 07:27:13.6      50    -50    -25     72     76 135.0 -23.3  33956  286.14 0855.47
2009/04/23 07:27:13.7      85    -40     18     95     97 115.3  11.1  33958  286.15 0855.47
2009/04/23 07:27:13.8      82    -48     14     96     98 120.2   8.5  33960  286.19 0855.47
2009/04/23 07:27:13.9      67     -7     25     68     72  96.1  20.0  33960  286.19 0855.47
2009/04/23 07:27:14.0      58    -23      3     63     64 111.7   2.8  33960  286.19 0855.47
2009/04/23 07:27:14.1      42    -71     -3     83     84 148.8  -2.2  33958  286.17 0855.47
2009/04/23 07:27:14.2      40   -102     21    110    113 158.2  11.0  33956  286.12 0855.47
2009/04/23 07:27:14.3      39   -112     34    119    124 160.4  16.3  33958  286.15 0855.47
2009/04/23 07:27:14.4      11   -144     12    145    146 175.6   4.9  33960  286.19 0855.47
2009/04/23 07:27:14.5     -21   -149     11    151    152 188.1   4.4  33960  286.19 0855.47
2009/04/23 07:27:14.6     -27   -133     17    136    138 191.5   7.1  33958  286.15 0855.47
2009/04/23 07:27:14.7     -40   -118      8    125    126 198.7   3.8  33960  286.19 0855.47
2009/04/23 07:27:14.8     -33   -124     12    129    130 195.1   5.4  33958  286.17 0855.47
2009/04/23 07:27:14.9     -30   -127     -5    131    132 193.4  -2.2  33958  286.17 0855.47
2009/04/23 07:27:15.0     -16   -117     -8    119    120 188.1  -4.1  33956  286.14 0855.47
2009/04/23 07:27:15.1      -7    -93     32     94    100 184.5  19.2  33960  286.19 0855.47
2009/04/23 07:27:15.2       0    -97     16     98    100 180.4   9.5  33958  286.15 0855.47
2009/04/23 07:27:15.3      32    -95     24    101    104 161.3  13.7  33958  286.15 0855.47
2009/04/23 07:27:15.4      40    -91     44    100    109 156.4  25.7  33956  286.14 0855.47
2009/04/23 07:27:15.5      52   -112     29    124    128 155.1  13.1  33958  286.15 0855.47
2009/04/23 07:27:15.6      35    -79     75     87    114 155.9  44.8  33960  286.19 0855.47
2009/04/23 07:27:15.7      43    -68     67     81    105 147.4  43.8  33960  286.20 0855.47
2009/04/23 07:27:15.8      34    -69     54     78     94 153.7  37.6  33958  286.15 0855.47
2009/04/23 07:27:15.9      28    -52     54     60     80 151.9  46.9  33958  286.15 0855.47
2009/04/23 07:27:16.0       6    -54     55     55     77 172.9  50.1  33958  286.17 0855.47
2009/04/23 07:27:16.1       0     23     60     24     64 359.1  77.1  33958  286.17 0855.47
2009/04/23 07:27:16.2      -6     21     49     23     54 343.1  73.1  33958  286.17 0855.47
2009/04/23 07:27:16.3     -16     26     37     31     48 327.5  54.3  33962  286.22 0855.47
2009/04/23 07:27:16.4     -16     10     51     19     54 302.4  80.2  33960  286.19 0855.47
2009/04/23 07:27:16.5     -24    -35     69     43     81 214.3  65.1  33962  286.22 0855.47
2009/04/23 07:27:16.6     -36    -46     44     59     73 218.7  40.7  33960  286.19 0855.47
2009/04/23 07:27:16.7     -50    -24     18     56     60 244.6  18.4  33960  286.19 0855.47
2009/04/23 07:27:16.8     -25    -26      7     37     38 223.2  11.1  33960  286.19 0855.47
2009/04/23 07:27:16.9       0     -8      7      9     11 175.5  43.7  33958  286.17 0855.47
2009/04/23 07:27:17.0      -1     -6      6      7      9 189.7  52.0  33958  286.15 0855.47
2009/04/23 07:27:17.1      -6     -6     -2      9     10 226.9 -15.5  33958  286.17 0855.47
2009/04/23 07:27:17.2      -6      6     -2      9     10 313.1 -15.5  33958  286.15 0855.47
2009/04/23 07:27:17.3      10      0      5     11     12  85.6  27.2  33958  286.15 0855.47
2009/04/23 07:27:17.4      14      0      4     15     16  90.0  15.3  33960  286.19 0855.47
2009/04/23 07:27:17.5      20     -7      7     22     24 110.0  19.2  33960  286.19 0855.47
2009/04/23 07:27:17.6      25    -16     -1     30     31 122.4  -2.2  33958  286.17 0855.47
2009/04/23 07:27:17.7      18    -17    -28     26     38 133.1 -52.6  33956  286.14 0855.47
2009/04/23 07:27:17.8       3     11    -43     12     44  18.5 -88.3  33956  286.12 0855.47
2009/04/23 07:27:17.9       0     34    -18     35     39 359.1 -31.7  33956  286.14 0855.47
2009/04/23 07:27:18.0      17     22      2     28     29  37.8   4.9  33954  286.08 0855.47
2009/04/23 07:27:18.1      41     16      7     45     46  68.3   9.0  33954  286.10 0855.48
2009/04/23 07:27:18.2      48     30      5     57     58  57.6   5.9  33954  286.08 0855.48
2009/04/23 07:27:18.3      46     17     26     50     56  69.2  29.3  33956  286.14 0855.48
2009/04/23 07:27:18.4      56     -4     28     57     63  94.3  27.3  33954  286.10 0855.48
2009/04/23 07:27:18.5      43     -8     37     44     57 100.6  43.8  33958  286.17 0855.48
2009/04/23 07:27:18.6      28    -13     47     31     56 115.4  64.6  33956  286.12 0855.48
2009/04/23 07:27:18.7     -11    -47     46     49     67 193.4  48.0  33958  286.15 0855.48
2009/04/23 07:27:18.8     -31    -78     42     85     94 201.8  27.8  33958  286.17 0855.48
2009/04/23 07:27:18.9     -54    -78     41     96    104 214.7  23.6  33960  286.19 0855.48
2009/04/23 07:27:19.0     -50    -69     31     86     91 216.1  20.0  33960  286.19 0855.48
2009/04/23 07:27:19.1     -71    -58     17     92     94 230.5  10.6  33956  286.14 0855.48
2009/04/23 07:27:19.2     -40    -54     26     68     72 217.0  22.0  33960  286.19 0855.48
2009/04/23 07:27:19.3     -27    -67     20     73     76 201.8  15.3  33958  286.17 0855.48
2009/04/23 07:27:19.4     -13    -76     19     78     81 189.8  14.3  33958  286.17 0855.48
2009/04/23 07:27:19.5      -5    -80     20     81     84 184.0  14.3  33958  286.17 0855.48
2009/04/23 07:27:19.6      -2    -67      4     68     69 181.8   3.8  33960  286.19 0855.48
2009/04/23 07:27:19.7       4    -43     11     44     46 173.8  14.3  33958  286.15 0855.48
2009/04/23 07:27:19.8      12    -61      3     63     64 168.5   2.9  33958  286.15 0855.48
2009/04/23 07:27:19.9     -15    -56     25     59     64 195.1  23.1  33960  286.20 0855.48
2009/04/23 07:27:20.0     -17    -64     35     67     75 195.1  30.3  33960  286.19 0855.48
2009/04/23 07:27:20.1       7    -54     42     55     69 172.0  42.7  33958  286.17 0855.48
2009/04/23 07:27:20.2      16     -5     64     17     66 108.2  84.9  33958  286.15 0855.48
2009/04/23 07:27:20.3      17    -26     44     32     54 147.4  60.5  33962  286.22 0855.48
2009/04/23 07:27:20.4       5    -35     47     36     59 172.0  58.5  33962  286.22 0855.48
2009/04/23 07:27:20.5      19    -11     46     23     51 120.7  72.8  33962  286.22 0855.48
2009/04/23 07:27:20.6       1    -24     43     25     49 175.6  66.8  33960  286.20 0855.48
2009/04/23 07:27:20.7       0    -68     79     69    104 180.0  54.3  33964  286.25 0855.48
2009/04/23 07:27:20.8      -3    -62     75     63     97 183.6  55.8  33964  286.25 0855.48
2009/04/23 07:27:20.9      -1    -81     51     82     96 181.4  35.5  33962  286.22 0855.48
2009/04/23 07:27:21.0     -10    -81     42     82     92 187.6  28.7  33960  286.20 0855.48
2009/04/23 07:27:21.1     -17    -94     41     96    104 190.7  23.6  33962  286.22 0855.48
2009/04/23 07:27:21.2     -26    -92     26     96    100 196.0  15.2  33960  286.19 0855.48
2009/04/23 07:27:21.3     -11    -83     13     84     86 187.6   9.0  33960  286.20 0855.48
2009/04/23 07:27:21.4     -14    -76     10     78     79 190.7   7.5  33962  286.24 0855.48
2009/04/23 07:27:21.5      -9    -57      0     58     59 189.8  -0.3  33962  286.22 0855.48
2009/04/23 07:27:21.6      -7    -53      8     54     55 188.0   9.0  33962  286.22 0855.48
2009/04/23 07:27:21.7      -9    -44     15     45     48 191.6  18.9  33960  286.19 0855.48
2009/04/23 07:27:21.8       5    -34     33     35     48 170.2  50.0  33962  286.22 0855.48
2009/04/23 07:27:21.9       7    -22     28     24     36 161.7  54.3  33958  286.17 0855.48
2009/04/23 07:27:22.0       6    -11     26     13     29 151.0  72.9  33960  286.19 0855.48
2009/04/23 07:27:22.1       2      4     16      5     16  32.5  80.7  33960  286.20 0855.48
2009/04/23 07:27:22.2       4     -8     18     10     20 151.0  68.8  33960  286.19 0855.48
2009/04/23 07:27:22.3       8    -30     21     32     38 164.9  35.6  33960  286.19 0855.48
2009/04/23 07:27:22.4      13    -39     26     42     49 161.5  35.5  33960  286.19 0855.48
2009/04/23 07:27:22.5       0    -37     13     38     41 180.9  19.2  33962  286.24 0855.48
2009/04/23 07:27:22.6     -11    -33      1     35     36 198.7   2.8  33962  286.22 0855.48
2009/04/23 07:27:22.7      -8    -25      0     27     28 198.3  -1.3  33962  286.22 0855.48
2009/04/23 07:27:22.8       0    -20      0     21     22 180.9  -2.2  33962  286.24 0855.48
2009/04/23 07:27:22.9       3    -30      2     31     32 173.8   4.9  33962  286.24 0855.48
2009/04/23 07:27:23.0       0    -37     13     38     41 180.9  19.2  33962  286.24 0855.48
2009/04/23 07:27:23.1      -7    -36      1     37     38 191.5   2.9  33962  286.24 0855.48
2009/04/23 07:27:23.2     -24    -71     -9     76     77 198.7  -7.3  33960  286.19 0855.48
2009/04/23 07:27:23.3     -41    -80    -18     91     93 207.2 -11.3  33962  286.24 0855.48
2009/04/23 07:27:23.4     -31    -75    -10     82     83 202.7  -7.3  33960  286.20 0855.48
2009/04/23 07:27:23.5     -26    -80    -14     85     87 197.8  -9.3  33960  286.20 0855.48
2009/04/23 07:27:23.6     -16   -110     -2    112    113 188.5  -1.3  33964  286.27 0855.48
2009/04/23 07:27:23.7       1   -103     -2    104    105 179.1  -1.3  33962  286.22 0855.48
2009/04/23 07:27:23.8     -12   -101     -4    102    103 187.1  -2.2  33960  286.19 0855.48
2009/04/23 07:27:23.9     -16   -102     -2    104    105 189.3  -1.3  33958  286.15 0855.48
2009/04/23 07:27:24.0     -20    -97     18    100    102 191.6  10.6  33962  286.22 0855.48
2009/04/23 07:27:24.1     -21    -99     31    102    107 192.0  17.3  33960  286.19 0855.48
2009/04/23 07:27:24.2     -40   -121     20    128    130 198.5   9.0  33960  286.20 0855.48
2009/04/23 07:27:24.3     -26   -138     38    141    147 190.7  15.3  33960  286.19 0855.48
2009/04/23 07:27:24.4     -19   -152     38    154    159 187.1  13.9  33960  286.19 0855.48
2009/04/23 07:27:24.5     -28   -165     45    168    174 189.6  15.0  33960  286.19 0855.48
2009/04/23 07:27:24.6     -17   -148     49    150    158 186.7  18.1  33962  286.24 0855.48
2009/04/23 07:27:24.7       0   -136     26    137    140 180.4  11.0  33960  286.20 0855.48
2009/04/23 07:27:24.8      26   -153      4    156    157 170.2   1.8  33960  286.19 0855.48
2009/04/23 07:27:24.9      46   -140    -14    148    149 161.7  -5.6  33960  286.19 0855.48
2009/04/23 07:27:25.1      33   -143     -6    147    148 166.7  -2.6  33962  286.22 0855.48
2009/04/23 07:27:25.2      51   -131    -13    141    142 158.6  -5.6  33960  286.19 0855.48
2009/04/23 07:27:25.3      49   -123    -26    133    136 158.2 -11.3  33962  286.24 0855.48
2009/04/23 07:27:25.4      37   -105    -40    112    119 160.4 -19.7  33958  286.17 0855.48
2009/04/23 07:27:25.5      25   -101    -32    105    109 166.2 -22.3  33958  286.17 0855.48
2009/04/23 07:27:25.6      12    -91      1     92     93 172.0   1.2  33958  286.15 0855.48
2009/04/23 07:27:25.7       5   -140     27    141    144 177.8  11.1  33958  286.15 0855.48
2009/04/23 07:27:25.8      -4   -157     26    158    161 181.8   9.3  33958  286.15 0855.48
2009/04/23 07:27:25.9     -23   -152      3    154    155 188.9   1.2  33956  286.14 0855.48
2009/04/23 07:27:26.0     -29   -139     -5    143    144 192.0  -2.2  33956  286.14 0855.48
2009/04/23 07:27:26.1     -19   -137      1    139    140 188.1   0.7  33954  286.10 0855.48
2009/04/23 07:27:26.2     -23   -149      7    151    152 188.9   2.8  33956  286.12 0855.48
2009/04/23 07:27:26.3      -9   -171     11    172    173 183.1   3.8  33950  286.03 0855.48
2009/04/23 07:27:26.4      18   -162     23    164    166 173.5   8.0  33950  286.02 0855.48
2009/04/23 07:27:26.5      19   -136      1    138    139 172.0   0.8  33952  286.05 0855.48
2009/04/23 07:27:26.6      -1   -125    -30    126    130 180.9 -13.4  33956  286.14 0855.48
2009/04/23 07:27:26.7     -12   -138    -27    139    142 185.3 -11.3  33958  286.17 0855.48
2009/04/23 07:27:26.8      -9   -137    -22    138    140 184.0  -9.4  33954  286.08 0855.48
2009/04/23 07:27:26.9       3   -143    -43    144    150 178.6 -21.7  33958  286.15 0855.48
2009/04/23 07:27:27.0       9   -125    -37    126    131 175.5 -21.2  33954  286.10 0855.48
2009/04/23 07:27:27.1      -2   -124    -44    125    132 181.0 -23.8  33954  286.08 0855.48
2009/04/23 07:27:27.2     -13   -125    -40    126    132 186.2 -23.3  33954  286.08 0855.48
2009/04/23 07:27:27.3     -16   -131    -31    133    137 187.1 -13.4  33958  286.17 0855.48
2009/04/23 07:27:27.4     -22   -129    -25    131    134 189.7 -10.9  33956  286.12 0855.48
2009/04/23 07:27:27.5     -44   -135    -44    143    149 198.3 -22.3  33954  286.10 0855.48
2009/04/23 07:27:27.6     -44   -135    -44    143    149 198.3 -22.3  33954  286.10 0855.48
2009/04/23 07:27:27.7     -38   -134    -42    140    146 196.0 -21.7  33958  286.17 0855.48
2009/04/23 07:27:27.8     -27   -133      0    136    137 191.6   0.2  33958  286.17 0855.48
2009/04/23 07:27:27.9     -13   -118      5    119    120 186.7   2.8  33956  286.14 0855.48
2009/04/23 07:27:28.0     -16    -97     14     99    101 189.8   8.5  33956  286.14 0855.48
2009/04/23 07:27:28.1       1    -80     22     81     84 178.6  15.3  33956  286.14 0855.48
2009/04/23 07:27:28.2     -23    -70     -4     74     75 198.7  -3.2  33956  286.12 0855.48
2009/04/23 07:27:28.3     -40    -63    -26     75     80 212.6 -19.7  33958  286.15 0855.48
2009/04/23 07:27:28.4     -45    -63    -15     78     80 216.1 -11.3  33954  286.10 0855.48
2009/04/23 07:27:28.5     -17    -64    -43     67     79 195.1 -40.4  33960  286.19 0855.48
2009/04/23 07:27:28.6     -21    -63    -34     67     75 198.3 -32.6  33954  286.08 0855.48
2009/04/23 07:27:28.7     -17    -52    -23     55     59 198.5 -27.5  33956  286.12 0855.48
2009/04/23 07:27:28.8     -13    -44    -16     47     50 196.9 -19.7  33954  286.08 0855.48
2009/04/23 07:27:28.9      -7    -35    -14     36     38 191.6 -23.3  33956  286.14 0855.48
2009/04/23 07:27:29.0     -16    -23    -16     29     33 214.3 -35.8  33954  286.08 0855.48
2009/04/23 07:27:29.1     -22    -14    -21     27     34 237.5 -48.1  33954  286.08 0855.48
2009/04/23 07:27:29.2     -10    -22    -20     25     32 205.4 -48.1  33954  286.10 0855.48
2009/04/23 07:27:29.3      -3    -44     -4     45     46 184.4  -6.2  33954  286.08 0855.48
2009/04/23 07:27:29.4     -13    -50    -16     52     54 195.1 -23.8  33956  286.12 0855.48
2009/04/23 07:27:29.5     -46    -71     -1     85     86 213.0  -0.7  33958  286.17 0855.48
2009/04/23 07:27:29.6     -31    -75     13     82     84 202.7   9.0  33958  286.15 0855.48
2009/04/23 07:27:29.7     -53    -71      3     89     90 217.0   2.3  33958  286.17 0855.48
2009/04/23 07:27:29.8     -55    -84      0    101    102 213.4   0.2  33958  286.15 0855.48
2009/04/23 07:27:29.9     -48    -53      0     72     73 222.3  -0.3  33958  286.15 0855.48
2009/04/23 07:27:30.0     -66    -48    -27     82     87 234.0 -18.7  33958  286.17 0855.48
2009/04/23 07:27:30.1     -63    -40    -13     75     77 237.5 -10.3  33956  286.12 0855.48
2009/04/23 07:27:30.2     -69    -44     -8     83     84 237.5  -5.6  33956  286.14 0855.48
2009/04/23 07:27:30.3     -60    -27    -13     66     68 245.6 -11.3  33956  286.14 0855.48
2009/04/23 07:27:30.4     -53    -45     -2     70     71 229.6  -2.2  33960  286.19 0855.48
2009/04/23 07:27:30.5     -43    -26    -27     51     57 238.5 -34.7  33960  286.19 0855.48
2009/04/23 07:27:30.6     -47    -22    -38     53     65 244.6 -43.9  33958  286.17 0855.48
2009/04/23 07:27:30.7     -32      0    -26     33     42 269.2 -47.1  33958  286.17 0855.48
2009/04/23 07:27:30.8     -26      8    -20     28     34 288.6 -42.0  33958  286.17 0855.48
2009/04/23 07:27:30.9      32    -21    -10     39     41 124.2 -14.5  33960  286.19 0855.48
2009/04/23 07:27:31.0      57     -4      7     58     59  94.3   6.9  33956  286.14 0855.48
2009/04/23 07:27:31.1      53      0     11     54     56  90.0  12.2  33960  286.19 0855.48
2009/04/23 07:27:31.2      57      6      1     58     59  83.9   1.8  33958  286.17 0855.48
2009/04/23 07:27:31.3      67     -5     10     68     69  94.4   9.0  33960  286.19 0855.48
2009/04/23 07:27:31.4      64    -21     13     68     70 108.2  11.1  33958  286.17 0855.48
2009/04/23 07:27:31.5      59    -17     19     62     65 106.8  17.3  33960  286.20 0855.48
2009/04/23 07:27:31.6      53    -14     10     55     57 105.1  11.1  33960  286.19 0855.48
2009/04/23 07:27:31.7      26    -56    -32     62     69 154.6 -33.7  33958  286.17 0855.48
2009/04/23 07:27:31.8      40    -36    -48     54     72 132.2 -51.3  33960  286.19 0855.48
2009/04/23 07:27:31.9      42    -46    -47     63     78 137.7 -45.6  33958  286.17 0855.48
2009/04/23 07:27:32.0      60    -45    -31     76     82 126.9 -27.4  33956  286.14 0855.48
2009/04/23 07:27:32.1      54    -55    -40     78     87 135.8 -33.7  33956  286.14 0855.48
2009/04/23 07:27:32.2      32    -68    -25     76     80 154.5 -23.3  33958  286.15 0855.48
2009/04/23 07:27:32.3      33    -61    -15     70     72 151.0 -12.4  33956  286.12 0855.48
2009/04/23 07:27:32.4      47    -57     -2     75     76 140.3  -2.2  33956  286.14 0855.48
2009/04/23 07:27:32.5      51    -62     -1     81     82 140.8  -0.7  33958  286.15 0855.48
2009/04/23 07:27:32.6      47    -73     -3     88     89 147.0  -2.2  33956  286.14 0855.48
2009/04/23 07:27:32.7      46    -81      4     94     95 150.6   2.8  33958  286.15 0855.48
2009/04/23 07:27:32.8      52    -70      4     88     89 143.5   2.9  33960  286.19 0855.48
2009/04/23 07:27:32.9      53    -55      3     77     78 135.8   2.9  33958  286.17 0855.48
2009/04/23 07:27:33.0      49    -66     -3     83     84 143.5  -2.2  33960  286.19 0855.48
2009/04/23 07:27:33.1      56    -57     -7     81     82 135.5  -5.2  33956  286.14 0855.49
2009/04/23 07:27:33.2      61    -51     -3     80     81 129.6  -2.2  33956  286.14 0855.49
2009/04/23 07:27:33.3      57    -47     -4     75     76 129.5  -3.1  33958  286.17 0855.49
2009/04/23 07:27:33.4      49    -46     -1     68     69 133.1  -1.3  33958  286.17 0855.49
2009/04/23 07:27:33.5      47    -42     -2     64     65 132.2  -2.2  33956  286.14 0855.49
2009/04/23 07:27:33.6      40    -40     -2     57     58 134.9  -2.2  33960  286.19 0855.49
2009/04/23 07:27:33.7      45    -45      0     64     65 135.0   0.8  33960  286.19 0855.49
2009/04/23 07:27:33.8      40    -42     -1     59     60 136.6  -1.3  33962  286.22 0855.49
2009/04/23 07:27:33.9      56    -47     11     74     75 129.6   9.0  33960  286.19 0855.49
2009/04/23 07:27:34.0      69    -51      9     86     87 126.4   6.5  33962  286.22 0855.49
2009/04/23 07:27:34.1      60    -38     14     72     74 122.4  11.1  33962  286.22 0855.49
2009/04/23 07:27:34.2      31    -49     16     59     62 147.5  15.3  33962  286.24 0855.49
2009/04/23 07:27:34.3      17    -63     22     66     70 164.8  18.9  33960  286.20 0855.49
2009/04/23 07:27:34.4       7    -64     34     65     73 173.8  29.3  33962  286.22 0855.49
2009/04/23 07:27:34.5      29    -43      9     53     54 145.7  10.1  33962  286.22 0855.49
2009/04/23 07:27:34.6      49    -28     20     57     61 119.8  19.4  33962  286.22 0855.49
2009/04/23 07:27:34.7      52    -33     21     62     66 122.4  18.9  33964  286.25 0855.49
2009/04/23 07:27:34.8      59    -55     16     81     83 133.1  11.6  33960  286.19 0855.49
2009/04/23 07:27:34.9      62    -67     18     92     94 136.8  11.1  33962  286.22 0855.49
2009/04/23 07:27:35.0      63    -56     20     85     88 131.8  13.2  33962  286.24 0855.49
2009/04/23 07:27:35.1      51    -48     23     71     75 133.1  18.4  33962  286.24 0855.49
2009/04/23 07:27:35.2      39    -51     31     65     72 142.2  27.2  33962  286.24 0855.49
2009/04/23 07:27:35.3      26    -73     40     78     87 160.0  29.3  33962  286.24 0855.49
2009/04/23 07:27:35.4       7    -93     62     94    112 175.5  36.0  33960  286.19 0855.49
2009/04/23 07:27:35.5      33   -100     59    106    121 161.5  31.4  33962  286.22 0855.49
2009/04/23 07:27:35.6      31    -92     70     98    120 161.3  39.5  33962  286.24 0855.49
2009/04/23 07:27:35.7      22    -87     62     90    109 165.7  38.0  33960  286.19 0855.49
2009/04/23 07:27:35.8      12    -72     65     74     98 170.2  46.4  33962  286.24 0855.49
2009/04/23 07:27:35.9      -7    -55     58     56     80 188.0  50.7  33962  286.24 0855.49
2009/04/23 07:27:36.0      -7    -49     54     50     73 188.9  52.1  33960  286.20 0855.49
2009/04/23 07:27:36.1       3    -16     48     17     50 168.4  81.2  33960  286.19 0855.49
2009/04/23 07:27:36.2      16     15     49     22     53  46.9  75.0  33960  286.19 0855.49
2009/04/23 07:27:36.3      33    -33     20     48     52 135.0  24.1  33962  286.22 0855.49
2009/04/23 07:27:36.4      77    -27     32     82     88 110.0  22.0  33960  286.20 0855.49
2009/04/23 07:27:36.5      66    -16     32     69     76 104.2  27.1  33958  286.17 0855.49
2009/04/23 07:27:36.6      72    -24     37     77     85 108.6  27.8  33958  286.17 0855.49
2009/04/23 07:27:36.7      78     -6     35     79     86  94.4  25.1  33960  286.19 0855.49
2009/04/23 07:27:36.8      68      0     32     69     76  90.0  27.1  33958  286.17 0855.49
2009/04/23 07:27:36.9      67      1     31     68     74  89.1  27.1  33960  286.19 0855.49
2009/04/23 07:27:37.1      63      8     42     64     76  82.1  35.6  33958  286.17 0855.49
2009/04/23 07:27:37.2      58    -11     46     60     75 100.6  41.7  33960  286.20 0855.49
2009/04/23 07:27:37.3      54    -17     46     57     73 107.7  43.7  33964  286.25 0855.49
2009/04/23 07:27:37.4      35      0     48     36     60  90.0  59.4  33960  286.19 0855.49
2009/04/23 07:27:37.5      15      9     49     18     52  57.5  80.2  33960  286.19 0855.49
2009/04/23 07:27:37.6     -11      3     41     12     42 288.4  83.9  33960  286.20 0855.49
2009/04/23 07:27:37.7     -21     32     43     39     58 325.7  52.2  33964  286.25 0855.49
2009/04/23 07:27:37.8      15     24     57     29     63  32.6  71.9  33962  286.22 0855.49
2009/04/23 07:27:37.9      66      3     51     67     84  87.4  41.2  33962  286.22 0855.49
2009/04/23 07:27:38.0      56     11     42     58     71  78.5  39.7  33960  286.20 0855.49
2009/04/23 07:27:38.1      44     14     31     47     56  71.4  35.6  33960  286.19 0855.49
2009/04/23 07:27:38.2      28      9     34     30     45  71.4  53.3  33960  286.19 0855.49
2009/04/23 07:27:38.3     -26    -14     23     30     37 241.1  41.7  33958  286.17 0855.49
2009/04/23 07:27:38.4     -44    -30     32     54     62 235.8  33.5  33960  286.19 0855.49
2009/04/23 07:27:38.5     -28    -23     41     37     55 230.4  53.3  33962  286.22 0855.49
2009/04/23 07:27:38.6     -26    -41     67     49     83 212.6  60.0  33962  286.24 0855.49
2009/04/23 07:27:38.7      -1    -26     64     27     69 182.7  77.0  33962  286.22 0855.49
2009/04/23 07:27:38.8      -8     -8     71     12     72 226.9  90.0  33964  286.25 0855.49
2009/04/23 07:27:38.9     -12     -8     72     15     73 234.0  89.0  33964  286.27 0855.49
2009/04/23 07:27:39.0     -19    -19     73     27     77 225.0  80.2  33960  286.20 0855.49
2009/04/23 07:27:39.1     -29    -34     65     46     79 220.5  61.5  33962  286.22 0855.49
2009/04/23 07:27:39.2     -34    -64     75     73    104 208.1  50.1  33962  286.24 0855.48
2009/04/23 07:27:39.3     -44    -68     76     82    111 213.0  47.9  33962  286.24 0855.48
2009/04/23 07:27:39.4     -68    -64     60     94    111 226.4  35.6  33958  286.17 0855.48
2009/04/23 07:27:39.5     -78    -64     58    102    117 230.5  31.9  33962  286.24 0855.48
2009/04/23 07:27:39.6     -74    -69     48    102    112 226.9  27.1  33962  286.24 0855.48
2009/04/23 07:27:39.7     -92    -66     49    114    124 234.1  24.6  33962  286.24 0855.48
2009/04/23 07:27:39.8     -84    -50     50     98    110 239.3  28.7  33958  286.17 0855.48
2009/04/23 07:27:39.9     -81    -51     43     97    106 237.6  25.7  33954  286.10 0855.48
2009/04/23 07:27:40.0     -82    -52     39     98    105 237.6  23.0  33958  286.15 0855.48
2009/04/23 07:27:40.1     -65    -55     51     86     99 229.6  33.5  33958  286.17 0855.48
2009/04/23 07:27:40.2     -74    -51     48     90    102 235.4  30.8  33958  286.15 0855.48
2009/04/23 07:27:40.3     -70    -54     42     89     98 232.2  27.1  33952  286.07 0855.48
2009/04/23 07:27:40.4     -92    -39     32    100    106 246.9  17.9  33952  286.07 0855.48
2009/04/23 07:27:40.5    -102    -48     26    113    117 244.6  13.2  33954  286.08 0855.48
2009/04/23 07:27:40.6     -91    -48     20    104    107 242.0  11.1  33954  286.08 0855.48
2009/04/23 07:27:40.7     -78    -71     22    106    109 227.8  12.2  33954  286.10 0855.48
2009/04/23 07:27:40.8     -82    -75     21    112    115 227.3  11.0  33956  286.14 0855.48
2009/04/23 07:27:40.9     -86    -80     19    118    120 227.3   9.5  33954  286.08 0855.48
2009/04/23 07:27:41.0     -60    -84     24    104    107 215.6  13.2  33958  286.17 0855.48
2009/04/23 07:27:41.1     -53    -75     35     93     99 215.2  21.5  33956  286.12 0855.48
2009/04/23 07:27:41.2     -77    -60      9     98     99 232.2   5.4  33956  286.12 0855.48
2009/04/23 07:27:41.3     -92    -58     21    109    112 237.6  11.1  33950  286.03 0855.48
2009/04/23 07:27:41.4     -95    -42     22    105    108 246.0  12.2  33948  286.00 0855.48
2009/04/23 07:27:41.5     -92    -58     21    109    112 237.6  11.1  33946  285.97 0855.48
2009/04/23 07:27:41.6     -80    -66     28    105    109 230.4  15.3  33950  286.02 0855.48
2009/04/23 07:27:41.7     -74    -86     56    114    127 220.5  28.2  33948  286.00 0855.48
2009/04/23 07:27:41.8     -64    -67     62     93    111 223.7  36.5  33950  286.02 0855.48
2009/04/23 07:27:41.9       8    -91     63     92    111 174.7  37.6  33960  286.20 0855.48
2009/04/23 07:27:42.0      -3    -45     68     46     82 184.5  62.6  33958  286.17 0855.48
2009/04/23 07:27:42.1     -64    -57     91     86    125 228.2  51.2  33948  286.00 0855.48
2009/04/23 07:27:42.2     -78    -68     65    104    122 228.7  35.0  33946  285.97 0855.48
2009/04/23 07:27:42.3     -73   -132     71    151    166 209.0  27.1  33956  286.14 0855.48
2009/04/23 07:27:42.4     -73   -140     77    158    175 207.6  27.8  33950  286.03 0855.48
2009/04/23 07:27:42.5     -56   -130    127    142    190 203.6  46.4  33950  286.02 0855.48
2009/04/23 07:27:42.6     -43   -142    134    149    200 196.9  46.6  33954  286.08 0855.48
2009/04/23 07:27:42.7     -39   -166    119    171    208 193.4  38.0  33952  286.07 0855.48
2009/04/23 07:27:42.8     -45   -169    138    176    223 195.1  42.0  33958  286.15 0855.48
2009/04/23 07:27:42.9     -28   -167    139    170    219 189.8  43.7  33958  286.17 0855.48
2009/04/23 07:27:43.0     -37   -140    105    145    179 195.1  39.7  33956  286.14 0855.48
2009/04/23 07:27:43.1     -19   -123    117    125    171 188.9  48.2  33960  286.20 0855.48
2009/04/23 07:27:43.2      -1   -157    107    158    190 180.5  37.3  33958  286.17 0855.48
2009/04/23 07:27:43.3     -41   -189    133    194    235 192.5  37.6  33950  286.02 0855.48
2009/04/23 07:27:43.4     -41   -178    142    183    231 193.1  41.7  33958  286.15 0855.48
2009/04/23 07:27:43.5     -31   -177    137    180    226 190.0  41.4  33948  285.98 0855.48
2009/04/23 07:27:43.6     -59   -186    138    196    239 197.8  38.6  33944  285.93 0855.48
2009/04/23 07:27:43.7     -65   -153    111    167    200 203.2  37.0  33934  285.76 0855.48
2009/04/23 07:27:43.8    -109   -151     92    187    208 216.0  28.0  33936  285.78 0855.48
2009/04/23 07:27:43.9     -87   -178    130    199    237 206.1  36.5  33948  286.00 0855.48
2009/04/23 07:27:44.0     -91   -164     99    188    212 209.0  30.1  33950  286.03 0855.48
2009/04/23 07:27:44.1     -61   -147    135    160    209 202.7  44.3  33944  285.93 0855.48
2009/04/23 07:27:44.2     -88   -164    151    187    240 208.3  43.0  33958  286.15 0855.48
2009/04/23 07:27:44.3     -76   -211    160    225    276 200.0  38.8  33962  286.21 0855.48
2009/04/23 07:27:44.4     -63   -171    147    183    234 200.3  42.8  33956  286.12 0855.48
2009/04/23 07:27:44.5     -42   -174    114    180    213 193.8  35.5  33958  286.17 0855.48
2009/04/23 07:27:44.6     -56   -166    100    176    202 198.7  32.4  33958  286.17 0855.48
2009/04/23 07:27:44.7     -51   -167     71    175    188 197.2  23.1  33960  286.19 0855.48
2009/04/23 07:27:44.8     -27   -166     60    169    179 189.3  20.2  33958  286.17 0855.48
2009/04/23 07:27:44.9     -36   -165     65    170    182 192.5  22.0  33958  286.17 0855.48
2009/04/23 07:27:45.0     -42   -160     59    166    176 194.9  20.0  33958  286.15 0855.48
2009/04/23 07:27:45.1     -39   -145     53    151    161 195.1  19.4  33958  286.17 0855.48
2009/04/23 07:27:45.2     -50   -148     58    157    167 198.7  21.0  33960  286.19 0855.47
2009/04/23 07:27:45.3     -26   -141     54    144    153 190.7  21.0  33960  286.19 0855.47
2009/04/23 07:27:45.4     -13   -147     40    148    154 185.3  15.3  33958  286.17 0855.47
2009/04/23 07:27:45.5     -17   -122     43    124    132 188.0  19.4  33956  286.12 0855.47
2009/04/23 07:27:45.6     -16   -115     40    117    124 188.1  18.9  33958  286.17 0855.47
2009/04/23 07:27:45.7      -1   -147     47    148    156 180.5  17.7  33958  286.17 0855.47
2009/04/23 07:27:45.8      12   -155     41    156    162 175.5  14.7  33958  286.15 0855.47
2009/04/23 07:27:45.9       0   -162     31    163    167 180.0  11.0  33958  286.17 0855.47
2009/04/23 07:27:46.0       2   -148     35    149    154 179.0  13.2  33956  286.12 0855.47
2009/04/23 07:27:46.1       2   -152     41    153    159 179.1  15.0  33958  286.15 0855.47
2009/04/23 07:27:46.2       8   -149     -3    150    151 176.9  -1.3  33958  286.17 0855.47
2009/04/23 07:27:46.3      17   -132      6    134    135 172.4   2.9  33958  286.15 0855.47
2009/04/23 07:27:46.4      22   -124     12    127    128 169.8   5.4  33958  286.15 0855.47
2009/04/23 07:27:46.5      28   -111     25    115    118 165.7  12.6  33960  286.19 0855.47
2009/04/23 07:27:46.6      51   -105     21    117    119 154.1  10.6  33960  286.19 0855.47
2009/04/23 07:27:46.7      66    -83     33    107    113 141.7  17.3  33958  286.15 0855.47
2009/04/23 07:27:46.8      40    -79     33     89     94 152.8  20.4  33958  286.17 0855.47
2009/04/23 07:27:46.9      18    -71     51     74     89 165.7  37.6  33958  286.15 0855.47
2009/04/23 07:27:47.0       7    -69     42     70     81 173.8  34.0  33958  286.17 0855.47
2009/04/23 07:27:47.1     -14    -69     53     71     88 191.5  40.7  33958  286.17 0855.47
2009/04/23 07:27:47.2       6    -77     49     78     92 175.5  35.5  33960  286.19 0855.48
2009/04/23 07:27:47.3      11    -81     45     82     93 172.0  30.8  33960  286.19 0855.48
2009/04/23 07:27:47.4      22    -87     62     90    109 165.7  38.0  33960  286.19 0855.48
2009/04/23 07:27:47.5      16    -86     37     88     95 168.9  24.1  33958  286.17 0855.48
2009/04/23 07:27:47.6     -12    -85     28     86     91 188.5  17.9  33960  286.20 0855.48
2009/04/23 07:27:47.7     -16    -69     14     71     73 193.4  11.1  33958  286.17 0855.48
2009/04/23 07:27:47.8     -21    -60      9     64     65 199.2   8.0  33958  286.17 0855.48
2009/04/23 07:27:47.9     -27    -60     12     66     68 204.5  11.0  33960  286.19 0855.48
2009/04/23 07:27:48.0     -27    -60     12     66     68 204.5  11.0  33960  286.19 0855.48
2009/04/23 07:27:48.1     -25    -53      7     59     60 205.4   6.9  33958  286.15 0855.48
2009/04/23 07:27:48.2     -40    -58     16     71     73 215.2  13.2  33958  286.15 0855.48
2009/04/23 07:27:48.3     -30    -45      0     55     56 214.3   0.8  33958  286.17 0855.48
2009/04/23 07:27:48.4     -25    -45     -2     52     53 209.9  -2.2  33960  286.19 0855.48
2009/04/23 07:27:48.5     -34    -30    -11     46     48 228.7 -13.4  33960  286.20 0855.48
2009/04/23 07:27:48.6     -19    -26    -19     33     38 216.1 -39.9  33962  286.22 0855.48
2009/04/23 07:27:48.7     -13    -21    -25     26     36 212.5 -56.4  33960  286.19 0855.48
2009/04/23 07:27:48.8      -3    -20     -5     21     22 189.8 -13.4  33960  286.19 0855.48
2009/04/23 07:27:48.9      -1    -23     -3     24     25 184.5  -7.3  33960  286.20 0855.48
2009/04/23 07:27:49.0      -1    -16     -2     17     18 184.5  -7.3  33962  286.22 0855.48
2009/04/23 07:27:49.1      10    -24     11     27     29 156.4  21.0  33960  286.19 0855.48
2009/04/23 07:27:49.2      22     -7     22     24     32 108.2  50.0  33960  286.19 0855.48
2009/04/23 07:27:49.3      32     -7     18     33     37 103.3  31.4  33960  286.19 0855.48
2009/04/23 07:27:49.4      26     -8     20     28     34 108.6  37.6  33958  286.17 0855.48
2009/04/23 07:27:49.5      32    -15     24     36     43 115.2  37.6  33958  286.17 0855.48
2009/04/23 07:27:49.6      47    -16     12     50     52 109.1  14.3  33960  286.19 0855.48
2009/04/23 07:27:49.7      50    -41     23     66     70 129.5  19.2  33960  286.19 0855.48
2009/04/23 07:27:49.8      41    -47     27     63     68 138.6  24.1  33962  286.24 0855.48
2009/04/23 07:27:49.9      31    -52     42     61     74 149.3  36.5  33960  286.20 0855.48
2009/04/23 07:27:50.0      26    -46     39     54     66 150.1  39.5  33960  286.20 0855.48
2009/04/23 07:27:50.1      46    -32     44     57     72 125.1  42.7  33960  286.19 0855.48
2009/04/23 07:27:50.2      44    -17     43     48     64 110.8  47.9  33960  286.20 0855.48
2009/04/23 07:27:50.3      40    -20     37     45     58 117.1  43.8  33960  286.20 0855.48
2009/04/23 07:27:50.4      40    -20     37     45     58 117.1  43.8  33960  286.20 0855.48
2009/04/23 07:27:50.5       5    -34     33     35     48 170.2  50.0  33962  286.22 0855.48
2009/04/23 07:27:50.6      32    -20     34     38     50 122.4  46.9  33962  286.22 0855.48
2009/04/23 07:27:50.7      41    -15     40     44     59 110.0  47.9  33962  286.24 0855.48
2009/04/23 07:27:50.8      38    -28     37     48     60 126.0  41.7  33960  286.20 0855.48
2009/04/23 07:27:50.9      60      3     47     61     77  86.5  42.7  33962  286.22 0855.48
2009/04/23 07:27:51.0      20     32     74     39     83  32.5  70.4  33962  286.24 0855.48
2009/04/23 07:27:51.1      19    -19     80     27     84 134.9  81.0  33964  286.25 0855.48
2009/04/23 07:27:51.2      45    -19     55     50     74 113.5  52.2  33962  286.22 0855.48
2009/04/23 07:27:51.3      26    -12     49     29     56 115.3  65.7  33960  286.20 0855.48
2009/04/23 07:27:51.4      -7      7     45     11     46 315.0  85.9  33962  286.22 0855.48
2009/04/23 07:27:51.5      -6     -7     42     10     43 219.6  85.9  33964  286.25 0855.48
2009/04/23 07:27:51.6      -9     10     49     14     50 316.6  83.9  33962  286.24 0855.48
2009/04/23 07:27:51.7       0     21     52     22     56 359.1  76.1  33964  286.25 0855.48
2009/04/23 07:27:51.8      19      8     74     21     76  66.5  83.9  33960  286.20 0855.48
2009/04/23 07:27:51.9      29     18     67     35     75  57.6  69.8  33958  286.15 0855.48
2009/04/23 07:27:52.0     -70   -136    -36    154    159 207.2 -13.3  34016  287.15 0855.48
2009/04/23 07:27:52.1      -8     13     44     16     46 327.5  80.2  33960  286.19 0855.48
2009/04/23 07:27:52.2      11      0     60     12     61  90.0  89.0  33958  286.17 0855.48
2009/04/23 07:27:52.3       0      0     39      1     39  90.0  90.0  33958  286.17 0855.48
2009/04/23 07:27:52.4      11     -2     32     12     34 101.5  81.2  33960  286.20 0855.48
2009/04/23 07:27:52.5      32    -32     38     46     59 135.8  43.7  33958  286.15 0855.48
2009/04/23 07:27:52.6      51    -61     68     80    104 140.4  44.8  33956  286.14 0855.48
2009/04/23 07:27:52.7      56   -124    120    137    182 155.5  45.8  33960  286.20 0855.48
2009/04/23 07:27:52.8      14   -146    102    147    178 174.2  38.4  33956  286.14 0855.48
2009/04/23 07:27:52.9      12   -135     90    136    163 174.7  36.5  33960  286.20 0855.48
2009/04/23 07:27:53.1      17   -141     98    143    173 172.9  37.6  33960  286.20 0855.48
2009/04/23 07:27:53.1     -12   -164     79    165    182 184.2  27.4  33960  286.19 0855.48
2009/04/23 07:27:53.2      -7   -177     73    178    192 182.5  23.4  33962  286.22 0855.48
2009/04/23 07:27:53.3      44   -182     57    188    197 166.2  17.1  33962  286.22 0855.48
2009/04/23 07:27:53.4      34   -227    -34    230    233 171.3  -8.6  33960  286.20 0855.48
2009/04/23 07:27:53.5       3   -235      0    236    237 179.1   0.2  33960  286.20 0855.48
2009/04/23 07:27:53.6      -7   -236     41    237    241 181.8  10.0  33960  286.20 0855.48
2009/04/23 07:27:53.7      10   -241     65    242    251 177.4  15.2  33962  286.21 0855.48
2009/04/23 07:27:53.8      19   -201     93    202    222 174.4  26.4  33966  286.29 0855.48
2009/04/23 07:27:53.9      53   -208     58    215    223 165.5  15.3  33962  286.24 0855.48
2009/04/23 07:27:54.0      72   -173    104    188    214 157.3  31.4  33964  286.25 0855.48
2009/04/23 07:27:54.1     120   -188     98    224    244 147.4  25.2  33966  286.30 0855.48
2009/04/23 07:27:54.2     106   -227    139    251    286 154.8  31.4  33966  286.30 0855.48
2009/04/23 07:27:54.3     163   -205     71    262    272 141.5  15.3  33964  286.25 0855.48
2009/04/23 07:27:54.4     106   -167     68    199    211 147.5  18.9  33960  286.20 0855.48
2009/04/23 07:27:54.5      85   -161     71    183    196 152.1  22.5  33966  286.29 0855.48
2009/04/23 07:27:54.6      87   -151     90    175    196 149.9  29.3  33964  286.27 0855.48
2009/04/23 07:27:54.7      43   -157     99    163    190 164.6  34.4  33966  286.29 0855.48
2009/04/23 07:27:54.8      25   -151     86    154    176 170.3  31.4  33968  286.32 0855.48
2009/04/23 07:27:54.9      -1   -133    100    134    167 180.5  40.9  33968  286.32 0855.48
2009/04/23 07:27:55.0      -6   -139    104    140    174 182.7  40.4  33964  286.27 0855.48
2009/04/23 07:27:55.1     -36   -154    107    159    191 193.4  36.7  33966  286.29 0855.48
2009/04/23 07:27:55.2     -76   -174     68    191    202 203.6  20.2  33964  286.27 0855.48
2009/04/23 07:27:55.3     -93   -143     59    171    182 213.0  19.2  33964  286.27 0855.48
2009/04/23 07:27:55.4     -89   -116     28    147    150 217.4  11.1  33964  286.25 0855.48
2009/04/23 07:27:55.5     -72   -100     46    124    132 216.0  21.0  33964  286.25 0855.48
2009/04/23 07:27:55.6     -57    -63     -4     86     87 222.3  -3.1  33964  286.25 0855.48
2009/04/23 07:27:55.7     -53    -74     32     92     98 215.6  19.4  33964  286.27 0855.48
2009/04/23 07:27:55.8     -60    -78     36     99    105 217.8  20.0  33966  286.29 0855.48
2009/04/23 07:27:55.9     -73   -100     22    124    126 216.1  10.1  33962  286.24 0855.48
2009/04/23 07:27:56.0     -49    -70     -3     86     87 215.2  -2.6  33962  286.22 0855.48
2009/04/23 07:27:56.1     -85    -91     63    125    139 223.2  29.2  33962  286.24 0855.48
2009/04/23 07:27:56.2    -130   -126      9    182    183 226.0   2.9  33964  286.27 0855.48
2009/04/23 07:27:56.3    -106   -194    -29    222    224 208.7  -7.5  33962  286.24 0855.48
2009/04/23 07:27:56.4    -137   -228    -29    267    269 211.0  -6.2  33962  286.21 0855.48
2009/04/23 07:27:56.5    -108   -209     64    236    245 207.4  15.3  33964  286.26 0855.48
2009/04/23 07:27:56.6     -74   -221     55    234    241 198.7  13.2  33964  286.25 0855.48
2009/04/23 07:27:56.8     -47   -236     27    241    243 191.5   6.5  33964  286.25 0855.48
2009/04/23 07:27:56.8     -21   -162     51    164    172 187.6  17.3  33964  286.27 0855.48
2009/04/23 07:27:56.9      54   -207     42    214    219 165.3  11.1  33962  286.22 0855.48
2009/04/23 07:27:57.0      60   -210     27    219    221 164.0   7.1  33964  286.25 0855.48
2009/04/23 07:27:57.1      71   -192     23    205    207 159.7   6.5  33964  286.27 0855.48
2009/04/23 07:27:57.2      74   -204     51    218    224 160.0  13.2  33966  286.30 0855.48
2009/04/23 07:27:57.3      46   -242     86    247    262 169.1  19.2  33970  286.36 0855.48
2009/04/23 07:27:57.4      59   -224     80    232    246 165.1  19.2  33964  286.26 0855.48
2009/04/23 07:27:57.5      73   -259     13    270    271 164.2   2.8  33966  286.28 0855.48
2009/04/23 07:27:57.6     110   -227    -10    253    254 154.1  -2.3  33962  286.23 0855.48
2009/04/23 07:27:57.7      82   -258     14    271    272 162.2   3.1  33968  286.33 0855.48
2009/04/23 07:27:57.8      79   -324     68    334    342 166.2  11.6  33970  286.36 0855.48
2009/04/23 07:27:57.9     119   -323     60    345    351 159.8  10.0  33968  286.32 0855.48
2009/04/23 07:27:58.0     128   -262     72    292    301 153.9  13.9  33968  286.31 0855.48
2009/04/23 07:27:58.1      50   -248     87    254    269 168.5  18.9  33962  286.23 0855.48
2009/04/23 07:27:58.2      -2   -286      8    287    288 180.5   1.6  33968  286.31 0855.48
2009/04/23 07:27:58.3      -8   -271     81    272    284 181.8  16.6  33970  286.36 0855.48
2009/04/23 07:27:58.4     -29   -270     81    272    284 186.3  16.6  33972  286.40 0855.48
2009/04/23 07:27:58.5     -12   -284     92    285    300 182.6  17.9  33968  286.33 0855.48
2009/04/23 07:27:58.6       4   -296     91    297    311 179.1  17.1  33968  286.33 0855.48
2009/04/23 07:27:58.7     -86   -218     83    235    250 201.6  19.4  33968  286.31 0855.48
2009/04/23 07:27:58.8     -39   -171     62    176    186 193.1  20.2  33964  286.25 0855.48
2009/04/23 07:27:58.9       0   -209     60    210    219 180.2  16.0  33966  286.30 0855.48
2009/04/23 07:27:59.0     -14   -172      8    173    174 184.9   2.9  33966  286.29 0855.48
2009/04/23 07:27:59.1      16   -210     41    211    216 175.5  11.1  33966  286.30 0855.48
2009/04/23 07:27:59.2      21   -213     76    215    229 174.2  19.6  33970  286.35 0855.48
2009/04/23 07:27:59.3     -26   -226     50    228    234 186.7  12.4  33972  286.41 0855.48
2009/04/23 07:27:59.4     -30   -253     79    255    268 186.9  17.3  33972  286.38 0855.48
2009/04/23 07:27:59.5      14   -260    133    261    292 176.9  29.2  33968  286.31 0855.48
2009/04/23 07:27:59.6     -32   -259     91    262    278 187.1  19.2  33968  286.33 0855.48
2009/04/23 07:27:59.7      17   -222     57    223    231 175.6  14.5  33968  286.32 0855.48
2009/04/23 07:27:59.8       7   -160     74    161    177 177.5  26.4  33968  286.32 0855.48
2009/04/23 07:27:59.9      11   -202     89    203    221 176.9  25.1  33968  286.34 0855.48
2009/04/23 07:28:00.0     -10   -196     57    197    206 183.1  16.3  33970  286.37 0855.48
2009/04/23 07:28:00.1       0   -226     60    227    235 179.8  15.0  33968  286.32 0855.48
2009/04/23 07:28:00.2       1   -177     75    178    193 179.5  23.8  33966  286.30 0855.48
2009/04/23 07:28:00.3     -25   -141     78    144    163 190.2  31.0  33968  286.34 0855.48
2009/04/23 07:28:00.4     -54   -141    127    152    198 200.9  44.3  33968  286.32 0855.48
2009/04/23 07:28:00.5    -227   -176    101    288    306 232.3  19.4  33970  286.35 0855.48
2009/04/23 07:28:00.6    -234   -170     23    290    291 234.0   4.6  33966  286.30 0855.48
2009/04/23 07:28:00.7    -209   -123     -9    243    244 239.4  -2.2  33964  286.26 0855.48
2009/04/23 07:28:00.8    -134   -138     66    193    205 224.1  18.9  33968  286.32 0855.48
2009/04/23 07:28:00.9    -115   -185     39    218    222 211.9  10.3  33968  286.32 0855.48
2009/04/23 07:28:01.0    -124   -175     -2    215    216 215.4  -0.7  33968  286.32 0855.48
2009/04/23 07:28:01.1     -78   -192    -25    208    210 202.3  -6.9  33968  286.32 0855.48
2009/04/23 07:28:01.2     -84   -210    -16    227    228 201.8  -4.1  33966  286.29 0855.48
2009/04/23 07:28:01.3     -81   -217     -1    232    233 200.7  -0.3  33968  286.32 0855.48
2009/04/23 07:28:01.4     -75   -228     24    241    243 198.3   5.9  33968  286.33 0855.48
2009/04/23 07:28:01.5      -3   -236    -25    237    239 180.9  -6.2  33970  286.35 0855.48
2009/04/23 07:28:01.6      13   -258    -10    259    260 177.1  -2.2  33970  286.36 0855.48
2009/04/23 07:28:01.7      26   -247     -2    249    250 173.8  -0.5  33968  286.33 0855.48
2009/04/23 07:28:01.8      36   -281      8    284    285 172.7   1.8  33970  286.35 0855.48
2009/04/23 07:28:01.9      43   -279     50    283    288 171.1  10.1  33968  286.31 0855.48
2009/04/23 07:28:02.0      90   -280     34    295    298 162.2   6.7  33966  286.30 0855.48
2009/04/23 07:28:02.1      26   -233     11    235    236 173.5   2.9  33970  286.35 0855.48
2009/04/23 07:28:02.2     -42   -212     51    217    223 191.3  13.2  33968  286.32 0855.48
2009/04/23 07:28:02.4       0   -213     42    214    219 180.2  11.1  33966  286.29 0855.48
2009/04/23 07:28:02.4       6   -227     71    228    239 178.4  17.4  33968  286.33 0855.48
2009/04/23 07:28:02.5      -8   -258     76    259    270 181.8  16.4  33970  286.36 0855.48
2009/04/23 07:28:02.7      22   -238     93    240    257 174.7  22.3  33966  286.30 0855.48
2009/04/23 07:28:02.8      43   -242     75    246    258 169.8  17.1  33970  286.35 0855.48
2009/04/23 07:28:02.9      45   -220     81    225    240 168.4  19.9  33968  286.33 0855.48
2009/04/23 07:28:03.0      51   -151     82    160    179 161.3  29.3  33970  286.35 0855.48
2009/04/23 07:28:03.0      74   -117     45    139    147 147.5  17.9  33970  286.37 0855.48
2009/04/23 07:28:03.2     129   -156     47    203    209 140.3  13.2  33966  286.30 0855.48
2009/04/23 07:28:03.3     140   -122     64    187    198 131.1  18.9  33968  286.34 0855.48
2009/04/23 07:28:03.4     186   -147     45    238    243 128.4  10.8  33968  286.33 0855.48
2009/04/23 07:28:03.5     146    -98     34    177    181 124.0  11.1  33968  286.34 0855.48
2009/04/23 07:28:03.6     111   -136     86    176    195 140.8  28.0  33968  286.32 0855.48
2009/04/23 07:28:03.7     146   -134     73    199    211 132.7  21.0  33966  286.29 0855.48
2009/04/23 07:28:03.8     150   -115     89    190    209 127.5  27.1  33968  286.34 0855.48
2009/04/23 07:28:03.9     150   -130     60    199    208 130.9  16.8  33968  286.34 0855.48
2009/04/23 07:28:04.0     120   -140     70    185    197 139.2  21.5  33966  286.29 0855.48
2009/04/23 07:28:04.1     131    -40     77    138    158 106.9  31.6  33968  286.34 0855.48
2009/04/23 07:28:04.2     116    -24    -19    119    121 101.9  -9.4  33966  286.29 0855.48
2009/04/23 07:28:04.3      47    -63     29     79     84 143.0  20.4  33968  286.32 0855.48
2009/04/23 07:28:04.4      14   -147     33    148    152 174.2  12.6  33968  286.34 0855.48
2009/04/23 07:28:04.5      58   -127     48    140    149 155.5  18.9  33962  286.24 0855.48
2009/04/23 07:28:04.6      72   -113     43    135    142 147.5  17.9  33964  286.25 0855.48
2009/04/23 07:28:04.7      61    -61     12     87     88 134.9   8.0  33966  286.29 0855.48
2009/04/23 07:28:04.8      61      0     29     62     68  90.0  27.1  33964  286.27 0855.48
2009/04/23 07:28:04.9      49      6     28     50     57  83.0  32.4  33964  286.27 0855.48
2009/04/23 07:28:05.0     -15    -35     64     39     74 203.6  64.7  33964  286.27 0855.48
2009/04/23 07:28:05.1    -101   -149     81    181    198 214.3  25.3  33968  286.32 0855.48
2009/04/23 07:28:05.2     -42   -140    184    147    235 196.9  57.5  33968  286.32 0855.48
2009/04/23 07:28:05.4      62   -177     68    188    199 160.4  20.7  33964  286.27 0855.48
2009/04/23 07:28:05.5     115   -161     66    199    210 144.4  18.6  33966  286.29 0855.48
2009/04/23 07:28:05.6     102   -162    141    192    238 147.9  39.9  33964  286.27 0855.48
2009/04/23 07:28:05.7       0   -233    100    234    254 180.0  24.6  33968  286.33 0855.48
2009/04/23 07:28:05.8      39   -201    102    205    228 168.9  28.2  33970  286.35 0855.48
2009/04/23 07:28:05.9      39   -165    111    170    203 166.4  36.0  33966  286.29 0855.48
2009/04/23 07:28:06.0       3   -111    131    112    172 178.2  55.4  33968  286.32 0855.48
2009/04/23 07:28:06.1      22    -67     84     71    109 161.7  56.3  33966  286.29 0855.48
2009/04/23 07:28:06.2      -6    -49     63     50     80 188.0  57.5  33966  286.29 0855.48
2009/04/23 07:28:06.3     -18   -146    144    148    206 187.1  49.4  33964  286.27 0855.48
2009/04/23 07:28:06.4      42    -80    128     91    157 151.9  61.1  33966  286.29 0855.48
2009/04/23 07:28:06.5      -3   -170    127    171    213 181.1  40.1  33972  286.39 0855.48
2009/04/23 07:28:06.6      28   -109    159    113    195 165.3  61.1  33976  286.46 0855.48
2009/04/23 07:28:06.7     -14    -86    140     88    165 189.8  64.7  33976  286.47 0855.48
2009/04/23 07:28:06.8       0   -108    103    109    149 180.0  48.0  33976  286.46 0855.48
2009/04/23 07:28:06.9      21      0     75     22     78  90.0  82.8  33974  286.44 0855.48
2009/04/23 07:28:07.0       7    -94    115     95    149 175.5  56.4  33970  286.35 0855.48
2009/04/23 07:28:07.1     -24   -109     97    112    148 192.5  45.4  33974  286.42 0855.48
2009/04/23 07:28:07.2      -6    -66     92     67    113 185.3  60.5  33972  286.39 0855.48
2009/04/23 07:28:07.3     -20      4     59     21     62 283.3  80.2  33970  286.37 0855.48
2009/04/23 07:28:07.4     -11    -26     41     29     50 203.6  61.5  33972  286.39 0855.48
2009/04/23 07:28:07.5      28    -35     48     46     66 141.3  50.1  33966  286.29 0855.48
2009/04/23 07:28:07.6      29    -34     55     46     71 139.5  56.3  33968  286.32 0855.48
2009/04/23 07:28:07.7      16    -36     47     40     61 156.4  55.4  33968  286.32 0855.48
2009/04/23 07:28:07.8     -12    -87     93     88    128 188.5  51.6  33970  286.35 0855.48
2009/04/23 07:28:07.9     -22    -95     72     98    121 193.4  40.1  33972  286.39 0855.48
2009/04/23 07:28:08.0     -19    -71     55     74     92 195.1  40.7  33968  286.32 0855.48
2009/04/23 07:28:08.1     -23    -70     45     74     86 198.7  34.4  33968  286.34 0855.48
2009/04/23 07:28:08.2     -23    -58     61     63     87 201.8  50.0  33966  286.29 0855.48
2009/04/23 07:28:08.3      -8    -25     65     27     70 198.7  76.1  33966  286.29 0855.48
2009/04/23 07:28:08.4     -18    -17     67     26     71 226.9  78.2  33966  286.29 0855.48
2009/04/23 07:28:08.5     -92     -7     77     93    120 265.6  43.8  33966  286.29 0855.48
2009/04/23 07:28:08.6     -24    -51     88     57    104 205.3  64.6  33966  286.29 0855.48
2009/04/23 07:28:08.7     -23    -70     56     74     92 198.3  41.7  33966  286.29 0855.48
2009/04/23 07:28:08.8      -2    -81     64     82    104 181.8  42.2  33968  286.32 0855.48
2009/04/23 07:28:08.9      25   -102     67    106    125 166.2  35.5  33974  286.42 0855.48
2009/04/23 07:28:09.0      40   -139     67    145    159 164.0  26.6  33970  286.37 0855.48
2009/04/23 07:28:09.1      83   -188    148    206    253 156.2  39.5  33972  286.40 0855.48
2009/04/23 07:28:09.2      15   -153     37    154    159 174.2  13.5  33972  286.41 0855.48
2009/04/23 07:28:09.3     -57   -185     66    194    206 197.2  18.9  33970  286.37 0855.48
2009/04/23 07:28:09.4      14   -181     -8    182    183 175.3  -2.6  33968  286.34 0855.48
2009/04/23 07:28:09.5      51    -64    110     83    137 141.3  59.0  33972  286.39 0855.48
2009/04/23 07:28:09.6     -42   -171     80    177    194 194.0  26.2  33972  286.39 0855.48
2009/04/23 07:28:09.7       2   -140     10    141    142 179.0   4.4  33970  286.37 0855.48
2009/04/23 07:28:09.8      36   -180     85    184    202 168.7  26.4  33972  286.41 0855.48
2009/04/23 07:28:09.9      49   -121    113    131    173 157.7  45.4  33972  286.39 0855.48
2009/04/23 07:28:10.0     136   -137     93    194    215 135.1  27.3  33972  286.39 0855.48
2009/04/23 07:28:10.1     149   -100     58    180    190 124.0  17.9  33972  286.41 0855.48
2009/04/23 07:28:10.2     115   -140     10    182    183 140.6   3.1  33974  286.44 0855.48
2009/04/23 07:28:10.3      72   -191     32    205    208 159.3   9.0  33970  286.35 0855.47
2009/04/23 07:28:10.4      42   -189     50    194    201 167.3  14.5  33970  286.35 0855.47
2009/04/23 07:28:10.5      73   -134    -13    153    154 151.5  -5.2  33972  286.41 0855.47
2009/04/23 07:28:10.6      63   -130    -23    145    147 154.1  -9.3  33972  286.39 0855.47
2009/04/23 07:28:10.7      40   -119    -10    126    127 161.3  -4.6  33970  286.35 0855.47
2009/04/23 07:28:10.8      45    -84    -26     96    100 151.5 -15.5  33972  286.39 0855.47
2009/04/23 07:28:10.9      40    -73     21     84     87 151.5  14.3  33970  286.37 0855.47
2009/04/23 07:28:11.0      41    -47     40     63     74 138.6  35.5  33972  286.39 0855.47
2009/04/23 07:28:11.1      71    -22     69     75    101 107.7  47.9  33972  286.39 0855.47
2009/04/23 07:28:11.2      90    -20     74     93    118 102.8  42.2  33972  286.39 0855.47
2009/04/23 07:28:11.3      53    -33     67     63     91 122.5  51.6  33970  286.37 0855.47
2009/04/23 07:28:11.4       5    -17     51     18     54 161.7  81.2  33974  286.44 0855.47
2009/04/23 07:28:11.5      35    -25     61     44     75 126.0  60.6  33972  286.39 0855.47
2009/04/23 07:28:11.6      50    -41     41     66     77 129.5  35.5  33974  286.42 0855.47
2009/04/23 07:28:11.7      41    -87     73     97    121 154.6  41.2  33974  286.42 0855.47
2009/04/23 07:28:11.8      95    -88     59    130    142 132.7  25.7  33974  286.42 0855.47
2009/04/23 07:28:11.9     152    -71     48    168    175 115.2  16.0  33970  286.37 0855.47
2009/04/23 07:28:12.0     106   -106     58    151    161 135.0  22.0  33970  286.35 0855.47
2009/04/23 07:28:12.1     119   -123     21    172    174 135.9   7.2  33970  286.35 0855.47
2009/04/23 07:28:12.2     129   -119      5    176    177 132.7   1.8  33968  286.32 0855.47
2009/04/23 07:28:12.3     125    -99     12    160    161 128.6   4.6  33968  286.34 0855.47
2009/04/23 07:28:12.4     106    -81    -22    134    136 127.7  -9.4  33972  286.39 0855.47
2009/04/23 07:28:12.5      63    -80    -34    102    108 141.7 -18.7  33972  286.39 0855.47
2009/04/23 07:28:12.6      23   -154    -39    156    162 171.3 -14.3  33972  286.39 0855.47
2009/04/23 07:28:12.7       1   -144    -34    145    150 179.5 -13.4  33970  286.37 0855.47
2009/04/23 07:28:12.8      21   -106    -39    109    116 168.5 -19.7  33972  286.41 0855.47
2009/04/23 07:28:12.9       0    -99     -3    100    101 180.0  -2.2  33972  286.41 0855.47
2009/04/23 07:28:13.0       0   -154     70    155    170 180.4  26.2  33968  286.34 0855.47
2009/04/23 07:28:13.1     -16   -170    110    171    203 185.6  35.6  33976  286.46 0855.47
2009/04/23 07:28:13.2     107   -209     88    235    250 152.8  21.0  33974  286.42 0855.47
2009/04/23 07:28:13.3      70   -210     22    222    224 161.5   5.7  33970  286.35 0855.47
2009/04/23 07:28:13.4      84   -182     43    201    206 155.3  12.2  33970  286.37 0855.47
2009/04/23 07:28:13.5      58   -176     40    186    191 161.7  12.2  33980  286.52 0855.47
2009/04/23 07:28:13.6      47   -203    120    209    241 166.9  32.4  33978  286.49 0855.47
2009/04/23 07:28:13.7      65   -166    109    179    209 158.6  34.4  33978  286.51 0855.47
2009/04/23 07:28:13.8      77   -153    130    172    215 153.3  41.2  33978  286.49 0855.47
2009/04/23 07:28:13.9      59   -194     88    203    221 163.1  24.9  33976  286.46 0855.47
2009/04/23 07:28:14.0      77   -190    107    206    232 157.9  29.5  33976  286.47 0855.47
2009/04/23 07:28:14.1      45   -226    109    231    255 168.5  27.1  33980  286.53 0855.47
2009/04/23 07:28:14.2      10   -247    131    248    280 177.5  30.1  33982  286.55 0855.47
2009/04/23 07:28:14.3      55   -236    103    243    263 166.7  24.3  33974  286.43 0855.47
2009/04/23 07:28:14.4       4   -270     94    271    287 179.0  19.2  33972  286.40 0855.47
2009/04/23 07:28:14.5      33   -249    113    252    276 172.4  25.7  33972  286.40 0855.47
2009/04/23 07:28:14.6      75   -273    105    284    302 164.6  21.0  33974  286.42 0855.47
2009/04/23 07:28:14.7      79   -260     77    272    283 163.1  15.8  33976  286.47 0855.47
2009/04/23 07:28:14.8      19   -250     17    251    252 175.6   3.9  33972  286.40 0855.47
2009/04/23 07:28:14.9     -32   -216    -27    219    221 188.5  -7.2  33972  286.41 0855.47
2009/04/23 07:28:15.0      52   -186     50    194    201 164.4  14.5  33978  286.51 0855.47
2009/04/23 07:28:15.1      89   -216     68    234    244 157.5  16.3  33982  286.55 0855.47
2009/04/23 07:28:15.2     100   -207     30    231    233 154.1   7.5  33980  286.52 0855.47
2009/04/23 07:28:15.3      24   -212     60    214    223 173.5  15.8  33978  286.49 0855.47
2009/04/23 07:28:15.4      50   -182     87    189    208 164.6  27.0  33980  286.54 0855.47
2009/04/23 07:28:15.5     130   -190    111    231    256 145.5  27.3  33982  286.55 0855.47
2009/04/23 07:28:15.6      96   -194     83    217    232 153.5  22.0  33980  286.54 0855.47
2009/04/23 07:28:15.7      53   -202     95    210    230 165.1  26.2  33978  286.49 0855.47
2009/04/23 07:28:15.8      22   -233    144    235    275 174.4  34.4  33980  286.53 0855.47
2009/04/23 07:28:15.9      36   -213     74    217    230 170.4  18.9  33980  286.52 0855.47
2009/04/23 07:28:16.0      -3   -194     19    195    196 180.9   5.7  33980  286.52 0855.47
2009/04/23 07:28:16.1      59   -174    -29    185    188 161.1  -9.0  33980  286.54 0855.47
2009/04/23 07:28:16.2      10   -130    -42    131    137 175.5 -23.3  33978  286.51 0855.47
2009/04/23 07:28:16.3       8   -108    -27    109    113 175.5 -13.9  33982  286.56 0855.47
2009/04/23 07:28:16.4      16   -109     64    111    128 171.5  32.9  33976  286.47 0855.47
2009/04/23 07:28:16.5      16   -181     62    182    193 174.9  18.9  33980  286.54 0855.47
2009/04/23 07:28:16.6      48   -236     27    241    243 168.4   6.5  33982  286.55 0855.47
2009/04/23 07:28:16.7     -13   -265    121    266    292 182.9  26.2  33982  286.55 0855.47
2009/04/23 07:28:16.8     -88   -282    124    296    320 197.4  24.1  33982  286.55 0855.47
2009/04/23 07:28:16.9    -112   -234    120    260    286 205.6  26.6  33984  286.58 0855.47
2009/04/23 07:28:17.0    -130   -209    144    247    285 211.9  33.1  33986  286.62 0855.47
2009/04/23 07:28:17.1    -103   -319    157    336    370 198.0  27.0  33984  286.59 0855.47
2009/04/23 07:28:17.2    -145   -312    170    345    384 205.0  28.0  33984  286.59 0855.47
2009/04/23 07:28:17.3    -180   -247    101    307    324 216.1  18.2  33980  286.53 0855.47
2009/04/23 07:28:17.4     -72   -244    132    255    287 196.5  29.3  33982  286.55 0855.47
2009/04/23 07:28:17.5    -152   -306    128    342    365 206.4  21.4  33980  286.54 0855.47
2009/04/23 07:28:17.6    -276   -224     46    356    359 231.0   7.5  33984  286.59 0855.47
2009/04/23 07:28:17.7    -305    -92    -47    319    323 253.2  -8.4  33986  286.62 0855.47
2009/04/23 07:28:17.8    -289     -6    -31    290    292 268.7  -6.2  33982  286.55 0855.47
2009/04/23 07:28:17.9    -239    132    -84    274    286 298.9 -22.1  33984  286.58 0855.47
2009/04/23 07:28:18.0      98    254     91    273    288  21.2  18.5  33982  286.55 0855.47
2009/04/23 07:28:18.1     352      5    185    353    398  89.2  30.0  33982  286.56 0855.47
2009/04/23 07:28:18.2     286   -103    182    305    355 109.9  33.5  33984  286.59 0855.47
2009/04/23 07:28:18.3     280   -138    129    313    338 116.2  23.6  33980  286.54 0855.47
2009/04/23 07:28:18.4     307   -221    177    379    418 125.7  27.0  33990  286.69 0855.47
2009/04/23 07:28:18.5     330   -150     18    363    364 114.4   2.9  33982  286.56 0855.47
2009/04/23 07:28:18.6     158   -139    -66    211    222 131.3 -17.3  33982  286.56 0855.47
2009/04/23 07:28:18.7      28   -256    -72    258    267 173.7 -20.2  33982  286.57 0855.47
2009/04/23 07:28:18.8      53   -236    -44    242    246 167.3 -10.4  33980  286.53 0855.47
2009/04/23 07:28:18.9      44   -130    -28    138    141 161.3 -11.5  33982  286.56 0855.47
2009/04/23 07:28:19.0      18   -109    -35    111    117 170.2 -17.5  33984  286.61 0855.47
2009/04/23 07:28:19.1      -8      3    -69      9     69 295.3 -90.0  33986  286.62 0855.47
2009/04/23 07:28:19.2      39     52     -7     66     67  37.0  -6.2  33984  286.59 0855.47
2009/04/23 07:28:19.4     148     14    121    149    191  84.3  43.7  33982  286.57 0855.47
2009/04/23 07:28:19.5     102    -14     66    103    122  97.9  35.6  33982  286.57 0855.47
2009/04/23 07:28:19.6     107     35     69    113    132  71.8  34.4  33982  286.57 0855.47
2009/04/23 07:28:19.7     143     57     71    155    170  68.2  26.4  33982  286.57 0855.47
2009/04/23 07:28:19.8     165     63    102    177    204  68.9  32.7  33984  286.59 0855.47
2009/04/23 07:28:19.9      69     71    113    100    150  44.1  54.2  33980  286.54 0855.47
2009/04/23 07:28:20.0      44     41    148     61    160  46.7  76.6  33982  286.57 0855.47
2009/04/23 07:28:20.1      64     40    145     76    163  57.6  70.0  33980  286.52 0855.47
2009/04/23 07:28:20.2     119     87    168    148    223  53.6  54.2  33982  286.56 0855.47
2009/04/23 07:28:20.3      92    126     82    157    177  36.1  29.5  33978  286.49 0855.47
2009/04/23 07:28:20.4     -28     87    145     92    171 341.7  64.7  33980  286.54 0855.47
2009/04/23 07:28:20.5     -13    124    114    125    169 353.8  47.1  33982  286.57 0855.47
2009/04/23 07:28:20.6       3     44    152     45    158   4.5  83.3  33982  286.57 0855.47
2009/04/23 07:28:20.7      15     46    104     49    114  18.3  73.1  33982  286.57 0855.47
2009/04/23 07:28:20.8       4    105    141    106    176   2.2  59.4  33978  286.51 0855.47
2009/04/23 07:28:20.9      14     27    135     31    138  27.2  87.0  33980  286.54 0855.47
2009/04/23 07:28:21.0      15     73     99     75    124  11.6  59.0  33980  286.54 0855.47
2009/04/23 07:28:21.1      -1     33    102     34    107 357.4  81.0  33982  286.56 0855.47
2009/04/23 07:28:21.2     -61     90    121    109    162 325.7  53.3  33970  286.37 0855.47
2009/04/23 07:28:21.3     -94    123    101    156    185 322.6  35.6  33980  286.52 0855.48
2009/04/23 07:28:21.4       2    179     49    180    187   0.7  15.3  33974  286.44 0855.48
2009/04/23 07:28:21.5      48    103     22    114    117  25.3  11.1  33976  286.47 0855.48
2009/04/23 07:28:21.6      39    110     40    117    124  19.6  19.2  33980  286.54 0855.48
2009/04/23 07:28:21.7     -19     59    -71     63     94 341.7 -58.1  33978  286.51 0855.48
2009/04/23 07:28:21.8       0      8    -12      9     15   4.5 -60.8  33974  286.42 0855.48
2009/04/23 07:28:21.9     -77    140      2    160    161 331.1   0.8  33980  286.52 0855.48
2009/04/23 07:28:22.0     -68    142      0    158    159 334.5  -0.3  33976  286.46 0855.48
2009/04/23 07:28:22.1     -38    124     47    130    138 342.6  20.9  33978  286.49 0855.48
2009/04/23 07:28:22.2      33    174     24    178    180  10.9   7.8  33980  286.52 0855.48
2009/04/23 07:28:22.3     -13    216     28    217    219 356.4   7.5  33978  286.49 0855.48
2009/04/23 07:28:22.4       7    190     23    191    193   2.2   6.9  33978  286.49 0855.48
2009/04/23 07:28:22.5     -11    113     -2    114    115 354.2  -1.3  33980  286.52 0855.48
2009/04/23 07:28:22.6     -41     91     -4    101    102 335.5  -2.6  33982  286.56 0855.48
2009/04/23 07:28:22.7     -24    121     27    124    128 348.5  12.6  33980  286.54 0855.48
2009/04/23 07:28:22.8     -40    108     42    116    123 339.5  20.9  33980  286.54 0855.48
2009/04/23 07:28:22.9      10     99     54    100    113   6.2  31.3  33978  286.49 0855.48
2009/04/23 07:28:23.0      16     83     95     85    127  11.1  53.7  33980  286.52 0855.48
2009/04/23 07:28:23.1     -38     95     98    103    142 338.2  48.5  33978  286.51 0855.48
2009/04/23 07:28:23.2     -30     68     89     75    116 336.4  55.8  33978  286.49 0855.48
2009/04/23 07:28:23.3     -43     67     63     80    101 327.4  42.7  33980  286.52 0855.48
2009/04/23 07:28:23.4     -37     12     45     39     59 288.2  54.3  33978  286.51 0855.48
2009/04/23 07:28:23.5       8      3     82      9     82  64.7  90.0  33978  286.49 0855.48
2009/04/23 07:28:23.6      32     50     47     60     76  32.5  42.7  33980  286.52 0855.48
2009/04/23 07:28:23.7      29     67     35     74     81  23.6  26.6  33978  286.51 0855.48
2009/04/23 07:28:23.8      29     67     49     74     88  23.6  36.5  33978  286.51 0855.48
2009/04/23 07:28:23.9     -10     39     10     41     43 345.7  14.3  33978  286.51 0855.48
2009/04/23 07:28:24.0     -28     18    -22     34     40 302.5 -40.9  33978  286.51 0855.48
2009/04/23 07:28:24.1     -32    -15    -44     36     56 244.7 -60.8  33980  286.54 0855.48
2009/04/23 07:28:24.2     -23     -7     11     25     27 251.6  25.1  33976  286.46 0855.48
2009/04/23 07:28:24.3     -46      0     36     47     59 270.0  41.7  33978  286.49 0855.48
2009/04/23 07:28:24.4     -38     46    -11     61     62 320.4 -10.3  33978  286.49 0855.48
2009/04/23 07:28:24.5     -37    -17    -20     41     45 244.6 -32.6  33980  286.52 0855.48
2009/04/23 07:28:24.6      -3    -38    -30     39     49 184.5 -46.1  33978  286.49 0855.48
2009/04/23 07:28:24.7      33     -3      0     34     35  96.1   0.8  33976  286.47 0855.48
2009/04/23 07:28:24.8      55    -18     16     58     61 108.2  15.3  33980  286.54 0855.48
2009/04/23 07:28:24.9     121      9     33    122    127  85.6  15.2  33978  286.49 0855.48
2009/04/23 07:28:25.0     156     57     24    167    169  69.8   8.2  33976  286.47 0855.48
2009/04/23 07:28:25.1     135     60     91    148    173  66.0  35.0  33968  286.32 0855.48
2009/04/23 07:28:25.2     132     44    143    140    200  71.6  50.4  33970  286.37 0855.48
2009/04/23 07:28:25.3      88     64    118    109    160  54.0  52.5  33976  286.47 0855.49
2009/04/23 07:28:25.4      -4     28     95     29     99 350.2  82.3  33980  286.52 0855.49
2009/04/23 07:28:25.5     -38    -81     47     90    101 205.4  29.8  33978  286.49 0855.49
2009/04/23 07:28:25.6      25    -17    -29     31     42 124.2 -53.4  33976  286.46 0855.49
2009/04/23 07:28:25.7     109     11     20    110    112  83.9  10.6  33976  286.46 0855.49
2009/04/23 07:28:25.8     135     10     34    136    141  85.6  14.3  33976  286.46 0855.49
2009/04/23 07:28:25.9     142     19     28    144    147  82.1  11.1  33978  286.49 0855.49
2009/04/23 07:28:26.0     159     -5     65    160    172  92.1  23.0  33978  286.51 0855.49
2009/04/23 07:28:26.1     137     -1     37    138    144  90.8  15.2  33978  286.49 0855.49
2009/04/23 07:28:26.2     100     31     28    105    109  72.7  15.3  33978  286.49 0855.49
2009/04/23 07:28:26.3     115     -8     27    116    120  94.3  13.2  33978  286.49 0855.49
2009/04/23 07:28:26.4     100    -22     -5    103    104 102.8  -3.1  33976  286.47 0855.49
2009/04/23 07:28:26.5     141     19    -24    143    146  82.1  -9.8  33974  286.44 0855.49
2009/04/23 07:28:26.6     136    -31    -28    140    143 103.2 -11.3  33978  286.51 0855.49
2009/04/23 07:28:26.7      86    -30      5     92     93 109.5   3.3  33976  286.47 0855.49
2009/04/23 07:28:26.8      82    -63    -18    104    106 127.8  -9.8  33978  286.51 0855.49
2009/04/23 07:28:26.9      82    -63    -18    104    106 127.8  -9.8  33978  286.51 0855.49
2009/04/23 07:28:27.0      85    -62    -48    106    116 126.0 -31.0  33976  286.47 0855.49
2009/04/23 07:28:27.1      76    -64    -36    100    106 130.0 -24.4  33978  286.51 0855.49
2009/04/23 07:28:27.2     -32     87   -120     93    151 339.5 -62.8  34032  287.40 0855.49
2009/04/23 07:28:27.3      48    -25    -29     55     62 117.1 -34.7  33976  286.47 0855.50
2009/04/23 07:28:27.4      57    -36    -33     68     75 122.4 -31.7  33978  286.49 0855.50
2009/04/23 07:28:27.5      50    -14    -14     52     54 105.9 -15.5  33978  286.49 0855.50
2009/04/23 07:28:27.6      52    -17    -23     55     59 108.4 -27.5  33976  286.47 0855.50
2009/04/23 07:28:27.7      42    -46    -20     63     66 137.7 -23.8  33978  286.49 0855.50
2009/04/23 07:28:27.8      38    -53    -23     66     69 143.9 -23.3  33974  286.44 0855.50
2009/04/23 07:28:27.9      57    -31    -18     66     69 118.9 -15.4  33978  286.51 0855.50
2009/04/23 07:28:28.0      68    -19     23     71     75 105.9  18.4  33978  286.51 0855.50
2009/04/23 07:28:28.1      59    -48     24     77     81 129.5  17.9  33976  286.47 0855.50
2009/04/23 07:28:28.2      32    -36     17     49     53 138.6  19.4  33978  286.51 0855.50
2009/04/23 07:28:28.3      14    -53     -2     55     56 164.9  -2.2  33978  286.51 0855.50
2009/04/23 07:28:28.4      14    -49      0     52     53 164.0  -0.3  33978  286.51 0855.50
2009/04/23 07:28:28.5      18    -55     11     58     60 161.5  11.0  33976  286.47 0855.50
2009/04/23 07:28:28.6     -10    -53     10     54     56 190.7  11.1  33978  286.49 0855.50
2009/04/23 07:28:28.7     -16    -46     -6     49     50 200.0  -7.3  33978  286.51 0855.50
2009/04/23 07:28:28.8     -10    -39     -4     41     42 194.3  -6.2  33978  286.51 0855.50
2009/04/23 07:28:29.0     -16    -26     10     31     33 212.6  19.4  33978  286.51 0855.50
2009/04/23 07:28:29.1     -14    -10     12     18     21 234.0  37.6  33980  286.52 0855.50
2009/04/23 07:28:29.1     -13      1     -7     14     15 277.9 -31.6  33978  286.49 0855.50
2009/04/23 07:28:29.2      -7     -8    -21     11     23 219.6 -75.2  33980  286.52 0855.50
2009/04/23 07:28:29.3      -6    -19    -18     21     27 198.5 -50.2  33980  286.52 0855.51
2009/04/23 07:28:29.5     -15    -14    -18     21     27 226.9 -50.2  33978  286.51 0855.51
2009/04/23 07:28:29.6      -3     14    -24     15     28 348.4 -69.1  33976  286.47 0855.51
2009/04/23 07:28:29.7      25     29     -2     39     40  41.4  -3.1  33978  286.49 0855.51
2009/04/23 07:28:29.8      38     25     30     46     54  55.8  35.6  33976  286.46 0855.51
2009/04/23 07:28:29.9      62      6     68     63     92  83.9  52.2  33976  286.47 0855.51
2009/04/23 07:28:30.0      46     26     67     53     85  60.2  57.5  33976  286.46 0855.51
2009/04/23 07:28:30.1      81     -7    100     82    129  95.2  56.4  33978  286.49 0855.51
2009/04/23 07:28:30.2     129    -38     65    135    149 106.4  27.3  33976  286.47 0855.51
2009/04/23 07:28:30.3     114     -8     89    115    145  94.4  41.7  33976  286.46 0855.51
2009/04/23 07:28:30.4      69     14     86     71    111  78.5  56.4  33976  286.47 0855.51
2009/04/23 07:28:30.5      48    -45     54     67     86 133.2  43.3  33976  286.46 0855.51
2009/04/23 07:28:30.6       6    -76     13     77     79 175.5  10.1  33974  286.42 0855.51
2009/04/23 07:28:30.7     -31    -63    -22     71     75 206.3 -17.6  33972  286.41 0855.51
2009/04/23 07:28:30.8     -25    -43    -17     50     52 210.7 -23.6  33976  286.46 0855.51
2009/04/23 07:28:30.9     -20    -36     19     42     46 209.9  25.1  33972  286.41 0855.51
2009/04/23 07:28:31.0      12    -31     27     34     43 158.2  42.7  33972  286.41 0855.51
2009/04/23 07:28:31.1      39    -74    -12     84     85 151.9  -8.2  33976  286.46 0855.51
2009/04/23 07:28:31.2     138   -134    -40    193    198 134.2 -11.9  33980  286.54 0855.51
2009/04/23 07:28:31.3     170    -67     13    184    185 111.7   4.2  33970  286.37 0855.51
2009/04/23 07:28:31.4    -120     39    -25    127    130 288.2 -11.5  33978  286.49 0855.51
2009/04/23 07:28:31.5    -133     95   -129    164    208 305.7 -46.6  33976  286.46 0855.51
2009/04/23 07:28:31.6    -118     96    -62    153    165 309.1 -27.4  33978  286.49 0855.51
2009/04/23 07:28:31.7    -122     57    -88    135    161 295.2 -40.7  33974  286.44 0855.51
2009/04/23 07:28:31.8     -96     31    -72    102    124 288.2 -43.0  33976  286.47 0855.51
2009/04/23 07:28:31.9     -71     51    -15     88     90 306.0  -9.8  33976  286.47 0855.51
2009/04/23 07:28:32.0     -75      6    -63     76     98 275.2 -48.2  33976  286.47 0855.51
2009/04/23 07:28:32.1     -46      3    -13     47     48 274.4 -21.7  33976  286.46 0855.51
2009/04/23 07:28:32.2     -77     26      5     82     83 288.6   3.8  33972  286.39 0855.51
2009/04/23 07:28:32.3     -13     17     18     22     28 322.2  45.8  33976  286.47 0855.51
2009/04/23 07:28:32.4      57     58      5     82     83  44.5   3.8  33976  286.46 0855.51
2009/04/23 07:28:32.5      25    155     94    158    183   9.3  33.7  33968  286.34 0855.51
2009/04/23 07:28:32.6     -15    202    107    203    229 355.6  30.1  33970  286.35 0855.51
2009/04/23 07:28:32.7     -41    139     75    145    163 343.5  29.8  33978  286.49 0855.51
2009/04/23 07:28:32.8     -59    143     51    155    164 337.5  18.4  33976  286.46 0855.51
2009/04/23 07:28:32.9     -73    115     45    137    145 327.4  18.4  33974  286.44 0855.51
2009/04/23 07:28:33.0     -81    -30     57     87    104 249.6  36.0  33972  286.39 0855.51
2009/04/23 07:28:33.1     -77     -1      0     78     79 269.1   0.2  33974  286.42 0855.51
2009/04/23 07:28:33.2     -97      2     12     98     99 271.7   7.1  33970  286.37 0855.51
2009/04/23 07:28:33.3     -86     25    -14     90     92 286.4  -9.3  33974  286.42 0855.51
2009/04/23 07:28:33.5    -121    -60    -32    136    140 243.4 -13.4  33976  286.46 0855.50
2009/04/23 07:28:33.6    -122    -26    -43    125    132 257.6 -23.3  33978  286.49 0855.50
2009/04/23 07:28:33.7     -99    -33    -74    105    128 251.4 -43.0  33974  286.44 0855.50
2009/04/23 07:28:33.8     -72    -23    -40     76     85 251.8 -34.7  33976  286.47 0855.50
2009/04/23 07:28:33.9     -72    -24    -24     77     80 251.4 -22.3  33978  286.49 0855.50
2009/04/23 07:28:34.0     -76    -17    -12     78     80 257.2  -9.3  33972  286.41 0855.50
2009/04/23 07:28:34.1     -83    -36      4     91     92 246.0   2.9  33976  286.46 0855.50
2009/04/23 07:28:34.2     -85    -40      4     95     96 244.7   2.8  33978  286.49 0855.50
2009/04/23 07:28:34.3     -73    -51     31     90     96 234.9  19.2  33974  286.44 0855.50
2009/04/23 07:28:34.4     -88     -6     62     89    108 266.1  38.0  33974  286.44 0855.50
2009/04/23 07:28:34.5     -82    -12     87     83    120 261.6  51.6  33978  286.49 0855.50
2009/04/23 07:28:34.6      15    -34    115     38    121 156.4  80.7  33974  286.44 0855.50
2009/04/23 07:28:34.7     -43    -41     84     60    103 226.7  61.1  33974  286.44 0855.50
2009/04/23 07:28:34.8      24    -50     58     56     80 153.7  50.7  33974  286.44 0855.50
2009/04/23 07:28:34.9      51    -90     28    104    108 150.1  15.2  33972  286.41 0855.50
2009/04/23 07:28:35.0      45   -107     35    117    123 157.3  16.8  33976  286.46 0855.50
2009/04/23 07:28:35.1      43   -120     50    128    137 159.9  23.0  33976  286.47 0855.50
2009/04/23 07:28:35.2      27   -160     56    163    173 170.3  19.2  33978  286.51 0855.50
2009/04/23 07:28:35.3      11   -149     41    150    156 175.6  15.3  33978  286.49 0855.50
2009/04/23 07:28:35.4     -18   -140      3    142    143 187.6   1.2  33978  286.51 0855.50
2009/04/23 07:28:35.5     -27   -204     45    206    211 187.6  12.4  33974  286.44 0855.50
2009/04/23 07:28:35.6     -54   -203     51    211    218 195.1  13.7  33976  286.46 0855.50
2009/04/23 07:28:35.7     -62   -197     51    207    214 197.6  13.9  33976  286.46 0855.50
2009/04/23 07:28:35.8     -62   -196     32    206    209 197.6   9.0  33976  286.47 0855.50
2009/04/23 07:28:35.9     -16   -246     56    247    254 183.8  12.9  33974  286.42 0855.50
2009/04/23 07:28:36.0       8   -228     95    229    247 177.8  24.1  33978  286.50 0855.50
2009/04/23 07:28:36.1      33   -208     88    211    228 170.9  23.6  33978  286.49 0855.50
2009/04/23 07:28:36.2     -11   -224     70    225    236 182.9  17.4  33980  286.52 0855.50
2009/04/23 07:28:36.3     -16   -214     50    215    221 184.4  13.2  33980  286.54 0855.50
2009/04/23 07:28:36.4     -40   -241     82    245    259 189.6  18.6  33980  286.53 0855.50
2009/04/23 07:28:36.5     -23   -253     61    255    263 185.3  13.5  33978  286.48 0855.50
2009/04/23 07:28:36.6     -30   -235     79    237    250 187.3  18.5  33982  286.55 0855.50
2009/04/23 07:28:36.7     -38   -269     43    272    276 188.2   9.0  33980  286.52 0855.50
2009/04/23 07:28:36.8     -73   -291     42    301    305 194.2   8.0  33982  286.57 0855.50
2009/04/23 07:28:36.9     -61   -303     35    310    312 191.5   6.5  33980  286.52 0855.50
2009/04/23 07:28:37.0     -59   -270     22    277    278 192.5   4.6  33978  286.50 0855.50
2009/04/23 07:28:37.1     -54   -237      5    244    245 192.9   1.2  33978  286.50 0855.50
2009/04/23 07:28:37.2     -92   -254    -10    271    272 200.0  -2.3  33980  286.52 0855.50
2009/04/23 07:28:37.3    -111   -265     67    288    296 202.7  13.1  33972  286.40 0855.50
2009/04/23 07:28:37.4    -143   -212     55    256    262 214.1  12.2  33974  286.42 0855.50
2009/04/23 07:28:37.5    -101   -185     38    211    215 208.7  10.3  33976  286.46 0855.50
2009/04/23 07:28:37.6     -14   -141     73    142    159 185.8  29.3  33976  286.47 0855.50
2009/04/23 07:28:37.7     -22   -177     51    179    187 187.3  16.0  33974  286.42 0855.50
2009/04/23 07:28:37.8      50   -169     80    177    194 163.3  26.2  33976  286.46 0855.50
2009/04/23 07:28:37.9      51   -120     95    131    161 156.8  39.7  33974  286.42 0855.50
2009/04/23 07:28:38.0      79   -128     96    151    178 148.4  35.5  33976  286.47 0855.50
2009/04/23 07:28:38.1      31   -186     36    189    193 170.4  11.0  33976  286.47 0855.50
2009/04/23 07:28:38.2     -24   -250     12    252    253 185.6   2.9  33974  286.42 0855.50
2009/04/23 07:28:38.3     -53   -257     57    263    270 191.8  12.4  33978  286.50 0855.50
2009/04/23 07:28:38.4     -22   -241     81    243    257 185.3  18.4  33978  286.48 0855.50
2009/04/23 07:28:38.5     -42   -249     97    253    270 189.8  22.0  33978  286.48 0855.50
2009/04/23 07:28:38.6     -26   -225    101    227    248 186.7  25.9  33978  286.48 0855.50
2009/04/23 07:28:38.7     -52   -231     53    237    243 192.9  12.6  33980  286.52 0855.50
2009/04/23 07:28:38.8     -54   -220     82    227    242 194.0  19.9  33978  286.48 0855.50
2009/04/23 07:28:38.9      -9   -248     75    249    261 182.2  16.8  33978  286.50 0855.50
2009/04/23 07:28:39.0      13   -219     80    220    234 176.6  20.9  33980  286.54 0855.50
2009/04/23 07:28:39.1     -62   -266     43    274    278 193.3   9.0  33976  286.45 0855.50
2009/04/23 07:28:39.2     -17   -277     23    278    280 183.6   4.9  33980  286.52 0855.50
2009/04/23 07:28:39.3     -30   -248     77    250    262 187.1  17.3  33978  286.50 0855.50
2009/04/23 07:28:39.4     -32   -274     45    276    280 186.7   9.3  33982  286.55 0855.50
2009/04/23 07:28:39.5      20   -280     88    281    295 175.8  17.4  33978  286.50 0855.50
2009/04/23 07:28:39.6       0   -267     52    268    274 179.9  11.0  33980  286.52 0855.50
2009/04/23 07:28:39.7       0   -238     74    239    251 180.2  17.3  33978  286.48 0855.50
2009/04/23 07:28:39.8     -21   -199     67    201    213 186.2  18.6  33978  286.51 0855.50
2009/04/23 07:28:39.9     -13   -187     31    188    191 184.2   9.5  33978  286.49 0855.50
2009/04/23 07:28:40.0     -24   -211     45    213    218 186.5  12.0  33976  286.47 0855.50
2009/04/23 07:28:40.1     -27   -197     42    199    204 188.0  12.0  33980  286.52 0855.50
2009/04/23 07:28:40.2       0   -153     37    154    159 180.4  13.5  33978  286.51 0855.50
2009/04/23 07:28:40.3     -35   -159    122    164    204 192.7  40.4  33976  286.47 0855.50
2009/04/23 07:28:40.4     -15   -186    126    187    225 184.9  37.3  33976  286.47 0855.49
2009/04/23 07:28:40.5     -44   -154     49    161    169 196.0  17.1  33978  286.51 0855.49
2009/04/23 07:28:40.6     -12   -184    142    185    233 184.0  41.4  33976  286.46 0855.49
2009/04/23 07:28:40.7      25   -181    206    183    275 172.0  54.2  33978  286.48 0855.49
2009/04/23 07:28:40.8    -124   -209    194    244    311 210.8  42.7  33972  286.40 0855.49
2009/04/23 07:28:40.9     -88   -135     78    162    179 213.0  27.4  33976  286.46 0855.49
2009/04/23 07:28:41.0      -1    -73      8     74     75 180.9   6.9  33978  286.51 0855.49
2009/04/23 07:28:41.1     -42    -95    -26    105    109 204.1 -13.9  33976  286.47 0855.49
2009/04/23 07:28:41.2     -76   -129     -8    150    151 210.7  -3.1  33978  286.51 0855.49
2009/04/23 07:28:41.3     -24    -63     37     68     77 200.9  31.3  33974  286.44 0855.49
2009/04/23 07:28:41.4      42     31     78     53     94  54.0  63.2  33974  286.42 0855.49
2009/04/23 07:28:41.5      25    -48     79     55     96 151.9  62.1  33978  286.51 0855.49
2009/04/23 07:28:41.6      48   -102    101    113    151 154.6  46.4  33978  286.51 0855.49
2009/04/23 07:28:41.7      77    -64     81    101    129 130.0  43.3  33976  286.47 0855.49
2009/04/23 07:28:41.8      72     -5     88     73    114  94.4  56.4  33974  286.44 0855.49
2009/04/23 07:28:41.9       0     34     96     35    102   0.9  79.7  33972  286.41 0855.49
2009/04/23 07:28:42.0     -81     20     82     84    117 284.2  49.9  33972  286.41 0855.49
2009/04/23 07:28:42.1     -66    -16     62     69     92 255.8  46.9  33974  286.42 0855.49
2009/04/23 07:28:42.2     -78     -5     -5     79     80 265.7  -3.7  33974  286.42 0855.49
2009/04/23 07:28:42.3     -46     34     19     58     62 306.0  18.4  33966  286.29 0855.49
2009/04/23 07:28:42.4     -33     10     96     35    102 288.2  79.7  33976  286.47 0855.48
2009/04/23 07:28:42.5      65      5     98     66    118  85.6  62.7  33974  286.44 0855.48
2009/04/23 07:28:42.7      10    -50    143     52    152 168.4  79.7  33974  286.42 0855.48
2009/04/23 07:28:42.8      27   -134    127    137    186 168.4  47.9  33976  286.46 0855.48
2009/04/23 07:28:42.9     112   -226    157    253    297 153.7  35.0  33974  286.42 0855.48
2009/04/23 07:28:43.0      67   -236     97    246    264 164.0  22.8  33976  286.47 0855.48
2009/04/23 07:28:43.1      29   -162    108    165    197 169.8  36.3  33974  286.42 0855.48
2009/04/23 07:28:43.2     102   -137    151    172    228 143.3  45.8  33974  286.44 0855.48
2009/04/23 07:28:43.3      81   -228    156    243    288 160.4  35.6  33974  286.42 0855.48
2009/04/23 07:28:43.4      89    -67    116    112    161 126.9  50.9  33976  286.46 0855.48
2009/04/23 07:28:43.5      50   -171      9    179    180 163.5   2.9  33976  286.46 0855.48
2009/04/23 07:28:43.6      34   -167    -19    171    173 168.2  -6.5  33976  286.47 0855.48
2009/04/23 07:28:43.7      13   -180    -22    181    183 175.6  -7.2  33978  286.51 0855.48
2009/04/23 07:28:43.8       5   -180    -16    181    182 178.4  -5.2  33978  286.49 0855.48
2009/04/23 07:28:43.9      40   -175     -1    180    181 166.9  -0.5  33976  286.47 0855.48
2009/04/23 07:28:44.0      50   -153      0    162    163 161.7  -0.3  33976  286.47 0855.48
2009/04/23 07:28:44.1      79   -134      1    156    157 149.3   0.5  33978  286.51 0855.48
2009/04/23 07:28:44.2      49   -138      7    147    148 160.4   2.9  33974  286.44 0855.48
2009/04/23 07:28:44.3      59   -112     64    127    142 151.9  28.7  33978  286.49 0855.48
2009/04/23 07:28:44.4      68   -152     72    167    181 155.9  24.6  33976  286.47 0855.49
2009/04/23 07:28:44.5     102   -170     53    199    207 149.0  15.0  33976  286.47 0855.49
2009/04/23 07:28:44.6      82   -176     68    195    207 155.1  19.4  33976  286.47 0855.49
2009/04/23 07:28:44.7     148    -77     73    167    182 117.5  25.1  33976  286.46 0855.49
2009/04/23 07:28:44.8     122   -111     94    166    190 132.2  31.9  33974  286.42 0855.49
2009/04/23 07:28:44.9     106   -150    128    184    224 144.8  38.0  33976  286.47 0855.49
2009/04/23 07:28:45.0     135   -164     83    213    228 140.4  22.5  33974  286.44 0855.49
2009/04/23 07:28:45.1     128   -200     79    238    252 147.4  18.5  33976  286.47 0855.49
2009/04/23 07:28:45.2     158   -210     13    263    264 143.0   2.9  33976  286.47 0855.49
2009/04/23 07:28:45.3     180   -185     70    259    269 135.9  15.3  33978  286.50 0855.49
2009/04/23 07:28:45.4     159   -211    114    265    288 143.0  24.9  33974  286.43 0855.49
2009/04/23 07:28:45.5     170   -199     27    262    264 139.5   5.9  33974  286.42 0855.49
2009/04/23 07:28:45.6     214   -219    -26    307    309 135.7  -4.9  33978  286.48 0855.49
2009/04/23 07:28:45.7     160   -229     26    280    282 145.0   5.4  33976  286.45 0855.49
2009/04/23 07:28:45.8     134   -240     66    275    283 150.8  13.7  33978  286.48 0855.49
2009/04/23 07:28:45.9      62   -303    105    310    328 168.4  18.8  33978  286.48 0855.49
2009/04/23 07:28:46.0     103   -261    120    281    305 158.4  24.6  33972  286.40 0855.49
2009/04/23 07:28:46.1      69   -267    124    276    302 165.3  26.2  33976  286.45 0855.49
2009/04/23 07:28:46.2      65   -321     86    328    340 168.5  14.7  33978  286.49 0855.49
2009/04/23 07:28:46.3      24   -323     83    324    335 175.7  14.4  33974  286.44 0855.49
2009/04/23 07:28:46.4      80   -269    116    281    304 163.3  23.6  33974  286.42 0855.49
2009/04/23 07:28:46.5     133   -280    147    311    343 154.5  27.1  33974  286.44 0855.49
2009/04/23 07:28:46.6      70   -303    198    312    369 166.9  35.5  33976  286.46 0855.49
2009/04/23 07:28:46.7      24   -206    153    208    258 173.3  39.7  33976  286.45 0855.49
2009/04/23 07:28:46.8      17   -187    137    188    232 174.7  39.7  33974  286.44 0855.49
2009/04/23 07:28:46.9    -127   -245    104    277    295 207.4  21.5  33976  286.47 0855.49
2009/04/23 07:28:47.0     -57   -182    121    191    226 197.4  35.5  33972  286.39 0855.49
2009/04/23 07:28:47.1     -18   -196    142    197    242 185.3  39.3  33974  286.42 0855.49
2009/04/23 07:28:47.2       5   -209    147    210    256 178.6  38.5  33976  286.45 0855.49
2009/04/23 07:28:47.3      11   -141    119    142    185 175.5  44.1  33976  286.46 0855.49
2009/04/23 07:28:47.4      -2   -191     51    192    199 180.7  15.0  33974  286.42 0855.49
2009/04/23 07:28:47.5     -21   -208      0    210    211 185.8   0.2  33970  286.37 0855.49
2009/04/23 07:28:47.6     -33   -218     38    221    225 188.7   9.9  33972  286.41 0855.49
2009/04/23 07:28:47.7     -27   -213    -73    215    228 187.3 -18.7  33974  286.44 0855.49
2009/04/23 07:28:47.8     -32   -267    -59    269    276 186.9 -12.4  33974  286.43 0855.49
2009/04/23 07:28:47.9      15   -279    -36    280    283 176.9  -7.3  33972  286.40 0855.49
2009/04/23 07:28:48.0     -18   -244    -37    245    248 184.2  -8.6  33978  286.48 0855.49
2009/04/23 07:28:48.1     -33   -275     59    278    285 186.9  12.0  33976  286.45 0855.49
2009/04/23 07:28:48.2     -55   -237     70    244    254 193.1  16.0  33978  286.48 0855.49
2009/04/23 07:28:48.3     -78   -201     65    216    226 201.4  16.8  33976  286.46 0855.49
2009/04/23 07:28:48.4    -108   -165     77    198    212 213.4  22.3  33974  286.44 0855.49
2009/04/23 07:28:48.5     -97   -221    141    242    280 203.8  32.9  33980  286.52 0855.49
2009/04/23 07:28:48.6     -73   -255     82    266    279 196.0  17.3  33978  286.50 0855.49
2009/04/23 07:28:48.7       1   -332     43    333    336 179.8   7.4  33982  286.56 0855.49
2009/04/23 07:28:48.8      -8   -287    -51    288    293 181.6 -10.1  33978  286.50 0855.49
2009/04/23 07:28:48.9     -52   -296     22    301    302 190.0   4.2  33980  286.52 0855.49
2009/04/23 07:28:49.0       2   -258     -5    259    260 179.5  -1.2  33980  286.52 0855.49
2009/04/23 07:28:49.1     -18   -242    -13    243    244 184.4  -3.1  33982  286.57 0855.49
2009/04/23 07:28:49.2     -93   -290     19    305    306 197.9   3.6  33976  286.45 0855.49
2009/04/23 07:28:49.3     -82   -257    109    270    291 197.8  23.1  33974  286.42 0855.49
2009/04/23 07:28:49.4    -151   -255    155    297    335 210.7  30.0  33978  286.48 0855.49
2009/04/23 07:28:49.5    -139   -230    136    269    301 211.2  29.2  33978  286.50 0855.49
2009/04/23 07:28:49.6    -111   -180    122    212    244 211.6  32.4  33976  286.47 0855.49
2009/04/23 07:28:49.7     -91   -218     90    237    253 202.7  21.7  33974  286.42 0855.49
2009/04/23 07:28:49.8     -53   -157     39    166    171 198.9  13.5  33978  286.49 0855.49
2009/04/23 07:28:49.9     -49   -150     72    158    173 198.3  26.4  33980  286.52 0855.49
2009/04/23 07:28:50.0     -42   -161     72    167    181 194.9  24.6  33978  286.51 0855.49
2009/04/23 07:28:50.1     -78   -176     39    193    197 204.1  11.4  33980  286.52 0855.49
2009/04/23 07:28:50.2    -116   -178     25    213    215 213.2   6.9  33972  286.41 0855.49
2009/04/23 07:28:50.3    -124   -125      7    177    178 224.9   2.5  33974  286.42 0855.49
2009/04/23 07:28:50.4     -59     86     75    105    129 325.3  39.5  33976  286.46 0855.48
2009/04/23 07:28:50.5    -145     42     29    152    155 286.4  11.0  33974  286.44 0855.48
2009/04/23 07:28:50.6    -133    101    114    168    203 307.1  37.4  33974  286.42 0855.48
2009/04/23 07:28:50.7    -136    141    140    197    241 316.1  38.6  33972  286.39 0855.48
2009/04/23 07:28:50.8    -116     96     70    151    166 309.5  26.6  33974  286.44 0855.48
2009/04/23 07:28:50.9    -203     80     99    219    240 291.5  26.2  33972  286.38 0855.48
2009/04/23 07:28:51.0    -256     77     78    268    280 286.8  16.3  33972  286.40 0855.48
2009/04/23 07:28:51.1    -172    195    -25    261    263 318.6  -5.6  33970  286.35 0855.48
2009/04/23 07:28:51.2       6     81   -118     82    143   4.5 -66.5  33972  286.39 0855.48
2009/04/23 07:28:51.3     -14     73   -180     75    195 348.5 -80.7  33972  286.41 0855.48
2009/04/23 07:28:51.4     -31     -3   -206     32    208 263.9 -90.0  33970  286.35 0855.48
2009/04/23 07:28:51.5    -112    163    -40    199    204 325.5 -11.5  33966  286.30 0855.48
2009/04/23 07:28:51.6      25    143     28    146    149  10.2  11.1  33968  286.34 0855.48
2009/04/23 07:28:51.7     -17     99     30    101    106 350.2  16.8  33974  286.42 0855.48
2009/04/23 07:28:51.8     148    125     61    194    204  49.8  17.7  33972  286.39 0855.48
2009/04/23 07:28:51.9     178     35   -118    182    216  78.8 -40.1  33974  286.42 0855.48
2009/04/23 07:28:52.0     162     21    -66    164    176  82.3 -27.5  33976  286.46 0855.48
2009/04/23 07:28:52.1     245    -30     94    247    264  97.1  21.7  33978  286.50 0855.48
2009/04/23 07:28:52.2     257      7     90    258    273  88.3  20.0  33982  286.55 0855.48
2009/04/23 07:28:52.3     228    -17     98    229    249  94.3  24.6  33980  286.52 0855.48
2009/04/23 07:28:52.4     177     -3    130    178    220  91.3  39.7  33980  286.54 0855.48
2009/04/23 07:28:52.5      12    -19    116     23    118 147.5  89.1  33980  286.52 0855.48
2009/04/23 07:28:52.6      15    -32     94     36    100 154.6  77.6  33982  286.57 0855.48
2009/04/23 07:28:52.7       0     21     89     22     91 359.1  86.4  33978  286.51 0855.48
2009/04/23 07:28:52.8      65      0    109     66    127  89.2  66.2  33982  286.56 0855.48
2009/04/23 07:28:52.9     120     35     78    126    148  73.6  35.5  33980  286.54 0855.48
2009/04/23 07:28:53.1      47     57     72     75    103  39.6  49.0  33982  286.56 0855.48
2009/04/23 07:28:53.1     -47     22     47     52     70 295.3  46.9  33980  286.54 0855.48
2009/04/23 07:28:53.2     -46   -121     30    130    134 200.9  13.2  33982  286.56 0855.48
2009/04/23 07:28:53.3     -35    -53      5     64     65 213.4   4.9  33980  286.52 0855.48
2009/04/23 07:28:53.4       0      7     26      8     27 357.3  80.7  33980  286.52 0855.48
2009/04/23 07:28:53.5      45     55     57     72     91  39.6  42.7  33982  286.56 0855.48
2009/04/23 07:28:53.6      62     37     76     73    105  59.3  50.7  33980  286.52 0855.48
2009/04/23 07:28:53.7      -5    -10     96     12     96 209.0  90.0  33982  286.56 0855.48
2009/04/23 07:28:53.8      -4    -93    134     94    163 182.7  61.8  33980  286.52 0855.48
2009/04/23 07:28:53.9     -33   -197    182    200    270 189.8  47.1  33980  286.53 0855.48
2009/04/23 07:28:54.0      53   -198    153    206    256 164.8  40.1  33978  286.48 0855.48
2009/04/23 07:28:54.1       3   -216    147    217    262 179.1  37.4  33980  286.52 0855.48
2009/04/23 07:28:54.2      59   -178    158    188    245 161.5  44.3  33970  286.37 0855.48
2009/04/23 07:28:54.3     194   -585    231    617    658 161.6  21.6  33978  286.49 0855.48
2009/04/23 07:28:54.4     344   -337     35    482    484 134.4   4.2  33980  286.53 0855.49
2009/04/23 07:28:54.5     180   -303     42    353    356 149.3   6.9  33970  286.37 0855.49
2009/04/23 07:28:54.7     219   -251    210    334    394 138.8  35.2  33978  286.48 0855.49
2009/04/23 07:28:54.7     197   -238    285    310    421 140.4  47.5  33982  286.56 0855.49
2009/04/23 07:28:54.8      87   -137    169    163    234 147.4  51.2  33968  286.34 0855.49
2009/04/23 07:28:54.9     -98   -243    157    263    306 202.1  33.5  33982  286.55 0855.49
2009/04/23 07:28:55.0    -225   -268    127    351    374 220.0  19.9  33974  286.44 0855.49
2009/04/23 07:28:55.2    -310   -230     66    387    393 233.4   9.7  33976  286.46 0855.49
2009/04/23 07:28:55.3    -343   -138   -125    370    391 248.0 -18.7  33968  286.34 0855.49
2009/04/23 07:28:55.4    -451     51    -82    454    462 276.5 -10.3  33972  286.40 0855.49
2009/04/23 07:28:55.5    -341    239    234    417    478 305.0  31.9  33978  286.49 0855.49
2009/04/23 07:28:55.6    -344    157     -7    379    380 294.6  -1.1  33980  286.54 0855.49
2009/04/23 07:28:55.7    -309     80    -10    320    321 284.6  -1.9  33970  286.36 0855.49
2009/04/23 07:28:55.8     -98   -293     42    310    313 198.5   7.8  33980  286.53 0855.49
2009/04/23 07:28:55.9     155    -98    130    184    225 122.4  39.1  33982  286.57 0855.49
2009/04/23 07:28:56.0      54    -86     49    102    113 147.5  27.2  33980  286.52 0855.49
2009/04/23 07:28:56.1     127     22     11    130    131  79.9   5.0  33980  286.52 0855.49
2009/04/23 07:28:56.2     128    -17     43    130    138  97.9  18.4  33976  286.46 0855.49
2009/04/23 07:28:56.3     161   -101     39    191    196 122.0  11.6  33980  286.52 0855.49
2009/04/23 07:28:56.4     194   -167     65    257    266 130.7  14.3  33980  286.52 0855.49
2009/04/23 07:28:56.5     166   -168     74    237    249 135.5  17.3  33974  286.43 0855.48
2009/04/23 07:28:56.6     247   -210     88    325    337 130.4  15.2  33980  286.54 0855.48
2009/04/23 07:28:56.7     301   -171    170    347    386 119.7  27.9  33980  286.53 0855.48
2009/04/23 07:28:56.8     296   -148    147    332    363 116.6  25.6  33984  286.61 0855.48
2009/04/23 07:28:56.9     303   -155     53    341    346 117.1   8.8  33984  286.58 0855.48
2009/04/23 07:28:57.0     300   -113     98    321    336 110.8  17.0  33982  286.56 0855.48
2009/04/23 07:28:57.1     290   -122     23    315    316 112.8   4.2  33980  286.52 0855.48
2009/04/23 07:28:57.2     302   -131    -15    330    331 113.5  -2.7  33984  286.58 0855.48
2009/04/23 07:28:57.3     269   -221      0    349    350 129.5   0.0  33984  286.61 0855.48
2009/04/23 07:28:57.4     172   -199    -33    264    267 139.2  -7.2  33980  286.53 0855.48
2009/04/23 07:28:57.5     190    -60     29    200    203 107.7   8.2  33982  286.56 0855.47
2009/04/23 07:28:57.6     160    -85     73    182    196 118.0  23.0  33980  286.54 0855.47
2009/04/23 07:28:57.7     191   -157     89    248    264 129.5  19.9  33982  286.57 0855.47
2009/04/23 07:28:57.8     112   -293    122    314    336 159.1  22.4  33984  286.58 0855.47
2009/04/23 07:28:57.9     -45   -297    136    301    330 188.7  26.0  33986  286.62 0855.47
2009/04/23 07:28:58.0      39   -332    206    335    393 173.3  34.4  33976  286.46 0855.47
2009/04/23 07:28:58.1       0   -331     96    332    346 180.1  16.1  33980  286.54 0855.47
2009/04/23 07:28:58.2      -6   -393    209    394    446 180.9  30.2  33978  286.49 0855.47
2009/04/23 07:28:58.3     -83   -396    164    405    436 191.9  23.1  33978  286.49 0855.47
2009/04/23 07:28:58.4    -150   -252    -75    294    304 210.8 -14.3  33982  286.57 0855.47
2009/04/23 07:28:58.5     -33   -245   -136    248    282 187.8 -35.7  33982  286.55 0855.47
2009/04/23 07:28:58.6     -78   -291   -165    302    344 195.1 -35.4  33982  286.56 0855.47
2009/04/23 07:28:58.7       0   -316   -121    317    339 180.0 -26.2  33978  286.51 0855.47
2009/04/23 07:28:58.8    -173   -322   -114    366    383 208.2 -22.3  33978  286.49 0855.47
2009/04/23 07:28:58.9    -236   -236   -224    334    402 225.0 -41.6  33974  286.44 0855.47
2009/04/23 07:28:59.0    -317   -224   -109    389    403 234.7 -20.4  33978  286.48 0855.47
2009/04/23 07:28:59.1    -330   -196     36    385    387 239.3   5.4  33978  286.49 0855.47
2009/04/23 07:28:59.2    -127   -221     89    256    272 209.9  19.2  33980  286.52 0855.47
2009/04/23 07:28:59.3     108   -170     30    202    205 147.5   8.5  33978  286.51 0855.47
2009/04/23 07:28:59.4      99   -217    105    239    261 155.5  25.2  33978  286.48 0855.47
2009/04/23 07:28:59.5      99   -375    101    388    402 165.2  14.7  33978  286.51 0855.45
2009/04/23 07:28:59.6     268   -356     -2    446    447 143.0  -0.3  33980  286.52 0855.45
2009/04/23 07:28:59.7     236   -323    -23    401    402 143.9  -3.3  33978  286.51 0855.45
2009/04/23 07:28:59.8     295   -330    -64    443    448 138.2  -8.2  33980  286.54 0855.45
2009/04/23 07:28:59.9     228   -301    -15    378    379 142.9  -2.3  33978  286.49 0855.45
2009/04/23 07:29:00.0     239   -256     -3    351    352 136.9  -0.5  33982  286.56 0855.45
2009/04/23 07:29:00.1     282   -169     77    329    339 120.9  13.3  33984  286.59 0855.45
2009/04/23 07:29:00.2     295   -175    197    344    396 120.7  32.4  33982  286.56 0855.45
2009/04/23 07:29:00.3     193   -284    199    344    397 145.8  32.7  33982  286.56 0855.45
2009/04/23 07:29:00.4     184   -262    222    321    390 144.9  37.9  33980  286.54 0855.45
2009/04/23 07:29:00.5     139   -253    204    289    353 151.1  38.8  33980  286.54 0855.45
2009/04/23 07:29:00.6     113   -249    179    274    327 155.5  36.2  33980  286.52 0855.45
2009/04/23 07:29:00.7     169   -232     96    288    304 143.9  18.4  33976  286.45 0855.45
2009/04/23 07:29:00.8     164   -346    142    383    408 154.6  21.1  33978  286.49 0855.45
2009/04/23 07:29:00.9     166   -447    183    478    511 159.6  22.0  33982  286.55 0855.45
2009/04/23 07:29:01.0     167   -365    182    402    441 155.4  26.2  33972  286.40 0855.45
2009/04/23 07:29:01.1     108   -387     82    402    411 164.3  11.6  33980  286.52 0855.45
2009/04/23 07:29:01.2     211   -198    -79    290    301 133.1 -15.4  33980  286.52 0855.45
2009/04/23 07:29:01.3     114   -197      9    228    229 149.9   2.3  33978  286.49 0855.45
2009/04/23 07:29:01.4     110   -149     94    186    208 143.7  29.1  33980  286.52 0855.45
2009/04/23 07:29:01.5     125   -256    192    286    344 153.9  37.0  33978  286.50 0855.45
2009/04/23 07:29:01.6     138   -363    242    389    458 159.1  35.0  33974  286.42 0855.45
2009/04/23 07:29:01.7     280   -280    246    397    467 135.0  35.0  33978  286.49 0855.45
2009/04/23 07:29:01.8     149   -247    133    289    318 148.8  26.4  33980  286.52 0855.45
2009/04/23 07:29:01.9     107   -338     36    355    357 162.4   5.9  33978  286.49 0855.45
2009/04/23 07:29:02.0     124   -316     19    340    341 158.5   3.3  33978  286.48 0855.45
2009/04/23 07:29:02.1     124   -371    140    392    416 161.5  20.4  33980  286.52 0855.45
2009/04/23 07:29:02.2     187   -468    235    505    557 158.2  26.9  33974  286.42 0855.45
2009/04/23 07:29:02.3       2   -423    -93    424    435 179.7 -12.4  33972  286.40 0855.45
2009/04/23 07:29:02.4     123   -481    -59    497    501 165.6  -6.8  33976  286.46 0855.45
2009/04/23 07:29:02.5     226   -270    -64    353    359 140.1 -10.4  33978  286.48 0855.45
2009/04/23 07:29:02.6     171   -268    -65    319    326 147.4 -11.6  33978  286.50 0855.45
2009/04/23 07:29:02.7      75   -247    -39    259    262 163.1  -8.6  33974  286.42 0855.45
2009/04/23 07:29:02.8      51   -128    -32    139    143 158.1 -13.3  33974  286.44 0855.45
2009/04/23 07:29:02.9     -28    -87    -59     92    109 198.3 -40.0  33978  286.49 0855.45
2009/04/23 07:29:03.0     -89   -118    -69    148    163 217.0 -30.8  33978  286.51 0855.45
2009/04/23 07:29:03.1       3   -189    -15    190    191 178.9  -4.6  33982  286.56 0855.45
2009/04/23 07:29:03.2     102   -197     60    222    231 152.6  15.2  33978  286.51 0855.45
2009/04/23 07:29:03.3     115   -140    132    182    224 140.6  39.7  33978  286.49 0855.45
2009/04/23 07:29:03.4      92   -192    -71    213    225 154.4 -18.6  33982  286.56 0855.45
2009/04/23 07:29:03.5      79   -254    -14    267    268 162.6  -3.2  33984  286.58 0855.43
2009/04/23 07:29:03.6      71   -323     96    331    345 167.5  16.3  33984  286.61 0855.43
2009/04/23 07:29:03.7      23   -311    108    312    331 175.8  19.2  33980  286.52 0855.43
2009/04/23 07:29:03.8      -5   -272    131    273    302 181.1  27.3  33982  286.57 0855.43
2009/04/23 07:29:03.9      47   -118    128    128    181 158.2  50.1  33978  286.51 0855.43
2009/04/23 07:29:04.0     132    -42    -49    139    148 107.7 -19.7  33978  286.51 0855.43
2009/04/23 07:29:04.1     110    -89    -49    142    151 129.1 -19.1  33980  286.54 0855.43
2009/04/23 07:29:04.2      60   -154     41    166    171 158.6  13.9  33978  286.51 0855.43
2009/04/23 07:29:04.3      60   -193     88    203    221 162.6  24.9  33980  286.52 0855.43
2009/04/23 07:29:04.4      81   -151    133    172    217 151.9  41.6  33978  286.51 0855.43
2009/04/23 07:29:04.5      33   -119     90    124    153 164.4  39.7  33984  286.59 0855.43
2009/04/23 07:29:04.6       6    -78     32     79     85 175.6  23.0  33980  286.54 0855.43
2009/04/23 07:29:04.7      12   -132    -27    133    136 174.7 -11.5  33986  286.64 0855.43
2009/04/23 07:29:04.8      47   -254    -32    259    262 169.5  -7.2  33984  286.58 0855.43
2009/04/23 07:29:04.9      66   -300      4    308    309 167.6   0.8  33986  286.62 0855.43
2009/04/23 07:29:05.0      51   -262     22    268    270 168.9   4.9  33984  286.58 0855.43
2009/04/23 07:29:05.1      76   -256     -1    268    269 163.5  -0.3  33984  286.60 0855.43
2009/04/23 07:29:05.2     104   -263      8    283    284 158.4   1.8  33982  286.57 0855.43
2009/04/23 07:29:05.3     149   -246     18    288    289 148.8   3.6  33986  286.62 0855.43
2009/04/23 07:29:05.4     150   -228     36    274    277 146.6   7.5  33984  286.58 0855.43
2009/04/23 07:29:05.5     149   -242     97    285    302 148.4  18.9  33978  286.48 0855.44
2009/04/23 07:29:05.6     118   -437     97    453    464 164.8  12.2  33988  286.67 0855.44
2009/04/23 07:29:05.7     141   -460    130    482    500 163.0  15.1  33986  286.63 0855.44
2009/04/23 07:29:05.8     103   -397    174    411    446 165.4  24.3  33982  286.55 0855.44
2009/04/23 07:29:05.9     113   -426    159    441    470 165.1  19.9  33980  286.54 0855.44
2009/04/23 07:29:06.0     190   -391     54    435    439 154.0   7.1  33976  286.45 0855.44
2009/04/23 07:29:06.1     160   -397     50    429    432 158.1   6.7  33984  286.60 0855.44
2009/04/23 07:29:06.2     216   -422      1    475    476 152.9   0.2  33982  286.56 0855.44
2009/04/23 07:29:06.3     162   -364     -3    399    400 155.9  -0.5  33978  286.48 0855.44
2009/04/23 07:29:06.4     113   -365     46    383    386 162.7   6.9  33984  286.59 0855.44
2009/04/23 07:29:06.5      59   -315    111    321    340 169.3  19.1  33986  286.64 0855.44
2009/04/23 07:29:06.6      45   -185    133    191    232 166.2  38.0  33984  286.61 0855.44
2009/04/23 07:29:06.7      93   -307    224    322    392 163.1  38.5  33986  286.63 0855.44
2009/04/23 07:29:06.8      40    -77    210     87    227 152.4  76.6  33966  286.29 0855.44
2009/04/23 07:29:06.9       1    -74    177     75    192 179.1  75.9  33976  286.47 0855.44
2009/04/23 07:29:07.0      37   -138    183    144    232 164.8  57.9  33984  286.59 0855.44
2009/04/23 07:29:07.1       5   -169    199    170    261 178.0  55.3  33984  286.60 0855.44
2009/04/23 07:29:07.2     -79    -92    207    122    240 220.5  66.8  33980  286.54 0855.44
2009/04/23 07:29:07.3     -76   -139    143    159    213 208.9  46.9  33982  286.57 0855.44
2009/04/23 07:29:07.4     -51   -153    112    162    196 198.7  38.0  33982  286.57 0855.44
2009/04/23 07:29:07.5     -24   -162     69    164    177 188.5  23.8  33980  286.54 0855.43
2009/04/23 07:29:07.6      -1    -55     36     56     66 181.8  35.6  33980  286.52 0855.43
2009/04/23 07:29:07.7      12      4     -6     13     14  71.8 -27.4  33982  286.57 0855.43
2009/04/23 07:29:07.8       0     41    -13     42     43 359.1 -22.8  33982  286.56 0855.43
2009/04/23 07:29:07.9      -3     48     -6     49     50 355.5  -7.3  33982  286.56 0855.43
2009/04/23 07:29:08.0      -3     63     -5     64     65 357.3  -5.2  33984  286.59 0855.43
2009/04/23 07:29:08.1     -24     87     37     91     98 344.4  23.1  33980  286.54 0855.43
2009/04/23 07:29:08.2    -106    113     54    156    166 316.8  19.2  33982  286.56 0855.43
2009/04/23 07:29:08.3     -48    142     73    150    166 341.3  27.4  33982  286.57 0855.43
2009/04/23 07:29:08.4      23     97     62    100    117  13.8  35.0  33982  286.56 0855.43
2009/04/23 07:29:08.5      12    104     65    105    123   6.7  35.5  33978  286.51 0855.43
2009/04/23 07:29:08.6     110    137     81    176    193  38.7  26.6  33984  286.61 0855.43
2009/04/23 07:29:08.7     109    102    133    150    200  46.9  46.2  33980  286.54 0855.43
2009/04/23 07:29:08.8      82    113    100    140    172  36.1  38.8  33982  286.57 0855.43
2009/04/23 07:29:08.9      85     69     77    110    134  50.9  38.0  33982  286.57 0855.43
2009/04/23 07:29:09.0      57     75    103     95    140  37.4  52.2  33982  286.56 0855.43
2009/04/23 07:29:09.1      29     10     82     31     87  70.0  79.2  33980  286.54 0855.43
2009/04/23 07:29:09.2      22    -47     48     53     71 154.5  47.9  33982  286.56 0855.43
2009/04/23 07:29:09.3      33    -42     32     54     62 141.3  33.5  33980  286.54 0855.43
2009/04/23 07:29:09.4      12    -59     25     61     65 168.5  23.0  33982  286.57 0855.43
2009/04/23 07:29:09.5      -5    -48     61     49     78 186.2  56.4  33982  286.56 0855.44
2009/04/23 07:29:09.6      -3     41     67     42     79 355.6  65.1  33982  286.56 0855.44
2009/04/23 07:29:09.7     -24    -71    106     76    130 198.7  60.6  33984  286.59 0855.44
2009/04/23 07:29:09.8       4    -94    111     95    146 177.3  54.8  33982  286.56 0855.44
2009/04/23 07:29:09.9     114      0     83    115    141  89.6  39.7  33982  286.56 0855.44
2009/04/23 07:29:10.0     127    -12     51    128    137  95.7  23.0  33978  286.51 0855.44
2009/04/23 07:29:10.1     188     14     43    189    194  85.7  12.9  33980  286.54 0855.44
2009/04/23 07:29:10.2     157    -20    163    159    227  97.5  50.7  33980  286.54 0855.44
2009/04/23 07:29:10.3      70    -39    104     81    131 118.9  58.4  33980  286.52 0855.44
2009/04/23 07:29:10.4     117    -67     31    135    139 119.8  13.2  33982  286.57 0855.44
2009/04/23 07:29:10.5     127   -126     44    179    185 134.8  13.9  33984  286.59 0855.44
2009/04/23 07:29:10.6      58   -234      3    242    243 166.0   0.8  33982  286.55 0855.44
2009/04/23 07:29:10.7      75   -197    -79    211    225 159.1 -25.7  33986  286.62 0855.44
2009/04/23 07:29:10.8     132   -107    -60    171    182 129.1 -19.6  33982  286.56 0855.44
2009/04/23 07:29:10.9      71   -222    -16    234    235 162.2  -4.1  33982  286.55 0855.44
2009/04/23 07:29:11.0     155   -413    135    442    463 159.4  17.0  33976  286.45 0855.44
2009/04/23 07:29:11.1     -69   -420    229    426    483 189.4  30.6  33988  286.65 0855.44
2009/04/23 07:29:11.2    -109   -358    279    375    467 197.0  40.4  33978  286.50 0855.44
2009/04/23 07:29:11.3    -157   -345    218    380    438 204.5  32.6  33984  286.59 0855.44
2009/04/23 07:29:11.4     -23   -303    106    305    323 184.5  19.2  33984  286.60 0855.44
2009/04/23 07:29:11.5     -41   -329     39    332    335 187.2   6.7  33982  286.56 0855.43
2009/04/23 07:29:11.6      -5   -192    -34    193    197 181.6 -10.1  33982  286.56 0855.43
2009/04/23 07:29:11.7       5    -69    -30     70     76 175.5 -28.5  33982  286.57 0855.43
2009/04/23 07:29:11.8     180   -116     -6    215    216 122.9  -1.6  33980  286.54 0855.43
2009/04/23 07:29:11.9     204    -15     37    205    209  94.3  10.3  33980  286.54 0855.43
2009/04/23 07:29:12.0     155    -90     62    180    191 120.2  19.2  33972  286.41 0855.43
2009/04/23 07:29:12.1      25   -202     70    204    216 172.7  18.9  33980  286.52 0855.43
2009/04/23 07:29:12.2      94   -127    131    159    206 143.5  43.7  33980  286.54 0855.43
2009/04/23 07:29:12.3     116    -57    120    130    176 116.2  47.9  33982  286.56 0855.43
2009/04/23 07:29:12.4      34    -58     80     68    104 149.3  55.4  33980  286.54 0855.43
2009/04/23 07:29:12.5      39    -97     72    105    127 158.1  37.6  33984  286.61 0855.43
2009/04/23 07:29:12.6      61   -163    106    175    204 159.5  34.2  33982  286.57 0855.43
2009/04/23 07:29:12.7     -38   -141     49    147    156 195.1  18.6  33980  286.52 0855.43
2009/04/23 07:29:12.8     -32   -172     -9    176    177 190.7  -3.1  33982  286.56 0855.43
2009/04/23 07:29:12.9      -1   -102      5    103    104 181.0   3.3  33978  286.51 0855.43
2009/04/23 07:29:13.0     -34    -73      1     81     82 205.4   1.2  33982  286.56 0855.43
2009/04/23 07:29:13.1     -31   -133     35    137    142 193.3  14.7  33982  286.57 0855.43
2009/04/23 07:29:13.2      53   -107     78    120    143 153.7  35.6  33978  286.51 0855.43
2009/04/23 07:29:13.3     178   -203    136    271    303 138.8  28.5  33976  286.45 0855.43
2009/04/23 07:29:13.4     208   -153    186    259    318 126.2  39.2  33982  286.57 0855.43
2009/04/23 07:29:13.5     201   -128    202    239    312 122.4  44.5  33984  286.60 0855.43
2009/04/23 07:29:13.6     157   -199    192    254    318 141.7  40.9  33982  286.57 0855.43
2009/04/23 07:29:13.7     127   -199    149    237    279 147.4  35.5  33982  286.57 0855.43
2009/04/23 07:29:13.8       3   -212    173    213    274 179.0  43.5  33980  286.53 0855.43
2009/04/23 07:29:13.9      34   -135    166    140    217 165.7  55.6  33980  286.54 0855.43
2009/04/23 07:29:14.0      74   -233    124    245    274 162.2  29.1  33982  286.55 0855.43
2009/04/23 07:29:14.1      39   -231    127    235    267 170.4  30.8  33982  286.55 0855.43
2009/04/23 07:29:14.2      67   -173    129    186    226 158.8  38.0  33980  286.52 0855.43
2009/04/23 07:29:14.3      82   -129    134    154    204 147.4  45.8  33980  286.52 0855.43
2009/04/23 07:29:14.4     165    -48    113    172    205 106.4  36.3  33982  286.57 0855.43
2009/04/23 07:29:14.5     166    -60    100    177    203 110.0  32.1  33980  286.54 0855.43
2009/04/23 07:29:14.6      42    -51    122     67    139 140.4  68.9  33980  286.54 0855.43
2009/04/23 07:29:14.7     -44   -192    107    198    225 193.1  30.8  33984  286.61 0855.43
2009/04/23 07:29:14.8     -19   -269    130    270    299 184.2  27.3  33980  286.52 0855.43
2009/04/23 07:29:14.9     -27   -328     32    330    332 184.9   5.7  33982  286.56 0855.43
2009/04/23 07:29:15.0     -32   -298     14    300    301 186.2   2.8  33980  286.52 0855.43
2009/04/23 07:29:15.1     -10   -199     17    200    201 183.1   4.9  33978  286.49 0855.43
2009/04/23 07:29:15.2     -74   -314    -29    323    325 193.3  -5.2  33980  286.53 0855.43
2009/04/23 07:29:15.3     -33   -275   -111    277    298 186.9 -27.4  33980  286.52 0855.43
2009/04/23 07:29:15.4     -51   -160   -126    169    210 197.8 -44.8  33980  286.52 0855.43
2009/04/23 07:29:15.5      94   -129    -52    160    168 143.9 -23.3  33982  286.56 0855.43
2009/04/23 07:29:15.6     106    -84    -48    136    144 128.6 -23.8  33980  286.52 0855.43
2009/04/23 07:29:15.7     105    -57    -28    120    124 118.4 -13.4  33982  286.56 0855.43
2009/04/23 07:29:15.8     104    -80    -40    132    137 127.7 -21.7  33978  286.51 0855.43
2009/04/23 07:29:15.9      46   -101     58    111    125 155.5  29.8  33982  286.56 0855.43
2009/04/23 07:29:16.0     -43   -106     75    115    137 202.3  36.0  33980  286.54 0855.43
2009/04/23 07:29:16.1     -18    -62     74     65     98 196.9  53.7  33978  286.51 0855.43
2009/04/23 07:29:16.2      22     22     81     32     87  45.1  78.2  33982  286.56 0855.43
2009/04/23 07:29:16.3      65     59    117     88    146  47.8  59.4  33980  286.52 0855.43
2009/04/23 07:29:16.4     -21    -55    126     59    139 200.9  73.1  33982  286.57 0855.43
2009/04/23 07:29:16.5      42    -88    126     98    159 154.5  58.2  33980  286.54 0855.43
2009/04/23 07:29:16.6     -10   -142    148    143    205 184.0  51.2  33978  286.51 0855.43
2009/04/23 07:29:16.7      14   -168    150    169    225 174.9  45.9  33982  286.56 0855.43
2009/04/23 07:29:16.8      -5   -162     91    163    186 182.0  31.4  33980  286.54 0855.43
2009/04/23 07:29:16.9      26    -80     73     85    112 161.5  44.8  33984  286.59 0855.43
2009/04/23 07:29:17.0     -48    -48    -23     69     73 225.0 -18.7  33980  286.54 0855.43
2009/04/23 07:29:17.1     -38    -28     68     48     83 234.0  61.1  33980  286.52 0855.43
2009/04/23 07:29:17.2      -7    -80     78     81    112 185.3  49.0  33978  286.51 0855.43
2009/04/23 07:29:17.3      -7   -160    174    161    237 182.5  52.5  33988  286.67 0855.43
2009/04/23 07:29:17.4      -9   -164    157    165    227 183.4  48.5  33988  286.66 0855.43
2009/04/23 07:29:17.5     -26   -158     62    161    172 189.3  21.7  33984  286.59 0855.42
2009/04/23 07:29:17.6     -26   -215     -8    217    218 187.1  -2.2  33980  286.54 0855.42
2009/04/23 07:29:17.7     -64   -136     58    151    161 205.5  22.0  33982  286.57 0855.42
2009/04/23 07:29:17.8     -52   -111     70    123    141 205.3  31.9  33982  286.56 0855.42
2009/04/23 07:29:17.9     -29    -40    -13     50     52 216.1 -14.5  33982  286.57 0855.42
2009/04/23 07:29:18.0      12    -38     -1     41     42 161.5  -2.2  33978  286.51 0855.42
2009/04/23 07:29:18.1      65      0    103     66    122  89.2  64.6  33980  286.52 0855.42
2009/04/23 07:29:18.2      55    -11     81     57     99 101.4  61.1  33978  286.51 0855.42
2009/04/23 07:29:18.3      -5    -61     61     62     86 185.3  50.5  33980  286.54 0855.42
2009/04/23 07:29:18.4      41   -112     50    120    130 160.0  24.1  33980  286.54 0855.42
2009/04/23 07:29:18.5     -15   -199     51    200    207 184.5  14.3  33980  286.54 0855.43
2009/04/23 07:29:18.6       6   -148     32    149    153 177.3  12.2  33982  286.56 0855.43
2009/04/23 07:29:18.7       2   -144     37    145    150 179.1  14.3  33980  286.54 0855.43
2009/04/23 07:29:18.8      31   -111     30    116    120 164.4  14.7  33982  286.56 0855.43
2009/04/23 07:29:18.9     -12    -62     12     64     66 191.6  11.1  33982  286.56 0855.43
2009/04/23 07:29:19.0     -11    -43     42     45     61 195.1  47.9  33980  286.54 0855.43
2009/04/23 07:29:19.1      -5    -35     40     36     53 188.0  52.2  33982  286.56 0855.43
2009/04/23 07:29:19.2     -20    -36     32     42     52 209.9  42.7  33980  286.52 0855.43
2009/04/23 07:29:19.3     -24     -7     13     26     29 253.2  27.2  33982  286.56 0855.43
2009/04/23 07:29:19.4     -18      5      8     19     20 288.2  23.0  33982  286.56 0855.43
2009/04/23 07:29:19.5      -4     14      8     15     17 341.5  31.4  33982  286.56 0855.43
2009/04/23 07:29:19.6      -1     32      6     33     34 357.4  11.1  33984  286.59 0855.43
2009/04/23 07:29:19.7      18     22      2     29     30  39.6   4.9  33982  286.56 0855.43
2009/04/23 07:29:19.8      13     22      5     26     27  30.7  11.1  33984  286.59 0855.43
2009/04/23 07:29:19.9      21      7     15     23     27  71.8  35.6  33984  286.59 0855.43
2009/04/23 07:29:20.0      21      7     15     23     27  71.8  35.6  33984  286.59 0855.43
2009/04/23 07:29:20.1      32     -9     46     34     57 106.8  59.4  33980  286.52 0855.43
2009/04/23 07:29:20.2      44    -33     52     56     76 126.9  48.0  33984  286.59 0855.43
2009/04/23 07:29:20.3      14    -48     -2     51     52 163.1  -2.2  33982  286.56 0855.43
2009/04/23 07:29:20.4       0    -36    -41     37     55 180.9 -57.7  33982  286.56 0855.43
2009/04/23 07:29:20.5       0    -36    -41     37     55 180.9 -57.7  33982  286.56 0855.43
2009/04/23 07:29:20.6      12    -52     -8     54     55 166.6  -9.3  33982  286.57 0855.43
2009/04/23 07:29:20.7      16    -22     16     28     32 143.9  33.5  33982  286.56 0855.43
2009/04/23 07:29:20.8      17     -5     32     18     36 108.6  66.8  33982  286.56 0855.43
2009/04/23 07:29:20.9      16    -18     42     25     48 138.6  65.7  33980  286.52 0855.43
2009/04/23 07:29:21.0      26    -26     43     37     56 135.0  54.3  33980  286.52 0855.43
2009/04/23 07:29:21.1     -23    -45     44     51     67 207.2  45.8  33980  286.54 0855.43
2009/04/23 07:29:21.2      -1    -89     65     90    111 180.9  39.7  33980  286.54 0855.43
2009/04/23 07:29:21.3      -3   -159     46    160    167 181.1  16.0  33984  286.59 0855.43
2009/04/23 07:29:21.4     -25   -136     34    139    144 190.7  13.7  33984  286.61 0855.43
2009/04/23 07:29:21.5     -19   -121     33    123    128 188.9  15.3  33980  286.52 0855.43
2009/04/23 07:29:21.7      20    -88     70     91    114 167.1  41.7  33982  286.56 0855.43
2009/04/23 07:29:21.7      52    -95     37    109    116 151.5  18.9  33982  286.56 0855.43
2009/04/23 07:29:21.9      43    -45     14     63     65 135.9  13.2  33982  286.56 0855.43
2009/04/23 07:29:22.0      49    -13     -6     51     52 105.1  -7.3  33982  286.56 0855.43
2009/04/23 07:29:22.1      74      5     25     75     80  85.6  18.9  33982  286.57 0855.43
2009/04/23 07:29:22.2      74    -22     58     78     97 106.8  40.7  33980  286.54 0855.43
2009/04/23 07:29:22.3      57    -15     71     60     92 105.1  55.8  33982  286.56 0855.43
2009/04/23 07:29:22.4      71    -33     66     79    102 115.2  44.3  33982  286.56 0855.43
2009/04/23 07:29:22.5      80    -32     48     87     99 112.2  31.4  33982  286.56 0855.43
2009/04/23 07:29:22.6      71    -33     66     79    102 115.2  44.3  33982  286.56 0855.44
2009/04/23 07:29:22.7      65    -19     90     68    112 106.8  59.0  33980  286.52 0855.44
2009/04/23 07:29:22.8      29    -14     47     33     57 115.2  61.5  33978  286.51 0855.44
2009/04/23 07:29:22.9     -41    -64     40     77     86 212.6  29.8  33984  286.61 0855.44
2009/04/23 07:29:23.0     -16   -115     50    117    127 188.0  24.6  33982  286.57 0855.44
2009/04/23 07:29:23.1     -20    -59     41     63     75 198.7  35.6  33980  286.52 0855.44
2009/04/23 07:29:23.2     -12     12     54     18     56 315.0  81.0  33982  286.57 0855.44
2009/04/23 07:29:23.3      14      3     82     15     83  74.9  90.0  33982  286.57 0855.44
2009/04/23 07:29:23.4       7    -22     62     24     66 161.7  78.2  33982  286.57 0855.44
2009/04/23 07:29:23.5     -21    -54     77     59     97 201.8  58.5  33984  286.59 0855.44
2009/04/23 07:29:23.6     -27   -103     66    107    125 195.1  35.0  33982  286.56 0855.44
2009/04/23 07:29:23.7     -13   -113    103    114    153 186.7  47.5  33984  286.59 0855.44
2009/04/23 07:29:23.8       2   -135     90    136    163 179.1  36.5  33984  286.61 0855.44
2009/04/23 07:29:23.9      11   -150     73    151    167 175.5  27.4  33982  286.57 0855.44
2009/04/23 07:29:24.0      10   -217     85    218    233 177.3  22.3  33984  286.61 0855.44
2009/04/23 07:29:24.1      18   -232     87    233    248 175.5  21.3  33984  286.58 0855.44
2009/04/23 07:29:24.2      83   -257     93    271    287 162.0  18.9  33982  286.57 0855.44
2009/04/23 07:29:24.3     112   -218    123    246    275 152.8  28.5  33980  286.53 0855.44
2009/04/23 07:29:24.4      92   -223    136    242    277 157.5  31.9  33982  286.55 0855.44
2009/04/23 07:29:24.5      24   -192    129    194    232 172.7  36.5  33980  286.54 0855.44
2009/04/23 07:29:24.6      22   -158    115    160    197 172.0  39.3  33982  286.57 0855.45
2009/04/23 07:29:24.7      61   -183     73    194    207 161.5  21.5  33980  286.52 0855.45
2009/04/23 07:29:24.8      81   -223     65    238    247 159.9  15.3  33984  286.58 0855.45
2009/04/23 07:29:24.9      23   -238     45    240    245 174.4  10.6  33984  286.60 0855.45
2009/04/23 07:29:25.0      48   -300     59    304    310 170.9  11.1  33986  286.62 0855.45
2009/04/23 07:29:25.1      23   -276    107    278    297 175.1  22.1  33984  286.58 0855.45
2009/04/23 07:29:25.2     -18   -268    122    269    295 184.0  26.2  33984  286.60 0855.45
2009/04/23 07:29:25.3     -32   -254    102    257    276 187.3  23.0  33984  286.58 0855.45
2009/04/23 07:29:25.4     -41   -265     81    269    281 188.9  16.8  33984  286.58 0855.45
2009/04/23 07:29:25.5    -114   -260     83    285    297 203.7  16.3  33980  286.53 0855.45
2009/04/23 07:29:25.6    -213   -157      3    265    266 233.6   0.8  33980  286.53 0855.45
2009/04/23 07:29:25.7     -58   -148     32    159    163 201.4  11.6  33980  286.54 0855.45
2009/04/23 07:29:25.8      19   -224     61    225    234 175.1  15.2  33984  286.59 0855.45
2009/04/23 07:29:25.9      -3   -225     83    226    240 180.9  20.9  33986  286.62 0855.45
2009/04/23 07:29:26.0     -14   -233     81    234    248 183.6  19.2  33982  286.57 0855.45
2009/04/23 07:29:26.1     -23   -213    105    215    239 186.2  28.2  33982  286.57 0855.45
2009/04/23 07:29:26.2     -68   -185     88    198    216 200.3  25.3  33980  286.52 0855.45
2009/04/23 07:29:26.3     -64   -173     48    185    192 200.5  14.5  33982  286.57 0855.45
2009/04/23 07:29:26.4     -60    -90     38    109    116 213.8  19.4  33982  286.56 0855.45
2009/04/23 07:29:26.5     -81    -77     18    112    114 226.4   9.5  33982  286.57 0855.45
2009/04/23 07:29:26.6     -61    -90     30    110    115 214.3  15.3  33978  286.51 0855.45
2009/04/23 07:29:26.7     -65     -5     51     66     83 265.6  41.7  33974  286.42 0855.45
2009/04/23 07:29:26.8     -38    -12     64     40     75 251.8  64.7  33978  286.51 0855.45
2009/04/23 07:29:26.9     -63     50     89     81    120 308.2  52.7  33976  286.46 0855.45
2009/04/23 07:29:27.0     -56     71     87     91    125 321.7  49.0  33978  286.49 0855.45
2009/04/23 07:29:27.1     -59     92     83    110    137 327.4  41.2  33976  286.47 0855.45
2009/04/23 07:29:27.2     -41     64     49     77     91 327.4  35.5  33978  286.49 0855.45
2009/04/23 07:29:27.3      70     45     36     84     91  57.6  24.6  33982  286.56 0855.45
2009/04/23 07:29:27.4      31     48     10     58     59  32.6  10.1  33976  286.47 0855.45
2009/04/23 07:29:27.5      12     31     20     34     39  21.8  33.5  33978  286.49 0855.45
2009/04/23 07:29:27.6       4     19     37     20     42  11.6  69.8  33976  286.46 0855.45
2009/04/23 07:29:27.7      34     13     49     37     61  68.3  59.4  33978  286.51 0855.45
2009/04/23 07:29:27.8      60     44     92     75    118  54.1  56.4  33978  286.51 0855.45
2009/04/23 07:29:27.9      57     15     78     60     98  74.9  57.9  33976  286.47 0855.45
2009/04/23 07:29:28.0      39     17     64     43     77  65.6  64.6  33976  286.47 0855.45
2009/04/23 07:29:28.1      13     21     66     26     70  32.5  77.1  33978  286.51 0855.45
2009/04/23 07:29:28.2      47     22     62     53     81  64.8  54.8  33978  286.51 0855.45
2009/04/23 07:29:28.3      36     15     69     40     79  66.5  67.2  33980  286.52 0855.45
2009/04/23 07:29:28.4      -5    -10     47     12     48 209.0  84.9  33978  286.51 0855.45
2009/04/23 07:29:28.5       1    -62     56     63     84 179.0  46.9  33978  286.51 0855.45
2009/04/23 07:29:28.6       0    -57     89     58    106 179.1  64.6  33976  286.46 0855.46
2009/04/23 07:29:28.7     -41    -38     66     57     87 226.9  54.3  33978  286.49 0855.46
2009/04/23 07:29:28.8     -35    -53     65     64     91 213.4  50.1  33976  286.47 0855.46
2009/04/23 07:29:29.0     -77    -26     53     82     97 251.4  35.6  33978  286.49 0855.46
2009/04/23 07:29:29.1     -81    -19     42     84     93 256.3  28.7  33978  286.49 0855.46
2009/04/23 07:29:29.3     -80    -92     90    123    152 221.0  39.7  33976  286.47 0855.46
2009/04/23 07:29:29.4     -89   -148     74    173    188 211.2  24.3  33980  286.54 0855.46
2009/04/23 07:29:29.5     -53   -198     77    205    218 195.1  21.5  33980  286.52 0855.46
2009/04/23 07:29:29.6       8   -150     49    151    159 176.9  18.1  33982  286.56 0855.46
2009/04/23 07:29:29.7     -14   -136    118    137    180 186.2  45.1  33980  286.54 0855.46
2009/04/23 07:29:29.8     -34   -172     78    176    192 191.3  25.7  33984  286.61 0855.46
2009/04/23 07:29:29.9      -7   -158    128    159    204 182.7  43.0  33984  286.59 0855.46
2009/04/23 07:29:30.0      15   -139     62    140    153 173.8  25.2  33982  286.56 0855.46
2009/04/23 07:29:30.1      -2   -121      6    122    123 181.0   2.9  33982  286.57 0855.46
2009/04/23 07:29:30.2       2   -149     23    150    152 179.0   8.9  33982  286.57 0855.46
2009/04/23 07:29:30.3      15   -143     25    144    147 173.8  10.1  33982  286.56 0855.46
2009/04/23 07:29:30.4      54   -142     13    153    154 159.1   5.0  33982  286.57 0855.46
2009/04/23 07:29:30.5      49   -147     58    156    166 161.3  21.5  33984  286.59 0855.46
2009/04/23 07:29:30.6      -5   -185     37    186    190 181.6  11.4  33988  286.66 0855.46
2009/04/23 07:29:30.7     -14   -213    -16    214    215 183.8  -4.4  33984  286.59 0855.46
2009/04/23 07:29:30.8     -51   -172    -23    180    182 196.5  -7.3  33984  286.61 0855.46
2009/04/23 07:29:30.9     -42   -195     19    200    201 192.3   5.7  33982  286.57 0855.46
2009/04/23 07:29:31.0      38   -226    104    230    252 170.4  26.2  33982  286.55 0855.46
2009/04/23 07:29:31.1       6   -242     88    243    258 178.4  20.7  33982  286.55 0855.46
2009/04/23 07:29:31.2      32   -229     31    232    235 172.0   7.8  33986  286.62 0855.46
2009/04/23 07:29:31.3     -27   -134    -53    137    146 191.6 -26.4  33982  286.56 0855.46
2009/04/23 07:29:31.4     -25   -164     -6    166    167 188.7  -2.2  33982  286.57 0855.46
2009/04/23 07:29:31.5     112   -154     21    191    193 143.9   6.5  33982  286.57 0855.46
2009/04/23 07:29:31.6     106   -116     31    158    162 137.7  11.1  33982  286.57 0855.46
2009/04/23 07:29:31.7      92    -43     70    102    123 115.4  37.6  33980  286.52 0855.46
2009/04/23 07:29:31.8      58     32    119     67    136  61.1  68.3  33984  286.59 0855.46
2009/04/23 07:29:31.9      41     22     92     47    103  62.0  71.4  33984  286.61 0855.46
2009/04/23 07:29:32.0     -10    -91     88     92    127 186.7  49.0  33982  286.57 0855.46
2009/04/23 07:29:32.1     -63    -15     64     65     91 255.8  50.0  33982  286.57 0855.46
2009/04/23 07:29:32.2     -99    -19     51    101    113 259.0  28.2  33984  286.59 0855.46
2009/04/23 07:29:32.3    -103    -50     -3    115    116 243.8  -1.8  33980  286.54 0855.46
2009/04/23 07:29:32.4    -121    -20     10    123    124 260.4   4.9  33986  286.64 0855.46
2009/04/23 07:29:32.5    -143    -11     40    144    150 265.6  15.8  33982  286.56 0855.46
2009/04/23 07:29:32.6    -147    -81     16    168    169 241.1   5.7  33982  286.57 0855.47
2009/04/23 07:29:32.7    -107    -68     44    128    136 237.5  18.9  33982  286.56 0855.47
2009/04/23 07:29:32.8    -117    -73    -39    139    144 238.0 -20.7  33980  286.54 0855.47
2009/04/23 07:29:32.9     -87    -58    -40    105    112 236.3 -25.9  33982  286.56 0855.47
2009/04/23 07:29:33.0      -8    -48     65     49     81 189.8  59.0  33982  286.57 0855.47
2009/04/23 07:29:33.1      -5    -74     86     75    114 184.5  54.3  33982  286.57 0855.47
2009/04/23 07:29:33.2      11   -151     95    152    179 175.6  35.2  33986  286.62 0855.47
2009/04/23 07:29:33.3     -12   -149    146    150    209 184.9  49.8  33984  286.59 0855.47
2009/04/23 07:29:33.4     -24   -172    127    174    215 188.0  39.7  33984  286.61 0855.47
2009/04/23 07:29:33.5     -34   -200    101    203    226 189.7  28.2  33984  286.61 0855.47
2009/04/23 07:29:33.6       0   -198    104    199    224 180.0  29.8  33984  286.59 0855.47
2009/04/23 07:29:33.7     -48   -174    121    181    217 195.6  37.0  33982  286.57 0855.47
2009/04/23 07:29:33.8     -76   -167     95    184    207 204.5  29.3  33986  286.64 0855.47
2009/04/23 07:29:33.9    -112   -120     36    165    169 223.0  12.4  33980  286.52 0855.47
2009/04/23 07:29:34.0     -56   -146     55    157    167 201.2  19.4  33984  286.61 0855.47
2009/04/23 07:29:34.1     -44   -242    161    247    294 190.5  36.3  33984  286.60 0855.47
2009/04/23 07:29:34.2     -45   -238    115    243    268 190.9  27.2  33980  286.52 0855.47
2009/04/23 07:29:34.3     -34   -240    120    243    271 188.1  28.0  33982  286.57 0855.47
2009/04/23 07:29:34.4    -178   -103     15    206    207 239.8   4.2  33980  286.52 0855.47
2009/04/23 07:29:34.5    -128   -118     -4    175    176 227.3  -1.6  33976  286.47 0855.47
2009/04/23 07:29:34.6     -98   -107     17    146    148 222.3   6.9  33966  286.30 0855.47
2009/04/23 07:29:34.7     -83   -117     28    144    147 215.2  11.1  33972  286.41 0855.47
2009/04/23 07:29:34.8     -21   -158    145    160    215 187.6  46.9  33984  286.61 0855.47
2009/04/23 07:29:34.9      -4   -242    188    243    307 181.1  41.7  33984  286.58 0855.47
2009/04/23 07:29:35.0     -52   -238    178    244    302 192.4  39.7  33982  286.57 0855.47
2009/04/23 07:29:35.1      11   -245    129    246    277 177.3  29.8  33986  286.63 0855.47
2009/04/23 07:29:35.2      -5   -302    182    303    353 181.0  33.6  33984  286.58 0855.47
2009/04/23 07:29:35.3      48   -282    170    287    333 170.2  33.3  33986  286.62 0855.47
2009/04/23 07:29:35.4      14   -284    195    285    345 177.1  37.7  33988  286.65 0855.47
2009/04/23 07:29:35.5      93   -292    146    307    339 162.2  27.2  33986  286.63 0855.47
2009/04/23 07:29:35.6      57   -285    194    291    349 168.7  36.6  33986  286.63 0855.47
2009/04/23 07:29:35.7      83   -301    195    313    368 164.6  35.2  33986  286.63 0855.47
2009/04/23 07:29:35.8      80   -291    178    302    350 164.6  33.4  33986  286.64 0855.47
2009/04/23 07:29:35.9     125   -259    173    288    335 154.1  33.8  33982  286.57 0855.47
2009/04/23 07:29:36.0      81   -251    185    264    322 162.0  38.4  33984  286.60 0855.47
2009/04/23 07:29:36.1     118   -261    173    287    335 155.7  34.0  33986  286.63 0855.47
2009/04/23 07:29:36.2     109   -272    139    294    325 158.1  27.1  33984  286.60 0855.47
2009/04/23 07:29:36.3     191   -241    106    308    326 141.5  19.1  33986  286.62 0855.47
2009/04/23 07:29:36.4     173   -254     82    308    319 145.8  15.0  33984  286.58 0855.47
2009/04/23 07:29:36.5      92   -303    111    317    335 163.0  20.1  33986  286.63 0855.47
2009/04/23 07:29:36.6     132   -320     68    347    354 157.6  11.1  33986  286.63 0855.48
2009/04/23 07:29:36.7     154   -286     25    325    327 151.7   4.5  33986  286.62 0855.48
2009/04/23 07:29:36.8     123   -270     54    297    302 155.5  10.3  33986  286.62 0855.48
2009/04/23 07:29:36.9      69   -280    125    289    314 166.0  24.9  33984  286.60 0855.48
2009/04/23 07:29:37.0      96   -289    119    305    327 161.5  22.4  33984  286.58 0855.48
2009/04/23 07:29:37.1     106   -305    141    324    353 160.8  25.1  33984  286.59 0855.48
2009/04/23 07:29:37.2     159   -320     86    358    369 153.6  13.6  33982  286.56 0855.48
2009/04/23 07:29:37.3     152   -314    114    350    369 154.1  18.1  33984  286.59 0855.48
2009/04/23 07:29:37.4      78   -337     76    346    355 166.9  12.5  33984  286.61 0855.48
2009/04/23 07:29:37.5      81   -315     92    326    339 165.5  15.9  33982  286.56 0855.48
2009/04/23 07:29:37.6     100   -301    102    318    335 161.5  17.8  33984  286.58 0855.48
2009/04/23 07:29:37.7      73   -292    116    302    323 165.8  22.2  33986  286.62 0855.48
2009/04/23 07:29:37.8      59   -295    117    301    322 168.5  22.4  33986  286.62 0855.48
2009/04/23 07:29:37.9      61   -279    114    286    307 167.5  23.0  33982  286.57 0855.48
2009/04/23 07:29:38.0      75   -279    110    290    310 164.9  21.7  33984  286.58 0855.48
2009/04/23 07:29:38.1      87   -272    110    286    306 162.2  22.1  33982  286.57 0855.48
2009/04/23 07:29:38.2      72   -269    115    279    301 164.9  23.4  33982  286.57 0855.48
2009/04/23 07:29:38.3      74   -264    110    275    296 164.2  23.0  33984  286.58 0855.48
2009/04/23 07:29:38.4      58   -252    114    259    282 166.9  25.1  33986  286.63 0855.48
2009/04/23 07:29:38.5      41   -266    123    270    296 171.1  26.2  33984  286.60 0855.48
2009/04/23 07:29:38.6      38   -233    112    237    262 170.7  27.1  33986  286.62 0855.48
2009/04/23 07:29:38.7      38   -226    111    230    255 170.4  27.3  33984  286.58 0855.48
2009/04/23 07:29:38.8      86   -220    100    237    257 158.6  24.1  33986  286.62 0855.48
2009/04/23 07:29:38.9      66   -217    100    227    248 163.0  25.2  33984  286.60 0855.48
2009/04/23 07:29:39.0      26   -216    130    218    253 173.1  33.5  33986  286.62 0855.48
2009/04/23 07:29:39.1      59   -203     81    212    226 163.7  22.0  33980  286.52 0855.48
2009/04/23 07:29:39.2      90   -190     71    211    223 154.7  18.6  33984  286.59 0855.48
2009/04/23 07:29:39.3     106   -226     67    250    259 154.7  15.0  33986  286.63 0855.48
2009/04/23 07:29:39.4     126   -251     24    282    284 153.3   5.0  33984  286.60 0855.48
2009/04/23 07:29:39.5     131   -211     14    249    250 148.3   3.3  33986  286.62 0855.48
2009/04/23 07:29:39.6     109   -212     30    239    241 152.8   7.2  33984  286.58 0855.48
2009/04/23 07:29:39.7      86   -181     16    201    202 154.5   4.6  33986  286.62 0855.48
2009/04/23 07:29:39.8     118   -185     -1    220    221 147.4  -0.3  33984  286.59 0855.48
2009/04/23 07:29:39.9     126   -174     26    216    218 144.0   7.1  33984  286.59 0855.48
2009/04/23 07:29:40.0      90   -228     90    246    261 158.4  21.0  33984  286.60 0855.48
2009/04/23 07:29:40.1      64   -185     68    196    208 160.8  19.2  33984  286.59 0855.48
2009/04/23 07:29:40.2      74   -206     11    220    221 160.2   2.9  33984  286.61 0855.48
2009/04/23 07:29:40.3      41   -200     39    205    209 168.4  10.8  33984  286.59 0855.48
2009/04/23 07:29:40.4      44   -195     33    201    204 167.1   9.5  33982  286.56 0855.48
2009/04/23 07:29:40.5      22   -172    -25    174    176 172.7  -8.2  33982  286.56 0855.48
2009/04/23 07:29:40.6     -43   -177     22    183    185 193.8   6.9  33984  286.59 0855.48
2009/04/23 07:29:40.7     -24   -216     60    218    227 186.5  15.6  33984  286.59 0855.48
2009/04/23 07:29:40.8     -27   -309     48    311    315 185.1   8.8  33982  286.57 0855.48
2009/04/23 07:29:40.9       0   -295      5    296    297 179.9   1.0  33982  286.55 0855.48
2009/04/23 07:29:41.0      12   -248     -1    249    250 177.1  -0.3  33980  286.52 0855.48
2009/04/23 07:29:41.1     -78   -231    104    244    265 198.7  24.6  33980  286.52 0855.48
2009/04/23 07:29:41.2      -8   -162     18    163    165 182.9   6.5  33976  286.47 0855.48
2009/04/23 07:29:41.3     -15   -111      5    113    114 188.0   2.8  33978  286.49 0855.48
2009/04/23 07:29:41.4     -55    -33    -26     65     70 238.5 -27.4  33978  286.51 0855.48
2009/04/23 07:29:41.5     -45    -45    -22     64     68 225.0 -19.7  33978  286.51 0855.48
2009/04/23 07:29:41.6     -31    -71    -30     78     83 203.6 -25.9  33978  286.51 0855.47
2009/04/23 07:29:41.7     -43    -65    -29     79     84 213.4 -24.8  33978  286.51 0855.47
2009/04/23 07:29:41.8     -84    -70      2    110    111 230.0   1.2  33978  286.49 0855.47
2009/04/23 07:29:41.9     -75    -59     -3     96     97 231.4  -2.2  33976  286.47 0855.47
2009/04/23 07:29:42.0    -167    -40     -6    172    173 256.3  -2.2  33980  286.52 0855.47
2009/04/23 07:29:42.1     -97    -64     -2    117    118 236.3  -1.3  33978  286.51 0855.47
2009/04/23 07:29:42.2     -85   -106    -27    136    139 218.7 -11.5  33978  286.49 0855.47
2009/04/23 07:29:42.3     -64   -155    -26    168    171 202.5  -9.0  33974  286.44 0855.47
2009/04/23 07:29:42.4       0   -152    -22    153    155 180.4  -8.2  33980  286.52 0855.47
2009/04/23 07:29:42.5      44   -122    -29    130    134 160.0 -12.9  33978  286.51 0855.47
2009/04/23 07:29:42.6     119   -122     -6    171    172 135.7  -2.2  33986  286.62 0855.47
2009/04/23 07:29:42.7     161   -123     -3    203    204 127.5  -1.1  33982  286.57 0855.47
2009/04/23 07:29:42.8     136   -130     25    189    191 133.8   7.8  33986  286.64 0855.47
2009/04/23 07:29:42.9      90   -107     32    141    145 139.9  13.1  33984  286.59 0855.47
2009/04/23 07:29:43.0      34   -100     53    106    118 160.8  28.2  33984  286.61 0855.47
2009/04/23 07:29:43.1       7   -124     11    125    126 176.4   5.4  33984  286.61 0855.47
2009/04/23 07:29:43.2     -47   -140     35    148    153 198.7  13.5  33986  286.64 0855.47
2009/04/23 07:29:43.3     -63   -133     44    148    155 205.3  16.6  33984  286.59 0855.47
2009/04/23 07:29:43.4     -54   -106     -9    120    121 207.2  -4.6  33986  286.64 0855.47
2009/04/23 07:29:43.5     -39    -94    -37    103    110 202.7 -19.7  33984  286.61 0855.47
2009/04/23 07:29:43.6     -54    -79    -59     96    112 214.3 -39.4  33984  286.59 0855.47
2009/04/23 07:29:43.7     -55    -91    -90    107    139 211.2 -48.2  33984  286.61 0855.47
2009/04/23 07:29:43.8     -46    -86    -85     98    129 208.5 -49.8  33984  286.59 0855.47
2009/04/23 07:29:43.9     -25   -113    -40    116    122 192.5 -23.8  33984  286.59 0855.47
2009/04/23 07:29:44.0     -20   -147    -53    149    159 188.0 -19.7  33980  286.52 0855.47
2009/04/23 07:29:44.1     -57   -179    -24    189    191 197.8  -7.3  33980  286.54 0855.47
2009/04/23 07:29:44.2     -61   -170      7    181    182 199.8   2.5  33978  286.51 0855.47
2009/04/23 07:29:44.3     -82   -161     13    181    182 207.2   4.4  33978  286.51 0855.47
2009/04/23 07:29:44.4     -34   -157      3    161    162 192.3   1.2  33984  286.59 0855.47
2009/04/23 07:29:44.5     -44   -170     56    176    185 194.7  17.7  33982  286.57 0855.47
2009/04/23 07:29:44.6     -62   -148     28    161    164 202.9   9.9  33982  286.56 0855.47
2009/04/23 07:29:44.7     -68   -146     10    162    163 204.9   3.8  33980  286.54 0855.47
2009/04/23 07:29:44.8     -73   -149      2    167    168 206.3   1.0  33980  286.52 0855.47
2009/04/23 07:29:44.9     -55   -183      1    192    193 196.7   0.5  33980  286.54 0855.47
2009/04/23 07:29:45.0     -19   -170     40    172    177 186.5  13.2  33982  286.57 0855.47
2009/04/23 07:29:45.1       5   -127     15    128    129 177.4   7.1  33984  286.59 0855.47
2009/04/23 07:29:45.2     -22   -108      0    111    112 191.6  -0.3  33980  286.54 0855.47
2009/04/23 07:29:45.3     -34    -84    -27     91     94 202.3 -22.3  33978  286.49 0855.47
2009/04/23 07:29:45.4     -42    -88    -17     98    100 205.5 -10.3  33978  286.49 0855.47
2009/04/23 07:29:45.5     -57   -100     -6    116    117 209.9  -3.1  33980  286.52 0855.47
2009/04/23 07:29:45.6     -42    -89      9     99    100 205.4   5.4  33980  286.52 0855.46
2009/04/23 07:29:45.7     -37    -90     -6     98     99 202.7  -3.7  33982  286.56 0855.46
2009/04/23 07:29:45.8     -34   -103     -3    109    110 198.3  -1.8  33984  286.59 0855.46
2009/04/23 07:29:45.9     -19    -97    -18     99    101 191.5 -10.3  33986  286.62 0855.46
2009/04/23 07:29:46.0     -10    -89     -7     90     91 186.7  -4.6  33986  286.62 0855.46
2009/04/23 07:29:46.1     -36    -65      3     75     76 209.0   2.9  33984  286.61 0855.46
2009/04/23 07:29:46.2     -26    -64     -8     70     71 201.8  -7.2  33984  286.61 0855.46
2009/04/23 07:29:46.3      -5    -47     -7     48     49 186.2  -9.3  33984  286.59 0855.46
2009/04/23 07:29:46.4      10    -50     -3     52     53 168.4  -4.1  33984  286.59 0855.46
2009/04/23 07:29:46.5      30    -50     -7     59     60 149.3  -7.2  33984  286.61 0855.46
2009/04/23 07:29:46.6      46    -45     -2     65     66 134.9  -2.2  33984  286.61 0855.46
2009/04/23 07:29:46.7      59    -42      4     73     74 126.0   3.8  33984  286.61 0855.46
2009/04/23 07:29:46.8      73    -14      9     75     76 101.5   6.9  33984  286.59 0855.46
2009/04/23 07:29:46.9      63    -25      9     68     69 111.7   8.0  33984  286.59 0855.46
2009/04/23 07:29:47.0      88    -25     -3     92     93 106.4  -2.2  33984  286.61 0855.46
2009/04/23 07:29:47.1      95    -39      5    103    104 112.6   2.9  33982  286.56 0855.46
2009/04/23 07:29:47.2      93    -30     17     98    100 108.2  10.1  33986  286.62 0855.46
2009/04/23 07:29:47.3      92    -22     33     95    101 103.7  19.4  33984  286.59 0855.46
2009/04/23 07:29:47.4      86    -25     26     90     94 106.4  16.3  33986  286.62 0855.46
2009/04/23 07:29:47.5      79    -46     26     92     96 120.2  16.3  33986  286.62 0855.46
2009/04/23 07:29:47.6      68    -43     20     81     84 122.4  14.3  33982  286.57 0855.46
2009/04/23 07:29:47.7      65    -41     22     77     81 122.4  16.3  33982  286.56 0855.46
2009/04/23 07:29:47.8      45    -54      8     71     72 140.3   7.1  33986  286.64 0855.46
2009/04/23 07:29:47.9      42    -51     -8     67     68 140.3  -7.2  33986  286.62 0855.46
2009/04/23 07:29:48.0      48    -44    -13     66     68 132.2 -11.3  33986  286.64 0855.46
2009/04/23 07:29:48.1      46    -31    -20     56     60 124.2 -19.7  33984  286.59 0855.46
2009/04/23 07:29:48.2      44    -13     -2     46     47 106.8  -3.1  33984  286.61 0855.46
2009/04/23 07:29:48.3      40      9      7     42     43  76.7  10.1  33984  286.59 0855.46
2009/04/23 07:29:48.4      37     17     17     42     45  64.7  23.0  33984  286.61 0855.46
2009/04/23 07:29:48.5      19     31     34     37     50  32.6  46.9  33980  286.54 0855.46
2009/04/23 07:29:48.6      17     22     44     29     52  37.8  64.6  33982  286.56 0855.46
2009/04/23 07:29:48.7      16     21     30     27     40  37.8  53.3  33980  286.54 0855.46
2009/04/23 07:29:48.8      15      7     31     17     35  64.7  66.8  33982  286.57 0855.46
2009/04/23 07:29:48.9      -2      3     31      4     31 327.5  90.0  33984  286.61 0855.46
2009/04/23 07:29:49.0     -13     -4     32     14     34 251.6  73.1  33984  286.61 0855.46
2009/04/23 07:29:49.1     -22      0     31     23     38 270.0  58.5  33982  286.56 0855.46
2009/04/23 07:29:49.2     -26     12     18     29     34 295.4  35.5  33986  286.64 0855.46
2009/04/23 07:29:49.3     -31     37     17     49     52 320.3  19.4  33982  286.57 0855.46
2009/04/23 07:29:49.4     -59     37     13     70     72 302.5  11.1  33984  286.59 0855.46
2009/04/23 07:29:49.6     -70     35     -5     79     80 297.1  -3.7  33982  286.57 0855.46
2009/04/23 07:29:49.7     -82     -6    -26     83     86 265.6 -22.8  33982  286.56 0855.45
2009/04/23 07:29:49.8    -109    -27    -22    113    116 255.8 -11.3  33982  286.57 0855.45
2009/04/23 07:29:49.9     -83    -48    -27     97    101 239.8 -15.5  33982  286.57 0855.45
2009/04/23 07:29:50.0     -65    -65    -31     93     99 225.0 -18.7  33982  286.57 0855.45
2009/04/23 07:29:50.1     -35    -54    -10     65     66 213.4  -9.3  33982  286.56 0855.45
2009/04/23 07:29:50.2     -33    -40    -18     53     55 219.6 -23.6  33982  286.57 0855.45
2009/04/23 07:29:50.3      -5    -29     -9     30     31 189.8 -21.7  33984  286.59 0855.45
2009/04/23 07:29:50.4     -19    -21      9     29     31 223.2  17.3  33980  286.54 0855.45
2009/04/23 07:29:50.5     -69      0     13     70     72 270.0  11.1  33982  286.56 0855.45
2009/04/23 07:29:50.6     -62      6    -10     63     64 276.1  -9.3  33982  286.56 0855.45
2009/04/23 07:29:50.7     -71    -33    -26     79     83 244.7 -23.3  33982  286.57 0855.45
2009/04/23 07:29:50.8     -64   -120      0    137    138 208.1  -0.3  33980  286.52 0855.45
2009/04/23 07:29:50.9    -152   -134    -13    204    205 228.6  -3.9  33982  286.57 0855.45
2009/04/23 07:29:51.0    -178   -111      8    210    211 238.0   2.3  33982  286.56 0855.45
2009/04/23 07:29:51.1    -192    -63     70    203    216 251.8  19.2  33978  286.51 0855.45
2009/04/23 07:29:51.2    -194   -102    -12    220    221 242.2  -3.2  33984  286.61 0855.45
2009/04/23 07:29:51.3    -129    -81     62    153    165 238.0  23.0  33980  286.52 0855.45
2009/04/23 07:29:51.4    -158   -143     79    214    228 228.0  21.0  33980  286.52 0855.45
2009/04/23 07:29:51.5    -134   -109    114    173    207 230.9  36.3  33974  286.44 0855.45
2009/04/23 07:29:51.6    -170    -58     28    180    183 250.9   8.8  33980  286.52 0855.45
2009/04/23 07:29:51.7    -158    -74    -27    175    178 244.9  -8.8  33982  286.57 0855.45
2009/04/23 07:29:51.8    -140    -88    -11    166    167 237.6  -4.1  33980  286.54 0855.45
2009/04/23 07:29:51.9     -43   -143     99    150    179 196.9  36.5  33978  286.49 0855.45
2009/04/23 07:29:52.0    -126     19     80    128    150 278.8  35.5  33978  286.49 0855.45
2009/04/23 07:29:52.1    -143     15     82    144    165 276.1  32.4  33978  286.51 0855.45
2009/04/23 07:29:52.2     -94     19     43     97    106 281.9  25.7  33976  286.47 0855.45
2009/04/23 07:29:52.3    -115     23     93    118    150 281.5  42.7  33980  286.54 0855.45
2009/04/23 07:29:52.4    -136    -14     46    137    145 263.9  18.9  33982  286.56 0855.45
2009/04/23 07:29:52.5    -156      2     14    157    158 270.8   5.4  33978  286.51 0855.45
2009/04/23 07:29:52.6    -151     -7     -3    152    153 267.0  -1.2  33980  286.54 0855.45
2009/04/23 07:29:52.7    -106    -37     43    113    120 250.5  22.0  33978  286.51 0855.45
2009/04/23 07:29:52.8    -113    -68     65    133    148 238.9  27.3  33978  286.49 0855.45
2009/04/23 07:29:52.9     -85    -22     99     88    132 255.4  54.2  33976  286.47 0855.45
2009/04/23 07:29:53.0    -128    -43    116    136    178 251.4  44.8  33976  286.46 0855.45
2009/04/23 07:29:53.1     -93    -71     54    118    129 232.7  26.6  33978  286.49 0855.45
2009/04/23 07:29:53.2     -62    -42     57     76     95 235.8  40.7  33976  286.47 0855.45
2009/04/23 07:29:53.3    -107    -29     -1    112    113 254.5  -0.7  33980  286.54 0855.45
2009/04/23 07:29:53.4    -113     -5    -41    114    122 267.0 -19.7  33982  286.56 0855.45
2009/04/23 07:29:53.5    -126      8     -8    127    128 273.9  -3.7  33980  286.54 0855.45
2009/04/23 07:29:53.6    -119     32     29    124    128 285.1  13.2  33976  286.47 0855.45
2009/04/23 07:29:53.7    -123      0     33    124    129 270.0  15.2  33976  286.46 0855.45
2009/04/23 07:29:53.8     -65    -37     30     75     80 240.2  23.0  33978  286.51 0855.45
2009/04/23 07:29:53.9     -59    -41      3     73     74 234.9   2.9  33978  286.51 0855.45
2009/04/23 07:29:54.0     -79    -31      8     86     87 248.3   5.9  33978  286.49 0855.45
2009/04/23 07:29:54.1     -96    -63     23    116    119 236.7  11.6  33978  286.51 0855.45
2009/04/23 07:29:54.2     -87    -68     14    111    112 231.8   7.5  33976  286.46 0855.45
2009/04/23 07:29:54.3     -29    -34     58     46     74 220.5  56.4  33978  286.51 0855.45
2009/04/23 07:29:54.4      20    -36     59     42     72 150.1  60.6  33976  286.46 0855.45
2009/04/23 07:29:54.5      21    -32     55     39     67 145.7  60.6  33978  286.49 0855.45
2009/04/23 07:29:54.6      49    -15     55     52     75 107.7  52.1  33976  286.47 0855.45
2009/04/23 07:29:54.7      68      5     24     69     74  85.6  19.4  33976  286.47 0855.45
2009/04/23 07:29:54.8      64    -16     19     67     70 104.2  16.3  33978  286.49 0855.45
2009/04/23 07:29:54.9      76      5      3     77     78  85.7   2.9  33978  286.51 0855.45
2009/04/23 07:29:55.0      85      0     16     86     88  90.0  10.6  33982  286.56 0855.45
2009/04/23 07:29:55.1      90      0     21     91     94  90.0  13.2  33978  286.51 0855.45
2009/04/23 07:29:55.2     112      2     13    113    114  88.7   6.9  33978  286.51 0855.45
2009/04/23 07:29:55.3     110    -22     37    113    120 101.4  18.4  33984  286.59 0855.45
2009/04/23 07:29:55.4     128      0     35    129    134  90.0  15.2  33982  286.56 0855.45
2009/04/23 07:29:55.5      91     -4     -9     92     93  93.0  -5.6  33982  286.56 0855.45
2009/04/23 07:29:55.6      79    -26     16     84     86 108.6  11.1  33982  286.57 0855.45
2009/04/23 07:29:55.7      25    -62     28     67     72 158.1  23.1  33984  286.59 0855.44
2009/04/23 07:29:55.8     -14    -72     36     74     82 191.6  27.8  33982  286.57 0855.44
2009/04/23 07:29:55.9     -12    -48     70     50     86 194.3  61.1  33984  286.61 0855.44
2009/04/23 07:29:56.0     -30    -91     98     97    137 198.5  50.1  33984  286.61 0855.44
2009/04/23 07:29:56.1     -43   -107    111    116    160 201.9  48.7  33984  286.61 0855.44
2009/04/23 07:29:56.2     -40   -121     97    128    160 198.3  40.9  33982  286.57 0855.44
2009/04/23 07:29:56.3     -55   -117     54    130    140 205.3  23.6  33982  286.56 0855.44
2009/04/23 07:29:56.4     -50   -115     73    126    145 203.6  32.9  33984  286.59 0855.44
2009/04/23 07:29:56.5     -71   -110     94    132    162 213.0  39.1  33982  286.56 0855.44
2009/04/23 07:29:56.6     -69   -102      2    124    125 214.2   1.2  33984  286.59 0855.44
2009/04/23 07:29:56.7    -117    -74    -33    139    143 237.5 -13.4  33982  286.56 0855.44
2009/04/23 07:29:56.8    -118    -75      2    140    141 237.5   0.8  33976  286.47 0855.44
2009/04/23 07:29:56.9     -89    -67     -1    112    113 233.1  -0.7  33978  286.51 0855.44
2009/04/23 07:29:57.0     -97    -19     30     99    104 258.5  17.3  33978  286.51 0855.44
2009/04/23 07:29:57.1     -85    -54     27    101    105 237.6  15.3  33980  286.54 0855.44
2009/04/23 07:29:57.2     -34   -110     40    116    123 197.4  19.4  33978  286.51 0855.44
2009/04/23 07:29:57.3    -121    -86    -30    149    152 234.5 -11.5  33980  286.52 0855.44
2009/04/23 07:29:57.4     -85    -90     37    124    130 223.3  16.8  33982  286.56 0855.44
2009/04/23 07:29:57.5     -99     19    -82    101    130 281.4 -48.1  33980  286.54 0855.44
2009/04/23 07:29:57.6    -128     39    -70    134    151 286.9 -33.7  33982  286.56 0855.44
2009/04/23 07:29:57.7    -147     11    -66    148    162 274.4 -30.1  33980  286.54 0855.44
2009/04/23 07:29:57.8    -158      7    -57    159    168 272.6 -24.8  33982  286.56 0855.44
2009/04/23 07:29:57.9    -166     -8    -52    167    174 267.2 -22.8  33982  286.57 0855.44
2009/04/23 07:29:58.0    -165     10    -56    166    176 273.7 -18.7  33984  286.61 0855.44
2009/04/23 07:29:58.1    -144      7    -29    145    148 273.0 -11.3  33982  286.57 0855.44
2009/04/23 07:29:58.2    -159     39    -55    164    172 283.9 -23.6  33982  286.57 0855.44
2009/04/23 07:29:58.3    -148     31    -55    152    161 281.9 -25.1  33982  286.56 0855.44
2009/04/23 07:29:58.4    -133     47    -74    142    160 289.5 -34.2  33982  286.56 0855.44
2009/04/23 07:29:58.5    -137     65    -55    152    161 295.4 -25.1  33980  286.52 0855.44
2009/04/23 07:29:58.6    -124     58    -47    138    145 295.2 -23.3  33982  286.57 0855.44
2009/04/23 07:29:58.7    -121     57    -37    134    140 295.2 -15.5  33984  286.59 0855.44
2009/04/23 07:29:58.8    -139     30    -23    143    145 282.4  -9.3  33982  286.56 0855.44
2009/04/23 07:29:58.9    -133     37    -24    139    142 285.5  -9.8  33986  286.62 0855.44
2009/04/23 07:29:59.0    -160     19    -13    162    163 277.0  -4.6  33984  286.61 0855.44
2009/04/23 07:29:59.1    -163      0    -25    164    166 270.0  -8.8  33982  286.57 0855.44
2009/04/23 07:29:59.2    -128    -60    -71    142    158 244.6 -32.9  33986  286.62 0855.44
2009/04/23 07:29:59.3    -128    -35    -48    133    141 254.5 -25.3  33986  286.62 0855.44
2009/04/23 07:29:59.4    -130      0    -57    131    142 270.0 -29.5  33984  286.61 0855.44
2009/04/23 07:29:59.5    -110      0    -52    111    122 270.0 -31.0  33984  286.61 0855.44
2009/04/23 07:29:59.6    -112     -4    -69    113    132 267.9 -38.8  33984  286.59 0855.44
2009/04/23 07:29:59.7    -123      3    -57    124    136 271.7 -31.0  33984  286.61 0855.43
2009/04/23 07:29:59.8    -155     -2    -61    156    167 269.1 -26.7  33986  286.62 0855.43
2009/04/23 07:29:59.9    -125     10    -62    126    140 274.8 -32.2  33984  286.61 0855.43
2009/04/23 07:30:00.0    -129     23    -64    132    146 280.1 -31.7  33986  286.64 0855.43
2009/04/23 07:30:00.1    -127     33    -47    132    141 284.6 -19.6  33984  286.59 0855.43
2009/04/23 07:30:00.2    -123     32    -66    128    144 284.6 -33.7  33982  286.56 0855.43
2009/04/23 07:30:00.3    -104     28    -54    108    120 285.5 -33.1  33986  286.64 0855.43
2009/04/23 07:30:00.4     -91     22    -49     94    106 283.7 -34.2  33982  286.56 0855.43
2009/04/23 07:30:00.5     -79     13    -40     81     90 279.7 -32.2  33986  286.62 0855.43
2009/04/23 07:30:00.6     -87     14    -50     89    102 279.2 -35.8  33986  286.64 0855.43
2009/04/23 07:30:00.7     -85      3    -48     86     98 272.6 -35.8  33986  286.62 0855.44
2009/04/23 07:30:00.8    -102     26    -65    106    124 284.6 -39.4  33984  286.59 0855.44
2009/04/23 07:30:00.9     -91     29    -81     96    125 288.2 -48.7  33982  286.57 0855.44
2009/04/23 07:30:01.0     -77      0    -75     78    108 270.0 -53.4  33982  286.56 0855.44
2009/04/23 07:30:01.1    -104     16    -35    106    111 279.2 -23.8  33980  286.54 0855.44
2009/04/23 07:30:01.2    -124    -37    -37    130    136 253.2 -16.0  33972  286.41 0855.44
2009/04/23 07:30:01.3    -169    -49    -36    177    181 253.6 -11.6  33976  286.46 0855.44
2009/04/23 07:30:01.4    -176    -26    -23    178    180 261.4  -7.5  33978  286.51 0855.44
2009/04/23 07:30:01.5    -190    -63    -52    201    208 251.6 -14.5  33980  286.52 0855.44
2009/04/23 07:30:01.6    -169    -56    -42    179    185 251.6 -13.4  33978  286.49 0855.44
2009/04/23 07:30:01.7    -122    -40    -16    129    131 251.8  -7.3  33978  286.51 0855.44
2009/04/23 07:30:01.8    -113    -67    -44    132    140 239.3 -18.7  33970  286.37 0855.44
2009/04/23 07:30:01.9    -119    -76    -65    142    156 237.6 -31.0  33974  286.42 0855.44
2009/04/23 07:30:02.0     -43    -98    -30    108    113 203.6 -15.4  33974  286.44 0855.44
2009/04/23 07:30:02.1     -45   -101    -22    111    114 204.1 -11.3  33972  286.39 0855.44
2009/04/23 07:30:02.2     -39    -89    -59     98    114 203.6 -38.8  33976  286.47 0855.44
2009/04/23 07:30:02.3     -60    -62    -37     87     94 224.1 -29.0  33976  286.47 0855.44
2009/04/23 07:30:02.4     -86   -114    -42    143    149 217.0 -21.2  33976  286.46 0855.44
2009/04/23 07:30:02.5    -115    -78     11    140    141 235.8   4.9  33974  286.42 0855.44
2009/04/23 07:30:02.6     -82    -93      2    125    126 221.4   1.2  33976  286.46 0855.44
2009/04/23 07:30:02.7     -80    -85    -23    118    121 223.3 -11.3  33976  286.46 0855.43
2009/04/23 07:30:02.8     -69   -102     29    124    128 214.3  13.1  33978  286.51 0855.43
2009/04/23 07:30:02.9     -92   -131     19    161    163 215.0   6.7  33976  286.46 0855.43
2009/04/23 07:30:03.0    -130   -184    -28    226    228 215.4  -7.2  33982  286.56 0855.43
2009/04/23 07:30:03.1    -128   -177    -27    219    221 215.8  -7.2  33976  286.47 0855.43
2009/04/23 07:30:03.2     -92   -138    -14    167    168 213.8  -4.9  33982  286.56 0855.43
2009/04/23 07:30:03.3    -109   -149      1    185    186 216.1   0.5  33980  286.54 0855.43
2009/04/23 07:30:03.4    -117   -137      0    181    182 220.5   0.2  33982  286.56 0855.43
2009/04/23 07:30:03.5     -80   -136     26    159    162 210.5   9.5  33980  286.52 0855.43
2009/04/23 07:30:03.6    -101   -136      2    170    171 216.7   0.8  33980  286.54 0855.43
2009/04/23 07:30:03.7     -87   -159     10    182    183 208.9   3.1  33976  286.47 0855.43
2009/04/23 07:30:03.8    -100   -137      8    170    171 216.3   2.8  33980  286.52 0855.43
2009/04/23 07:30:03.9     -94   -134    -39    164    169 215.2 -13.7  33986  286.64 0855.43
2009/04/23 07:30:04.0     -87   -120    -50    149    158 216.1 -18.7  33984  286.59 0855.43
2009/04/23 07:30:04.1     -65   -118    -48    136    145 209.0 -19.7  33982  286.57 0855.43
2009/04/23 07:30:04.2     -68   -102    -59    123    136 213.8 -31.7  33984  286.59 0855.43
2009/04/23 07:30:04.3     -30    -82    -44     88     98 200.5 -32.6  33980  286.54 0855.43
2009/04/23 07:30:04.4     -14   -124     10    125    126 186.7   4.9  33980  286.54 0855.43
2009/04/23 07:30:04.5     -69   -128    -18    146    148 208.5  -7.3  33982  286.56 0855.43
2009/04/23 07:30:04.6    -103    -76     -7    129    130 233.6  -3.2  33982  286.56 0855.43
2009/04/23 07:30:04.7    -112    -56    -20    126    128 243.4  -9.3  33982  286.57 0855.43
2009/04/23 07:30:04.8     -84    -45    -30     96    100 241.6 -22.8  33986  286.62 0855.43
2009/04/23 07:30:04.9     -89    -18    -39     91     99 258.5 -28.5  33984  286.61 0855.43
2009/04/23 07:30:05.0     -71    -14    -42     73     84 258.5 -37.3  33984  286.59 0855.43
2009/04/23 07:30:05.1     -96    -34    -37    102    108 250.5 -24.8  33984  286.59 0855.43
2009/04/23 07:30:05.2    -105    -57    -38    120    126 241.1 -17.6  33982  286.56 0855.43
2009/04/23 07:30:05.3     -91    -66    -57    113    126 234.1 -33.6  33982  286.56 0855.43
2009/04/23 07:30:05.4    -109    -26    -37    113    118 256.3 -23.8  33980  286.54 0855.43
2009/04/23 07:30:05.5     -72    -45    -19     86     89 238.0 -12.9  33982  286.57 0855.43
2009/04/23 07:30:05.6     -58    -61    -23     85     89 223.7 -15.0  33982  286.56 0855.43
2009/04/23 07:30:05.7     -98    -59    -62    115    130 238.9 -35.2  33982  286.56 0855.43
2009/04/23 07:30:05.8    -151    -55    -61    161    172 250.0 -25.9  33982  286.57 0855.43
2009/04/23 07:30:05.9    -157    -69    -53    172    179 246.3 -22.3  33980  286.54 0855.43
2009/04/23 07:30:06.0    -166    -57    -53    176    184 250.9 -16.8  33982  286.57 0855.43
2009/04/23 07:30:06.1    -169   -148    -74    225    236 228.7 -23.3  33980  286.53 0855.43
2009/04/23 07:30:06.2    -160   -119    -89    200    218 233.4 -29.7  33982  286.56 0855.43
2009/04/23 07:30:06.3    -155   -114   -122    193    228 233.8 -39.9  33978  286.51 0855.43
2009/04/23 07:30:06.4     -91   -111    -62    144    156 219.2 -29.3  33974  286.44 0855.43
2009/04/23 07:30:06.5     -93   -160    -63    186    196 210.3 -23.3  33976  286.46 0855.43
2009/04/23 07:30:06.6     -70   -157    -46    172    179 204.1 -15.2  33976  286.47 0855.43
2009/04/23 07:30:06.7     -52   -145    -29    155    158 200.0 -10.9  33980  286.52 0855.43
2009/04/23 07:30:06.8     -71   -162     -8    178    179 203.8  -2.6  33980  286.54 0855.43
2009/04/23 07:30:06.9     -37   -141    -29    146    149 195.1 -11.3  33978  286.49 0855.43
2009/04/23 07:30:07.0     -14   -155    -55    156    165 185.3 -24.0  33978  286.49 0855.43
2009/04/23 07:30:07.1     -64   -135    -30    150    154 205.4 -11.5  33972  286.39 0855.43
2009/04/23 07:30:07.2     -42   -141    -19    148    150 196.5  -7.3  33972  286.41 0855.43
2009/04/23 07:30:07.3     -13   -121    -20    122    124 186.3  -9.3  33972  286.39 0855.43
2009/04/23 07:30:07.4     -10    -92      8     93     94 186.7   5.4  33974  286.42 0855.43
2009/04/23 07:30:07.5      -5    -81     40     82     91 184.0  27.8  33976  286.46 0855.43
2009/04/23 07:30:07.6       0    -77     46     78     90 180.0  33.5  33974  286.42 0855.43
2009/04/23 07:30:07.7     -13    -79     12     81     82 189.8   8.5  33972  286.41 0855.43
2009/04/23 07:30:07.8     -37    -86    -12     94     95 203.6  -7.3  33972  286.39 0855.43
2009/04/23 07:30:07.9     -34   -103    -14    109    110 198.7  -7.3  33972  286.41 0855.43
2009/04/23 07:30:08.0      -5   -121    -13    122    123 182.7  -6.2  33970  286.35 0855.43
2009/04/23 07:30:08.1       8   -113     -8    114    115 175.5  -4.1  33970  286.37 0855.43
2009/04/23 07:30:08.2       8    -89      1     90     91 174.7   1.2  33974  286.44 0855.43
2009/04/23 07:30:08.3      15   -105     -8    107    108 171.9  -4.6  33976  286.46 0855.43
2009/04/23 07:30:08.4      20   -103     -4    105    106 168.9  -2.6  33976  286.47 0855.43
2009/04/23 07:30:08.5      52    -85     14    100    102 148.4   8.0  33974  286.42 0855.43
2009/04/23 07:30:08.6      50    -77     56     93    108 147.0  34.4  33976  286.47 0855.43
2009/04/23 07:30:08.7      51    -90     36    104    111 150.6  19.4  33978  286.49 0855.43
2009/04/23 07:30:08.8      49    -91     47    104    114 151.5  26.2  33980  286.54 0855.43
2009/04/23 07:30:08.9      65    -88     46    110    119 143.5  23.6  33980  286.54 0855.43
2009/04/23 07:30:09.0      48    -85     78     98    125 150.6  42.7  33978  286.49 0855.43
2009/04/23 07:30:09.1      28    -52     60     60     84 151.9  50.1  33976  286.47 0855.43
2009/04/23 07:30:09.2      32    -35     61     48     77 137.7  56.4  33980  286.52 0855.43
2009/04/23 07:30:09.3       5     -4     45      7     45 133.3  90.0  33978  286.51 0855.43
2009/04/23 07:30:09.4       0     16     39     17     42   0.9  75.0  33978  286.51 0855.43
2009/04/23 07:30:09.5     -12     -4     55     13     56 251.8  86.9  33978  286.51 0855.43
2009/04/23 07:30:09.6     -26      7     66     27     71 285.1  77.1  33982  286.56 0855.43
2009/04/23 07:30:09.7     -25     30     75     40     85 320.4  69.8  33976  286.46 0855.43
2009/04/23 07:30:09.8      -2     43     72     44     84 357.3  65.1  33976  286.47 0855.43
2009/04/23 07:30:09.9      -4     64     70     65     95 356.4  52.2  33976  286.47 0855.43
2009/04/23 07:30:10.0       7     86     53     87    101   4.9  34.4  33974  286.44 0855.43
2009/04/23 07:30:10.1      13     64     46     66     80  11.6  38.6  33976  286.47 0855.43
2009/04/23 07:30:10.2      30     63     51     70     86  25.5  39.7  33976  286.47 0855.43
2009/04/23 07:30:10.3      21     55     28     59     65  20.9  27.2  33976  286.46 0855.43
2009/04/23 07:30:10.4     -40     63     11     75     76 327.4   9.0  33972  286.41 0855.43
2009/04/23 07:30:10.5     -45     54      6     71     72 320.3   4.9  33972  286.41 0855.43
2009/04/23 07:30:10.6     -34     62      8     72     73 331.0   6.9  33970  286.37 0855.43
2009/04/23 07:30:10.7     -13     83     15     85     87 351.1  10.1  33970  286.37 0855.43
2009/04/23 07:30:10.8     -46     86     12     98     99 331.9   7.5  33968  286.32 0855.43
2009/04/23 07:30:10.9     -51     77      4     93     94 326.6   2.9  33968  286.34 0855.43
2009/04/23 07:30:11.0     -49    102     -6    114    115 334.5  -3.1  33970  286.37 0855.43
2009/04/23 07:30:11.1     -64    102      0    121    122 327.9   0.2  33972  286.41 0855.43
2009/04/23 07:30:11.2     -29     72     15     78     80 338.1  11.1  33974  286.42 0855.43
2009/04/23 07:30:11.3     -13     48     34     50     60 344.9  37.6  33972  286.39 0855.43
2009/04/23 07:30:11.4     -25     25     15     36     39 315.0  21.0  33972  286.41 0855.43
2009/04/23 07:30:11.5     -31     -6    -17     32     36 258.5 -33.7  33970  286.35 0855.43
2009/04/23 07:30:11.6     -26     -8    -33     28     43 251.4 -58.7  33968  286.32 0855.43
2009/04/23 07:30:11.7     -31      0    -24     32     40 270.0 -45.1  33968  286.32 0855.43
2009/04/23 07:30:11.8     -36     12    -12     38     40 288.6 -17.6  33970  286.37 0855.43
2009/04/23 07:30:11.9     -28     18    -15     34     37 302.4 -29.5  33970  286.37 0855.43
2009/04/23 07:30:12.0     -15     17     -8     24     25 318.6 -23.6  33968  286.34 0855.43
2009/04/23 07:30:12.1      -3      0    -11      4     11 270.0 -85.4  33968  286.32 0855.43
2009/04/23 07:30:12.2      -8    -13    -15     16     21 212.5 -54.4  33970  286.37 0855.43
2009/04/23 07:30:12.3      -2    -32    -16     33     36 184.4 -31.6  33972  286.39 0855.43
2009/04/23 07:30:12.4     -14    -45     -1     48     49 197.8  -2.2  33972  286.41 0855.43
2009/04/23 07:30:12.5     -10    -40      9     42     43 195.1  12.2  33976  286.46 0855.43
2009/04/23 07:30:12.6      -8    -28     10     30     32 196.9  19.2  33974  286.42 0855.43
2009/04/23 07:30:12.7      -3    -38     16     39     42 184.5  23.0  33974  286.42 0855.44
2009/04/23 07:30:12.8      -8    -57     23     58     62 188.0  23.0  33976  286.47 0855.44
2009/04/23 07:30:12.9     -17    -39     14     43     46 203.6  18.4  33976  286.47 0855.44
2009/04/23 07:30:13.0     -44    -33      6     55     56 233.1   6.9  33978  286.51 0855.44
2009/04/23 07:30:13.1     -54    -33     -2     64     65 238.5  -2.2  33978  286.51 0855.44
2009/04/23 07:30:13.2     -38    -46     -8     61     62 219.7  -8.2  33976  286.47 0855.44
2009/04/23 07:30:13.3     -35    -42     -2     55     56 219.7  -2.2  33980  286.52 0855.44
2009/04/23 07:30:13.4     -34    -53      3     64     65 212.5   2.9  33982  286.56 0855.44
2009/04/23 07:30:13.5     -44    -65     30     79     84 214.3  21.0  33980  286.52 0855.44
2009/04/23 07:30:13.6     -23    -71     32     75     81 198.3  24.1  33978  286.51 0855.44
2009/04/23 07:30:13.7     -18    -62     35     65     73 196.9  31.4  33978  286.51 0855.44
2009/04/23 07:30:13.8     -20    -62     22     66     70 198.5  18.9  33978  286.49 0855.44
2009/04/23 07:30:13.9     -22    -56     14     61     63 201.9  13.2  33980  286.54 0855.44
2009/04/23 07:30:14.0     -34    -62     14     72     74 209.0  11.1  33978  286.51 0855.44
2009/04/23 07:30:14.1     -25    -54     11     60     62 205.4  11.1  33982  286.57 0855.44
2009/04/23 07:30:14.2     -20    -62      2     66     67 198.3   1.8  33982  286.56 0855.44
2009/04/23 07:30:14.3     -14    -59     12     61     63 193.4  11.0  33982  286.56 0855.44
2009/04/23 07:30:14.4      -7    -52     18     53     57 188.0  19.4  33982  286.56 0855.44
2009/04/23 07:30:14.5     -26    -55     26     62     67 205.5  23.1  33982  286.56 0855.44
2009/04/23 07:30:14.6     -35    -34     19     49     52 225.9  22.0  33980  286.54 0855.44
2009/04/23 07:30:14.7     -38    -38     31     54     62 225.0  31.4  33982  286.56 0855.43
2009/04/23 07:30:14.8     -42    -46     41     63     75 222.3  35.6  33982  286.56 0855.43
2009/04/23 07:30:14.9     -38    -38     31     54     62 225.0  31.4  33982  286.56 0855.43
2009/04/23 07:30:15.0     -38    -34     36     52     63 227.8  38.6  33978  286.49 0855.43
2009/04/23 07:30:15.1     -43    -31     33     54     63 234.0  34.4  33976  286.47 0855.43
2009/04/23 07:30:15.2     -26    -46     26     54     59 209.9  27.3  33978  286.51 0855.43
2009/04/23 07:30:15.3      -6    -49     46     50     67 188.0  48.0  33980  286.54 0855.43
2009/04/23 07:30:15.4     -23    -46     51     52     72 207.2  51.1  33978  286.49 0855.43
2009/04/23 07:30:15.5     -31    -27     50     42     65 229.6  56.3  33980  286.52 0855.43
2009/04/23 07:30:15.6     -19     -2     32     20     37 263.9  64.7  33978  286.51 0855.43
2009/04/23 07:30:15.7     -11     -3     41     12     42 251.6  83.9  33980  286.52 0855.43
2009/04/23 07:30:15.8      -3    -14     35     15     38 195.1  77.1  33982  286.56 0855.43
2009/04/23 07:30:15.9      -1     -6     26      7     26 189.7  84.9  33982  286.56 0855.43
2009/04/23 07:30:16.0       7     22     35     24     42  18.3  62.6  33982  286.56 0855.43
2009/04/23 07:30:16.1       5     11     32     13     34  25.4  79.2  33980  286.54 0855.43
2009/04/23 07:30:16.2     -15      4     44     16     46 285.1  80.2  33978  286.51 0855.43
2009/04/23 07:30:16.3      12     16     33     21     39  37.8  64.7  33978  286.49 0855.43
2009/04/23 07:30:16.4       3     22     31     23     38   9.8  58.5  33978  286.51 0855.43
2009/04/23 07:30:16.5      26      8     15     28     31  71.6  29.3  33980  286.54 0855.43
2009/04/23 07:30:16.6      19      3     13     20     23  78.5  35.5  33978  286.51 0855.43
2009/04/23 07:30:16.7      32      7     16     33     36  76.7  27.2  33978  286.51 0855.43
2009/04/23 07:30:16.8      36      0      7     37     38  90.0  11.0  33978  286.49 0855.43
2009/04/23 07:30:16.9      48     -3      9     49     50  94.3  11.0  33980  286.52 0855.43
2009/04/23 07:30:17.0      65      0     19     66     69  90.0  16.3  33978  286.49 0855.43
2009/04/23 07:30:17.1      69    -14      3     71     72 101.4   2.9  33976  286.47 0855.43
2009/04/23 07:30:17.2      83    -13     24     85     89  99.2  15.8  33978  286.49 0855.43
2009/04/23 07:30:17.4      70    -20     25     73     78 105.9  18.9  33974  286.44 0855.43
2009/04/23 07:30:17.5      81    -36     30     89     95 114.4  18.9  33976  286.46 0855.43
2009/04/23 07:30:17.6      71    -33      3     79     80 115.2   2.3  33976  286.47 0855.43
2009/04/23 07:30:17.7      83    -22    -27     86     91 105.1 -17.6  33978  286.51 0855.43
2009/04/23 07:30:17.8      83    -10    -15     84     86  97.5 -10.3  33978  286.51 0855.43
2009/04/23 07:30:17.9      89     -6    -12     90     91  94.4  -7.7  33978  286.49 0855.43
2009/04/23 07:30:18.0      83     -5      4     84     85  93.9   2.9  33976  286.47 0855.43
2009/04/23 07:30:18.1      82      2     21     83     86  88.3  14.7  33976  286.46 0855.43
2009/04/23 07:30:18.2      77      0     -2     78     79  90.0  -1.8  33978  286.49 0855.43
2009/04/23 07:30:18.3      62     -6    -16     63     66  96.1 -14.5  33976  286.47 0855.43
2009/04/23 07:30:18.4      55    -26     -1     61     62 115.3  -1.3  33980  286.54 0855.43
2009/04/23 07:30:18.5      37    -45      7     59     60 140.4   6.9  33978  286.51 0855.43
2009/04/23 07:30:18.6      31    -61     13     69     71 152.8  11.1  33982  286.56 0855.43
2009/04/23 07:30:18.7      42    -72      4     84     85 149.7   2.9  33982  286.56 0855.43
2009/04/23 07:30:18.8      68    -68     -3     97     98 135.3  -2.2  33980  286.52 0855.43
2009/04/23 07:30:18.9      82   -100     14    130    131 140.4   6.5  33980  286.54 0855.43
2009/04/23 07:30:19.0      86   -107     11    138    139 141.3   4.9  33980  286.54 0855.43
2009/04/23 07:30:19.1     115    -77      8    139    140 123.7   3.3  33980  286.54 0855.43
2009/04/23 07:30:19.2     124    -72      0    144    145 120.2   0.2  33978  286.51 0855.43
2009/04/23 07:30:19.3      65    -84      5    107    108 142.2   2.9  33980  286.52 0855.43
2009/04/23 07:30:19.4      15    -75     43     77     88 168.4  31.4  33978  286.51 0855.43
2009/04/23 07:30:19.5      26    -56     59     62     85 154.6  49.0  33976  286.46 0855.43
2009/04/23 07:30:19.6      44    -13    102     46    111 106.8  74.0  33978  286.51 0855.43
2009/04/23 07:30:19.7      92    -23    102     95    139 104.2  52.2  33980  286.54 0855.43
2009/04/23 07:30:19.8      36    -46     49     59     76 142.2  43.8  33978  286.51 0855.43
2009/04/23 07:30:19.9     -34    -72     42     80     90 205.3  29.8  33980  286.54 0855.43
2009/04/23 07:30:20.0     -61    -43    -25     75     80 234.9 -18.7  33980  286.52 0855.43
2009/04/23 07:30:20.1     -58    -54    -31     80     85 226.8 -26.4  33978  286.51 0855.43
2009/04/23 07:30:20.2     -50    -60    -28     79     84 219.6 -19.7  33982  286.56 0855.43
2009/04/23 07:30:20.3     -48    -74    -26     89     93 213.4 -16.6  33978  286.51 0855.43
2009/04/23 07:30:20.4     -56    -59    -27     82     86 223.7 -23.8  33980  286.52 0855.43
2009/04/23 07:30:20.5     -45    -53    -30     70     76 220.5 -28.5  33982  286.56 0855.43
2009/04/23 07:30:20.6     -41    -78    -26     89     92 208.1 -21.2  33982  286.56 0855.43
2009/04/23 07:30:20.7     -45    -63    -30     78     83 216.0 -25.9  33978  286.51 0855.43
2009/04/23 07:30:20.8     -38    -75    -30     85     90 206.7 -23.8  33978  286.51 0855.43
2009/04/23 07:30:20.9     -32    -67    -32     75     81 205.5 -28.5  33980  286.54 0855.43
2009/04/23 07:30:21.0     -39    -74    -22     84     87 208.1 -15.0  33978  286.51 0855.43
2009/04/23 07:30:21.1     -12    -61    -20     63     66 191.6 -23.8  33978  286.49 0855.43
2009/04/23 07:30:21.2     -14    -72    -36     74     82 191.6 -32.2  33976  286.47 0855.43
2009/04/23 07:30:21.3     -40    -79    -60     89    107 207.2 -41.4  33978  286.49 0855.43
2009/04/23 07:30:21.4       4    -82    -28     83     88 176.9 -19.1  33978  286.51 0855.43
2009/04/23 07:30:21.5      20    -99    -32    102    106 168.4 -23.3  33980  286.54 0855.43
2009/04/23 07:30:21.6      34    -91    -22     98    101 159.5 -12.9  33978  286.51 0855.43
2009/04/23 07:30:21.7      15   -111     -4    113    114 172.0  -2.2  33982  286.56 0855.43
2009/04/23 07:30:21.8      -2   -148     40    149    155 180.9  15.2  33978  286.49 0855.43
2009/04/23 07:30:21.9      24   -191     56    193    202 172.7  16.3  33976  286.47 0855.43
2009/04/23 07:30:22.0       8   -184     27    185    188 177.3   8.5  33976  286.46 0855.43
2009/04/23 07:30:22.1      -5   -172     62    173    183 181.8  20.2  33972  286.41 0855.43
2009/04/23 07:30:22.2      47   -156     49    164    172 163.1  16.6  33980  286.52 0855.43
2009/04/23 07:30:22.3      13   -172     47    173    180 175.5  15.2  33978  286.49 0855.43
2009/04/23 07:30:22.4      28   -140     27    143    146 168.4  11.0  33980  286.54 0855.43
2009/04/23 07:30:22.5      31   -134     20    138    140 166.7   8.5  33980  286.52 0855.43
2009/04/23 07:30:22.6      31   -132     34    136    141 166.6  14.3  33980  286.52 0855.43
2009/04/23 07:30:22.7      20   -138     32    140    144 171.5  13.1  33980  286.52 0855.43
2009/04/23 07:30:22.8      31   -114     68    119    137 164.9  31.9  33976  286.47 0855.43
2009/04/23 07:30:22.9      40   -159     60    165    175 165.7  20.2  33978  286.49 0855.43
2009/04/23 07:30:23.0      40   -159    114    165    200 165.7  37.8  33978  286.49 0855.43
2009/04/23 07:30:23.1     127   -142     90    191    211 138.1  27.1  33978  286.51 0855.43
2009/04/23 07:30:23.2      44   -135    135    143    196 161.7  48.2  33976  286.47 0855.43
2009/04/23 07:30:23.3      55   -194    104    202    227 164.0  29.3  33980  286.54 0855.43
2009/04/23 07:30:23.4      27   -194    102    196    220 171.9  29.5  33974  286.44 0855.43
2009/04/23 07:30:23.5      38   -171     84    176    195 167.3  27.3  33978  286.49 0855.43
2009/04/23 07:30:23.6      37   -154    121    159    199 166.2  41.4  33976  286.47 0855.43
2009/04/23 07:30:23.7      19   -172    101    174    201 173.5  32.9  33980  286.52 0855.43
2009/04/23 07:30:23.8      33   -187     61    191    201 169.8  17.9  33980  286.52 0855.43
2009/04/23 07:30:23.9      15   -182     10    183    184 175.1   3.1  33982  286.56 0855.43
2009/04/23 07:30:24.0      -7   -166      8    167    168 182.5   2.8  33978  286.49 0855.43
2009/04/23 07:30:24.1      27   -136     43    139    146 168.5  17.4  33978  286.51 0855.43
2009/04/23 07:30:24.2      51   -140     21    150    152 159.9   8.0  33980  286.52 0855.43
2009/04/23 07:30:24.3      67   -131     57    148    158 152.9  22.0  33978  286.49 0855.43
2009/04/23 07:30:24.4      75   -112     48    136    145 146.2  19.4  33978  286.51 0855.43
2009/04/23 07:30:24.5     102   -117     -6    156    157 139.0  -2.2  33978  286.49 0855.43
2009/04/23 07:30:24.6      83   -126      1    152    153 146.6   0.7  33980  286.52 0855.43
2009/04/23 07:30:24.7      72   -125    -14    145    146 150.1  -5.6  33978  286.51 0855.43
2009/04/23 07:30:24.8      32   -151     11    155    156 168.0   4.4  33978  286.51 0855.43
2009/04/23 07:30:24.9      46   -113     45    123    130 157.7  21.0  33978  286.51 0855.43
2009/04/23 07:30:25.0      65    -78     62    102    119 140.4  34.0  33978  286.51 0855.43
2009/04/23 07:30:25.1      94    -67     49    116    125 125.9  24.1  33978  286.51 0855.43
2009/04/23 07:30:25.2      86    -97     40    130    137 138.6  17.3  33978  286.49 0855.43
2009/04/23 07:30:25.3      88   -107      9    139    140 140.4   3.8  33976  286.47 0855.43
2009/04/23 07:30:25.4      97    -90     77    133    153 132.7  33.4  33980  286.52 0855.43
2009/04/23 07:30:25.5      86    -91     44    126    134 136.8  19.4  33980  286.52 0855.43
2009/04/23 07:30:25.6      59   -125     27    139    142 154.7  11.0  33980  286.54 0855.43
2009/04/23 07:30:25.7      62   -131     38    145    150 154.6  14.7  33978  286.49 0855.43
2009/04/23 07:30:25.8      47   -105     39    116    123 155.9  18.9  33976  286.47 0855.43
2009/04/23 07:30:25.9      43   -108     21    117    119 158.2  10.6  33982  286.56 0855.43
2009/04/23 07:30:26.0      67    -40     79     79    111 120.7  50.1  33980  286.52 0855.43
2009/04/23 07:30:26.1      24    -36     78     44     89 145.7  67.7  33980  286.52 0855.43
2009/04/23 07:30:26.2      20    -38     57     44     72 151.9  57.5  33980  286.52 0855.43
2009/04/23 07:30:26.3      17     -4     50     18     53 105.1  81.2  33978  286.51 0855.43
2009/04/23 07:30:26.4     -13    -60     53     62     81 192.5  45.4  33982  286.56 0855.43
2009/04/23 07:30:26.5     -18    -53     35     57     66 198.7  35.5  33982  286.56 0855.43
2009/04/23 07:30:26.6     -10    -35     28     37     46 196.9  40.7  33980  286.52 0855.43
2009/04/23 07:30:26.7      21     -3     52     22     56  99.7  76.1  33980  286.52 0855.43
2009/04/23 07:30:26.8      27    -17     40     33     51 122.4  56.4  33978  286.51 0855.43
2009/04/23 07:30:26.9      26    -12     37     29     47 115.3  57.5  33980  286.52 0855.43
2009/04/23 07:30:27.0      50    -30     20     59     63 120.7  19.2  33980  286.52 0855.43
2009/04/23 07:30:27.1      36    -11     21     38     43 108.2  31.4  33978  286.49 0855.43
2009/04/23 07:30:27.2      38     -2     24     39     45  94.4  35.5  33980  286.54 0855.43
2009/04/23 07:30:27.3      48    -12     33     50     59 105.1  36.5  33980  286.54 0855.43
2009/04/23 07:30:27.4      58    -19     28     62     68 108.2  26.2  33978  286.51 0855.43
2009/04/23 07:30:27.5      52    -14     40     54     67 105.1  39.7  33978  286.51 0855.43
2009/04/23 07:30:27.6      33    -43     53     55     76 143.0  50.0  33976  286.46 0855.43
2009/04/23 07:30:27.7      50    -50     29     72     77 134.9  23.0  33976  286.47 0855.43
2009/04/23 07:30:27.8      69    -24     14     74     76 109.1  11.0  33978  286.49 0855.43
2009/04/23 07:30:27.9      84    -39     71     93    117 114.8  41.7  33978  286.51 0855.43
2009/04/23 07:30:28.0      69    -32     75     77    107 115.2  50.0  33978  286.49 0855.43
2009/04/23 07:30:28.1      -3    -48     56     49     74 184.5  54.3  33976  286.47 0855.43
2009/04/23 07:30:28.2      28     15     50     33     59  61.1  63.6  33976  286.47 0855.43
2009/04/23 07:30:28.3     -15    -26     38     31     49 210.7  56.4  33974  286.44 0855.43
2009/04/23 07:30:28.4      -9    -78     57     79     97 187.1  39.7  33976  286.47 0855.43
2009/04/23 07:30:28.5      -1   -102     73    103    126 180.9  39.1  33976  286.47 0855.43
2009/04/23 07:30:28.6      15   -109     72    111    132 172.0  35.6  33978  286.49 0855.43
2009/04/23 07:30:28.7      -7    -83     99     84    129 185.3  55.8  33974  286.42 0855.43
2009/04/23 07:30:28.8     -30    -64     82     72    109 205.5  53.7  33976  286.47 0855.43
2009/04/23 07:30:28.9      -4    -45     93     46    103 186.2  72.4  33976  286.46 0855.43
2009/04/23 07:30:29.0      11   -101     80    102    129 173.3  42.2  33978  286.49 0855.43
2009/04/23 07:30:29.1      13    -67     89     69    112 168.4  57.9  33976  286.46 0855.43
2009/04/23 07:30:29.2     -69    -64    100     95    137 226.9  52.1  33976  286.47 0855.43
2009/04/23 07:30:29.3    -127   -111     16    169    170 228.7   5.7  33976  286.47 0855.43
2009/04/23 07:30:29.4    -134   -142     -8    196    197 223.4  -2.6  33976  286.46 0855.43
2009/04/23 07:30:29.5    -142   -143    -48    202    208 224.8 -13.4  33976  286.46 0855.43
2009/04/23 07:30:29.6    -136   -138    -58    195    204 224.5 -16.6  33976  286.46 0855.43
2009/04/23 07:30:29.7    -137   -170    -19    219    220 219.0  -5.2  33972  286.41 0855.43
2009/04/23 07:30:29.8     -89   -110    -18    142    144 219.2  -7.2  33978  286.49 0855.43
2009/04/23 07:30:29.9     -90    -46    -30    102    107 242.9 -16.6  33974  286.44 0855.43
2009/04/23 07:30:30.0    -149    -19   -111    151    187 262.5 -44.3  33976  286.46 0855.43
2009/04/23 07:30:30.1    -115    -23   -118    118    166 258.6 -54.5  33974  286.42 0855.43
2009/04/23 07:30:30.2       0    -15    -60     16     62 179.1 -89.3  33974  286.42 0855.43
2009/04/23 07:30:30.3     -11    -81    -38     82     90 188.0 -31.5  33970  286.37 0855.43
2009/04/23 07:30:30.4     -18   -127    -29    129    133 188.1 -12.9  33974  286.42 0855.43
2009/04/23 07:30:30.5     -66   -139     38    154    159 205.4  13.9  33970  286.37 0855.43
2009/04/23 07:30:30.6     -52   -111     85    123    149 205.4  38.0  33972  286.41 0855.43
2009/04/23 07:30:30.7     -59   -124     71    138    155 205.5  29.3  33974  286.44 0855.43
2009/04/23 07:30:30.8     -65    -69     58     95    111 223.2  35.0  33972  286.41 0855.43
2009/04/23 07:30:30.9     -61    -53     50     82     96 229.1  35.0  33974  286.44 0855.43
2009/04/23 07:30:31.0     -55    -55     23     79     83 225.1  16.3  33974  286.42 0855.43
2009/04/23 07:30:31.1     -52    -52      6     74     75 225.0   4.9  33974  286.44 0855.43
2009/04/23 07:30:31.2     -19    -65     18     68     71 196.9  15.3  33972  286.41 0855.43
2009/04/23 07:30:31.3      -7    -83     68     84    108 185.3  43.7  33974  286.44 0855.43
2009/04/23 07:30:31.4     -61    -65     -3     90     91 223.2  -2.2  33972  286.41 0855.43
2009/04/23 07:30:31.5    -117     -9    -42    118    126 265.6 -19.6  33976  286.46 0855.43
2009/04/23 07:30:31.6    -119     27    -44    123    130 282.8 -24.4  33974  286.42 0855.43
2009/04/23 07:30:31.7    -137     -8    -51    138    147 266.5 -25.3  33972  286.41 0855.43
2009/04/23 07:30:31.8    -119     15    -34    121    125 277.5 -20.2  33974  286.44 0855.43
2009/04/23 07:30:31.9    -106     29    -14    111    112 285.5  -7.2  33972  286.41 0855.43
2009/04/23 07:30:32.0     -98      4      7     99    100 272.6   4.4  33974  286.42 0855.43
2009/04/23 07:30:32.1     -70      5     60     71     92 274.4  44.3  33974  286.44 0855.43
2009/04/23 07:30:32.2     -64     26     24     70     75 291.8  19.4  33974  286.42 0855.43
2009/04/23 07:30:32.3     -29     -3     31     30     43 263.9  50.1  33976  286.46 0855.43
2009/04/23 07:30:32.4     -36     -7     51     37     63 258.6  60.5  33978  286.49 0855.43
2009/04/23 07:30:32.5     -55     15     60     58     83 285.9  50.1  33974  286.44 0855.43
2009/04/23 07:30:32.6     -33     19     60     39     71 300.7  64.6  33974  286.44 0855.43
2009/04/23 07:30:32.7     -27      0     33     28     43 270.0  54.3  33974  286.42 0855.43
2009/04/23 07:30:32.8       0     28     31     29     42 359.1  51.2  33976  286.46 0855.43
2009/04/23 07:30:32.9       7     22     29     24     37  18.3  56.3  33978  286.49 0855.43
2009/04/23 07:30:33.0     -10      3     41     11     42 288.4  84.9  33972  286.41 0855.43
2009/04/23 07:30:33.1       0    -13     20     14     24 182.7  60.5  33974  286.42 0855.43
2009/04/23 07:30:33.2      23    -18     -9     30     31 127.8 -21.7  33976  286.47 0855.43
2009/04/23 07:30:33.3      15    -17    -38     24     44 138.6 -69.1  33974  286.42 0855.43
2009/04/23 07:30:33.4     -23     18    -10     30     31 307.8 -23.6  33974  286.42 0855.43
2009/04/23 07:30:33.5    -133     84     56    158    168 302.4  19.6  33974  286.42 0855.43
2009/04/23 07:30:33.6    -132     76     70    153    168 299.8  26.2  33972  286.39 0855.43
2009/04/23 07:30:33.7    -142     85     57    166    176 301.1  19.2  33974  286.42 0855.43
2009/04/23 07:30:33.8     -98     72     56    122    134 306.4  27.1  33974  286.44 0855.44
2009/04/23 07:30:33.9     -40     54     45     68     81 323.9  36.5  33974  286.42 0855.44
2009/04/23 07:30:34.0     -20     74     75     77    107 344.9  50.0  33968  286.34 0855.44
2009/04/23 07:30:34.1     -23      0     64     24     68 270.8  80.2  33976  286.47 0855.44
2009/04/23 07:30:34.2      -1    -18     57     19     60 184.5  81.0  33976  286.46 0855.44
2009/04/23 07:30:34.3     -37    -58    147     69    162 212.5  73.2  33976  286.46 0855.44
2009/04/23 07:30:34.4     -58    -84    112    103    152 214.7  52.2  33974  286.44 0855.44
2009/04/23 07:30:34.5     -38      2     69     39     79 274.4  67.7  33972  286.39 0855.44
2009/04/23 07:30:34.6      18     35     93     40    101  27.2  75.5  33972  286.41 0855.44
2009/04/23 07:30:34.7     -50      7     71     51     87 278.8  61.1  33976  286.46 0855.44
2009/04/23 07:30:34.8     -39     25     64     47     79 302.5  60.0  33976  286.46 0855.44
2009/04/23 07:30:34.9     -25    -23     53     35     63 226.9  63.6  33972  286.41 0855.44
2009/04/23 07:30:35.0      -7    -26     53     27     59 195.1  70.8  33976  286.46 0855.44
2009/04/23 07:30:35.1      -8    -12     45     15     47 212.5  81.0  33974  286.42 0855.44
2009/04/23 07:30:35.2     -18    -31     49     37     61 210.7  59.4  33974  286.44 0855.44
2009/04/23 07:30:35.3      32    -43     21     54     57 143.0  21.0  33976  286.46 0855.44
2009/04/23 07:30:35.4      81    -56    -36     99    105 124.6 -24.4  33972  286.41 0855.44
2009/04/23 07:30:35.5      95    -53    -47    110    119 119.3 -28.5  33974  286.44 0855.44
2009/04/23 07:30:35.6      95    -85    -47    128    136 131.8 -25.3  33974  286.44 0855.44
2009/04/23 07:30:35.7      95   -114    -28    149    152 140.3 -10.9  33974  286.42 0855.44
2009/04/23 07:30:35.8     110   -125     -6    167    168 138.6  -2.3  33976  286.46 0855.43
2009/04/23 07:30:35.9      89   -140      6    167    168 147.5   2.1  33976  286.47 0855.43
2009/04/23 07:30:36.0      31   -151     -1    155    156 168.4  -0.5  33976  286.46 0855.43
2009/04/23 07:30:36.1       2   -143     -8    144    145 179.1  -3.2  33972  286.41 0855.43
2009/04/23 07:30:36.2      11   -137    -34    138    143 175.1 -13.9  33972  286.41 0855.43
2009/04/23 07:30:36.3     -11   -124    -43    125    133 185.3 -19.1  33978  286.49 0855.43
2009/04/23 07:30:36.4       7    -94    -37     95    101 175.5 -26.9  33974  286.42 0855.43
2009/04/23 07:30:36.5      44   -114      0    123    124 158.6   0.2  33974  286.42 0855.43
2009/04/23 07:30:36.6      32   -109      0    114    115 163.5  -0.3  33972  286.41 0855.43
2009/04/23 07:30:36.7      22    -93     -7     96     97 166.6  -4.6  33972  286.41 0855.43
2009/04/23 07:30:36.8      17    -90     22     92     95 169.3  13.7  33974  286.44 0855.43
2009/04/23 07:30:36.9      77    -93     41    121    128 140.4  18.9  33976  286.46 0855.43
2009/04/23 07:30:37.0      99    -87     31    132    136 131.3  13.2  33972  286.41 0855.43
2009/04/23 07:30:37.1      98   -103     50    143    152 136.3  19.4  33974  286.42 0855.43
2009/04/23 07:30:37.2     139    -99      2    171    172 125.5   1.0  33972  286.41 0855.43
2009/04/23 07:30:37.3     164    -87    -10    186    187 118.0  -3.1  33974  286.44 0855.43
2009/04/23 07:30:37.4     158    -80    -24    178    180 116.9  -7.7  33974  286.42 0855.43
2009/04/23 07:30:37.5     158    -58    -19    169    171 110.2  -6.5  33974  286.42 0855.43
2009/04/23 07:30:37.6     156    -58     -6    167    168 110.6  -2.1  33974  286.42 0855.43
2009/04/23 07:30:37.7     168    -87     -7    190    191 117.3  -2.2  33978  286.49 0855.43
2009/04/23 07:30:37.8     233    -97    -30    253    255 112.6  -6.9  33976  286.47 0855.43
2009/04/23 07:30:37.9     222    -69     14    233    234 107.3   3.6  33972  286.40 0855.43
2009/04/23 07:30:38.0     203    -57    -13    211    212 105.7  -3.7  33972  286.39 0855.43
2009/04/23 07:30:38.1     227    -61     20    236    237 105.0   4.9  33976  286.47 0855.43
2009/04/23 07:30:38.2     242    -79     -9    255    256 108.2  -2.2  33976  286.47 0855.43
2009/04/23 07:30:38.3     261    -96     27    279    281 110.2   5.7  33980  286.52 0855.43
2009/04/23 07:30:38.4     234    -62     25    243    245 105.0   6.0  33978  286.50 0855.43
2009/04/23 07:30:38.5     215    -71     11    227    228 108.4   2.8  33974  286.42 0855.43
2009/04/23 07:30:38.6     198    -46     77    204    218 103.3  21.5  33978  286.49 0855.43
2009/04/23 07:30:38.7     204    -21     64    206    216  96.1  17.3  33978  286.49 0855.43
2009/04/23 07:30:38.8     200     -2     81    201    216  90.8  23.1  33974  286.44 0855.43
2009/04/23 07:30:38.9     178    -11     71    179    192  93.7  22.8  33976  286.46 0855.43
2009/04/23 07:30:39.0     178     36      8    182    183  78.6   2.8  33976  286.46 0855.43
2009/04/23 07:30:39.1      92     34     63     99    117  69.6  35.5  33976  286.46 0855.43
2009/04/23 07:30:39.2      71     31    110     78    134  66.5  61.5  33978  286.51 0855.43
2009/04/23 07:30:39.3     167     17     93    168    192  84.1  31.4  33974  286.42 0855.43
2009/04/23 07:30:39.4     161     12     90    162    185  85.6  31.4  33974  286.44 0855.43
2009/04/23 07:30:39.5     163    -58     27    174    177 109.7   9.0  33976  286.46 0855.43
2009/04/23 07:30:39.6     140    -67     24    156    158 115.8   8.8  33976  286.47 0855.43
2009/04/23 07:30:39.7     162    -58     42    173    179 109.7  13.7  33976  286.46 0855.43
2009/04/23 07:30:39.8     146    -59     16    158    159 112.2   6.1  33976  286.46 0855.43
2009/04/23 07:30:39.9      98    -17     44    100    109 100.1  25.7  33978  286.49 0855.43
2009/04/23 07:30:40.0      90     -6     41     91     99  93.9  26.2  33976  286.47 0855.43
2009/04/23 07:30:40.1      93      4     44     94    103  87.4  27.1  33976  286.46 0855.43
2009/04/23 07:30:40.2      81    -44     53     93    107 118.9  32.4  33974  286.44 0855.43
2009/04/23 07:30:40.3      33     -2     65     34     73  94.4  70.8  33976  286.46 0855.43
2009/04/23 07:30:40.4      25     -9     68     27     73 110.0  77.1  33976  286.46 0855.43
2009/04/23 07:30:40.5      33      2     73     34     80  85.6  73.5  33976  286.46 0855.43
2009/04/23 07:30:40.6      45     10     74     47     87  76.7  64.7  33976  286.46 0855.43
2009/04/23 07:30:40.7     102    -31     30    107    112 107.3  15.8  33976  286.47 0855.43
2009/04/23 07:30:40.8     116    -46     37    125    131 111.7  16.8  33978  286.49 0855.43
2009/04/23 07:30:40.9     133    -26     26    136    139 101.4  11.1  33974  286.44 0855.43
2009/04/23 07:30:41.0     114      0     70    115    134  90.0  35.0  33972  286.41 0855.43
2009/04/23 07:30:41.1      81     12    102     82    130  81.2  56.4  33972  286.41 0855.43
2009/04/23 07:30:41.2      42      3     88     43     97  85.6  72.8  33974  286.44 0855.43
2009/04/23 07:30:41.3       7      4     54      9     54  57.6  90.0  33976  286.47 0855.43
2009/04/23 07:30:41.4     -32     -3     40     33     51 263.9  56.4  33974  286.42 0855.43
2009/04/23 07:30:41.5     -13    -22     52     26     58 210.7  71.9  33974  286.42 0855.43
2009/04/23 07:30:41.6     -53     19     48     57     74 290.0  43.8  33974  286.44 0855.43
2009/04/23 07:30:41.7      12     35     45     38     58  20.0  55.4  33974  286.42 0855.43
2009/04/23 07:30:41.8      48     50     73     70    101  43.3  51.6  33974  286.44 0855.43
2009/04/23 07:30:41.9       3     42     24     43     49   4.5  31.4  33974  286.42 0855.43
2009/04/23 07:30:42.0       1     24      8     25     27   4.5  19.2  33974  286.42 0855.43
2009/04/23 07:30:42.1     -27     64     24     70     75 337.3  19.2  33972  286.39 0855.43
2009/04/23 07:30:42.3     -47     74     30     88     94 327.4  18.9  33972  286.41 0855.43
2009/04/23 07:30:42.3     -46     63     40     79     88 324.0  28.2  33974  286.44 0855.43
2009/04/23 07:30:42.4      39    -40     92     56    107 135.8  65.1  33972  286.41 0855.43
2009/04/23 07:30:42.5     -42    -46    133     63    147 222.3  72.9  33972  286.41 0855.43
2009/04/23 07:30:42.6       5   -131     92    132    160 177.8  38.4  33974  286.42 0855.43
2009/04/23 07:30:42.7     -35   -150     71    155    170 193.4  26.4  33972  286.41 0855.43
2009/04/23 07:30:42.8     -81   -137     32    160    164 210.7  11.4  33972  286.41 0855.43
2009/04/23 07:30:42.9     -31   -124     47    128    136 194.3  20.9  33972  286.41 0855.43
2009/04/23 07:30:43.0     -32   -122     34    127    132 195.1  15.3  33972  286.41 0855.43
2009/04/23 07:30:43.1     -24   -133     51    136    145 190.2  21.0  33974  286.44 0855.43
2009/04/23 07:30:43.2     -28   -113     32    117    122 194.3  15.3  33976  286.47 0855.43
2009/04/23 07:30:43.3     -14   -104     98    106    144 188.1  47.9  33974  286.44 0855.43
2009/04/23 07:30:43.4    -115   -149     80    189    205 217.6  24.3  33972  286.39 0855.43
2009/04/23 07:30:43.5       0   -180    159    181    240 180.0  45.9  33974  286.44 0855.43
2009/04/23 07:30:43.6     -15   -169    124    170    210 185.1  39.7  33976  286.46 0855.43
2009/04/23 07:30:43.7     -47   -187    146    193    242 194.3  40.7  33972  286.41 0855.43
2009/04/23 07:30:43.9       1   -143    120    144    187 179.5  43.8  33970  286.35 0855.43
2009/04/23 07:30:43.9      15   -149    102    150    181 174.2  37.6  33976  286.47 0855.43
2009/04/23 07:30:44.0       5   -123    107    124    163 177.3  45.6  33976  286.46 0855.43
2009/04/23 07:30:44.1      24    -73    111     78    135 161.5  62.1  33976  286.46 0855.43
2009/04/23 07:30:44.2      11    -41     72     43     83 164.9  66.2  33976  286.47 0855.43
2009/04/23 07:30:44.3       7      7     54     11     55  45.0  89.1  33976  286.47 0855.43
2009/04/23 07:30:44.4       1      8     56      9     56  11.6  90.0  33980  286.52 0855.43
2009/04/23 07:30:44.5      67      5     65     68     94  85.6  49.4  33976  286.46 0855.43
2009/04/23 07:30:44.6      76      5     60     77     97  85.6  42.2  33978  286.49 0855.43
2009/04/23 07:30:44.7      62     -4     94     63    113  94.4  63.6  33976  286.47 0855.43
2009/04/23 07:30:44.8      80    -27     85     85    120 108.6  50.1  33976  286.46 0855.43
2009/04/23 07:30:45.0      81    -44    100     93    136 118.9  52.2  33976  286.47 0855.43
2009/04/23 07:30:45.1      92    -14     68     94    116  98.8  39.7  33974  286.42 0855.43
2009/04/23 07:30:45.2      51    -25     37     57     67 116.2  35.6  33976  286.46 0855.43
2009/04/23 07:30:45.3      -7    -36     65     37     74 191.6  67.7  33976  286.47 0855.43
2009/04/23 07:30:45.4      23     19     44     30     53  50.5  62.6  33976  286.46 0855.43
2009/04/23 07:30:45.5      50     14     95     52    108  74.1  69.3  33978  286.49 0855.43
2009/04/23 07:30:45.6      86     -7     58     87    104  94.8  36.5  33978  286.49 0855.43
2009/04/23 07:30:45.7      61     18     39     64     74  73.2  35.5  33974  286.44 0855.43
2009/04/23 07:30:45.8      30     19     34     36     49  57.6  50.0  33974  286.44 0855.43
2009/04/23 07:30:45.9      -1     38     31     39     49 357.3  43.7  33974  286.44 0855.43
2009/04/23 07:30:46.0      -9     50     33     51     60 349.3  35.6  33974  286.44 0855.43
2009/04/23 07:30:46.1     -45     48     32     67     74 316.8  27.1  33974  286.44 0855.43
2009/04/23 07:30:46.2     -82     90    -10    123    124 317.7  -5.1  33974  286.42 0855.43
2009/04/23 07:30:46.3    -100     85    -39    132    138 310.4 -16.6  33972  286.41 0855.43
2009/04/23 07:30:46.4    -100     62    -29    118    122 302.0 -13.9  33972  286.39 0855.43
2009/04/23 07:30:46.5    -102     78    -44    129    137 307.3 -19.1  33972  286.41 0855.43
2009/04/23 07:30:46.6    -127    102    -64    164    176 308.9 -26.9  33978  286.49 0855.43
2009/04/23 07:30:46.7    -107     90    -77    141    160 310.0 -35.4  33980  286.54 0855.43
2009/04/23 07:30:46.8    -104     96    -75    142    160 312.7 -34.5  33982  286.57 0855.43
2009/04/23 07:30:46.9    -135     99    -65    168    180 306.2 -26.4  33982  286.56 0855.43
2009/04/23 07:30:47.0    -144     91    -66    171    183 302.4 -26.4  33980  286.52 0855.43
2009/04/23 07:30:47.1    -141     93    -70    170    183 303.5 -27.8  33982  286.56 0855.43
2009/04/23 07:30:47.2    -175     93    -67    199    209 298.0 -23.3  33982  286.56 0855.43
2009/04/23 07:30:47.3    -155     70    -70    171    184 294.4 -27.5  33982  286.57 0855.43
2009/04/23 07:30:47.4    -200     31    -83    203    219 279.0 -27.5  33982  286.57 0855.43
2009/04/23 07:30:47.5    -206     22    -86    208    225 276.1 -28.2  33982  286.57 0855.43
2009/04/23 07:30:47.6    -197     30    -74    200    213 278.8 -25.4  33980  286.52 0855.43
2009/04/23 07:30:47.7    -219     -8    -81    220    234 267.9 -25.4  33984  286.59 0855.43
2009/04/23 07:30:47.8    -197     -3    -74    198    211 269.1 -25.7  33986  286.62 0855.43
2009/04/23 07:30:47.9    -167     14    -85    168    188 275.0 -33.1  33984  286.59 0855.43
2009/04/23 07:30:48.0    -146     11    -73    147    164 274.4 -32.9  33980  286.54 0855.43
2009/04/23 07:30:48.1    -125     49    -50    135    143 291.3 -25.4  33972  286.39 0855.43
2009/04/23 07:30:48.2    -130     38    -48    136    145 286.4 -19.7  33972  286.41 0855.43
2009/04/23 07:30:48.3    -142     31    -25    146    149 282.4  -9.8  33974  286.42 0855.43
2009/04/23 07:30:48.4    -124    -29     -5    128    129 256.7  -2.2  33972  286.39 0855.43
2009/04/23 07:30:48.5    -144     -3    -49    145    154 268.7 -18.9  33970  286.37 0855.43
2009/04/23 07:30:48.6    -159      2    -45    160    166 270.9 -20.4  33970  286.37 0855.43
2009/04/23 07:30:48.7     -79    -57    -29     98    102 234.0 -21.2  33974  286.42 0855.43
2009/04/23 07:30:48.8     -95      0    -41     96    104 270.0 -28.0  33970  286.37 0855.43
2009/04/23 07:30:48.9    -102     27    -46    106    115 285.1 -29.5  33970  286.35 0855.44
2009/04/23 07:30:49.0    -103     13    -31    104    108 277.5 -21.2  33970  286.35 0855.44
2009/04/23 07:30:49.1     -85    -17    -24     87     91 258.5 -15.5  33970  286.37 0855.44
2009/04/23 07:30:49.2     -75    -24     -7     79     80 252.3  -5.6  33972  286.39 0855.44
2009/04/23 07:30:49.3     -86      0     -1     87     88 270.0  -1.3  33968  286.32 0855.44
2009/04/23 07:30:49.4     -71     62    -23     95     98 310.9 -13.9  33970  286.35 0855.44
2009/04/23 07:30:49.5     -76    -15    -40     78     87 258.5 -33.7  33966  286.29 0855.44
2009/04/23 07:30:49.6     -62    -62    -34     89     95 225.0 -25.4  33970  286.35 0855.44
2009/04/23 07:30:49.7     -86    -93      5    127    128 222.8   2.3  33972  286.39 0855.44
2009/04/23 07:30:49.8     -97    -24     46    101    110 255.8  26.6  33976  286.46 0855.44
2009/04/23 07:30:49.9     -95      0     25     96    100 270.0  14.7  33974  286.42 0855.44
2009/04/23 07:30:50.0     -75     62     32     98    104 309.5  17.9  33972  286.41 0855.44
2009/04/23 07:30:50.1     -64     52     29     83     89 309.5  19.4  33972  286.39 0855.44
2009/04/23 07:30:50.2     -52     69     26     87     91 322.6  16.8  33972  286.41 0855.44
2009/04/23 07:30:50.3     -36     96     35    103    109 339.5  18.9  33974  286.44 0855.44
2009/04/23 07:30:50.4     -46    126     39    135    141 340.0  16.3  33976  286.46 0855.44
2009/04/23 07:30:50.5     -78    122     34    146    150 327.4  13.1  33976  286.46 0855.44
2009/04/23 07:30:50.6     -68     96      3    118    119 324.8   1.8  33976  286.47 0855.44
2009/04/23 07:30:50.7     -52     88     20    103    106 329.3  11.1  33976  286.46 0855.44
2009/04/23 07:30:50.8     -43     79     13     91     93 331.5   8.5  33974  286.44 0855.44
2009/04/23 07:30:50.9     -34     73     25     81     85 335.1  17.3  33974  286.44 0855.44
2009/04/23 07:30:51.0     -10     87      5     88     89 352.9   3.8  33976  286.47 0855.44
2009/04/23 07:30:51.1       0    115     21    116    118   0.5  10.6  33976  286.46 0855.44
2009/04/23 07:30:51.2      72     70     43    101    109  45.6  24.6  33972  286.41 0855.44
2009/04/23 07:30:51.3     105     38     62    112    128  70.0  31.4  33970  286.35 0855.44
2009/04/23 07:30:51.4     117     25     72    120    139  77.6  33.5  33962  286.22 0855.44
2009/04/23 07:30:51.5     138     37     52    144    153  74.9  20.4  33962  286.24 0855.44
2009/04/23 07:30:51.6     155     45     56    162    172  73.8  19.2  33956  286.14 0855.44
2009/04/23 07:30:51.7     173     48     82    180    197  74.5  26.2  33954  286.10 0855.44
2009/04/23 07:30:51.8     154     67     56    169    179  66.3  18.4  33954  286.10 0855.44
2009/04/23 07:30:51.9      67     92     44    114    122  36.1  22.0  33956  286.14 0855.44
2009/04/23 07:30:52.0       2     46     74     47     87   3.6  64.7  33956  286.12 0855.44
2009/04/23 07:30:52.1     -30     89     59     94    110 341.3  35.5  33958  286.15 0855.44
2009/04/23 07:30:52.2     -22     96     58     99    114 347.1  33.5  33962  286.24 0855.44
2009/04/23 07:30:52.3     -19     95     62     97    115 348.5  35.5  33960  286.19 0855.44
2009/04/23 07:30:52.4     -20    100     59    103    118 348.4  32.4  33962  286.22 0855.44
2009/04/23 07:30:52.5     -71     83     64    110    127 319.5  32.9  33962  286.22 0855.44
2009/04/23 07:30:52.6     -31     66     71     74    102 334.7  49.0  33956  286.14 0855.44
2009/04/23 07:30:52.7     -18     92     56     94    109 348.9  34.0  33956  286.12 0855.44
2009/04/23 07:30:52.8     -35     75      9     83     84 335.1   6.5  33956  286.12 0855.44
2009/04/23 07:30:52.9     -31     49     42     59     72 327.4  39.5  33956  286.14 0855.45
2009/04/23 07:30:53.0       2     79     55     80     97   1.8  37.6  33960  286.20 0855.45
2009/04/23 07:30:53.1      -7     99     50    100    111 356.0  28.2  33962  286.22 0855.45
2009/04/23 07:30:53.2      18    112     79    114    138   9.3  38.0  33964  286.27 0855.45
2009/04/23 07:30:53.3      31    114     76    119    141  15.2  35.5  33966  286.30 0855.45
2009/04/23 07:30:53.4      54     40     67     68     95  53.1  51.1  33966  286.29 0855.45
2009/04/23 07:30:53.5      64     40     85     76    114  57.5  53.3  33964  286.27 0855.45
2009/04/23 07:30:53.6     106     45    100    116    153  66.9  45.4  33964  286.25 0855.45
2009/04/23 07:30:53.7     101     49     92    113    145  63.8  43.7  33966  286.29 0855.45
2009/04/23 07:30:53.8      62     74     80     97    125  40.1  43.7  33968  286.34 0855.45
2009/04/23 07:30:53.9      58     91     82    109    136  32.6  40.7  33970  286.37 0855.45
2009/04/23 07:30:54.0      60     50     74     79    108  50.4  48.0  33970  286.37 0855.45
2009/04/23 07:30:54.1      26     22     66     35     74  50.4  69.8  33970  286.37 0855.45
2009/04/23 07:30:54.2      24     10     59     27     64  66.5  73.1  33968  286.34 0855.45
2009/04/23 07:30:54.3      22     93     83     96    126  13.8  45.8  33968  286.34 0855.45
2009/04/23 07:30:54.4      62    131     86    146    169  25.3  33.5  33970  286.37 0855.45
2009/04/23 07:30:54.5      61    140     73    153    169  23.7  27.3  33970  286.37 0855.45
2009/04/23 07:30:54.6      38    142     68    148    162  15.1  26.2  33974  286.44 0855.45
2009/04/23 07:30:54.7      26    161     54    164    173   9.3  18.4  33972  286.39 0855.45
2009/04/23 07:30:54.8      37    139     33    144    148  15.1  13.2  33972  286.41 0855.45
2009/04/23 07:30:54.9      19    143     28    145    148   7.6  11.1  33972  286.41 0855.45
2009/04/23 07:30:55.0      33    136     38    141    147  13.8  15.2  33974  286.42 0855.45
2009/04/23 07:30:55.1      43    119     25    127    130  20.0  11.1  33970  286.35 0855.45
2009/04/23 07:30:55.2      36    120     19    126    128  17.0   8.9  33972  286.41 0855.45
2009/04/23 07:30:55.3      40    113     24    120    123  19.6  11.6  33972  286.41 0855.45
2009/04/23 07:30:55.4      23    137     38    139    145   9.7  15.3  33980  286.52 0855.45
2009/04/23 07:30:55.5      31    128     51    132    141  13.8  22.5  33978  286.49 0855.45
2009/04/23 07:30:55.6      36    120     49    126    135  17.0  21.5  33982  286.56 0855.45
2009/04/23 07:30:55.7      23    122     35    125    130  10.7  15.8  33978  286.51 0855.45
2009/04/23 07:30:55.8      29    141     28    145    148  11.6  11.0  33980  286.52 0855.45
2009/04/23 07:30:55.9      39    145     38    151    156  15.1  14.3  33980  286.54 0855.45
2009/04/23 07:30:56.0      31    153     -1    157    158  11.6  -0.7  33978  286.51 0855.45
2009/04/23 07:30:56.1      65    160    -22    173    175  22.3  -7.5  33980  286.52 0855.45
2009/04/23 07:30:56.2      74    164    -23    181    183  24.3  -7.3  33978  286.49 0855.45
2009/04/23 07:30:56.3      71    139    -26    157    160  27.1  -9.6  33976  286.46 0855.45
2009/04/23 07:30:56.4      52    150     28    159    162  19.2  10.1  33976  286.46 0855.45
2009/04/23 07:30:56.5      65    120     55    137    147  28.5  23.0  33978  286.49 0855.45
2009/04/23 07:30:56.6      79    121     62    145    157  33.4  24.3  33978  286.51 0855.45
2009/04/23 07:30:56.7      82    104     64    133    147  38.3  27.3  33978  286.49 0855.45
2009/04/23 07:30:56.8      71    126     68    145    160  29.4  27.0  33974  286.44 0855.45
2009/04/23 07:30:56.9      92    144     99    171    197  32.6  32.9  33978  286.49 0855.44
2009/04/23 07:30:57.0     100    152     96    183    206  33.4  29.5  33982  286.56 0855.44
2009/04/23 07:30:57.1      88    152     90    176    197  30.1  29.3  33984  286.59 0855.44
2009/04/23 07:30:57.2     105    202     73    228    240  27.6  17.9  33980  286.52 0855.44
2009/04/23 07:30:57.3     106    191     76    219    232  29.0  19.2  33982  286.56 0855.44
2009/04/23 07:30:57.4     106    180     69    210    222  30.5  18.1  33984  286.59 0855.44
2009/04/23 07:30:57.5     101    165     54    194    202  31.4  15.8  33982  286.57 0855.44
2009/04/23 07:30:57.6     117    157     67    197    209  36.7  18.9  33984  286.59 0855.44
2009/04/23 07:30:57.7     149    168     39    225    229  41.7   9.9  33986  286.62 0855.44
2009/04/23 07:30:57.8     150    172     53    229    236  41.2  13.2  33986  286.63 0855.44
2009/04/23 07:30:57.9     133    173     49    219    225  37.4  12.6  33986  286.62 0855.44
2009/04/23 07:30:58.0     145    174     27    227    229  39.9   6.9  33986  286.64 0855.44
2009/04/23 07:30:58.1     121    185     27    222    224  33.2   7.1  33980  286.54 0855.44
2009/04/23 07:30:58.2     105    164     44    195    201  32.6  12.9  33982  286.57 0855.44
2009/04/23 07:30:58.3      90    164     44    188    194  28.7  13.2  33982  286.57 0855.44
2009/04/23 07:30:58.4      63    178     26    190    192  19.6   7.8  33980  286.54 0855.44
2009/04/23 07:30:58.5       1    155     41    156    162   0.5  15.0  33980  286.52 0855.44
2009/04/23 07:30:58.6     -21    127     44    129    137 350.2  18.9  33982  286.56 0855.44
2009/04/23 07:30:58.7     -27    102     55    106    119 344.9  29.3  33980  286.54 0855.44
2009/04/23 07:30:58.8      46    104     29    114    118  24.1  14.7  33980  286.52 0855.44
2009/04/23 07:30:58.9      33    119     75    124    144  15.6  34.4  33980  286.54 0855.44
2009/04/23 07:30:59.0      69    110     24    130    133  32.1  10.6  33980  286.54 0855.44
2009/04/23 07:30:59.1      55     95     24    111    114  30.3  12.6  33980  286.52 0855.44
2009/04/23 07:30:59.2      52     82     29     98    103  32.5  16.8  33976  286.47 0855.44
2009/04/23 07:30:59.3      51     92     17    106    108  29.0   9.5  33980  286.52 0855.44
2009/04/23 07:30:59.4      48     78     17     92     94  31.6  11.0  33978  286.51 0855.44
2009/04/23 07:30:59.5      60     78     16     99    101  37.8   9.5  33980  286.54 0855.44
2009/04/23 07:30:59.6      35     80      0     88     89  24.1  -0.3  33980  286.52 0855.44
2009/04/23 07:30:59.7      16     62     22     65     69  14.3  19.2  33978  286.51 0855.44
2009/04/23 07:30:59.8      -5     74      3     75     76 355.6   2.9  33978  286.51 0855.44
2009/04/23 07:30:59.9     -12     59     16     61     64 348.4  15.3  33976  286.47 0855.44
2009/04/23 07:31:00.0       5     69     13     70     72   4.5  11.0  33976  286.46 0855.44
2009/04/23 07:31:00.1      20     82     -3     85     86  14.3  -2.2  33978  286.51 0855.44
2009/04/23 07:31:00.2      24     93     -3     97     98  14.7  -2.2  33976  286.46 0855.44
2009/04/23 07:31:00.3      40     87     -3     96     97  24.9  -2.2  33978  286.51 0855.44
2009/04/23 07:31:00.4       1    103    -15    104    106   0.9  -8.2  33978  286.49 0855.44
2009/04/23 07:31:00.5       6     74     -1     75     76   5.3  -1.3  33976  286.47 0855.44
2009/04/23 07:31:00.6      39     47      3     62     63  39.7   2.9  33976  286.47 0855.44
2009/04/23 07:31:00.7      66     66      5     94     95  45.0   3.3  33980  286.54 0855.44
2009/04/23 07:31:00.8      47     76      2     90     91  31.6   1.8  33980  286.52 0855.44
2009/04/23 07:31:00.9      58     37     -3     69     70  57.5  -3.2  33980  286.54 0855.45
2009/04/23 07:31:01.0       3     64     -5     65     66   2.7  -5.2  33978  286.51 0855.45
2009/04/23 07:31:01.1      -1     68    -23     69     72 359.0 -23.6  33978  286.51 0855.45
2009/04/23 07:31:01.2      -4     65    -14     66     68 356.4 -12.4  33978  286.49 0855.45
2009/04/23 07:31:01.3       6     81    -19     82     85   4.4 -13.4  33978  286.49 0855.45
2009/04/23 07:31:01.4      -8     90      1     91     92 354.7   0.8  33972  286.41 0855.45
2009/04/23 07:31:01.5      10     76     15     77     79   8.0  11.6  33976  286.46 0855.45
2009/04/23 07:31:01.6      38     83      0     92     93  24.5   0.2  33976  286.46 0855.45
2009/04/23 07:31:01.7      16     94      4     96     97   9.8   2.9  33976  286.46 0855.45
2009/04/23 07:31:01.8      33     84     29     91     96  21.4  17.9  33974  286.42 0855.45
2009/04/23 07:31:01.9      60     83     73    103    126  36.1  39.1  33970  286.37 0855.45
2009/04/23 07:31:02.0      27    101     66    105    124  15.2  35.5  33970  286.37 0855.45
2009/04/23 07:31:02.1       7     92     35     93     99   4.9  21.5  33972  286.41 0855.45
2009/04/23 07:31:02.2       5     92     38     93    100   3.6  23.1  33974  286.42 0855.45
2009/04/23 07:31:02.3       7    104     34    105    111   4.0  17.9  33974  286.42 0855.45
2009/04/23 07:31:02.4      -2     91    -13     92     93 358.2  -8.2  33974  286.42 0855.45
2009/04/23 07:31:02.5     -32     67      3     75     76 334.5   2.9  33974  286.42 0855.45
2009/04/23 07:31:02.6     -53     62    -26     82     87 319.5 -17.6  33974  286.42 0855.45
2009/04/23 07:31:02.7     -64     40    -13     76     78 302.4 -10.3  33974  286.42 0855.45
2009/04/23 07:31:02.8     -63     45     -3     78     79 306.0  -2.6  33972  286.41 0855.45
2009/04/23 07:31:02.9     -43     35    -20     56     60 309.5 -19.7  33974  286.42 0855.44
2009/04/23 07:31:03.0     -27     45     -2     53     54 328.4  -2.2  33970  286.35 0855.44
2009/04/23 07:31:03.1     -24     51    -11     57     59 334.7 -11.3  33970  286.35 0855.44
2009/04/23 07:31:03.2     -36     71     -4     80     81 332.8  -3.1  33968  286.32 0855.44
2009/04/23 07:31:03.3     -35     94     14    101    103 339.5   8.0  33960  286.19 0855.44
2009/04/23 07:31:03.4     -31     95      5    101    102 341.7   2.9  33964  286.25 0855.44
2009/04/23 07:31:03.5     -24     95      1     99    100 345.7   0.8  33966  286.29 0855.44
2009/04/23 07:31:03.6     -16     86     -2     88     89 348.9  -1.8  33968  286.34 0855.44
2009/04/23 07:31:03.7     -16     86     -2     88     89 348.9  -1.8  33968  286.34 0855.44
2009/04/23 07:31:03.8     -21     64    -15     68     70 341.7 -12.4  33966  286.30 0855.44
2009/04/23 07:31:03.9      -2     70    -29     71     76 358.2 -27.4  33970  286.37 0855.44
2009/04/23 07:31:04.0       4     67    -35     68     76   3.6 -33.7  33972  286.39 0855.44
2009/04/23 07:31:04.1      -4     73    -23     74     78 356.4 -17.6  33970  286.35 0855.44
2009/04/23 07:31:04.2      -7     71    -34     72     79 353.8 -31.6  33972  286.39 0855.44
2009/04/23 07:31:04.3      -9     65    -41     66     77 352.0 -39.9  33974  286.42 0855.44
2009/04/23 07:31:04.4      -8     59    -51     60     78 352.0 -49.8  33974  286.44 0855.44
2009/04/23 07:31:04.5      -6     83    -42     84     93 355.5 -33.1  33974  286.42 0855.44
2009/04/23 07:31:04.6      17     74    -43     77     88  13.4 -35.8  33974  286.44 0855.44
2009/04/23 07:31:04.7      24     54    -84     60    103  23.6 -65.5  33976  286.46 0855.44
2009/04/23 07:31:04.8      10     74    -21     75     79   8.0 -16.0  33972  286.41 0855.44
2009/04/23 07:31:04.9      41     82     -8     92     93  26.7  -5.2  33976  286.46 0855.44
2009/04/23 07:31:05.0      63     78     27    101    105  38.7  15.3  33978  286.51 0855.44
2009/04/23 07:31:05.1      85     54     23    101    104  57.6  13.2  33976  286.47 0855.44
2009/04/23 07:31:05.2      83     57     40    102    109  55.4  22.5  33978  286.49 0855.44
2009/04/23 07:31:05.3      52     55     47     76     89  43.3  35.0  33978  286.49 0855.44
2009/04/23 07:31:05.4      50     50     33     72     79  45.0  25.7  33980  286.52 0855.44
2009/04/23 07:31:05.5      92     50      0    105    106  61.2   0.2  33980  286.52 0855.44
2009/04/23 07:31:05.6     124     79      2    148    149  57.6   0.8  33980  286.52 0855.44
2009/04/23 07:31:05.7     148     90      4    174    175  58.7   1.6  33978  286.51 0855.44
2009/04/23 07:31:05.8     143    130     27    194    196  47.6   8.0  33980  286.52 0855.44
2009/04/23 07:31:05.9     139     98    -11    171    172  54.7  -3.9  33978  286.51 0855.44
2009/04/23 07:31:06.0     160    109    -18    194    195  55.8  -5.6  33976  286.47 0855.44
2009/04/23 07:31:06.1     181    105     46    210    216  59.8  12.4  33978  286.51 0855.44
2009/04/23 07:31:06.2     145    117     48    187    194  50.9  14.5  33982  286.56 0855.44
2009/04/23 07:31:06.3     151    119     74    193    206  51.8  22.0  33984  286.59 0855.44
2009/04/23 07:31:06.4     137    128     86    188    206  46.9  26.4  33982  286.57 0855.44
2009/04/23 07:31:06.5     152    126     59    198    207  50.4  16.8  33980  286.52 0855.44
2009/04/23 07:31:06.6     144    119     60    188    198  50.4  17.7  33978  286.51 0855.44
2009/04/23 07:31:06.7     160    116     68    198    210  54.0  18.9  33980  286.52 0855.44
2009/04/23 07:31:06.8      46    267    -35    272    275   9.8  -7.3  34040  287.53 0855.44
2009/04/23 07:31:06.9     160    101     46    190    196  57.6  13.7  33978  286.51 0855.44
2009/04/23 07:31:07.0     150    126     59    196    205  50.0  16.8  33976  286.47 0855.44
2009/04/23 07:31:07.1     128    136     78    187    202  43.2  23.8  33978  286.51 0855.44
2009/04/23 07:31:07.2     114    148     54    188    196  37.6  16.3  33978  286.51 0855.44
2009/04/23 07:31:07.3     143    144     55    204    212  44.8  15.3  33978  286.49 0855.44
2009/04/23 07:31:07.4     121    121     62    172    182  45.0  20.4  33982  286.56 0855.44
2009/04/23 07:31:07.5      65    116     84    134    158  29.4  35.2  33978  286.49 0855.44
2009/04/23 07:31:07.6      12    155    112    156    192   4.5  39.3  33978  286.51 0855.44
2009/04/23 07:31:07.7      36    176     53    180    188  11.6  16.6  33980  286.52 0855.44
2009/04/23 07:31:07.8      32    157     59    161    171  11.6  21.0  33978  286.51 0855.44
2009/04/23 07:31:07.9      22    139     48    141    150   9.3  18.9  33978  286.51 0855.44
2009/04/23 07:31:08.0      50    123     21    134    136  22.3   9.0  33978  286.51 0855.44
2009/04/23 07:31:08.1      39    116      5    123    124  18.7   2.3  33978  286.49 0855.44
2009/04/23 07:31:08.2      52    139     -3    149    150  20.5  -1.2  33978  286.49 0855.44
2009/04/23 07:31:08.3      68    107     10    127    128  32.5   4.9  33976  286.47 0855.44
2009/04/23 07:31:08.4      77    114    -21    138    140  34.3  -8.8  33978  286.51 0855.44
2009/04/23 07:31:08.5      81     97    -41    127    134  39.6 -18.1  33978  286.49 0855.44
2009/04/23 07:31:08.6      99     93    -46    136    143  46.8 -23.3  33976  286.47 0855.44
2009/04/23 07:31:08.7      97     76    -47    124    132  52.2 -25.4  33978  286.49 0855.44
2009/04/23 07:31:08.8      76     84    -18    114    116  41.9  -9.3  33978  286.49 0855.44
2009/04/23 07:31:08.9      88     66      0    111    112  53.1   0.2  33980  286.54 0855.44
2009/04/23 07:31:09.0      84     71    -14    111    112  49.6  -7.2  33978  286.49 0855.44
2009/04/23 07:31:09.1      93     91     -5    131    132  45.6  -2.2  33980  286.54 0855.44
2009/04/23 07:31:09.2      90     74    -20    117    119  50.4  -9.8  33980  286.52 0855.44
2009/04/23 07:31:09.3      91     75    -42    119    127  50.5 -19.7  33978  286.49 0855.44
2009/04/23 07:31:09.4      86     64    -30    108    112  53.1 -20.2  33978  286.49 0855.44
2009/04/23 07:31:09.5      67    121     -5    139    140  29.0  -2.2  33978  286.49 0855.44
2009/04/23 07:31:09.6      58    112     44    127    135  27.2  19.4  33978  286.51 0855.44
2009/04/23 07:31:09.7      37    107     51    114    124  19.2  25.2  33978  286.51 0855.44
2009/04/23 07:31:09.8     102     97     81    142    163  46.4  32.4  33976  286.46 0855.44
2009/04/23 07:31:09.9      87     73     76    114    137  50.0  37.0  33974  286.44 0855.45
2009/04/23 07:31:10.0      82     89     45    122    130  42.8  20.9  33974  286.44 0855.45
2009/04/23 07:31:10.1      80     66     31    104    109  50.4  16.8  33976  286.46 0855.45
2009/04/23 07:31:10.2      85     78     22    116    119  47.3  11.0  33976  286.47 0855.45
2009/04/23 07:31:10.3      86     72     39    113    120  50.0  19.4  33974  286.42 0855.45
2009/04/23 07:31:10.4      61     68     35     92     98  42.3  22.0  33972  286.41 0855.45
2009/04/23 07:31:10.5      49     46     24     68     73  46.9  19.4  33972  286.41 0855.45
2009/04/23 07:31:10.6      51     42     26     67     71  50.5  22.0  33972  286.41 0855.45
2009/04/23 07:31:10.7      63     55     36     84     91  48.7  24.6  33974  286.42 0855.45
2009/04/23 07:31:10.8      64     64     69     91    114  45.0  41.2  33974  286.42 0855.45
2009/04/23 07:31:10.9      49     66     74     83    111  36.5  46.4  33974  286.42 0855.45
2009/04/23 07:31:11.1      26     64     65     70     95  21.9  47.9  33972  286.41 0855.45
2009/04/23 07:31:11.2      52     59     71     79    106  41.4  47.5  33974  286.44 0855.45
2009/04/23 07:31:11.3      71     98     76    122    143  36.1  35.5  33974  286.42 0855.45
2009/04/23 07:31:11.4      70    110     81    131    154  32.5  35.5  33976  286.47 0855.45
2009/04/23 07:31:11.4      65    118     83    135    158  29.0  34.4  33976  286.46 0855.45
2009/04/23 07:31:11.6      46    129     26    138    141  19.6  11.0  33978  286.49 0855.45
2009/04/23 07:31:11.7      57    142      7    154    155  21.8   2.9  33978  286.49 0855.45
2009/04/23 07:31:11.8      56    141      7    152    153  21.8   2.9  33978  286.49 0855.45
2009/04/23 07:31:11.9      23    138     18    141    143   9.8   7.5  33978  286.51 0855.45
2009/04/23 07:31:12.1      71    129     61    148    160  29.0  23.6  33976  286.47 0855.44
2009/04/23 07:31:12.2     110    130     33    171    175  40.1  11.1  33982  286.56 0855.44
2009/04/23 07:31:12.3     111    134     75    175    190  39.6  24.6  33978  286.51 0855.44
2009/04/23 07:31:12.4     112    129     58    171    181  41.0  18.9  33980  286.54 0855.44
2009/04/23 07:31:12.5     114    130     61    174    185  41.2  19.4  33984  286.59 0855.44
2009/04/23 07:31:12.6     122    123     49    174    181  44.9  15.8  33982  286.56 0855.44
2009/04/23 07:31:12.7     117    135     24    179    181  41.0   7.8  33982  286.57 0855.44
2009/04/23 07:31:12.8      82    156     59    177    187  27.6  18.6  33984  286.59 0855.44
2009/04/23 07:31:12.9      71    137     30    155    159  27.6  11.1  33982  286.57 0855.44
2009/04/23 07:31:13.0      53    122     26    134    137  23.6  11.0  33982  286.57 0855.44
2009/04/23 07:31:13.1      65    121     19    138    140  28.1   8.0  33982  286.56 0855.44
2009/04/23 07:31:13.2      56    122     26    135    138  24.9  11.0  33982  286.56 0855.44
2009/04/23 07:31:13.3      62    150     47    163    170  22.7  16.3  33982  286.56 0855.44
2009/04/23 07:31:13.4      68    143     37    159    164  25.5  13.2  33980  286.52 0855.44
2009/04/23 07:31:13.5      31    155     58    159    169  11.5  20.7  33978  286.49 0855.44
2009/04/23 07:31:13.6      10    182     70    183    195   3.4  22.0  33976  286.46 0855.44
2009/04/23 07:31:13.7      39    146     85    152    174  15.2  31.9  33976  286.47 0855.44
2009/04/23 07:31:13.8      26    145     93    148    174  10.2  35.5  33970  286.35 0855.44
2009/04/23 07:31:13.9      44    130    102    138    171  18.7  40.4  33976  286.46 0855.44
2009/04/23 07:31:14.0      87    109     43    140    147  38.7  17.3  33980  286.54 0855.45
2009/04/23 07:31:14.1      93    146     27    174    177  32.5   8.8  33984  286.59 0855.45
2009/04/23 07:31:14.2      64    146     17    160    161  23.7   6.1  33978  286.51 0855.45
2009/04/23 07:31:14.3      40    151     81    157    176  15.1  29.3  33978  286.51 0855.45
2009/04/23 07:31:14.4      42    171     52    177    185  14.0  16.6  33978  286.51 0855.45
2009/04/23 07:31:14.5      34    157     65    161    173  12.5  23.0  33978  286.51 0855.45
2009/04/23 07:31:14.6      19    154     60    156    167   7.1  22.0  33976  286.47 0855.45
2009/04/23 07:31:14.7      25    168     58    170    180   8.7  18.9  33976  286.47 0855.45
2009/04/23 07:31:14.8       1    147     49    148    157   0.5  18.4  33976  286.46 0855.45
2009/04/23 07:31:14.9      36    121     74    127    146  16.5  33.4  33972  286.39 0855.45
2009/04/23 07:31:15.0      34    141     67    146    160  13.8  26.2  33980  286.54 0855.45
2009/04/23 07:31:15.1     113     72     31    135    139  57.5  13.2  33982  286.57 0855.45
2009/04/23 07:31:15.2     110    123     47    166    173  41.7  15.8  33974  286.42 0855.45
2009/04/23 07:31:15.3      90    170     67    193    205  27.9  19.2  33976  286.46 0855.45
2009/04/23 07:31:15.4     124    126     61    178    189  44.5  18.9  33974  286.44 0855.45
2009/04/23 07:31:15.5     128    112     63    171    182  48.9  21.0  33974  286.42 0855.45
2009/04/23 07:31:15.6     112    135     83    176    194  39.9  27.1  33976  286.47 0855.45
2009/04/23 07:31:15.7     117    124     90    171    193  43.2  30.1  33974  286.44 0855.45
2009/04/23 07:31:15.8     149    140     72    205    218  46.9  19.4  33976  286.47 0855.45
2009/04/23 07:31:15.9     134    122     -3    182    183  47.6  -1.1  33984  286.59 0855.45
2009/04/23 07:31:16.0     128    116     24    174    176  47.8   8.0  33980  286.52 0855.44
2009/04/23 07:31:16.1     145    142     56    204    212  45.6  15.6  33980  286.52 0855.44
2009/04/23 07:31:16.2     151    146     63    211    221  46.0  16.6  33980  286.52 0855.44
2009/04/23 07:31:16.3     143    146     53    205    212  44.5  14.7  33978  286.51 0855.44
2009/04/23 07:31:16.4     128    136     65    187    197  43.3  20.0  33978  286.51 0855.44
2009/04/23 07:31:16.5      96    128     36    161    166  37.0  12.6  33980  286.52 0855.44
2009/04/23 07:31:16.6      77     93     46    121    129  39.6  21.0  33978  286.51 0855.44
2009/04/23 07:31:16.7     151    112     36    189    193  53.4  11.0  33976  286.47 0855.44
2009/04/23 07:31:16.8     156    129     61    203    213  50.4  16.8  33978  286.51 0855.44
2009/04/23 07:31:16.9     160    122     28    202    205  52.5   8.0  33980  286.52 0855.44
2009/04/23 07:31:17.0     155    138     70    208    220  48.2  18.6  33980  286.52 0855.44
2009/04/23 07:31:17.1      79    109     72    135    153  36.0  30.8  33980  286.52 0855.44
2009/04/23 07:31:17.2      61    125     59    140    151  25.9  24.1  33980  286.52 0855.44
2009/04/23 07:31:17.3      61    140     66    153    166  23.7  24.9  33982  286.56 0855.44
2009/04/23 07:31:17.4      59    147     55    159    169  21.8  19.2  33978  286.51 0855.44
2009/04/23 07:31:17.5      66    111     62    130    144  30.7  27.3  33978  286.51 0855.44
2009/04/23 07:31:17.6      83    112     53    140    149  36.5  21.0  33978  286.51 0855.44
2009/04/23 07:31:17.7      30    129     27    133    136  13.4  11.6  33982  286.56 0855.44
2009/04/23 07:31:17.8      46     97     22    108    111  25.5  11.6  33980  286.54 0855.44
2009/04/23 07:31:17.9      50     90     20    104    107  29.0  11.1  33980  286.52 0855.44
2009/04/23 07:31:18.0      61     84     32    104    109  36.1  17.3  33980  286.54 0855.44
2009/04/23 07:31:18.1     102     74    -11    127    128  54.1  -5.2  33980  286.52 0855.44
2009/04/23 07:31:18.2     112     76    -17    136    138  55.8  -7.3  33980  286.54 0855.44
2009/04/23 07:31:18.3     107     68    -21    128    130  57.5  -9.3  33980  286.54 0855.44
2009/04/23 07:31:18.4     116     84      2    144    145  54.1   0.8  33980  286.52 0855.44
2009/04/23 07:31:18.5     131     77     -4    153    154  59.4  -1.8  33978  286.49 0855.44
2009/04/23 07:31:18.6     138     83      2    162    163  58.9   0.8  33978  286.51 0855.44
2009/04/23 07:31:18.7     102     84     -5    133    134  50.5  -2.2  33978  286.51 0855.44
2009/04/23 07:31:18.8      89     67    -10    112    113  52.7  -5.6  33980  286.52 0855.44
2009/04/23 07:31:18.9      84     85      8    120    121  44.5   3.8  33980  286.52 0855.44
2009/04/23 07:31:19.0      75     75      3    107    108  45.1   1.8  33980  286.52 0855.44
2009/04/23 07:31:19.1      83     57     -3    102    103  55.4  -1.8  33980  286.54 0855.44
2009/04/23 07:31:19.2      93     76      6    121    122  50.9   2.9  33980  286.54 0855.44
2009/04/23 07:31:19.3      81     84     -6    117    118  44.1  -3.1  33980  286.52 0855.44
2009/04/23 07:31:19.4      84     87     53    122    133  44.1  25.1  33982  286.56 0855.44
2009/04/23 07:31:19.5      93     83     57    126    138  48.2  25.7  33980  286.54 0855.44
2009/04/23 07:31:19.6      96     81     53    126    136  50.0  24.1  33982  286.56 0855.44
2009/04/23 07:31:19.7      69    103     52    124    134  33.8  24.1  33978  286.51 0855.44
2009/04/23 07:31:19.8      76    111     72    135    153  34.3  30.8  33980  286.52 0855.44
2009/04/23 07:31:19.9      84    115     54    143    152  36.1  21.0  33980  286.52 0855.44
2009/04/23 07:31:20.0      76    110     73    134    152  34.7  31.3  33980  286.54 0855.45
2009/04/23 07:31:20.1      79    117     77    142    161  34.3  30.8  33980  286.54 0855.45
2009/04/23 07:31:20.2      85    124     68    151    165  34.7  25.7  33980  286.54 0855.45
2009/04/23 07:31:20.3      77    123     73    146    163  32.1  28.7  33980  286.54 0855.45
2009/04/23 07:31:20.4      75    114     72    137    154  33.4  29.8  33980  286.52 0855.45
2009/04/23 07:31:20.5      70    111     74    132    151  32.1  31.4  33978  286.49 0855.45
2009/04/23 07:31:20.6      73    115     69    137    153  32.5  28.7  33980  286.54 0855.45
2009/04/23 07:31:20.7      54    111     74    124    144  25.9  34.0  33980  286.54 0855.45
2009/04/23 07:31:20.8      49    104     62    116    131  25.5  30.3  33978  286.51 0855.45
2009/04/23 07:31:20.9      60    103     57    120    132  30.3  27.1  33978  286.51 0855.45
2009/04/23 07:31:21.0      52    116     64    128    143  24.1  28.7  33980  286.54 0855.45
2009/04/23 07:31:21.1      23    117     78    120    143  11.5  35.6  33980  286.52 0855.45
2009/04/23 07:31:21.2       6    113     66    114    131   3.1  32.9  33978  286.51 0855.45
2009/04/23 07:31:21.3      -9    115     57    116    129 355.5  27.8  33980  286.52 0855.45
2009/04/23 07:31:21.4       9    108     56    109    122   4.9  29.3  33978  286.49 0855.45
2009/04/23 07:31:21.5      -8    107     13    108    109 355.5   7.1  33980  286.54 0855.45
2009/04/23 07:31:21.6     -34     84      1     91     92 337.7   1.2  33982  286.56 0855.45
2009/04/23 07:31:21.7     -22    126     23    129    132 360.0  10.1  33978  286.49 0855.45
2009/04/23 07:31:21.8      23    118     48    121    130  11.1  22.5  33978  286.49 0855.45
2009/04/23 07:31:21.9      50    125     42    135    142  21.8  17.3  33982  286.57 0855.45
2009/04/23 07:31:22.0      42    118     10    126    127  20.0   4.9  33980  286.52 0855.44
2009/04/23 07:31:22.1      61    115      1    131    132  28.1   0.8  33980  286.54 0855.44
2009/04/23 07:31:22.2      92    111     -4    145    146  39.7  -1.8  33980  286.54 0855.44
2009/04/23 07:31:22.3      89     72     -2    115    116  50.9  -1.3  33978  286.49 0855.44
2009/04/23 07:31:22.4      65     64      4     92     93  45.1   2.8  33978  286.51 0855.44
2009/04/23 07:31:22.5      63     63      4     90     91  45.0   2.9  33978  286.51 0855.44
2009/04/23 07:31:22.6      30     55     44     63     76  29.0  37.6  33976  286.46 0855.44
2009/04/23 07:31:22.7      28     35      0     45     46  38.7   0.8  33976  286.47 0855.44
2009/04/23 07:31:22.8      38     26    -29     47     55  55.8 -39.9  33980  286.54 0855.44
2009/04/23 07:31:22.9      33      2    -20     34     39  85.6 -37.9  33980  286.54 0855.44
2009/04/23 07:31:23.0      42     17    -24     46     51  67.4 -33.7  33980  286.52 0855.44
2009/04/23 07:31:23.1      57     11    -25     59     64  78.6 -27.5  33980  286.54 0855.44
2009/04/23 07:31:23.2      40      6    -13     41     43  81.2 -23.8  33978  286.51 0855.44
2009/04/23 07:31:23.3      45      6    -16     46     48  82.1 -23.3  33976  286.47 0855.44
2009/04/23 07:31:23.4      45     -6    -22     46     51  97.9 -31.6  33982  286.56 0855.44
2009/04/23 07:31:23.5      36     -2    -10     37     39  94.4 -15.5  33978  286.51 0855.44
2009/04/23 07:31:23.6      20      0      0     21     22  87.4  -2.2  33978  286.49 0855.44
2009/04/23 07:31:23.7      40     -8    -13     41     43 101.5 -23.8  33978  286.51 0855.44
2009/04/23 07:31:23.8      36     -7    -24     37     44 101.4 -40.9  33976  286.47 0855.44
2009/04/23 07:31:23.9      35    -27    -40     45     60 127.8 -51.3  33978  286.51 0855.44
2009/04/23 07:31:24.0      41    -43    -57     60     82 136.6 -53.4  33976  286.46 0855.44
2009/04/23 07:31:24.1      30    -49    -57     58     81 148.4 -54.4  33978  286.49 0855.44
2009/04/23 07:31:24.2      45    -42    -43     62     75 133.1 -42.0  33978  286.51 0855.44
2009/04/23 07:31:24.3      41    -40    -40     58     70 134.9 -43.0  33978  286.51 0855.44
2009/04/23 07:31:24.4      40    -40    -53     57     77 134.9 -52.4  33978  286.51 0855.44
2009/04/23 07:31:24.5      48    -48    -61     68     91 135.0 -50.8  33978  286.51 0855.44
2009/04/23 07:31:24.6      66    -48    -45     82     93 126.0 -35.2  33978  286.51 0855.44
2009/04/23 07:31:24.7      77    -53    -53     94    107 124.6 -35.8  33976  286.47 0855.44
2009/04/23 07:31:24.8      71    -57    -56     92    107 128.6 -39.4  33978  286.49 0855.44
2009/04/23 07:31:24.9      23    -35    -67     43     79 146.6 -68.5  33978  286.49 0855.44
2009/04/23 07:31:25.0     -23    -32    -41     40     57 216.1 -53.5  33976  286.46 0855.44
2009/04/23 07:31:25.1     -44    -17    -69     48     84 248.3 -66.5  33980  286.52 0855.44
2009/04/23 07:31:25.2     -22    -22    -62     32     69 225.0 -75.2  33978  286.51 0855.44
2009/04/23 07:31:25.3       2    -25    -49     26     55 175.5 -74.2  33980  286.52 0855.44
2009/04/23 07:31:25.4      14    -37    -38     40     55 158.2 -54.4  33974  286.42 0855.44
2009/04/23 07:31:25.5      26    -36    -21     45     49 143.9 -31.6  33968  286.34 0855.44
2009/04/23 07:31:25.6      18    -39    -22     44     49 154.6 -31.7  33962  286.24 0855.44
2009/04/23 07:31:25.7      13    -39    -20     42     46 161.5 -31.6  33968  286.32 0855.44
2009/04/23 07:31:25.8      -1    -49    -22     50     54 181.8 -30.6  33966  286.30 0855.44
2009/04/23 07:31:25.9     -12    -69    -15     71     73 189.8 -12.4  33972  286.39 0855.44
2009/04/23 07:31:26.0      17   -101     -5    103    104 170.2  -3.1  33968  286.32 0855.44
2009/04/23 07:31:26.1      26    -95      7     99    100 164.4   4.4  33968  286.34 0855.44
2009/04/23 07:31:26.2       2    -68     23     69     74 178.2  18.9  33974  286.42 0855.44
2009/04/23 07:31:26.3     -25    -45      3     52     53 209.9   3.8  33974  286.42 0855.44
2009/04/23 07:31:26.4     -60    -38    -14     72     74 237.5 -11.3  33974  286.42 0855.44
2009/04/23 07:31:26.5     -66    -29    -14     73     75 246.5 -11.3  33974  286.42 0855.44
2009/04/23 07:31:26.6     -63      0    -40     64     75 270.9 -39.9  33974  286.44 0855.44
2009/04/23 07:31:26.7     -32     21      8     39     40 304.2  12.2  33972  286.41 0855.44
2009/04/23 07:31:26.8     -65     36      3     75     76 298.9   2.9  33974  286.44 0855.44
2009/04/23 07:31:26.9     -91     28      4     96     97 287.3   2.9  33974  286.44 0855.44
2009/04/23 07:31:27.0     -63     45     24     78     82 305.9  17.3  33974  286.44 0855.45
2009/04/23 07:31:27.1     -54     73     22     92     95 323.5  13.7  33974  286.44 0855.45
2009/04/23 07:31:27.2     -45     45     42     65     77 315.0  35.6  33974  286.44 0855.45
2009/04/23 07:31:27.3       3     14     71     15     72  11.6  89.0  33972  286.39 0855.45
2009/04/23 07:31:27.4     -33    -79    102     86    133 202.7  55.8  33972  286.41 0855.45
2009/04/23 07:31:27.5     -62    -98     73    117    137 212.5  35.5  33970  286.37 0855.45
2009/04/23 07:31:27.6     -73   -115     78    137    157 212.5  32.1  33970  286.37 0855.45
2009/04/23 07:31:27.7     -58    -70     81     91    121 219.6  46.4  33966  286.29 0855.45
2009/04/23 07:31:27.8     -51    -82     84     97    128 212.1  45.8  33966  286.30 0855.45
2009/04/23 07:31:27.9    -121   -106     49    162    170 228.7  17.1  33964  286.27 0855.45
2009/04/23 07:31:28.0    -104    -86     37    136    141 230.4  15.3  33964  286.25 0855.45
2009/04/23 07:31:28.1    -149   -164     27    222    224 222.3   7.1  33972  286.39 0855.45
2009/04/23 07:31:28.2    -114   -147    -23    187    189 217.8  -7.2  33980  286.52 0855.45
2009/04/23 07:31:28.3    -116    -96    -49    151    158 230.5 -23.0  33974  286.42 0855.45
2009/04/23 07:31:28.4     -67   -121    -51    139    148 209.0 -25.4  33970  286.37 0855.45
2009/04/23 07:31:28.5    -124    -71    -18    144    146 240.2  -7.3  33968  286.34 0855.45
2009/04/23 07:31:28.6    -147    -56    -34    158    162 249.2 -12.2  33970  286.35 0855.45
2009/04/23 07:31:28.7    -164     -6    -61    165    175 267.6 -25.7  33968  286.34 0855.45
2009/04/23 07:31:28.8    -155     -2     -3    156    157 269.1  -1.1  33968  286.34 0855.45
2009/04/23 07:31:28.9    -178     27    -16    181    182 278.6  -5.4  33966  286.30 0855.45
2009/04/23 07:31:29.0    -152     37    -38    157    162 283.9 -13.9  33970  286.35 0855.46
2009/04/23 07:31:29.1     -98    -33     60    104    120 251.4  32.9  33968  286.32 0855.46
2009/04/23 07:31:29.2     -91     22      2     94     95 283.7   1.8  33972  286.39 0855.46
2009/04/23 07:31:29.3     -69     32     -4     77     78 295.2  -3.2  33970  286.37 0855.46
2009/04/23 07:31:29.4     -88    -11     -9     89     90 262.5  -6.2  33970  286.37 0855.46
2009/04/23 07:31:29.5     -68    -23     22     72     76 250.9  17.3  33970  286.37 0855.46
2009/04/23 07:31:29.6    -103    -40     -2    111    112 248.7  -1.2  33968  286.32 0855.46
2009/04/23 07:31:29.7    -115    -16     12    117    118 262.1   5.9  33968  286.32 0855.46
2009/04/23 07:31:29.8    -110     -8      3    111    112 265.7   1.8  33968  286.32 0855.46
2009/04/23 07:31:29.9     -98    -61     -6    116    117 238.0  -3.1  33966  286.30 0855.46
2009/04/23 07:31:30.0     -43    -67    -12     80     81 212.6  -8.8  33966  286.30 0855.46
2009/04/23 07:31:30.1     -76   -105    -16    130    132 216.1  -7.2  33960  286.19 0855.46
2009/04/23 07:31:30.2     -92   -118    -41    150    156 217.9 -15.5  33960  286.19 0855.46
2009/04/23 07:31:30.3     -93   -102    -41    139    144 222.3 -21.7  33958  286.17 0855.46
2009/04/23 07:31:30.4     -97    -80    -11    126    127 230.5  -5.2  33958  286.17 0855.46
2009/04/23 07:31:30.5     -91    -50    -13    104    105 241.1  -7.3  33958  286.15 0855.46
2009/04/23 07:31:30.6     -56    -52     -9     77     78 226.9  -7.3  33960  286.19 0855.46
2009/04/23 07:31:30.7     -52    -56      0     77     78 223.2  -0.3  33960  286.19 0855.46
2009/04/23 07:31:30.8     -66    -93     -4    115    116 215.2  -2.2  33964  286.25 0855.46
2009/04/23 07:31:30.9     -76    -81    -33    112    116 223.3 -21.7  33962  286.24 0855.46
2009/04/23 07:31:31.0     -72    -66    -19     98    100 227.3 -11.5  33958  286.17 0855.46
2009/04/23 07:31:31.1     -87    -42    -29     97    102 244.2 -17.0  33958  286.17 0855.46
2009/04/23 07:31:31.2     -45    -70    -22     84     87 212.5 -15.0  33962  286.24 0855.46
2009/04/23 07:31:31.3     -46    -72      4     86     87 212.5   2.9  33962  286.22 0855.46
2009/04/23 07:31:31.4     -37    -45     28     59     65 219.7  27.2  33964  286.25 0855.46
2009/04/23 07:31:31.5     -56      0     20     57     61 270.0  19.2  33960  286.20 0855.46
2009/04/23 07:31:31.6    -104    -81     54    132    142 232.2  23.1  33960  286.20 0855.46
2009/04/23 07:31:31.7    -113    -88     28    144    147 232.3  11.1  33956  286.14 0855.46
2009/04/23 07:31:31.8     -93    -79     65    123    139 229.6  30.3  33958  286.17 0855.46
2009/04/23 07:31:31.9     -92    -61     14    111    112 236.3   7.5  33958  286.15 0855.46
2009/04/23 07:31:32.0    -102    -62     32    120    125 238.9  15.2  33956  286.12 0855.46
2009/04/23 07:31:32.1    -112    -32     47    117    126 254.1  23.0  33954  286.10 0855.46
2009/04/23 07:31:32.2    -141     32      9    145    146 282.8   3.8  33958  286.15 0855.46
2009/04/23 07:31:32.3    -131     -5     41    132    139 267.5  17.3  33952  286.05 0855.46
2009/04/23 07:31:32.4     -91     84      3    124    125 312.7   1.8  33956  286.12 0855.46
2009/04/23 07:31:32.5     -72     71    -32    102    108 314.4 -17.6  33958  286.15 0855.46
2009/04/23 07:31:32.6     -39     47    -33     62     70 320.3 -34.7  33958  286.17 0855.46
2009/04/23 07:31:32.7     -40     16    -17     44     47 291.7 -25.4  33958  286.17 0855.46
2009/04/23 07:31:32.8     -25     26     -9     37     39 316.6 -14.5  33956  286.12 0855.46
2009/04/23 07:31:32.9     -83     66     51    107    118 308.6  27.2  33952  286.05 0855.46
2009/04/23 07:31:33.0    -132     53     63    143    156 291.8  25.2  33954  286.08 0855.46
2009/04/23 07:31:33.1    -133     49     66    142    156 290.4  26.6  33956  286.14 0855.46
2009/04/23 07:31:33.2     -97    -32     60    103    119 251.8  32.9  33958  286.15 0855.46
2009/04/23 07:31:33.3     -92     -3     38     93    100 267.9  23.1  33958  286.15 0855.46
2009/04/23 07:31:33.4    -105     12     17    106    108 277.0   9.5  33962  286.22 0855.46
2009/04/23 07:31:33.5    -103      7     29    104    109 274.4  15.8  33958  286.17 0855.46
2009/04/23 07:31:33.6     -89     15     32     91     97 279.7  19.4  33958  286.17 0855.46
2009/04/23 07:31:33.7    -101     40     42    109    116 291.7  21.5  33958  286.17 0855.46
2009/04/23 07:31:33.8    -104     35     33    110    115 288.6  16.8  33960  286.20 0855.46
2009/04/23 07:31:33.9    -106     35     39    112    118 288.6  20.0  33960  286.19 0855.46
2009/04/23 07:31:34.0    -131     10     42    132    139 274.4  17.9  33960  286.20 0855.46
2009/04/23 07:31:34.1    -120     82     -8    146    147 304.2  -3.2  33966  286.29 0855.46
2009/04/23 07:31:34.2    -131     48    -38    140    146 290.4 -15.4  33964  286.27 0855.46
2009/04/23 07:31:34.3    -125      0     24    126    129 270.0  11.0  33964  286.25 0855.46
2009/04/23 07:31:34.4    -109     19     49    111    121 280.1  25.2  33964  286.27 0855.46
2009/04/23 07:31:34.5    -129     42     47    136    145 288.2  19.2  33966  286.30 0855.46
2009/04/23 07:31:34.6     -92     42     49    102    113 294.4  27.2  33970  286.35 0855.46
2009/04/23 07:31:34.7     -94     12    -26     95     99 277.5 -15.5  33968  286.34 0855.46
2009/04/23 07:31:34.8    -111     -2    -32    112    117 268.7 -16.0  33966  286.30 0855.46
2009/04/23 07:31:34.9    -124     40    -49    131    139 288.2 -25.4  33966  286.29 0855.46
2009/04/23 07:31:35.0    -127     57      8    140    141 294.4   3.3  33964  286.27 0855.46
2009/04/23 07:31:35.1    -142    113     37    182    186 308.4  11.6  33966  286.30 0855.46
2009/04/23 07:31:35.2    -152    119     25    194    196 308.0   7.5  33968  286.32 0855.46
2009/04/23 07:31:35.3    -156     30     20    159    161 281.0   7.2  33960  286.20 0855.46
2009/04/23 07:31:35.4     -82    -10     39     83     91 263.0  27.1  33962  286.22 0855.46
2009/04/23 07:31:35.5     -80    -43     60     92    109 241.6  35.6  33964  286.25 0855.46
2009/04/23 07:31:35.6    -118    -22     47    121    129 259.4  22.0  33964  286.25 0855.46
2009/04/23 07:31:35.7    -109      9    -14    110    111 275.2  -7.3  33970  286.35 0855.46
2009/04/23 07:31:35.8    -100     36    -14    107    108 290.0  -7.7  33966  286.30 0855.46
2009/04/23 07:31:35.9    -120     62    -17    136    138 297.5  -7.3  33964  286.25 0855.46
2009/04/23 07:31:36.0    -121     31    -14    126    127 284.6  -6.7  33958  286.15 0855.46
2009/04/23 07:31:36.1    -135     70    -22    153    155 297.5  -8.2  33960  286.20 0855.46
2009/04/23 07:31:36.2    -140     71    -31    158    162 297.1 -11.3  33960  286.19 0855.46
2009/04/23 07:31:36.3    -171     41     -6    176    177 283.5  -2.1  33958  286.15 0855.46
2009/04/23 07:31:36.4    -164    -33     23    168    170 258.3   8.0  33960  286.19 0855.46
2009/04/23 07:31:36.5    -131    -13    -16    132    134 263.9  -7.2  33958  286.15 0855.46
2009/04/23 07:31:36.6    -121     20    -15    123    125 279.6  -7.3  33962  286.22 0855.46
2009/04/23 07:31:36.7    -105     32    -13    110    111 287.3  -7.2  33962  286.24 0855.46
2009/04/23 07:31:36.8     -88     12     34     89     95 278.4  21.0  33962  286.24 0855.46
2009/04/23 07:31:37.0     -98      0     -3     99    100 270.0  -1.8  33962  286.22 0855.46
2009/04/23 07:31:37.1     -94     10      4     95     96 276.1   2.9  33960  286.19 0855.45
2009/04/23 07:31:37.2     -89    -10     17     90     92 263.4  11.1  33966  286.29 0855.45
2009/04/23 07:31:37.2     -79      6    -16     80     82 274.8 -11.9  33962  286.24 0855.45
2009/04/23 07:31:37.4    -102    -14    -33    103    109 262.1 -18.1  33968  286.32 0855.45
2009/04/23 07:31:37.5     -48     23    -28     54     60 295.3 -34.7  33964  286.27 0855.45
2009/04/23 07:31:37.6     -90     40    -17     99    101 294.0  -9.8  33960  286.20 0855.45
2009/04/23 07:31:37.7     -71     56     15     91     93 308.6   9.5  33958  286.15 0855.45
2009/04/23 07:31:37.8     -66     62    -11     91     92 313.1  -7.2  33958  286.17 0855.45
2009/04/23 07:31:37.9     -79     57     -2     98     99 306.0  -1.3  33962  286.22 0855.45
2009/04/23 07:31:38.0     -50     41     -1     66     67 309.5  -1.2  33962  286.22 0855.45
2009/04/23 07:31:38.1     -13     67      3     69     70 348.4   2.8  33966  286.29 0855.45
2009/04/23 07:31:38.2      30     47     24     56     60  32.6  24.1  33966  286.29 0855.45
2009/04/23 07:31:38.3      16     65      4     68     69  14.3   3.8  33966  286.29 0855.45
2009/04/23 07:31:38.4      38     92      0    100    101  22.7  -0.3  33966  286.29 0855.45
2009/04/23 07:31:38.5      85     91      5    125    126  43.2   2.3  33966  286.30 0855.45
2009/04/23 07:31:38.6      67     92      0    114    115  36.1  -0.3  33966  286.29 0855.45
2009/04/23 07:31:38.7      75     68     26    102    106  47.8  14.7  33966  286.29 0855.45
2009/04/23 07:31:38.8      84     75     20    114    116  48.2  10.1  33964  286.27 0855.45
2009/04/23 07:31:38.9      77     63     49    100    111  50.5  27.3  33962  286.24 0855.45
2009/04/23 07:31:39.0      74     79     64    109    126  43.3  33.5  33964  286.27 0855.45
2009/04/23 07:31:39.1      34     72     63     80    101  25.3  42.7  33964  286.25 0855.45
2009/04/23 07:31:39.2      41     55     59     69     90  37.0  44.8  33964  286.27 0855.45
2009/04/23 07:31:39.3      83     44     70     95    118  62.0  40.1  33962  286.24 0855.45
2009/04/23 07:31:39.4      78     45     55     91    106  60.2  34.4  33962  286.22 0855.45
2009/04/23 07:31:39.5      80     66     44    105    113  50.4  23.6  33966  286.30 0855.45
2009/04/23 07:31:39.6      70     76     53    104    116  42.8  28.7  33972  286.39 0855.45
2009/04/23 07:31:39.7      84     75     42    114    121  48.2  21.0  33970  286.37 0855.45
2009/04/23 07:31:39.8     104     78     61    130    143  53.1  27.1  33972  286.39 0855.45
2009/04/23 07:31:39.9     106     57     43    121    128  61.6  20.4  33964  286.27 0855.45
2009/04/23 07:31:40.0      32     68     52     76     92  25.5  37.6  33964  286.27 0855.45
2009/04/23 07:31:40.1      54    100     65    114    131  28.5  32.4  33960  286.20 0855.45
2009/04/23 07:31:40.2      79     87     68    118    136  42.3  33.4  33964  286.27 0855.45
2009/04/23 07:31:40.3      60     79     57    100    115  37.0  32.4  33962  286.24 0855.45
2009/04/23 07:31:40.4      60     64     64     88    108  43.2  39.7  33968  286.32 0855.45
2009/04/23 07:31:40.5       2    102     88    103    135   1.4  44.8  33964  286.27 0855.45
2009/04/23 07:31:40.6      42    116     49    124    133  20.1  22.5  33966  286.30 0855.45
2009/04/23 07:31:40.7      27    108     56    112    125  14.3  28.7  33966  286.30 0855.45
2009/04/23 07:31:40.8       7    101     41    102    109   4.5  23.0  33964  286.27 0855.45
2009/04/23 07:31:40.9      -1    121     39    122    129 359.1  17.9  33962  286.22 0855.45
2009/04/23 07:31:41.0      -5    139     52    140    149 357.8  21.0  33956  286.14 0855.45
2009/04/23 07:31:41.1       4    140     60    141    153   1.8  24.1  33952  286.05 0855.45
2009/04/23 07:31:41.2     -10    150     65    151    164 356.0  24.9  33946  285.97 0855.45
2009/04/23 07:31:41.3     -20    167     82    169    187 353.1  27.3  33954  286.10 0855.45
2009/04/23 07:31:41.4      -2    148     71    149    165 359.1  27.4  33966  286.29 0855.45
2009/04/23 07:31:41.5       9    135     75    136    155   4.0  31.4  33970  286.35 0855.45
2009/04/23 07:31:41.6      38    116     57    123    135  18.5  27.1  33970  286.35 0855.45
2009/04/23 07:31:41.7      31    119     57    124    136  14.7  26.6  33970  286.35 0855.45
2009/04/23 07:31:41.8       9    127     69    128    145   4.4  31.3  33966  286.30 0855.45
2009/04/23 07:31:41.9      -3    127     61    128    141 358.6  27.2  33968  286.34 0855.45
2009/04/23 07:31:42.0      -2    136     54    137    147 359.1  23.0  33968  286.34 0855.45
2009/04/23 07:31:42.1     -12    160     66    161    174 355.5  23.4  33970  286.35 0855.45
2009/04/23 07:31:42.2     -15    145     63    146    159 353.8  24.6  33970  286.37 0855.45
2009/04/23 07:31:42.3      -3    172     63    173    184 359.0  20.7  33970  286.37 0855.45
2009/04/23 07:31:42.4       3    186     72    187    200   1.1  21.7  33972  286.39 0855.45
2009/04/23 07:31:42.5      -1    179     74    180    194 359.5  23.6  33970  286.35 0855.45
2009/04/23 07:31:42.6      15    157     54    158    168   5.8  18.9  33966  286.30 0855.45
2009/04/23 07:31:42.7      30    129     84    133    157  13.4  35.2  33972  286.41 0855.45
2009/04/23 07:31:42.8      11    135     80    136    157   4.9  33.1  33972  286.41 0855.45
2009/04/23 07:31:42.9      10    132     53    133    143   4.4  23.0  33972  286.41 0855.45
2009/04/23 07:31:43.0       8    113     64    114    130   4.5  31.9  33972  286.39 0855.45
2009/04/23 07:31:43.1      22    110     60    113    127  11.6  29.8  33970  286.37 0855.45
2009/04/23 07:31:43.2       2    140     75    141    159   0.9  30.3  33970  286.35 0855.45
2009/04/23 07:31:43.3      40    128     76    135    154  17.4  31.4  33970  286.37 0855.45
2009/04/23 07:31:43.4      60     94     62    112    128  32.5  31.4  33966  286.30 0855.45
2009/04/23 07:31:43.5      66     59     57     89    105  48.2  35.6  33966  286.29 0855.45
2009/04/23 07:31:43.6      72     54     64     91    111  53.1  38.6  33968  286.32 0855.45
2009/04/23 07:31:43.7      43     45     59     63     86  44.1  48.5  33968  286.32 0855.45
2009/04/23 07:31:43.8     106     34     76    112    135  71.8  37.4  33968  286.32 0855.45
2009/04/23 07:31:43.9      90     79     37    120    126  48.7  17.3  33968  286.32 0855.45
2009/04/23 07:31:44.0      92     95     21    133    135  44.1   9.0  33968  286.34 0855.45
2009/04/23 07:31:44.1      91     66      5    113    114  54.0   2.9  33968  286.32 0855.45
2009/04/23 07:31:44.2     115     70     43    135    142  58.5  17.9  33968  286.34 0855.45
2009/04/23 07:31:44.3     167     69    -32    181    184  67.6 -10.1  33968  286.34 0855.45
2009/04/23 07:31:44.4     194     26     23    196    198  82.1   6.9  33964  286.27 0855.45
2009/04/23 07:31:44.5     159     38     36    164    168  76.3  12.4  33964  286.27 0855.45
2009/04/23 07:31:44.6     136     10     50    137    145  85.6  20.4  33962  286.22 0855.45
2009/04/23 07:31:44.7      91     38     62     99    116  67.4  35.5  33962  286.24 0855.45
2009/04/23 07:31:44.8     103     57     85    118    145  61.1  39.5  33960  286.20 0855.45
2009/04/23 07:31:44.9     120     39     69    127    144  71.8  31.3  33958  286.15 0855.45
2009/04/23 07:31:45.0     146     53     88    156    179  70.0  31.9  33960  286.19 0855.45
2009/04/23 07:31:45.1     166     41     99    172    198  76.1  32.7  33958  286.15 0855.45
2009/04/23 07:31:45.2     183     61    150    194    245  71.4  41.7  33962  286.24 0855.45
2009/04/23 07:31:45.3     232     46    135    237    272  78.6  32.4  33958  286.15 0855.45
2009/04/23 07:31:45.4     246     53     97    252    270  77.8  22.0  33966  286.30 0855.45
2009/04/23 07:31:45.5     223     36    105    226    249  80.8  27.0  33966  286.30 0855.45
2009/04/23 07:31:45.6     187      9     91    188    208  87.2  27.4  33960  286.19 0855.45
2009/04/23 07:31:45.7     157     48     91    165    188  72.9  31.4  33964  286.25 0855.45
2009/04/23 07:31:45.8     208     38    112    212    239  79.4  30.2  33966  286.29 0855.45
2009/04/23 07:31:45.9     215     34    105    218    241  80.8  27.4  33964  286.26 0855.45
2009/04/23 07:31:46.0     186     32    109    189    218  80.1  32.7  33960  286.19 0855.45
2009/04/23 07:31:46.1     159     12    105    160    191  85.7  36.0  33956  286.14 0855.46
2009/04/23 07:31:46.2     137    -14     92    138    165  96.1  36.7  33960  286.20 0855.46
2009/04/23 07:31:46.3     106    -14     87    108    138  97.9  43.3  33962  286.24 0855.46
2009/04/23 07:31:46.4     127     17     99    129    162  82.1  41.4  33958  286.15 0855.46
2009/04/23 07:31:46.5     153     51     95    162    187  71.6  33.1  33962  286.22 0855.46
2009/04/23 07:31:46.6     150     63    119    163    201  67.2  39.7  33964  286.25 0855.46
2009/04/23 07:31:46.7     145     47    135    153    204  71.8  45.9  33962  286.22 0855.46
2009/04/23 07:31:46.8     141     46    131    149    198  71.8  45.9  33958  286.15 0855.46
2009/04/23 07:31:46.9     148     57    110    159    193  68.7  37.8  33958  286.15 0855.46
2009/04/23 07:31:47.0     144     63    127    158    202  66.4  43.0  33952  286.05 0855.46
2009/04/23 07:31:47.1     127     50    127    137    186  68.3  47.9  33956  286.14 0855.46
2009/04/23 07:31:47.2     109     48    138    120    182  66.0  54.3  33954  286.08 0855.46
2009/04/23 07:31:47.3      80     29    126     86    152  69.6  62.7  33958  286.17 0855.46
2009/04/23 07:31:47.4     104     17    109    106    152  80.3  50.7  33958  286.15 0855.46
2009/04/23 07:31:47.5     136     17     92    138    165  82.5  36.7  33956  286.12 0855.46
2009/04/23 07:31:47.6      58     23     77     63     99  68.3  56.4  33956  286.12 0855.46
2009/04/23 07:31:47.7      76    -13     80     78    111  99.7  50.1  33958  286.15 0855.46
2009/04/23 07:31:47.8      75      3     73     76    105  87.4  49.4  33958  286.15 0855.46
2009/04/23 07:31:47.9      29     24     73     38     82  50.4  70.8  33958  286.17 0855.46
2009/04/23 07:31:48.0      58    -30     41     66     77 118.0  35.5  33960  286.20 0855.46
2009/04/23 07:31:48.1      65      0     18     66     69  90.0  15.2  33960  286.20 0855.46
2009/04/23 07:31:48.2      90      0     13     91     93  90.4   8.5  33964  286.27 0855.46
2009/04/23 07:31:48.3      92    -30     -1     97     98 108.2  -1.2  33966  286.29 0855.46
2009/04/23 07:31:48.4      75     34     47     83     95  65.2  32.4  33964  286.25 0855.46
2009/04/23 07:31:48.5     119     74     63    141    154  58.0  26.2  33962  286.22 0855.46
2009/04/23 07:31:48.6     152     54     59    162    172  70.5  20.4  33964  286.25 0855.46
2009/04/23 07:31:48.7     174     47     53    181    189  74.9  16.3  33962  286.24 0855.46
2009/04/23 07:31:48.8     149     62     57    162    171  67.2  20.0  33960  286.19 0855.46
2009/04/23 07:31:48.9     124     68     65    142    156  61.1  26.6  33958  286.17 0855.46
2009/04/23 07:31:49.0     120     57     76    133    153  64.6  32.4  33960  286.20 0855.46
2009/04/23 07:31:49.1     121     62     99    137    169  62.9  39.7  33958  286.17 0855.46
2009/04/23 07:31:49.2     141     69     97    158    185  63.8  34.8  33960  286.20 0855.46
2009/04/23 07:31:49.3     127     70     28    146    149  61.2  11.1  33962  286.22 0855.46
2009/04/23 07:31:49.4      66     79     86    104    134  40.1  43.8  33960  286.19 0855.46
2009/04/23 07:31:49.5      71     46     82     85    118  56.7  49.0  33958  286.17 0855.46
2009/04/23 07:31:49.6      63     65     66     91    112  44.1  39.7  33956  286.14 0855.46
2009/04/23 07:31:49.7      83     79     67    115    133  46.4  33.5  33960  286.19 0855.46
2009/04/23 07:31:49.8      70     52     69     88    111  53.6  42.7  33958  286.15 0855.46
2009/04/23 07:31:49.9      50     86     89    100    133  30.3  46.4  33960  286.19 0855.46
2009/04/23 07:31:50.0      64     64     89     91    127  45.0  49.9  33960  286.19 0855.46
2009/04/23 07:31:50.1      82     54     53     99    112  56.3  30.8  33962  286.24 0855.46
2009/04/23 07:31:50.2      62     46     14     78     80  53.1  10.1  33962  286.22 0855.46
2009/04/23 07:31:50.3      23     32      1     40     41  36.1   1.8  33958  286.17 0855.46
2009/04/23 07:31:50.4       3     41     31     42     52   4.5  40.7  33960  286.20 0855.46
2009/04/23 07:31:50.5      22     77     41     81     90  16.0  28.7  33958  286.15 0855.46
2009/04/23 07:31:50.6       8     97     29     98    103   4.9  16.8  33958  286.15 0855.46
2009/04/23 07:31:50.7      48     60     22     77     81  38.7  15.8  33958  286.15 0855.46
2009/04/23 07:31:50.8      62     62     19     88     91  45.1  12.2  33960  286.19 0855.46
2009/04/23 07:31:50.9      81     69     -4    107    108  49.6  -2.2  33962  286.24 0855.46
2009/04/23 07:31:51.0      19     92     -3     95     96  12.0  -2.2  33956  286.14 0855.46
2009/04/23 07:31:51.1       9     73    -13     74     76   7.1 -10.3  33958  286.15 0855.46
2009/04/23 07:31:51.2      25     74    -14     79     81  18.7 -10.3  33958  286.15 0855.46
2009/04/23 07:31:51.3      15     83      5     85     86  10.2   3.8  33956  286.14 0855.46
2009/04/23 07:31:51.4       0     90      1     91     92 359.6   1.2  33958  286.15 0855.46
2009/04/23 07:31:51.5      -7     99      6    100    101 355.5   3.8  33964  286.27 0855.46
2009/04/23 07:31:51.6      -6    105     12    106    107 356.4   6.5  33966  286.29 0855.46
2009/04/23 07:31:51.7      -6     95     11     96     97 356.0   6.9  33966  286.30 0855.46
2009/04/23 07:31:51.8      -6     82    -20     83     86 355.5 -13.9  33964  286.25 0855.46
2009/04/23 07:31:51.9      -5     70    -33     71     78 355.5 -31.0  33964  286.27 0855.46
2009/04/23 07:31:52.0     -12     74    -22     76     79 350.2 -21.2  33964  286.27 0855.46
2009/04/23 07:31:52.1       7     75    -32     76     82   5.3 -28.5  33962  286.24 0855.46
2009/04/23 07:31:52.2       3     50    -49     51     70   4.5 -53.4  33962  286.24 0855.46
2009/04/23 07:31:52.3      16     61    -37     64     73  15.1 -36.8  33960  286.20 0855.46
2009/04/23 07:31:52.4      25     64    -26     69     73  21.9 -24.4  33960  286.19 0855.46
2009/04/23 07:31:52.5      25     40    -29     48     56  31.6 -39.9  33960  286.20 0855.46
2009/04/23 07:31:52.6      26     38    -32     47     56  34.3 -40.9  33958  286.17 0855.46
2009/04/23 07:31:52.7      27     29    -24     40     46  43.4 -38.8  33962  286.22 0855.46
2009/04/23 07:31:52.8      22     47    -19     53     57  25.4 -19.7  33960  286.20 0855.46
2009/04/23 07:31:52.9      27     56    -13     63     65  26.3 -12.4  33962  286.22 0855.46
2009/04/23 07:31:53.0       6     80     12     81     83   4.4   9.0  33956  286.14 0855.46
2009/04/23 07:31:53.1      -2     75     26     76     81 358.2  19.2  33962  286.24 0855.46
2009/04/23 07:31:53.2      -1     78      1     79     80 359.0   0.8  33966  286.30 0855.46
2009/04/23 07:31:53.3      10     68    -11     69     70   8.9  -9.3  33966  286.30 0855.46
2009/04/23 07:31:53.4       0     69    -14     70     72   0.0 -11.3  33966  286.30 0855.46
2009/04/23 07:31:53.5       7     48    -17     49     53   8.9 -19.7  33966  286.29 0855.46
2009/04/23 07:31:53.6      19     43    -26     48     54  23.6 -35.8  33966  286.29 0855.46
2009/04/23 07:31:53.7      27     31    -20     42     46  40.5 -31.6  33964  286.27 0855.46
2009/04/23 07:31:53.8      25     15    -26     30     39  59.3 -50.2  33962  286.24 0855.46
2009/04/23 07:31:53.9      36      0    -24     37     44  90.0 -40.9  33964  286.27 0855.46
2009/04/23 07:31:54.0      50     -7    -14     51     53  97.9 -15.5  33964  286.27 0855.46
2009/04/23 07:31:54.1      43    -16    -12     46     48 110.8 -14.5  33966  286.29 0855.46
2009/04/23 07:31:54.2      48    -15     -6     51     52 108.2  -7.3  33964  286.25 0855.46
2009/04/23 07:31:54.3      50    -23      0     56     57 115.2  -0.3  33964  286.25 0855.46
2009/04/23 07:31:54.4      45    -15      9     48     49 108.4  11.1  33964  286.27 0855.46
2009/04/23 07:31:54.5      55     26     55     61     82  64.7  47.5  33962  286.22 0855.46
2009/04/23 07:31:54.6      63      0     49     64     80  90.0  41.2  33960  286.19 0855.46
2009/04/23 07:31:54.7      53     17     57     56     79  71.8  50.1  33956  286.14 0855.46
2009/04/23 07:31:54.8      44     14     64     47     79  71.4  60.0  33954  286.10 0855.46
2009/04/23 07:31:54.9      49      3     61     50     78  85.6  56.4  33958  286.17 0855.46
2009/04/23 07:31:55.0      59      0     51     60     78  90.0  45.4  33962  286.22 0855.46
2009/04/23 07:31:55.1      55      0     44     56     71  90.0  43.7  33964  286.25 0855.46
2009/04/23 07:31:55.2      50      7     49     51     70  81.2  49.0  33960  286.19 0855.46
2009/04/23 07:31:55.3      45     14     50     48     69  71.8  50.1  33954  286.10 0855.46
2009/04/23 07:31:55.4      45     14     50     48     69  71.8  50.1  33954  286.10 0855.46
2009/04/23 07:31:55.5      45     14     50     48     69  71.8  50.1  33954  286.10 0855.46
2009/04/23 07:31:55.6      40      8     46     41     61  78.5  53.3  33954  286.10 0855.46
2009/04/23 07:31:55.7      35     15     48     39     61  66.5  56.4  33960  286.19 0855.46
2009/04/23 07:31:55.8      19     10     40     22     45  62.9  67.7  33956  286.14 0855.46
2009/04/23 07:31:55.9      12      0     33     13     35  90.0  79.2  33958  286.15 0855.46
2009/04/23 07:31:56.0       3     -8     24      9     25 154.6  81.2  33954  286.10 0855.46
2009/04/23 07:31:56.1     -18     -7     29     20     35 248.3  64.6  33958  286.17 0855.46
2009/04/23 07:31:56.2     -18     -7     29     20     35 248.3  64.6  33958  286.17 0855.46
2009/04/23 07:31:56.3     -21     -3     26     22     34 260.3  54.3  33956  286.14 0855.46
2009/04/23 07:31:56.4     -24      4     28     25     37 279.7  52.2  33956  286.12 0855.46
2009/04/23 07:31:56.5     -27     -9     26     29     38 251.4  47.9  33954  286.08 0855.46
2009/04/23 07:31:56.6     -20     -9     28     23     36 244.7  56.4  33958  286.17 0855.46
2009/04/23 07:31:56.7     -10    -10     15     15     21 225.0  50.1  33958  286.15 0855.46
2009/04/23 07:31:56.8       9      0     23     10     25  89.2  77.1  33960  286.19 0855.46
2009/04/23 07:31:56.9      19     -1     25     20     32  94.4  56.4  33956  286.12 0855.46
2009/04/23 07:31:57.0      20     -3     26     21     33  99.7  56.4  33956  286.14 0855.46
2009/04/23 07:31:57.1      14     -9     27     17     31 122.4  64.7  33960  286.19 0855.46
2009/04/23 07:31:57.2      19     -3     32     20     37 101.5  64.7  33960  286.20 0855.46
2009/04/23 07:31:57.3      23    -15     34     28     44 122.5  55.4  33962  286.24 0855.46
2009/04/23 07:31:57.4      27    -17     26     33     42 122.4  42.7  33966  286.29 0855.46
2009/04/23 07:31:57.5      16    -18     28     25     37 138.6  52.2  33964  286.27 0855.46
2009/04/23 07:31:57.6      -7     -2     38      8     38 251.4  89.0  33964  286.27 0855.46
2009/04/23 07:31:57.7      -4     14     35     15     38 341.5  77.1  33962  286.24 0855.46
2009/04/23 07:31:57.8      -2     27     30     28     41 355.5  51.2  33964  286.25 0855.46
2009/04/23 07:31:57.9     -10     47      9     49     50 347.5  11.1  33964  286.25 0855.46
2009/04/23 07:31:58.0     -16     46     -1     49     50 340.8  -2.2  33964  286.27 0855.46
2009/04/23 07:31:58.1     -10     43     -4     45     46 346.6  -6.2  33964  286.27 0855.46
2009/04/23 07:31:58.2     -15     54    -19     57     60 344.0 -23.6  33964  286.25 0855.46
2009/04/23 07:31:58.3     -18     55    -24     58     62 341.7 -27.5  33960  286.20 0855.46
2009/04/23 07:31:58.4      -6     55    -34     56     65 352.9 -39.9  33964  286.25 0855.46
2009/04/23 07:31:58.5       0     50    -33     51     60   0.0 -40.0  33964  286.27 0855.46
2009/04/23 07:31:58.6       1     20    -37     21     42   4.4 -72.1  33968  286.32 0855.46
2009/04/23 07:31:58.7      23     18     -9     30     32  52.2 -17.6  33966  286.29 0855.46
2009/04/23 07:31:58.8      25     22      4     34     35  48.7   6.9  33968  286.32 0855.46
2009/04/23 07:31:58.9      15     43     28     46     53  20.0  35.5  33964  286.27 0855.46
2009/04/23 07:31:59.0      -2     48     30     49     57 357.3  35.5  33968  286.32 0855.46
2009/04/23 07:31:59.1     -23     73     32     77     83 342.2  23.6  33964  286.25 0855.46
2009/04/23 07:31:59.2     -38     81     52     90    103 334.6  32.9  33954  286.08 0855.46
2009/04/23 07:31:59.3     -37     92     54    100    113 338.2  31.3  33956  286.12 0855.46
2009/04/23 07:31:59.4     -48    113     42    124    132 336.8  18.9  33956  286.14 0855.46
2009/04/23 07:31:59.5     -39    115     32    122    127 341.3  14.7  33956  286.12 0855.46
2009/04/23 07:31:59.6     -41    119     15    127    128 340.8   6.9  33956  286.12 0855.46
2009/04/23 07:31:59.7     -47    124      2    133    134 339.1   1.2  33956  286.12 0855.46
2009/04/23 07:31:59.8     -35    106     10    112    113 341.7   5.4  33956  286.14 0855.46
2009/04/23 07:31:59.9     -39     89      5     98     99 336.4   3.3  33958  286.17 0855.46
2009/04/23 07:32:00.0     -22     79     37     83     90 344.0  26.2  33958  286.15 0855.46
2009/04/23 07:32:00.1     -19     73     28     76     81 344.8  21.0  33958  286.17 0855.47
2009/04/23 07:32:00.2     -36    107     22    113    116 341.3  11.1  33956  286.12 0855.47
2009/04/23 07:32:00.3     -18    130     11    132    133 352.0   4.9  33956  286.12 0855.47
2009/04/23 07:32:00.4       2    116      5    117    118   1.4   2.8  33958  286.15 0855.47
2009/04/23 07:32:00.5      19    113     -2    115    116   9.8  -1.2  33960  286.19 0855.47
2009/04/23 07:32:00.6       5    100      6    101    102   3.1   3.8  33958  286.15 0855.47
2009/04/23 07:32:00.7       0     93     18     94     96   0.0  11.1  33958  286.15 0855.47
2009/04/23 07:32:00.8       4     57     24     58     62   4.4  23.1  33954  286.10 0855.47
2009/04/23 07:32:00.9      -4     45     39     46     60 354.7  43.8  33958  286.15 0855.47
2009/04/23 07:32:01.0      -1     33     41     34     53 357.3  56.3  33960  286.19 0855.47
2009/04/23 07:32:01.1      -4     13     42     14     44 341.5  81.0  33958  286.17 0855.47
2009/04/23 07:32:01.2      -8      8     49     12     50 313.1  88.0  33960  286.19 0855.47
2009/04/23 07:32:01.3     -17     22     41     28     49 322.2  62.6  33958  286.17 0855.47
2009/04/23 07:32:01.4     -22     40     32     46     56 331.0  37.6  33958  286.17 0855.47
2009/04/23 07:32:01.5     -15     33     31     37     48 334.6  45.8  33960  286.19 0855.47
2009/04/23 07:32:01.6     -10     53      8     54     55 349.3   9.0  33958  286.17 0855.47
2009/04/23 07:32:01.7     -15     45     -6     48     49 341.7  -7.2  33960  286.19 0855.47
2009/04/23 07:32:01.8      -3     48     -1     49     50 355.5  -2.2  33958  286.15 0855.47
2009/04/23 07:32:01.9      -9     49     -6     50     51 349.3  -7.2  33956  286.14 0855.47
2009/04/23 07:32:02.0       0     40      5     41     42 359.1   6.9  33958  286.15 0855.47
2009/04/23 07:32:02.1       1     37      6     38     39   2.7   9.0  33958  286.17 0855.47
2009/04/23 07:32:02.2      22     22     15     32     35  45.0  27.2  33964  286.27 0855.47
2009/04/23 07:32:02.3      32     50     32     60     68  32.6  31.3  33968  286.34 0855.47
2009/04/23 07:32:02.4      40     40     40     57     69  45.1  38.6  33970  286.35 0855.47
2009/04/23 07:32:02.5       9     41     29     43     51  12.5  37.6  33968  286.32 0855.47
2009/04/23 07:32:02.6      14     43     29     46     54  18.3  35.5  33968  286.32 0855.47
2009/04/23 07:32:02.7      18     53     17     57     60  18.7  17.3  33966  286.30 0855.47
2009/04/23 07:32:02.8      17     22     17     29     33  37.8  33.5  33962  286.24 0855.47
2009/04/23 07:32:02.9      18     20     18     28     33  41.4  35.6  33964  286.25 0855.47
2009/04/23 07:32:03.0      -1     33     19     34     38 357.4  31.4  33966  286.30 0855.47
2009/04/23 07:32:03.1     -10     33     14     35     37 341.7  21.0  33964  286.25 0855.47
2009/04/23 07:32:03.2     -12     35     11     38     40 341.3  17.3  33958  286.17 0855.47
2009/04/23 07:32:03.4      -7     37      9     38     40 348.4  13.2  33958  286.15 0855.47
2009/04/23 07:32:03.4     -15     31     15     35     38 332.8  23.0  33954  286.10 0855.47
2009/04/23 07:32:03.6      -3     39     15     40     42 355.5  21.0  33954  286.10 0855.47
2009/04/23 07:32:03.7     -12     30     11     33     35 338.2  18.9  33954  286.08 0855.47
2009/04/23 07:32:03.8      -2     32      6     33     34 355.5  11.1  33954  286.08 0855.47
2009/04/23 07:32:03.9      -1     35     17     36     39 357.3  26.2  33956  286.14 0855.47
2009/04/23 07:32:04.0       7     22     28     24     36  18.3  54.3  33954  286.10 0855.47
2009/04/23 07:32:04.1      -4     13     28     14     31 341.5  72.8  33958  286.15 0855.47
2009/04/23 07:32:04.2       2      4     37      5     37  32.5  90.0  33960  286.19 0855.47
2009/04/23 07:32:04.3     -12    -14     40     19     44 221.4  74.0  33962  286.24 0855.47
2009/04/23 07:32:04.4     -39    -42     49     58     75 223.2  43.8  33966  286.30 0855.47
2009/04/23 07:32:04.5       1    -18     62     19     64 175.6  81.8  33966  286.29 0855.47
2009/04/23 07:32:04.6      -7    -22     38     24     44 198.3  64.7  33968  286.32 0855.47
2009/04/23 07:32:04.7     -24    -33     41     42     58 216.1  52.0  33964  286.27 0855.47
2009/04/23 07:32:04.8     -61    -39     38     73     82 237.6  29.3  33962  286.22 0855.47
2009/04/23 07:32:04.9     -36    -42      5     56     57 220.5   5.9  33966  286.29 0855.47
2009/04/23 07:32:05.0      -3    -21     41     22     46 189.8  69.8  33964  286.27 0855.47
2009/04/23 07:32:05.1       5      4     40      7     40  50.5  90.0  33964  286.27 0855.47
2009/04/23 07:32:05.2       4     24     38     25     45   9.8  64.6  33962  286.24 0855.47
2009/04/23 07:32:05.3     -57     45     22     73     77 308.6  17.3  33962  286.24 0855.47
2009/04/23 07:32:05.4     -54     40     27     68     73 306.9  23.0  33962  286.24 0855.47
2009/04/23 07:32:05.5     -45     21     35     50     61 295.4  38.6  33962  286.24 0855.47
2009/04/23 07:32:05.6      -4     17     18     18     25 344.9  50.1  33962  286.24 0855.47
2009/04/23 07:32:05.7      -8     57     20     58     62 351.1  18.9  33962  286.24 0855.47
2009/04/23 07:32:05.8     -35     71     31     80     85 333.7  22.0  33962  286.24 0855.47
2009/04/23 07:32:05.9     -34     59     16     69     71 330.1  13.2  33960  286.19 0855.47
2009/04/23 07:32:06.0     -43     74      6     86     87 329.7   4.4  33962  286.22 0855.47
2009/04/23 07:32:06.1     -36     61      1     72     73 329.3   0.8  33960  286.19 0855.47
2009/04/23 07:32:06.2     -31     -6      0     32     33 258.6  -1.3  33960  286.19 0855.48
2009/04/23 07:32:06.3     -54     55    -17     78     80 315.8 -12.4  33954  286.08 0855.48
2009/04/23 07:32:06.4     -51     80      4     95     96 327.4   2.8  33956  286.12 0855.48
2009/04/23 07:32:06.5     -66     76      5    102    103 319.0   2.8  33958  286.15 0855.48
2009/04/23 07:32:06.6     -61    103     23    120    123 329.2  11.1  33956  286.14 0855.48
2009/04/23 07:32:06.7     -74     68     -2    101    102 312.7  -1.3  33958  286.15 0855.48
2009/04/23 07:32:06.8     -62     49     -5     80     81 308.6  -4.1  33956  286.12 0855.48
2009/04/23 07:32:06.9     -27     67     20     73     76 338.2  15.3  33958  286.17 0855.48
2009/04/23 07:32:07.0     -46     85     41     97    105 331.5  24.1  33958  286.15 0855.48
2009/04/23 07:32:07.1     -52    109     43    121    128 334.5  20.4  33956  286.14 0855.48
2009/04/23 07:32:07.2     -38    126     26    132    135 343.1  11.1  33958  286.17 0855.48
2009/04/23 07:32:07.3     -61    137      7    151    152 335.9   2.9  33956  286.14 0855.48
2009/04/23 07:32:07.4     -48    143     30    152    156 341.3  11.4  33952  286.05 0855.48
2009/04/23 07:32:07.5     -56    137     33    149    153 337.7  12.6  33944  285.93 0855.48
2009/04/23 07:32:07.6     -66    129     19    145    147 332.9   7.5  33948  285.98 0855.48
2009/04/23 07:32:07.7     -56    129     12    141    142 336.3   5.0  33948  286.00 0855.48
2009/04/23 07:32:07.8     -86    117     34    146    150 323.9  13.1  33950  286.03 0855.48
2009/04/23 07:32:07.9     -86    111     38    141    147 322.2  15.2  33954  286.08 0855.48
2009/04/23 07:32:08.0     -89     95     55    131    142 316.8  23.6  33958  286.15 0855.48
2009/04/23 07:32:08.1     -49    124     52    134    143 338.2  22.5  33958  286.17 0855.48
2009/04/23 07:32:08.2     -34    104     70    110    130 341.7  35.5  33964  286.25 0855.48
2009/04/23 07:32:08.3     -50     73     65     89    110 325.3  39.7  33964  286.25 0855.48
2009/04/23 07:32:08.4     -32     77     69     84    108 337.3  43.7  33968  286.32 0855.48
2009/04/23 07:32:08.5      -1     66     58     67     88 359.1  45.4  33962  286.24 0855.48
2009/04/23 07:32:08.6      19     34     46     40     60  29.0  54.3  33964  286.27 0855.48
2009/04/23 07:32:08.7      11     43     44     45     62  14.3  50.0  33966  286.30 0855.48
2009/04/23 07:32:08.8      15     87     61     89    107  10.2  37.6  33964  286.27 0855.48
2009/04/23 07:32:08.9      24    108     31    111    116  12.5  15.8  33964  286.27 0855.48
2009/04/23 07:32:09.0       9    117     55    118    130   4.4  27.1  33964  286.27 0855.48
2009/04/23 07:32:09.1      38     70     49     80     93  28.9  35.0  33962  286.24 0855.48
2009/04/23 07:32:09.2      30     51     41     60     72  30.7  37.6  33962  286.22 0855.48
2009/04/23 07:32:09.3      22     39     41     45     60  29.9  47.9  33964  286.27 0855.48
2009/04/23 07:32:09.4       5     37     47     38     60   8.0  56.4  33962  286.22 0855.48
2009/04/23 07:32:09.5     -12     45     41     47     62 344.0  46.9  33964  286.25 0855.48
2009/04/23 07:32:09.6      -2     45     50     46     67 357.3  52.1  33962  286.24 0855.48
2009/04/23 07:32:09.7      14     37     42     40     58  21.8  49.1  33962  286.22 0855.48
2009/04/23 07:32:09.8      -8    -22     44     24     50 200.0  68.8  33962  286.24 0855.48
2009/04/23 07:32:09.9      16     15     38     22     43  46.9  67.7  33964  286.27 0855.48
2009/04/23 07:32:10.0      20     66      3     70     71  16.9   2.9  33962  286.22 0855.48
2009/04/23 07:32:10.1      36     66    -24     76     80  29.0 -17.6  33964  286.25 0855.48
2009/04/23 07:32:10.2      58     80    -17    100    102  36.1  -9.8  33966  286.29 0855.48
2009/04/23 07:32:10.3      55     66    -10     87     88  39.6  -6.7  33966  286.30 0855.48
2009/04/23 07:32:10.4      97     57     -3    113    114  59.3  -1.8  33964  286.27 0855.48
2009/04/23 07:32:10.5      89     46     -3    101    102  62.9  -1.8  33964  286.27 0855.48
2009/04/23 07:32:10.6     125     25     27    128    131  78.5  12.2  33964  286.27 0855.48
2009/04/23 07:32:10.7      95     32     27    101    105  70.9  15.3  33964  286.25 0855.48
2009/04/23 07:32:10.8     112     28     31    116    121  75.8  15.3  33964  286.27 0855.48
2009/04/23 07:32:10.9      96     61     60    114    128  57.5  29.8  33968  286.32 0855.48
2009/04/23 07:32:11.0     110     44     32    119    124  68.2  15.2  33964  286.25 0855.48
2009/04/23 07:32:11.1      86     54     37    102    108  57.6  20.4  33964  286.27 0855.48
2009/04/23 07:32:11.2      80     62     34    102    108  52.2  18.4  33964  286.27 0855.47
2009/04/23 07:32:11.3      72     64     23     97    100  48.2  13.7  33964  286.27 0855.47
2009/04/23 07:32:11.4      65     65     30     92     97  45.0  18.4  33964  286.27 0855.47
2009/04/23 07:32:11.5      48     51     18     71     74  43.2  14.3  33964  286.25 0855.47
2009/04/23 07:32:11.6      42     55     20     70     73  37.0  16.3  33964  286.27 0855.47
2009/04/23 07:32:11.7      29     60     23     67     71  26.3  19.2  33966  286.29 0855.47
2009/04/23 07:32:11.8      18     72     16     75     77  14.3  12.2  33962  286.24 0855.47
2009/04/23 07:32:11.9      18     79     24     82     86  12.9  16.8  33964  286.27 0855.47
2009/04/23 07:32:12.0      25     72     27     77     82  19.2  19.4  33962  286.24 0855.47
2009/04/23 07:32:12.1      38     83     37     92     99  24.9  23.0  33964  286.25 0855.47
2009/04/23 07:32:12.2      40    103     46    111    120  21.4  23.6  33964  286.27 0855.47
2009/04/23 07:32:12.3      15    103     49    105    115   8.5  27.1  33964  286.27 0855.47
2009/04/23 07:32:12.4      -2     86     49     87     99 358.2  31.9  33962  286.24 0855.47
2009/04/23 07:32:12.5      32     78     44     85     95  22.3  29.3  33962  286.24 0855.47
2009/04/23 07:32:12.6      31     94     49    100    111  18.3  27.3  33960  286.20 0855.47
2009/04/23 07:32:12.7     -24     93     85     97    128 345.3  45.8  33964  286.25 0855.47
2009/04/23 07:32:12.8       8    122     73    123    143   4.0  33.5  33962  286.22 0855.47
2009/04/23 07:32:12.9      32    111     57    116    129  16.5  27.8  33964  286.25 0855.47
2009/04/23 07:32:13.0      37    122     49    128    137  17.0  21.5  33962  286.24 0855.47
2009/04/23 07:32:13.1      24    115     77    118    140  12.0  36.0  33960  286.20 0855.47
2009/04/23 07:32:13.2      21    101     79    104    130  12.0  41.6  33962  286.24 0855.47
2009/04/23 07:32:13.3      29    112     59    116    130  14.7  29.2  33964  286.27 0855.47
2009/04/23 07:32:13.4      21     95     62     98    115  12.9  35.5  33964  286.25 0855.47
2009/04/23 07:32:13.5       5    106     58    107    121   2.7  30.8  33962  286.24 0855.47
2009/04/23 07:32:13.6      -8    112     46    113    122 355.6  23.0  33960  286.20 0855.47
2009/04/23 07:32:13.7      -1    112     42    113    120 359.1  21.0  33962  286.24 0855.47
2009/04/23 07:32:13.8       7    112     48    113    122   4.0  24.1  33962  286.24 0855.47
2009/04/23 07:32:13.9     -13    112     39    113    120 353.3  19.4  33962  286.24 0855.47
2009/04/23 07:32:14.0     -18    110     34    112    118 350.7  16.8  33962  286.24 0855.47
2009/04/23 07:32:14.1      -8    111     45    112    120 355.5  23.0  33964  286.25 0855.47
2009/04/23 07:32:14.2       0     92     32     93     99   0.0  19.4  33968  286.32 0855.47
2009/04/23 07:32:14.3      27     65     44     71     83  22.7  34.4  33964  286.27 0855.47
2009/04/23 07:32:14.4      58     61     36     85     92  43.7  24.1  33964  286.25 0855.47
2009/04/23 07:32:14.5      87     62     50    107    118  54.5  26.6  33960  286.20 0855.47
2009/04/23 07:32:14.6      82     63     39    104    111  52.7  21.5  33960  286.19 0855.47
2009/04/23 07:32:14.7      77     95     50    123    132  39.2  23.0  33954  286.10 0855.47
2009/04/23 07:32:14.8      71     98     63    122    137  36.1  29.3  33956  286.14 0855.47
2009/04/23 07:32:14.9      54     83     66    100    119  33.0  37.0  33956  286.12 0855.47
2009/04/23 07:32:15.0       0    111     80    112    137   0.0  39.5  33954  286.08 0855.47
2009/04/23 07:32:15.1      21    106     68    109    128  11.1  35.5  33956  286.12 0855.47
2009/04/23 07:32:15.2      59     92     38    110    117  32.5  19.4  33956  286.14 0855.48
2009/04/23 07:32:15.3      13     67     75     69    101  11.6  52.2  33956  286.12 0855.48
2009/04/23 07:32:15.4      57     75     48     95    106  37.4  28.7  33956  286.14 0855.48
2009/04/23 07:32:15.5      26     36     59     45     74  36.1  58.5  33956  286.14 0855.48
2009/04/23 07:32:15.6      17     22     51     28     58  37.8  68.8  33958  286.17 0855.48
2009/04/23 07:32:15.7      37     16     46     41     61  65.6  53.3  33956  286.14 0855.48
2009/04/23 07:32:15.8      35     72     55     81     97  26.3  37.0  33958  286.15 0855.48
2009/04/23 07:32:15.9      21     64     55     68     87  18.5  43.3  33958  286.17 0855.48
2009/04/23 07:32:16.0      16     78     64     80    102  11.6  43.3  33956  286.12 0855.48
2009/04/23 07:32:16.1      26     66     68     72     99  21.9  48.5  33954  286.10 0855.48
2009/04/23 07:32:16.2      85     72     72    112    133  49.6  35.6  33960  286.19 0855.48
2009/04/23 07:32:16.3      71     46     57     85    102  57.1  37.0  33966  286.29 0855.48
2009/04/23 07:32:16.4      45     54     57     71     91  39.7  43.7  33962  286.24 0855.48
2009/04/23 07:32:16.5      54     46     40     71     81  49.6  31.9  33960  286.19 0855.48
2009/04/23 07:32:16.6      22     54     53     59     79  22.7  47.5  33954  286.08 0855.48
2009/04/23 07:32:16.7      44     84     48     95    106  27.6  28.7  33956  286.14 0855.48
2009/04/23 07:32:16.8      42     99     41    108    115  23.2  21.0  33956  286.14 0855.48
2009/04/23 07:32:16.9      43     92     68    102    122  24.9  37.4  33954  286.10 0855.48
2009/04/23 07:32:17.0      38     93     78    101    127  22.3  41.7  33954  286.10 0855.48
2009/04/23 07:32:17.1      39    117     59    124    137  18.7  27.2  33954  286.08 0855.48
2009/04/23 07:32:17.2     -22    109     48    112    121 348.4  24.6  33950  286.03 0855.48
2009/04/23 07:32:17.3     -11    154     52    155    164 355.6  18.6  33948  286.00 0855.48
2009/04/23 07:32:17.4     -33    140     39    144    150 346.7  15.3  33948  285.98 0855.48
2009/04/23 07:32:17.5     -29    132     26    136    139 347.5  11.0  33946  285.97 0855.48
2009/04/23 07:32:17.6     -27    136      7    139    140 348.5   2.9  33944  285.92 0855.48
2009/04/23 07:32:17.7     -46    138     28    146    149 341.3  11.0  33936  285.80 0855.48
2009/04/23 07:32:17.8     -31    136     -7    140    141 347.1  -3.2  33946  285.97 0855.48
2009/04/23 07:32:17.9     -15    129    -41    130    137 353.3 -17.6  33948  285.98 0855.48
2009/04/23 07:32:18.0       1    127    -21    128    130   0.5  -9.3  33952  286.07 0855.48
2009/04/23 07:32:18.1      22    110    -31    113    118  11.5 -15.5  33954  286.10 0855.48
2009/04/23 07:32:18.2      29     97    -10    102    103  16.5  -5.6  33956  286.12 0855.48
2009/04/23 07:32:18.3      -5     92    -31     93     98 356.9 -23.6  33950  286.03 0855.48
2009/04/23 07:32:18.4       2     74     -9     75     76   1.8  -7.3  33950  286.02 0855.48
2009/04/23 07:32:18.5     -16     70    -14     72     74 346.6 -11.3  33950  286.02 0855.48
2009/04/23 07:32:18.6     -16     70     -5     72     73 346.6  -4.1  33944  285.93 0855.48
2009/04/23 07:32:18.7     -15     63     -2     65     66 346.6  -2.2  33944  285.93 0855.48
2009/04/23 07:32:18.8      -5     65      5     66     67 355.5   4.9  33944  285.92 0855.48
2009/04/23 07:32:18.9      -4     63     22     64     68 355.5  19.4  33942  285.90 0855.48
2009/04/23 07:32:19.0       5     53     26     54     59   6.2  27.3  33946  285.97 0855.48
2009/04/23 07:32:19.1      18     53     37     57     67  18.7  35.6  33948  286.00 0855.48
2009/04/23 07:32:19.2      21     64     28     68     73  18.5  23.0  33950  286.02 0855.48
2009/04/23 07:32:19.3      31     65     25     73     78  25.5  19.2  33950  286.02 0855.48
2009/04/23 07:32:19.4      41     58     44     72     84  35.2  35.0  33956  286.12 0855.48
2009/04/23 07:32:19.5      23     54     60     59     84  23.6  49.7  33956  286.14 0855.48
2009/04/23 07:32:19.6      11     76     59     77     97   8.9  41.7  33956  286.14 0855.48
2009/04/23 07:32:19.7      13     65     60     67     89  11.5  46.4  33958  286.17 0855.48
2009/04/23 07:32:19.8      40     38     53     56     77  46.0  49.0  33960  286.19 0855.48
2009/04/23 07:32:19.9      24     51     50     57     75  25.4  45.8  33962  286.22 0855.48
2009/04/23 07:32:20.0      32     47     65     57     86  34.3  53.7  33958  286.17 0855.48
2009/04/23 07:32:20.1      13     17     61     22     64  37.8  81.2  33958  286.15 0855.48
2009/04/23 07:32:20.2      37     11     71     39     81  73.2  68.8  33956  286.14 0855.48
2009/04/23 07:32:20.3      49     49     60     70     92  45.0  45.4  33958  286.17 0855.48
2009/04/23 07:32:20.4      -5     89     60     90    108 356.4  36.5  33960  286.20 0855.48
2009/04/23 07:32:20.5      17     64     46     67     81  15.1  38.0  33958  286.17 0855.48
2009/04/23 07:32:20.6      67     46     72     82    109  55.8  46.4  33958  286.17 0855.48
2009/04/23 07:32:20.7      52     63     55     82     98  39.6  37.0  33958  286.15 0855.48
2009/04/23 07:32:20.8       1     62     61     63     87   1.8  50.0  33958  286.17 0855.48
2009/04/23 07:32:20.9      -7     38     64     39     74 348.4  64.7  33958  286.15 0855.48
2009/04/23 07:32:21.0       3      8     45      9     45  25.4  89.0  33958  286.15 0855.48
2009/04/23 07:32:21.1      44     -6     64     45     78  97.9  61.5  33958  286.17 0855.48
2009/04/23 07:32:21.2      70     10     49     71     86  81.2  38.0  33956  286.14 0855.48
2009/04/23 07:32:21.3      91     22     34     94     99  76.3  20.4  33954  286.08 0855.48
2009/04/23 07:32:21.4     114     34     15    120    122  73.2   7.5  33952  286.05 0855.48
2009/04/23 07:32:21.5     126     39     28    132    136  72.7  12.2  33954  286.08 0855.48
2009/04/23 07:32:21.6     130     25     27    133    136  79.0  11.6  33952  286.05 0855.48
2009/04/23 07:32:21.7     128     52     -4    139    140  67.8  -1.8  33954  286.08 0855.48
2009/04/23 07:32:21.8     126     72     70    146    161  60.2  27.4  33950  286.03 0855.48
2009/04/23 07:32:21.9      84    129     58    155    165  33.0  21.0  33952  286.05 0855.48
2009/04/23 07:32:22.1      30    113     83    117    143  15.1  39.1  33954  286.08 0855.48
2009/04/23 07:32:22.2      45    137     71    145    161  18.5  28.0  33952  286.07 0855.48
2009/04/23 07:32:22.3      97    136     59    168    178  35.6  20.0  33954  286.10 0855.48
2009/04/23 07:32:22.4      65    107     39    126    132  31.2  17.3  33954  286.08 0855.48
2009/04/23 07:32:22.5      81    111     87    138    163  36.1  35.5  33946  285.97 0855.48
2009/04/23 07:32:22.6      77     64    102    101    143  50.4  50.1  33946  285.95 0855.48
2009/04/23 07:32:22.7     150    139     70    205    217  47.1  18.9  33958  286.17 0855.48
2009/04/23 07:32:22.8     141    150     59    206    215  43.2  16.0  33956  286.14 0855.48
2009/04/23 07:32:22.9     156    148     72    216    228  46.4  18.4  33958  286.15 0855.48
2009/04/23 07:32:23.0     176     92    118    199    231  62.2  33.5  33954  286.08 0855.48
2009/04/23 07:32:23.1     125    124     78    177    193  45.2  25.1  33954  286.10 0855.48
2009/04/23 07:32:23.2     113     93     58    147    158  50.4  22.5  33954  286.10 0855.47
2009/04/23 07:32:23.3      65    137     62    152    164  25.5  23.4  33956  286.14 0855.47
2009/04/23 07:32:23.4      79    126     42    149    155  32.1  15.8  33956  286.12 0855.47
2009/04/23 07:32:23.5      67    101     13    122    123  33.4   6.5  33956  286.12 0855.47
2009/04/23 07:32:23.6      63     71    -28     96    101  41.4 -16.6  33956  286.12 0855.47
2009/04/23 07:32:23.7      89     34    -33     96    101  69.2 -23.3  33950  286.03 0855.47
2009/04/23 07:32:23.9     114     23      0    117    118  78.5  -0.3  33950  286.03 0855.47
2009/04/23 07:32:23.9     126     69     44    144    151  61.2  17.3  33952  286.07 0855.47
2009/04/23 07:32:24.0     114     23     -9    117    118  78.5  -4.6  33954  286.10 0855.47
2009/04/23 07:32:24.1     136     32    -32    140    144  76.7 -12.9  33952  286.05 0855.47
2009/04/23 07:32:24.2     138     43     38    145    150  72.7  14.7  33950  286.02 0855.47
2009/04/23 07:32:24.3     173     35     33    177    181  78.3  10.6  33952  286.07 0855.47
2009/04/23 07:32:24.5     158     74     14    175    176  64.8   4.9  33964  286.27 0855.47
2009/04/23 07:32:24.5     152     98     15    182    183  57.1   4.9  33966  286.30 0855.47
2009/04/23 07:32:24.6     153     97    -26    182    184  57.5  -8.2  33964  286.27 0855.47
2009/04/23 07:32:24.7     214     54    -27    221    223  75.6  -7.2  33958  286.17 0855.47
2009/04/23 07:32:24.8     225     45     -4    230    231  78.6  -1.1  33956  286.12 0855.47
2009/04/23 07:32:24.9     268     97      8    286    287  70.0   1.8  33962  286.23 0855.47
2009/04/23 07:32:25.0     250    108    -12    273    274  66.5  -2.6  33964  286.25 0855.47
2009/04/23 07:32:25.1     212    108    -30    239    241  62.9  -7.3  33964  286.25 0855.47
2009/04/23 07:32:25.2     245     34    -36    248    251  82.1  -8.3  33960  286.18 0855.47
2009/04/23 07:32:25.3     255     93    -14    272    273  70.0  -3.1  33962  286.23 0855.47
2009/04/23 07:32:25.4     226     98    -40    247    251  66.5  -9.3  33960  286.20 0855.47
2009/04/23 07:32:25.5     244     82     29    258    260  71.4   6.5  33952  286.04 0855.47
2009/04/23 07:32:25.6     270     98     30    288    290  70.1   6.0  33952  286.04 0855.47
2009/04/23 07:32:25.7     202     67     41    213    217  71.6  11.0  33956  286.14 0855.47
2009/04/23 07:32:25.8     194     87     55    213    220  65.8  14.5  33960  286.20 0855.47
2009/04/23 07:32:25.9     216     73     35    229    232  71.2   8.9  33960  286.20 0855.47
2009/04/23 07:32:26.0     160     82    -10    181    182  62.7  -3.3  33960  286.19 0855.47
2009/04/23 07:32:26.1     155     92    -16    181    182  59.1  -5.4  33960  286.19 0855.47
2009/04/23 07:32:26.2     189     94    -20    212    214  63.6  -5.6  33958  286.17 0855.47
2009/04/23 07:32:26.3     178     92     19    201    202  62.7   5.7  33954  286.08 0855.47
2009/04/23 07:32:26.4     168     56     15    178    179  71.4   4.9  33956  286.12 0855.47
2009/04/23 07:32:26.5     134     74      3    154    155  61.2   1.2  33954  286.10 0855.47
2009/04/23 07:32:26.6     139     10     68    140    155  85.6  27.3  33952  286.05 0855.47
2009/04/23 07:32:26.7     121     17     63    123    138  82.0  29.3  33952  286.05 0855.47
2009/04/23 07:32:26.8     122      0     84    123    148  90.0  37.6  33946  285.95 0855.47
2009/04/23 07:32:26.9     165      0     98    166    192  89.9  33.7  33946  285.95 0855.47
2009/04/23 07:32:27.0     145      7     92    146    172  87.0  35.5  33948  285.98 0855.47
2009/04/23 07:32:27.1     127     39     71    134    151  72.7  29.8  33954  286.08 0855.47
2009/04/23 07:32:27.2     127     70     49    145    154  61.1  18.9  33958  286.17 0855.47
2009/04/23 07:32:27.3      67    101     60    122    135  33.4  27.8  33960  286.19 0855.47
2009/04/23 07:32:27.4      45    110     85    119    146  22.3  39.5  33960  286.20 0855.47
2009/04/23 07:32:27.5      81     86     85    119    146  43.3  39.5  33956  286.14 0855.47
2009/04/23 07:32:27.6      77     93     78    121    143  39.6  35.6  33956  286.12 0855.47
2009/04/23 07:32:27.7      89     44    108    100    147  63.4  52.2  33954  286.10 0855.47
2009/04/23 07:32:27.8      76      5     82     77    112  85.6  52.1  33954  286.10 0855.47
2009/04/23 07:32:27.9      74    -64     90     98    133 130.9  47.9  33956  286.12 0855.47
2009/04/23 07:32:28.0      97    -67     63    119    134 124.6  30.3  33940  285.87 0855.47
2009/04/23 07:32:28.1      80    -32     55     87    102 111.7  35.5  33940  285.85 0855.47
2009/04/23 07:32:28.2      41    -24     74     48     88 120.7  64.1  33944  285.93 0855.48
2009/04/23 07:32:28.3      73    -17     63     75     97 103.3  44.3  33936  285.78 0855.48
2009/04/23 07:32:28.4      57    -15     64     60     87 105.1  51.2  33940  285.85 0855.48
2009/04/23 07:32:28.5      48    -19     65     52     83 112.6  56.9  33944  285.92 0855.48
2009/04/23 07:32:28.6      58    -15     63     61     87 105.0  50.1  33942  285.90 0855.48
2009/04/23 07:32:28.7      82     -8     67     83    106  95.7  43.7  33946  285.95 0855.48
2009/04/23 07:32:28.8      92      0     62     93    111  90.0  36.5  33950  286.03 0855.48
2009/04/23 07:32:28.9     104      3     66    105    124  87.9  35.5  33954  286.08 0855.48
2009/04/23 07:32:29.0      98     26     68    102    122  74.9  37.4  33958  286.17 0855.48
2009/04/23 07:32:29.1      89     19     59     92    109  77.6  35.6  33952  286.05 0855.48
2009/04/23 07:32:29.2      63     10     79     64    101  80.3  56.4  33952  286.07 0855.48
2009/04/23 07:32:29.3      32     21     63     39     74  55.8  64.7  33954  286.10 0855.48
2009/04/23 07:32:29.4      59     37     31     70     76  57.5  25.1  33960  286.19 0855.48
2009/04/23 07:32:29.5      64     30     62     71     94  64.6  45.8  33960  286.19 0855.48
2009/04/23 07:32:29.7     140     11     61    141    153  85.2  25.1  33958  286.17 0855.48
2009/04/23 07:32:29.7     130     91     21    160    162  54.9   7.8  33956  286.12 0855.48
2009/04/23 07:32:29.9      98     92    -10    135    136  46.9  -4.6  33960  286.19 0855.48
2009/04/23 07:32:30.0      90     84    -32    124    129  46.8 -14.5  33958  286.17 0855.48
2009/04/23 07:32:30.1      89     49    -36    102    109  61.2 -19.7  33948  286.00 0855.48
2009/04/23 07:32:30.2      75      0     13     76     78  90.0  10.1  33948  286.00 0855.48
2009/04/23 07:32:30.3      49     -2      7     50     51  92.6   9.0  33948  286.00 0855.48
2009/04/23 07:32:30.4      45     -3     20     46     50  94.4  26.2  33952  286.05 0855.48
2009/04/23 07:32:30.5      57    -15     24     60     64 105.1  23.0  33946  285.95 0855.48
2009/04/23 07:32:30.6      50    -14     41     53     67 105.9  41.7  33942  285.88 0855.48
2009/04/23 07:32:30.7      58      0     24     59     63  90.0  23.0  33940  285.85 0855.48
2009/04/23 07:32:30.8      49      3      9     50     51  85.6  11.0  33942  285.88 0855.48
2009/04/23 07:32:30.9      30      6      2     31     32  78.6   4.9  33940  285.87 0855.48
2009/04/23 07:32:31.0      38      5     13     39     42  81.2  19.4  33940  285.87 0855.48
2009/04/23 07:32:31.1      36      7     15     37     39  78.6  24.1  33940  285.85 0855.48
2009/04/23 07:32:31.2      26      7     19     27     33  74.9  39.7  33940  285.85 0855.48
2009/04/23 07:32:31.3      21     32      7     39     40  34.3  11.1  33940  285.87 0855.48
2009/04/23 07:32:31.4      27     16     10     32     34  59.3  17.3  33944  285.92 0855.48
2009/04/23 07:32:31.5      26     21     11     34     37  50.4  18.9  33944  285.93 0855.48
2009/04/23 07:32:31.6      25     22      4     34     35  48.7   6.9  33948  286.00 0855.48
2009/04/23 07:32:31.7      29     33     -5     45     46  41.4  -7.3  33950  286.03 0855.48
2009/04/23 07:32:31.8      37     25      9     45     47  55.8  12.2  33952  286.05 0855.48
2009/04/23 07:32:31.9      30     20     17     37     40  55.8  26.2  33950  286.02 0855.48
2009/04/23 07:32:32.0      18     45     18     49     52  21.8  20.0  33952  286.05 0855.48
2009/04/23 07:32:32.1       3     49     17     50     54   4.4  19.4  33952  286.07 0855.48
2009/04/23 07:32:32.2       0     33      2     34     35 359.1   4.9  33954  286.10 0855.48
2009/04/23 07:32:32.3      21     25    -13     33     35  39.6 -25.4  33956  286.14 0855.48
2009/04/23 07:32:32.4      29     33     -5     45     46  41.4  -7.3  33954  286.08 0855.48
2009/04/23 07:32:32.5       1     91     -5     92     93   0.9  -3.1  33954  286.10 0855.48
2009/04/23 07:32:32.6     -12    127     -2    128    129 354.2  -1.3  33958  286.15 0855.48
2009/04/23 07:32:32.7      -9    120     48    121    130 355.5  22.5  33956  286.14 0855.48
2009/04/23 07:32:32.8      25     54     73     60     94  25.4  56.4  33958  286.15 0855.48
2009/04/23 07:32:32.9      78     49     71     93    117  57.5  41.7  33956  286.14 0855.48
2009/04/23 07:32:33.0      62     74     50     97    109  40.1  29.3  33956  286.14 0855.48
2009/04/23 07:32:33.1      15     83     13     85     87  10.2   9.0  33956  286.12 0855.48
2009/04/23 07:32:33.2       8     58     11     59     61   8.0  11.1  33956  286.12 0855.48
2009/04/23 07:32:33.3       6     82     -1     83     84   4.5  -0.7  33954  286.10 0855.48
2009/04/23 07:32:33.4       1     69      1     70     71   0.9   0.8  33956  286.12 0855.48
2009/04/23 07:32:33.5       2     58     -4     59     60   2.7  -4.1  33956  286.12 0855.48
2009/04/23 07:32:33.6     -15     55     -4     58     59 344.9  -4.1  33956  286.14 0855.48
2009/04/23 07:32:33.7     -20     54     -3     58     59 339.1  -3.1  33954  286.10 0855.48
2009/04/23 07:32:33.8     -19     44      9     49     50 336.4  11.1  33956  286.14 0855.48
2009/04/23 07:32:33.9     -12     38      5     41     42 341.5   6.9  33954  286.10 0855.48
2009/04/23 07:32:34.0      -7     31     11     32     34 346.6  19.2  33954  286.10 0855.48
2009/04/23 07:32:34.1      -7     37      9     38     40 348.4  13.2  33958  286.15 0855.48
2009/04/23 07:32:34.2     -16     38      0     42     43 336.4  -1.3  33958  286.17 0855.48
2009/04/23 07:32:34.3      -7     21     -3     23     24 341.7  -7.3  33958  286.17 0855.49
2009/04/23 07:32:34.4     -12     11      6     17     19 313.3  19.4  33958  286.17 0855.49
2009/04/23 07:32:34.5     -34      3     12     35     38 276.1  18.9  33956  286.14 0855.49
2009/04/23 07:32:34.6     -35      7      1     36     37 281.4   2.9  33962  286.22 0855.49
2009/04/23 07:32:34.7     -69    -15    -26     71     75 257.6 -23.3  33962  286.24 0855.49
2009/04/23 07:32:34.8     -65    -41     -4     78     79 237.6  -3.1  33958  286.17 0855.49
2009/04/23 07:32:34.9     -89     -9    -21     90     93 263.9 -13.4  33956  286.12 0855.49
2009/04/23 07:32:35.0    -129     20    -17    131    133 279.2  -7.7  33962  286.22 0855.49
2009/04/23 07:32:35.1    -132     18    -17    134    136 278.0  -7.2  33968  286.32 0855.49
2009/04/23 07:32:35.2    -119     32    -35    124    128 285.1 -20.2  33970  286.35 0855.49
2009/04/23 07:32:35.3    -100     63    -57    119    131 302.4 -31.7  33968  286.34 0855.49
2009/04/23 07:32:35.4    -106     29    -49    111    121 285.5 -29.6  33972  286.39 0855.49
2009/04/23 07:32:35.5    -149     25    -55    152    161 279.7 -25.1  33968  286.34 0855.49
2009/04/23 07:32:35.6    -128     30    -57    132    143 283.3 -29.0  33970  286.35 0855.49
2009/04/23 07:32:35.7    -125     45    -60    133    145 289.9 -30.1  33966  286.30 0855.49
2009/04/23 07:32:35.8    -113     22    -63    116    132 281.0 -35.2  33970  286.35 0855.49
2009/04/23 07:32:35.9     -99      0    -77    100    126 270.0 -46.0  33974  286.42 0855.49
2009/04/23 07:32:36.0     -98     22   -124    101    159 282.8 -61.3  33966  286.29 0855.49
2009/04/23 07:32:36.1    -118     64    -73    135    153 298.4 -35.7  33960  286.20 0855.49
2009/04/23 07:32:36.2    -142     22    -41    144    150 278.8 -16.0  33962  286.24 0855.49
2009/04/23 07:32:36.3     -93      0    -18     94     96 270.4 -10.9  33962  286.24 0855.48
2009/04/23 07:32:36.4     -66     14    -16     68     70 282.4 -13.4  33962  286.24 0855.48
2009/04/23 07:32:36.5     -91     13    -33     92     98 278.4 -19.7  33962  286.24 0855.48
2009/04/23 07:32:36.6     -73    -24    -30     78     83 251.4 -25.9  33962  286.24 0855.48
2009/04/23 07:32:36.7     -67    -10    -24     68     72 261.2 -23.3  33962  286.22 0855.48
2009/04/23 07:32:36.8     -49    -37    -33     62     70 233.1 -34.7  33964  286.27 0855.48
2009/04/23 07:32:36.9     -37    -33    -33     50     59 227.8 -40.9  33960  286.19 0855.48
2009/04/23 07:32:37.0     -14    -36    -28     39     48 201.8 -43.0  33962  286.22 0855.48
2009/04/23 07:32:37.1      -6    -49    -19     50     53 188.0 -24.4  33962  286.22 0855.48
2009/04/23 07:32:37.2      -2    -34     -4     35     36 184.4  -7.2  33960  286.20 0855.48
2009/04/23 07:32:37.3      17    -22      2     28     29 142.2   4.9  33962  286.24 0855.48
2009/04/23 07:32:37.4      27     -5     14     28     31 101.5  27.3  33962  286.24 0855.48
2009/04/23 07:32:37.5      34      0     34     35     48  90.0  51.1  33960  286.19 0855.48
2009/04/23 07:32:37.6      31      0     43     32     53  90.0  59.4  33964  286.25 0855.48
2009/04/23 07:32:37.7      41     -9     41     43     59 103.3  49.0  33960  286.20 0855.48
2009/04/23 07:32:37.8      32     -7     50     33     59 103.3  63.6  33964  286.27 0855.48
2009/04/23 07:32:37.9       8      3     51      9     51  64.7  90.0  33966  286.29 0855.48
2009/04/23 07:32:38.0       0      1     45      2     45 341.5  90.0  33964  286.27 0855.48
2009/04/23 07:32:38.1       0      2     55      3     55  18.5  90.0  33964  286.27 0855.48
2009/04/23 07:32:38.2      -1      2     57      3     57 327.5  90.0  33966  286.29 0855.48
2009/04/23 07:32:38.3       7      0     42      8     42  90.0  90.0  33964  286.27 0855.49
2009/04/23 07:32:38.4       3    -30     38     31     49 173.8  56.4  33966  286.30 0855.49
2009/04/23 07:32:38.5     -16    -27     43     32     53 210.7  59.4  33966  286.29 0855.49
2009/04/23 07:32:38.6       2     -7     37      8     37 161.5  89.0  33964  286.27 0855.49
2009/04/23 07:32:38.7       0    -27     45     28     53 180.9  64.7  33966  286.29 0855.49
2009/04/23 07:32:38.8     -22    -68     49     72     87 198.3  37.0  33962  286.24 0855.49
2009/04/23 07:32:38.9     -37    -68     16     78     80 208.9  12.2  33962  286.24 0855.49
2009/04/23 07:32:39.0     -51    -50     -1     72     73 226.0  -1.3  33964  286.25 0855.49
2009/04/23 07:32:39.1     -44    -66      2     80     81 213.4   1.8  33964  286.25 0855.49
2009/04/23 07:32:39.2      -1    -62     63     63     89 181.8  50.1  33962  286.24 0855.49
2009/04/23 07:32:39.3     -41    -42     75     59     95 224.2  57.5  33962  286.24 0855.49
2009/04/23 07:32:39.4      -6    -46     36     47     59 188.0  41.7  33962  286.24 0855.49
2009/04/23 07:32:39.5       5    -31     32     32     45 170.2  50.1  33962  286.24 0855.49
2009/04/23 07:32:39.6       7     -7     35     11     36 135.0  80.7  33962  286.24 0855.49
2009/04/23 07:32:39.7      -7      3     26      8     27 295.3  80.7  33964  286.25 0855.49
2009/04/23 07:32:39.8     -18      5     35     19     39 288.2  68.8  33962  286.24 0855.49
2009/04/23 07:32:39.9     -13    -13     32     19     37 223.4  64.7  33964  286.25 0855.49
2009/04/23 07:32:40.0     -25    -20     15     33     36 230.5  27.1  33964  286.25 0855.49
2009/04/23 07:32:40.1     -26    -22     12     35     38 230.4  18.9  33964  286.25 0855.49
2009/04/23 07:32:40.2     -53    -23     11     58     60 246.5  11.0  33964  286.25 0855.49
2009/04/23 07:32:40.3     -79    -32      2     86     87 247.8   1.8  33964  286.25 0855.49
2009/04/23 07:32:40.4     -85    -54     -3    101    102 237.6  -1.8  33962  286.22 0855.49
2009/04/23 07:32:40.5     -94    -54    -11    109    110 239.8  -6.2  33962  286.22 0855.49
2009/04/23 07:32:40.6     -77    -21     -4     80     81 254.5  -3.1  33964  286.27 0855.49
2009/04/23 07:32:40.7     -77    -23     -3     81     82 253.2  -2.2  33964  286.27 0855.49
2009/04/23 07:32:40.8     -70    -26     -4     75     76 249.2  -3.1  33964  286.27 0855.49
2009/04/23 07:32:40.9     -56    -15      7     59     60 254.9   6.9  33962  286.24 0855.49
2009/04/23 07:32:41.0     -68      0     13     69     71 270.0  11.0  33962  286.22 0855.49
2009/04/23 07:32:41.1     -62      9     26     63     68 278.8  23.0  33956  286.14 0855.49
2009/04/23 07:32:41.2     -63     -6     24     64     68 263.9  20.0  33958  286.15 0855.49
2009/04/23 07:32:41.3     -82     71     19    109    111 310.9  10.1  33956  286.14 0855.49
2009/04/23 07:32:41.4    -102     57     66    117    134 299.3  31.9  33952  286.07 0855.49
2009/04/23 07:32:41.5     -95     62     48    114    123 303.3  24.1  33958  286.15 0855.49
2009/04/23 07:32:41.6    -102     48     33    114    119 295.4  16.3  33962  286.22 0855.49
2009/04/23 07:32:41.7     -89     34    -46     96    106 291.3 -31.7  33962  286.22 0855.49
2009/04/23 07:32:41.8    -120     23    -13    123    124 281.0  -6.2  33962  286.24 0855.49
2009/04/23 07:32:41.9    -130     23    -21    133    135 280.1  -9.3  33956  286.12 0855.49
2009/04/23 07:32:42.0    -110     15     -4    112    113 278.0  -2.2  33956  286.14 0855.49
2009/04/23 07:32:42.1    -111     26      5    115    116 283.3   2.9  33960  286.20 0855.49
2009/04/23 07:32:42.2    -143     47     28    151    154 288.4  10.6  33958  286.17 0855.49
2009/04/23 07:32:42.3    -135     74     48    155    163 298.9  17.3  33956  286.12 0855.50
2009/04/23 07:32:42.4    -124     80     40    148    154 302.9  15.3  33958  286.15 0855.50
2009/04/23 07:32:42.5    -109     77     25    134    137 305.5  10.6  33960  286.19 0855.50
2009/04/23 07:32:42.6    -111     87     48    142    151 308.2  18.9  33960  286.20 0855.50
2009/04/23 07:32:42.7     -91     82     66    123    139 312.2  30.8  33958  286.15 0855.50
2009/04/23 07:32:42.8    -113     74     91    136    163 303.3  36.7  33962  286.22 0855.50
2009/04/23 07:32:42.9    -122     32     32    127    132 284.6  14.3  33958  286.17 0855.50
2009/04/23 07:32:43.0     -65     21     38     69     78 288.2  30.8  33958  286.17 0855.50
2009/04/23 07:32:43.1     -70     41     57     82     99 300.7  38.6  33960  286.19 0855.50
2009/04/23 07:32:43.2     -78     32     79     85    116 292.6  48.0  33958  286.15 0855.50
2009/04/23 07:32:43.3     -90     48     86    103    134 298.4  43.8  33956  286.14 0855.50
2009/04/23 07:32:43.4     -88     42     87     98    131 295.4  45.9  33952  286.07 0855.50
2009/04/23 07:32:43.5    -101     32     69    106    126 287.7  35.6  33952  286.05 0855.50
2009/04/23 07:32:43.6     -92     38     46    100    110 292.6  27.1  33952  286.05 0855.50
2009/04/23 07:32:43.7     -89     49     46    102    111 298.9  26.2  33954  286.10 0855.50
2009/04/23 07:32:43.8     -89     54     64    105    122 301.1  34.0  33948  286.00 0855.50
2009/04/23 07:32:43.9     -73     46     69     87    111 302.5  43.3  33954  286.08 0855.50
2009/04/23 07:32:44.0     -82     45     46     94    104 298.9  27.8  33954  286.10 0855.50
2009/04/23 07:32:44.1     -40     47     16     62     65 319.5  14.3  33956  286.14 0855.50
2009/04/23 07:32:44.2      -3     14     15     15     21 344.9  50.1  33958  286.17 0855.50
2009/04/23 07:32:44.3       1    -15     25     16     29 175.5  64.7  33958  286.15 0855.50
2009/04/23 07:32:44.4     -16    -26     37     31     48 212.5  54.3  33960  286.20 0855.50
2009/04/23 07:32:44.5      -4    -15     33     16     36 195.1  72.9  33960  286.20 0855.50
2009/04/23 07:32:44.6      -7      0      4      8      9 270.0  27.2  33960  286.19 0855.50
2009/04/23 07:32:44.7      -3     -3     44      5     44 226.7  90.0  33960  286.19 0855.50
2009/04/23 07:32:44.8     -58      4     30     59     66 274.3  29.3  33956  286.14 0855.50
2009/04/23 07:32:44.9     -62     18     33     65     72 286.8  28.2  33954  286.10 0855.50
2009/04/23 07:32:45.0     -99     13     19    100    102 277.9  11.1  33958  286.15 0855.50
2009/04/23 07:32:45.1     -94      5     10     95     96 273.5   6.5  33956  286.14 0855.50
2009/04/23 07:32:45.2    -111     14     20    112    114 277.5  10.1  33956  286.14 0855.50
2009/04/23 07:32:45.3    -107     21     51    110    121 281.5  26.6  33954  286.10 0855.50
2009/04/23 07:32:45.4     -77      5     51     78     93 274.4  36.0  33956  286.12 0855.50
2009/04/23 07:32:45.5     -88      6     36     89     96 274.4  23.0  33956  286.14 0855.50
2009/04/23 07:32:45.6     -52     -3     16     53     56 266.5  17.3  33956  286.12 0855.50
2009/04/23 07:32:45.7     -70     -5     11     71     72 265.6   9.0  33956  286.12 0855.50
2009/04/23 07:32:45.8     -86    -18     38     88     95 258.1  25.1  33956  286.12 0855.50
2009/04/23 07:32:45.9     -84    -31     47     90    101 249.2  29.8  33954  286.10 0855.50
2009/04/23 07:32:46.0     -71     -9     38     72     81 262.1  30.3  33956  286.12 0855.50
2009/04/23 07:32:46.1     -70    -14     46     72     85 258.6  35.6  33958  286.15 0855.50
2009/04/23 07:32:46.2     -64    -27     26     70     74 246.5  20.0  33956  286.14 0855.50
2009/04/23 07:32:46.3     -32    -15      1     36     37 244.7   2.8  33958  286.17 0855.49
2009/04/23 07:32:46.4     -44    -19      2     49     50 246.5   2.9  33956  286.14 0855.49
2009/04/23 07:32:46.5     -27    -22     20     36     41 230.4  31.4  33958  286.17 0855.49
2009/04/23 07:32:46.6     -22    -22     25     32     40 225.0  41.7  33954  286.10 0855.49
2009/04/23 07:32:46.7     -35    -19     20     41     45 241.1  28.2  33952  286.05 0855.49
2009/04/23 07:32:46.8     -24     -9     17     26     31 248.3  35.6  33954  286.08 0855.49
2009/04/23 07:32:46.9      10     -3     17     11     20 108.4  62.6  33956  286.14 0855.49
2009/04/23 07:32:47.0       8      8     15     12     19  46.9  56.4  33958  286.17 0855.49
2009/04/23 07:32:47.1       0     23     19     24     30 359.1  43.7  33958  286.17 0855.49
2009/04/23 07:32:47.2     -12     18     35     22     41 325.7  64.7  33956  286.14 0855.49
2009/04/23 07:32:47.3     -12     20     41     24     47 329.3  66.8  33960  286.20 0855.49
2009/04/23 07:32:47.4     -21     29     52     36     63 323.9  61.5  33960  286.19 0855.49
2009/04/23 07:32:47.5     -19     23     35     30     46 320.4  54.3  33962  286.24 0855.49
2009/04/23 07:32:47.6     -12     11     41     17     44 313.3  77.1  33960  286.20 0855.49
2009/04/23 07:32:47.7     -17     17     36     25     43 315.0  61.5  33958  286.17 0855.49
2009/04/23 07:32:47.8     -23     19     29     31     42 309.5  49.0  33958  286.17 0855.49
2009/04/23 07:32:47.9     -12     16     21     21     29 323.9  50.1  33958  286.15 0855.49
2009/04/23 07:32:48.0     -16     -1     16     17     23 265.6  50.0  33956  286.12 0855.49
2009/04/23 07:32:48.1     -14      1     18     15     23 274.3  54.3  33958  286.15 0855.49
2009/04/23 07:32:48.2     -21      3     26     22     34 279.7  54.3  33956  286.14 0855.49
2009/04/23 07:32:48.3     -15     12     31     20     36 307.8  64.7  33956  286.14 0855.48
2009/04/23 07:32:48.4     -11     26     35     29     45 336.4  55.4  33960  286.19 0855.48
2009/04/23 07:32:48.5     -24     23     24     34     41 313.3  39.7  33958  286.15 0855.48
2009/04/23 07:32:48.6     -30     14      1     34     35 295.3   2.8  33958  286.15 0855.48
2009/04/23 07:32:48.7     -13      4     12     14     18 288.4  52.0  33960  286.20 0855.48
2009/04/23 07:32:48.8     -23    -13     31     27     41 239.3  54.3  33962  286.22 0855.48
2009/04/23 07:32:48.9     -31    -46     22     56     60 214.3  23.0  33962  286.24 0855.48
2009/04/23 07:32:49.0     -35    -54     31     65     72 213.4  27.2  33962  286.24 0855.48
2009/04/23 07:32:49.1     -39    -47     27     62     67 219.7  24.1  33962  286.24 0855.48
2009/04/23 07:32:49.2     -35    -39     24     53     58 221.4  26.2  33958  286.17 0855.48
2009/04/23 07:32:49.3     -44     -6      7     45     46 262.1   9.0  33954  286.08 0855.48
2009/04/23 07:32:49.4     -47     19     -2     51     52 292.6  -2.2  33956  286.14 0855.48
2009/04/23 07:32:49.5     -44     44      7     63     64 315.0   6.9  33960  286.19 0855.48
2009/04/23 07:32:49.6     -49     59     24     77     81 320.4  17.9  33958  286.17 0855.48
2009/04/23 07:32:49.7     -58     61     31     85     90 316.3  21.0  33956  286.14 0855.48
2009/04/23 07:32:49.8     -58     49     30     77     82 310.4  22.0  33956  286.14 0855.48
2009/04/23 07:32:49.9     -54     55     32     78     84 315.8  23.0  33958  286.17 0855.48
2009/04/23 07:32:50.0     -58     58     28     83     88 315.0  19.2  33958  286.17 0855.48
2009/04/23 07:32:50.1     -53     75     36     92     98 324.8  22.5  33956  286.14 0855.48
2009/04/23 07:32:50.2     -53     83     34     99    105 327.5  18.9  33958  286.17 0855.48
2009/04/23 07:32:50.3     -41     69     11     81     82 329.3   8.0  33960  286.19 0855.48
2009/04/23 07:32:50.4      -5     73      6     74     75 355.6   4.9  33960  286.19 0855.48
2009/04/23 07:32:50.5     -21     54     31     59     66 338.2  30.3  33960  286.19 0855.48
2009/04/23 07:32:50.6     -29     22     34     37     50 307.8  46.9  33960  286.19 0855.48
2009/04/23 07:32:50.7     -52     14     35     54     64 285.1  35.6  33960  286.20 0855.48
2009/04/23 07:32:50.8     -49     21     31     54     62 293.5  31.4  33960  286.19 0855.48
2009/04/23 07:32:50.9     -48     31     31     58     65 302.4  31.3  33954  286.08 0855.48
2009/04/23 07:32:51.0     -61     40     47     73     86 303.3  35.6  33948  285.98 0855.48
2009/04/23 07:32:51.1     -56     26     51     62     80 295.2  43.7  33946  285.95 0855.48
2009/04/23 07:32:51.2     -61     21     49     65     81 289.1  41.2  33950  286.03 0855.48
2009/04/23 07:32:51.3     -67     28     48     73     87 292.6  36.0  33950  286.03 0855.48
2009/04/23 07:32:51.4     -60     19     40     64     75 287.7  35.5  33950  286.03 0855.48
2009/04/23 07:32:51.5     -60     35     26     70     74 300.7  20.0  33950  286.02 0855.48
2009/04/23 07:32:51.6     -59     43     20     74     77 305.9  15.3  33952  286.05 0855.48
2009/04/23 07:32:51.7     -74     25     24     79     83 289.1  17.3  33950  286.03 0855.48
2009/04/23 07:32:51.8     -72     20     16     75     77 285.9  12.2  33950  286.02 0855.48
2009/04/23 07:32:51.9     -77     35     -1     85     86 294.4  -0.7  33952  286.05 0855.48
2009/04/23 07:32:52.0     -74     25      4     79     80 289.1   2.9  33952  286.05 0855.48
2009/04/23 07:32:52.1     -65     19      8     68     69 286.8   6.9  33950  286.03 0855.48
2009/04/23 07:32:52.2     -49     26     -7     56     57 298.0  -7.2  33950  286.03 0855.48
2009/04/23 07:32:52.3     -63      6     -3     64     65 276.1  -3.1  33948  286.00 0855.48
2009/04/23 07:32:52.4     -54      4     -8     55     56 274.4  -8.2  33948  286.00 0855.48
2009/04/23 07:32:52.5     -57     22     -6     62     63 291.7  -6.2  33950  286.03 0855.48
2009/04/23 07:32:52.6     -68     25     -5     73     74 290.8  -4.1  33952  286.05 0855.48
2009/04/23 07:32:52.7     -76     45      8     89     90 300.7   5.4  33958  286.17 0855.48
2009/04/23 07:32:52.8     -84     45     20     96     99 298.0  12.2  33954  286.08 0855.48
2009/04/23 07:32:52.9     -98     53     21    112    115 298.4  11.0  33954  286.08 0855.48
2009/04/23 07:32:53.0    -103     61      6    120    121 300.7   3.3  33958  286.17 0855.48
2009/04/23 07:32:53.2    -131     19     -4    133    134 278.4  -1.8  33950  286.03 0855.48
2009/04/23 07:32:53.3     -99     44    -15    109    111 294.0  -8.2  33954  286.08 0855.49
2009/04/23 07:32:53.4    -104     58     -2    120    121 299.3  -1.2  33952  286.05 0855.49
2009/04/23 07:32:53.5    -154     40     24    160    162 284.6   8.8  33948  285.98 0855.49
2009/04/23 07:32:53.6    -163     51      3    171    172 287.5   1.2  33950  286.03 0855.49
2009/04/23 07:32:53.7    -135     39    -18    141    143 286.4  -7.3  33954  286.08 0855.49
2009/04/23 07:32:53.8    -121     13    -16    122    124 276.6  -7.7  33954  286.08 0855.49
2009/04/23 07:32:53.9    -123     49    -20    133    135 291.7  -8.8  33948  285.98 0855.49
2009/04/23 07:32:54.0    -143     15    -18    144    146 276.1  -7.3  33950  286.03 0855.49
2009/04/23 07:32:54.1    -148      0    -41    149    154 270.0 -20.2  33952  286.05 0855.49
2009/04/23 07:32:54.2    -125    -13    -40    126    132 263.9 -23.3  33952  286.07 0855.49
2009/04/23 07:32:54.3    -133      0    -43    134    141 270.0 -18.1  33948  285.98 0855.49
2009/04/23 07:32:54.4    -125     38     10    131    132 287.3   4.4  33940  285.87 0855.49
2009/04/23 07:32:54.5    -121     35     20    127    129 286.4   9.0  33946  285.97 0855.49
2009/04/23 07:32:54.6    -126     25      0    129    130 281.4   0.2  33956  286.12 0855.49
2009/04/23 07:32:54.7    -126     41      0    133    134 288.2  -0.3  33956  286.14 0855.49
2009/04/23 07:32:54.8    -124     45    -12    132    133 290.0  -5.2  33958  286.17 0855.49
2009/04/23 07:32:54.9    -119     39    -16    126    128 288.2  -7.2  33956  286.12 0855.49
2009/04/23 07:32:55.0    -130     37     -9    136    137 285.9  -4.1  33952  286.05 0855.49
2009/04/23 07:32:55.1    -115     56     11    129    130 296.2   4.9  33948  285.98 0855.49
2009/04/23 07:32:55.2    -104     46     24    114    117 294.0  12.2  33940  285.85 0855.49
2009/04/23 07:32:55.3    -120     40     32    127    132 288.6  14.3  33944  285.93 0855.49
2009/04/23 07:32:55.4    -117     52      7    129    130 294.0   3.3  33958  286.15 0855.49
2009/04/23 07:32:55.5    -131     58     18    144    146 294.0   7.5  33950  286.03 0855.49
2009/04/23 07:32:55.6    -120     57    -23    133    136 295.4  -9.8  33960  286.19 0855.49
2009/04/23 07:32:55.7    -148     59     -7    160    161 291.7  -2.6  33952  286.07 0855.49
2009/04/23 07:32:55.8    -128     70     23    147    149 298.8   9.0  33950  286.03 0855.49
2009/04/23 07:32:55.9    -111     75     -2    135    136 304.2  -1.3  33956  286.12 0855.49
2009/04/23 07:32:56.0     -90     53      0    105    106 300.7   0.2  33954  286.08 0855.49
2009/04/23 07:32:56.1     -62     57    -27     85     89 312.7 -23.3  33958  286.15 0855.49
2009/04/23 07:32:56.2     -70     23    -32     74     80 288.6 -29.5  33954  286.08 0855.49
2009/04/23 07:32:56.3     -38    -46    -21     61     64 219.6 -23.3  33950  286.02 0855.49
2009/04/23 07:32:56.4     -31    -31     -9     45     46 225.1 -11.3  33952  286.05 0855.49
2009/04/23 07:32:56.5     -25     -9    -24     27     36 248.3 -50.2  33954  286.08 0855.49
2009/04/23 07:32:56.6     -25     -9    -24     27     36 248.3 -50.2  33952  286.05 0855.49
2009/04/23 07:32:56.7       7    -13     -3     16     17 151.0 -11.3  33950  286.03 0855.49
2009/04/23 07:32:56.8       5     -4      5      7      8 133.3  43.7  33950  286.03 0855.49
2009/04/23 07:32:56.9      26      0     26     27     37  90.0  52.0  33950  286.03 0855.49
2009/04/23 07:32:57.0      35      0     48     36     60  90.0  59.4  33950  286.02 0855.49
2009/04/23 07:32:57.1      16     15     58     23     62  46.9  77.1  33950  286.03 0855.49
2009/04/23 07:32:57.3       2     27     56     28     62   4.5  71.9  33952  286.05 0855.49
2009/04/23 07:32:57.4     -10     18     55     21     58 331.0  78.2  33952  286.05 0855.49
2009/04/23 07:32:57.5     -31     41     83     52     97 322.2  64.7  33950  286.02 0855.49
2009/04/23 07:32:57.6     -47     38     67     61     90 309.5  52.7  33948  285.98 0855.49
2009/04/23 07:32:57.7     -47     22     57     52     77 295.2  52.2  33950  286.02 0855.49
2009/04/23 07:32:57.8     -46      7     41     47     62 278.8  46.9  33948  285.98 0855.49
2009/04/23 07:32:57.9     -40      0     13     41     44 270.0  18.4  33954  286.08 0855.49
2009/04/23 07:32:58.0     -60    -26     15     66     68 246.5  13.2  33952  286.05 0855.49
2009/04/23 07:32:58.1     -60    -28     31     67     73 244.8  27.1  33946  285.97 0855.49
2009/04/23 07:32:58.2     -33    -27     65     43     77 230.5  64.6  33950  286.02 0855.49
2009/04/23 07:32:58.3      38    -46     49     60     77 140.4  43.7  33950  286.03 0855.49
2009/04/23 07:32:58.4      38    -56     34     68     76 145.7  28.2  33954  286.08 0855.49
2009/04/23 07:32:58.5      40    -20     50     45     67 117.1  52.2  33950  286.03 0855.49
2009/04/23 07:32:58.6      -1    -77     28     78     82 181.0  20.4  33948  286.00 0855.49
2009/04/23 07:32:58.7     -64   -100     66    119    136 212.6  31.4  33950  286.02 0855.49
2009/04/23 07:32:58.8     -86    -70     86    111    140 230.9  41.7  33950  286.02 0855.49
2009/04/23 07:32:58.9     -78    -64     78    102    128 230.5  41.6  33948  286.00 0855.49
2009/04/23 07:32:59.0     -53    -33     64     63     89 237.6  49.7  33948  286.00 0855.49
2009/04/23 07:32:59.1     -33    -15     56     37     67 244.7  64.6  33948  286.00 0855.49
2009/04/23 07:32:59.2     -22      7     31     24     39 288.6  56.4  33950  286.02 0855.49
2009/04/23 07:32:59.3     -75     36     32     84     89 295.8  21.5  33946  285.97 0855.49
2009/04/23 07:32:59.4    -126     22     65    128    143 280.1  29.2  33950  286.02 0855.49
2009/04/23 07:32:59.5    -130     22     64    132    146 279.6  27.3  33952  286.05 0855.49
2009/04/23 07:32:59.6     -73     17     47     76     89 283.3  35.0  33950  286.03 0855.49
2009/04/23 07:32:59.7     -52     26     54     59     79 297.1  47.9  33952  286.05 0855.49
2009/04/23 07:32:59.8     -35     57     23     68     72 328.4  18.9  33952  286.05 0855.49
2009/04/23 07:32:59.9     -27     82      7     87     88 341.5   4.9  33950  286.03 0855.49
2009/04/23 07:33:00.0     -27     94     -3     98     99 344.0  -2.2  33950  286.03 0855.49
2009/04/23 07:33:00.1     -34     69    -14     77     79 333.7 -10.3  33952  286.07 0855.49
2009/04/23 07:33:00.2     -20     54    -11     58     60 339.1 -11.3  33952  286.05 0855.49
2009/04/23 07:33:00.3     -12     38      5     41     42 341.5   6.9  33952  286.05 0855.49
2009/04/23 07:33:00.4     -19     43      4     48     49 335.5   4.9  33954  286.10 0855.49
2009/04/23 07:33:00.5     -45     54     -7     71     72 320.3  -6.2  33954  286.08 0855.49
2009/04/23 07:33:00.6     -50     77      5     92     93 327.0   3.3  33958  286.15 0855.49
2009/04/23 07:33:00.7      -1     85    -32     86     91 359.1 -25.4  33954  286.10 0855.49
2009/04/23 07:33:00.8      13     90    -34     92     98   8.5 -25.9  33956  286.12 0855.49
2009/04/23 07:33:00.9      19     88    -25     91     95  12.5 -15.5  33952  286.05 0855.49
2009/04/23 07:33:01.0      57     74    -13     94     95  37.4  -8.2  33952  286.05 0855.49
2009/04/23 07:33:01.1      52     36     -3     64     65  54.9  -3.1  33954  286.08 0855.49
2009/04/23 07:33:01.2      61     39     29     73     78  57.6  22.5  33952  286.05 0855.49
2009/04/23 07:33:01.3      52     28     25     60     65  61.2  23.0  33950  286.03 0855.49
2009/04/23 07:33:01.4      45     25     18     52     56  60.2  18.9  33952  286.05 0855.49
2009/04/23 07:33:01.5      63     40     22     75     79  57.6  16.8  33954  286.08 0855.49
2009/04/23 07:33:01.6      63     40     22     75     79  57.6  16.8  33954  286.08 0855.49
2009/04/23 07:33:01.7      70     47     29     85     91  55.8  19.2  33950  286.03 0855.49
2009/04/23 07:33:01.8      69     57     12     90     91  50.5   8.0  33952  286.05 0855.49
2009/04/23 07:33:01.9      43     49     -1     66     67  41.4  -1.3  33952  286.05 0855.49
2009/04/23 07:33:02.0      34     40      4     53     54  40.5   4.9  33952  286.07 0855.49
2009/04/23 07:33:02.1      23     57     -3     62     63  22.7  -3.1  33954  286.10 0855.49
2009/04/23 07:33:02.2      41     45     -2     62     63  42.3  -2.2  33954  286.08 0855.49
2009/04/23 07:33:02.3      45     25     11     52     54  60.2  12.2  33956  286.14 0855.49
2009/04/23 07:33:02.4      41     36     22     55     59  48.7  23.0  33956  286.14 0855.49
2009/04/23 07:33:02.5      36     45     24     58     62  38.7  23.1  33958  286.17 0855.49
2009/04/23 07:33:02.6      27     56      3     63     64  25.5   2.9  33958  286.15 0855.49
2009/04/23 07:33:02.7      23     67      1     72     73  19.2   0.8  33956  286.14 0855.49
2009/04/23 07:33:02.8      35     74     15     82     84  25.5  10.6  33958  286.15 0855.49
2009/04/23 07:33:02.9      45     81     38     93    100  29.0  23.1  33954  286.08 0855.49
2009/04/23 07:33:03.0      48     60     72     77    105  38.7  48.0  33952  286.05 0855.49
2009/04/23 07:33:03.1      71     33     76     79    109  64.6  49.0  33956  286.12 0855.49
2009/04/23 07:33:03.2      59     92     77    110    134  32.6  38.0  33956  286.14 0855.49
2009/04/23 07:33:03.3      60    127     57    141    152  25.3  23.0  33962  286.24 0855.49
2009/04/23 07:33:03.4      77    121     84    144    166  32.5  32.9  33962  286.24 0855.49
2009/04/23 07:33:03.5     111     99    102    150    181  48.2  37.6  33956  286.14 0855.49
2009/04/23 07:33:03.6     128     85     76    154    171  56.3  28.0  33958  286.15 0855.49
2009/04/23 07:33:03.7      85     57     73    103    126  56.3  39.1  33960  286.20 0855.49
2009/04/23 07:33:03.8      54     63     40     84     93  40.5  27.2  33960  286.19 0855.49
2009/04/23 07:33:03.9      74     90     15    117    118  39.7   7.5  33962  286.22 0855.49
2009/04/23 07:33:04.0      69     91     40    115    122  37.4  19.4  33960  286.20 0855.49
2009/04/23 07:33:04.1      61    101     46    119    127  31.2  22.0  33960  286.20 0855.49
2009/04/23 07:33:04.2      82     97     24    128    131  40.1  11.0  33958  286.17 0855.49
2009/04/23 07:33:04.3     181    107     33    211    214  59.3   8.9  33954  286.10 0855.49
2009/04/23 07:33:04.4     286    139     23    319    320  64.0   4.2  33958  286.15 0855.49
2009/04/23 07:33:04.5     268    108     36    289    292  68.0   7.2  33960  286.20 0855.49
2009/04/23 07:33:04.7     202    168    102    263    282  50.2  22.1  33962  286.21 0855.49
2009/04/23 07:33:04.8     148    178    101    232    253  39.6  25.1  33962  286.21 0855.49
2009/04/23 07:33:04.9     174    147     98    229    249  49.8  24.6  33958  286.15 0855.49
2009/04/23 07:33:05.0     189    148     80    241    255  52.0  18.5  33962  286.21 0855.49
2009/04/23 07:33:05.1     201    141     47    246    251  54.9  11.0  33960  286.20 0855.49
2009/04/23 07:33:05.2     202    148     59    251    258  53.8  13.2  33962  286.23 0855.49
2009/04/23 07:33:05.3     230    109     54    255    261  64.6  12.2  33960  286.20 0855.49
2009/04/23 07:33:05.4     180    116     51    215    222  57.1  13.5  33960  286.19 0855.48
2009/04/23 07:33:05.5     208    136     26    249    251  56.7   6.1  33960  286.20 0855.48
2009/04/23 07:33:05.6     127    114     70    171    184  48.0  23.1  33960  286.20 0855.48
2009/04/23 07:33:05.7     125    110     57    167    177  48.7  18.9  33962  286.22 0855.48
2009/04/23 07:33:05.8     136     69     40    153    159  63.0  14.7  33962  286.24 0855.48
2009/04/23 07:33:05.9     133     80     -4    156    157  58.9  -1.8  33962  286.22 0855.48
2009/04/23 07:33:06.0     135     73    -50    154    162  61.6 -18.1  33960  286.20 0855.48
2009/04/23 07:33:06.1     143     47    -61    151    162  71.8 -27.4  33960  286.20 0855.48
2009/04/23 07:33:06.2      52     63    -31     82     87  39.6 -25.4  33962  286.24 0855.48
2009/04/23 07:33:06.3     -13     53    -61     55     82 345.7 -57.1  33960  286.20 0855.48
2009/04/23 07:33:06.4     -19     31    -25     37     44 327.4 -40.9  33958  286.17 0855.48
2009/04/23 07:33:06.5     -35     31     31     47     56 311.3  35.6  33960  286.19 0855.48
2009/04/23 07:33:06.6     -16     48     25     51     56 341.3  27.3  33962  286.24 0855.48
2009/04/23 07:33:06.7      -7     34     33     35     48 348.4  50.0  33962  286.22 0855.48
2009/04/23 07:33:06.8     -32     -2     33     33     46 265.6  50.1  33964  286.25 0855.48
2009/04/23 07:33:06.9     -69     -5     34     70     77 265.7  27.3  33960  286.20 0855.48
2009/04/23 07:33:07.0    -103     16     20    105    108 278.8  11.1  33960  286.19 0855.48
2009/04/23 07:33:07.1     -61    -33     -6     70     71 241.1  -5.2  33962  286.24 0855.48
2009/04/23 07:33:07.2     -65    -91     -1    112    113 215.6  -0.7  33960  286.19 0855.48
2009/04/23 07:33:07.3     -64    -50    -17     82     84 231.8 -11.9  33962  286.24 0855.48
2009/04/23 07:33:07.4     -67    -22    -53     71     88 251.6 -45.1  33960  286.19 0855.48
2009/04/23 07:33:07.5     -41    -75    -26     86     90 209.0 -17.0  33960  286.20 0855.48
2009/04/23 07:33:07.6     -89    -56    -39    106    112 237.5 -24.8  33962  286.24 0855.48
2009/04/23 07:33:07.7     -67    -23    -73     71    101 250.9 -55.1  33962  286.24 0855.48
2009/04/23 07:33:07.8    -128     -8   -144    129    193 266.1 -57.9  33958  286.17 0855.48
2009/04/23 07:33:07.9     -82     37    -86     91    125 294.4 -53.4  33962  286.22 0855.48
2009/04/23 07:33:08.0     -27     11    -27     30     40 291.7 -51.3  33960  286.20 0855.48
2009/04/23 07:33:08.1      32    -65     -9     73     74 153.7  -7.3  33962  286.22 0855.48
2009/04/23 07:33:08.2     106    -58     43    122    130 118.9  19.4  33958  286.17 0855.48
2009/04/23 07:33:08.3      91     -2    105     92    139  91.7  54.3  33966  286.29 0855.48
2009/04/23 07:33:08.4      77    -35     98     85    129 114.8  54.8  33966  286.30 0855.48
2009/04/23 07:33:08.5     -10    -14     73     18     75 216.1  86.9  33968  286.32 0855.48
2009/04/23 07:33:08.6      -2    -66     70     67     96 181.8  50.7  33966  286.29 0855.48
2009/04/23 07:33:08.7     -86    -33     37     93    100 249.2  23.0  33964  286.25 0855.48
2009/04/23 07:33:08.8     -42    -66     -2     79     80 212.6  -1.8  33962  286.22 0855.48
2009/04/23 07:33:08.9     -33    -33     33     48     58 225.0  36.5  33962  286.22 0855.48
2009/04/23 07:33:09.0     -69      3     80     70    106 272.6  53.7  33960  286.19 0855.48
2009/04/23 07:33:09.1     -85    -27     57     90    106 252.3  35.5  33958  286.17 0855.48
2009/04/23 07:33:09.2    -121      8     51    122    132 273.9  23.6  33958  286.17 0855.48
2009/04/23 07:33:09.3     -47     -2     65     48     80 266.5  60.0  33960  286.19 0855.48
2009/04/23 07:33:09.4      24      4     50     25     55  80.3  71.9  33962  286.22 0855.48
2009/04/23 07:33:09.5     108      0     31    109    114  90.0  15.8  33962  286.24 0855.48
2009/04/23 07:33:09.6     129    -30     -9    133    134 103.3  -4.1  33960  286.20 0855.48
2009/04/23 07:33:09.7     169     -8     64    170    181  92.8  21.7  33960  286.19 0855.48
2009/04/23 07:33:09.8     267     58    105    274    293  77.6  22.0  33960  286.18 0855.48
2009/04/23 07:33:09.9     229     58    114    237    262  75.6  27.3  33958  286.16 0855.48
2009/04/23 07:33:10.0     174      7    145    175    227  87.4  43.8  33954  286.08 0855.48
2009/04/23 07:33:10.1     208     22    134    210    249  83.9  35.6  33956  286.13 0855.48
2009/04/23 07:33:10.2      98    -19    115    100    152 101.5  54.3  33954  286.08 0855.48
2009/04/23 07:33:10.3       0    -32     79     33     85 180.9  76.1  33952  286.05 0855.48
2009/04/23 07:33:10.4      37    -95    107    103    148 158.6  51.2  33954  286.10 0855.48
2009/04/23 07:33:10.5      41    -89     34     99    105 155.1  18.9  33956  286.12 0855.48
2009/04/23 07:33:10.6      24   -120     66    123    139 168.5  30.8  33952  286.07 0855.48
2009/04/23 07:33:10.7      40   -120     60    127    140 161.3  27.1  33954  286.10 0855.48
2009/04/23 07:33:10.8      28   -127     16    131    133 167.5   7.1  33954  286.10 0855.48
2009/04/23 07:33:10.9      40    -79     66     89    110 152.8  40.1  33954  286.08 0855.48
2009/04/23 07:33:11.0      47    -29     60     56     82 121.5  51.6  33958  286.15 0855.48
2009/04/23 07:33:11.1      25    -63     60     68     90 158.2  45.8  33954  286.10 0855.48
2009/04/23 07:33:11.2      30    -65     42     72     83 154.6  32.9  33956  286.12 0855.48
2009/04/23 07:33:11.3      24    -85     16     89     91 164.0  10.6  33956  286.12 0855.48
2009/04/23 07:33:11.4      10    -75     31     76     82 172.0  23.0  33954  286.08 0855.49
2009/04/23 07:33:11.5       0    -84     10     85     86 180.0   6.9  33954  286.08 0855.49
2009/04/23 07:33:11.6      10    -73     16     74     76 171.9  12.2  33956  286.14 0855.49
2009/04/23 07:33:11.7      15    -66      8     68     69 166.6   6.9  33956  286.14 0855.49
2009/04/23 07:33:11.8      13    -67     29     69     74 168.4  24.1  33960  286.19 0855.49
2009/04/23 07:33:11.9      40    -64     27     76     80 147.4  20.0  33962  286.24 0855.49
2009/04/23 07:33:12.0      64    -52     10     83     84 129.1   6.9  33962  286.22 0855.49
2009/04/23 07:33:12.1      76    -61     66     98    118 128.6  37.4  33964  286.27 0855.49
2009/04/23 07:33:12.2      86   -104    104    136    171 140.3  41.4  33966  286.29 0855.49
2009/04/23 07:33:12.3     115   -123     93    169    192 136.8  31.4  33962  286.24 0855.49
2009/04/23 07:33:12.4     101    -56     89    116    146 119.3  41.6  33954  286.08 0855.49
2009/04/23 07:33:12.5      41    -27     87     50    100 123.3  67.7  33954  286.08 0855.49
2009/04/23 07:33:12.6     -12     21     54     25     59 331.0  74.0  33960  286.19 0855.49
2009/04/23 07:33:12.7     -13      1     51     14     52 277.9  84.9  33960  286.19 0855.49
2009/04/23 07:33:12.8       0   -119    117    120    167 180.4  49.4  33952  286.07 0855.49
2009/04/23 07:33:12.9      -7   -152    121    153    195 182.7  42.4  33956  286.14 0855.49
2009/04/23 07:33:13.0     -26   -155    115    158    195 189.7  39.7  33956  286.12 0855.49
2009/04/23 07:33:13.1     -22   -157    124    159    201 188.1  41.7  33952  286.07 0855.49
2009/04/23 07:33:13.2     -48   -180    142    187    234 195.2  41.2  33952  286.07 0855.49
2009/04/23 07:33:13.3     -14   -188    140    189    235 184.4  40.4  33950  286.02 0855.49
2009/04/23 07:33:13.4     -51   -171    147    179    231 196.7  43.7  33950  286.03 0855.49
2009/04/23 07:33:13.5     -53   -206    150    213    260 194.7  38.6  33956  286.11 0855.49
2009/04/23 07:33:13.7     -82   -200    118    217    247 202.3  30.8  33956  286.11 0855.49
2009/04/23 07:33:13.8     -87   -177    100    198    221 206.3  29.1  33954  286.10 0855.49
2009/04/23 07:33:13.9     -26   -130    142    133    194 191.5  52.0  33954  286.10 0855.49
2009/04/23 07:33:14.0      -9   -117    104    118    157 184.5  46.2  33956  286.14 0855.49
2009/04/23 07:33:14.1      -4   -149    109    150    185 181.8  39.7  33956  286.12 0855.49
2009/04/23 07:33:14.2       7    -94    142     95    170 175.5  63.4  33960  286.20 0855.49
2009/04/23 07:33:14.3     -61   -129    143    143    202 205.3  50.1  33960  286.19 0855.49
2009/04/23 07:33:14.4    -110   -170    115    203    233 213.0  32.1  33958  286.15 0855.49
2009/04/23 07:33:14.5    -121   -201     99    235    255 211.2  24.2  33962  286.21 0855.49
2009/04/23 07:33:14.6    -116   -140    114    182    214 219.6  35.5  33962  286.24 0855.49
2009/04/23 07:33:14.7    -101   -153    120    184    219 213.4  36.0  33962  286.22 0855.49
2009/04/23 07:33:14.8    -156   -134     97    206    227 229.3  27.1  33956  286.14 0855.49
2009/04/23 07:33:14.9    -139   -212     88    254    269 213.4  19.2  33958  286.16 0855.49
2009/04/23 07:33:15.0    -151   -238     66    283    291 212.5  13.1  33952  286.04 0855.49
2009/04/23 07:33:15.1    -163   -248     19    298    299 213.4   3.8  33954  286.08 0855.49
2009/04/23 07:33:15.2    -143   -227     57    269    276 212.3  12.1  33952  286.06 0855.49
2009/04/23 07:33:15.3    -202   -253     48    324    328 218.6   8.5  33950  286.03 0855.49
2009/04/23 07:33:15.4    -264    -96     16    282    283 250.0   3.3  33956  286.11 0855.49
2009/04/23 07:33:15.5    -207   -105    -25    233    235 243.0  -6.2  33956  286.11 0855.49
2009/04/23 07:33:15.6    -181    -99    -70    207    219 241.2 -18.7  33958  286.15 0855.49
2009/04/23 07:33:15.7    -246    -33    -59    249    256 262.3 -13.4  33946  285.96 0855.49
2009/04/23 07:33:15.8    -335      0   -130    336    360 270.0 -26.6  33952  286.04 0855.49
2009/04/23 07:33:15.9    -256     26      8    258    259 275.9   1.8  33948  285.98 0855.49
2009/04/23 07:33:16.0    -242   -103     92    264    280 246.9  19.2  33946  285.96 0855.49
2009/04/23 07:33:16.1    -299    -17     -6    300    301 266.6  -1.2  33946  285.96 0855.49
2009/04/23 07:33:16.2    -285    -91    -39    300    303 252.3  -7.5  33958  286.16 0855.49
2009/04/23 07:33:16.3    -277   -141    -23    311    312 243.0  -4.4  33954  286.09 0855.49
2009/04/23 07:33:16.4    -424    -33    -59    426    431 265.5  -7.9  33966  286.28 0855.49
2009/04/23 07:33:16.5    -348    -14     43    349    352 267.6   7.1  33962  286.24 0855.49
2009/04/23 07:33:16.6    -235    -31     54    238    245 262.3  12.9  33968  286.31 0855.49
2009/04/23 07:33:16.7    -184    -87    128    204    240 244.5  35.5  33962  286.22 0855.49
2009/04/23 07:33:16.8    -265    -96    112    283    304 250.0  23.0  33964  286.26 0855.49
2009/04/23 07:33:16.9    -230   -105     79    254    267 245.4  17.3  33968  286.31 0855.49
2009/04/23 07:33:17.0    -244    -50     25    250    252 258.3   5.9  33960  286.18 0855.49
2009/04/23 07:33:17.1    -268    -16     66    269    278 266.5  13.9  33958  286.16 0855.49
2009/04/23 07:33:17.2    -197    -94    121    219    250 244.5  31.4  33948  285.99 0855.49
2009/04/23 07:33:17.3    -185    -21     64    187    198 263.4  18.9  33960  286.20 0855.49
2009/04/23 07:33:17.4    -184     55     -4    193    194 286.8  -1.3  33968  286.32 0855.49
2009/04/23 07:33:17.5    -174     57     -7    184    185 288.2  -2.2  33966  286.30 0855.49
2009/04/23 07:33:17.6    -160     39     20    165    167 283.9   7.2  33968  286.32 0855.49
2009/04/23 07:33:17.7    -150     58     33    162    166 291.3  11.6  33966  286.29 0855.49
2009/04/23 07:33:17.8     -70     67     -8     98     99 313.6  -5.2  33960  286.19 0855.49
2009/04/23 07:33:17.9     -15     49     51     52     72 343.1  51.1  33962  286.24 0855.49
2009/04/23 07:33:18.0       5     37     47     38     60   8.0  56.4  33962  286.22 0855.49
2009/04/23 07:33:18.1     -47     64     62     80    101 323.9  42.2  33958  286.17 0855.49
2009/04/23 07:33:18.2     -20     32     38     38     53 327.4  50.1  33958  286.15 0855.49
2009/04/23 07:33:18.3      -2     37     44     38     58 355.5  54.3  33956  286.14 0855.49
2009/04/23 07:33:18.4     -57     -5     34     58     67 264.8  33.5  33958  286.15 0855.49
2009/04/23 07:33:18.5     -36     31     21     48     52 311.3  25.1  33954  286.10 0855.49
2009/04/23 07:33:18.6     -41     36     32     55     63 311.3  32.4  33956  286.12 0855.49
2009/04/23 07:33:18.7    -105     21    -22    108    111 281.5 -11.9  33952  286.07 0855.49
2009/04/23 07:33:18.8    -102     53     -2    115    116 297.5  -1.2  33954  286.10 0855.49
2009/04/23 07:33:18.9    -145     -6    -50    146    155 267.4 -19.1  33954  286.08 0855.49
2009/04/23 07:33:19.0    -163     45    -47    170    177 285.5 -15.5  33958  286.17 0855.49
2009/04/23 07:33:19.1    -136     71    -80    154    173 297.5 -34.2  33962  286.24 0855.49
2009/04/23 07:33:19.2    -126    123    -69    177    189 314.2 -26.7  33964  286.25 0855.49
2009/04/23 07:33:19.3    -157     84    -41    179    184 298.2 -12.9  33960  286.20 0855.49
2009/04/23 07:33:19.4    -148     72   -115    165    201 296.2 -42.8  33960  286.20 0855.49
2009/04/23 07:33:19.5     -33    168   -126    172    213 348.9 -44.1  33960  286.20 0855.49
2009/04/23 07:33:19.6      28    133    -80    137    158  12.0 -37.3  33962  286.22 0855.49
2009/04/23 07:33:19.7      27    144    -44    147    154  10.7 -17.0  33960  286.20 0855.49
2009/04/23 07:33:19.8    -137     82    -56    160    170 300.9 -19.4  33954  286.10 0855.49
2009/04/23 07:33:19.9    -142     34    -66    147    161 283.7 -30.1  33956  286.14 0855.49
2009/04/23 07:33:20.0     -89     58    -72    107    128 302.9 -41.4  33954  286.10 0855.49
2009/04/23 07:33:20.1    -107     40    -33    115    119 290.4 -21.2  33958  286.15 0855.49
2009/04/23 07:33:20.2     -89      0      0     90     91 270.0  -0.3  33958  286.15 0855.49
2009/04/23 07:33:20.3     -80      6     -8     81     82 274.8  -6.2  33958  286.15 0855.49
2009/04/23 07:33:20.4     -77     28     22     83     87 290.4  15.3  33956  286.14 0855.48
2009/04/23 07:33:20.5     -93    -30      6     98     99 251.8   3.8  33956  286.12 0855.48
2009/04/23 07:33:20.6     -96    -32      5    102    103 251.4   2.8  33958  286.17 0855.48
2009/04/23 07:33:20.7     -78    -66    -32    103    109 230.0 -17.6  33958  286.17 0855.48
2009/04/23 07:33:20.8     -67    -62    -11     92     93 226.9  -7.2  33958  286.15 0855.48
2009/04/23 07:33:20.9     -45    -54    -14     71     73 219.7 -11.5  33958  286.17 0855.48
2009/04/23 07:33:21.0     -63    -53     -8     83     84 229.6  -5.6  33958  286.17 0855.48
2009/04/23 07:33:21.1     -77    -31    -21     84     87 247.8 -14.5  33958  286.17 0855.48
2009/04/23 07:33:21.2     -77    -28    -21     83     86 249.6 -14.5  33958  286.15 0855.48
2009/04/23 07:33:21.3     -63    -21     -2     67     68 251.6  -2.2  33956  286.14 0855.48
2009/04/23 07:33:21.4     -71      5     32     72     78 274.3  25.1  33956  286.12 0855.48
2009/04/23 07:33:21.5     -65      0     27     66     71 269.2  23.0  33956  286.12 0855.48
2009/04/23 07:33:21.6     -47    -10     26     49     55 257.6  30.3  33956  286.14 0855.48
2009/04/23 07:33:21.7     -92      0      6     93     94 270.0   3.8  33954  286.10 0855.48
2009/04/23 07:33:21.8     -96     15     11     98     99 278.8   6.5  33954  286.08 0855.48
2009/04/23 07:33:21.9    -109      9    -19    110    112 275.2  -9.8  33952  286.05 0855.48
2009/04/23 07:33:22.0    -106     23    -35    109    114 282.4 -23.8  33950  286.03 0855.48
2009/04/23 07:33:22.1    -101      0    -44    102    111 270.0 -29.5  33950  286.03 0855.48
2009/04/23 07:33:22.2     -91     23    -35     95    101 284.6 -25.4  33954  286.08 0855.48
2009/04/23 07:33:22.3     -97     19    -29     99    103 281.4 -21.2  33952  286.05 0855.48
2009/04/23 07:33:22.4     -92    -14    -18     94     96 261.2 -10.9  33954  286.08 0855.48
2009/04/23 07:33:22.5     -89    -61    -12    109    110 235.4  -6.7  33954  286.10 0855.48
2009/04/23 07:33:22.6     -70    -82    -35    108    114 220.5 -18.1  33954  286.10 0855.48
2009/04/23 07:33:22.7     -42    -88    -40     98    105 205.4 -27.5  33960  286.19 0855.48
2009/04/23 07:33:22.8     -48    -45    -43     67     79 226.9 -40.4  33958  286.15 0855.48
2009/04/23 07:33:22.9     -65    -26    -19     71     74 248.3 -15.5  33956  286.14 0855.48
2009/04/23 07:33:23.0     -57    -31     -8     66     67 241.1  -7.3  33956  286.12 0855.48
2009/04/23 07:33:23.1     -41    -17    -10     45     47 247.4 -12.4  33956  286.14 0855.48
2009/04/23 07:33:23.2     -26     -3     -9     27     29 262.1 -19.7  33956  286.14 0855.48
2009/04/23 07:33:23.3     -22     11     -5     25     26 297.1 -11.3  33956  286.14 0855.48
2009/04/23 07:33:23.4     -34    -16    -12     38     39 244.7 -22.8  33956  286.14 0855.48
2009/04/23 07:33:23.5     -77    -28    -21     83     86 249.6 -14.5  33958  286.15 0855.48
2009/04/23 07:33:23.6     -72    -42    -18     84     87 239.3 -12.4  33958  286.15 0855.48
2009/04/23 07:33:23.7     -35    -35    -33     50     59 225.0 -40.9  33958  286.15 0855.48
2009/04/23 07:33:23.8     -41    -36    -22     55     59 228.7 -27.4  33956  286.14 0855.48
2009/04/23 07:33:23.9     -40     40     17     57     60 315.0  17.3  33958  286.15 0855.48
2009/04/23 07:33:24.0     -48     31      7     58     59 302.5   7.1  33958  286.17 0855.48
2009/04/23 07:33:24.1     -40     19      4     45     46 295.3   5.9  33958  286.17 0855.48
2009/04/23 07:33:24.2     -26     16     -1     31     32 302.4  -3.1  33960  286.20 0855.48
2009/04/23 07:33:24.3     -12      8    -13     15     19 302.4 -50.2  33960  286.19 0855.48
2009/04/23 07:33:24.4      -3      8    -17      9     19 334.6 -73.2  33960  286.19 0855.47
2009/04/23 07:33:24.5      -7      3    -19      8     20 295.3 -81.5  33962  286.22 0855.47
2009/04/23 07:33:24.6       0     -1    -14      2     14 198.5 -90.0  33960  286.20 0855.47
2009/04/23 07:33:24.7       0      0    -12      0     12   0.0 -90.0  33960  286.19 0855.47
2009/04/23 07:33:24.8      -5      4    -15      7     16 313.3 -77.3  33958  286.17 0855.47
2009/04/23 07:33:24.9      -6     11    -12     13     17 331.0 -56.4  33956  286.14 0855.47
2009/04/23 07:33:25.1      -1      8     -2      9     10 348.4 -15.5  33958  286.15 0855.47
2009/04/23 07:33:25.2     -10     12      5     16     17 320.4  19.4  33958  286.15 0855.47
2009/04/23 07:33:25.3     -10     18      8     21     22 331.0  21.0  33956  286.14 0855.47
2009/04/23 07:33:25.4     -18      9      6     21     22 297.1  17.3  33954  286.10 0855.47
2009/04/23 07:33:25.5     -25     13      5     29     30 297.1  11.1  33954  286.10 0855.47
2009/04/23 07:33:25.6     -27     25     11     38     40 313.1  16.3  33954  286.10 0855.47
2009/04/23 07:33:25.7     -31     12     16     34     37 291.7  27.2  33958  286.15 0855.47
2009/04/23 07:33:25.8     -44      3     18     45     48 274.4  21.0  33956  286.12 0855.47
2009/04/23 07:33:25.9     -37      2     20     38     42 274.4  30.3  33956  286.12 0855.47
2009/04/23 07:33:26.0     -34     -2     19     35     39 265.7  31.4  33954  286.08 0855.47
2009/04/23 07:33:26.1     -57    -13     -4     59     60 256.7  -4.1  33954  286.08 0855.47
2009/04/23 07:33:26.2     -54     -5      2     55     56 263.9   2.9  33948  286.00 0855.47
2009/04/23 07:33:26.3     -28      2     12     29     31 274.3  23.0  33952  286.05 0855.47
2009/04/23 07:33:26.4     -26      0     19     27     33 270.0  39.7  33952  286.07 0855.47
2009/04/23 07:33:26.5     -10      2     42     11     43 285.1  84.9  33952  286.07 0855.47
2009/04/23 07:33:26.6      -9     -3     48     10     49 248.3  89.0  33956  286.14 0855.47
2009/04/23 07:33:26.7      -5    -18     46     19     49 198.3  77.1  33962  286.22 0855.47
2009/04/23 07:33:26.8       0      0     49      1     49 135.0  90.0  33958  286.17 0855.47
2009/04/23 07:33:26.9     -14      2     44     15     46 281.5  81.0  33960  286.19 0855.47
2009/04/23 07:33:27.0     -13     13     60     19     62 313.3  81.8  33958  286.17 0855.47
2009/04/23 07:33:27.2     -10    -14     58     18     60 216.1  81.8  33958  286.15 0855.47
2009/04/23 07:33:27.3     -69    -43     43     82     92 237.6  29.3  33956  286.14 0855.47
2009/04/23 07:33:27.4    -117    -35     24    123    126 253.1  11.1  33956  286.14 0855.47
2009/04/23 07:33:27.5    -104    -39     22    112    115 249.6  11.1  33954  286.10 0855.47
2009/04/23 07:33:27.6     -38    -46     53     61     80 219.6  45.8  33952  286.07 0855.47
2009/04/23 07:33:27.7       0    -62     53     63     82 180.0  44.8  33954  286.08 0855.47
2009/04/23 07:33:27.8     -14    -68     65     70     95 191.6  47.9  33952  286.07 0855.47
2009/04/23 07:33:27.9     -37   -110     57    117    130 198.5  27.3  33964  286.25 0855.47
2009/04/23 07:33:28.0     -36   -103     58    110    124 199.2  30.3  33962  286.24 0855.47
2009/04/23 07:33:28.1     -48    -79     43     93    102 211.2  26.6  33964  286.25 0855.47
2009/04/23 07:33:28.2     -24    -93     71     97    120 194.7  39.7  33964  286.25 0855.47
2009/04/23 07:33:28.3     -42   -119     88    127    154 199.6  37.6  33964  286.25 0855.47
2009/04/23 07:33:28.4     -51    -67     70     85    110 217.0  43.7  33960  286.19 0855.47
2009/04/23 07:33:28.5     -66    -80     44    105    113 219.6  23.6  33962  286.24 0855.47
2009/04/23 07:33:28.6     -81    -86     65    119    135 223.3  31.4  33962  286.24 0855.47
2009/04/23 07:33:28.7     -88    -62     51    108    119 234.9  27.2  33962  286.22 0855.47
2009/04/23 07:33:28.8     -85    -54     49    101    112 237.5  27.3  33966  286.29 0855.47
2009/04/23 07:33:28.9     -69    -61     52     93    106 228.2  31.4  33962  286.24 0855.47
2009/04/23 07:33:29.0     -93    -49     55    106    119 242.0  29.3  33958  286.17 0855.47
2009/04/23 07:33:29.1     -95    -19     63     97    115 258.5  35.6  33956  286.14 0855.47
2009/04/23 07:33:29.2     -90    -48     42    103    111 241.6  23.1  33956  286.14 0855.47
2009/04/23 07:33:29.3     -62    -61     33     88     93 225.4  20.4  33962  286.22 0855.47
2009/04/23 07:33:29.4     -45    -48     19     67     70 223.3  16.3  33962  286.22 0855.47
2009/04/23 07:33:29.5     -59    -46      0     75     76 232.2  -0.3  33960  286.19 0855.47
2009/04/23 07:33:29.6     -55    -33    -23     65     70 239.3 -19.7  33954  286.10 0855.47
2009/04/23 07:33:29.7     -67    -20    -38     70     79 253.2 -35.2  33952  286.05 0855.47
2009/04/23 07:33:29.8     -95    -21     -3     98     99 257.2  -2.2  33946  285.97 0855.47
2009/04/23 07:33:29.9     -78     23     25     82     86 286.8  17.3  33946  285.95 0855.47
2009/04/23 07:33:30.0     -69     22     40     73     83 288.2  30.8  33948  285.98 0855.47
2009/04/23 07:33:30.1     -57     31     41     66     77 298.8  35.5  33950  286.02 0855.47
2009/04/23 07:33:30.2     -42     26     57     50     75 302.4  54.3  33948  285.98 0855.47
2009/04/23 07:33:30.3     -27     22     47     36     59 309.5  58.5  33948  285.98 0855.47
2009/04/23 07:33:30.4     -31     31     41     44     60 314.9  48.0  33948  286.00 0855.47
2009/04/23 07:33:30.5     -34     17     33     39     51 297.1  44.8  33946  285.95 0855.48
2009/04/23 07:33:30.6     -32     21     42     39     57 304.2  51.2  33946  285.95 0855.48
2009/04/23 07:33:30.7     -22     30     51     38     63 323.9  59.4  33948  286.00 0855.48
2009/04/23 07:33:30.8     -19     10     33     22     39 297.1  63.6  33946  285.95 0855.48
2009/04/23 07:33:30.9      -7      4     25      9     26 302.4  81.2  33950  286.02 0855.48
2009/04/23 07:33:31.0      18     14     29     24     37  52.2  56.3  33950  286.02 0855.48
2009/04/23 07:33:31.1      55     25     15     61     63  64.8  14.3  33952  286.05 0855.48
2009/04/23 07:33:31.2      45     24     25     52     57  62.0  27.2  33948  285.98 0855.48
2009/04/23 07:33:31.3      35     32     48     48     67  47.8  50.1  33950  286.03 0855.48
2009/04/23 07:33:31.4      49     15     55     52     75  72.3  52.1  33948  286.00 0855.48
2009/04/23 07:33:31.5      64     30     62     71     94  64.6  45.8  33950  286.03 0855.48
2009/04/23 07:33:31.6      59     67     43     90     99  41.0  27.2  33952  286.05 0855.48
2009/04/23 07:33:31.8      80     46     79     93    122  59.8  45.4  33950  286.03 0855.48
2009/04/23 07:33:31.9     126     60     90    140    166  64.6  35.7  33954  286.10 0855.48
2009/04/23 07:33:32.0      89     54    115    105    155  58.9  52.2  33954  286.08 0855.48
2009/04/23 07:33:32.1      78     40     82     88    120  62.5  47.9  33956  286.14 0855.48
2009/04/23 07:33:32.2      91     66     51    113    123  54.0  26.2  33954  286.10 0855.48
2009/04/23 07:33:32.3     107    112    -15    156    157  43.7  -5.6  33960  286.19 0855.48
2009/04/23 07:33:32.4      79     94    -65    124    140  40.1 -34.2  33958  286.17 0855.48
2009/04/23 07:33:32.5      70     88    -23    113    116  38.7 -11.5  33956  286.14 0855.48
2009/04/23 07:33:32.6     -22     68    -96     72    120 341.5 -63.8  33956  286.14 0855.48
2009/04/23 07:33:32.7      82     99    -26    129    132  39.6 -11.5  33958  286.17 0855.48
2009/04/23 07:33:32.8     106     77    -36    132    137  54.0 -15.4  33960  286.19 0855.48
2009/04/23 07:33:32.9     101     61    -40    118    125  58.9 -18.7  33964  286.25 0855.48
2009/04/23 07:33:33.0      94     27    -19     98    100  73.6 -11.5  33954  286.10 0855.48
2009/04/23 07:33:33.1      90    -17     41     92    100 101.0  25.7  33948  286.00 0855.48
2009/04/23 07:33:33.2      77    -15     41     79     89 101.5  29.8  33948  286.00 0855.48
2009/04/23 07:33:33.3      71    -53     36     89     96 126.9  23.0  33948  286.00 0855.48
2009/04/23 07:33:33.5      21    -40     87     46     98 152.8  70.4  33952  286.05 0855.49
2009/04/23 07:33:33.6       0    -61     86     62    106 179.1  60.6  33954  286.10 0855.49
2009/04/23 07:33:33.7     -26    -79     46     84     95 198.5  31.4  33956  286.12 0855.49
2009/04/23 07:33:33.8      13    -99     16    100    102 172.0   9.5  33952  286.07 0855.49
2009/04/23 07:33:33.9     -13   -117     59    118    131 186.7  28.2  33948  285.98 0855.49
2009/04/23 07:33:34.0       8   -109     49    110    120 175.6  25.2  33950  286.03 0855.49
2009/04/23 07:33:34.1     -24   -140     90    143    168 189.8  35.5  33948  286.00 0855.49
2009/04/23 07:33:34.2      19   -135     81    137    159 171.9  33.5  33954  286.08 0855.49
2009/04/23 07:33:34.3      -6   -127     59    128    140 182.7  26.6  33952  286.05 0855.49
2009/04/23 07:33:34.4     -11   -145     54    146    155 184.4  21.0  33952  286.05 0855.49
2009/04/23 07:33:34.5       6   -145     60    146    157 177.4  23.6  33952  286.07 0855.49
2009/04/23 07:33:34.6      -5   -124     70    125    143 182.7  31.4  33950  286.02 0855.49
2009/04/23 07:33:34.7     -31   -119     79    124    147 194.7  35.5  33952  286.07 0855.49
2009/04/23 07:33:34.8     -26   -139     82    142    163 190.7  32.9  33952  286.05 0855.49
2009/04/23 07:33:34.9     -37   -113    110    120    162 198.3  47.7  33950  286.02 0855.49
2009/04/23 07:33:35.0     -39    -60     87     72    112 213.4  56.3  33952  286.05 0855.49
2009/04/23 07:33:35.1     -25    -76    116     81    141 198.7  61.5  33948  286.00 0855.49
2009/04/23 07:33:35.2     -88   -121    113    150    187 216.0  40.7  33950  286.02 0855.49
2009/04/23 07:33:35.3     -87   -128     97    155    182 214.2  35.5  33946  285.97 0855.49
2009/04/23 07:33:35.4     -81   -123     62    148    160 213.4  24.1  33946  285.97 0855.49
2009/04/23 07:33:35.5     -36    -58    119     69    137 211.6  67.2  33948  285.98 0855.50
2009/04/23 07:33:35.6      -5    -71    125     72    144 184.4  67.2  33948  286.00 0855.50
2009/04/23 07:33:35.7     -22    -67    119     71    138 198.7  66.7  33946  285.97 0855.50
2009/04/23 07:33:35.8      93     18    150     95    177  78.5  64.7  33958  286.15 0855.50
2009/04/23 07:33:35.9     193      5    119    194    227  88.3  34.8  33962  286.24 0855.50
2009/04/23 07:33:36.0     119     -3    178    120    214  91.7  62.7  33962  286.22 0855.50
2009/04/23 07:33:36.1     135     71    173    153    230  62.0  54.2  33964  286.25 0855.50
2009/04/23 07:33:36.2     153     46    182    160    242  73.1  54.2  33964  286.27 0855.50
2009/04/23 07:33:36.3      71     54    137     90    163  52.7  63.9  33960  286.19 0855.50
2009/04/23 07:33:36.4     201     43    152    206    256  77.8  39.9  33962  286.23 0855.50
2009/04/23 07:33:36.5     235     32    160    238    286  82.1  37.3  33964  286.25 0855.50
2009/04/23 07:33:36.6     182     60    187    192    268  71.6  49.2  33962  286.23 0855.50
2009/04/23 07:33:36.7      84     39     74     93    118  64.8  42.2  33958  286.15 0855.50
2009/04/23 07:33:36.8      41    148     -3    154    155  15.6  -1.2  33966  286.29 0855.50
2009/04/23 07:33:36.9     113    191     -2    222    223  30.7  -0.7  33960  286.20 0855.50
2009/04/23 07:33:37.0     170     80    100    189    213  64.7  30.1  33960  286.20 0855.50
2009/04/23 07:33:37.1     131     61     97    145    174  64.8  36.7  33960  286.20 0855.50
2009/04/23 07:33:37.2      72     70     50    101    112  45.6  27.3  33964  286.25 0855.50
2009/04/23 07:33:37.3      33    102    -11    108    109  18.3  -6.2  33962  286.22 0855.50
2009/04/23 07:33:37.4      38     97    -60    105    120  21.4 -36.8  33960  286.19 0855.50
2009/04/23 07:33:37.5     153    142   -118    210    240  47.1 -36.5  33958  286.15 0855.51
2009/04/23 07:33:37.6     267    116    -87    292    305  66.5 -16.6  33962  286.21 0855.51
2009/04/23 07:33:37.7     193    106    -62    221    229  61.1 -20.2  33964  286.27 0855.51
2009/04/23 07:33:37.8      99     73   -113    124    167  53.6 -51.5  33958  286.17 0855.51
2009/04/23 07:33:37.9      71     97   -108    121    162  36.5 -51.0  33962  286.22 0855.51
2009/04/23 07:33:38.0      77    102   -115    128    172  37.0 -51.0  33962  286.24 0855.51
2009/04/23 07:33:38.1     112     71    -75    133    152  57.6 -36.3  33958  286.17 0855.51
2009/04/23 07:33:38.2     145     24    -20    148    150  80.3  -7.7  33962  286.22 0855.51
2009/04/23 07:33:38.3     168    126    -31    210    213  53.1  -8.6  33962  286.24 0855.51
2009/04/23 07:33:38.4     148     86     15    172    173  59.8   5.2  33962  286.24 0855.51
2009/04/23 07:33:38.5     238     64     14    247    248  74.9   3.3  33966  286.28 0855.51
2009/04/23 07:33:38.6     254    104     58    275    282  67.6  12.0  33964  286.25 0855.51
2009/04/23 07:33:38.7     197    121     38    232    236  58.5   9.5  33960  286.20 0855.51
2009/04/23 07:33:38.8     202    155     66    255    264  52.5  14.7  33962  286.21 0855.51
2009/04/23 07:33:38.9     237    142     43    277    281  59.1   9.0  33962  286.21 0855.51
2009/04/23 07:33:39.0     244     91     89    261    276  69.6  18.9  33960  286.20 0855.51
2009/04/23 07:33:39.1     157     32     31    161    165  78.5  11.1  33962  286.24 0855.51
2009/04/23 07:33:39.2     185     19      7    187    188  83.9   2.3  33962  286.22 0855.51
2009/04/23 07:33:39.3     177     48      0    184    185  74.9  -0.3  33958  286.17 0855.51
2009/04/23 07:33:39.4     181     59    -26    191    193  71.8  -8.0  33958  286.15 0855.51
2009/04/23 07:33:39.5     249    -23    -99    251    269  95.3 -27.2  33960  286.20 0855.51
2009/04/23 07:33:39.6     227    -46    -97    232    251 101.5 -28.5  33960  286.18 0855.51
2009/04/23 07:33:39.7     204   -104    -56    230    237 117.1 -13.7  33964  286.25 0855.51
2009/04/23 07:33:39.8     156   -124    -51    200    207 128.4 -14.5  33960  286.20 0855.51
2009/04/23 07:33:39.9      81    -86     81    119    143 136.7  37.6  33956  286.12 0855.51
2009/04/23 07:33:40.0      52     -8    105     53    117  98.8  71.4  33960  286.19 0855.51
2009/04/23 07:33:40.1      27    -28     81     40     90 135.9  72.4  33958  286.17 0855.51
2009/04/23 07:33:40.2      78    -37     66     87    109 115.3  41.2  33956  286.14 0855.51
2009/04/23 07:33:40.3      58    -54     77     80    111 133.2  49.0  33954  286.10 0855.51
2009/04/23 07:33:40.4      96    -47     82    108    135 116.2  41.6  33956  286.12 0855.51
2009/04/23 07:33:40.5      44    -80     90     92    128 151.0  50.0  33952  286.07 0855.51
2009/04/23 07:33:40.6      16    -47     66     50     82 161.3  59.0  33954  286.08 0855.51
2009/04/23 07:33:40.7     -15    -62     55     64     84 194.3  45.8  33954  286.10 0855.51
2009/04/23 07:33:40.8      -2    -71     55     72     90 181.8  41.7  33952  286.05 0855.51
2009/04/23 07:33:40.9      36    -50     62     62     87 143.9  50.1  33954  286.08 0855.51
2009/04/23 07:33:41.0     -14   -114    104    115    155 187.1  46.9  33954  286.08 0855.51
2009/04/23 07:33:41.1     -34   -150    155    154    218 192.9  50.1  33948  285.98 0855.51
2009/04/23 07:33:41.2     -60   -137    130    150    198 203.6  45.6  33950  286.02 0855.51
2009/04/23 07:33:41.3     -42   -158    107    164    195 195.1  36.3  33954  286.08 0855.51
2009/04/23 07:33:41.4     -21   -156    137    158    209 188.0  45.4  33954  286.08 0855.51
2009/04/23 07:33:41.5      -3   -163     86    164    185 181.4  30.1  33956  286.14 0855.51
2009/04/23 07:33:41.6      12   -160    107    161    193 175.6  36.5  33952  286.05 0855.51
2009/04/23 07:33:41.7      12   -159     92    160    184 175.6  32.7  33952  286.07 0855.51
2009/04/23 07:33:41.8      27   -167     81    170    188 170.7  27.3  33954  286.08 0855.51
2009/04/23 07:33:41.9       9   -207     82    208    223 177.4  22.8  33956  286.14 0855.51
2009/04/23 07:33:42.0      94   -166    102    191    216 150.4  30.3  33960  286.20 0855.51
2009/04/23 07:33:42.1     147   -141    140    205    248 133.8  37.6  33960  286.18 0855.51
2009/04/23 07:33:42.2     111   -107    134    155    204 134.0  45.6  33958  286.17 0855.51
2009/04/23 07:33:42.3      65    -96    115    117    164 145.7  50.0  33958  286.17 0855.51
2009/04/23 07:33:42.4     136    -25    124    139    186 100.6  46.4  33962  286.22 0855.51
2009/04/23 07:33:42.5      91     -6    141     92    168  94.3  64.1  33960  286.19 0855.51
2009/04/23 07:33:42.6      19      8     81     21     83  66.5  84.9  33966  286.29 0855.51
2009/04/23 07:33:42.7     111     -1    152    112    188  90.8  60.3  33964  286.25 0855.51
2009/04/23 07:33:42.8     191     27    143    193    240  81.9  40.4  33962  286.22 0855.51
2009/04/23 07:33:42.9     177     29    136    180    225  80.5  41.2  33962  286.22 0855.51
2009/04/23 07:33:43.0     163     65     18    176    178  68.3   6.1  33960  286.20 0855.51
2009/04/23 07:33:43.1     195    129     46    235    240  56.5  11.1  33962  286.23 0855.51
2009/04/23 07:33:43.2      62    181     27    192    194  18.9   8.0  33962  286.22 0855.51
2009/04/23 07:33:43.3     -14    191     41    192    197 355.8  12.2  33960  286.20 0855.51
2009/04/23 07:33:43.4     -73    270     29    280    282 344.8   6.1  33964  286.25 0855.51
2009/04/23 07:33:43.5      -4    256     13    257    258 358.9   2.9  33964  286.25 0855.51
2009/04/23 07:33:43.6      23    174     32    176    179   7.8  10.3  33960  286.20 0855.51
2009/04/23 07:33:43.7      26    186     18    188    189   8.0   5.7  33960  286.19 0855.51
2009/04/23 07:33:43.8      15    213    -52    214    221   4.2 -13.7  33962  286.22 0855.51
2009/04/23 07:33:43.9      11    206    -26    207    209   3.1  -7.2  33964  286.25 0855.51
2009/04/23 07:33:44.0      48    207    -27    213    215  13.3  -7.3  33960  286.20 0855.51
2009/04/23 07:33:44.1      57    208    -34    216    219  15.4  -9.0  33962  286.22 0855.51
2009/04/23 07:33:44.2      93    213    -29    233    235  23.6  -7.2  33964  286.26 0855.51
2009/04/23 07:33:44.3     110    239    -53    264    270  24.7 -11.3  33964  286.25 0855.51
2009/04/23 07:33:44.4     148    196    -31    246    248  37.0  -7.2  33964  286.25 0855.51
2009/04/23 07:33:44.5     111    188    -51    219    225  30.7 -13.3  33964  286.25 0855.51
2009/04/23 07:33:44.6     164    117    -25    202    204  54.3  -7.2  33962  286.24 0855.51
2009/04/23 07:33:44.7     122    132    -38    181    185  42.8 -11.9  33960  286.19 0855.51
2009/04/23 07:33:44.8     132    119    -18    178    179  48.0  -6.0  33964  286.27 0855.51
2009/04/23 07:33:44.9     165    119     -7    204    205  54.3  -2.2  33962  286.24 0855.51
2009/04/23 07:33:45.0     186    125     -6    225    226  56.0  -1.6  33962  286.24 0855.51
2009/04/23 07:33:45.1     184    117    -92    219    237  57.6 -28.5  33962  286.24 0855.51
2009/04/23 07:33:45.2      83     91    -83    124    149  42.3 -41.4  33964  286.25 0855.51
2009/04/23 07:33:45.3     101     54    -63    115    131  61.6 -35.7  33962  286.24 0855.51
2009/04/23 07:33:45.4      68     67    -64     96    115  45.4 -40.4  33964  286.27 0855.51
2009/04/23 07:33:45.5      48     86    -63     99    117  29.0 -39.9  33962  286.24 0855.51
2009/04/23 07:33:45.6      29     88    -52     93    106  18.3 -35.8  33960  286.20 0855.51
2009/04/23 07:33:45.7      33     98    -21    104    107  18.7 -11.3  33962  286.24 0855.51
2009/04/23 07:33:45.8      31    116    -42    121    129  15.1 -19.1  33962  286.22 0855.51
2009/04/23 07:33:45.9      20     44    -99     49    110  24.5 -76.8  33962  286.22 0855.51
2009/04/23 07:33:46.0      24     54    -97     60    114  23.6 -69.1  33960  286.20 0855.51
2009/04/23 07:33:46.1      47     33     20     58     62  54.9  19.2  33964  286.27 0855.51
2009/04/23 07:33:46.2     147     -7     76    148    166  93.0  29.1  33962  286.24 0855.51
2009/04/23 07:33:46.3      55     39    134     68    150  54.9  71.0  33962  286.24 0855.51
2009/04/23 07:33:46.4      80     65    131    104    167  50.9  57.5  33960  286.20 0855.51
2009/04/23 07:33:46.5     107    100     97    147    176  46.9  36.5  33962  286.22 0855.51
2009/04/23 07:33:46.6     150    103    105    183    210  55.4  32.7  33960  286.19 0855.51
2009/04/23 07:33:46.7     187    117    105    221    244  58.0  27.2  33964  286.25 0855.51
2009/04/23 07:33:46.8     239    121    180    269    323  63.1  36.9  33962  286.23 0855.51
2009/04/23 07:33:46.9     190     85    126    209    244  65.8  34.0  33962  286.21 0855.51
2009/04/23 07:33:47.0     181     44     61    187    197  76.1  18.1  33964  286.25 0855.51
2009/04/23 07:33:47.1     188     26     57    190    199  82.1  16.8  33960  286.19 0855.51
2009/04/23 07:33:47.2     159     41    122    165    205  75.4  39.9  33962  286.24 0855.51
2009/04/23 07:33:47.3     149     15     77    150    168  83.9  29.3  33962  286.22 0855.51
2009/04/23 07:33:47.4     140     -6     83    141    163  92.6  33.5  33958  286.17 0855.51
2009/04/23 07:33:47.5     169    -44    159    175    236 104.8  47.0  33962  286.24 0855.51
2009/04/23 07:33:47.6     169    -80     66    188    200 115.5  19.4  33964  286.27 0855.51
2009/04/23 07:33:47.7     168    -48     33    175    179 106.2  10.8  33958  286.17 0855.51
2009/04/23 07:33:47.8     203    -36     73    207    220 100.1  19.4  33962  286.24 0855.51
2009/04/23 07:33:47.9     254      7     69    255    265  88.3  15.3  33966  286.28 0855.51
2009/04/23 07:33:48.0     257     56    -14    264    265  77.6  -3.1  33962  286.21 0855.51
2009/04/23 07:33:48.1     279     83     83    292    304  73.4  16.0  33964  286.25 0855.51
2009/04/23 07:33:48.2     326    166     79    366    375  63.0  12.3  33968  286.34 0855.51
2009/04/23 07:33:48.3     266    140    141    301    332  62.1  27.1  33964  286.26 0855.51
2009/04/23 07:33:48.4     232    128    129    265    294  61.1  27.8  33960  286.18 0855.51
2009/04/23 07:33:48.5     257     94     29    274    276  69.8   6.1  33960  286.18 0855.51
2009/04/23 07:33:48.6     218    115     35    247    250  62.0   8.2  33964  286.26 0855.51
2009/04/23 07:33:48.7     225     93      0    244    245  67.4   0.0  33960  286.18 0855.51
2009/04/23 07:33:48.8     215     77     79    229    243  70.1  19.2  33966  286.28 0855.51
2009/04/23 07:33:48.9     234     19     29    235    237  85.2   7.1  33964  286.25 0855.51
2009/04/23 07:33:49.0     171     63     25    183    185  69.8   8.0  33960  286.20 0855.51
2009/04/23 07:33:49.1     189     72     39    203    207  68.9  11.0  33964  286.27 0855.51
2009/04/23 07:33:49.2     159     72     24    175    177  65.4   8.0  33962  286.24 0855.51
2009/04/23 07:33:49.3     114     29     41    118    126  75.4  19.2  33964  286.25 0855.51
2009/04/23 07:33:49.4     122    159    -18    201    202  37.4  -5.4  33960  286.20 0855.51
2009/04/23 07:33:49.5     144    160    -57    216    224  42.1 -15.0  33962  286.24 0855.50
2009/04/23 07:33:49.6     125    162     -8    205    206  37.8  -2.2  33962  286.24 0855.50
2009/04/23 07:33:49.7     107    126    -11    166    167  40.3  -3.9  33964  286.25 0855.50
2009/04/23 07:33:49.8      87     94     -2    129    130  42.8  -1.2  33962  286.24 0855.50
2009/04/23 07:33:49.9      96     44     12    106    107  65.2   6.5  33964  286.25 0855.50
2009/04/23 07:33:50.0     110     29      2    114    115  74.9   1.2  33964  286.27 0855.50
2009/04/23 07:33:50.1      89     13     -2     91     92  81.2  -1.3  33964  286.27 0855.50
2009/04/23 07:33:50.2     133      6     54    134    144  87.4  23.0  33964  286.27 0855.50
2009/04/23 07:33:50.3     120     32     67    125    141  75.0  30.8  33964  286.25 0855.50
2009/04/23 07:33:50.4      82     27     63     87    107  71.4  39.7  33966  286.29 0855.50
2009/04/23 07:33:50.5      73     29     64     79    101  68.2  43.7  33964  286.27 0855.50
2009/04/23 07:33:50.6      70     -1     41     71     81  90.9  32.9  33964  286.27 0855.50
2009/04/23 07:33:50.7      62    -34     31     71     77 118.9  25.1  33962  286.24 0855.50
2009/04/23 07:33:50.8      74    -15     21     76     80 101.5  15.8  33962  286.24 0855.50
2009/04/23 07:33:50.9      99      0      5    100    101  89.6   3.3  33964  286.27 0855.50
2009/04/23 07:33:51.0      51    -10      9     53     54 101.5  10.1  33964  286.25 0855.50
2009/04/23 07:33:51.1      46    -21      0     51     52 114.4   0.8  33962  286.22 0855.50
2009/04/23 07:33:51.2      32    -27     -1     43     44 130.4  -2.2  33962  286.24 0855.50
2009/04/23 07:33:51.3      40    -19      2     45     46 116.2   2.9  33962  286.24 0855.50
2009/04/23 07:33:51.4      47     -3     -8     48     49  94.4 -10.3  33964  286.25 0855.50
2009/04/23 07:33:51.5      54    -15    -20     57     60 105.9 -23.3  33964  286.27 0855.49
2009/04/23 07:33:51.6      66    -14     -2     68     69 102.4  -2.2  33962  286.24 0855.49
2009/04/23 07:33:51.7      71      1      7     72     73  89.2   5.9  33964  286.25 0855.49
2009/04/23 07:33:51.8      74      0      9     75     76  90.0   6.9  33960  286.20 0855.49
2009/04/23 07:33:51.9     103     14      5    104    105  82.1   2.8  33962  286.22 0855.49
2009/04/23 07:33:52.1      81      0      2     82     83  90.0   1.8  33964  286.27 0855.49
2009/04/23 07:33:52.1      69      0     38     70     79  90.8  30.8  33962  286.22 0855.49
2009/04/23 07:33:52.2      72    -14     50     74     89 101.5  37.0  33964  286.27 0855.49
2009/04/23 07:33:52.3      44      3     70     45     83  85.6  64.1  33964  286.25 0855.49
2009/04/23 07:33:52.4       8    -12     50     15     52 147.4  82.8  33960  286.20 0855.49
2009/04/23 07:33:52.5     -28     13     31     31     43 295.2  50.1  33966  286.29 0855.49
2009/04/23 07:33:52.7      11      7     33     14     35  57.6  77.1  33964  286.27 0855.49
2009/04/23 07:33:52.7      10      9     18     14     22  46.9  56.4  33966  286.29 0855.49
2009/04/23 07:33:52.9     -26      0     19     27     33 270.0  39.7  33964  286.27 0855.49
2009/04/23 07:33:53.0       0    -10     41     11     42 182.7  84.9  33964  286.25 0855.49
2009/04/23 07:33:53.1       3    -45     15     46     49 175.5  18.9  33964  286.25 0855.49
2009/04/23 07:33:53.2      17    -22      2     28     29 142.2   4.9  33962  286.24 0855.49
2009/04/23 07:33:53.3      18    -34      5     39     40 151.0   8.0  33962  286.22 0855.49
2009/04/23 07:33:53.4      -9    -27      0     29     30 198.7  -1.3  33960  286.20 0855.49
2009/04/23 07:33:53.5      -4     -7     -5      9     10 212.5 -35.8  33960  286.19 0855.49
2009/04/23 07:33:53.6      13    -21     -1     25     26 147.5  -2.2  33960  286.19 0855.50
2009/04/23 07:33:53.7       6    -14      9     16     18 154.6  31.4  33958  286.17 0855.50
2009/04/23 07:33:53.8     -12    -14     13     19     23 221.4  39.7  33962  286.24 0855.50
2009/04/23 07:33:53.9     -15     35     36     39     53 336.4  47.9  33958  286.15 0855.50
2009/04/23 07:33:54.0     -47     72     42     87     96 327.0  27.3  33958  286.17 0855.50
2009/04/23 07:33:54.1     -71     45     23     85     89 302.4  15.3  33960  286.19 0855.50
2009/04/23 07:33:54.3    -115     26      9    118    119 282.8   4.4  33956  286.12 0855.50
2009/04/23 07:33:54.4    -100     22     44    103    112 282.4  24.1  33956  286.14 0855.50
2009/04/23 07:33:54.5    -104     41     53    113    124 291.8  27.1  33956  286.14 0855.50
2009/04/23 07:33:54.6    -111     48     46    122    130 293.5  21.5  33958  286.17 0855.50
2009/04/23 07:33:54.7    -144      5     49    145    154 272.1  18.9  33958  286.17 0855.50
2009/04/23 07:33:54.8    -133     -7     27    134    137 267.0  11.6  33958  286.15 0855.50
2009/04/23 07:33:54.9    -136     15     25    137    140 276.6  10.6  33956  286.14 0855.50
2009/04/23 07:33:55.0    -167     20     19    169    171 276.8   6.5  33956  286.14 0855.50
2009/04/23 07:33:55.1    -192     14     20    193    195 274.4   6.1  33958  286.17 0855.50
2009/04/23 07:33:55.2    -179     22      7    181    182 277.2   2.5  33958  286.17 0855.50
2009/04/23 07:33:55.3    -141    -22     53    143    152 260.8  21.0  33954  286.08 0855.50
2009/04/23 07:33:55.4    -127    -67     74    144    161 242.0  29.3  33954  286.08 0855.50
2009/04/23 07:33:55.5     -52    -91     72    106    128 209.9  37.6  33954  286.10 0855.50
2009/04/23 07:33:55.6     -90    -30     19     96     99 251.4  11.6  33952  286.07 0855.49
2009/04/23 07:33:55.7    -124    -40    -36    131    136 251.8 -15.5  33952  286.05 0855.49
2009/04/23 07:33:55.8    -122    -30    -16    126    128 255.8  -7.3  33954  286.08 0855.49
2009/04/23 07:33:55.9    -112    -22      5    115    116 258.6   2.8  33952  286.05 0855.49
2009/04/23 07:33:56.0    -124    -45      5    133    134 250.0   2.3  33948  286.00 0855.49
2009/04/23 07:33:56.1    -126    -80     54    150    159 237.5  20.4  33948  285.98 0855.49
2009/04/23 07:33:56.2    -119    -98     35    155    160 230.5  12.9  33946  285.97 0855.49
2009/04/23 07:33:56.3    -104   -109     30    151    155 223.7  11.4  33944  285.92 0855.49
2009/04/23 07:33:56.4     -78   -103     25    130    133 217.4  11.1  33942  285.90 0855.49
2009/04/23 07:33:56.5     -86    -86     -6    123    124 225.0  -3.2  33946  285.97 0855.49
2009/04/23 07:33:56.6     -76    -77     -6    109    110 224.7  -3.1  33948  285.98 0855.49
2009/04/23 07:33:56.7    -105   -101    -18    146    148 226.0  -7.2  33944  285.92 0855.49
2009/04/23 07:33:56.8    -139   -115     -4    181    182 230.2  -1.3  33942  285.90 0855.49
2009/04/23 07:33:56.9    -144   -123     -1    190    191 229.3  -0.5  33944  285.92 0855.49
2009/04/23 07:33:57.0    -128   -121     -9    177    178 226.7  -3.1  33942  285.90 0855.49
2009/04/23 07:33:57.1    -138    -71    -52    156    164 242.9 -23.6  33946  285.97 0855.49
2009/04/23 07:33:57.2    -118    -64    -47    135    142 241.6 -23.8  33946  285.95 0855.49
2009/04/23 07:33:57.3    -160    -34    -15    164    165 257.8  -5.4  33950  286.02 0855.49
2009/04/23 07:33:57.4    -125    -68    -53    143    152 241.2 -25.4  33948  286.00 0855.49
2009/04/23 07:33:57.5    -123    -58    -22    137    139 244.8  -9.4  33948  286.00 0855.49
2009/04/23 07:33:57.6    -116    -86     -8    145    146 233.6  -3.2  33950  286.03 0855.49
2009/04/23 07:33:57.7    -109    -96     17    146    148 228.7   6.9  33956  286.12 0855.49
2009/04/23 07:33:57.8     -61    -98     59    116    130 212.1  29.2  33952  286.05 0855.49
2009/04/23 07:33:57.9     -64    -54     52     84     98 230.0  35.0  33952  286.07 0855.49
2009/04/23 07:33:58.0     -73    -46     -4     87     88 238.0  -3.1  33952  286.05 0855.49
2009/04/23 07:33:58.1     -67   -101     95    122    154 213.8  41.7  33954  286.08 0855.49
2009/04/23 07:33:58.2     -22   -133     92    135    163 189.7  37.3  33956  286.12 0855.49
2009/04/23 07:33:58.3     -32   -146     86    150    172 192.5  32.7  33948  286.00 0855.49
2009/04/23 07:33:58.4     -73   -168     41    184    189 203.4  12.6  33946  285.97 0855.49
2009/04/23 07:33:58.5     -75   -134     33    154    158 209.4  12.4  33946  285.97 0855.49
2009/04/23 07:33:58.6     -67   -163     95    177    200 202.5  30.6  33942  285.90 0855.48
2009/04/23 07:33:58.7     -48   -146     85    154    175 198.3  31.4  33944  285.92 0855.48
2009/04/23 07:33:58.8     -41   -103     36    111    117 201.9  18.4  33942  285.90 0855.48
2009/04/23 07:33:58.9     -52   -119     35    130    135 203.6  15.2  33948  285.98 0855.48
2009/04/23 07:33:59.0     -71   -113     66    134    149 212.5  27.8  33944  285.92 0855.48
2009/04/23 07:33:59.1     -64    -95     72    115    135 214.3  35.5  33942  285.88 0855.48
2009/04/23 07:33:59.2     -51    -84     73     99    123 211.2  39.7  33942  285.88 0855.48
2009/04/23 07:33:59.3     -57    -76     45     96    106 217.0  27.1  33946  285.97 0855.48
2009/04/23 07:33:59.4    -126    -47     36    135    140 249.2  15.2  33948  285.98 0855.48
2009/04/23 07:33:59.5    -116    -55      1    129    130 244.6   0.8  33948  286.00 0855.48
2009/04/23 07:33:59.6    -102    -78     19    129    131 232.7   8.5  33948  285.98 0855.48
2009/04/23 07:33:59.7     -56    -67     50     88    101 219.6  31.9  33956  286.12 0855.48
2009/04/23 07:33:59.8     -55    -77     61     95    112 215.6  35.6  33958  286.17 0855.48
2009/04/23 07:33:59.9     -68    -72     71    100    122 223.2  39.1  33958  286.15 0855.48
2009/04/23 07:34:00.0     -60    -78     56     99    113 217.8  31.9  33958  286.17 0855.48
2009/04/23 07:34:00.1     -67    -70     52     98    110 223.7  30.3  33958  286.17 0855.48
2009/04/23 07:34:00.2     -82    -93     30    125    129 221.4  13.7  33956  286.12 0855.48
2009/04/23 07:34:00.3     -85    -78     43    116    123 227.3  21.0  33952  286.07 0855.48
2009/04/23 07:34:00.4     -82    -92     42    124    132 221.4  18.9  33956  286.14 0855.48
2009/04/23 07:34:00.5     -37    -87     65     95    115 203.2  37.6  33958  286.17 0855.48
2009/04/23 07:34:00.6     -18   -102     82    104    132 190.2  42.7  33958  286.17 0855.49
2009/04/23 07:34:00.7     -30    -91     77     96    123 198.3  43.3  33958  286.15 0855.49
2009/04/23 07:34:00.8     -50    -72     70     88    112 214.7  43.7  33960  286.19 0855.49
2009/04/23 07:34:00.9     -42    -88     73     98    122 205.5  40.7  33956  286.12 0855.49
2009/04/23 07:34:01.0     -51    -86     77    101    127 210.7  41.7  33956  286.12 0855.49
2009/04/23 07:34:01.1     -47    -98     78    109    134 205.9  39.1  33956  286.12 0855.49
2009/04/23 07:34:01.2     -66    -91     38    113    120 216.1  18.9  33952  286.07 0855.49
2009/04/23 07:34:01.3     -35    -61     95     71    118 209.9  59.4  33954  286.08 0855.49
2009/04/23 07:34:01.4     -34    -27     83     44     93 232.2  69.8  33954  286.10 0855.49
2009/04/23 07:34:01.5     -60    -62     86     87    122 223.7  50.0  33950  286.03 0855.49
2009/04/23 07:34:01.6     -91    -75     41    118    126 230.5  19.2  33946  285.97 0855.49
2009/04/23 07:34:01.7     -70    -75     53    103    115 223.2  29.3  33952  286.07 0855.49
2009/04/23 07:34:01.8     -82    -83     54    117    128 224.5  26.6  33950  286.02 0855.49
2009/04/23 07:34:01.9     -82    -83     32    117    122 224.5  15.3  33948  286.00 0855.49
2009/04/23 07:34:02.0     -57    -59     29     83     88 224.1  19.4  33948  286.00 0855.49
2009/04/23 07:34:02.1     -54     -7     54     55     77 262.1  51.1  33954  286.08 0855.49
2009/04/23 07:34:02.2     -48     19     40     52     65 291.7  41.7  33956  286.14 0855.49
2009/04/23 07:34:02.3     -45     15     42     48     63 288.4  46.9  33956  286.12 0855.49
2009/04/23 07:34:02.4     -32    -40     63     52     81 218.7  56.4  33954  286.10 0855.49
2009/04/23 07:34:02.5     -36    -31     38     48     61 228.7  43.7  33956  286.12 0855.49
2009/04/23 07:34:02.6       2    -38     51     39     64 175.6  59.4  33956  286.12 0855.49
2009/04/23 07:34:02.7      13    -21     47     26     53 147.5  68.8  33954  286.10 0855.49
2009/04/23 07:34:02.8     -21    -32     18     39     42 214.3  26.2  33954  286.08 0855.49
2009/04/23 07:34:02.9     -33    -26     21     43     47 232.2  28.2  33952  286.05 0855.49
2009/04/23 07:34:03.0     -91     23     32     94    100 284.2  18.9  33952  286.05 0855.49
2009/04/23 07:34:03.1    -141     -8     44    142    149 266.5  17.3  33946  285.95 0855.49
2009/04/23 07:34:03.2    -144    -32     57    148    158 257.2  22.0  33950  286.02 0855.49
2009/04/23 07:34:03.3    -139      7     32    140    144 273.0  13.1  33950  286.02 0855.49
2009/04/23 07:34:03.4    -116    -31     56    121    133 254.9  26.6  33948  286.00 0855.49
2009/04/23 07:34:03.5     -72    -72     64    102    120 225.1  35.5  33952  286.07 0855.49
2009/04/23 07:34:03.6     -41    -43     65     60     88 224.2  52.2  33952  286.05 0855.49
2009/04/23 07:34:03.7     -38    -24     71     45     84 237.6  64.7  33954  286.08 0855.49
2009/04/23 07:34:03.8     -25     -5     54     26     59 258.5  72.8  33952  286.07 0855.49
2009/04/23 07:34:03.9     -48     12     26     50     56 284.2  29.3  33950  286.03 0855.49
2009/04/23 07:34:04.0     -64      8      9     65     66 277.9   8.0  33948  286.00 0855.49
2009/04/23 07:34:04.1     -66      4     -1     67     68 273.5  -1.3  33952  286.05 0855.49
2009/04/23 07:34:04.2     -57      1      6     58     59 271.7   5.9  33950  286.03 0855.49
2009/04/23 07:34:04.3      -5    -10     40     12     41 209.0  82.8  33950  286.03 0855.49
2009/04/23 07:34:04.4       8    -26     30     28     41 161.7  51.2  33950  286.02 0855.49
2009/04/23 07:34:04.5      -7    -46     17     47     49 189.8  20.0  33950  286.03 0855.49
2009/04/23 07:34:04.6      -5    -47      3     48     49 187.1   3.8  33952  286.05 0855.49
2009/04/23 07:34:04.7      33    -40      2     52     53 140.4   2.9  33950  286.03 0855.49
2009/04/23 07:34:04.8      45    -55     16     72     74 140.3  13.2  33952  286.07 0855.49
2009/04/23 07:34:04.9      55    -71     -3     90     91 142.2  -2.2  33954  286.08 0855.49
2009/04/23 07:34:05.0      23    -69     -9     73     74 161.3  -7.2  33950  286.02 0855.49
2009/04/23 07:34:05.1     -17    -65     24     68     73 195.1  19.4  33952  286.07 0855.49
2009/04/23 07:34:05.2     -21    -81    -24     84     88 194.7 -16.0  33952  286.05 0855.49
2009/04/23 07:34:05.3      16   -115     -2    117    118 172.0  -1.3  33952  286.05 0855.49
2009/04/23 07:34:05.4      20   -103    -18    105    107 168.9  -9.8  33956  286.14 0855.49
2009/04/23 07:34:05.5       3    -60    -11     61     63 176.4 -10.3  33954  286.08 0855.49
2009/04/23 07:34:05.6     -47    -55    -29     73     78 220.5 -26.9  33954  286.10 0855.49
2009/04/23 07:34:05.7    -107    -68    -16    127    129 237.6  -7.3  33948  285.98 0855.49
2009/04/23 07:34:05.8    -111    -61    -16    127    129 241.1  -7.3  33946  285.97 0855.49
2009/04/23 07:34:05.9    -102    -91    -17    138    140 228.2  -7.3  33948  285.98 0855.49
2009/04/23 07:34:06.0    -103    -71    -12    126    127 235.4  -5.6  33946  285.97 0855.49
2009/04/23 07:34:06.1     -83    -36     -2     91     92 246.5  -1.3  33946  285.95 0855.49
2009/04/23 07:34:06.2     -61    -84     35    104    110 216.1  18.9  33948  286.00 0855.49
2009/04/23 07:34:06.3    -105    -74     35    129    134 234.9  15.3  33944  285.92 0855.49
2009/04/23 07:34:06.4     -85    -68      7    110    111 231.4   3.8  33942  285.90 0855.49
2009/04/23 07:34:06.5     -34    -59      9     69     70 209.9   8.0  33946  285.95 0855.49
2009/04/23 07:34:06.6     -40    -63      9     75     76 212.6   7.1  33944  285.92 0855.49
2009/04/23 07:34:06.7     -33    -60     34     69     76 209.0  27.3  33944  285.92 0855.49
2009/04/23 07:34:06.8       7    -50     68     51     85 171.1  59.4  33948  285.98 0855.49
2009/04/23 07:34:06.9      24    -87     61     91    109 164.4  37.0  33950  286.02 0855.49
2009/04/23 07:34:07.0      11    -72      8     73     74 171.1   6.9  33952  286.05 0855.49
2009/04/23 07:34:07.1      15    -45    -31     48     57 161.5 -40.0  33950  286.02 0855.49
2009/04/23 07:34:07.2      23    -64    -24     69     74 160.0 -19.7  33948  286.00 0855.49
2009/04/23 07:34:07.3       0    -56      2     57     58 180.9   2.9  33950  286.03 0855.49
2009/04/23 07:34:07.4     -27    -67     34     73     80 201.8  26.6  33950  286.02 0855.49
2009/04/23 07:34:07.5     -43    -77     12     89     90 209.4   8.0  33952  286.07 0855.49
2009/04/23 07:34:07.6     -31   -132      6    136    137 193.3   2.8  33952  286.07 0855.49
2009/04/23 07:34:07.7      -3   -127     11    128    129 181.8   5.0  33952  286.07 0855.49
2009/04/23 07:34:07.8      14   -132     -4    133    134 173.8  -1.8  33956  286.12 0855.49
2009/04/23 07:34:07.9     -23   -114      5    117    118 191.5   2.9  33956  286.14 0855.49
2009/04/23 07:34:08.0     -27   -115     38    119    126 193.3  17.9  33952  286.07 0855.49
2009/04/23 07:34:08.1     -23   -139     21    142    144 189.7   8.5  33958  286.17 0855.49
2009/04/23 07:34:08.2     -16   -148     -4    149    150 186.3  -1.8  33954  286.10 0855.49
2009/04/23 07:34:08.3     -28   -163     21    166    168 190.0   7.5  33952  286.07 0855.49
2009/04/23 07:34:08.4     -61   -130     43    144    151 205.4  16.8  33954  286.08 0855.49
2009/04/23 07:34:08.5     -44    -87     23     98    101 207.2  13.2  33956  286.12 0855.49
2009/04/23 07:34:08.6     -48   -123     -5    133    134 201.4  -2.2  33956  286.14 0855.48
2009/04/23 07:34:08.7     -32   -157    -19    161    163 191.6  -6.7  33958  286.17 0855.48
2009/04/23 07:34:08.8     -41   -182    -53    187    194 192.9 -20.7  33950  286.03 0855.48
2009/04/23 07:34:08.9      -2   -149    -30    150    154 180.9 -11.3  33956  286.14 0855.48
2009/04/23 07:34:09.0     -22   -126     40    129    136 190.2  17.4  33948  286.00 0855.48
2009/04/23 07:34:09.1     -46    -96     68    107    126 205.5  35.5  33952  286.07 0855.48
2009/04/23 07:34:09.2     -55    -99     71    114    134 208.9  35.5  33954  286.08 0855.48
2009/04/23 07:34:09.3     -44   -127     46    135    143 199.2  18.9  33952  286.05 0855.48
2009/04/23 07:34:09.4     -61   -146     42    159    165 202.9  15.0  33954  286.08 0855.48
2009/04/23 07:34:09.5     -34   -201     48    204    210 189.6  13.2  33952  286.05 0855.48
2009/04/23 07:34:09.6      18   -237      0    238    239 175.5   0.2  33954  286.08 0855.48
2009/04/23 07:34:09.7      29   -207    -16    210    211 171.9  -4.4  33954  286.08 0855.48
2009/04/23 07:34:09.8       4   -167     -6    168    169 178.4  -2.1  33958  286.15 0855.48
2009/04/23 07:34:09.9     -15   -146     12    147    148 186.2   4.9  33960  286.19 0855.48
2009/04/23 07:34:10.0     -17   -164     81    165    183 186.0  28.0  33958  286.15 0855.48
2009/04/23 07:34:10.1      12   -256    132    257    288 177.3  29.3  33962  286.21 0855.48
2009/04/23 07:34:10.2      10   -278    128    279    306 177.8  26.4  33964  286.25 0855.48
2009/04/23 07:34:10.3      67   -221    143    232    272 163.0  35.0  33960  286.20 0855.48
2009/04/23 07:34:10.4      63   -211    165    221    275 163.3  40.6  33964  286.26 0855.48
2009/04/23 07:34:10.5     121   -206    156    240    286 149.5  36.0  33962  286.23 0855.48
2009/04/23 07:34:10.6      49   -207    161    213    267 166.6  40.7  33960  286.20 0855.48
2009/04/23 07:34:10.7      38   -127     87    133    158 163.1  36.5  33954  286.10 0855.48
2009/04/23 07:34:10.8       7    -99     28    100    104 175.5  15.8  33958  286.15 0855.48
2009/04/23 07:34:10.9       5   -178     16    179    180 178.4   5.4  33954  286.08 0855.48
2009/04/23 07:34:11.0     -14   -183     -3    184    185 184.5  -1.2  33956  286.14 0855.48
2009/04/23 07:34:11.1     -34   -161     -6    165    166 192.0  -2.2  33956  286.14 0855.48
2009/04/23 07:34:11.2     -24   -180     27    182    185 187.6   8.5  33954  286.08 0855.48
2009/04/23 07:34:11.3     -21   -175      5    177    178 186.9   1.8  33956  286.14 0855.48
2009/04/23 07:34:11.4      -7   -131     70    132    149 183.1  30.3  33952  286.07 0855.48
2009/04/23 07:34:11.5       0   -109     35    110    116 180.4  17.9  33954  286.10 0855.48
2009/04/23 07:34:11.6     -24   -198     47    200    206 187.1  13.2  33956  286.12 0855.48
2009/04/23 07:34:11.7     -65   -153     84    167    186 203.2  28.2  33954  286.08 0855.48
2009/04/23 07:34:11.8     -38   -130    114    136    177 196.5  44.3  33952  286.05 0855.48
2009/04/23 07:34:11.9     -40   -150    125    156    199 195.1  42.7  33952  286.07 0855.48
2009/04/23 07:34:12.0     -42   -198    113    203    232 192.0  31.4  33956  286.12 0855.48
2009/04/23 07:34:12.1     -67   -171    116    184    217 201.6  35.5  33950  286.03 0855.48
2009/04/23 07:34:12.2     -41   -188    118    193    226 192.3  34.4  33954  286.08 0855.48
2009/04/23 07:34:12.3     -68   -200    107    212    237 198.9  29.1  33960  286.20 0855.48
2009/04/23 07:34:12.4     -45   -163    124    170    210 195.4  39.7  33960  286.19 0855.48
2009/04/23 07:34:12.5     -25   -169    122    171    210 188.5  39.1  33962  286.22 0855.48
2009/04/23 07:34:12.6     -15   -132    143    133    195 186.7  52.2  33962  286.22 0855.48
2009/04/23 07:34:12.7       1   -143    103    144    177 179.5  39.5  33962  286.22 0855.48
2009/04/23 07:34:12.8     -16   -167     90    168    190 185.8  30.6  33962  286.22 0855.48
2009/04/23 07:34:12.9     -24   -180    104    182    209 187.8  32.4  33962  286.24 0855.48
2009/04/23 07:34:13.0     -20   -181    103    183    209 186.5  31.9  33964  286.27 0855.48
2009/04/23 07:34:13.1     -11   -167    108    168    199 183.8  35.7  33962  286.22 0855.48
2009/04/23 07:34:13.2      35   -151    126    156    200 166.7  43.3  33962  286.22 0855.48
2009/04/23 07:34:13.3      40   -131    104    138    172 163.1  40.9  33962  286.22 0855.48
2009/04/23 07:34:13.4       8   -149    128    150    197 176.9  45.1  33964  286.25 0855.48
2009/04/23 07:34:13.5      14   -157    144    158    213 174.7  47.5  33966  286.29 0855.48
2009/04/23 07:34:13.6      -3   -157    115    158    195 181.4  39.7  33962  286.24 0855.48
2009/04/23 07:34:13.7     -38   -189    111    193    222 191.6  32.7  33960  286.20 0855.48
2009/04/23 07:34:13.8      -2   -156     74    157    173 180.9  27.1  33962  286.24 0855.48
2009/04/23 07:34:13.9      29   -169     33    172    176 170.0  11.1  33964  286.25 0855.48
2009/04/23 07:34:14.0       0   -179     21    180    182 180.0   6.9  33964  286.25 0855.48
2009/04/23 07:34:14.1      18   -195      9    196    197 174.7   2.8  33962  286.24 0855.48
2009/04/23 07:34:14.2      40   -178     22    183    185 167.1   6.9  33962  286.22 0855.48
2009/04/23 07:34:14.3      54   -159     66    169    181 161.1  22.5  33960  286.19 0855.48
2009/04/23 07:34:14.4      83   -184    132    202    241 155.7  36.3  33962  286.24 0855.48
2009/04/23 07:34:14.5      89   -148    139    173    221 148.8  43.3  33960  286.20 0855.48
2009/04/23 07:34:14.6      85   -158    100    180    205 151.7  31.4  33964  286.27 0855.48
2009/04/23 07:34:14.7      64   -204     87    214    231 162.6  23.1  33962  286.22 0855.48
2009/04/23 07:34:14.8      38   -189     80    193    208 168.5  23.6  33962  286.24 0855.48
2009/04/23 07:34:14.9       4   -204    137    205    246 178.6  36.7  33964  286.25 0855.48
2009/04/23 07:34:15.0      20   -169    132    171    216 173.1  41.7  33962  286.24 0855.48
2009/04/23 07:34:15.1      30   -150    131    154    202 168.5  44.8  33966  286.29 0855.48
2009/04/23 07:34:15.2     -31   -173    128    176    217 190.2  39.7  33964  286.27 0855.48
2009/04/23 07:34:15.3     -29   -168    146    171    224 190.0  44.5  33962  286.24 0855.48
2009/04/23 07:34:15.4     -10   -163    184    164    246 183.6  53.7  33958  286.17 0855.48
2009/04/23 07:34:15.5     -66   -199    125    210    244 198.5  33.5  33962  286.23 0855.48
2009/04/23 07:34:15.6     -85   -223     75    239    251 201.0  17.4  33962  286.21 0855.48
2009/04/23 07:34:15.7    -138   -259     51    294    299 208.1   9.9  33962  286.23 0855.48
2009/04/23 07:34:15.8     -91   -254     99    270    287 199.8  21.0  33962  286.23 0855.48
2009/04/23 07:34:15.9     -78   -227     69    241    251 199.1  16.0  33962  286.23 0855.48
2009/04/23 07:34:16.0     -54   -259     51    265    270 191.8  11.0  33964  286.25 0855.48
2009/04/23 07:34:16.1     -76   -255     42    267    271 196.7   9.0  33956  286.11 0855.48
2009/04/23 07:34:16.2     -27   -160    148    163    220 189.6  47.1  33962  286.22 0855.48
2009/04/23 07:34:16.3     -41   -155    130    161    206 195.1  43.5  33964  286.25 0855.48
2009/04/23 07:34:16.4     -44   -167    115    173    207 195.1  36.7  33962  286.24 0855.48
2009/04/23 07:34:16.5     -70   -173    116    187    220 202.1  35.0  33960  286.20 0855.48
2009/04/23 07:34:16.6     -67   -128     46    145    153 207.6  17.7  33956  286.12 0855.48
2009/04/23 07:34:16.7     -39    -93     73    101    124 202.7  39.5  33958  286.17 0855.48
2009/04/23 07:34:16.8     -21   -113    114    116    162 190.7  50.0  33960  286.20 0855.48
2009/04/23 07:34:16.9     -10    -86    122     87    149 186.7  60.6  33958  286.17 0855.48
2009/04/23 07:34:17.0      -9    -96    123     97    156 185.8  57.7  33960  286.20 0855.48
2009/04/23 07:34:17.1      34    -99    112    105    153 160.8  52.1  33960  286.20 0855.48
2009/04/23 07:34:17.2      22    -95     88     98    131 166.6  46.9  33962  286.24 0855.48
2009/04/23 07:34:17.3      -4    -99    100    100    141 182.7  50.1  33956  286.12 0855.48
2009/04/23 07:34:17.4     -52   -142    157    152    218 200.1  50.9  33958  286.17 0855.48
2009/04/23 07:34:17.5     -80   -126    151    150    212 212.5  50.1  33964  286.25 0855.48
2009/04/23 07:34:17.7     -71   -148    130    165    210 205.6  42.2  33964  286.25 0855.48
2009/04/23 07:34:17.7     -56   -137     48    149    157 202.3  17.9  33962  286.24 0855.48
2009/04/23 07:34:17.8     -55    -89     66    105    124 211.6  35.5  33962  286.22 0855.48
2009/04/23 07:34:17.9     -29   -111    127    115    171 194.7  53.3  33964  286.25 0855.48
2009/04/23 07:34:18.0     -11   -152     97    153    181 184.5  35.5  33962  286.24 0855.48
2009/04/23 07:34:18.1     -23   -177     22    179    181 187.6   7.2  33962  286.24 0855.48
2009/04/23 07:34:18.3     -25   -146     79    149    168 189.8  30.3  33962  286.24 0855.48
2009/04/23 07:34:18.3      11   -173    120    174    211 176.2  37.6  33962  286.24 0855.48
2009/04/23 07:34:18.4      17   -228    137    229    266 175.6  33.7  33964  286.26 0855.48
2009/04/23 07:34:18.5      -7   -191    126    192    229 182.2  36.3  33964  286.25 0855.48
2009/04/23 07:34:18.6     -42   -209    129    214    249 191.3  34.0  33958  286.16 0855.48
2009/04/23 07:34:18.7      10   -217     77    218    232 177.3  19.6  33964  286.25 0855.48
2009/04/23 07:34:18.9     -12   -256      2    257    258 182.7   0.5  33970  286.35 0855.48
2009/04/23 07:34:19.0     -41   -265      3    269    270 188.9   0.8  33964  286.25 0855.48
2009/04/23 07:34:19.1     -70   -236    -25    247    249 196.7  -6.0  33964  286.26 0855.48
2009/04/23 07:34:19.2       9   -127    109    128    168 175.5  44.8  33964  286.25 0855.48
2009/04/23 07:34:19.3      29    -82     96     88    130 160.4  52.7  33964  286.27 0855.48
2009/04/23 07:34:19.4      91    -96    114    133    175 136.7  44.8  33962  286.24 0855.48
2009/04/23 07:34:19.5      13   -202    112    203    231 176.2  31.4  33960  286.20 0855.48
2009/04/23 07:34:19.6      -3   -229    146    230    272 180.9  35.5  33964  286.25 0855.48
2009/04/23 07:34:19.7      -4   -240    106    241    263 181.0  25.1  33962  286.21 0855.48
2009/04/23 07:34:19.8      -2   -172     91    173    195 180.9  29.8  33962  286.24 0855.48
2009/04/23 07:34:19.9     -15   -167     92    168    191 185.3  31.3  33962  286.24 0855.48
2009/04/23 07:34:20.0       3   -202     41    203    208 179.1  11.6  33964  286.25 0855.48
2009/04/23 07:34:20.1      22   -214     40    216    220 174.0  10.6  33964  286.25 0855.48
2009/04/23 07:34:20.2      42   -231     85    235    249 169.5  20.7  33966  286.28 0855.48
2009/04/23 07:34:20.3      16   -216     74    217    230 175.6  18.9  33964  286.25 0855.48
2009/04/23 07:34:20.4      24   -239    108    241    264 174.2  26.2  33962  286.21 0855.48
2009/04/23 07:34:20.5      -7   -177    101    178    204 182.5  32.1  33960  286.19 0855.48
2009/04/23 07:34:20.6      -7   -182     96    183    206 182.5  29.5  33964  286.25 0855.48
2009/04/23 07:34:20.7      -1   -133     79    134    155 180.5  33.5  33962  286.24 0855.48
2009/04/23 07:34:20.8       0    -86     66     87    109 180.4  41.2  33962  286.24 0855.48
2009/04/23 07:34:20.9      32    -65     74     73    103 153.7  49.7  33960  286.20 0855.48
2009/04/23 07:34:21.0      12   -110     79    111    136 173.3  39.1  33964  286.25 0855.48
2009/04/23 07:34:21.1       0    -93    102     94    138 180.4  52.2  33962  286.24 0855.48
2009/04/23 07:34:21.2      19   -127     86    129    155 171.1  36.0  33962  286.22 0855.48
2009/04/23 07:34:21.3      24   -143     89    146    170 170.3  34.4  33962  286.24 0855.48
2009/04/23 07:34:21.4      -8   -184     67    185    196 182.7  21.0  33962  286.22 0855.48
2009/04/23 07:34:21.5       0   -195     38    196    200 180.2  11.1  33962  286.24 0855.48
2009/04/23 07:34:21.6     -22   -187     42    189    194 186.7  12.6  33962  286.24 0855.48
2009/04/23 07:34:21.7       3   -235     56    236    243 179.1  13.5  33964  286.25 0855.48
2009/04/23 07:34:21.8     -18   -230     41    231    235 184.5  10.1  33960  286.20 0855.48
2009/04/23 07:34:21.9       0   -181     48    182    189 180.0  15.0  33960  286.19 0855.48
2009/04/23 07:34:22.0     -11   -152     59    153    163 184.5  22.0  33962  286.24 0855.48
2009/04/23 07:34:22.1     -70   -194     38    207    211 199.8  10.6  33956  286.14 0855.48
2009/04/23 07:34:22.2     -36   -189      9    193    194 190.9   2.9  33960  286.19 0855.48
2009/04/23 07:34:22.3      16   -227      9    228    229 175.8   2.3  33962  286.22 0855.48
2009/04/23 07:34:22.4      -6   -203     21    204    206 181.8   5.9  33958  286.17 0855.48
2009/04/23 07:34:22.5     -52   -168      1    177    178 197.4   0.5  33960  286.19 0855.48
2009/04/23 07:34:22.6     -47   -135    -15    144    145 199.2  -6.2  33958  286.17 0855.48
2009/04/23 07:34:22.7     -31   -104    -24    109    112 196.9 -12.4  33960  286.19 0855.48
2009/04/23 07:34:22.8       1   -100    -11    101    102 179.1  -6.7  33958  286.17 0855.48
2009/04/23 07:34:22.9      11    -71     27     72     76 171.1  20.0  33960  286.19 0855.48
2009/04/23 07:34:23.0       8    -25     68     27     73 161.3  77.1  33966  286.30 0855.48
2009/04/23 07:34:23.1      86    -31     65     92    112 110.0  39.1  33964  286.27 0855.48
2009/04/23 07:34:23.2     114   -101     75    153    170 131.4  28.0  33966  286.30 0855.48
2009/04/23 07:34:23.3     104   -103     55    147    156 134.8  21.5  33964  286.27 0855.48
2009/04/23 07:34:23.4     143    -47     57    151    161 108.4  21.7  33962  286.24 0855.48
2009/04/23 07:34:23.5     147    -66     98    162    189 114.4  34.2  33964  286.27 0855.48
2009/04/23 07:34:23.6      77    -93     27    122    126 140.4  12.6  33962  286.22 0855.48
2009/04/23 07:34:23.7      68    -52     23     86     90 127.3  15.3  33962  286.22 0855.49
2009/04/23 07:34:23.8      23    -48      2     54     55 154.5   2.9  33966  286.29 0855.49
2009/04/23 07:34:23.9      20    -64     10     68     69 162.2   9.0  33964  286.25 0855.49
2009/04/23 07:34:24.0      11    -88     46     89    100 172.4  29.3  33966  286.30 0855.49
2009/04/23 07:34:24.1      24   -117     65    120    136 168.4  30.8  33962  286.24 0855.49
2009/04/23 07:34:24.2      35   -134     47    139    147 165.3  18.9  33962  286.22 0855.49
2009/04/23 07:34:24.3      41   -103     45    112    120 158.1  23.0  33964  286.25 0855.49
2009/04/23 07:34:24.4      26    -89     -3     93     94 163.5  -2.2  33962  286.24 0855.49
2009/04/23 07:34:24.5      23    -70      6     74     75 161.3   4.9  33960  286.19 0855.49
2009/04/23 07:34:24.6      25    -77     13     82     84 161.7   9.5  33960  286.20 0855.49
2009/04/23 07:34:24.7      43    -68     12     81     83 147.5   9.0  33962  286.22 0855.49
2009/04/23 07:34:24.8      40    -71     46     82     94 150.1  32.4  33960  286.20 0855.49
2009/04/23 07:34:24.9     171    -23     63    173    184  97.9  20.7  33964  286.25 0855.49
2009/04/23 07:34:25.0      91   -125     31    155    159 144.0  11.4  33964  286.25 0855.49
2009/04/23 07:34:25.1     106   -151     65    185    197 144.8  19.4  33964  286.25 0855.49
2009/04/23 07:34:25.2     111   -153    101    190    215 144.0  30.3  33964  286.25 0855.49
2009/04/23 07:34:25.3      79   -134    125    156    199 149.3  42.7  33964  286.27 0855.49
2009/04/23 07:34:25.4     107   -135    120    173    210 141.5  38.0  33964  286.27 0855.49
2009/04/23 07:34:25.5     121   -132    116    180    214 137.5  35.6  33964  286.27 0855.49
2009/04/23 07:34:25.6      56   -153    143    164    217 159.9  45.8  33968  286.32 0855.49
2009/04/23 07:34:25.7     105   -176    142    206    250 149.2  37.8  33966  286.30 0855.49
2009/04/23 07:34:25.8      99   -145    132    176    220 145.7  40.7  33964  286.25 0855.49
2009/04/23 07:34:25.9      99   -155     88    185    204 147.4  27.2  33962  286.24 0855.49
2009/04/23 07:34:26.0      78   -175     75    192    206 155.9  22.5  33962  286.24 0855.49
2009/04/23 07:34:26.1      96   -157     65    185    196 148.6  20.2  33962  286.24 0855.49
2009/04/23 07:34:26.2     149   -147     17    210    211 134.7   4.9  33962  286.22 0855.49
2009/04/23 07:34:26.3     178   -115     43    212    217 122.9  11.6  33964  286.25 0855.49
2009/04/23 07:34:26.4     195    -99     78    219    233 117.1  19.6  33964  286.25 0855.49
2009/04/23 07:34:26.5     171    -81    108    190    218 115.4  32.1  33966  286.30 0855.49
2009/04/23 07:34:26.6     155    -64     54    168    177 112.6  17.9  33962  286.24 0855.49
2009/04/23 07:34:26.7     114    -83     87    142    166 126.0  34.4  33964  286.25 0855.49
2009/04/23 07:34:26.8      84   -163    115    184    216 152.6  35.2  33966  286.29 0855.49
2009/04/23 07:34:26.9      68   -183    112    196    225 159.5  32.1  33964  286.27 0855.49
2009/04/23 07:34:27.0      51   -218    130    224    258 166.7  32.7  33964  286.26 0855.49
2009/04/23 07:34:27.1      42   -187    128    192    230 167.3  36.5  33964  286.25 0855.49
2009/04/23 07:34:27.2      25   -165    106    168    198 171.1  35.5  33964  286.25 0855.49
2009/04/23 07:34:27.3     -15   -200    137    201    243 184.5  37.6  33962  286.22 0855.49
2009/04/23 07:34:27.4     -33   -160     88    164    186 191.8  30.6  33962  286.24 0855.49
2009/04/23 07:34:27.5      -2   -142     76    143    161 181.0  30.1  33964  286.27 0855.49
2009/04/23 07:34:27.6     100   -128     57    163    173 142.2  19.4  33964  286.27 0855.49
2009/04/23 07:34:27.7     130   -140     33    192    195 137.2   9.9  33966  286.29 0855.49
2009/04/23 07:34:27.8      77   -165     37    183    187 155.1  11.4  33968  286.32 0855.49
2009/04/23 07:34:27.9      18   -182    -10    183    184 174.2  -3.1  33966  286.29 0855.49
2009/04/23 07:34:28.0     111   -141    -51    180    188 141.9 -15.8  33964  286.25 0855.49
2009/04/23 07:34:28.1      63   -123    -38    139    145 152.8 -15.5  33966  286.30 0855.49
2009/04/23 07:34:28.2      -9   -118    -95    119    152 184.5 -48.1  33966  286.29 0855.49
2009/04/23 07:34:28.3      82   -148   -108    170    201 151.0 -39.9  33964  286.27 0855.49
2009/04/23 07:34:28.4      91   -134    -96    163    189 145.8 -37.5  33962  286.22 0855.49
2009/04/23 07:34:28.5     -10   -131    -76    132    152 184.4 -37.3  33962  286.24 0855.49
2009/04/23 07:34:28.6      -9    -79    -57     80     98 187.1 -43.9  33966  286.29 0855.49
2009/04/23 07:34:28.7      35   -114    -37    120    126 162.6 -17.5  33962  286.24 0855.49
2009/04/23 07:34:28.8      96   -186    -84    210    226 152.6 -27.4  33960  286.20 0855.49
2009/04/23 07:34:28.9     132   -132    -93    187    208 134.9 -32.9  33958  286.17 0855.49
2009/04/23 07:34:29.0     151   -147    -79    211    225 134.2 -25.7  33962  286.22 0855.49
2009/04/23 07:34:29.1      58    -91    -31    109    113 147.5 -20.7  33962  286.22 0855.49
2009/04/23 07:34:29.2      27    -71     27     77     82 159.1  19.4  33962  286.24 0855.49
2009/04/23 07:34:29.3     -17   -127     54    129    139 188.0  23.6  33962  286.24 0855.49
2009/04/23 07:34:29.4      15   -106     82    108    135 172.0  41.6  33964  286.25 0855.49
2009/04/23 07:34:29.5       9    -66    127     67    143 172.0  69.8  33962  286.22 0855.49
2009/04/23 07:34:29.6      11    -35    101     37    107 161.3  79.7  33964  286.25 0855.49
2009/04/23 07:34:29.7      21   -160     88    162    184 172.4  31.3  33962  286.24 0855.49
2009/04/23 07:34:29.8      -5   -181     96    182    205 181.6  29.8  33962  286.22 0855.49
2009/04/23 07:34:29.9     -38   -160    107    165    196 193.6  36.0  33962  286.22 0855.49
2009/04/23 07:34:30.0     -40   -138     88    144    168 196.5  34.4  33962  286.24 0855.49
2009/04/23 07:34:30.1     -40    -98     33    106    112 202.3  17.3  33964  286.27 0855.49
2009/04/23 07:34:30.2    -107    -59    -20    123    125 241.1  -9.4  33964  286.25 0855.49
2009/04/23 07:34:30.3    -109    -56    -35    123    129 242.5 -16.0  33964  286.27 0855.49
2009/04/23 07:34:30.4     -86   -107     -7    138    139 218.7  -3.1  33964  286.25 0855.49
2009/04/23 07:34:30.5     -28   -106    -35    110    115 195.2 -23.8  33964  286.27 0855.49
2009/04/23 07:34:30.6     -71   -140    -95    158    184 207.1 -38.4  33964  286.25 0855.49
2009/04/23 07:34:30.7      43   -119     -2    127    128 159.9  -1.3  33962  286.22 0855.49
2009/04/23 07:34:30.8      41   -188      8    193    194 167.7   2.5  33962  286.24 0855.49
2009/04/23 07:34:30.9      77   -278     58    289    295 164.4  11.4  33966  286.28 0855.49
2009/04/23 07:34:31.0      86   -226     98    243    262 159.1  23.0  33964  286.25 0855.49
2009/04/23 07:34:31.1       7   -215     60    216    225 178.0  15.6  33964  286.25 0855.49
2009/04/23 07:34:31.2      33   -211     50    214    220 171.1  13.2  33966  286.29 0855.49
2009/04/23 07:34:31.3      14   -192     27    193    195 175.8   8.0  33966  286.29 0855.49
2009/04/23 07:34:31.4      10   -186     26    187    189 176.9   8.0  33966  286.29 0855.49
2009/04/23 07:34:31.5      23   -197     74    199    212 173.1  21.0  33966  286.30 0855.49
2009/04/23 07:34:31.6       6   -218     91    219    237 178.4  24.1  33966  286.30 0855.49
2009/04/23 07:34:31.7      63   -169     95    181    204 159.5  30.1  33968  286.34 0855.49
2009/04/23 07:34:31.8      76   -162    120    180    216 154.7  37.0  33966  286.29 0855.49
2009/04/23 07:34:31.9      47   -195    119    201    233 166.2  33.5  33966  286.29 0855.49
2009/04/23 07:34:32.0      21   -240     25    241    243 174.9   6.1  33966  286.28 0855.49
2009/04/23 07:34:32.1     -68   -227     -9    238    239 196.7  -2.2  33966  286.30 0855.49
2009/04/23 07:34:32.2     -60   -227    -22    235    237 194.9  -5.4  33966  286.30 0855.49
2009/04/23 07:34:32.3     -56   -198     -1    206    207 195.8  -0.5  33968  286.32 0855.49
2009/04/23 07:34:32.4     -73   -202     -4    215    216 200.0  -1.2  33966  286.29 0855.49
2009/04/23 07:34:32.5     -56   -252    -33    259    262 192.5  -7.3  33966  286.30 0855.49
2009/04/23 07:34:32.6     -73   -248     -7    259    260 196.5  -1.6  33968  286.31 0855.49
2009/04/23 07:34:32.7     -29   -212    -43    214    219 187.8 -11.5  33966  286.30 0855.49
2009/04/23 07:34:32.8      -4   -155    -51    156    165 181.8 -18.3  33966  286.29 0855.49
2009/04/23 07:34:32.9      -6   -143    -33    144    148 182.6 -13.3  33966  286.29 0855.49
2009/04/23 07:34:33.0       1   -143    -23    144    146 179.5  -9.4  33966  286.30 0855.49
2009/04/23 07:34:33.1       0   -123     38    124    130 180.0  17.4  33968  286.32 0855.49
2009/04/23 07:34:33.2      60   -133     38    147    152 155.5  14.7  33966  286.30 0855.49
2009/04/23 07:34:33.3      83   -159     66    180    191 152.4  21.0  33966  286.30 0855.49
2009/04/23 07:34:33.4      58   -201    102    210    233 163.7  27.4  33966  286.29 0855.49
2009/04/23 07:34:33.5      62   -229    119    238    266 164.9  28.2  33966  286.30 0855.49
2009/04/23 07:34:33.6      69   -257    131    267    297 164.8  28.2  33968  286.31 0855.49
2009/04/23 07:34:33.7      53   -236     98    242    261 167.3  23.1  33970  286.35 0855.49
2009/04/23 07:34:33.8     106   -192     -1    220    221 151.0  -0.3  33968  286.32 0855.49
2009/04/23 07:34:33.9     111   -153    -24    190    192 143.9  -7.3  33966  286.30 0855.49
2009/04/23 07:34:34.0      99   -154     19    184    186 147.3   6.1  33968  286.32 0855.49
2009/04/23 07:34:34.1      83   -105     65    134    148 141.7  27.3  33966  286.29 0855.49
2009/04/23 07:34:34.2     102   -123    121    161    201 140.4  40.9  33964  286.27 0855.49
2009/04/23 07:34:34.3     121   -178    149    216    262 145.8  37.8  33968  286.31 0855.49
2009/04/23 07:34:34.4      33   -238     91    241    257 172.0  22.0  33966  286.30 0855.49
2009/04/23 07:34:34.5      88   -210     64    228    237 157.3  15.8  33968  286.31 0855.49
2009/04/23 07:34:34.6     119   -155     79    196    211 142.6  23.0  33968  286.34 0855.49
2009/04/23 07:34:34.7     121   -178     79    216    229 145.8  20.9  33966  286.30 0855.49
2009/04/23 07:34:34.8     100   -161    115    190    222 148.1  34.2  33966  286.29 0855.49
2009/04/23 07:34:34.9      31   -216    168    219    276 171.8  41.6  33966  286.30 0855.49
2009/04/23 07:34:35.0      53   -160    126    169    210 161.5  40.4  33966  286.29 0855.49
2009/04/23 07:34:35.1      77   -140    126    160    203 151.1  42.2  33966  286.30 0855.49
2009/04/23 07:34:35.2     167   -140    196    219    293 130.0  46.4  33968  286.31 0855.49
2009/04/23 07:34:35.3     248    -71     -5    259    260 106.0  -1.2  33966  286.28 0855.49
2009/04/23 07:34:35.4     206   -146     -2    253    254 125.3  -0.5  33968  286.33 0855.49
2009/04/23 07:34:35.5     153   -137     55    206    214 132.0  15.0  33968  286.32 0855.49
2009/04/23 07:34:35.6     104   -135    100    171    198 142.2  33.1  33966  286.29 0855.49
2009/04/23 07:34:35.7     108    -89     76    141    160 129.5  30.6  33968  286.32 0855.49
2009/04/23 07:34:35.8     181    -97    -13    206    207 118.2  -3.7  33968  286.34 0855.49
2009/04/23 07:34:35.9     165   -183     38    247    250 138.1   8.8  33966  286.30 0855.49
2009/04/23 07:34:36.0     140   -242      3    280    281 149.9   0.8  33966  286.30 0855.49
2009/04/23 07:34:36.1     150   -262     35    302    305 150.2   6.7  33968  286.33 0855.49
2009/04/23 07:34:36.2     108   -248     13    271    272 156.3   2.8  33964  286.25 0855.49
2009/04/23 07:34:36.3      89   -180     43    201    206 153.7  12.2  33966  286.30 0855.49
2009/04/23 07:34:36.4      59    -77     50     98    110 142.6  28.7  33968  286.32 0855.49
2009/04/23 07:34:36.5      31    -42    -71     53     88 143.9 -63.8  33966  286.30 0855.49
2009/04/23 07:34:36.6     -18     -6    -86     20     88 251.6 -90.0  33964  286.27 0855.49
2009/04/23 07:34:36.7      36    -67    -78     77    109 151.9 -54.1  33966  286.30 0855.49
2009/04/23 07:34:36.8       8   -104    -37    105    112 175.6 -19.7  33970  286.35 0855.49
2009/04/23 07:34:36.9     -18    -34    -53     39     65 209.0 -64.9  33964  286.27 0855.49
2009/04/23 07:34:37.0      19    -30    -41     36     54 147.5 -57.7  33964  286.27 0855.49
2009/04/23 07:34:37.1      56    -81    -46     99    109 145.3 -31.5  33966  286.30 0855.49
2009/04/23 07:34:37.2     111    -87    -57    142    153 128.2 -27.4  33968  286.34 0855.49
2009/04/23 07:34:37.3     136    -64     29    151    154 115.4  11.0  33962  286.24 0855.49
2009/04/23 07:34:37.4      97    -44     57    107    121 114.4  30.3  33966  286.30 0855.49
2009/04/23 07:34:37.5      68    -58     78     90    119 130.4  45.8  33966  286.29 0855.49
2009/04/23 07:34:37.6      43    -82     90     93    129 152.4  49.4  33964  286.27 0855.49
2009/04/23 07:34:37.7      12    -80    107     82    134 171.1  58.5  33964  286.27 0855.48
2009/04/23 07:34:37.8       0   -163     63    164    175 180.2  22.0  33968  286.32 0855.48
2009/04/23 07:34:37.9     -17   -197     69    198    210 185.1  19.2  33968  286.32 0855.48
2009/04/23 07:34:38.0     -23   -178    138    180    226 187.6  41.6  33964  286.25 0855.48
2009/04/23 07:34:38.1     -30   -179     71    182    195 189.8  22.0  33962  286.22 0855.48
2009/04/23 07:34:38.2     -25   -135     66    138    152 190.7  27.2  33964  286.25 0855.48
2009/04/23 07:34:38.3     -39   -173     48    178    185 192.9  15.2  33960  286.20 0855.48
2009/04/23 07:34:38.4     -41   -103      5    112    113 201.8   2.8  33964  286.25 0855.48
2009/04/23 07:34:38.5     -37    -50    -19     63     65 216.1 -22.8  33964  286.27 0855.48
2009/04/23 07:34:38.6     -12    -38    -73     40     83 197.8 -73.7  33964  286.27 0855.48
2009/04/23 07:34:38.7      37   -120    -98    126    159 162.6 -46.4  33962  286.24 0855.48
2009/04/23 07:34:38.8      -4    -99    -91    100    135 182.7 -51.9  33962  286.24 0855.48
2009/04/23 07:34:38.9      -8   -114    -76    115    137 184.5 -40.9  33964  286.25 0855.48
2009/04/23 07:34:39.0     -13   -144   -109    145    181 185.3 -45.1  33962  286.22 0855.48
2009/04/23 07:34:39.1      20   -144    -43    146    152 172.0 -21.7  33964  286.25 0855.48
2009/04/23 07:34:39.2     -25   -166    -56    168    177 188.7 -23.6  33962  286.24 0855.48
2009/04/23 07:34:39.3     -41   -238     18    242    243 189.8   4.4  33964  286.25 0855.48
2009/04/23 07:34:39.4      20   -290     91    291    306 176.0  17.4  33962  286.23 0855.48
2009/04/23 07:34:39.5       3   -249     14    250    251 179.1   3.3  33960  286.20 0855.48
2009/04/23 07:34:39.6      -3   -235     56    236    243 180.9  13.5  33960  286.18 0855.48
2009/04/23 07:34:39.7     -52   -244     18    250    251 192.0   4.2  33962  286.23 0855.48
2009/04/23 07:34:39.8      36   -188     76    192    206 168.9  23.0  33960  286.19 0855.48
2009/04/23 07:34:39.9     -35   -198    -30    202    205 190.2  -8.6  33960  286.20 0855.48
2009/04/23 07:34:40.0      20   -172    -31    174    177 173.1 -10.3  33960  286.20 0855.48
2009/04/23 07:34:40.1     -58   -172    -22    182    184 198.7  -6.9  33960  286.19 0855.48
2009/04/23 07:34:40.2     -50   -180    -51    187    195 195.6 -15.4  33962  286.22 0855.48
2009/04/23 07:34:40.3      -9   -173   -114    174    208 183.1 -40.7  33962  286.22 0855.48
2009/04/23 07:34:40.4      -6   -196   -124    197    232 182.0 -39.9  33960  286.19 0855.48
2009/04/23 07:34:40.5      48   -312   -113    316    336 171.1 -19.7  33958  286.17 0855.48
2009/04/23 07:34:40.6      19   -292   -145    293    326 176.2 -32.6  33962  286.23 0855.48
2009/04/23 07:34:40.7     113   -259    -89    283    297 156.4 -17.6  33956  286.11 0855.48
2009/04/23 07:34:40.8     129   -273    -83    302    314 154.7 -15.5  33960  286.20 0855.48
2009/04/23 07:34:40.9     127   -319    -45    344    348 158.2  -7.6  33962  286.24 0855.48
2009/04/23 07:34:41.0     141   -352    -57    380    385 158.2  -8.6  33960  286.19 0855.48
2009/04/23 07:34:41.1     133   -282    -24    313    315 154.7  -4.5  33960  286.18 0855.48
2009/04/23 07:34:41.2     133   -280    -82    311    322 154.5 -14.8  33958  286.15 0855.48
2009/04/23 07:34:41.3      47   -273    -84    278    291 170.2 -17.0  33958  286.16 0855.48
2009/04/23 07:34:41.4      96   -276   -106    293    311 160.8 -24.8  33960  286.18 0855.48
2009/04/23 07:34:41.5     112   -321   -127    341    363 160.7 -25.8  33958  286.16 0855.48
2009/04/23 07:34:41.6     129   -351   -128    375    397 159.8 -19.0  33958  286.17 0855.48
2009/04/23 07:34:41.7     121   -382   -134    401    422 162.3 -23.6  33960  286.18 0855.48
2009/04/23 07:34:41.8     171   -345   -140    386    410 153.6 -25.2  33962  286.22 0855.48
2009/04/23 07:34:41.9     186   -308   -149    360    389 148.9 -28.1  33960  286.19 0855.48
2009/04/23 07:34:42.0     146   -358   -160    387    418 157.8 -28.0  33960  286.18 0855.48
2009/04/23 07:34:42.1     115   -353   -135    372    395 161.9 -25.2  33962  286.22 0855.48
2009/04/23 07:34:42.2      99   -390   -121    403    421 165.7 -16.8  33960  286.20 0855.48
2009/04/23 07:34:42.3      91   -364    -88    376    387 165.9 -13.2  33962  286.21 0855.48
2009/04/23 07:34:42.4      72   -356   -120    364    384 168.4 -18.3  33960  286.19 0855.48
2009/04/23 07:34:42.5     154   -290    -39    329    332 152.0  -6.8  33962  286.21 0855.48
2009/04/23 07:34:42.6     182   -316     31    365    367 150.0   4.9  33962  286.21 0855.48
2009/04/23 07:34:42.7     180   -265     37    321    324 145.7   6.7  33962  286.21 0855.48
2009/04/23 07:34:42.8     154   -314     60    350    356 153.8   9.7  33962  286.22 0855.48
2009/04/23 07:34:42.9     156   -329     86    365    375 154.6  13.3  33962  286.21 0855.48
2009/04/23 07:34:43.0     147   -309    125    343    365 154.5  20.9  33962  286.24 0855.48
2009/04/23 07:34:43.1     171   -344    139    385    410 153.5  19.9  33960  286.19 0855.48
2009/04/23 07:34:43.2     176   -304    148    352    381 150.0  24.2  33962  286.21 0855.48
2009/04/23 07:34:43.3     184   -311    126    362    384 149.4  19.2  33962  286.24 0855.48
2009/04/23 07:34:43.4     152   -239    194    284    343 147.4  37.7  33958  286.16 0855.48
2009/04/23 07:34:43.5      94   -246    189    264    324 159.0  39.2  33962  286.23 0855.48
2009/04/23 07:34:43.6      87   -222    185    239    302 158.4  41.7  33960  286.20 0855.48
2009/04/23 07:34:43.7      65   -220    184    230    294 163.5  42.8  33960  286.20 0855.47
2009/04/23 07:34:43.8     106   -230    159    254    299 155.3  35.2  33960  286.20 0855.47
2009/04/23 07:34:43.9     123   -293    192    318    371 157.2  34.0  33962  286.21 0855.47
2009/04/23 07:34:44.0     158   -296    184    336    383 151.9  31.3  33960  286.19 0855.47
2009/04/23 07:34:44.1     180   -255    172    313    357 144.8  31.3  33964  286.26 0855.47
2009/04/23 07:34:44.2     193   -262    198    326    381 143.6  34.2  33964  286.27 0855.47
2009/04/23 07:34:44.4     214   -227    179    313    360 136.7  32.6  33962  286.21 0855.47
2009/04/23 07:34:44.4     183   -215    210    283    352 139.5  40.2  33962  286.24 0855.47
2009/04/23 07:34:44.5     204   -176    203    270    337 130.9  40.7  33962  286.23 0855.47
2009/04/23 07:34:44.6     170   -120    184    209    278 125.3  45.9  33966  286.30 0855.47
2009/04/23 07:34:44.7      86    -95    167    129    211 137.7  58.4  33964  286.25 0855.47
2009/04/23 07:34:44.9      25    -30    106     40    113 140.3  78.6  33962  286.22 0855.47
2009/04/23 07:34:44.9      44   -164    137    170    218 164.9  43.3  33962  286.24 0855.47
2009/04/23 07:34:45.1       6   -235    155    236    282 178.4  36.5  33962  286.21 0855.47
2009/04/23 07:34:45.2     -19   -244    135    245    279 184.5  31.4  33960  286.18 0855.47
2009/04/23 07:34:45.3     -17   -234    120    235    263 184.4  29.1  33962  286.23 0855.47
2009/04/23 07:34:45.4     -24   -225    140    227    266 186.2  34.8  33962  286.21 0855.47
2009/04/23 07:34:45.5     -34   -215    141    218    259 189.1  35.7  33960  286.20 0855.47
2009/04/23 07:34:45.6     -46   -202    157    208    260 192.9  40.7  33962  286.21 0855.47
2009/04/23 07:34:45.7     -43   -204    152    209    258 192.0  39.7  33958  286.16 0855.47
2009/04/23 07:34:45.8     -57   -215    148    223    267 194.9  36.5  33964  286.25 0855.47
2009/04/23 07:34:45.9     -77   -219     96    233    252 199.4  23.6  33962  286.21 0855.47
2009/04/23 07:34:46.0     -99   -219     69    241    251 204.3  16.0  33958  286.15 0855.47
2009/04/23 07:34:46.1     -95   -181     10    205    206 207.6   2.9  33962  286.22 0855.47
2009/04/23 07:34:46.2     -68   -223    -32    234    237 197.0  -8.0  33958  286.15 0855.47
2009/04/23 07:34:46.3     -99   -255      5    274    275 201.4   1.2  33966  286.28 0855.47
2009/04/23 07:34:46.4     -58   -329    -48    335    339 190.0  -8.2  33960  286.19 0855.47
2009/04/23 07:34:46.5    -115   -321    -18    342    343 199.8  -3.1  33954  286.10 0855.47
2009/04/23 07:34:46.6     -90   -261     13    277    278 199.1   2.8  33956  286.11 0855.47
2009/04/23 07:34:46.7    -130   -206    -25    244    246 212.3  -6.0  33962  286.21 0855.47
2009/04/23 07:34:46.8     -88   -290     -6    304    305 196.9  -1.3  33956  286.13 0855.47
2009/04/23 07:34:46.9     -35   -292    -28    295    297 186.9  -5.6  33960  286.18 0855.47
2009/04/23 07:34:47.0      19   -260     14    261    262 175.8   3.1  33958  286.16 0855.47
2009/04/23 07:34:47.1      51   -253     58    259    266 168.4  12.6  33962  286.23 0855.47
2009/04/23 07:34:47.2      46   -274     40    278    281 170.3   8.2  33962  286.21 0855.47
2009/04/23 07:34:47.3      54   -304     35    309    311 169.8   6.5  33962  286.21 0855.47
2009/04/23 07:34:47.4      69   -281    -35    290    293 166.2  -6.9  33958  286.15 0855.47
2009/04/23 07:34:47.5      53   -243    -54    249    255 167.6 -12.4  33960  286.18 0855.47
2009/04/23 07:34:47.6     -11   -190    -24    191    193 183.4  -7.3  33952  286.07 0855.47
2009/04/23 07:34:47.7       0   -233    -29    234    236 180.2  -7.2  33956  286.11 0855.47
2009/04/23 07:34:47.8     -28   -264    -74    266    277 186.2 -15.5  33954  286.08 0855.47
2009/04/23 07:34:47.9     -76   -253    -74    265    275 196.7 -20.2  33956  286.13 0855.47
2009/04/23 07:34:48.0     -72   -236    -80    247    259 197.0 -23.0  33958  286.16 0855.47
2009/04/23 07:34:48.1    -131   -231    -91    266    281 209.6 -23.6  33960  286.18 0855.47
2009/04/23 07:34:48.2    -119   -211    -80    243    255 209.4 -23.6  33960  286.20 0855.47
2009/04/23 07:34:48.3    -101   -250    -59    270    277 202.1 -12.4  33954  286.09 0855.47
2009/04/23 07:34:48.4    -116   -265    -62    290    297 203.6 -12.2  33958  286.15 0855.47
2009/04/23 07:34:48.5     -96   -238    -66    257    266 202.1 -14.4  33958  286.16 0855.47
2009/04/23 07:34:48.6     -19   -191    -38    192    196 185.8 -11.3  33956  286.14 0855.47
2009/04/23 07:34:48.7     -46   -242    -57    247    254 190.9 -13.2  33958  286.15 0855.47
2009/04/23 07:34:48.8     -49   -219    -53    225    232 192.7 -13.4  33956  286.12 0855.47
2009/04/23 07:34:48.9     -46   -215    -57    221    229 192.3 -14.5  33956  286.12 0855.47
2009/04/23 07:34:49.0     -43   -204    -49    209    215 192.0 -13.4  33956  286.14 0855.47
2009/04/23 07:34:49.1     -76   -205    -74    219    232 200.5 -18.7  33958  286.15 0855.47
2009/04/23 07:34:49.2     -97   -206    -54    228    235 205.3 -13.4  33960  286.20 0855.47
2009/04/23 07:34:49.3     -78   -189    -59    205    214 202.5 -16.0  33954  286.10 0855.47
2009/04/23 07:34:49.4     -58   -159    -51    170    177 200.3 -21.5  33958  286.17 0855.47
2009/04/23 07:34:49.5     -40   -181    -61    186    195 192.5 -23.6  33958  286.15 0855.47
2009/04/23 07:34:49.6     -66   -190    -78    202    216 199.2 -26.9  33962  286.24 0855.47
2009/04/23 07:34:49.7     -57   -172    -81    182    199 198.5 -29.7  33960  286.20 0855.47
2009/04/23 07:34:49.8     -29   -167    -70    170    183 190.0 -27.8  33960  286.19 0855.47
2009/04/23 07:34:49.9     -59   -194    -75    203    216 196.9 -25.7  33960  286.20 0855.47
2009/04/23 07:34:50.0     -79   -189    -56    206    213 202.7 -20.0  33958  286.15 0855.47
2009/04/23 07:34:50.1     -74   -203    -77    217    231 200.0 -19.7  33962  286.22 0855.47
2009/04/23 07:34:50.2     -84   -188    -70    206    218 204.1 -18.9  33962  286.24 0855.47
2009/04/23 07:34:50.3     -88   -171    -58    193    201 207.4 -21.7  33960  286.20 0855.47
2009/04/23 07:34:50.4    -104   -178    -67    207    218 210.3 -17.9  33956  286.12 0855.47
2009/04/23 07:34:50.5    -107   -178    -74    208    221 211.0 -19.6  33958  286.17 0855.47
2009/04/23 07:34:50.6    -125   -176    -66    216    225 215.4 -22.1  33964  286.25 0855.47
2009/04/23 07:34:50.7    -101   -175    -77    203    217 210.1 -26.4  33966  286.29 0855.47
2009/04/23 07:34:50.8     -91   -160    -83    185    202 209.6 -30.1  33964  286.25 0855.46
2009/04/23 07:34:50.9     -76   -160    -76    178    193 205.3 -28.7  33964  286.25 0855.46
2009/04/23 07:34:51.0     -74   -151    -69    169    182 206.3 -27.5  33962  286.24 0855.46
2009/04/23 07:34:51.1     -93   -142    -67    170    182 213.2 -26.9  33964  286.27 0855.46
2009/04/23 07:34:51.2     -82   -148    -63    170    181 209.0 -25.7  33962  286.22 0855.46
2009/04/23 07:34:51.3     -74   -148    -61    166    176 206.5 -25.7  33960  286.20 0855.46
2009/04/23 07:34:51.4     -93   -147    -60    175    186 212.3 -18.9  33960  286.19 0855.46
2009/04/23 07:34:51.5    -114   -136    -56    178    186 219.9 -22.5  33960  286.20 0855.46
2009/04/23 07:34:51.6     -53   -148    -79    158    176 200.0 -32.6  33962  286.22 0855.46
2009/04/23 07:34:51.7     -77   -132    -74    154    170 210.3 -31.7  33962  286.22 0855.46
2009/04/23 07:34:51.8     -84   -153    -62    175    186 208.7 -19.6  33958  286.17 0855.46
2009/04/23 07:34:51.9     -78   -145    -55    165    173 208.3 -23.6  33958  286.17 0855.46
2009/04/23 07:34:52.0     -94   -136    -54    166    175 214.5 -18.3  33958  286.17 0855.46
2009/04/23 07:34:52.1     -81   -129    -57    153    163 212.1 -25.7  33958  286.17 0855.46
2009/04/23 07:34:52.2     -72   -130    -82    149    170 209.0 -35.4  33962  286.22 0855.46
2009/04/23 07:34:52.3     -57   -142    -85    154    175 201.8 -35.8  33962  286.22 0855.46
2009/04/23 07:34:52.4     -66   -156    -98    170    196 202.9 -36.8  33960  286.20 0855.46
2009/04/23 07:34:52.5     -74   -152    -90    170    192 205.9 -34.7  33958  286.17 0855.46
2009/04/23 07:34:52.6     -60   -138    -85    151    173 203.7 -36.5  33962  286.22 0855.46
2009/04/23 07:34:52.7     -64   -136    -75    151    168 205.5 -32.6  33964  286.25 0855.46
2009/04/23 07:34:52.8     -68   -119    -79    138    159 209.9 -36.8  33960  286.19 0855.47
2009/04/23 07:34:52.9     -85   -115    -55    144    154 216.5 -25.9  33956  286.12 0855.47
2009/04/23 07:34:53.0     -72   -131    -68    150    164 208.9 -30.6  33954  286.10 0855.47
2009/04/23 07:34:53.1     -73   -132    -61    151    162 209.0 -27.4  33956  286.12 0855.47
2009/04/23 07:34:53.2     -69   -127    -46    145    152 208.5 -23.3  33958  286.17 0855.47
2009/04/23 07:34:53.3     -76   -119    -48    142    149 212.6 -23.3  33960  286.19 0855.47
2009/04/23 07:34:53.4     -84   -116    -47    144    151 216.0 -23.8  33958  286.15 0855.47
2009/04/23 07:34:53.5     -67    -74    -31    101    105 222.3 -22.3  33956  286.14 0855.47
2009/04/23 07:34:53.6     -15   -106    -44    108    116 188.0 -27.4  33958  286.15 0855.47
2009/04/23 07:34:53.7     -27   -117    -60    121    135 192.9 -32.6  33958  286.17 0855.47
2009/04/23 07:34:53.8      -8   -132    -62    133    146 183.6 -31.5  33962  286.24 0855.47
2009/04/23 07:34:53.9      -8   -115    -49    116    125 184.4 -28.5  33962  286.24 0855.47
2009/04/23 07:34:54.0     -15   -101    -57    103    117 188.9 -35.8  33964  286.25 0855.47
2009/04/23 07:34:54.1     -30    -91    -57     97    112 198.5 -37.9  33962  286.24 0855.47
2009/04/23 07:34:54.2      -8   -105    -50    106    117 184.5 -31.5  33962  286.22 0855.47
2009/04/23 07:34:54.3     -16   -110    -43    112    119 188.5 -25.9  33960  286.19 0855.47
2009/04/23 07:34:54.4      -6   -130    -44    131    139 182.7 -18.7  33962  286.24 0855.47
2009/04/23 07:34:54.5       7   -111    -25    112    115 176.0 -12.9  33958  286.17 0855.47
2009/04/23 07:34:54.6       6   -104    -18    105    107 176.4  -9.8  33960  286.19 0855.47
2009/04/23 07:34:54.7       0    -96    -27     97    101 179.5 -16.0  33960  286.20 0855.47
2009/04/23 07:34:54.8     -16   -149    -50    150    158 186.2 -23.6  33958  286.17 0855.47
2009/04/23 07:34:54.9     -26   -134    -59    137    149 191.1 -29.5  33958  286.17 0855.47
2009/04/23 07:34:55.0      -4   -136    -73    137    155 181.8 -35.2  33958  286.15 0855.47
2009/04/23 07:34:55.1      17   -149    -82    151    171 173.3 -35.2  33958  286.17 0855.47
2009/04/23 07:34:55.2      30   -134    -49    138    147 167.1 -19.7  33958  286.17 0855.47
2009/04/23 07:34:55.3      26   -145    -41    148    154 169.8 -15.8  33958  286.17 0855.47
2009/04/23 07:34:55.4      22   -152    -49    154    162 171.5 -17.9  33960  286.19 0855.47
2009/04/23 07:34:55.5      50   -154    -33    162    166 162.0 -11.6  33958  286.17 0855.47
2009/04/23 07:34:55.6      57   -166    -15    176    177 160.8  -4.9  33960  286.19 0855.47
2009/04/23 07:34:55.7      40   -154    -26    160    163 165.5  -9.3  33958  286.17 0855.47
2009/04/23 07:34:55.8      35   -155    -24    160    162 167.1  -8.8  33960  286.19 0855.47
2009/04/23 07:34:55.9      42   -151    -24    157    159 164.4  -9.0  33960  286.19 0855.47
2009/04/23 07:34:56.0      42   -152    -18    158    160 164.4  -6.5  33962  286.22 0855.47
2009/04/23 07:34:56.1      42   -152    -18    158    160 164.4  -6.5  33962  286.22 0855.47
2009/04/23 07:34:56.2      40   -144    -19    150    152 164.4  -7.3  33962  286.22 0855.47
2009/04/23 07:34:56.3      28   -148    -19    151    153 169.3  -7.3  33962  286.24 0855.47
2009/04/23 07:34:56.4      21   -159    -26    161    164 172.4  -9.3  33962  286.22 0855.47
2009/04/23 07:34:56.5      -1   -151    -37    152    157 180.5 -13.9  33962  286.24 0855.47
2009/04/23 07:34:56.6       4   -159    -49    160    168 178.2 -17.3  33960  286.20 0855.47
2009/04/23 07:34:56.7     -18   -165    -63    167    178 186.5 -26.1  33960  286.19 0855.47
2009/04/23 07:34:56.8     -25   -150    -39    153    158 189.8 -14.3  33960  286.20 0855.48
2009/04/23 07:34:56.9     -34   -146     -5    151    152 193.3  -2.2  33958  286.15 0855.48
2009/04/23 07:34:57.0     -10   -126    -16    127    129 184.9  -7.2  33960  286.20 0855.48
2009/04/23 07:34:57.1      10   -126    -35    127    132 175.1 -15.5  33962  286.22 0855.48
2009/04/23 07:34:57.2      17   -121    -44    123    131 172.0 -19.7  33960  286.19 0855.48
2009/04/23 07:34:57.3       4   -121    -20    122    124 177.8  -9.3  33960  286.19 0855.48
2009/04/23 07:34:57.4     -16   -150    -44    151    157 186.3 -21.0  33962  286.22 0855.48
2009/04/23 07:34:57.5     -14   -195    -30    196    199 184.4  -8.8  33960  286.20 0855.48
2009/04/23 07:34:57.6     -44   -188    -38    194    198 193.4 -11.3  33960  286.20 0855.48
2009/04/23 07:34:57.7     -73   -182     -5    197    198 201.8  -1.6  33958  286.17 0855.48
2009/04/23 07:34:57.8     -52   -169    -17    177    178 197.2  -5.6  33960  286.19 0855.48
2009/04/23 07:34:57.9     -54   -164    -21    173    175 198.5  -7.2  33962  286.22 0855.48
2009/04/23 07:34:58.0     -63   -176    -23    188    190 199.8  -7.2  33960  286.20 0855.48
2009/04/23 07:34:58.1     -42   -169     -6    175    176 194.0  -2.2  33960  286.20 0855.48
2009/04/23 07:34:58.2     -31   -164    -26    168    170 190.9  -8.8  33960  286.19 0855.48
2009/04/23 07:34:58.3     -34   -141     -3    146    147 193.8  -1.3  33958  286.17 0855.48
2009/04/23 07:34:58.4     -14   -153     -8    154    155 185.3  -3.1  33962  286.22 0855.48
2009/04/23 07:34:58.5      10   -132    -46    133    141 175.5 -19.1  33960  286.19 0855.48
2009/04/23 07:34:58.6     -16   -141    -39    142    148 186.7 -15.5  33960  286.19 0855.48
2009/04/23 07:34:58.7     -43   -131    -40    139    145 198.3 -16.0  33960  286.20 0855.48
2009/04/23 07:34:58.8      -3   -109    -64    110    127 181.8 -37.3  33958  286.17 0855.49
2009/04/23 07:34:58.9     -48    -86    -36     99    105 209.0 -24.4  33958  286.17 0855.49
2009/04/23 07:34:59.0     -14   -135    -28    136    139 186.2 -11.9  33958  286.17 0855.49
2009/04/23 07:34:59.1     -26   -172    -51    174    182 188.7 -16.4  33956  286.14 0855.49
2009/04/23 07:34:59.2     -42   -183    -52    188    196 193.1 -15.5  33960  286.19 0855.49
2009/04/23 07:34:59.3     -32   -190    -57    193    201 189.6 -21.5  33954  286.08 0855.49
2009/04/23 07:34:59.4     -16   -165    -50    166    173 185.6 -22.1  33958  286.17 0855.49
2009/04/23 07:34:59.5       3   -173    -68    174    186 178.9 -27.2  33958  286.17 0855.49
2009/04/23 07:34:59.6     -11   -169    -71    170    184 184.0 -28.0  33960  286.19 0855.49
2009/04/23 07:34:59.7     -27   -173    -80    176    193 188.9 -30.8  33960  286.19 0855.49
2009/04/23 07:34:59.8      -6   -182    -81    183    200 182.0 -29.7  33958  286.15 0855.49
2009/04/23 07:34:59.9       3   -192    -77    193    207 179.1 -27.4  33962  286.22 0855.49
2009/04/23 07:35:00.0       8   -183    -71    184    197 177.3 -26.7  33964  286.25 0855.49
2009/04/23 07:35:00.1       0   -180    -68    181    193 179.8 -25.7  33964  286.25 0855.49
2009/04/23 07:35:00.2       2   -182    -67    183    194 179.1 -24.8  33964  286.27 0855.49
2009/04/23 07:35:00.3      11   -191    -70    192    204 176.6 -25.3  33962  286.22 0855.49
2009/04/23 07:35:00.4      12   -168    -56    169    179 175.8 -18.3  33960  286.19 0855.49
2009/04/23 07:35:00.5      -8   -173    -49    174    180 182.7 -20.2  33960  286.20 0855.49
2009/04/23 07:35:00.6     -16   -161    -57    162    172 186.0 -19.4  33962  286.24 0855.49
2009/04/23 07:35:00.7     -19   -162    -44    164    170 186.7 -15.0  33962  286.22 0855.49
2009/04/23 07:35:00.8       2   -179    -14    180    181 179.1  -4.6  33960  286.19 0855.49
2009/04/23 07:35:00.9       0   -185     -8    186    187 180.2  -2.6  33960  286.20 0855.49
2009/04/23 07:35:01.0       2   -169    -31    170    173 179.1 -10.5  33962  286.24 0855.49
2009/04/23 07:35:01.1     -10   -164    -48    165    173 183.6 -16.4  33962  286.22 0855.49
2009/04/23 07:35:01.2     -22   -184    -56    186    195 187.1 -16.8  33958  286.15 0855.49
2009/04/23 07:35:01.3     -15   -205    -55    206    214 184.4 -15.0  33962  286.22 0855.49
2009/04/23 07:35:01.4     -10   -205    -51    206    213 182.9 -13.9  33962  286.22 0855.49
2009/04/23 07:35:01.5       0   -200    -52    201    208 180.2 -14.7  33960  286.19 0855.49
2009/04/23 07:35:01.6       0   -199    -45    200    206 180.2 -12.9  33962  286.22 0855.49
2009/04/23 07:35:01.7      -3   -200    -43    201    206 181.0 -12.2  33964  286.25 0855.49
2009/04/23 07:35:01.8      -3   -193    -49    194    201 180.9 -14.3  33964  286.27 0855.49
2009/04/23 07:35:01.9      -3   -192    -50    193    200 180.9 -14.5  33964  286.27 0855.49
2009/04/23 07:35:02.0      -2   -185    -40    186    191 180.9 -12.4  33964  286.25 0855.49
2009/04/23 07:35:02.1       2   -186    -51    187    194 179.3 -15.4  33964  286.27 0855.49
2009/04/23 07:35:02.2       7   -178    -58    179    189 177.5 -17.9  33964  286.25 0855.49
2009/04/23 07:35:02.3       2   -171    -50    172    179 179.3 -21.0  33962  286.22 0855.49
2009/04/23 07:35:02.4       8   -175    -56    176    185 177.1 -17.9  33962  286.24 0855.49
2009/04/23 07:35:02.5      20   -191    -64    193    204 173.8 -18.3  33964  286.27 0855.49
2009/04/23 07:35:02.6       2   -195    -50    196    203 179.3 -14.5  33962  286.22 0855.49
2009/04/23 07:35:02.7     -19   -184    -60    186    195 186.0 -23.3  33962  286.22 0855.49
2009/04/23 07:35:02.8     -20   -196    -55    198    205 186.0 -20.0  33964  286.27 0855.49
2009/04/23 07:35:02.9       0   -175    -49    176    182 180.2 -20.2  33962  286.24 0855.49
2009/04/23 07:35:03.0      26   -185    -34    187    191 171.9 -10.5  33960  286.20 0855.49
2009/04/23 07:35:03.1       9   -191    -55    192    200 177.3 -16.0  33962  286.22 0855.49
2009/04/23 07:35:03.2      -3   -192    -50    193    200 180.9 -14.5  33964  286.27 0855.49
2009/04/23 07:35:03.3      15   -186    -43    187    193 175.3 -13.2  33962  286.24 0855.49
2009/04/23 07:35:03.4      23   -191    -51    193    200 173.1 -15.0  33964  286.25 0855.49
2009/04/23 07:35:03.5      31   -198    -63    201    211 171.1 -17.5  33964  286.25 0855.49
2009/04/23 07:35:03.6       2   -182    -69    183    195 179.1 -26.1  33962  286.24 0855.49
2009/04/23 07:35:03.7     -25   -181    -73    183    197 188.0 -27.4  33958  286.17 0855.49
2009/04/23 07:35:03.8     -40   -198    -59    202    210 191.5 -21.5  33962  286.22 0855.49
2009/04/23 07:35:03.9     -35   -207    -62    211    219 189.8 -21.2  33960  286.20 0855.49
2009/04/23 07:35:04.0     -43   -211    -81    216    230 191.6 -25.4  33962  286.22 0855.49
2009/04/23 07:35:04.1     -42   -218    -75    223    235 191.1 -23.3  33960  286.20 0855.49
2009/04/23 07:35:04.2     -40   -215    -80    219    233 190.7 -25.1  33960  286.20 0855.49
2009/04/23 07:35:04.3     -25   -213    -73    215    227 186.7 -23.3  33960  286.20 0855.49
2009/04/23 07:35:04.4      -2   -207    -68    208    218 180.7 -23.6  33962  286.22 0855.49
2009/04/23 07:35:04.5     -15   -202    -70    203    214 184.4 -23.6  33960  286.19 0855.49
2009/04/23 07:35:04.6     -40   -170    -63    175    185 193.4 -24.6  33962  286.22 0855.49
2009/04/23 07:35:04.7     -34   -184    -74    188    202 190.5 -27.2  33962  286.24 0855.49
2009/04/23 07:35:04.8      -8   -188    -74    189    202 182.7 -26.7  33960  286.19 0855.49
2009/04/23 07:35:04.9     -31   -173    -71    176    189 190.2 -27.4  33964  286.25 0855.49
2009/04/23 07:35:05.0     -15   -173    -65    174    185 185.1 -25.4  33964  286.25 0855.49
2009/04/23 07:35:05.1     -38   -170    -64    175    186 192.7 -25.4  33962  286.22 0855.49
2009/04/23 07:35:05.2     -32   -173    -50    177    183 190.7 -20.4  33958  286.17 0855.49
2009/04/23 07:35:05.3     -31   -190    -57    193    201 189.3 -21.5  33964  286.25 0855.49
2009/04/23 07:35:05.4     -20   -191    -62    193    202 186.2 -23.0  33962  286.24 0855.49
2009/04/23 07:35:05.5     -17   -191    -74    192    205 185.3 -26.7  33960  286.19 0855.49
2009/04/23 07:35:05.6     -48   -179    -59    186    195 195.1 -22.8  33962  286.22 0855.49
2009/04/23 07:35:05.7     -39   -194    -71    198    210 191.5 -24.6  33960  286.19 0855.49
2009/04/23 07:35:05.8     -34   -189    -70    193    205 190.2 -24.8  33962  286.24 0855.49
2009/04/23 07:35:05.9     -25   -189    -66    191    202 187.8 -23.8  33960  286.19 0855.49
2009/04/23 07:35:06.0     -15   -195    -63    196    207 184.5 -17.9  33964  286.25 0855.49
2009/04/23 07:35:06.1      -7   -203    -62    204    213 182.2 -22.1  33960  286.19 0855.49
2009/04/23 07:35:06.2     -31   -174    -64    177    188 190.2 -24.8  33958  286.17 0855.49
2009/04/23 07:35:06.3     -59   -166    -57    177    185 199.8 -23.6  33960  286.19 0855.49
2009/04/23 07:35:06.4     -66   -158    -61    172    182 202.7 -24.4  33958  286.17 0855.49
2009/04/23 07:35:06.5     -34   -177    -60    181    190 191.1 -23.8  33962  286.22 0855.49
2009/04/23 07:35:06.6     -58   -185    -61    195    205 197.6 -17.6  33960  286.20 0855.49
2009/04/23 07:35:06.7     -16   -202    -57    203    211 184.7 -15.8  33960  286.20 0855.49
2009/04/23 07:35:06.8     -30   -202    -56    205    213 188.5 -15.5  33962  286.24 0855.49
2009/04/23 07:35:06.9     -27   -195    -54    197    205 188.0 -15.4  33964  286.25 0855.49
2009/04/23 07:35:07.0     -32   -171    -57    175    185 190.7 -18.1  33964  286.25 0855.49
2009/04/23 07:35:07.1     -13   -161    -48    162    168 184.9 -21.5  33964  286.25 0855.49
2009/04/23 07:35:07.2      -7   -164    -48    165    171 182.5 -21.0  33964  286.25 0855.49
2009/04/23 07:35:07.3     -17   -173    -49    174    180 185.8 -20.2  33964  286.27 0855.49
2009/04/23 07:35:07.4      -7   -150    -45    151    158 182.7 -16.6  33962  286.22 0855.49
2009/04/23 07:35:07.5     -13   -144    -55    145    155 185.3 -25.4  33962  286.22 0855.49
2009/04/23 07:35:07.6     -40   -131    -50    138    146 196.9 -24.8  33962  286.22 0855.49
2009/04/23 07:35:07.7     -30   -127    -57    131    142 193.4 -29.5  33962  286.24 0855.49
2009/04/23 07:35:07.8     -21   -126    -62    128    142 189.7 -31.7  33962  286.24 0855.49
2009/04/23 07:35:07.9     -15   -133    -57    134    145 186.7 -28.5  33962  286.24 0855.49
2009/04/23 07:35:08.0      -1   -141    -45    142    148 180.5 -22.8  33960  286.19 0855.49
2009/04/23 07:35:08.1       9   -132    -42    133    140 176.0 -17.5  33962  286.22 0855.49
2009/04/23 07:35:08.2      -9   -127    -23    128    131 184.5 -10.3  33958  286.17 0855.49
2009/04/23 07:35:08.3     -12   -125    -26    126    129 185.8 -11.9  33958  286.15 0855.49
2009/04/23 07:35:08.4     -23   -138    -17    141    143 189.8  -7.2  33962  286.22 0855.49
2009/04/23 07:35:08.5     -17   -141    -23    143    145 187.1  -9.4  33960  286.19 0855.49
2009/04/23 07:35:08.6     -21   -128    -41    130    136 189.7 -22.8  33958  286.15 0855.49
2009/04/23 07:35:08.7     -25   -126    -41    129    135 191.5 -23.8  33960  286.19 0855.49
2009/04/23 07:35:08.8      -6   -143    -51    144    153 182.7 -19.7  33960  286.19 0855.49
2009/04/23 07:35:08.9       2   -136    -44    137    143 179.0 -23.3  33960  286.19 0855.49
2009/04/23 07:35:09.0       0   -149    -53    150    159 180.0 -24.6  33962  286.24 0855.49
2009/04/23 07:35:09.1       0   -120    -89    121    150 180.0 -44.1  33956  286.14 0855.49
2009/04/23 07:35:09.2     -31   -109    -78    114    138 196.0 -42.0  33958  286.15 0855.49
2009/04/23 07:35:09.3     -35   -107    -46    113    122 198.3 -27.4  33954  286.08 0855.49
2009/04/23 07:35:09.4     -34   -103    -62    109    125 198.3 -36.8  33954  286.08 0855.49
2009/04/23 07:35:09.6     -16   -110    -65    112    129 188.5 -37.3  33954  286.10 0855.49
2009/04/23 07:35:09.6      -8   -101    -68    102    122 184.9 -41.8  33958  286.17 0855.49
2009/04/23 07:35:09.7       6   -131    -66    132    147 177.3 -32.6  33960  286.19 0855.49
2009/04/23 07:35:09.8      20   -143    -74    145    162 172.0 -33.5  33960  286.20 0855.49
2009/04/23 07:35:09.9      30   -163    -78    166    183 169.3 -31.5  33960  286.20 0855.49
2009/04/23 07:35:10.0      51   -167    -70    175    188 162.8 -27.4  33960  286.20 0855.49
2009/04/23 07:35:10.1      59   -164    -72    175    189 160.0 -27.8  33960  286.20 0855.49
2009/04/23 07:35:10.3      58   -156    -58    167    176 159.5 -23.8  33960  286.20 0855.49
2009/04/23 07:35:10.3      61   -182    -30    193    196 161.3  -9.0  33960  286.19 0855.49
2009/04/23 07:35:10.4      70   -179     -4    193    194 158.6  -1.3  33962  286.22 0855.49
2009/04/23 07:35:10.5      68   -175      0    189    190 158.6   0.0  33958  286.17 0855.49
2009/04/23 07:35:10.6      38   -184      5    189    190 168.2   1.6  33962  286.22 0855.49
2009/04/23 07:35:10.7      34   -178      0    182    183 169.1  -0.3  33962  286.22 0855.49
2009/04/23 07:35:10.9      29   -161    -25    164    166 169.8  -8.8  33960  286.19 0855.49
2009/04/23 07:35:11.0      29   -146    -46    149    157 168.5 -17.3  33960  286.20 0855.49
2009/04/23 07:35:11.1      21   -145    -40    147    153 171.5 -15.4  33960  286.19 0855.49
2009/04/23 07:35:11.2      28   -134    -32    138    142 168.0 -13.3  33960  286.20 0855.49
2009/04/23 07:35:11.3      23   -128    -43    131    137 169.8 -23.8  33962  286.24 0855.49
2009/04/23 07:35:11.3      41   -130    -55    137    147 162.6 -27.4  33962  286.22 0855.49
2009/04/23 07:35:11.5      41   -119    -44    127    135 160.8 -19.1  33960  286.20 0855.49
2009/04/23 07:35:11.6      32   -125    -34    130    135 165.7 -15.0  33960  286.19 0855.49
2009/04/23 07:35:11.7      25   -147     -6    150    151 170.2  -2.6  33962  286.24 0855.49
2009/04/23 07:35:11.8      22   -183     18    185    186 172.9   5.7  33958  286.17 0855.49
2009/04/23 07:35:11.9     -29   -181     32    184    187 189.1   9.9  33960  286.19 0855.49
2009/04/23 07:35:12.0     -44   -167     36    173    177 195.1  12.0  33960  286.20 0855.49
2009/04/23 07:35:12.1     -27   -153     41    156    162 190.2  14.7  33958  286.17 0855.49
2009/04/23 07:35:12.2     -23   -139     27    142    145 189.7  11.1  33962  286.24 0855.49
2009/04/23 07:35:12.3     -36   -138      1    143    144 194.7   0.7  33960  286.20 0855.49
2009/04/23 07:35:12.4     -33   -153     -6    157    158 192.5  -2.2  33960  286.19 0855.49
2009/04/23 07:35:12.5     -35   -175    -15    179    180 191.6  -4.9  33960  286.19 0855.49
2009/04/23 07:35:12.6     -33   -168    -12    172    173 191.3  -4.1  33960  286.20 0855.49
2009/04/23 07:35:12.7     -31   -164     -9    168    169 190.9  -3.3  33960  286.19 0855.49
2009/04/23 07:35:12.8     -35   -165     -6    169    170 192.3  -2.2  33958  286.17 0855.49
2009/04/23 07:35:12.9     -16   -146    -18    147    149 186.3  -7.3  33958  286.15 0855.49
2009/04/23 07:35:13.0     -12   -125    -26    126    129 185.8 -11.9  33958  286.15 0855.49
2009/04/23 07:35:13.1       5   -123    -35    124    130 177.4 -16.0  33958  286.15 0855.49
2009/04/23 07:35:13.2       8   -109    -31    110    114 175.5 -20.7  33960  286.19 0855.49
2009/04/23 07:35:13.3      10   -136    -27    137    140 175.5 -11.5  33958  286.17 0855.49
2009/04/23 07:35:13.4       0   -154    -18    155    157 180.0  -6.9  33960  286.19 0855.49
2009/04/23 07:35:13.5      -8   -161    -40    162    167 183.1 -13.9  33958  286.17 0855.49
2009/04/23 07:35:13.6     -22   -157    -38    159    164 188.1 -13.7  33958  286.17 0855.49
2009/04/23 07:35:13.7     -32   -157    -19    161    163 191.6  -6.7  33958  286.17 0855.49
2009/04/23 07:35:13.8     -53   -182    -32    190    193 196.3  -9.6  33958  286.17 0855.49
2009/04/23 07:35:13.9     -41   -165    -21    171    173 194.0  -7.2  33960  286.19 0855.50
2009/04/23 07:35:14.0     -14   -172    -11    173    174 184.9  -3.9  33960  286.19 0855.50
2009/04/23 07:35:14.1      -4   -153     -6    154    155 181.8  -2.2  33960  286.19 0855.50
2009/04/23 07:35:14.2     -11   -143    -18    144    146 184.4  -7.2  33960  286.20 0855.50
2009/04/23 07:35:14.3     -25   -126    -41    129    136 191.5 -17.6  33960  286.19 0855.50
2009/04/23 07:35:14.4     -16   -118    -65    120    136 188.0 -35.2  33958  286.17 0855.50
2009/04/23 07:35:14.5     -15   -128    -57    129    141 187.1 -29.6  33960  286.19 0855.50
2009/04/23 07:35:14.6     -40   -135    -53    141    150 196.5 -25.9  33960  286.19 0855.50
2009/04/23 07:35:14.7     -47   -143    -42    151    156 198.3 -20.0  33958  286.17 0855.50
2009/04/23 07:35:14.8     -41   -151    -53    157    165 195.2 -23.3  33960  286.19 0855.50
2009/04/23 07:35:14.9     -24   -166    -47    168    174 188.2 -20.4  33958  286.15 0855.50
2009/04/23 07:35:15.0      14   -181    -59    182    192 175.5 -17.9  33958  286.15 0855.50
2009/04/23 07:35:15.1      17   -177    -53    178    186 174.4 -16.6  33958  286.15 0855.50
2009/04/23 07:35:15.2      18   -181    -23    182    184 174.2  -7.3  33958  286.15 0855.50
2009/04/23 07:35:15.3      23   -183     -4    185    186 172.7  -1.3  33956  286.14 0855.50
2009/04/23 07:35:15.4       5   -172      5    173    174 178.2   1.8  33958  286.15 0855.50
2009/04/23 07:35:15.5     -10   -172    -11    173    174 183.4  -3.9  33958  286.17 0855.50
2009/04/23 07:35:15.6     -12   -172    -14    173    174 184.0  -4.9  33958  286.17 0855.50
2009/04/23 07:35:15.7     -24   -168     -9    170    171 188.2  -3.3  33956  286.14 0855.50
2009/04/23 07:35:15.8     -31   -155    -19    159    161 191.6  -6.9  33958  286.15 0855.50
2009/04/23 07:35:15.9     -40   -143    -28    149    152 195.6 -10.9  33958  286.17 0855.49
2009/04/23 07:35:16.0     -39   -131    -49    137    146 197.0 -19.7  33960  286.19 0855.49
2009/04/23 07:35:16.1     -44   -134    -50    142    150 198.3 -23.8  33958  286.15 0855.49
2009/04/23 07:35:16.2     -42   -141    -46    148    154 196.5 -23.3  33958  286.17 0855.49
2009/04/23 07:35:16.3     -38   -143    -42    149    154 195.1 -20.7  33956  286.12 0855.49
2009/04/23 07:35:16.4     -38   -141    -41    147    152 195.1 -20.2  33956  286.12 0855.49
2009/04/23 07:35:16.5     -34   -145    -53    149    159 193.3 -19.6  33956  286.14 0855.49
2009/04/23 07:35:16.6     -32   -141    -44    145    151 192.9 -21.7  33954  286.08 0855.49
2009/04/23 07:35:16.7     -29   -137    -49    141    149 192.0 -23.3  33956  286.14 0855.49
2009/04/23 07:35:16.8     -22   -132    -46    134    142 189.8 -19.1  33960  286.19 0855.49
2009/04/23 07:35:16.9     -30   -133    -56    137    148 192.9 -27.5  33960  286.19 0855.49
2009/04/23 07:35:17.0     -18   -130    -59    132    144 188.0 -30.1  33962  286.22 0855.49
2009/04/23 07:35:17.1       0   -137    -67    138    153 180.4 -31.7  33960  286.19 0855.49
2009/04/23 07:35:17.2      -7   -114    -81    115    140 183.6 -43.5  33958  286.15 0855.49
2009/04/23 07:35:17.3     -24    -97    -57    101    115 194.3 -36.3  33956  286.14 0855.49
2009/04/23 07:35:17.4     -19    -98    -39    100    107 191.5 -26.4  33956  286.14 0855.49
2009/04/23 07:35:17.5     -27   -103    -32    107    111 195.1 -21.7  33958  286.15 0855.49
2009/04/23 07:35:17.6     -16   -118    -36    120    125 188.0 -21.8  33958  286.15 0855.49
2009/04/23 07:35:17.7     -20   -143    -52    145    155 188.0 -19.7  33956  286.14 0855.49
2009/04/23 07:35:17.8       4   -133    -49    134    142 178.2 -25.3  33960  286.19 0855.49
2009/04/23 07:35:17.9      20   -142    -63    144    157 172.0 -29.5  33960  286.19 0855.49
2009/04/23 07:35:18.0     -45   -118    -64    127    142 200.9 -33.1  33958  286.17 0855.49
2009/04/23 07:35:18.1     -26   -134    -59    137    149 191.1 -29.5  33958  286.17 0855.49
2009/04/23 07:35:18.2     -17   -127    -45    129    136 188.0 -23.3  33960  286.19 0855.49
2009/04/23 07:35:18.3       1   -128    -57    129    141 179.5 -29.6  33960  286.19 0855.49
2009/04/23 07:35:18.4       1   -129    -64    130    144 179.5 -32.6  33962  286.22 0855.49
2009/04/23 07:35:18.5      -4   -126    -64    127    142 182.2 -33.1  33958  286.17 0855.49
2009/04/23 07:35:18.6     -16   -110    -72    112    133 188.5 -40.0  33958  286.17 0855.49
2009/04/23 07:35:18.7     -34   -103    -67    109    127 198.7 -39.4  33958  286.15 0855.49
2009/04/23 07:35:18.8     -27    -93    -46     98    108 196.5 -31.5  33954  286.10 0855.49
2009/04/23 07:35:18.9     -25    -91    -44     95    104 195.6 -31.0  33956  286.14 0855.49
2009/04/23 07:35:19.0      -7    -85    -42     86     95 184.9 -32.2  33958  286.17 0855.49
2009/04/23 07:35:19.1      -7    -85    -42     86     95 184.9 -32.2  33958  286.17 0855.49
2009/04/23 07:35:19.2       6    -91    -46     92    102 176.0 -32.6  33958  286.15 0855.49
2009/04/23 07:35:19.3       9    -91    -48     92    103 174.2 -34.7  33956  286.14 0855.49
2009/04/23 07:35:19.4      22    -96    -50     99    110 167.1 -32.6  33958  286.17 0855.49
2009/04/23 07:35:19.5      26    -83    -41     87     96 162.6 -31.6  33954  286.10 0855.49
2009/04/23 07:35:19.6      30    -80    -35     86     92 159.1 -27.4  33954  286.08 0855.49
2009/04/23 07:35:19.7      34    -77    -40     85     93 155.9 -31.5  33956  286.14 0855.49
2009/04/23 07:35:19.8      33    -73    -29     81     87 155.9 -19.7  33954  286.10 0855.49
2009/04/23 07:35:19.9      35    -78    -27     86     91 155.5 -17.6  33956  286.14 0855.49
2009/04/23 07:35:20.0      25    -84    -29     88     92 163.1 -23.8  33952  286.07 0855.49
2009/04/23 07:35:20.1      33    -86    -32     93     98 158.6 -23.3  33952  286.07 0855.49
2009/04/23 07:35:20.2      32    -83    -26     90     93 158.6 -21.7  33956  286.14 0855.49
2009/04/23 07:35:20.3      20    -88    -28     91     95 167.1 -22.8  33958  286.15 0855.49
2009/04/23 07:35:20.4      30    -91    -31     96    100 161.7 -23.3  33956  286.14 0855.49
2009/04/23 07:35:20.5      35   -104    -37    110    116 161.3 -23.6  33958  286.17 0855.49
2009/04/23 07:35:20.6      38    -83    -36     92     98 155.5 -26.9  33956  286.14 0855.49
2009/04/23 07:35:20.7      66    -71    -37     98    104 137.2 -25.4  33958  286.15 0855.49
2009/04/23 07:35:20.8      76    -71    -37    105    111 133.1 -23.8  33964  286.25 0855.49
2009/04/23 07:35:20.9      75    -71    -36    104    110 133.6 -23.3  33964  286.25 0855.49
2009/04/23 07:35:21.0      75    -71    -36    104    110 133.6 -23.3  33964  286.25 0855.49
2009/04/23 07:35:21.1      81    -86    -39    119    125 136.7 -23.8  33964  286.25 0855.49
2009/04/23 07:35:21.2      88    -84    -38    122    128 133.6 -17.5  33964  286.25 0855.49
2009/04/23 07:35:21.3      82    -88    -38    121    126 136.8 -22.8  33964  286.25 0855.49
2009/04/23 07:35:21.4      91    -95    -17    132    134 136.3  -7.7  33974  286.44 0855.49
2009/04/23 07:35:21.5      99    -90    -17    134    136 132.2  -7.3  33976  286.46 0855.49
2009/04/23 07:35:21.6      89    -84    -12    123    124 133.1  -5.6  33972  286.39 0855.49
2009/04/23 07:35:21.7      91    -71    -14    116    117 128.2  -7.3  33968  286.34 0855.49
2009/04/23 07:35:21.8      97    -71    -24    121    124 126.4 -11.3  33964  286.25 0855.49
2009/04/23 07:35:21.9      82   -100    -17    130    132 140.4  -7.7  33962  286.22 0855.50
2009/04/23 07:35:22.0      83    -86     -4    120    121 135.9  -2.2  33962  286.24 0855.50
2009/04/23 07:35:22.1      92   -102     -3    138    139 137.7  -1.3  33968  286.32 0855.50
2009/04/23 07:35:22.2      96   -117     -5    152    153 140.8  -2.2  33976  286.47 0855.50
2009/04/23 07:35:22.3     106   -127    -10    166    167 139.9  -3.7  33982  286.56 0855.50
2009/04/23 07:35:22.4     106   -131    -18    169    171 141.0  -6.2  33980  286.52 0855.50
2009/04/23 07:35:22.5      98   -139      2    171    172 144.8   1.0  33976  286.46 0855.50
2009/04/23 07:35:22.6     105   -133      8    170    171 141.5   2.8  33976  286.46 0855.50
2009/04/23 07:35:22.7      88   -127      7    155    156 145.3   2.8  33978  286.49 0855.50
2009/04/23 07:35:22.8      94   -134      2    164    165 144.8   0.8  33982  286.56 0855.50
2009/04/23 07:35:22.9      90   -148     12    174    175 148.8   4.2  33980  286.52 0855.50
2009/04/23 07:35:23.0      98   -160     12    188    189 148.4   3.8  33978  286.49 0855.50
2009/04/23 07:35:23.1      95   -148     34    177    181 147.3  11.1  33972  286.41 0855.50
2009/04/23 07:35:23.2      95   -136     34    166    170 145.0  11.6  33972  286.41 0855.50
2009/04/23 07:35:23.3      96   -134      6    165    166 144.4   2.1  33970  286.37 0855.50
2009/04/23 07:35:23.4      91   -125     31    155    159 144.0  11.4  33974  286.42 0855.50
2009/04/23 07:35:23.5      83   -130     42    155    161 147.4  15.2  33970  286.35 0855.50
2009/04/23 07:35:23.6      77   -122     39    145    151 147.5  15.3  33968  286.32 0855.50
2009/04/23 07:35:23.7      80   -123     37    147    152 147.0  14.3  33970  286.35 0855.50
2009/04/23 07:35:23.8      88   -106     28    139    142 140.3  11.6  33970  286.35 0855.50
2009/04/23 07:35:23.9      76   -137     52    157    166 151.0  18.6  33974  286.42 0855.50
2009/04/23 07:35:24.0      69   -174     67    188    199 158.2  20.4  33974  286.42 0855.50
2009/04/23 07:35:24.1      80   -165     59    184    194 153.9  17.9  33968  286.34 0855.50
2009/04/23 07:35:24.2      76   -130     38    151    156 149.7  14.3  33964  286.27 0855.50
2009/04/23 07:35:24.3      84   -108      6    137    138 142.2   2.9  33970  286.35 0855.50
2009/04/23 07:35:24.4      77    -93     -2    122    123 140.4  -1.3  33968  286.32 0855.50
2009/04/23 07:35:24.5      78   -123      3    147    148 147.5   1.2  33972  286.39 0855.50
2009/04/23 07:35:24.6      90   -180     23    202    204 153.5   6.7  33974  286.44 0855.50
2009/04/23 07:35:24.7      96   -172     10    198    199 150.8   3.1  33972  286.41 0855.50
2009/04/23 07:35:24.8      97   -158     27    186    189 148.4   8.5  33966  286.29 0855.50
2009/04/23 07:35:24.9     105   -160      9    192    193 146.6   2.8  33968  286.34 0855.50
2009/04/23 07:35:25.0      88   -151     21    176    178 149.7   6.9  33964  286.27 0855.50
2009/04/23 07:35:25.1      96   -150      5    179    180 147.5   1.6  33970  286.37 0855.50
2009/04/23 07:35:25.2     100   -156      1    186    187 147.4   0.5  33978  286.51 0855.50
2009/04/23 07:35:25.3      63   -154     19    167    169 157.5   6.5  33982  286.56 0855.50
2009/04/23 07:35:25.4      69   -146     55    162    172 154.6  18.9  33982  286.56 0855.50
2009/04/23 07:35:25.5      81   -127     47    151    159 147.4  17.4  33978  286.51 0855.50
2009/04/23 07:35:25.6      92   -117     30    150    154 141.7  11.6  33970  286.37 0855.50
2009/04/23 07:35:25.7     107   -113     11    156    157 136.7   4.4  33976  286.47 0855.50
2009/04/23 07:35:25.8      95   -143     57    172    182 146.4  18.4  33980  286.52 0855.50
2009/04/23 07:35:25.9      88   -160     77    183    198 151.0  24.1  33978  286.49 0855.50
2009/04/23 07:35:26.0      84   -164     88    185    204 152.8  27.2  33972  286.41 0855.50
2009/04/23 07:35:26.1      82   -168     93    188    209 153.9  28.0  33972  286.41 0855.50
2009/04/23 07:35:26.2      79   -168    102    186    212 154.8  31.4  33970  286.35 0855.50
2009/04/23 07:35:26.3      69   -149    114    165    200 155.1  37.8  33966  286.29 0855.50
2009/04/23 07:35:26.4      54   -135     99    146    176 158.1  37.3  33966  286.30 0855.50
2009/04/23 07:35:26.5      37   -158     63    163    174 166.6  21.7  33968  286.34 0855.50
2009/04/23 07:35:26.6      57   -149     62    160    171 159.1  22.3  33966  286.29 0855.50
2009/04/23 07:35:26.7      64   -136     54    151    160 154.7  20.2  33966  286.30 0855.50
2009/04/23 07:35:26.8      69   -148     70    164    178 155.1  24.3  33974  286.44 0855.50
2009/04/23 07:35:26.9      46   -153     76    160    177 163.1  27.2  33976  286.47 0855.50
2009/04/23 07:35:27.1      41   -177     62    182    193 166.9  18.9  33968  286.32 0855.50
2009/04/23 07:35:27.2      44   -173     42    179    184 165.5  13.2  33964  286.27 0855.50
2009/04/23 07:35:27.3      47   -167     57    174    184 164.2  18.1  33966  286.29 0855.50
2009/04/23 07:35:27.4      48   -120     82    130    153 158.1  35.5  33964  286.27 0855.50
2009/04/23 07:35:27.5       5   -113     93    114    147 177.3  43.7  33976  286.47 0855.50
2009/04/23 07:35:27.6       1   -107     97    108    145 179.1  46.9  33972  286.41 0855.50
2009/04/23 07:35:27.7      37    -44     63     58     85 140.4  52.2  33970  286.37 0855.50
2009/04/23 07:35:27.8      39    -93     83    101    130 157.3  43.7  33966  286.29 0855.50
2009/04/23 07:35:27.9      74   -104     83    128    152 144.4  35.6  33962  286.24 0855.50
2009/04/23 07:35:28.0      59   -100     59    117    131 149.3  28.7  33960  286.19 0855.50
2009/04/23 07:35:28.1      37    -98     36    105    112 159.1  18.9  33960  286.19 0855.50
2009/04/23 07:35:28.2      35   -104     41    110    117 161.3  21.0  33958  286.17 0855.50
2009/04/23 07:35:28.3      35   -104     55    110    122 161.3  28.2  33958  286.17 0855.50
2009/04/23 07:35:28.4      31    -91     66     97    117 160.8  37.0  33960  286.19 0855.50
2009/04/23 07:35:28.5      51    -85     64    100    118 148.8  35.6  33960  286.20 0855.50
2009/04/23 07:35:28.6      37   -108     22    115    118 160.8  11.1  33962  286.22 0855.50
2009/04/23 07:35:28.7      30    -86      6     92     93 160.8   3.8  33964  286.27 0855.50
2009/04/23 07:35:28.8      50    -94     28    107    111 151.9  14.7  33960  286.19 0855.50
2009/04/23 07:35:28.9      50    -88     13    102    103 150.6   7.5  33954  286.10 0855.50
2009/04/23 07:35:29.0      50    -79      4     94     95 147.5   2.9  33956  286.14 0855.50
2009/04/23 07:35:29.1      50    -79      4     94     95 147.5   2.9  33954  286.08 0855.50
2009/04/23 07:35:29.2      51    -63     -2     82     83 141.3  -1.8  33958  286.17 0855.50
2009/04/23 07:35:29.3      60    -59     -3     85     86 134.4  -2.2  33956  286.14 0855.50
2009/04/23 07:35:29.4      58    -73     -2     94     95 141.7  -1.3  33962  286.22 0855.50
2009/04/23 07:35:29.5      69    -67     -2     97     98 134.4  -1.3  33962  286.22 0855.50
2009/04/23 07:35:29.6      64    -55     -1     85     86 130.9  -0.7  33958  286.17 0855.50
2009/04/23 07:35:29.7      76    -49      7     91     92 122.9   4.4  33956  286.12 0855.50
2009/04/23 07:35:29.8      64    -21     13     68     70 108.2  11.1  33958  286.17 0855.50
2009/04/23 07:35:29.9      48     -9     34     49     59 100.6  38.6  33960  286.19 0855.49
2009/04/23 07:35:30.0      61     -8     50     62     79  97.9  43.3  33962  286.24 0855.49
2009/04/23 07:35:30.1      57    -18     28     60     66 108.2  27.1  33962  286.22 0855.49
2009/04/23 07:35:30.2      67     -5      3     68     69  94.3   2.9  33960  286.19 0855.49
2009/04/23 07:35:30.3      66      7      3     67     68  83.9   2.9  33960  286.20 0855.49
2009/04/23 07:35:30.4      56     20     -1     60     61  70.0  -1.2  33960  286.20 0855.49
2009/04/23 07:35:30.5      44     30      2     54     55  55.8   2.8  33960  286.20 0855.49
2009/04/23 07:35:30.6      46     25     -7     53     54  61.1  -8.2  33960  286.20 0855.49
2009/04/23 07:35:30.7      30      9    -23     32     39  73.2 -44.1  33960  286.20 0855.49
2009/04/23 07:35:30.8      40      0    -26     41     48  90.0 -39.9  33962  286.24 0855.49
2009/04/23 07:35:30.9      31      0    -35     32     47  90.0 -56.6  33964  286.25 0855.49
2009/04/23 07:35:31.0      41     -9    -24     43     49 103.3 -35.8  33962  286.22 0855.49
2009/04/23 07:35:31.1      37    -14    -31     40     50 111.7 -47.1  33960  286.20 0855.49
2009/04/23 07:35:31.2      55    -22    -19     60     62 111.7 -22.8  33958  286.17 0855.49
2009/04/23 07:35:31.3      54    -26    -19     61     64 116.2 -17.6  33962  286.22 0855.49
2009/04/23 07:35:31.4      55    -24    -20     61     64 113.5 -23.8  33968  286.32 0855.49
2009/04/23 07:35:31.5      48    -18    -26     52     58 110.8 -32.6  33966  286.30 0855.49
2009/04/23 07:35:31.6      52     -3    -29     53     60  94.3 -35.8  33964  286.27 0855.49
2009/04/23 07:35:31.7      40      0    -13     41     43  90.0 -23.8  33962  286.24 0855.49
2009/04/23 07:35:31.8      25     -9    -16     27     31 111.7 -37.9  33962  286.22 0855.49
2009/04/23 07:35:31.9      38     -2    -11     39     41  94.3 -16.6  33960  286.19 0855.48
2009/04/23 07:35:32.0      30    -30      9     43     45 135.0  12.2  33958  286.15 0855.48
2009/04/23 07:35:32.1      13    -39     26     42     49 161.5  35.5  33960  286.19 0855.48
2009/04/23 07:35:32.2      30    -35     35     47     58 139.5  40.7  33956  286.14 0855.48
2009/04/23 07:35:32.3      37    -36     31     52     60 134.0  33.5  33956  286.14 0855.48
2009/04/23 07:35:32.4      37    -42     37     57     67 138.6  35.6  33956  286.12 0855.48
2009/04/23 07:35:32.5      29    -43     34     53     62 145.7  35.5  33956  286.14 0855.48
2009/04/23 07:35:32.6      35    -35     33     50     59 135.0  36.5  33958  286.15 0855.48
2009/04/23 07:35:32.7      28    -32     32     43     53 138.6  40.7  33954  286.10 0855.48
2009/04/23 07:35:32.8      21    -25     26     33     42 140.3  42.7  33956  286.12 0855.48
2009/04/23 07:35:32.9      25    -18     23     32     39 126.0  39.7  33958  286.15 0855.48
2009/04/23 07:35:33.0      26     -8     20     28     34 108.6  37.6  33958  286.17 0855.48
2009/04/23 07:35:33.1      28    -18     27     34     43 122.4  42.7  33960  286.20 0855.48
2009/04/23 07:35:33.2      41    -33     40     53     66 128.6  40.7  33962  286.24 0855.48
2009/04/23 07:35:33.3      30    -48     31     57     64 147.4  31.4  33962  286.24 0855.48
2009/04/23 07:35:33.4      22    -35     17     42     45 148.4  23.0  33964  286.27 0855.48
2009/04/23 07:35:33.5      25    -34     17     43     46 143.9  22.0  33966  286.29 0855.48
2009/04/23 07:35:33.6      56    -41     32     70     76 126.0  27.1  33968  286.32 0855.48
2009/04/23 07:35:33.7      62    -42     30     75     80 124.2  23.0  33970  286.35 0855.48
2009/04/23 07:35:33.8      34    -56     17     66     69 148.4  14.3  33968  286.34 0855.48
2009/04/23 07:35:33.9      32    -45     -3     56     57 144.8  -3.1  33968  286.32 0855.48
2009/04/23 07:35:34.0      41    -70     -3     82     83 149.7  -2.2  33970  286.35 0855.48
2009/04/23 07:35:34.1      32    -77     -4     84     85 157.3  -3.1  33968  286.32 0855.48
2009/04/23 07:35:34.2      36    -68     -2     78     79 151.9  -1.8  33968  286.32 0855.48
2009/04/23 07:35:34.3      32    -49     -2     59     60 146.6  -2.2  33966  286.30 0855.48
2009/04/23 07:35:34.4      27    -53     -8     60     61 152.8  -8.2  33968  286.32 0855.48
2009/04/23 07:35:34.5      17    -37     -1     41     42 155.5  -2.2  33968  286.32 0855.48
2009/04/23 07:35:34.6      15    -33     -4     37     38 154.6  -7.2  33966  286.30 0855.48
2009/04/23 07:35:34.7      13    -31     -5     34     35 156.4  -9.3  33968  286.32 0855.48
2009/04/23 07:35:34.8       2    -30     10     31     33 175.5  19.4  33968  286.32 0855.48
2009/04/23 07:35:34.9       6    -31     23     32     39 168.5  39.7  33968  286.34 0855.48
2009/04/23 07:35:35.0      12    -47     19     49     52 164.9  22.0  33968  286.32 0855.48
2009/04/23 07:35:35.1       3    -46     24     47     52 175.5  28.2  33968  286.32 0855.48
2009/04/23 07:35:35.2       1    -49     22     50     54 178.2  26.2  33966  286.30 0855.48
2009/04/23 07:35:35.3       4    -53     24     54     59 175.6  25.1  33964  286.27 0855.48
2009/04/23 07:35:35.4       6    -70     22     71     75 174.7  17.3  33964  286.25 0855.48
2009/04/23 07:35:35.5      -5    -66     27     67     72 184.5  23.0  33966  286.30 0855.48
2009/04/23 07:35:35.6     -11    -58     29     60     66 191.5  27.2  33964  286.27 0855.48
2009/04/23 07:35:35.7       1    -53     25     54     59 178.2  26.2  33964  286.27 0855.48
2009/04/23 07:35:35.8      20    -66     39     70     80 163.1  31.4  33966  286.30 0855.48
2009/04/23 07:35:35.9      40    -63     40     75     85 147.4  30.3  33962  286.24 0855.48
2009/04/23 07:35:36.0      34    -53     48     64     80 147.5  40.7  33962  286.22 0855.48
2009/04/23 07:35:36.1       4    -62     43     63     76 175.5  36.5  33962  286.24 0855.48
2009/04/23 07:35:36.2      35    -60     30     70     76 149.3  24.1  33964  286.27 0855.48
2009/04/23 07:35:36.3      26    -56     39     62     73 154.6  35.5  33962  286.24 0855.48
2009/04/23 07:35:36.4      15    -58     29     61     67 164.8  27.2  33964  286.25 0855.48
2009/04/23 07:35:36.5       3    -38     24     39     45 175.5  35.5  33964  286.27 0855.48
2009/04/23 07:35:36.6      23    -59     31     64     71 158.1  27.3  33962  286.24 0855.48
2009/04/23 07:35:36.7      20    -62     23     66     71 161.7  19.4  33962  286.24 0855.48
2009/04/23 07:35:36.8      20    -60     11     64     66 161.3  10.1  33966  286.29 0855.48
2009/04/23 07:35:36.9      17    -53     18     56     60 161.7  18.4  33964  286.25 0855.48
2009/04/23 07:35:37.0      28    -44     35     53     63 147.4  36.5  33962  286.24 0855.48
2009/04/23 07:35:37.1      30    -55     37     63     73 151.0  33.5  33964  286.27 0855.48
2009/04/23 07:35:37.2      26    -55     26     62     67 154.5  23.1  33962  286.24 0855.48
2009/04/23 07:35:37.3      27    -39     26     48     54 145.7  31.4  33962  286.24 0855.48
2009/04/23 07:35:37.4      30    -38     25     49     55 142.2  29.3  33964  286.25 0855.48
2009/04/23 07:35:37.5      36    -39     35     54     64 137.7  35.6  33962  286.24 0855.48
2009/04/23 07:35:37.7      35    -41     34     54     63 139.5  35.5  33962  286.24 0855.48
2009/04/23 07:35:37.8      34    -44     33     56     65 142.2  33.5  33962  286.22 0855.48
2009/04/23 07:35:37.9      40    -49     26     64     69 140.4  23.0  33962  286.24 0855.48
2009/04/23 07:35:38.0      33    -54     36     64     73 148.4  31.4  33964  286.25 0855.48
2009/04/23 07:35:38.1       3    -53     57     54     78 176.4  51.6  33960  286.19 0855.48
2009/04/23 07:35:38.2       0    -66     57     67     87 180.0  44.8  33960  286.19 0855.48
2009/04/23 07:35:38.3     -17    -90     64     92    112 190.7  38.6  33962  286.22 0855.48
2009/04/23 07:35:38.4     -14    -82     65     84    106 190.2  41.7  33962  286.22 0855.48
2009/04/23 07:35:38.5      -2    -70     66     71     96 181.8  48.5  33962  286.24 0855.48
2009/04/23 07:35:38.6     -14    -70     61     72     94 191.6  44.8  33962  286.24 0855.48
2009/04/23 07:35:38.7      -5    -70     63     71     94 184.5  46.4  33958  286.17 0855.48
2009/04/23 07:35:38.8      -7    -85     77     86    115 185.3  46.9  33958  286.15 0855.48
2009/04/23 07:35:38.9     -18   -100     62    102    119 190.7  34.0  33962  286.24 0855.48
2009/04/23 07:35:39.0      -6    -78     64     79    101 184.5  43.7  33962  286.22 0855.48
2009/04/23 07:35:39.1     -10    -76     67     77    102 188.1  45.8  33962  286.24 0855.48
2009/04/23 07:35:39.2      -1    -62     63     63     89 181.8  50.1  33962  286.24 0855.48
2009/04/23 07:35:39.3     -23    -70     50     74     89 198.7  37.0  33960  286.20 0855.48
2009/04/23 07:35:39.4     -12    -82     49     84     97 188.9  33.5  33960  286.20 0855.48
2009/04/23 07:35:39.5       4    -76     31     77     83 176.4  23.0  33962  286.24 0855.48
2009/04/23 07:35:39.6      -5    -80      3     81     82 184.0   2.3  33962  286.22 0855.48
2009/04/23 07:35:39.7     -22    -68    -14     72     74 198.3 -11.3  33960  286.20 0855.48
2009/04/23 07:35:39.8     -32    -69    -25     77     80 205.3 -23.3  33964  286.25 0855.48
2009/04/23 07:35:39.9     -28    -74    -28     80     84 200.9 -23.8  33962  286.22 0855.48
2009/04/23 07:35:40.0      19    -57    -31     61     68 161.3 -32.6  33962  286.22 0855.48
2009/04/23 07:35:40.1      47    -32      1     57     58 124.2   1.8  33960  286.19 0855.48
2009/04/23 07:35:40.2      41    -23     10     48     50 119.8  12.2  33960  286.19 0855.48
2009/04/23 07:35:40.3      54    -15     26     57     62 105.9  26.2  33960  286.19 0855.48
2009/04/23 07:35:40.4      43     -7     31     44     53  99.7  38.6  33962  286.24 0855.48
2009/04/23 07:35:40.5      41    -11     28     43     51 105.1  35.6  33962  286.22 0855.48
2009/04/23 07:35:40.6      35     -4     23     36     42  97.9  35.5  33962  286.22 0855.48
2009/04/23 07:35:40.7      26     -8     26     28     38 108.6  52.0  33962  286.24 0855.48
2009/04/23 07:35:40.8       7      0     28      8     29  90.0  80.7  33964  286.27 0855.48
2009/04/23 07:35:40.9      12      0     26     13     29  90.0  72.9  33962  286.24 0855.48
2009/04/23 07:35:41.0      15     -4     28     16     32 105.1  66.8  33962  286.22 0855.47
2009/04/23 07:35:41.1      10    -10     11     15     18 135.0  39.7  33964  286.27 0855.47
2009/04/23 07:35:41.2      11     -7      7     14     15 122.4  27.2  33964  286.25 0855.47
2009/04/23 07:35:41.3      -3    -14     22     15     26 195.1  64.6  33962  286.24 0855.47
2009/04/23 07:35:41.4       0     -7     26      8     27 182.7  80.7  33964  286.25 0855.47
2009/04/23 07:35:41.5       0     11     10     12     15 355.5  47.9  33964  286.27 0855.47
2009/04/23 07:35:41.6      -8     25      0     27     28 341.7  -1.3  33964  286.27 0855.47
2009/04/23 07:35:41.7      -3     30      8     31     33 353.8  15.3  33962  286.24 0855.47
2009/04/23 07:35:41.8      -3     30      8     31     33 353.8  15.3  33962  286.24 0855.47
2009/04/23 07:35:41.9       0     23     13     24     27 359.1  31.4  33962  286.24 0855.47
2009/04/23 07:35:42.0       2     27     15     28     31   4.5  29.3  33962  286.22 0855.47
2009/04/23 07:35:42.1       4     23     24     24     33   9.8  50.1  33964  286.27 0855.47
2009/04/23 07:35:42.2       0     23     40     24     46 359.1  65.7  33964  286.25 0855.47
2009/04/23 07:35:42.3     -11     35     41     37     55 341.3  53.3  33962  286.22 0855.47
2009/04/23 07:35:42.4     -18     38     29     43     51 334.6  37.6  33958  286.17 0855.47
2009/04/23 07:35:42.5      15     24     43     29     51  32.6  62.6  33962  286.24 0855.47
2009/04/23 07:35:42.6     -21      0     56     22     60 272.6  77.1  33962  286.22 0855.47
2009/04/23 07:35:42.7      16      2     40     17     43  82.1  77.1  33962  286.24 0855.47
2009/04/23 07:35:42.8      30     13     30     33     44  66.5  47.9  33964  286.25 0855.47
2009/04/23 07:35:42.9       4    -63     31     64     71 176.4  27.3  33964  286.25 0855.47
2009/04/23 07:35:43.0     -17    -53     50     56     75 198.7  46.9  33960  286.20 0855.47
2009/04/23 07:35:43.1       3    -14     44     15     46 168.4  81.0  33962  286.24 0855.47
2009/04/23 07:35:43.2       0    -23     67     24     71 180.9  81.2  33962  286.24 0855.47
2009/04/23 07:35:43.3      -3    -38     42     39     57 184.5  51.2  33964  286.27 0855.47
2009/04/23 07:35:43.4       6     -7     23     10     25 140.4  77.1  33964  286.27 0855.47
2009/04/23 07:35:43.5      15    -57     27     60     65 164.9  26.2  33964  286.25 0855.47
2009/04/23 07:35:43.6      38    -34     38     52     64 132.2  39.7  33964  286.25 0855.47
2009/04/23 07:35:43.7      14    -22     45     27     52 147.5  65.7  33964  286.25 0855.47
2009/04/23 07:35:43.8      34    -20     19     40     44 120.7  26.2  33962  286.22 0855.47
2009/04/23 07:35:43.9      26     -8     13     28     30 108.6  27.1  33964  286.25 0855.47
2009/04/23 07:35:44.0      26    -17     18     32     36 124.2  33.5  33964  286.25 0855.47
2009/04/23 07:35:44.1      21    -11     26     24     35 118.9  50.1  33960  286.19 0855.47
2009/04/23 07:35:44.2       0     -3     42      4     42 175.5  90.0  33960  286.20 0855.47
2009/04/23 07:35:44.3      14     -9     41     17     44 122.4  77.1  33960  286.20 0855.47
2009/04/23 07:35:44.4      14    -31     41     35     53 154.7  54.3  33962  286.24 0855.47
2009/04/23 07:35:44.5       0    -33     28     34     44 180.9  44.8  33962  286.22 0855.47
2009/04/23 07:35:44.6      22     -7     34     24     41 108.6  60.5  33960  286.19 0855.47
2009/04/23 07:35:44.7       4     -2     46      5     46 122.4  90.0  33962  286.22 0855.47
2009/04/23 07:35:44.8      -4     14     35     15     38 341.5  77.1  33962  286.24 0855.47
2009/04/23 07:35:44.9     -12      0     32     13     34 270.0  79.2  33968  286.32 0855.47
2009/04/23 07:35:45.0     -13    -11     31     18     35 230.5  64.7  33964  286.27 0855.47
2009/04/23 07:35:45.1      -6    -32     34     33     47 191.5  49.1  33964  286.25 0855.47
2009/04/23 07:35:45.2      13    -30     54     33     63 156.4  65.7  33962  286.24 0855.47
2009/04/23 07:35:45.3      28    -16     53     33     62 120.7  64.7  33962  286.24 0855.47
2009/04/23 07:35:45.4     -14    -47     67     50     83 196.9  59.4  33962  286.24 0855.47
2009/04/23 07:35:45.5      -7    -54     57     55     79 188.0  50.7  33962  286.24 0855.47
2009/04/23 07:35:45.6      22    -67     52     71     88 161.3  39.7  33962  286.24 0855.47
2009/04/23 07:35:45.7       4    -63     71     64     95 176.4  53.3  33964  286.25 0855.47
2009/04/23 07:35:45.8      -1    -65     50     66     82 181.0  41.2  33960  286.20 0855.47
2009/04/23 07:35:45.9      -3    -47     62     48     78 184.4  57.9  33962  286.24 0855.47
2009/04/23 07:35:46.0     -19    -71     76     74    106 195.1  50.1  33962  286.24 0855.47
2009/04/23 07:35:46.1     -45    -55     49     72     87 219.7  37.0  33964  286.25 0855.47
2009/04/23 07:35:46.2     -42    -66     15     79     81 212.1  11.1  33964  286.27 0855.47
2009/04/23 07:35:46.3     -68    -70     26     98    102 224.1  15.2  33962  286.22 0855.47
2009/04/23 07:35:46.4     -44    -68     50     82     96 213.0  35.0  33960  286.20 0855.47
2009/04/23 07:35:46.5     -18    -62     55     65     85 196.9  44.8  33964  286.27 0855.47
2009/04/23 07:35:46.6     -26    -55     53     62     81 205.5  45.4  33962  286.24 0855.47
2009/04/23 07:35:46.7     -33    -50     46     61     76 213.4  40.7  33964  286.25 0855.47
2009/04/23 07:35:46.8     -26    -56     40     62     73 205.4  35.6  33964  286.25 0855.47
2009/04/23 07:35:46.9     -21    -56     51     60     78 200.9  45.4  33964  286.27 0855.47
2009/04/23 07:35:47.0     -16    -36     64     40     75 203.6  64.7  33964  286.27 0855.47
2009/04/23 07:35:47.1     -15    -43     64     46     78 200.0  60.5  33962  286.22 0855.47
2009/04/23 07:35:47.2     -22    -39     51     45     68 209.9  52.2  33964  286.27 0855.47
2009/04/23 07:35:47.3     -12    -31     46     34     57 201.8  59.4  33958  286.17 0855.47
2009/04/23 07:35:47.4     -21      0     42     22     47 270.0  69.8  33962  286.24 0855.47
2009/04/23 07:35:47.5      -8     23     31     25     39 340.0  56.4  33962  286.24 0855.47
2009/04/23 07:35:47.6     -23      7     37     25     44 288.6  63.6  33964  286.27 0855.47
2009/04/23 07:35:47.7     -16      0     28     17     32 270.0  64.7  33964  286.27 0855.47
2009/04/23 07:35:47.8     -15     26     31     31     43 329.3  50.1  33966  286.29 0855.47
2009/04/23 07:35:47.9     -13     30     13     33     35 336.4  21.0  33962  286.24 0855.47
2009/04/23 07:35:48.0     -13     30     13     33     35 336.4  21.0  33962  286.24 0855.47
2009/04/23 07:35:48.1      12     11     39     17     42  46.7  75.0  33962  286.24 0855.47
2009/04/23 07:35:48.2      16     42     54     45     70  20.9  56.3  33960  286.19 0855.47
2009/04/23 07:35:48.3      16     22     57     28     63  36.1  72.8  33962  286.24 0855.47
2009/04/23 07:35:48.4      31      0     43     32     53  90.0  59.4  33964  286.25 0855.47
2009/04/23 07:35:48.5      32    -10     59     34     68 108.6  67.7  33960  286.20 0855.47
2009/04/23 07:35:48.6      21     -7     48     23     53 110.0  72.9  33960  286.19 0855.47
2009/04/23 07:35:48.7       5      9     40     11     41  32.5  84.9  33960  286.19 0855.47
2009/04/23 07:35:48.8      -4     13     49     14     50 341.3  83.9  33962  286.24 0855.47
2009/04/23 07:35:48.9       2     30     29     31     42   4.4  49.0  33960  286.20 0855.47
2009/04/23 07:35:49.0      -8     25     17     27     31 341.3  35.5  33962  286.22 0855.48
2009/04/23 07:35:49.1     -11      1     14     12     18 277.9  48.2  33960  286.20 0855.48
2009/04/23 07:35:49.2     -27     -3      4     28     29 262.1   9.0  33960  286.19 0855.48
2009/04/23 07:35:49.3     -42    -23     -2     48     49 241.1  -3.1  33960  286.19 0855.48
2009/04/23 07:35:49.4     -37    -38     11     54     56 224.2  12.2  33958  286.17 0855.48
2009/04/23 07:35:49.6     -16    -50     50     53     72 197.8  48.0  33958  286.17 0855.48
2009/04/23 07:35:49.7     -16    -41     70     45     83 201.8  64.1  33958  286.15 0855.48
2009/04/23 07:35:49.8     -37    -16     44     41     60 246.5  52.1  33960  286.19 0855.48
2009/04/23 07:35:49.9     -27    -18     54     33     63 235.8  65.7  33960  286.20 0855.48
2009/04/23 07:35:50.0     -53    -33     45     63     77 237.6  39.5  33962  286.24 0855.48
2009/04/23 07:35:50.1     -40    -64     54     76     93 212.6  39.1  33964  286.25 0855.48
2009/04/23 07:35:50.2     -63    -83     58    105    119 217.0  31.4  33964  286.25 0855.48
2009/04/23 07:35:50.3     -66   -104     40    124    131 212.6  17.9  33962  286.24 0855.48
2009/04/23 07:35:50.4     -31   -140     18    144    146 192.5   7.1  33962  286.24 0855.48
2009/04/23 07:35:50.5     -37   -141     -8    146    147 195.1  -3.1  33964  286.25 0855.48
2009/04/23 07:35:50.6     -56   -147     -6    158    159 200.9  -2.3  33962  286.22 0855.48
2009/04/23 07:35:50.7     -39   -142    -19    148    150 195.6  -7.3  33964  286.25 0855.48
2009/04/23 07:35:50.8      -2   -128    -30    129    133 181.0 -13.4  33964  286.25 0855.48
2009/04/23 07:35:50.9      30   -110    -23    115    118 164.9 -11.5  33960  286.19 0855.48
2009/04/23 07:35:51.0      45    -54     27     71     75 140.4  21.0  33958  286.15 0855.48
2009/04/23 07:35:51.1      26    -77     77     82    112 161.3  48.0  33962  286.24 0855.48
2009/04/23 07:35:51.2      75    -65     76    100    125 130.9  41.2  33964  286.25 0855.48
2009/04/23 07:35:51.3      53    -97     78    111    135 151.1  38.0  33960  286.19 0855.48
2009/04/23 07:35:51.4      17   -133     71    135    152 172.4  29.8  33962  286.24 0855.48
2009/04/23 07:35:51.5       6    -99     62    100    117 176.4  35.0  33962  286.22 0855.48
2009/04/23 07:35:51.6       7    -85     35     86     92 175.1  23.0  33962  286.24 0855.48
2009/04/23 07:35:51.7      36    -80     30     88     94 155.5  18.9  33964  286.25 0855.48
2009/04/23 07:35:51.8      76    -40     30     87     93 118.0  19.2  33962  286.24 0855.48
2009/04/23 07:35:51.9      48    -87     16    100    102 151.0   9.5  33962  286.24 0855.48
2009/04/23 07:35:52.0      47    -73      3     88     89 147.0   2.3  33962  286.22 0855.48
2009/04/23 07:35:52.1      -4    -85     42     86     95 183.1  27.8  33964  286.27 0855.48
2009/04/23 07:35:52.2     -13   -102     47    103    113 187.6  26.6  33964  286.27 0855.48
2009/04/23 07:35:52.3     -26    -99     26    103    107 195.2  14.3  33962  286.24 0855.48
2009/04/23 07:35:52.4     -16   -102      5    104    105 189.3   2.9  33962  286.24 0855.48
2009/04/23 07:35:52.5      12    -92    -17     93     95 172.0 -10.9  33962  286.24 0855.48
2009/04/23 07:35:52.6       9    -68    -30     69     75 172.0 -29.5  33962  286.24 0855.48
2009/04/23 07:35:52.7      13    -58    -23     60     64 166.6 -25.4  33964  286.27 0855.48
2009/04/23 07:35:52.8      27    -56    -27     63     68 154.6 -28.5  33962  286.24 0855.48
2009/04/23 07:35:52.9      33    -53    -22     63     67 147.5 -19.7  33964  286.25 0855.48
2009/04/23 07:35:53.0      36    -38    -16     53     55 136.8 -22.8  33962  286.24 0855.48
2009/04/23 07:35:53.1      38    -30    -13     49     51 127.8 -15.5  33964  286.25 0855.48
2009/04/23 07:35:53.2      31    -14    -12     35     38 115.3 -19.7  33962  286.24 0855.48
2009/04/23 07:35:53.3      23    -15    -18     28     33 122.4 -40.0  33964  286.25 0855.48
2009/04/23 07:35:53.4      26      8    -13     28     30  73.2 -31.5  33962  286.24 0855.48
2009/04/23 07:35:53.5      29     10     15     31     34  70.0  27.2  33962  286.22 0855.48
2009/04/23 07:35:53.6      24     24     11     34     37  45.1  18.9  33962  286.24 0855.48
2009/04/23 07:35:53.7      27     25      0     38     39  46.9   0.8  33962  286.22 0855.48
2009/04/23 07:35:53.8      11     29     -1     32     33  21.8  -2.2  33962  286.24 0855.48
2009/04/23 07:35:53.9       9     27      1     29     30  18.7   2.8  33964  286.25 0855.48
2009/04/23 07:35:54.0      10     33     -1     35     36  18.3  -2.2  33962  286.22 0855.48
2009/04/23 07:35:54.1       8     40      7     41     42  11.6  10.1  33962  286.22 0855.48
2009/04/23 07:35:54.2       4     41     12     42     44   6.2  16.3  33962  286.24 0855.48
2009/04/23 07:35:54.3      -2     32     24     33     40 355.6  39.7  33962  286.22 0855.48
2009/04/23 07:35:54.4     -24    -24     40     34     52 225.1  55.4  33962  286.24 0855.48
2009/04/23 07:35:54.5     -35    -34     45     50     67 225.9  47.9  33964  286.25 0855.48
2009/04/23 07:35:54.6     -32    -39     41     51     65 219.6  43.7  33964  286.27 0855.48
2009/04/23 07:35:54.7      15    -64     66     66     93 166.6  50.1  33962  286.24 0855.48
2009/04/23 07:35:54.8      -1    -65     64     66     91 180.9  50.0  33962  286.22 0855.48
2009/04/23 07:35:54.9       4    -70     65     71     96 176.4  47.9  33964  286.27 0855.48
2009/04/23 07:35:55.0      30    -63     70     70     98 154.6  50.1  33962  286.24 0855.49
2009/04/23 07:35:55.1      24    -73     64     78    100 161.3  43.7  33962  286.22 0855.49
2009/04/23 07:35:55.2      24    -54     54     60     80 156.4  46.9  33964  286.27 0855.49
2009/04/23 07:35:55.3      13    -40     47     43     63 161.5  52.2  33962  286.22 0855.49
2009/04/23 07:35:55.4      11    -43     51     45     68 165.7  52.2  33962  286.22 0855.49
2009/04/23 07:35:55.5       1    -39     52     40     65 177.3  58.5  33964  286.25 0855.49
2009/04/23 07:35:55.6       7    -54     49     55     73 172.0  47.9  33962  286.24 0855.49
2009/04/23 07:35:55.7     -12    -47     53     49     72 195.1  52.2  33962  286.24 0855.49
2009/04/23 07:35:55.8     -41    -36     33     55     64 228.7  35.5  33962  286.22 0855.49
2009/04/23 07:35:55.9     -39    -44     11     60     62 221.4  11.1  33962  286.24 0855.49
2009/04/23 07:35:56.0     -48    -45      3     67     68 226.9   2.8  33962  286.24 0855.49
2009/04/23 07:35:56.1     -44    -33     18     55     58 233.1  18.4  33960  286.20 0855.49
2009/04/23 07:35:56.2     -30    -45     36     55     65 214.3  35.6  33962  286.24 0855.49
2009/04/23 07:35:56.3     -31    -46     35     56     66 214.3  35.5  33964  286.25 0855.49
2009/04/23 07:35:56.4     -29    -43     24     53     58 214.3  26.2  33960  286.20 0855.49
2009/04/23 07:35:56.5     -36    -38     31     53     61 223.2  33.5  33962  286.24 0855.49
2009/04/23 07:35:56.6     -37    -49     28     62     68 217.8  26.2  33962  286.22 0855.49
2009/04/23 07:35:56.7     -48    -95     43    107    115 207.2  23.0  33964  286.27 0855.49
2009/04/23 07:35:56.8     -36    -96     63    103    120 200.5  34.4  33964  286.25 0855.49
2009/04/23 07:35:56.9     -57   -112     61    126    139 207.2  27.3  33962  286.24 0855.49
2009/04/23 07:35:57.0     -56   -101     80    116    140 209.0  38.0  33962  286.24 0855.49
2009/04/23 07:35:57.1     -57   -113     79    127    149 207.1  35.5  33962  286.24 0855.49
2009/04/23 07:35:57.2     -76   -116     74    139    157 213.4  30.1  33962  286.22 0855.49
2009/04/23 07:35:57.3     -61   -108     67    125    141 209.4  30.8  33962  286.22 0855.49
2009/04/23 07:35:57.4     -72   -113     46    135    143 212.5  18.9  33962  286.24 0855.49
2009/04/23 07:35:57.6     -41    -78     68     89    112 208.1  41.7  33962  286.24 0855.49
2009/04/23 07:35:57.7     -47    -61     58     78     97 217.8  40.7  33964  286.25 0855.49
2009/04/23 07:35:57.8     -32    -46     23     57     61 215.2  23.0  33962  286.22 0855.49
2009/04/23 07:35:57.9     -31    -49     11     59     61 212.6  11.1  33962  286.24 0855.49
2009/04/23 07:35:58.0     -37    -37      2     53     54 225.0   2.8  33962  286.24 0855.50
2009/04/23 07:35:58.1     -22    -34      1     41     42 213.4   1.8  33960  286.20 0855.50
2009/04/23 07:35:58.2     -21    -21     12     30     32 225.0  23.0  33960  286.20 0855.50
2009/04/23 07:35:58.3     -18    -15     15     24     28 228.7  35.5  33962  286.22 0855.50
2009/04/23 07:35:58.4     -12      0     13     13     18 270.0  50.1  33962  286.24 0855.50
2009/04/23 07:35:58.5       1     12     15     13     19   8.0  54.3  33962  286.22 0855.50
2009/04/23 07:35:58.6      -5     17     20     18     26 341.5  50.1  33962  286.24 0855.50
2009/04/23 07:35:58.7     -19     21     29     29     41 318.6  50.1  33958  286.17 0855.50
2009/04/23 07:35:58.8     -60     17     27     63     68 285.9  24.1  33960  286.19 0855.50
2009/04/23 07:35:58.9     -55      5     33     56     65 276.1  33.5  33958  286.17 0855.50
2009/04/23 07:35:59.0     -40     14     33     43     54 290.0  41.7  33958  286.17 0855.50
2009/04/23 07:35:59.1     -49     46     23     68     72 313.2  18.9  33958  286.15 0855.50
2009/04/23 07:35:59.2     -30     64     25     71     76 334.5  19.4  33956  286.14 0855.50
2009/04/23 07:35:59.3     -38     45     32     60     68 319.5  31.3  33958  286.15 0855.50
2009/04/23 07:35:59.4     -30     56     17     64     67 331.9  15.2  33956  286.14 0855.50
2009/04/23 07:35:59.5     -13     30     20     33     38 336.4  35.5  33958  286.15 0855.50
2009/04/23 07:35:59.6       0      0     11      1     11  90.0  90.0  33960  286.19 0855.50
2009/04/23 07:35:59.7      30     -6     17     31     35 101.5  33.5  33960  286.19 0855.50
2009/04/23 07:35:59.8      21    -32     42     39     57 145.7  51.2  33958  286.17 0855.50
2009/04/23 07:35:59.9      19    -43     39     48     61 156.4  43.7  33956  286.14 0855.50
2009/04/23 07:36:00.0       0    -46     40     47     61 180.0  44.8  33960  286.19 0855.50
2009/04/23 07:36:00.1      25    -25     37     36     51 135.0  50.1  33962  286.22 0855.50
2009/04/23 07:36:00.2      32      0     44     33     55  89.2  59.4  33962  286.24 0855.50
2009/04/23 07:36:00.3      19    -21     45     29     53 138.6  64.6  33962  286.24 0855.50
2009/04/23 07:36:00.4       9    -17     50     20     53 151.0  78.2  33960  286.20 0855.50
2009/04/23 07:36:00.5       0      1     49      2     49  18.5  90.0  33960  286.19 0855.50
2009/04/23 07:36:00.6      -6     10     33     13     35 327.5  79.2  33962  286.22 0855.50
2009/04/23 07:36:00.7       5      9     40     11     41  32.5  84.9  33960  286.19 0855.50
2009/04/23 07:36:00.8      -2     18     37     19     41 352.0  70.8  33962  286.22 0855.50
2009/04/23 07:36:00.9     -10     37     24     39     45 344.9  35.5  33958  286.17 0855.50
2009/04/23 07:36:01.0      -2     36     -2     37     38 355.5  -3.1  33960  286.20 0855.50
2009/04/23 07:36:01.1       0     40      5     41     42 359.1   6.9  33958  286.15 0855.50
2009/04/23 07:36:01.2       3     33      8     34     35   6.2  13.2  33958  286.15 0855.50
2009/04/23 07:36:01.3       1     20      7     21     23   4.5  18.9  33960  286.19 0855.50
2009/04/23 07:36:01.4       9      8      4     13     14  46.7  19.4  33960  286.20 0855.50
2009/04/23 07:36:01.5      13      3     -5     14     15  74.9 -19.7  33960  286.19 0855.50
2009/04/23 07:36:01.6       7      0     -4      8      9  90.0 -31.6  33960  286.19 0855.50
2009/04/23 07:36:01.7       6     -6     -3      9      9 133.3 -23.6  33962  286.24 0855.50
2009/04/23 07:36:01.8      -1     -6     -6      7      9 189.7 -56.4  33958  286.17 0855.50
2009/04/23 07:36:01.9       0     -3     -4      4      5 175.5 -54.5  33960  286.19 0855.50
2009/04/23 07:36:02.0       0      0    -12      0     12   0.0 -90.0  33960  286.19 0855.51
2009/04/23 07:36:02.1       0      0    -12      0     12   0.0 -90.0  33960  286.19 0855.51
2009/04/23 07:36:02.2       0     -7    -19      8     20 182.7 -81.5  33958  286.17 0855.51
2009/04/23 07:36:02.3       2     -7    -21      8     22 161.3 -83.6  33960  286.19 0855.51
2009/04/23 07:36:02.4       3    -14    -15     15     21 164.9 -54.5  33958  286.17 0855.51
2009/04/23 07:36:02.5       7    -22    -11     24     26 161.7 -29.5  33958  286.17 0855.51
2009/04/23 07:36:02.6      13    -21     -1     25     26 147.5  -2.2  33960  286.19 0855.51
2009/04/23 07:36:02.7      15    -25      0     30     31 149.3   0.8  33958  286.17 0855.51
2009/04/23 07:36:02.8      16    -15      3     22     23 133.1   9.0  33960  286.19 0855.51
2009/04/23 07:36:02.9      21    -21      9     31     33 135.0  17.3  33960  286.19 0855.51
2009/04/23 07:36:03.0      27    -17     13     33     35 122.4  21.0  33960  286.19 0855.51
2009/04/23 07:36:03.1      39    -20      9     44     46 117.1  12.2  33962  286.22 0855.51
2009/04/23 07:36:03.2      48    -13     15     50     53 105.9  17.3  33958  286.17 0855.51
2009/04/23 07:36:03.3      59     -4     21     60     64  94.4  19.4  33962  286.24 0855.51
2009/04/23 07:36:03.4      54    -29     31     62     69 118.0  27.3  33962  286.24 0855.51
2009/04/23 07:36:03.5      48    -19     33     52     61 111.7  35.5  33962  286.22 0855.51
2009/04/23 07:36:03.6      47    -12     46     49     67 105.1  48.0  33962  286.22 0855.51
2009/04/23 07:36:03.7      45    -19     42     50     65 113.5  43.8  33960  286.20 0855.51
2009/04/23 07:36:03.8      27    -22     40     36     53 129.6  52.2  33962  286.24 0855.51
2009/04/23 07:36:03.9      25    -23     39     35     52 133.1  53.3  33962  286.24 0855.51
2009/04/23 07:36:04.1      23    -43     32     49     58 151.9  35.6  33962  286.22 0855.50
2009/04/23 07:36:04.1      24    -36     37     44     57 145.7  43.8  33962  286.22 0855.50
2009/04/23 07:36:04.2      51    -15     27     54     60 106.8  28.2  33960  286.20 0855.50
2009/04/23 07:36:04.3      39    -14     13     42     45 110.0  17.3  33962  286.24 0855.50
2009/04/23 07:36:04.4      58    -22     17     63     66 110.8  15.3  33960  286.19 0855.50
2009/04/23 07:36:04.5      56    -27     24     63     67 116.2  21.0  33962  286.22 0855.50
2009/04/23 07:36:04.6      56    -27     24     63     67 116.2  21.0  33962  286.22 0855.50
2009/04/23 07:36:04.7      52    -33     21     62     66 122.4  18.9  33964  286.25 0855.50
2009/04/23 07:36:04.8      58    -40     12     71     73 125.1  10.1  33962  286.24 0855.50
2009/04/23 07:36:04.9      55    -27      7     62     63 116.2   7.1  33962  286.22 0855.50
2009/04/23 07:36:05.1      55    -36      8     66     67 123.3   6.9  33962  286.22 0855.50
2009/04/23 07:36:05.2      52    -33      6     62     63 122.4   5.9  33962  286.24 0855.50
2009/04/23 07:36:05.3      59    -28     14     66     68 115.2  12.2  33962  286.22 0855.50
2009/04/23 07:36:05.4      54    -21     11     59     61 111.7  11.1  33964  286.25 0855.50
2009/04/23 07:36:05.5      49    -28     20     57     61 119.8  19.4  33962  286.22 0855.50
2009/04/23 07:36:05.6      35    -32     22     48     52 133.1  27.1  33960  286.19 0855.50
2009/04/23 07:36:05.7      41    -32     11     53     55 127.8  12.2  33962  286.24 0855.50
2009/04/23 07:36:05.8      40    -48      8     63     64 140.4   8.0  33964  286.25 0855.50
2009/04/23 07:36:05.9      27    -53     16     60     63 152.8  15.3  33966  286.29 0855.50
2009/04/23 07:36:06.0      25    -45      3     52     53 150.1   3.8  33964  286.27 0855.50
2009/04/23 07:36:06.1      32    -39    -15     51     53 140.4 -22.8  33964  286.27 0855.50
2009/04/23 07:36:06.2      28    -15    -20     32     37 118.9 -39.9  33964  286.27 0855.50
2009/04/23 07:36:06.3      35    -14    -13     38     41 111.7 -19.7  33964  286.27 0855.50
2009/04/23 07:36:06.4      31     -4     11     32     34  97.9  18.9  33966  286.29 0855.50
2009/04/23 07:36:06.5      24    -12     24     28     36 117.1  45.8  33964  286.25 0855.50
2009/04/23 07:36:06.6      17    -22     24     28     36 142.2  45.8  33968  286.32 0855.50
2009/04/23 07:36:06.7      23    -15     15     28     31 122.4  29.3  33968  286.32 0855.50
2009/04/23 07:36:06.8      23     -7      8     25     27 106.8  19.4  33968  286.32 0855.50
2009/04/23 07:36:06.9      37     -2      1     38     39  94.4   2.9  33966  286.30 0855.50
2009/04/23 07:36:07.0      21    -11     13     24     27 118.9  31.4  33966  286.29 0855.50
2009/04/23 07:36:07.1      39    -16      6     43     44 112.6   9.0  33968  286.32 0855.50
2009/04/23 07:36:07.2      29    -10      9     31     33 110.0  17.3  33966  286.30 0855.50
2009/04/23 07:36:07.3      18    -18     -1     26     27 135.0  -2.2  33966  286.30 0855.50
2009/04/23 07:36:07.4       6     -6      0      9     10 133.1  -1.3  33968  286.32 0855.50
2009/04/23 07:36:07.5      18      7      0     20     21  66.5  -2.2  33966  286.29 0855.50
2009/04/23 07:36:07.6      21     10      1     24     25  64.7   2.9  33966  286.30 0855.50
2009/04/23 07:36:07.7      25     22      4     34     35  48.7   6.9  33968  286.32 0855.50
2009/04/23 07:36:07.8      12     15     12     20     23  39.6  33.5  33962  286.24 0855.50
2009/04/23 07:36:07.9      12     27      4     30     31  23.6   9.0  33966  286.30 0855.50
2009/04/23 07:36:08.0       7     25     -1     27     28  16.9  -2.2  33966  286.29 0855.50
2009/04/23 07:36:08.1       5     34     -1     35     36   9.8  -2.2  33966  286.29 0855.50
2009/04/23 07:36:08.2      -4     30      0     31     32 352.0  -1.3  33968  286.32 0855.50
2009/04/23 07:36:08.3      -4     30      0     31     32 352.0  -1.3  33968  286.32 0855.50
2009/04/23 07:36:08.4       5     34     -1     35     36   9.8  -2.2  33966  286.29 0855.50
2009/04/23 07:36:08.5       8     19      1     21     22  23.6   2.9  33966  286.30 0855.50
2009/04/23 07:36:08.6       4     13      9     14     16  18.5  35.5  33966  286.30 0855.50
2009/04/23 07:36:08.7       9     15     14     18     22  32.5  43.7  33964  286.25 0855.50
2009/04/23 07:36:08.8      10      9     17     14     22  46.7  56.4  33966  286.29 0855.50
2009/04/23 07:36:08.9      21     13     22     26     34  57.5  45.8  33962  286.24 0855.50
2009/04/23 07:36:09.0      18      5     31     19     36  71.8  64.7  33962  286.24 0855.50
2009/04/23 07:36:09.1      10     10     24     15     28  45.0  64.7  33962  286.22 0855.50
2009/04/23 07:36:09.2       8     26     23     28     36  18.3  43.7  33962  286.22 0855.50
2009/04/23 07:36:09.3       8     26     23     28     36  18.3  43.7  33962  286.22 0855.50
2009/04/23 07:36:09.4      11     42     24     44     50  15.1  31.4  33962  286.22 0855.50
2009/04/23 07:36:09.5      10     38     22     40     45  15.1  32.4  33964  286.25 0855.50
2009/04/23 07:36:09.6      13     45     13     48     50  16.9  15.3  33962  286.24 0855.50
2009/04/23 07:36:09.7       7     38      7     39     40  11.6  11.1  33962  286.24 0855.50
2009/04/23 07:36:09.8      -3     39    -14     40     43 355.5 -19.7  33964  286.27 0855.50
2009/04/23 07:36:09.9      -2     43    -13     44     45 356.4 -21.7  33964  286.27 0855.50
2009/04/23 07:36:10.0       8     39    -17     40     43  11.6 -27.4  33962  286.24 0855.50
2009/04/23 07:36:10.1       7     45    -14     46     49   8.9 -16.6  33964  286.27 0855.50
2009/04/23 07:36:10.2       3     21     -2     22     23   9.8  -5.2  33964  286.27 0855.50
2009/04/23 07:36:10.3       5     34     -1     35     36   9.8  -2.2  33966  286.29 0855.50
2009/04/23 07:36:10.4      11     29     -1     32     33  21.8  -2.2  33962  286.24 0855.50
2009/04/23 07:36:10.5       9     26      2     28     29  20.0   4.9  33966  286.29 0855.50
2009/04/23 07:36:10.6       8     29      0     31     32  15.1  -1.3  33964  286.27 0855.50
2009/04/23 07:36:10.7       6     25      5     26     27  13.4  11.1  33964  286.27 0855.50
2009/04/23 07:36:10.8      -2     44      2     45     46 357.3   2.9  33962  286.24 0855.50
2009/04/23 07:36:10.9     -13     46     -1     48     49 344.0  -2.2  33962  286.24 0855.50
2009/04/23 07:36:11.0     -39     63    -20     75     78 328.4 -15.5  33964  286.27 0855.50
2009/04/23 07:36:11.1     -24     62    -32     67     74 338.2 -31.5  33964  286.27 0855.50
2009/04/23 07:36:11.2     -16     42    -29     45     53 339.1 -40.0  33964  286.25 0855.50
2009/04/23 07:36:11.3     -16     48    -24     51     56 341.7 -31.5  33964  286.27 0855.50
2009/04/23 07:36:11.4       2     50    -34     51     61   2.7 -40.9  33964  286.25 0855.50
2009/04/23 07:36:11.5       9     31    -51     33     60  16.9 -69.0  33964  286.27 0855.50
2009/04/23 07:36:11.6      13     40    -60     43     73  18.5 -64.9  33964  286.27 0855.50
2009/04/23 07:36:11.7      18     31    -55     37     66  30.7 -68.0  33964  286.27 0855.50
2009/04/23 07:36:11.8      27     39    -39     48     61  34.3 -48.1  33962  286.22 0855.50
2009/04/23 07:36:11.9      30     51    -18     60     63  30.7 -16.6  33964  286.25 0855.50
2009/04/23 07:36:12.0      37     41    -10     56     57  41.4 -10.3  33966  286.29 0855.50
2009/04/23 07:36:12.1      20     36    -13     42     43  29.9 -22.8  33966  286.29 0855.50
2009/04/23 07:36:12.2      28     42    -17     51     53  34.3 -23.6  33966  286.29 0855.50
2009/04/23 07:36:12.3      35     38    -23     52     56  42.3 -29.5  33964  286.25 0855.50
2009/04/23 07:36:12.4      30     34    -31     46     55  41.4 -40.0  33962  286.24 0855.50
2009/04/23 07:36:12.5      35     35    -20     50     53  45.0 -26.4  33962  286.22 0855.50
2009/04/23 07:36:12.6      37     40    -25     55     60  43.2 -31.5  33958  286.15 0855.50
2009/04/23 07:36:12.7      33     40    -16     52     54  39.6 -23.8  33958  286.17 0855.50
2009/04/23 07:36:12.8      20     54     -1     58     59  20.9  -1.3  33964  286.27 0855.50
2009/04/23 07:36:12.9      20     61      5     65     66  18.5   4.9  33962  286.24 0855.50
2009/04/23 07:36:13.0      19     58     -2     62     63  18.5  -2.2  33966  286.30 0855.50
2009/04/23 07:36:13.1      12     53     -8     55     56  13.4  -8.2  33964  286.25 0855.50
2009/04/23 07:36:13.2      16     60    -17     63     66 360.0 -15.5  33962  286.24 0855.50
2009/04/23 07:36:13.3       0     60    -11     61     63 359.1 -10.3  33962  286.24 0855.50
2009/04/23 07:36:13.4       7     45    -14     46     49   8.9 -16.6  33964  286.27 0855.50
2009/04/23 07:36:13.5       2     31     -9     32     34   4.5 -15.5  33964  286.25 0855.50
2009/04/23 07:36:13.6       6     25      5     26     27  13.4  11.1  33964  286.27 0855.50
2009/04/23 07:36:13.7      -3     31     22     32     38 353.8  37.6  33962  286.24 0855.50
2009/04/23 07:36:13.8     -13     14     26     20     32 316.8  56.4  33962  286.24 0855.50
2009/04/23 07:36:13.9      -4     14     21     15     25 341.5  60.5  33962  286.24 0855.50
2009/04/23 07:36:14.0       4     14     10     15     18  18.5  35.6  33958  286.17 0855.50
2009/04/23 07:36:14.1      25      8      6     27     28  71.4  13.2  33958  286.17 0855.50
2009/04/23 07:36:14.2      22      3     19     23     29  80.3  43.7  33956  286.12 0855.50
2009/04/23 07:36:14.3      12    -11     28     17     32 133.3  64.7  33962  286.22 0855.50
2009/04/23 07:36:14.4       0    -25     35     26     43 179.1  59.4  33966  286.30 0855.50
2009/04/23 07:36:14.5       6    -31     49     32     58 168.4  64.6  33968  286.34 0855.50
2009/04/23 07:36:14.6      26    -28     28     39     48 136.6  38.6  33970  286.37 0855.50
2009/04/23 07:36:14.7      34     -4     54     35     64  97.9  64.6  33970  286.35 0855.50
2009/04/23 07:36:14.8      14    -30     61     34     69 154.7  68.8  33966  286.30 0855.50
2009/04/23 07:36:14.9      17    -22     64     28     69 142.2  74.0  33968  286.32 0855.50
2009/04/23 07:36:15.0      12     -8     53     15     55 122.4  83.9  33970  286.35 0855.50
2009/04/23 07:36:15.1       6    -26     33     27     42 166.6  55.4  33968  286.34 0855.50
2009/04/23 07:36:15.2       7    -54     55     55     77 172.0  50.1  33968  286.32 0855.50
2009/04/23 07:36:15.3      12    -38     73     40     83 162.2  69.3  33964  286.27 0855.50
2009/04/23 07:36:15.4       8    -12     57     15     58 147.5  84.9  33962  286.24 0855.50
2009/04/23 07:36:15.5      14    -17     48     23     53 140.4  72.9  33966  286.29 0855.50
2009/04/23 07:36:15.6      -2    -24     36     25     43 186.2  61.5  33960  286.19 0855.50
2009/04/23 07:36:15.7     -17      7     29     19     34 291.7  64.6  33958  286.17 0855.50
2009/04/23 07:36:15.8     -13      0     33     14     35 270.0  77.1  33958  286.17 0855.50
2009/04/23 07:36:15.9     -22    -17     37     28     46 232.2  59.4  33958  286.17 0855.50
2009/04/23 07:36:16.0     -29    -45     58     54     79 212.6  51.6  33956  286.14 0855.50
2009/04/23 07:36:16.1     -33    -46     50     57     75 216.1  45.8  33954  286.10 0855.50
2009/04/23 07:36:16.2     -27    -40     32     49     58 214.3  35.6  33958  286.15 0855.50
2009/04/23 07:36:16.3     -24    -35     23     43     48 214.3  30.3  33956  286.14 0855.50
2009/04/23 07:36:16.4     -12    -37     33     40     51 198.3  43.7  33954  286.10 0855.50
2009/04/23 07:36:16.5     -10    -29     36     31     47 200.0  54.3  33956  286.12 0855.50
2009/04/23 07:36:16.6     -27    -21     25     35     43 232.2  39.7  33954  286.10 0855.50
2009/04/23 07:36:16.7     -51    -10     29     53     60 258.6  31.4  33954  286.10 0855.50
2009/04/23 07:36:16.8     -52      3     22     53     57 274.3  23.0  33956  286.14 0855.50
2009/04/23 07:36:16.9     -40      0     13     41     44 270.0  18.4  33954  286.08 0855.50
2009/04/23 07:36:17.0     -15     43     24     46     51 340.0  29.3  33954  286.08 0855.50
2009/04/23 07:36:17.1     -18     64     23     67     72 344.0  19.2  33954  286.08 0855.50
2009/04/23 07:36:17.2     -32     75     33     82     88 336.8  23.0  33952  286.05 0855.50
2009/04/23 07:36:17.3     -49     48     26     69     73 314.1  20.0  33950  286.03 0855.50
2009/04/23 07:36:17.4     -54     55     40     78     87 315.8  29.3  33954  286.08 0855.50
2009/04/23 07:36:17.5     -80     44     28     92     97 298.9  16.8  33960  286.19 0855.50
2009/04/23 07:36:17.6     -84     45     30     96    101 298.0  17.3  33958  286.17 0855.50
2009/04/23 07:36:17.7     -76     35     18     84     86 294.8  12.2  33956  286.12 0855.50
2009/04/23 07:36:17.8     -67      9     29     68     73 277.9  23.1  33954  286.10 0855.50
2009/04/23 07:36:17.9     -50     14     24     52     57 285.9  27.1  33958  286.17 0855.50
2009/04/23 07:36:18.0     -34     22     24     41     47 303.3  33.5  33958  286.17 0855.50
2009/04/23 07:36:18.1     -53     64     34     84     90 320.4  23.6  33958  286.17 0855.51
2009/04/23 07:36:18.2     -62     59     47     86     98 313.6  30.8  33962  286.22 0855.51
2009/04/23 07:36:18.3     -81     52     61     97    114 302.5  35.5  33958  286.15 0855.51
2009/04/23 07:36:18.4     -95     61     40    114    120 302.9  20.0  33962  286.24 0855.51
2009/04/23 07:36:18.5     -88     73     31    115    120 309.5  15.3  33962  286.24 0855.51
2009/04/23 07:36:18.6     -78     71     15    106    108 312.2   8.5  33958  286.17 0855.51
2009/04/23 07:36:18.7     -95     31     15    100    102 288.2   8.5  33960  286.20 0855.51
2009/04/23 07:36:18.8     -84     17     10     86     87 281.9   6.9  33964  286.27 0855.51
2009/04/23 07:36:18.9    -104      3     11    105    106 272.1   6.5  33966  286.29 0855.51
2009/04/23 07:36:19.0     -75     -9     28     76     81 263.0  21.0  33966  286.30 0855.51
2009/04/23 07:36:19.1     -53     17     28     56     62 288.6  28.2  33964  286.27 0855.51
2009/04/23 07:36:19.2     -32     47     62     58     84 325.7  51.6  33962  286.24 0855.51
2009/04/23 07:36:19.3      -9     84     42     85     94 353.3  27.8  33960  286.20 0855.51
2009/04/23 07:36:19.4     -17     67     31     70     76 345.7  25.1  33956  286.14 0855.51
2009/04/23 07:36:19.5     -25     69     24     74     79 340.0  18.4  33954  286.08 0855.51
2009/04/23 07:36:19.6      -7     90      7     91     92 355.1   4.9  33948  286.00 0855.51
2009/04/23 07:36:19.7      -9     78      0     79     80 352.9  -0.3  33946  285.97 0855.51
2009/04/23 07:36:19.8      -2     75     -3     76     77 358.2  -2.2  33944  285.92 0855.51
2009/04/23 07:36:19.9       5     83      1     84     85   3.6   0.8  33944  285.92 0855.51
2009/04/23 07:36:20.0      31     88     24     94     98  19.6  14.3  33946  285.95 0855.51
2009/04/23 07:36:20.1      17     88     24     90     94  11.1  15.3  33948  286.00 0855.51
2009/04/23 07:36:20.2      29     89      4     94     95  18.5   2.9  33946  285.97 0855.51
2009/04/23 07:36:20.3      32     92     11     98     99  19.6   6.5  33944  285.92 0855.51
2009/04/23 07:36:20.4      42     98     13    107    108  23.6   7.1  33940  285.87 0855.51
2009/04/23 07:36:20.5      65     83     34    106    112  38.3  17.9  33932  285.71 0855.51
2009/04/23 07:36:20.6      71     46     31     85     90  57.1  21.0  33932  285.71 0855.51
2009/04/23 07:36:20.7      39     22     39     45     59  60.2  45.8  33934  285.76 0855.51
2009/04/23 07:36:20.8      33     37     38     50     62  41.4  41.7  33946  285.95 0855.51
2009/04/23 07:36:20.9      59     55     44     81     92  46.8  30.8  33960  286.19 0855.51
2009/04/23 07:36:21.0      55     53     32     77     83  45.9  23.6  33958  286.17 0855.51
2009/04/23 07:36:21.1      63     46     42     79     89  54.0  30.3  33954  286.10 0855.52
2009/04/23 07:36:21.2      57     47     30     75     80  50.5  23.0  33954  286.08 0855.52
2009/04/23 07:36:21.3      43     49      5     66     67  41.4   4.9  33956  286.14 0855.52
2009/04/23 07:36:21.4      50     51    -10     72     73  44.2  -8.2  33956  286.14 0855.52
2009/04/23 07:36:21.5      62     55    -29     84     89  48.2 -19.1  33956  286.14 0855.52
2009/04/23 07:36:21.6      88     50     -4    102    103  60.2  -2.2  33956  286.14 0855.52
2009/04/23 07:36:21.7     103     49    -31    115    120  64.6 -15.0  33956  286.12 0855.52
2009/04/23 07:36:21.9      81     54    -26     98    102  56.3 -15.0  33958  286.15 0855.52
2009/04/23 07:36:22.0     102     20    -41    105    112  78.5 -26.9  33958  286.15 0855.52
2009/04/23 07:36:22.1     131    -24    -57    134    145 100.6 -28.5  33958  286.15 0855.52
2009/04/23 07:36:22.2      99    -17      5    101    102 100.1   2.9  33956  286.14 0855.52
2009/04/23 07:36:22.3      82    -19     92     85    125 103.3  52.2  33962  286.22 0855.52
2009/04/23 07:36:22.4      65     36    111     75    133  61.1  63.2  33966  286.29 0855.52
2009/04/23 07:36:22.5      38      0     86     39     94  90.0  74.5  33960  286.20 0855.52
2009/04/23 07:36:22.6       6     23     76     24     79  15.1  81.8  33964  286.25 0855.52
2009/04/23 07:36:22.7      31     63     31     71     77  26.3  25.1  33962  286.24 0855.52
2009/04/23 07:36:22.8      14     72    -14     74     76  11.6 -11.3  33964  286.25 0855.52
2009/04/23 07:36:22.9      43     45     38     63     73  43.3  34.4  33962  286.22 0855.52
2009/04/23 07:36:23.0     -30     27     23     41     47 312.2  32.4  33964  286.25 0855.52
2009/04/23 07:36:23.1       0    106     41    107    114   0.0  21.5  33964  286.25 0855.52
2009/04/23 07:36:23.2      55     77    -19     95     97  35.6 -11.5  33966  286.30 0855.52
2009/04/23 07:36:23.3      61     50      9     80     81  50.5   6.9  33964  286.27 0855.52
2009/04/23 07:36:23.4      72     38     78     82    113  62.0  49.0  33968  286.32 0855.52
2009/04/23 07:36:23.5     102     51      5    115    116  63.4   2.9  33964  286.27 0855.52
2009/04/23 07:36:23.6      63     97     41    116    123  33.0  20.0  33966  286.30 0855.52
2009/04/23 07:36:23.7      71    153     -1    169    170  24.9  -0.5  33964  286.25 0855.52
2009/04/23 07:36:23.8      97    161    -45    189    195  31.0 -13.4  33962  286.24 0855.52
2009/04/23 07:36:23.9     169    107     -4    201    202  57.5  -1.3  33962  286.24 0855.52
2009/04/23 07:36:24.0     128    123     -3    178    179  46.0  -1.2  33962  286.22 0855.52
2009/04/23 07:36:24.1      70    177     37    191    195  21.8  11.0  33964  286.25 0855.52
2009/04/23 07:36:24.2      80    204     49    220    226  21.6  12.6  33966  286.29 0855.52
2009/04/23 07:36:24.3      52    157     11    166    167  18.5   3.8  33964  286.27 0855.52
2009/04/23 07:36:24.4      13    132    -34    133    138   5.8 -14.5  33970  286.37 0855.52
2009/04/23 07:36:24.5      50    125    -39    135    140  21.8 -20.7  33968  286.34 0855.52
2009/04/23 07:36:24.6      35     74    -39     82     90  25.4 -31.6  33968  286.34 0855.52
2009/04/23 07:36:24.7       9     37    -36     39     53  13.4 -52.3  33966  286.30 0855.52
2009/04/23 07:36:24.8       3    -14    -42     15     44 164.9 -85.6  33968  286.32 0855.52
2009/04/23 07:36:24.9     -13    -13     -6     19     19 226.7 -23.8  33968  286.32 0855.52
2009/04/23 07:36:25.0     -24    -15     -1     29     30 237.6  -2.2  33968  286.34 0855.52
2009/04/23 07:36:25.1      -1    -30     26     31     40 182.6  44.8  33970  286.35 0855.52
2009/04/23 07:36:25.2      26     17     29     32     43  55.8  47.9  33968  286.32 0855.52
2009/04/23 07:36:25.3      -4     62     25     63     67 355.5  23.0  33964  286.27 0855.52
2009/04/23 07:36:25.4     -47    103     -2    114    115 335.5  -1.3  33968  286.32 0855.52
2009/04/23 07:36:25.5     -21     86     -6     89     90 346.2  -4.1  33964  286.27 0855.52
2009/04/23 07:36:25.6       0     42    -54     43     69   0.9 -60.8  33966  286.29 0855.52
2009/04/23 07:36:25.7       5     84    -41     85     94   3.6 -31.7  33966  286.29 0855.52
2009/04/23 07:36:25.8     -14     41     -5     44     45 341.3  -7.2  33964  286.27 0855.52
2009/04/23 07:36:25.9     -36      0     16     37     40 270.8  25.1  33964  286.25 0855.52
2009/04/23 07:36:26.0     -33    -12     24     36     43 250.0  37.6  33964  286.27 0855.52
2009/04/23 07:36:26.1     -33     -7     11     34     37 256.7  18.9  33966  286.29 0855.52
2009/04/23 07:36:26.2     -41      7      6     42     43 279.7   9.0  33964  286.25 0855.52
2009/04/23 07:36:26.3     -39     14      4     42     43 290.0   5.9  33968  286.32 0855.52
2009/04/23 07:36:26.4     -24      8     36     26     44 288.2  60.5  33966  286.29 0855.52
2009/04/23 07:36:26.5     -11    -17     36     21     41 214.3  67.7  33964  286.27 0855.52
2009/04/23 07:36:26.6      13    -28     34     32     46 154.5  50.1  33968  286.32 0855.52
2009/04/23 07:36:26.7      49      0     55     50     74  90.0  52.2  33968  286.32 0855.52
2009/04/23 07:36:26.8      54      0     53     55     76  90.0  50.0  33968  286.32 0855.52
2009/04/23 07:36:26.9      36      3     70     37     79  83.9  69.8  33968  286.32 0855.52
2009/04/23 07:36:27.0      -2     20     43     21     47 353.8  71.9  33966  286.29 0855.52
2009/04/23 07:36:27.1     -10     51     22     53     57 348.4  23.0  33968  286.34 0855.52
2009/04/23 07:36:27.2      -3     49    -24     50     55 355.5 -31.7  33968  286.32 0855.52
2009/04/23 07:36:27.3     -21     56    -29     60     66 339.1 -31.6  33964  286.27 0855.52
2009/04/23 07:36:27.4       8     35      3     36     37  13.4   4.9  33966  286.29 0855.52
2009/04/23 07:36:27.5      22     22     15     32     35  45.0  27.2  33964  286.27 0855.52
2009/04/23 07:36:27.6      43     35    -18     56     58  50.5 -23.8  33966  286.29 0855.52
2009/04/23 07:36:27.7      27     39    -39     48     61  34.3 -48.1  33962  286.24 0855.52
2009/04/23 07:36:27.8      22     41    -39     47     61  28.1 -48.2  33966  286.29 0855.52
2009/04/23 07:36:27.9      33     24    -38     42     56  54.0 -52.3  33966  286.30 0855.52
2009/04/23 07:36:28.0      43     35    -37     56     67  50.4 -40.0  33964  286.27 0855.52
2009/04/23 07:36:28.1      29     30    -47     43     63  44.1 -56.6  33964  286.25 0855.52
2009/04/23 07:36:28.2      26     14    -59     30     66  61.1 -75.2  33964  286.27 0855.52
2009/04/23 07:36:28.3      36     11    -52     38     64  71.8 -64.9  33964  286.25 0855.52
2009/04/23 07:36:28.4      41     21    -32     47     56  62.9 -40.9  33966  286.29 0855.52
2009/04/23 07:36:28.5      69      4     13     70     72  86.5  11.1  33964  286.25 0855.52
2009/04/23 07:36:28.6      46      8     14     47     50  79.4  16.3  33966  286.29 0855.52
2009/04/23 07:36:28.7      52    -50     25     73     78 134.0  19.4  33964  286.27 0855.52
2009/04/23 07:36:28.8      41    -47     52     63     81 138.6  43.7  33962  286.24 0855.52
2009/04/23 07:36:28.9      55    -77     46     95    105 144.4  27.3  33964  286.27 0855.52
2009/04/23 07:36:29.0      72    -34     46     80     92 115.4  32.9  33966  286.30 0855.52
2009/04/23 07:36:29.1      63    -56     14     85     87 131.8   9.5  33966  286.30 0855.53
2009/04/23 07:36:29.2     103   -100     39    144    150 134.0  15.3  33968  286.34 0855.53
2009/04/23 07:36:29.3     104   -107     23    150    152 135.9   8.9  33966  286.29 0855.53
2009/04/23 07:36:29.4     126    -91     -4    156    157 125.9  -1.8  33966  286.30 0855.53
2009/04/23 07:36:29.5     120   -108     12    162    163 132.2   4.4  33966  286.29 0855.53
2009/04/23 07:36:29.6     146    -49     -4    155    156 108.6  -1.8  33964  286.25 0855.53
2009/04/23 07:36:29.7     145    -13      9    146    147  95.2   3.8  33964  286.27 0855.53
2009/04/23 07:36:29.8     113     59    -12    128    129  62.5  -5.6  33962  286.24 0855.53
2009/04/23 07:36:29.9     102     69    -18    124    126  55.8  -8.2  33962  286.22 0855.53
2009/04/23 07:36:30.0     145    -15    -47    146    154  96.1 -18.1  33964  286.25 0855.53
2009/04/23 07:36:30.1     127    -80    -47    151    158 122.4 -22.3  33964  286.25 0855.53
2009/04/23 07:36:30.2      99      7    -32    100    106  85.6 -18.1  33956  286.12 0855.53
2009/04/23 07:36:30.3     151     41    -31    157    161  74.9 -11.3  33966  286.29 0855.53
2009/04/23 07:36:30.4     190     62    -44    200    205  71.8 -12.6  33964  286.25 0855.53
2009/04/23 07:36:30.5     162     41    -44    168    174  75.6 -14.7  33966  286.29 0855.53
2009/04/23 07:36:30.6     165     71     -1    180    181  66.7  -0.5  33968  286.32 0855.53
2009/04/23 07:36:30.7     158     49     57    166    176  72.5  19.2  33966  286.29 0855.53
2009/04/23 07:36:30.8     180     33     65    184    196  79.4  19.4  33966  286.29 0855.53
2009/04/23 07:36:30.9     206     27     76    208    221  82.5  21.0  33968  286.32 0855.53
2009/04/23 07:36:31.0     175     48     88    182    202  74.7  27.4  33968  286.34 0855.53
2009/04/23 07:36:31.1     160     46     82    167    186  73.8  27.8  33968  286.34 0855.52
2009/04/23 07:36:31.2     152     60     60    164    174  68.5  20.4  33968  286.32 0855.52
2009/04/23 07:36:31.3     110    103     14    151    152  46.9   5.4  33968  286.32 0855.52
2009/04/23 07:36:31.4      92     83    -13    125    126  47.8  -6.2  33966  286.29 0855.52
2009/04/23 07:36:31.5      86     81    -34    119    124  46.8 -16.0  33966  286.29 0855.52
2009/04/23 07:36:31.6     108     46      1    118    119  66.9   0.8  33964  286.27 0855.52
2009/04/23 07:36:31.7      82     54      4     99    100  56.3   2.3  33966  286.30 0855.52
2009/04/23 07:36:31.8      63     63     -3     90     91  45.0  -2.2  33966  286.29 0855.52
2009/04/23 07:36:31.9      58     90     52    108    119  33.0  27.3  33964  286.25 0855.52
2009/04/23 07:36:32.0      83    112     73    140    157  36.5  29.5  33964  286.27 0855.52
2009/04/23 07:36:32.1     131    181     50    224    230  35.8  12.6  33964  286.25 0855.52
2009/04/23 07:36:32.2     139    204     91    247    263  34.3  21.0  33966  286.28 0855.52
2009/04/23 07:36:32.3     142    139     46    199    205  45.6  13.2  33968  286.32 0855.52
2009/04/23 07:36:32.4     156    156     75    221    234  45.0  18.9  33966  286.29 0855.52
2009/04/23 07:36:32.5     124    234     78    266    278  28.0  16.3  33962  286.23 0855.52
2009/04/23 07:36:32.6     118    259     61    285    292  24.5  12.2  33966  286.28 0855.52
2009/04/23 07:36:32.7     100    230     51    252    258  23.6  11.4  33964  286.26 0855.52
2009/04/23 07:36:32.9      88    213     57    231    238  22.5  13.9  33964  286.25 0855.52
2009/04/23 07:36:33.0      96    182     57    207    215  27.9  15.6  33964  286.27 0855.52
2009/04/23 07:36:33.1      64    160     56    173    183  21.8  18.1  33962  286.22 0855.52
2009/04/23 07:36:33.2      48    202     51    208    215  13.6  13.9  33958  286.17 0855.52
2009/04/23 07:36:33.3     114    194     59    226    234  30.5  14.7  33960  286.19 0855.52
2009/04/23 07:36:33.4     139    176     79    225    238  38.3  20.0  33962  286.21 0855.52
2009/04/23 07:36:33.5     129    202     98    240    259  32.6  23.1  33964  286.26 0855.52
2009/04/23 07:36:33.6     131    191     89    232    248  34.5  22.0  33964  286.26 0855.52
2009/04/23 07:36:33.7     119    202     44    235    240  30.7  10.6  33962  286.23 0855.52
2009/04/23 07:36:33.8     103    213      3    237    238  25.9   0.8  33964  286.26 0855.52
2009/04/23 07:36:33.9     148    191     25    242    244  37.8   6.0  33964  286.25 0855.52
2009/04/23 07:36:34.0     157    159     52    224    231  44.5  13.1  33962  286.24 0855.52
2009/04/23 07:36:34.1     167    161     45    233    238  46.0  11.1  33964  286.26 0855.52
2009/04/23 07:36:34.2     144    174     37    226    230  39.6   9.5  33962  286.24 0855.52
2009/04/23 07:36:34.3     149    180     35    235    238  39.6   8.5  33968  286.33 0855.52
2009/04/23 07:36:34.4     157    163     44    227    232  43.9  11.0  33968  286.32 0855.52
2009/04/23 07:36:34.5     130    156     71    204    217  39.7  19.2  33968  286.34 0855.52
2009/04/23 07:36:34.6     116    165     69    202    214  35.2  18.9  33966  286.29 0855.52
2009/04/23 07:36:34.7     131    150     72    200    212  41.0  20.4  33968  286.32 0855.52
2009/04/23 07:36:34.8     177    166      0    243    244  46.8   0.0  33970  286.35 0855.52
2009/04/23 07:36:34.9     164    179     -5    243    244  42.5  -1.3  33968  286.33 0855.52
2009/04/23 07:36:35.0     165    190     48    252    257  41.0  10.8  33968  286.31 0855.52
2009/04/23 07:36:35.1     219    226     22    315    316  44.1   4.0  33960  286.20 0855.52
2009/04/23 07:36:35.2     199    199    -34    282    285  44.9  -6.9  33962  286.23 0855.51
2009/04/23 07:36:35.3     112    156     33    193    196  35.8   9.9  33958  286.17 0855.51
2009/04/23 07:36:35.4       8    202     10    203    204   2.5   2.9  33962  286.24 0855.51
2009/04/23 07:36:35.5      74    199     62    213    222  20.5  16.3  33962  286.22 0855.51
2009/04/23 07:36:35.6      67    199     32    211    214  18.7   8.8  33960  286.19 0855.51
2009/04/23 07:36:35.7      78    194     27    210    212  22.1   7.5  33960  286.20 0855.51
2009/04/23 07:36:35.8     112    176     16    209    210  32.6   4.4  33958  286.17 0855.51
2009/04/23 07:36:35.9     183     94     73    206    219  62.7  19.6  33956  286.14 0855.51
2009/04/23 07:36:36.0     247     66     31    256    258  75.0   7.1  33962  286.21 0855.51
2009/04/23 07:36:36.1     330     61     91    336    349  79.5  15.1  33964  286.26 0855.51
2009/04/23 07:36:36.2     317     22    141    318    347  85.9  25.7  33964  286.27 0855.51
2009/04/23 07:36:36.3     270    156     95    312    327  60.0  17.0  33964  286.25 0855.51
2009/04/23 07:36:36.4     213    168    -14    272    273  51.6  -3.1  33968  286.33 0855.51
2009/04/23 07:36:36.5     255    131    -24    287    289  62.7  -4.9  33968  286.33 0855.51
2009/04/23 07:36:36.6     320    114    -58    340    346  70.3  -9.8  33968  286.34 0855.51
2009/04/23 07:36:36.7     237    130    -76    271    282  61.1 -15.8  33966  286.30 0855.51
2009/04/23 07:36:36.8     229    139    -17    269    270  58.7  -3.7  33968  286.31 0855.51
2009/04/23 07:36:36.9     262     99     11    281    282  69.2   2.3  33968  286.33 0855.51
2009/04/23 07:36:37.0     261     90      8    277    278  70.9   1.7  33968  286.31 0855.51
2009/04/23 07:36:37.1     290     90     42    304    308  72.7   8.0  33968  286.33 0855.51
2009/04/23 07:36:37.2     277    102     85    296    309  69.8  16.1  33970  286.35 0855.50
2009/04/23 07:36:37.3     286     91     53    301    306  72.3  10.0  33970  286.35 0855.50
2009/04/23 07:36:37.4     238    119     64    267    275  63.4  13.5  33968  286.31 0855.50
2009/04/23 07:36:37.5     243    139     54    280    286  60.2  11.0  33966  286.30 0855.50
2009/04/23 07:36:37.6     235    149    -12    279    280  57.6  -2.6  33968  286.33 0855.50
2009/04/23 07:36:37.7     217    133     50    255    260  58.4  11.1  33966  286.28 0855.50
2009/04/23 07:36:37.8     246    117     42    273    277  64.6   8.8  33970  286.35 0855.50
2009/04/23 07:36:37.9     222    100     47    244    249  65.6  11.1  33966  286.28 0855.50
2009/04/23 07:36:38.0     226    104     49    250    255  65.2  11.1  33968  286.31 0855.50
2009/04/23 07:36:38.1     203    107     54    230    237  62.2  13.2  33966  286.30 0855.50
2009/04/23 07:36:38.2     160    109     69    194    207  55.8  19.6  33968  286.32 0855.50
2009/04/23 07:36:38.3     180     98     88    206    224  61.4  24.6  33966  286.30 0855.50
2009/04/23 07:36:38.4     182     91     71    204    217  63.4  19.2  33968  286.32 0855.50
2009/04/23 07:36:38.5     194     92     67    215    226  64.5  17.3  33968  286.32 0855.50
2009/04/23 07:36:38.6     208     82     61    224    233  68.3  15.2  33968  286.34 0855.50
2009/04/23 07:36:38.7     219     93     80    239    253  66.9  18.5  33968  286.33 0855.50
2009/04/23 07:36:38.8     267    121     83    294    306  65.6  15.8  33968  286.31 0855.50
2009/04/23 07:36:38.9     244    134     87    279    293  61.2  17.3  33968  286.33 0855.50
2009/04/23 07:36:39.0     181    139     88    229    245  52.5  22.0  33968  286.31 0855.50
2009/04/23 07:36:39.1     189    156    120    246    273  50.4  28.0  33966  286.30 0855.50
2009/04/23 07:36:39.2     226    139     94    266    282  58.5  20.2  33968  286.31 0855.50
2009/04/23 07:36:39.3     240    133     91    275    290  60.9  18.4  33964  286.25 0855.50
2009/04/23 07:36:39.4     266    144    106    303    322  61.6  19.3  33970  286.36 0855.50
2009/04/23 07:36:39.5     244    133    120    279    303  61.4  25.1  33966  286.30 0855.50
2009/04/23 07:36:39.6     260    152     97    302    318  59.8  17.8  33968  286.31 0855.50
2009/04/23 07:36:39.7     231    137    177    269    322  59.4  36.4  33966  286.30 0855.50
2009/04/23 07:36:39.8     318    117    138    340    366  69.7  23.4  33966  286.29 0855.50
2009/04/23 07:36:39.9     286    135     69    317    325  64.8  12.4  33968  286.33 0855.50
2009/04/23 07:36:40.0     274     92     90    290    304  71.4  17.4  33968  286.33 0855.50
2009/04/23 07:36:40.1     263    128     87    293    306  64.0  16.6  33968  286.33 0855.50
2009/04/23 07:36:40.2     230    123     87    261    276  61.8  18.5  33970  286.35 0855.50
2009/04/23 07:36:40.3     241    133     64    276    284  61.1  13.2  33966  286.28 0855.50
2009/04/23 07:36:40.4     268    170     47    318    322  57.6   8.5  33968  286.31 0855.50
2009/04/23 07:36:40.5     218    202    102    298    316  47.1  18.9  33964  286.26 0855.50
2009/04/23 07:36:40.6     250    127     25    281    283  62.9   5.2  33966  286.28 0855.50
2009/04/23 07:36:40.7     212    130     25    249    251  58.5   5.9  33966  286.30 0855.50
2009/04/23 07:36:40.8     260    161     78    306    316  58.2  14.3  33966  286.30 0855.50
2009/04/23 07:36:40.9     246    156     56    292    298  57.6  11.0  33968  286.31 0855.50
2009/04/23 07:36:41.0     234    146     93    276    292  58.0  18.6  33970  286.36 0855.50
2009/04/23 07:36:41.1     238    122     50    268    273  62.9  10.6  33968  286.31 0855.50
2009/04/23 07:36:41.2     282    136     81    314    325  64.2  14.6  33968  286.31 0855.51
2009/04/23 07:36:41.3     279    115    104    302    320  67.6  19.1  33964  286.25 0855.51
2009/04/23 07:36:41.4     251    157     37    297    300  58.0   7.1  33964  286.26 0855.51
2009/04/23 07:36:41.5     249    180     84    308    320  54.1  15.4  33968  286.31 0855.51
2009/04/23 07:36:41.6     264    167     83    313    324  57.8  15.0  33966  286.30 0855.51
2009/04/23 07:36:41.7     238    170    103    293    311  54.5  19.4  33964  286.26 0855.51
2009/04/23 07:36:41.8     188    160    105    248    269  49.6  24.2  33966  286.28 0855.51
2009/04/23 07:36:41.9     189    167     89    253    268  48.4  20.0  33962  286.23 0855.51
2009/04/23 07:36:42.0     208    173     -5    271    272  50.2  -1.2  33968  286.33 0855.51
2009/04/23 07:36:42.1     265    147    -16    304    305  60.9  -3.1  33968  286.31 0855.51
2009/04/23 07:36:42.2     249    157    -37    295    298  57.8  -7.2  33964  286.26 0855.51
2009/04/23 07:36:42.3     169    191    -30    256    258  41.4  -6.7  33968  286.31 0855.51
2009/04/23 07:36:42.4     167    234    -27    288    290  35.6  -5.4  33966  286.28 0855.51
2009/04/23 07:36:42.5     103    230     31    253    255  24.1   7.1  33960  286.20 0855.51
2009/04/23 07:36:42.6     127    175     32    217    220  36.1   8.5  33966  286.29 0855.51
2009/04/23 07:36:42.7     129    201     -9    240    241  32.7  -2.2  33968  286.33 0855.51
2009/04/23 07:36:42.8     121    178      8    216    217  34.3   2.3  33964  286.27 0855.51
2009/04/23 07:36:42.9      83    151     26    173    176  28.7   8.8  33964  286.27 0855.51
2009/04/23 07:36:43.0      51    172     23    180    182  16.5   7.5  33966  286.29 0855.51
2009/04/23 07:36:43.1     -20    196     38    198    202 354.0  11.0  33966  286.29 0855.51
2009/04/23 07:36:43.2     -39    180     30    185    188 347.7   9.3  33964  286.27 0855.51
2009/04/23 07:36:43.3      -8    186     10    187    188 357.3   3.1  33966  286.30 0855.51
2009/04/23 07:36:43.4      63    188     -4    199    200  18.5  -1.3  33964  286.27 0855.51
2009/04/23 07:36:43.5     141    154    -19    209    210  42.5  -5.4  33964  286.27 0855.51
2009/04/23 07:36:43.6     133     95    -31    164    168  54.5 -10.9  33966  286.29 0855.51
2009/04/23 07:36:43.7      89    144      6    170    171  31.9   2.1  33968  286.32 0855.51
2009/04/23 07:36:43.8      96    158     -2    186    187  31.4  -0.7  33968  286.32 0855.51
2009/04/23 07:36:43.9      87    147     50    171    179  30.7  16.3  33966  286.29 0855.51
2009/04/23 07:36:44.0      47    109     39    119    126  23.6  18.4  33966  286.30 0855.51
2009/04/23 07:36:44.1      43     91     49    101    112  25.4  27.3  33962  286.24 0855.51
2009/04/23 07:36:44.2      35    104     62    110    126  18.7  31.9  33964  286.25 0855.51
2009/04/23 07:36:44.3      53    117     51    129    138  24.5  23.0  33962  286.22 0855.51
2009/04/23 07:36:44.4      52    110    105    122    160  25.5  45.4  33964  286.25 0855.51
2009/04/23 07:36:44.5     -23    113     90    116    146 348.4  42.2  33964  286.25 0855.51
2009/04/23 07:36:44.6     -39     67     88     78    117 329.3  53.7  33966  286.30 0855.51
2009/04/23 07:36:44.7     -34    113     87    119    147 343.1  39.7  33964  286.27 0855.51
2009/04/23 07:36:44.8     -55    139    107    150    184 338.2  39.1  33964  286.25 0855.51
2009/04/23 07:36:44.9     -66    165    110    178    209 338.2  35.0  33964  286.27 0855.51
2009/04/23 07:36:45.0     -69    191     94    204    224 340.2  27.0  33964  286.25 0855.51
2009/04/23 07:36:45.1     -50    149     71    158    173 341.5  25.7  33964  286.27 0855.51
2009/04/23 07:36:45.2     -87    218     -9    235    236 338.2  -2.2  33966  286.28 0855.51
2009/04/23 07:36:45.3     -92    203     39    224    228 335.5   9.9  33962  286.24 0855.51
2009/04/23 07:36:45.4     -33    250     76    253    265 352.4  16.8  33962  286.21 0855.51
2009/04/23 07:36:45.5       0    285    100    286    304   0.0  19.4  33962  286.23 0855.51
2009/04/23 07:36:45.6     -11    255     91    256    271 357.4  20.0  33966  286.28 0855.51
2009/04/23 07:36:45.7     -40    181      0    186    187 347.5   0.2  33964  286.25 0855.51
2009/04/23 07:36:45.8    -126    203     -9    240    241 328.1  -2.2  33962  286.21 0855.51
2009/04/23 07:36:45.9    -110    209    -20    237    238 332.1  -4.9  33964  286.26 0855.51
2009/04/23 07:36:46.0     -40    217     11    221    222 349.5   2.9  33964  286.25 0855.51
2009/04/23 07:36:46.1     -87    256     15    271    272 341.1   3.3  33960  286.20 0855.51
2009/04/23 07:36:46.2     -97    275     76    292    302 340.6  14.7  33964  286.25 0855.52
2009/04/23 07:36:46.3     -78    302     63    312    319 345.5  11.4  33964  286.25 0855.52
2009/04/23 07:36:46.4     -81    314     69    325    333 345.4  12.0  33964  286.27 0855.52
2009/04/23 07:36:46.5     -61    324     39    330    333 349.3   6.9  33964  286.26 0855.52
2009/04/23 07:36:46.6    -120    304     34    327    329 338.4   6.0  33962  286.24 0855.52
2009/04/23 07:36:46.7     -87    312     24    325    326 344.3   4.4  33962  286.23 0855.52
2009/04/23 07:36:46.8     -74    290     14    300    301 345.7   2.8  33964  286.25 0855.52
2009/04/23 07:36:46.9     -48    236    125    241    271 348.4  29.5  33966  286.30 0855.52
2009/04/23 07:36:47.0     -38    224     89    228    244 350.4  22.1  33966  286.30 0855.52
2009/04/23 07:36:47.1     -16    214     84    215    230 355.5  22.5  33966  286.30 0855.52
2009/04/23 07:36:47.2       0    188     99    189    213 359.8  29.8  33964  286.27 0855.52
2009/04/23 07:36:47.3      76    238     16    250    251  17.8   3.8  33964  286.25 0855.52
2009/04/23 07:36:47.4     101    212     -1    235    236  25.5  -0.3  33964  286.25 0855.52
2009/04/23 07:36:47.5     139    226     13    266    267  31.6   2.8  33964  286.26 0855.52
2009/04/23 07:36:47.6     159    201     71    257    267  38.3  15.6  33962  286.23 0855.52
2009/04/23 07:36:47.7     177    279     67    331    339  32.5  11.6  33964  286.27 0855.52
2009/04/23 07:36:47.8     208    223     83    306    318  43.0  15.2  33966  286.30 0855.52
2009/04/23 07:36:47.9     175    195     39    263    266  41.9   8.5  33964  286.26 0855.52
2009/04/23 07:36:48.0     186    185      8    263    264  45.1   1.8  33964  286.25 0855.52
2009/04/23 07:36:48.1     160    193     86    251    266  39.6  18.9  33966  286.30 0855.52
2009/04/23 07:36:48.2     151    204    123    254    282  36.5  27.8  33966  286.28 0855.51
2009/04/23 07:36:48.3     151    218    154    266    307  34.7  32.7  33964  286.26 0855.51
2009/04/23 07:36:48.4     168    206    142    267    302  39.2  30.3  33968  286.31 0855.51
2009/04/23 07:36:48.5     222    151    120    269    294  55.8  25.7  33966  286.30 0855.51
2009/04/23 07:36:48.6     219    139    101    260    278  57.5  22.1  33966  286.28 0855.51
2009/04/23 07:36:48.7     211    134    110    251    274  57.5  25.2  33968  286.31 0855.51
2009/04/23 07:36:48.8     215    141     60    258    266  56.7  13.2  33962  286.23 0855.51
2009/04/23 07:36:48.9     200    162     17    258    259  50.9   3.8  33962  286.23 0855.51
2009/04/23 07:36:49.0     212    158     15    265    266  53.2   3.3  33966  286.28 0855.51
2009/04/23 07:36:49.1     200    150      0    250    251  53.1   0.2  33966  286.28 0855.51
2009/04/23 07:36:49.2     193    147     -6    243    244  52.7  -1.6  33966  286.30 0855.51
2009/04/23 07:36:49.3     177    177    -26    251    253  45.1  -6.1  33966  286.28 0855.51
2009/04/23 07:36:49.4     175    166    -57    242    249  46.4 -13.3  33966  286.28 0855.51
2009/04/23 07:36:49.5     145    157    -43    214    219  42.8 -11.3  33962  286.22 0855.51
2009/04/23 07:36:49.6     152    172     -5    230    231  41.4  -1.3  33966  286.29 0855.51
2009/04/23 07:36:49.7     139    158    -16    211    212  41.4  -4.4  33964  286.27 0855.51
2009/04/23 07:36:49.8     152    136     33    205    208  48.2   9.3  33964  286.25 0855.51
2009/04/23 07:36:49.9     131    136     52    190    198  43.9  15.3  33968  286.32 0855.51
2009/04/23 07:36:50.0     138    173     14    222    223  38.7   3.8  33964  286.27 0855.51
2009/04/23 07:36:50.1     156    196      7    251    252  38.5   1.8  33962  286.23 0855.51
2009/04/23 07:36:50.2     187    230     19    297    298  39.2   3.8  33964  286.26 0855.52
2009/04/23 07:36:50.3     178    219     12    283    284  39.0   2.5  33964  286.25 0855.52
2009/04/23 07:36:50.4     186    217     -8    287    288  40.6  -1.6  33964  286.26 0855.52
2009/04/23 07:36:50.5     176    158     82    237    252  48.0  19.2  33960  286.18 0855.52
2009/04/23 07:36:50.6     180    142     85    230    245  51.6  21.0  33960  286.18 0855.52
2009/04/23 07:36:50.7     187    154     59    243    251  50.5  13.7  33964  286.26 0855.52
2009/04/23 07:36:50.8     219    135    105    258    278  58.4  23.1  33964  286.26 0855.52
2009/04/23 07:36:50.9     193    148     80    244    257  52.5  18.1  33964  286.26 0855.52
2009/04/23 07:36:51.0     208    194     69    285    294  46.9  13.7  33968  286.31 0855.52
2009/04/23 07:36:51.1     190    195     96    273    290  44.3  19.4  33966  286.28 0855.52
2009/04/23 07:36:51.2     139    194     22    239    241  35.6   5.4  33968  286.31 0855.52
2009/04/23 07:36:51.3      66    283     14    291    292  13.3   2.9  33964  286.26 0855.52
2009/04/23 07:36:51.4     112    276    -42    298    302  22.1  -8.0  33966  286.28 0855.52
2009/04/23 07:36:51.5     138    269    -74    303    312  27.2 -13.8  33968  286.31 0855.52
2009/04/23 07:36:51.6     166    261    -87    310    322  32.5 -15.7  33968  286.33 0855.52
2009/04/23 07:36:51.7     200    285    -97    349    363  35.0 -15.5  33968  286.32 0855.52
2009/04/23 07:36:51.8     179    308   -128    357    380  30.1 -19.8  33968  286.31 0855.52
2009/04/23 07:36:51.9     117    330    -60    351    357  19.6  -9.8  33966  286.29 0855.52
2009/04/23 07:36:52.0      87    304    -55    317    322  16.0  -9.9  33968  286.31 0855.52
2009/04/23 07:36:52.1      67    288    -51    296    301  13.3  -9.8  33966  286.30 0855.52
2009/04/23 07:36:52.2     151    245    -60    288    295  31.7 -11.9  33970  286.36 0855.52
2009/04/23 07:36:52.3     181    212     -7    279    280  40.5  -1.6  33966  286.28 0855.52
2009/04/23 07:36:52.4     136    246     -6    282    283  29.0  -1.3  33968  286.31 0855.52
2009/04/23 07:36:52.5     182    257     -6    316    317  35.4  -1.3  33970  286.35 0855.52
2009/04/23 07:36:52.6      35    246    -36    249    252   8.2  -8.2  33966  286.28 0855.52
2009/04/23 07:36:52.7      50    236    -52    242    248  12.0 -12.2  33968  286.33 0855.52
2009/04/23 07:36:52.8      89    219     24    237    239  22.1   6.0  33970  286.35 0855.52
2009/04/23 07:36:52.9      77    190     -8    206    207  22.1  -2.2  33970  286.35 0855.52
2009/04/23 07:36:53.0      57    242    -35    249    252  13.4  -8.0  33970  286.35 0855.52
2009/04/23 07:36:53.1      72    218    -33    230    233  18.3  -8.2  33970  286.35 0855.52
2009/04/23 07:36:53.2      44    229    -40    234    238  10.9  -9.8  33968  286.31 0855.52
2009/04/23 07:36:53.3      12    269    -19    270    271   2.6  -4.1  33968  286.31 0855.52
2009/04/23 07:36:53.4      48    277    -15    282    283  10.0  -3.1  33964  286.26 0855.52
2009/04/23 07:36:53.5      58    270     -1    277    278  12.3  -0.3  33968  286.31 0855.52
2009/04/23 07:36:53.6      64    274      7    282    283  13.3   1.6  33966  286.28 0855.52
2009/04/23 07:36:53.7      65    276     21    284    285  13.4   4.2  33966  286.28 0855.52
2009/04/23 07:36:53.8      70    266     25    276    278  14.9   5.2  33966  286.28 0855.52
2009/04/23 07:36:53.9      60    252     34    260    263  13.4   7.5  33966  286.30 0855.52
2009/04/23 07:36:54.0      63    272     25    280    282  13.1   5.2  33966  286.28 0855.52
2009/04/23 07:36:54.1      71    262     13    272    273  15.2   2.9  33964  286.26 0855.52
2009/04/23 07:36:54.2      55    281     14    287    288  11.1   2.9  33964  286.25 0855.52
2009/04/23 07:36:54.3      77    286     15    297    298  15.1   2.9  33968  286.31 0855.52
2009/04/23 07:36:54.4      47    332     38    336    339   8.1   6.6  33962  286.24 0855.52
2009/04/23 07:36:54.5      45    322     64    326    333   8.1  11.1  33962  286.24 0855.52
2009/04/23 07:36:54.6     101    301     90    318    331  18.7  15.9  33962  286.23 0855.52
2009/04/23 07:36:54.7     113    353     19    371    372  17.8   3.0  33966  286.29 0855.52
2009/04/23 07:36:54.8     136    339     23    366    367  21.8   3.7  33966  286.29 0855.52
2009/04/23 07:36:54.9     139    338     58    366    371  22.4   9.0  33962  286.24 0855.52
2009/04/23 07:36:55.0     119    290     63    314    321  22.3  11.4  33962  286.23 0855.52
2009/04/23 07:36:55.1     118    274     58    299    305  23.4  11.1  33958  286.15 0855.52
2009/04/23 07:36:55.2     101    265     61    284    291  20.9  12.1  33958  286.16 0855.52
2009/04/23 07:36:55.3      71    247     90    258    274  16.0  19.2  33960  286.18 0855.52
2009/04/23 07:36:55.4      94    257     81    274    286  20.1  16.6  33962  286.21 0855.52
2009/04/23 07:36:55.5     181    218     83    284    296  39.6  16.3  33958  286.16 0855.52
2009/04/23 07:36:55.6     216    263    114    341    360  39.5  18.5  33964  286.27 0855.52
2009/04/23 07:36:55.7     245    244     90    346    358  45.1  14.7  33962  286.22 0855.52
2009/04/23 07:36:55.8     275    129    120    305    327  64.8  22.5  33958  286.16 0855.52
2009/04/23 07:36:55.9     287    164    139    331    359  60.3  24.2  33966  286.29 0855.52
2009/04/23 07:36:56.0     274    108    103    295    313  68.5  19.3  33966  286.28 0855.52
2009/04/23 07:36:56.1     276    152    128    316    340  61.1  23.2  33968  286.32 0855.52
2009/04/23 07:36:56.2     211    174    171    274    322  50.4  35.0  33966  286.28 0855.52
2009/04/23 07:36:56.3     215    243    137    325    352  41.5  24.2  33968  286.31 0855.52
2009/04/23 07:36:56.4     176    276      0    328    329  32.5   0.0  33964  286.26 0855.52
2009/04/23 07:36:56.5     139    258     -3    294    295  28.3  -0.7  33962  286.21 0855.52
2009/04/23 07:36:56.6     148    268    -39    307    310  29.0  -7.4  33966  286.30 0855.52
2009/04/23 07:36:56.7     127    266    -37    296    299  25.6  -7.2  33970  286.36 0855.52
2009/04/23 07:36:56.8     108    298    -22    318    319  20.0  -4.0  33970  286.36 0855.52
2009/04/23 07:36:56.9      97    320    -20    335    336  17.0  -3.5  33970  286.37 0855.52
2009/04/23 07:36:57.0     103    319    -29    336    338  17.9  -5.1  33968  286.32 0855.52
2009/04/23 07:36:57.1      88    289    -11    303    304  16.9  -2.1  33966  286.28 0855.52
2009/04/23 07:36:57.2      94    310     18    325    326  16.9   3.3  33964  286.25 0855.52
2009/04/23 07:36:57.3      50    299      9    304    305   9.6   1.8  33964  286.26 0855.52
2009/04/23 07:36:57.4       9    261    -17    262    263   2.0  -3.9  33966  286.30 0855.52
2009/04/23 07:36:57.5     -43    226    -26    231    233 349.1  -6.5  33964  286.27 0855.52
2009/04/23 07:36:57.6     -34    247     -9    250    251 352.0  -2.3  33964  286.26 0855.52
2009/04/23 07:36:57.7     -13    250    -22    251    253 356.9  -5.2  33964  286.25 0855.52
2009/04/23 07:36:57.8     -25    180    -27    182    185 352.0  -8.6  33964  286.25 0855.52
2009/04/23 07:36:57.9       0    200    -19    201    202 359.8  -5.6  33962  286.22 0855.52
2009/04/23 07:36:58.0     -12    229    -35    230    233 356.9  -8.8  33962  286.22 0855.52
2009/04/23 07:36:58.1       0    245      3    246    247 359.8   0.8  33954  286.08 0855.52
2009/04/23 07:36:58.2     -18    192      1    193    194 354.4   0.5  33952  286.07 0855.52
2009/04/23 07:36:58.3     -85    216     10    233    234 338.4   2.5  33946  285.94 0855.52
2009/04/23 07:36:58.4    -103    202    -61    227    236 332.9 -15.0  33954  286.09 0855.52
2009/04/23 07:36:58.5    -112    159    -59    195    203 324.8 -21.8  33956  286.12 0855.52
2009/04/23 07:36:58.6    -109    155    -84    190    207 324.8 -29.7  33960  286.19 0855.52
2009/04/23 07:36:58.7    -117    103    -74    157    173 311.3 -31.5  33954  286.08 0855.52
2009/04/23 07:36:58.8     -45    129    -79    137    158 340.4 -37.1  33956  286.14 0855.52
2009/04/23 07:36:58.9     -14    125    -41    126    132 353.3 -23.8  33950  286.03 0855.52
2009/04/23 07:36:59.0     -16    126    -35    128    133 352.4 -15.5  33952  286.05 0855.52
2009/04/23 07:36:59.1     -43    157    -53    163    171 344.6 -23.6  33952  286.05 0855.52
2009/04/23 07:36:59.2      17    173    -64    174    185   5.8 -25.1  33954  286.08 0855.52
2009/04/23 07:36:59.3     -26    168    -66    171    183 351.1 -26.4  33954  286.08 0855.52
2009/04/23 07:36:59.4     -18    224    -21    225    227 355.3  -5.4  33958  286.15 0855.52
2009/04/23 07:36:59.5     -17    192    -34    193    197 354.9 -10.1  33958  286.15 0855.52
2009/04/23 07:36:59.6     -24    193    -25    195    197 352.9  -7.5  33956  286.14 0855.52
2009/04/23 07:36:59.7     -12    149    -24    150    153 355.1  -9.4  33958  286.15 0855.52
2009/04/23 07:36:59.9      35    130    -28    135    138  15.1 -11.9  33960  286.19 0855.52
2009/04/23 07:36:59.9      46    112    -16    122    124  22.3  -7.7  33960  286.19 0855.52
2009/04/23 07:37:00.1      41    125     10    132    133  18.3   4.4  33958  286.15 0855.52
2009/04/23 07:37:00.1      49    146      0    155    156  18.7   0.2  33960  286.20 0855.52
2009/04/23 07:37:00.3      24    211     18    213    214   6.5   4.9  33960  286.20 0855.52
2009/04/23 07:37:00.4      26    230     57    232    240   6.5  13.9  33964  286.25 0855.52
2009/04/23 07:37:00.5      43    210     63    215    225  11.6  16.3  33960  286.19 0855.52
2009/04/23 07:37:00.6     146    165     11    221    222  41.7   2.9  33964  286.25 0855.52
2009/04/23 07:37:00.7     150    150     18    213    214  45.1   4.9  33964  286.27 0855.52
2009/04/23 07:37:00.8     124    153     16    198    199  39.0   4.9  33962  286.24 0855.52
2009/04/23 07:37:00.9     128    163     28    208    210  38.3   7.8  33968  286.32 0855.52
2009/04/23 07:37:01.0     120    184     38    220    224  33.2   9.9  33966  286.29 0855.52
2009/04/23 07:37:01.1     132    190     36    232    235  34.7   9.0  33968  286.31 0855.52
2009/04/23 07:37:01.2     121    188     52    224    231  32.7  13.1  33966  286.29 0855.52
2009/04/23 07:37:01.3      94    192     58    214    222  26.1  15.3  33968  286.32 0855.52
2009/04/23 07:37:01.4      63    179     61    191    201  19.6  17.7  33964  286.25 0855.52
2009/04/23 07:37:01.5     106    163     53    195    203  33.0  15.3  33964  286.27 0855.52
2009/04/23 07:37:01.6     104    176     32    205    208  30.5   9.0  33968  286.32 0855.52
2009/04/23 07:37:01.7     138    167     84    217    232  39.6  22.3  33966  286.29 0855.52
2009/04/23 07:37:01.8     102    256    129    276    304  21.8  27.1  33974  286.43 0855.52
2009/04/23 07:37:01.9     138    258    127    293    319  28.1  25.0  33966  286.28 0855.52
2009/04/23 07:37:02.0     187    225    104    293    312  39.7  19.6  33966  286.30 0855.52
2009/04/23 07:37:02.1     197    197     87    280    294  45.0  17.3  33968  286.31 0855.52
2009/04/23 07:37:02.2     235    205     90    313    326  48.9  16.1  33964  286.25 0855.52
2009/04/23 07:37:02.3     203    306      7    368    369  33.5   1.1  33962  286.24 0855.51
2009/04/23 07:37:02.4     207    283     10    351    352  36.2   1.7  33964  286.27 0855.51
2009/04/23 07:37:02.5     181    246      3    306    307  36.3   0.7  33964  286.26 0855.51
2009/04/23 07:37:02.6     170    241      9    296    297  35.2   1.8  33964  286.26 0855.51
2009/04/23 07:37:02.7     138    227      2    266    267  31.4   0.5  33962  286.23 0855.51
2009/04/23 07:37:02.8     156    237     37    285    288  33.4   7.5  33960  286.18 0855.51
2009/04/23 07:37:02.9     143    238     49    278    283  31.0  10.1  33964  286.26 0855.51
2009/04/23 07:37:03.0      99    246     37    266    269  21.9   8.0  33964  286.25 0855.51
2009/04/23 07:37:03.1      64    275     14    283    284  13.3   2.9  33962  286.23 0855.51
2009/04/23 07:37:03.2      36    256     30    259    261   8.1   6.7  33962  286.21 0855.51
2009/04/23 07:37:03.3      61    279     33    286    288  12.4   6.7  33962  286.23 0855.51
2009/04/23 07:37:03.4      54    286     35    292    295  10.7   6.9  33966  286.28 0855.51
2009/04/23 07:37:03.5      43    301     17    305    306   8.1   3.3  33962  286.23 0855.51
2009/04/23 07:37:03.6      49    285     30    290    292   9.8   6.1  33964  286.25 0855.51
2009/04/23 07:37:03.7      64    275     35    283    286  13.3   7.1  33966  286.30 0855.51
2009/04/23 07:37:03.8      87    278     35    292    295  17.4   6.9  33966  286.30 0855.51
2009/04/23 07:37:03.9      85    277     42    291    295  17.2   8.2  33966  286.28 0855.51
2009/04/23 07:37:04.0      35    249    -18    252    253   8.0  -4.1  33964  286.25 0855.51
2009/04/23 07:37:04.1       3    222     -4    223    224   1.0  -1.2  33962  286.24 0855.51
2009/04/23 07:37:04.2       3    204     -4    205    206   1.1  -1.3  33962  286.24 0855.51
2009/04/23 07:37:04.3       4    186     -3    187    188   1.4  -1.1  33962  286.24 0855.51
2009/04/23 07:37:04.4      -3    203     17    204    205 358.9   4.9  33962  286.24 0855.51
2009/04/23 07:37:04.5     -22    221     11    223    224 354.2   2.9  33962  286.22 0855.51
2009/04/23 07:37:04.6     -26    219     14    221    222 353.1   3.8  33962  286.22 0855.51
2009/04/23 07:37:04.7     -31    212     15    215    216 351.5   4.2  33962  286.22 0855.51
2009/04/23 07:37:04.8     -10    225     11    226    227 357.3   2.8  33964  286.27 0855.51
2009/04/23 07:37:04.9     -46    209     61    215    224 347.5  16.0  33962  286.24 0855.51
2009/04/23 07:37:05.0     -59    225     60    233    241 345.1  14.5  33970  286.36 0855.51
2009/04/23 07:37:05.1     -58    224     59    232    240 345.5  14.3  33978  286.48 0855.51
2009/04/23 07:37:05.2     -33    218     73    221    233 351.3  18.4  33970  286.37 0855.51
2009/04/23 07:37:05.3     -16    206     91    207    226 355.3  25.2  33962  286.22 0855.51
2009/04/23 07:37:05.4      26    181     74    183    197   8.2  23.1  33964  286.25 0855.51
2009/04/23 07:37:05.5      50    169     74    177    191  16.7  23.8  33960  286.19 0855.51
2009/04/23 07:37:05.6      30    174     82    177    195  10.0  27.0  33960  286.20 0855.51
2009/04/23 07:37:05.7      25    177     65    179    190   8.2  20.4  33964  286.27 0855.51
2009/04/23 07:37:05.8      42    162     66    168    180  14.7  22.8  33962  286.24 0855.51
2009/04/23 07:37:05.9      23    236     62    238    247   5.6  14.7  33964  286.26 0855.51
2009/04/23 07:37:06.0      27    228     52    230    236   6.9  12.9  33964  286.26 0855.51
2009/04/23 07:37:06.1      14    211     61    212    221   3.8  16.0  33962  286.22 0855.51
2009/04/23 07:37:06.2      17    193     70    194    206   5.1  20.9  33962  286.24 0855.51
2009/04/23 07:37:06.3       6    195     63    196    206   2.0  17.9  33962  286.24 0855.50
2009/04/23 07:37:06.4       3    197     48    198    204   1.1  13.7  33966  286.29 0855.50
2009/04/23 07:37:06.5      17    193     36    194    198   5.1  10.6  33968  286.32 0855.50
2009/04/23 07:37:06.6      -8    186     36    187    191 357.3  11.0  33964  286.27 0855.50
2009/04/23 07:37:06.7     -34    171     32    175    179 348.5  10.6  33964  286.25 0855.50
2009/04/23 07:37:06.8     -60    179      9    190    191 341.3   2.8  33966  286.30 0855.50
2009/04/23 07:37:06.9     -45    175    -19    181    183 345.3  -6.0  33966  286.29 0855.50
2009/04/23 07:37:07.0     -15    199    -37    200    204 355.6 -10.5  33962  286.24 0855.50
2009/04/23 07:37:07.1     -36    180    -65    184    196 348.4 -19.4  33962  286.24 0855.50
2009/04/23 07:37:07.2     -27    177    -31    180    183 351.3  -9.8  33962  286.24 0855.50
2009/04/23 07:37:07.3     -57    181    -22    190    192 342.4  -6.7  33962  286.24 0855.50
2009/04/23 07:37:07.4     -30    173    -31    176    179 350.0 -10.3  33960  286.20 0855.50
2009/04/23 07:37:07.5     -59    178    -24    188    190 341.5  -7.3  33962  286.22 0855.50
2009/04/23 07:37:07.6     -66    159    -37    173    178 337.5 -12.2  33964  286.27 0855.50
2009/04/23 07:37:07.7     -47    143    -47    151    159 341.7 -17.5  33964  286.25 0855.50
2009/04/23 07:37:07.8     -36    112    -33    118    122 342.2 -20.2  33960  286.20 0855.50
2009/04/23 07:37:07.9     -51     70    -49     87     99 323.9 -36.3  33962  286.22 0855.50
2009/04/23 07:37:08.0     -67     55    -65     87    108 309.5 -45.1  33966  286.29 0855.50
2009/04/23 07:37:08.1     -57     47    -50     75     90 309.5 -40.9  33968  286.32 0855.50
2009/04/23 07:37:08.2     -29     46    -39     55     67 327.5 -43.9  33968  286.34 0855.50
2009/04/23 07:37:08.3      35     49    -39     61     72  35.2 -40.0  33966  286.29 0855.50
2009/04/23 07:37:08.4      70     88    -23    113    116  38.7 -11.5  33962  286.24 0855.50
2009/04/23 07:37:08.5      44     96    -27    106    110  24.9 -14.5  33964  286.25 0855.50
2009/04/23 07:37:08.6      60    102     -6    119    120  30.7  -3.1  33964  286.27 0855.50
2009/04/23 07:37:08.7      55    109    -12    123    124  26.7  -5.6  33964  286.27 0855.50
2009/04/23 07:37:08.8      57    120     -6    133    134  25.4  -2.6  33966  286.29 0855.50
2009/04/23 07:37:08.9      38    107      0    114    115  20.0  -0.3  33968  286.34 0855.50
2009/04/23 07:37:09.0      46    103      5    113    114  24.1   2.9  33968  286.32 0855.50
2009/04/23 07:37:09.1      39    121    -13    128    129  17.8  -6.2  33968  286.34 0855.50
2009/04/23 07:37:09.2      48    139    -31    148    152  19.2 -11.9  33968  286.32 0855.50
2009/04/23 07:37:09.3      63    131      3    146    147  25.9   1.2  33964  286.25 0855.50
2009/04/23 07:37:09.4      62    131    -13    145    146  25.3  -5.2  33962  286.22 0855.50
2009/04/23 07:37:09.5      51    128      2    138    139  21.8   1.2  33962  286.24 0855.50
2009/04/23 07:37:09.6      12    116     -4    117    118   6.2  -2.2  33962  286.24 0855.50
2009/04/23 07:37:09.7      -5    145      7    146    147 357.8   2.9  33966  286.29 0855.50
2009/04/23 07:37:09.8      -6    159    -15    160    161 357.8  -5.6  33964  286.25 0855.50
2009/04/23 07:37:09.9       7    158     21    159    161   2.7   7.8  33964  286.25 0855.50
2009/04/23 07:37:10.0      13    133     25    134    137   5.8  10.6  33962  286.24 0855.50
2009/04/23 07:37:10.1      22    157     24    159    161   8.0   8.8  33964  286.25 0855.50
2009/04/23 07:37:10.2      28    156     39    159    164  10.2  13.9  33962  286.24 0855.50
2009/04/23 07:37:10.3      30    161     25    164    166  10.7   8.8  33962  286.22 0855.50
2009/04/23 07:37:10.4      17    156     24    157    159   6.3   8.8  33962  286.24 0855.50
2009/04/23 07:37:10.5      16    149     19    150    152   6.3   7.5  33964  286.27 0855.50
2009/04/23 07:37:10.6      11    145      7    146    147   4.5   2.8  33960  286.20 0855.50
2009/04/23 07:37:10.7       6    146      7    147    148   2.7   2.9  33962  286.24 0855.50
2009/04/23 07:37:10.8       0    142      7    143    144 359.6   2.9  33962  286.24 0855.50
2009/04/23 07:37:10.9       0    142      7    143    144 359.6   2.9  33962  286.24 0855.50
2009/04/23 07:37:11.0       8    150     11    151    152   3.1   4.4  33964  286.27 0855.50
2009/04/23 07:37:11.1      10    135      6    136    137   4.5   2.9  33964  286.25 0855.50
2009/04/23 07:37:11.2      27    120     24    124    127  12.9  11.1  33962  286.24 0855.50
2009/04/23 07:37:11.3      23     97     34    100    106  13.4  18.9  33962  286.24 0855.50
2009/04/23 07:37:11.4      21    107     19    110    112  11.1  10.1  33962  286.22 0855.50
2009/04/23 07:37:11.5      42     98     -5    107    108  23.6  -3.1  33964  286.27 0855.50
2009/04/23 07:37:11.6      66     91    -18    113    115  36.1  -9.4  33962  286.24 0855.50
2009/04/23 07:37:11.7      86     71     -1    112    113  50.5  -0.7  33960  286.19 0855.50
2009/04/23 07:37:11.8      55     78     17     96     98  35.2  10.1  33960  286.19 0855.50
2009/04/23 07:37:11.9      61    107     47    124    132  29.9  21.0  33962  286.22 0855.50
2009/04/23 07:37:12.0      56    111     46    125    133  26.7  20.9  33964  286.27 0855.50
2009/04/23 07:37:12.1      49    128     47    138    146  20.9  18.9  33962  286.22 0855.50
2009/04/23 07:37:12.2      60    147     29    159    162  22.3  10.6  33962  286.24 0855.50
2009/04/23 07:37:12.3      57    131     28    144    147  23.7  11.0  33964  286.25 0855.50
2009/04/23 07:37:12.4      36    154     34    159    163  13.4  12.2  33962  286.24 0855.50
2009/04/23 07:37:12.5      45    138     47    146    154  18.3  17.9  33962  286.24 0855.50
2009/04/23 07:37:12.6      36    120     48    126    134  17.0  21.0  33964  286.25 0855.50
2009/04/23 07:37:12.7      37    122     49    128    137  17.0  21.5  33962  286.24 0855.50
2009/04/23 07:37:12.8      39    112     53    119    130  19.6  25.7  33964  286.25 0855.50
2009/04/23 07:37:12.9      55     97     53    112    123  29.9  27.1  33960  286.19 0855.50
2009/04/23 07:37:13.0      59     87     44    106    114  34.3  23.6  33960  286.20 0855.50
2009/04/23 07:37:13.1      60     90     45    109    117  33.8  23.6  33962  286.22 0855.50
2009/04/23 07:37:13.2      76     76     20    108    110  45.1  10.6  33962  286.22 0855.50
2009/04/23 07:37:13.3      73     83     29    111    115  41.4  14.7  33960  286.20 0855.49
2009/04/23 07:37:13.4      71     78     26    106    110  42.3  13.7  33962  286.22 0855.49
2009/04/23 07:37:13.5      58    105     -2    121    122  29.0  -1.2  33960  286.20 0855.49
2009/04/23 07:37:13.6      60    101     18    118    120  30.7   8.9  33962  286.24 0855.49
2009/04/23 07:37:13.7      97     62     31    116    121  57.6  15.2  33958  286.17 0855.49
2009/04/23 07:37:13.8      75     47     13     89     91  57.6   8.5  33958  286.15 0855.49
2009/04/23 07:37:13.9      50     52     36     73     81  44.1  28.2  33960  286.20 0855.49
2009/04/23 07:37:14.0      27     96     39    100    107  16.0  22.0  33958  286.17 0855.49
2009/04/23 07:37:14.1       6    137     64    138    152   2.6  27.1  33958  286.15 0855.49
2009/04/23 07:37:14.2      17    162    100    163    191   6.3  34.8  33960  286.20 0855.49
2009/04/23 07:37:14.3      37    144    101    149    180  14.7  37.6  33960  286.20 0855.49
2009/04/23 07:37:14.4      27    134     49    137    145  11.6  20.0  33962  286.24 0855.49
2009/04/23 07:37:14.5      28    115     75    119    140  13.8  35.5  33958  286.17 0855.49
2009/04/23 07:37:14.6      50    125     77    135    155  21.8  32.4  33958  286.17 0855.49
2009/04/23 07:37:14.7      51    144     67    153    167  19.6  25.3  33956  286.14 0855.49
2009/04/23 07:37:14.8      40    155     57    161    170  14.7  20.0  33960  286.19 0855.49
2009/04/23 07:37:14.9      40    162     58    167    177  14.0  19.2  33962  286.24 0855.49
2009/04/23 07:37:15.0      77    162     57    180    189  25.6  17.7  33966  286.30 0855.49
2009/04/23 07:37:15.1      70    148     57    164    174  25.3  19.2  33964  286.25 0855.49
2009/04/23 07:37:15.2      94    153     57    180    189  31.6  17.7  33966  286.30 0855.49
2009/04/23 07:37:15.3      90    168     57    191    200  28.1  16.8  33968  286.32 0855.50
2009/04/23 07:37:15.4     105    157     53    190    198  33.8  15.8  33966  286.30 0855.50
2009/04/23 07:37:15.5     123    185     71    223    235  33.6  17.7  33966  286.29 0855.50
2009/04/23 07:37:15.6      97    157     84    185    203  31.6  25.9  33966  286.29 0855.50
2009/04/23 07:37:15.7      84    223     70    239    250  20.7  16.4  33964  286.25 0855.50
2009/04/23 07:37:15.8     148    217     72    263    273  34.3  15.3  33964  286.26 0855.50
2009/04/23 07:37:15.9     156    188     84    245    260  39.7  18.9  33964  286.26 0855.50
2009/04/23 07:37:16.0     170    189     66    255    264  42.1  14.5  33966  286.28 0855.50
2009/04/23 07:37:16.1     156    196     83    251    265  38.5  18.4  33964  286.26 0855.50
2009/04/23 07:37:16.2     189    189     71    268    278  44.9  15.0  33964  286.26 0855.50
2009/04/23 07:37:16.3     204    204     79    289    300  45.0  15.3  33964  286.25 0855.50
2009/04/23 07:37:16.4     169    189     79    254    266  41.9  17.3  33960  286.20 0855.50
2009/04/23 07:37:16.5     186    177     76    257    269  46.4  16.6  33960  286.20 0855.50
2009/04/23 07:37:16.6     197    169     85    260    274  49.3  18.1  33960  286.20 0855.50
2009/04/23 07:37:16.7     179    195     62    265    273  42.5  13.2  33966  286.28 0855.50
2009/04/23 07:37:16.8     182    204     76    274    285  41.7  15.6  33964  286.25 0855.50
2009/04/23 07:37:16.9     209    187     70    281    290  48.2  14.2  33960  286.18 0855.50
2009/04/23 07:37:17.0     183    170     90    251    267  47.1  19.9  33968  286.33 0855.50
2009/04/23 07:37:17.1     179    128     80    221    235  54.5  20.7  33962  286.24 0855.50
2009/04/23 07:37:17.2     191    149    106    243    265  52.0  25.1  33964  286.25 0855.50
2009/04/23 07:37:17.3     175    194     92    262    278  42.1  19.4  33968  286.31 0855.50
2009/04/23 07:37:17.4     187    228     63    296    303  39.4  12.2  33964  286.26 0855.50
2009/04/23 07:37:17.5     187    222     54    291    296  40.1  10.6  33964  286.25 0855.50
2009/04/23 07:37:17.6     175    191     34    260    263  42.5   7.5  33964  286.26 0855.50
2009/04/23 07:37:17.7     147    177     26    231    233  39.6   6.5  33962  286.24 0855.50
2009/04/23 07:37:17.8     105    196     33    223    226  28.3   8.5  33964  286.25 0855.50
2009/04/23 07:37:17.9      66    184     43    196    201  20.0  12.6  33964  286.25 0855.50
2009/04/23 07:37:18.0      42    199     24    204    206  12.0   6.9  33962  286.22 0855.50
2009/04/23 07:37:18.1      55    165      7    175    176  18.5   2.5  33962  286.24 0855.50
2009/04/23 07:37:18.2      81    149     20    170    172  28.7   6.9  33962  286.22 0855.50
2009/04/23 07:37:18.3      69    172     50    186    193  21.8  15.2  33964  286.27 0855.50
2009/04/23 07:37:18.4      79    145     63    166    177  28.5  21.7  33962  286.24 0855.50
2009/04/23 07:37:18.5     106    158     67    191    203  33.8  19.4  33964  286.27 0855.50
2009/04/23 07:37:18.6     105    167     48    198    204  32.3  13.7  33964  286.25 0855.50
2009/04/23 07:37:18.7     115    150     16    190    191  37.6   4.9  33966  286.30 0855.50
2009/04/23 07:37:18.8     123    153      9    197    198  39.0   2.8  33968  286.32 0855.50
2009/04/23 07:37:18.9     138    147     10    202    203  43.2   2.9  33966  286.29 0855.50
2009/04/23 07:37:19.0     142    134     35    196    200  46.8  10.1  33966  286.29 0855.50
2009/04/23 07:37:19.1      86    166      1    187    188  27.4   0.5  33966  286.29 0855.50
2009/04/23 07:37:19.2     117    147    -43    188    193  38.5 -12.9  33964  286.27 0855.50
2009/04/23 07:37:19.3      99    148    -31    179    182  33.8 -10.1  33964  286.25 0855.51
2009/04/23 07:37:19.4      98    157    -21    186    188  32.1  -6.7  33964  286.25 0855.51
2009/04/23 07:37:19.5      80    169    -17    188    189  25.4  -5.2  33964  286.27 0855.51
2009/04/23 07:37:19.6      51    156    -37    165    170  18.3 -12.9  33964  286.27 0855.51
2009/04/23 07:37:19.7      45    137    -40    145    151  18.3 -15.5  33962  286.24 0855.51
2009/04/23 07:37:19.8       9    123    -45    124    131   4.4 -24.8  33962  286.24 0855.51
2009/04/23 07:37:19.9      22    134    -32    136    140   9.7 -13.4  33964  286.25 0855.51
2009/04/23 07:37:20.0      13    186    -30    187    190   4.0  -9.3  33962  286.24 0855.51
2009/04/23 07:37:20.1      51    158      2    167    168  18.0   1.0  33964  286.25 0855.51
2009/04/23 07:37:20.2      56    147     -5    158    159  20.9  -2.1  33964  286.25 0855.51
2009/04/23 07:37:20.3      82    129      0    153    154  32.5  -0.3  33966  286.29 0855.51
2009/04/23 07:37:20.4      63    133     -8    148    149  25.5  -3.1  33966  286.29 0855.51
2009/04/23 07:37:20.5      70    114     -8    135    136  31.6  -3.7  33966  286.30 0855.51
2009/04/23 07:37:20.6      85    139    -29    164    167  31.4 -10.3  33964  286.25 0855.51
2009/04/23 07:37:20.7      96    179     -4    204    205  28.1  -1.2  33968  286.34 0855.51
2009/04/23 07:37:20.8      73    174     20    189    191  22.9   6.1  33968  286.32 0855.51
2009/04/23 07:37:20.9      90    165     15    189    190  28.7   4.6  33970  286.37 0855.51
2009/04/23 07:37:21.0      98    157     55    186    195  32.1  16.6  33968  286.34 0855.51
2009/04/23 07:37:21.1     119    159     18    199    200  36.7   5.4  33968  286.34 0855.51
2009/04/23 07:37:21.2     108    182     41    212    216  30.8  11.0  33968  286.32 0855.51
2009/04/23 07:37:21.3      93    141     32    170    174  33.4  10.8  33966  286.30 0855.51
2009/04/23 07:37:21.4     108    164     40    197    202  33.4  11.6  33968  286.32 0855.51
2009/04/23 07:37:21.5      98    173     39    200    204  29.6  11.1  33968  286.34 0855.51
2009/04/23 07:37:21.6      97    176     43    202    207  29.0  12.0  33966  286.29 0855.51
2009/04/23 07:37:21.7      60    174     30    185    188  19.2   9.3  33966  286.30 0855.51
2009/04/23 07:37:21.8      70    162     29    177    180  23.4   9.5  33968  286.34 0855.51
2009/04/23 07:37:21.9      69    161     43    176    182  23.2  13.9  33966  286.29 0855.51
2009/04/23 07:37:22.0      63    154      9    167    168  22.5   3.3  33968  286.32 0855.51
2009/04/23 07:37:22.1      96    143      0    173    174  34.1   0.2  33968  286.32 0855.51
2009/04/23 07:37:22.2     102    135      4    170    171  37.0   1.6  33968  286.32 0855.51
2009/04/23 07:37:22.3      75    131     29    152    155  29.9  11.0  33968  286.32 0855.51
2009/04/23 07:37:22.4      94    156     -3    183    184  31.0  -1.1  33964  286.27 0855.51
2009/04/23 07:37:22.5     101    127     13    163    164  38.7   4.6  33968  286.34 0855.51
2009/04/23 07:37:22.6     104    126     23    164    166  39.7   8.2  33966  286.30 0855.51
2009/04/23 07:37:22.7      78    109     26    135    138  35.6  11.0  33966  286.30 0855.51
2009/04/23 07:37:22.8      53    103     13    116    117  27.2   6.9  33966  286.29 0855.51
2009/04/23 07:37:22.9      55    108     13    122    123  27.2   6.5  33964  286.25 0855.51
2009/04/23 07:37:23.0      27     86     11     91     92  17.8   6.9  33962  286.24 0855.51
2009/04/23 07:37:23.1      42    106     -3    115    116  21.9  -1.8  33964  286.25 0855.51
2009/04/23 07:37:23.2      18     97     24     99    102  10.7  13.7  33964  286.27 0855.51
2009/04/23 07:37:23.3      47     87     -5    100    101  28.5  -3.1  33962  286.24 0855.52
2009/04/23 07:37:23.4      88     94     37    129    135  43.2  16.3  33966  286.30 0855.52
2009/04/23 07:37:23.5      84     87     53    122    133  44.1  25.1  33964  286.25 0855.52
2009/04/23 07:37:23.6      92     86     25    127    130  46.8  11.1  33966  286.30 0855.52
2009/04/23 07:37:23.7      75     80     38    111    118  43.2  18.9  33964  286.27 0855.52
2009/04/23 07:37:23.8      75     80     38    111    118  43.2  18.9  33964  286.27 0855.52
2009/04/23 07:37:23.9      47     67     39     83     91  35.2  27.1  33966  286.29 0855.52
2009/04/23 07:37:24.0      55     87     40    104    111  32.5  22.0  33962  286.24 0855.52
2009/04/23 07:37:24.1      42     96     47    105    115  23.6  26.2  33968  286.32 0855.52
2009/04/23 07:37:24.2      49     91     40    104    111  28.5  22.0  33966  286.29 0855.52
2009/04/23 07:37:24.3      32     83     40     90     98  21.4  25.7  33966  286.29 0855.52
2009/04/23 07:37:24.4      57     73     19     93     95  38.3  11.6  33968  286.32 0855.52
2009/04/23 07:37:24.5      58     58     21     83     86  45.0  14.7  33964  286.27 0855.52
2009/04/23 07:37:24.6      16     78     32     80     86  11.6  22.5  33962  286.22 0855.52
2009/04/23 07:37:24.7      71     71     65    101    120  45.0  35.6  33958  286.17 0855.52
2009/04/23 07:37:24.9      53     83     64     99    117  32.5  35.6  33962  286.22 0855.52
2009/04/23 07:37:24.9      49     78     47     93    104  32.5  29.3  33962  286.22 0855.52
2009/04/23 07:37:25.0      77     58     14     97     99  52.7   8.5  33962  286.24 0855.52
2009/04/23 07:37:25.1      82     69     10    108    109  49.6   5.4  33964  286.25 0855.52
2009/04/23 07:37:25.2      95     78     -4    124    125  50.5  -2.2  33964  286.25 0855.52
2009/04/23 07:37:25.3      97     67     12    118    119  55.4   5.9  33962  286.22 0855.52
2009/04/23 07:37:25.4      94     69     17    118    120  53.6   8.5  33964  286.27 0855.52
2009/04/23 07:37:25.5      98     76      6    125    126  52.2   2.9  33964  286.25 0855.52
2009/04/23 07:37:25.6      85     91      5    125    126  43.2   2.3  33966  286.30 0855.52
2009/04/23 07:37:25.7      78     98      0    126    127  38.3   0.2  33966  286.29 0855.52
2009/04/23 07:37:25.8      92     91    -16    130    132  45.2  -7.2  33966  286.29 0855.52
2009/04/23 07:37:25.9     103     92    -38    139    145  48.2 -15.5  33962  286.24 0855.52
2009/04/23 07:37:26.0     149     40      3    155    156  74.9   1.2  33962  286.22 0855.52
2009/04/23 07:37:26.1     140     66      1    155    156  64.8   0.5  33960  286.20 0855.52
2009/04/23 07:37:26.3     208     50      0    214    215  76.5   0.0  33956  286.12 0855.52
2009/04/23 07:37:26.4     146     44     52    153    162  73.1  18.9  33952  286.07 0855.52
2009/04/23 07:37:26.4     187     52     -7    195    196  74.3  -2.2  33958  286.17 0855.52
2009/04/23 07:37:26.6     170     71    -65    185    197  67.4 -19.4  33960  286.20 0855.52
2009/04/23 07:37:26.7     139     42     81    146    166  73.2  31.4  33958  286.17 0855.52
2009/04/23 07:37:26.8     162     41     30    168    171  75.8  10.1  33956  286.14 0855.52
2009/04/23 07:37:26.9     148     41     42    154    160  74.5  15.3  33956  286.12 0855.52
2009/04/23 07:37:27.0     108     69     72    129    147  57.5  31.4  33958  286.17 0855.52
2009/04/23 07:37:27.1      99     53     50    113    123  62.0  25.1  33958  286.15 0855.52
2009/04/23 07:37:27.2      90     54     83    106    134  58.9  41.7  33958  286.15 0855.52
2009/04/23 07:37:27.3     123     49     49    133    141  68.3  21.0  33962  286.24 0855.52
2009/04/23 07:37:27.4     151     76     85    170    190  63.1  28.2  33960  286.19 0855.52
2009/04/23 07:37:27.5     158     58     46    169    176  69.6  15.3  33962  286.24 0855.52
2009/04/23 07:37:27.6     204     91     83    224    238  66.0  21.0  33964  286.25 0855.52
2009/04/23 07:37:27.7     225     96     79    245    258  66.9  17.9  33964  286.26 0855.52
2009/04/23 07:37:27.8     195     64     61    206    215  71.8  16.6  33956  286.12 0855.52
2009/04/23 07:37:27.9     154     53     90    163    186  70.9  31.3  33958  286.15 0855.52
2009/04/23 07:37:28.0     145     11     47    146    154  85.6  18.1  33960  286.19 0855.52
2009/04/23 07:37:28.1     143     23     84    145    167  80.8  32.9  33960  286.19 0855.52
2009/04/23 07:37:28.2     116      0     78    117    140  90.4  37.0  33958  286.17 0855.52
2009/04/23 07:37:28.3     101    -77     45    128    136 127.3  19.4  33962  286.22 0855.52
2009/04/23 07:37:28.4     124    -72     29    144    148 120.2  11.6  33962  286.22 0855.52
2009/04/23 07:37:28.5      83    -52     36     99    105 122.0  20.0  33962  286.22 0855.52
2009/04/23 07:37:28.6      41    -64    -52     77     92 147.4 -41.4  33962  286.24 0855.52
2009/04/23 07:37:28.7      55    -80    -72     98    121 145.7 -44.5  33964  286.27 0855.52
2009/04/23 07:37:28.8      80    -88    -89    120    149 137.7 -44.1  33964  286.27 0855.52
2009/04/23 07:37:28.9     126    -82    -46    151    158 123.3 -17.0  33956  286.14 0855.52
2009/04/23 07:37:29.0     115    -83    -39    143    149 126.0 -15.5  33956  286.14 0855.52
2009/04/23 07:37:29.1     140    -77    -36    160    165 118.9 -12.9  33956  286.14 0855.52
2009/04/23 07:37:29.2     147    -71     16    164    165 115.8   5.7  33958  286.15 0855.52
2009/04/23 07:37:29.3     142    -30     34    146    150 101.9  13.2  33962  286.22 0855.52
2009/04/23 07:37:29.4     117     -8     18    118    120  93.9   9.0  33962  286.24 0855.52
2009/04/23 07:37:29.5     116      0      6    117    118  89.6   3.3  33958  286.15 0855.52
2009/04/23 07:37:29.6     124     -1     24    125    128  90.9  11.0  33954  286.10 0855.52
2009/04/23 07:37:29.7     127    -23     57    130    141 100.6  25.1  33954  286.08 0855.52
2009/04/23 07:37:29.8     112    -16     39    114    121  98.4  19.2  33954  286.08 0855.52
2009/04/23 07:37:29.9      61      8    -12     62     64  82.0 -11.3  33956  286.14 0855.52
2009/04/23 07:37:30.0      72    -13     17     74     77 100.6  13.2  33958  286.17 0855.52
2009/04/23 07:37:30.1      96    -28     46    101    110 106.4  26.6  33956  286.14 0855.52
2009/04/23 07:37:30.2     101    -22     57    104    118 102.4  31.3  33954  286.08 0855.52
2009/04/23 07:37:30.3     103    -65     53    122    133 122.4  25.1  33954  286.10 0855.52
2009/04/23 07:37:30.4      76    -50     36     92     98 123.3  22.5  33954  286.10 0855.52
2009/04/23 07:37:30.5      56    -83     42    101    109 145.7  23.1  33952  286.07 0855.52
2009/04/23 07:37:30.6      56   -124     37    137    143 155.5  15.3  33956  286.12 0855.52
2009/04/23 07:37:30.7      37   -139     64    145    158 164.8  25.1  33952  286.07 0855.52
2009/04/23 07:37:30.8      42   -161     56    167    177 165.1  18.6  33952  286.07 0855.52
2009/04/23 07:37:30.9      86    -80    -42    118    125 132.7 -24.4  33958  286.17 0855.52
2009/04/23 07:37:31.0     109    -85     27    139    142 127.8  11.1  33960  286.19 0855.52
2009/04/23 07:37:31.1     116   -123     34    170    174 136.6  11.6  33956  286.14 0855.52
2009/04/23 07:37:31.2     122   -117     54    170    179 133.8  17.7  33950  286.03 0855.52
2009/04/23 07:37:31.3     109   -109     37    155    160 134.9  13.7  33954  286.08 0855.52
2009/04/23 07:37:31.4      72   -155     74    172    187 155.1  24.9  33956  286.12 0855.52
2009/04/23 07:37:31.5      89   -144     90    170    192 148.1  30.3  33958  286.15 0855.52
2009/04/23 07:37:31.6      38   -142     77    148    166 164.9  29.3  33958  286.17 0855.52
2009/04/23 07:37:31.7      45   -151     90    158    181 163.1  32.4  33950  286.02 0855.52
2009/04/23 07:37:31.8      28   -140    100    143    174 168.4  38.0  33946  285.97 0855.52
2009/04/23 07:37:31.9      18   -105    106    107    150 170.2  50.0  33946  285.97 0855.52
2009/04/23 07:37:32.0      15    -75    108     77    132 168.4  61.1  33946  285.95 0855.52
2009/04/23 07:37:32.1      29    -77     82     83    116 159.5  50.5  33946  285.95 0855.52
2009/04/23 07:37:32.2      39    -64     65     76    100 148.4  44.8  33944  285.93 0855.52
2009/04/23 07:37:32.3      28    -83     74     88    114 161.3  43.8  33946  285.95 0855.52
2009/04/23 07:37:32.4      61    -96     76    114    137 147.4  37.0  33950  286.02 0855.52
2009/04/23 07:37:32.5      53    -86     70    102    123 148.4  37.6  33948  286.00 0855.52
2009/04/23 07:37:32.6      48    -82     59     96    112 149.7  35.0  33948  286.00 0855.52
2009/04/23 07:37:32.7      38    -83     64     92    112 155.5  38.6  33952  286.05 0855.52
2009/04/23 07:37:32.8      32    -78     76     85    114 157.3  46.9  33950  286.02 0855.52
2009/04/23 07:37:32.9      30    -91     82     96    126 161.7  45.4  33952  286.07 0855.52
2009/04/23 07:37:33.0       2    -93     83     94    125 178.6  45.9  33954  286.08 0855.52
2009/04/23 07:37:33.1      20    -45     74     50     89 156.4  63.2  33954  286.08 0855.52
2009/04/23 07:37:33.2       2    -34     62     35     71 175.6  68.8  33954  286.08 0855.52
2009/04/23 07:37:33.3      27    -17     59     32     67 122.4  68.9  33956  286.12 0855.52
2009/04/23 07:37:33.4      35    -22     51     42     66 122.5  56.4  33956  286.14 0855.52
2009/04/23 07:37:33.5      37    -24     55     45     71 123.3  56.4  33958  286.17 0855.52
2009/04/23 07:37:33.6      -7     32     43     33     54 346.6  58.5  33960  286.19 0855.52
2009/04/23 07:37:33.7      40     14     59     43     73  70.0  60.5  33958  286.15 0855.52
2009/04/23 07:37:33.8      35     39     68     53     86  41.4  58.5  33958  286.17 0855.52
2009/04/23 07:37:33.9      32     24     64     41     76  53.1  64.7  33964  286.25 0855.52
2009/04/23 07:37:34.0      -8     -8     52     12     53 223.2  86.9  33960  286.20 0855.52
2009/04/23 07:37:34.1      32     21     50     39     63  55.8  57.5  33964  286.27 0855.52
2009/04/23 07:37:34.2      75     24    103     79    129  72.3  58.5  33956  286.12 0855.52
2009/04/23 07:37:34.3      65     26     90     71    114  68.3  57.5  33958  286.17 0855.52
2009/04/23 07:37:34.4      -3      0     68      4     68 270.0  90.0  33958  286.17 0855.52
2009/04/23 07:37:34.5     -22     -3     41     23     47 260.3  67.7  33960  286.20 0855.52
2009/04/23 07:37:34.6     -40    -54     40     68     78 217.0  33.5  33960  286.19 0855.52
2009/04/23 07:37:34.7     -58    -27     32     65     72 244.8  27.3  33960  286.19 0855.52
2009/04/23 07:37:34.8     -37    -17     24     41     47 244.6  33.5  33960  286.20 0855.52
2009/04/23 07:37:34.9     -21      3     26     22     34 279.7  54.3  33956  286.14 0855.52
2009/04/23 07:37:35.0       0      2     28      3     28  18.5  90.0  33962  286.22 0855.52
2009/04/23 07:37:35.1     -21     13     18     26     31 302.4  37.6  33964  286.25 0855.52
2009/04/23 07:37:35.2     -28     42     30     51     59 325.7  34.4  33958  286.17 0855.52
2009/04/23 07:37:35.3     -49     69     47     85     97 324.4  31.9  33962  286.22 0855.52
2009/04/23 07:37:35.4     -63     38     45     74     86 301.5  34.4  33962  286.24 0855.52
2009/04/23 07:37:35.5     -70     -1     45     71     84 269.2  35.5  33962  286.22 0855.52
2009/04/23 07:37:35.6     -74    -55     31     93     99 233.1  18.4  33958  286.17 0855.52
2009/04/23 07:37:35.7     -44    -84     28     95    100 207.6  16.8  33958  286.17 0855.52
2009/04/23 07:37:35.8     -51   -128     82    138    160 201.8  33.5  33960  286.20 0855.52
2009/04/23 07:37:35.9       6   -133    102    134    168 177.3  41.2  33964  286.25 0855.52
2009/04/23 07:37:36.0      -3    -97    110     98    147 181.8  53.7  33966  286.29 0855.52
2009/04/23 07:37:36.1       4    -68    110     69    129 176.4  64.7  33964  286.27 0855.52
2009/04/23 07:37:36.2      13   -116    123    117    169 173.3  51.2  33960  286.20 0855.52
2009/04/23 07:37:36.3      37   -113     98    120    154 161.7  43.7  33960  286.19 0855.52
2009/04/23 07:37:36.4      -6   -145    113    146    184 182.6  41.7  33958  286.17 0855.51
2009/04/23 07:37:36.5       9   -161     97    162    188 176.6  34.0  33950  286.03 0855.51
2009/04/23 07:37:36.6      18   -180     72    181    194 174.2  22.8  33958  286.15 0855.51
2009/04/23 07:37:36.7      41   -168     73    173    187 166.2  24.1  33964  286.27 0855.51
2009/04/23 07:37:36.8      58   -145     76    157    174 158.2  27.4  33968  286.32 0855.51
2009/04/23 07:37:36.9      64   -116     72    133    151 151.0  31.3  33964  286.25 0855.51
2009/04/23 07:37:37.0      21   -105     87    108    138 168.5  43.3  33960  286.20 0855.51
2009/04/23 07:37:37.1      14    -75     89     77    117 169.3  54.3  33958  286.17 0855.51
2009/04/23 07:37:37.2      18    -71     98     74    122 165.7  59.0  33962  286.24 0855.51
2009/04/23 07:37:37.3       2    -50     56     51     75 177.3  52.2  33964  286.25 0855.51
2009/04/23 07:37:37.4      23    -23     56     33     65 135.0  66.8  33962  286.24 0855.51
2009/04/23 07:37:37.5      27     -1     61     28     67  92.6  74.0  33964  286.27 0855.51
2009/04/23 07:37:37.6      25    -22     66     34     74 131.3  70.8  33962  286.22 0855.51
2009/04/23 07:37:37.7      -3     -2     63      4     63 237.6  90.0  33966  286.29 0855.51
2009/04/23 07:37:37.8      -1    -30     60     31     67 182.6  70.8  33964  286.27 0855.51
2009/04/23 07:37:37.9     -16    -26     56     31     64 212.5  68.8  33966  286.29 0855.51
2009/04/23 07:37:38.0     -18      0     56     19     59 270.0  81.0  33964  286.25 0855.51
2009/04/23 07:37:38.1     -16     21     60     27     65 322.2  74.0  33964  286.25 0855.51
2009/04/23 07:37:38.2     -14     -9     46     17     49 237.6  81.2  33964  286.25 0855.51
2009/04/23 07:37:38.3     -11    -10     49     16     51 226.7  80.7  33966  286.29 0855.51
2009/04/23 07:37:38.4      37     -2     49     38     62  94.3  58.5  33962  286.24 0855.51
2009/04/23 07:37:38.5      58     -6     64     59     87  96.1  52.2  33964  286.27 0855.51
2009/04/23 07:37:38.6      72     -7     70     73    101  96.1  48.5  33962  286.22 0855.51
2009/04/23 07:37:38.7      63     -6     75     64     98  96.1  55.4  33962  286.24 0855.51
2009/04/23 07:37:38.8      49      0     75     50     90  90.0  63.6  33962  286.24 0855.51
2009/04/23 07:37:38.9      37     12     83     40     92  71.4  72.9  33966  286.29 0855.51
2009/04/23 07:37:39.0      95      0     85     96    128  90.0  45.9  33966  286.30 0855.51
2009/04/23 07:37:39.1      70      2     88     71    113  88.3  56.4  33966  286.30 0855.51
2009/04/23 07:37:39.2      30     30     80     43     90  45.0  69.8  33968  286.32 0855.51
2009/04/23 07:37:39.3      94      0     60     95    112  90.0  35.5  33968  286.32 0855.51
2009/04/23 07:37:39.4      49    -15     68     52     85 107.7  59.0  33968  286.32 0855.51
2009/04/23 07:37:39.5     104    -41     44    112    120 111.7  23.0  33962  286.24 0855.51
2009/04/23 07:37:39.6      88    -34     49     95    106 111.3  29.8  33964  286.25 0855.51
2009/04/23 07:37:39.7      99    -54     64    113    129 118.8  31.9  33962  286.22 0855.51
2009/04/23 07:37:39.8      77    -49     57     92    108 122.9  35.5  33960  286.20 0855.51
2009/04/23 07:37:39.9      94    -39     61    102    118 112.6  33.5  33964  286.25 0855.51
2009/04/23 07:37:40.0      94    -41     75    103    127 113.5  39.7  33962  286.24 0855.51
2009/04/23 07:37:40.1     101    -27     66    105    124 105.1  35.5  33962  286.24 0855.51
2009/04/23 07:37:40.2     102    -34     57    108    122 108.6  29.8  33962  286.24 0855.51
2009/04/23 07:37:40.3     110    -43     41    119    127 111.3  19.2  33962  286.22 0855.51
2009/04/23 07:37:40.4     117    -53     19    129    131 114.4   8.5  33962  286.22 0855.51
2009/04/23 07:37:40.5      65    -64     28     92     97 134.4  16.8  33964  286.25 0855.51
2009/04/23 07:37:40.6      78    -51     25     94     98 123.3  15.2  33966  286.29 0855.51
2009/04/23 07:37:40.7      92    -36     20    100    103 111.7  11.6  33962  286.24 0855.51
2009/04/23 07:37:40.8     156     11      0    157    158  85.6   0.2  33962  286.22 0855.51
2009/04/23 07:37:40.9     148     35      7    153    154  76.7   2.8  33956  286.14 0855.51
2009/04/23 07:37:41.0     153     -3     64    154    166  91.3  24.1  33958  286.17 0855.51
2009/04/23 07:37:41.1     138     32     44    142    149  76.8  17.3  33962  286.22 0855.51
2009/04/23 07:37:41.2     166     46     65    173    184  74.3  21.3  33960  286.19 0855.51
2009/04/23 07:37:41.3     109     90     39    142    148  50.5  15.3  33962  286.24 0855.51
2009/04/23 07:37:41.4      83     62     67    104    123  53.1  35.6  33960  286.19 0855.51
2009/04/23 07:37:41.5     177      6    129    178    219  87.9  39.7  33962  286.24 0855.51
2009/04/23 07:37:41.6     172     26     99    175    201  81.2  31.9  33962  286.22 0855.51
2009/04/23 07:37:41.7     153     11     90    154    178  85.6  32.9  33962  286.22 0855.51
2009/04/23 07:37:41.8     165     28     65    168    180  80.1  22.0  33960  286.20 0855.51
2009/04/23 07:37:41.9     140     -6     65    141    155  92.6  27.1  33962  286.24 0855.51
2009/04/23 07:37:42.0     136    -36     51    141    149 105.1  20.4  33962  286.24 0855.51
2009/04/23 07:37:42.1     139     -2     68    140    155  90.9  27.3  33962  286.22 0855.51
2009/04/23 07:37:42.2     101      6     85    102    132  86.5  43.8  33962  286.24 0855.51
2009/04/23 07:37:42.3      81      6     79     82    113  85.2  49.4  33962  286.24 0855.51
2009/04/23 07:37:42.4      83     19     55     86    102  77.2  35.5  33962  286.22 0855.50
2009/04/23 07:37:42.5     101      4     57    102    116  87.4  31.4  33962  286.22 0855.50
2009/04/23 07:37:42.6      91      1     47     92    103  89.2  28.7  33960  286.20 0855.50
2009/04/23 07:37:42.7      96      0     40     97    104  90.0  23.0  33962  286.24 0855.50
2009/04/23 07:37:42.8     123      0     23    124    127  90.0  10.6  33964  286.25 0855.50
2009/04/23 07:37:42.9     136     27     11    139    140  78.6   4.9  33958  286.17 0855.50
2009/04/23 07:37:43.0     112     37     69    119    137  71.4  32.9  33962  286.22 0855.50
2009/04/23 07:37:43.1      98     -4     54     99    112  92.6  31.3  33960  286.20 0855.50
2009/04/23 07:37:43.2      46     16     45     49     66  70.9  47.9  33958  286.15 0855.50
2009/04/23 07:37:43.3      54     80     40     97    104  34.3  23.0  33960  286.19 0855.50
2009/04/23 07:37:43.4      51     67     32     85     90  37.4  21.5  33962  286.24 0855.50
2009/04/23 07:37:43.5      64     46     19     80     83  54.0  13.7  33958  286.17 0855.50
2009/04/23 07:37:43.6      85     60     -1    105    106  54.5  -0.7  33962  286.24 0855.50
2009/04/23 07:37:43.7      93     73     18    119    121  51.8   9.0  33964  286.25 0855.50
2009/04/23 07:37:43.8      77     49     46     92    102  57.6  28.2  33962  286.24 0855.50
2009/04/23 07:37:43.9      67     67     37     95    101  45.0  22.5  33962  286.22 0855.50
2009/04/23 07:37:44.0      64     64     35     91     97  45.0  21.5  33960  286.19 0855.50
2009/04/23 07:37:44.1      37     46     48     60     76  38.7  43.7  33960  286.19 0855.50
2009/04/23 07:37:44.2      89     -4     45     90    100  93.0  28.2  33960  286.19 0855.50
2009/04/23 07:37:44.3     114    -39     42    121    129 109.1  19.4  33958  286.17 0855.50
2009/04/23 07:37:44.4     117    -47     22    127    130 112.2  10.1  33958  286.15 0855.50
2009/04/23 07:37:44.5     100    -39     37    108    115 111.7  18.9  33958  286.15 0855.50
2009/04/23 07:37:44.6      80    -32     41     87     96 112.2  27.2  33958  286.17 0855.50
2009/04/23 07:37:44.7      72    -14     57     74     93 101.5  42.2  33960  286.19 0855.50
2009/04/23 07:37:44.8      49     -6     75     50     90  97.0  63.6  33960  286.19 0855.50
2009/04/23 07:37:44.9       0     -3     66      4     66 189.7  90.0  33962  286.22 0855.50
2009/04/23 07:37:45.0      13    -17     54     22     58 142.2  78.2  33962  286.24 0855.50
2009/04/23 07:37:45.1      28     -3     55     29     62  97.9  69.8  33962  286.22 0855.50
2009/04/23 07:37:45.2      38    -24     49     46     67 122.4  52.1  33962  286.24 0855.50
2009/04/23 07:37:45.3      15    -45     43     48     64 160.8  47.9  33968  286.34 0855.50
2009/04/23 07:37:45.4      27    -64     65     70     95 157.3  47.9  33968  286.34 0855.50
2009/04/23 07:37:45.5      21    -56     61     61     86 159.1  50.1  33970  286.35 0855.50
2009/04/23 07:37:45.6      10    -45     58     47     74 166.6  56.4  33966  286.30 0855.50
2009/04/23 07:37:45.7      50    -41     75     65     99 129.5  54.8  33970  286.35 0855.50
2009/04/23 07:37:45.8      82    -38     90     91    127 115.3  50.0  33968  286.34 0855.50
2009/04/23 07:37:45.9     129     -9     87    130    156  94.4  36.5  33968  286.32 0855.50
2009/04/23 07:37:46.0     187     19    114    188    219  84.1  34.2  33964  286.27 0855.50
2009/04/23 07:37:46.1     201     19    128    202    239  84.3  35.5  33966  286.29 0855.50
2009/04/23 07:37:46.2     137     33    125    142    189  76.3  45.8  33966  286.29 0855.50
2009/04/23 07:37:46.3     127     -3    114    128    171  91.7  46.4  33964  286.27 0855.50
2009/04/23 07:37:46.4     113    -19     98    115    151  99.7  44.3  33966  286.29 0855.50
2009/04/23 07:37:46.5     101      0     79    102    129  90.0  41.7  33966  286.29 0855.50
2009/04/23 07:37:46.6     116    -15     82    117    142  97.5  38.0  33964  286.25 0855.50
2009/04/23 07:37:46.7      94     -9     69     95    117  95.7  39.7  33962  286.22 0855.50
2009/04/23 07:37:46.8       4    -54     51     55     75 175.5  47.9  33964  286.25 0855.50
2009/04/23 07:37:46.9      -3    -80     56     81     98 182.7  37.6  33966  286.30 0855.50
2009/04/23 07:37:47.0      15    -45     81     48     94 161.5  66.2  33964  286.25 0855.50
2009/04/23 07:37:47.1      44    -40     43     60     73 132.2  39.7  33962  286.24 0855.50
2009/04/23 07:37:47.2      28    -35     61     46     76 141.3  59.4  33962  286.24 0855.50
2009/04/23 07:37:47.3       0    -10     55     11     56 175.5  89.0  33964  286.27 0855.50
2009/04/23 07:37:47.4      40    -15     80     43     90 110.8  69.8  33962  286.22 0855.50
2009/04/23 07:37:47.5     -14     -4     45     15     47 251.6  81.0  33964  286.27 0855.50
2009/04/23 07:37:47.6      30    -39     78     50     92 143.0  64.6  33964  286.25 0855.50
2009/04/23 07:37:47.7       3    -46     70     47     84 175.5  63.6  33962  286.24 0855.50
2009/04/23 07:37:47.8      42    -95     91    105    138 155.9  45.8  33964  286.25 0855.50
2009/04/23 07:37:47.9      24    -74     80     78    111 161.7  50.1  33962  286.22 0855.50
2009/04/23 07:37:48.0      75     -5    114     76    137  94.4  63.2  33960  286.19 0855.50
2009/04/23 07:37:48.1      63      5    115     64    131  84.8  68.8  33960  286.20 0855.50
2009/04/23 07:37:48.2       7    -32     82     33     88 166.6  77.1  33964  286.27 0855.50
2009/04/23 07:37:48.3      49    -23     68     55     87 115.2  56.9  33964  286.25 0855.50
2009/04/23 07:37:48.4      21      0     62     22     65  90.0  81.2  33964  286.25 0855.50
2009/04/23 07:37:48.5      59    -25     96     65    115 113.5  63.6  33962  286.22 0855.50
2009/04/23 07:37:48.6       8     -3     82      9     82 115.3  90.0  33964  286.27 0855.50
2009/04/23 07:37:48.7      10      9     64     14     65  46.7  89.0  33962  286.24 0855.50
2009/04/23 07:37:48.8       0     -5     81      6     81 182.7  90.0  33962  286.24 0855.50
2009/04/23 07:37:48.9      14     17     82     23     85  39.6  83.9  33964  286.25 0855.50
2009/04/23 07:37:49.0     -15      7     74     17     75 295.3  89.0  33964  286.27 0855.50
2009/04/23 07:37:49.1      -2    -35     91     36     97 184.5  78.2  33964  286.25 0855.50
2009/04/23 07:37:49.2     -24    -41     85     48     97 210.7  67.7  33958  286.17 0855.50
2009/04/23 07:37:49.3     -74    -44     58     87    104 239.3  36.5  33966  286.29 0855.50
2009/04/23 07:37:49.4     -95    -42     20    105    108 246.0  11.1  33966  286.30 0855.50
2009/04/23 07:37:49.5    -102    -22     -4    105    106 257.6  -2.2  33966  286.30 0855.50
2009/04/23 07:37:49.7     -89    -29      8     94     95 251.6   5.4  33964  286.27 0855.50
2009/04/23 07:37:49.7     -87    -15     -1     89     90 260.3  -0.7  33968  286.32 0855.50
2009/04/23 07:37:49.8     -85     -7      4     86     87 265.2   2.9  33968  286.34 0855.50
2009/04/23 07:37:49.9     -81    -14     -3     83     84 259.9  -2.2  33970  286.35 0855.50
2009/04/23 07:37:50.0     -57    -46    -21     74     76 231.4 -20.7  33968  286.34 0855.50
2009/04/23 07:37:50.1     -45    -54    -24     71     74 219.7 -23.6  33968  286.32 0855.50
2009/04/23 07:37:50.2     -47    -50    -16     69     71 223.3 -13.4  33968  286.32 0855.50
2009/04/23 07:37:50.3     -56    -59    -47     82     94 223.2 -37.3  33970  286.37 0855.50
2009/04/23 07:37:50.4     -71    -71    -38    101    107 224.7 -25.4  33978  286.49 0855.51
2009/04/23 07:37:50.5     -73    -43    -32     86     91 239.3 -25.4  33974  286.42 0855.51
2009/04/23 07:37:50.6     -78    -28    -47     84     96 250.0 -36.3  33976  286.47 0855.51
2009/04/23 07:37:50.7     -90     26    -65     94    114 286.4 -42.0  33976  286.46 0855.51
2009/04/23 07:37:50.8     -89     53    -74    104    127 301.1 -43.9  33972  286.39 0855.51
2009/04/23 07:37:50.9     -67     62    -59     92    109 313.1 -40.0  33968  286.32 0855.51
2009/04/23 07:37:51.0     -33      2    -73     34     80 274.4 -77.9  33970  286.35 0855.51
2009/04/23 07:37:51.1      -8    -13    -62     16     64 212.5 -89.3  33968  286.34 0855.51
2009/04/23 07:37:51.2     -58      0    -50     59     77 270.0 -48.2  33968  286.32 0855.51
2009/04/23 07:37:51.3     -32      2    -61     33     69 274.4 -73.3  33970  286.35 0855.51
2009/04/23 07:37:51.4     -42      1    -74     43     85 271.7 -71.6  33968  286.34 0855.51
2009/04/23 07:37:51.5     -61    -15    -63     63     89 255.8 -54.5  33968  286.34 0855.51
2009/04/23 07:37:51.6     -30      0    -64     31     71 270.0 -77.2  33968  286.32 0855.51
2009/04/23 07:37:51.7     -43    -13    -63     46     78 252.3 -64.9  33966  286.29 0855.51
2009/04/23 07:37:51.8     -37     11    -49     39     62 286.8 -60.8  33964  286.27 0855.51
2009/04/23 07:37:51.9     -20     17    -21     27     34 309.5 -48.1  33962  286.22 0855.51
2009/04/23 07:37:52.0      -3      0     -4      4      5 270.0 -54.5  33962  286.24 0855.51
2009/04/23 07:37:52.1      10    -18      3     21     22 149.3   9.0  33966  286.29 0855.51
2009/04/23 07:37:52.2      12    -14     13     19     23 138.6  39.7  33962  286.24 0855.51
2009/04/23 07:37:52.3      30    -19     16     36     39 122.5  25.1  33964  286.27 0855.51
2009/04/23 07:37:52.4      16    -13     20     21     29 129.5  52.0  33966  286.29 0855.51
2009/04/23 07:37:52.5      27    -17     32     32     45 122.4  50.1  33964  286.27 0855.51
2009/04/23 07:37:52.6      32    -27     32     43     53 130.4  40.7  33964  286.27 0855.51
2009/04/23 07:37:52.7      41    -15     32     44     54 110.0  39.7  33968  286.32 0855.51
2009/04/23 07:37:52.8      42    -13     36     45     57 107.7  43.7  33966  286.29 0855.51
2009/04/23 07:37:53.0      54     -6     33     55     64  97.0  35.5  33968  286.32 0855.51
2009/04/23 07:37:53.1      45     21     37     50     62  64.6  39.7  33966  286.29 0855.51
2009/04/23 07:37:53.2      43     53     34     69     76  38.7  27.3  33966  286.29 0855.51
2009/04/23 07:37:53.3      53     43     44     69     81  50.5  35.5  33966  286.29 0855.51
2009/04/23 07:37:53.4      65     26     44     71     83  68.3  34.4  33966  286.29 0855.51
2009/04/23 07:37:53.5      57     15     50     60     78  74.9  44.8  33968  286.32 0855.51
2009/04/23 07:37:53.6      49     21     49     54     72  66.5  47.9  33968  286.32 0855.51
2009/04/23 07:37:53.7      52     63     13     82     84  39.6   9.5  33968  286.32 0855.51
2009/04/23 07:37:53.8      83     65     13    106    107  51.8   7.5  33964  286.27 0855.51
2009/04/23 07:37:53.9      83     83     12    118    119  45.1   5.9  33964  286.27 0855.51
2009/04/23 07:37:54.0      67    101      5    122    123  33.8   2.3  33964  286.27 0855.51
2009/04/23 07:37:54.1      25     82      1     86     87  17.4   0.8  33966  286.29 0855.51
2009/04/23 07:37:54.2      -1     67     60     68     90 359.1  45.8  33966  286.30 0855.51
2009/04/23 07:37:54.3      76     15     74     78    107  78.6  48.5  33962  286.24 0855.51
2009/04/23 07:37:54.4      31     31     57     45     72  45.0  56.4  33962  286.24 0855.51
2009/04/23 07:37:54.5      17     29     58     34     67  30.7  66.8  33962  286.22 0855.51
2009/04/23 07:37:54.6      43     18     55     47     72  66.5  55.4  33962  286.22 0855.51
2009/04/23 07:37:54.7      28     18     55     34     64  57.5  64.7  33964  286.27 0855.51
2009/04/23 07:37:54.8       3     14     31     15     34  15.1  72.9  33962  286.24 0855.51
2009/04/23 07:37:54.9      19     10     47     22     51  62.9  73.1  33960  286.20 0855.51
2009/04/23 07:37:55.0      31     31     51     45     68  45.1  52.2  33958  286.15 0855.51
2009/04/23 07:37:55.1      38     46     47     61     77  39.7  42.7  33960  286.19 0855.51
2009/04/23 07:37:55.2      57     49     43     76     87  49.6  32.4  33964  286.27 0855.51
2009/04/23 07:37:55.3      97     48     41    109    116  63.4  21.0  33960  286.20 0855.51
2009/04/23 07:37:55.4      65     23     80     70    106  70.0  53.7  33958  286.17 0855.51
2009/04/23 07:37:55.5      66     26     42     72     83  68.3  32.9  33958  286.15 0855.52
2009/04/23 07:37:55.6      19     19     40     27     48  45.1  63.6  33956  286.14 0855.52
2009/04/23 07:37:55.7      36     20     51     42     66  61.1  56.4  33958  286.15 0855.52
2009/04/23 07:37:55.8      23     15     54     28     60  57.5  69.8  33960  286.19 0855.52
2009/04/23 07:37:55.9      39      0     39     40     55  90.0  51.1  33962  286.24 0855.52
2009/04/23 07:37:56.0      19     19     19     27     33  45.0  39.7  33960  286.20 0855.52
2009/04/23 07:37:56.1       3     14     24     15     28  15.1  64.7  33958  286.15 0855.52
2009/04/23 07:37:56.2      -9     30     38     32     49 343.1  56.3  33956  286.12 0855.52
2009/04/23 07:37:56.3       7     22     56     24     60  18.3  76.1  33958  286.17 0855.52
2009/04/23 07:37:56.4      35     15     55     39     67  66.5  60.6  33954  286.10 0855.52
2009/04/23 07:37:56.5      77     46     42     90     99  59.3  27.1  33958  286.17 0855.52
2009/04/23 07:37:56.6      52     -3     57     53     77  93.5  52.1  33958  286.17 0855.52
2009/04/23 07:37:56.7      85     18     30     88     94  77.6  18.9  33960  286.20 0855.52
2009/04/23 07:37:56.8      75     24     49     79     92  72.3  35.5  33960  286.19 0855.52
2009/04/23 07:37:56.9      75     30     69     81    106  67.8  44.8  33958  286.15 0855.52
2009/04/23 07:37:57.0      87     22     70     90    114  75.4  42.2  33960  286.19 0855.52
2009/04/23 07:37:57.1      91      7     68     92    114  85.2  39.7  33958  286.17 0855.52
2009/04/23 07:37:57.2      67     25     50     72     87  69.2  38.0  33960  286.20 0855.52
2009/04/23 07:37:57.3      99     39     42    107    114  68.2  22.0  33962  286.22 0855.52
2009/04/23 07:37:57.4      75     52    -24     92     96  55.4 -14.5  33960  286.19 0855.52
2009/04/23 07:37:57.5      82     72    -30    110    115  48.7 -15.5  33962  286.22 0855.52
2009/04/23 07:37:57.6     101     84    -19    132    134  50.4  -8.2  33966  286.30 0855.52
2009/04/23 07:37:57.7     140     70    -18    157    159  63.4  -6.7  33964  286.27 0855.52
2009/04/23 07:37:57.8     126     76      9    148    149  58.9   3.8  33968  286.32 0855.52
2009/04/23 07:37:57.9     165     63     -6    177    178  68.9  -2.1  33970  286.35 0855.52
2009/04/23 07:37:58.0     157     94    -50    183    190  59.1 -15.4  33976  286.46 0855.52
2009/04/23 07:37:58.1     163    102    -44    193    198  57.8 -12.9  33976  286.46 0855.52
2009/04/23 07:37:58.2     162    118    -33    201    204  54.0  -9.3  33976  286.46 0855.52
2009/04/23 07:37:58.3     139    110      7    178    179  51.8   2.5  33970  286.35 0855.52
2009/04/23 07:37:58.4     173     96    -40    199    203  60.9 -11.5  33976  286.46 0855.52
2009/04/23 07:37:58.5     171    102    -25    200    202  59.3  -7.3  33972  286.41 0855.52
2009/04/23 07:37:58.6     178    102    -31    206    209  60.2  -8.6  33974  286.42 0855.52
2009/04/23 07:37:58.7     201     87     -6    220    221  66.5  -1.8  33976  286.47 0855.52
2009/04/23 07:37:58.8     207     78    -14    222    223  69.4  -3.7  33976  286.47 0855.52
2009/04/23 07:37:58.9     200     79    -18    216    217  68.3  -4.9  33972  286.39 0855.52
2009/04/23 07:37:59.0     175     30     38    178    183  80.3  12.2  33972  286.41 0855.52
2009/04/23 07:37:59.1     120     71     48    140    149  59.3  18.9  33968  286.32 0855.52
2009/04/23 07:37:59.2     126     53    -32    137    141  66.9 -13.3  33972  286.41 0855.52
2009/04/23 07:37:59.3      98     39    -37    106    112  68.3 -23.3  33972  286.39 0855.52
2009/04/23 07:37:59.4      31     99    -65    104    122  17.4 -39.4  33974  286.44 0855.52
2009/04/23 07:37:59.5      32     87    -28     93     97  20.5 -22.3  33972  286.41 0855.53
2009/04/23 07:37:59.6      31     93    -34     99    105  18.7 -19.1  33976  286.46 0855.53
2009/04/23 07:37:59.7      75    118    -15    140    141  32.5  -6.2  33972  286.41 0855.53
2009/04/23 07:37:59.8      64    102     19    121    123  32.5   9.0  33972  286.39 0855.53
2009/04/23 07:37:59.9      89    123     49    152    160  36.0  17.9  33968  286.34 0855.53
2009/04/23 07:38:00.0     106     58    104    121    159  61.2  45.1  33968  286.34 0855.53
2009/04/23 07:38:00.1     104    104     52    148    157  45.0  19.4  33966  286.30 0855.53
2009/04/23 07:38:00.2     114    107      1    157    158  46.9   0.5  33968  286.32 0855.53
2009/04/23 07:38:00.3     113     94    -17    148    150  50.4  -6.7  33972  286.39 0855.53
2009/04/23 07:38:00.4     165     83     14    185    186  63.1   4.4  33968  286.34 0855.53
2009/04/23 07:38:00.5     210     81    -12    226    227  68.9  -3.1  33966  286.29 0855.53
2009/04/23 07:38:00.6     223     88     -1    240    241  68.5  -0.3  33966  286.30 0855.53
2009/04/23 07:38:00.7     233     63     -9    242    243  74.9  -2.2  33974  286.43 0855.53
2009/04/23 07:38:00.8     196     44     -4    202    203  77.2  -1.3  33970  286.37 0855.53
2009/04/23 07:38:00.9     223     22     25    225    227  84.3   6.5  33968  286.34 0855.53
2009/04/23 07:38:01.0     218     32     18    221    222  81.6   4.9  33968  286.34 0855.53
2009/04/23 07:38:01.1     185    -35     28    189    192 100.8   8.5  33970  286.37 0855.53
2009/04/23 07:38:01.2     186     -4     22    187    189  91.3   6.7  33966  286.29 0855.53
2009/04/23 07:38:01.3     228     17     18    229    230  85.6   4.6  33966  286.30 0855.53
2009/04/23 07:38:01.4     201    -45     56    207    215 102.8  15.3  33968  286.32 0855.53
2009/04/23 07:38:01.5     181    -15     40    182    187  95.0  12.4  33968  286.34 0855.53
2009/04/23 07:38:01.6     194      0     60    195    205  90.0  17.3  33968  286.34 0855.53
2009/04/23 07:38:01.7     223     45     32    228    231  78.5   8.0  33968  286.32 0855.53
2009/04/23 07:38:01.8     251    -14     49    252    257  93.3  11.1  33962  286.21 0855.53
2009/04/23 07:38:01.9     196     10     83    197    213  87.0  24.1  33966  286.30 0855.53
2009/04/23 07:38:02.0     178    -39     39    183    188 102.6  12.2  33966  286.29 0855.53
2009/04/23 07:38:02.1     197    -58     16    206    207 106.4   4.6  33966  286.29 0855.53
2009/04/23 07:38:02.2     245    -20     49    246    251  94.8  11.4  33974  286.42 0855.53
2009/04/23 07:38:02.3     214      0     46    215    220  90.0  12.2  33972  286.41 0855.53
2009/04/23 07:38:02.4     197     42     43    202    207  77.8  12.0  33972  286.39 0855.53
2009/04/23 07:38:02.5     210     47     40    216    220  77.4  10.6  33972  286.39 0855.53
2009/04/23 07:38:02.6     179     52     57    187    196  73.6  17.1  33970  286.37 0855.53
2009/04/23 07:38:02.7     158     41     71    164    178  75.2  24.6  33972  286.41 0855.53
2009/04/23 07:38:02.8     155     43     37    161    166  74.5  13.2  33972  286.39 0855.53
2009/04/23 07:38:02.9     158     38     33    163    167  76.3  11.4  33970  286.35 0855.53
2009/04/23 07:38:03.0     136     47     50    144    153  70.9  19.4  33974  286.42 0855.53
2009/04/23 07:38:03.1     173      7     75    174    189  87.6  24.9  33968  286.32 0855.53
2009/04/23 07:38:03.2     113    -30     77    118    140 105.1  36.0  33968  286.32 0855.53
2009/04/23 07:38:03.3     100    -72     24    124    127 126.0  11.1  33968  286.32 0855.53
2009/04/23 07:38:03.4     106    -59     49    122    131 119.3  23.0  33966  286.29 0855.53
2009/04/23 07:38:03.5     125    -74     28    146    149 120.6  11.0  33966  286.30 0855.53
2009/04/23 07:38:03.6     118    -75      0    140    141 122.5   0.2  33968  286.32 0855.53
2009/04/23 07:38:03.7     117    -64     15    134    135 118.9   6.5  33966  286.29 0855.53
2009/04/23 07:38:03.8     126    -37      6    132    133 106.4   2.8  33966  286.30 0855.53
2009/04/23 07:38:03.9     148    -24     23    150    152  99.2   9.0  33968  286.34 0855.53
2009/04/23 07:38:04.0     138      7      7    139    140  87.0   2.9  33970  286.35 0855.53
2009/04/23 07:38:04.1     130     36     21    135    137  74.5   9.0  33972  286.41 0855.53
2009/04/23 07:38:04.2     121     21     30    123    127  79.9  13.7  33974  286.44 0855.53
2009/04/23 07:38:04.3     105     37     41    112    119  70.5  20.9  33974  286.42 0855.53
2009/04/23 07:38:04.4     104     51     23    117    120  63.8  11.1  33972  286.41 0855.53
2009/04/23 07:38:04.5      84      0     30     85     91  90.0  19.4  33974  286.42 0855.53
2009/04/23 07:38:04.6      73    -10     24     74     79  97.9  18.4  33970  286.37 0855.53
2009/04/23 07:38:04.7      71    -50     39     87     95 125.1  26.2  33962  286.24 0855.53
2009/04/23 07:38:04.8      56    -41     32     70     76 126.0  27.1  33968  286.32 0855.53
2009/04/23 07:38:04.9      45    -55     25     72     77 140.4  19.2  33968  286.32 0855.53
2009/04/23 07:38:05.0      62    -51     27     81     86 129.5  18.9  33966  286.30 0855.53
2009/04/23 07:38:05.1      62    -12      9     64     65 101.4   8.0  33966  286.30 0855.53
2009/04/23 07:38:05.2      69     -4     13     70     72  93.5  11.1  33970  286.37 0855.53
2009/04/23 07:38:05.3      73     -5     31     74     80  94.4  24.1  33972  286.41 0855.53
2009/04/23 07:38:05.4      90     -6     26     91     95  94.4  16.3  33970  286.37 0855.53
2009/04/23 07:38:05.5      84    -24     32     88     93 105.9  20.0  33966  286.30 0855.53
2009/04/23 07:38:05.6      77    -30     36     83     90 111.7  25.1  33964  286.25 0855.53
2009/04/23 07:38:05.7      56    -27     24     63     67 116.2  21.0  33962  286.22 0855.53
2009/04/23 07:38:05.8      50    -24     29     56     63 115.4  29.3  33964  286.25 0855.53
2009/04/23 07:38:05.9      57     -4     41     58     71  94.3  39.5  33968  286.32 0855.53
2009/04/23 07:38:06.0      49      6     48     50     69  83.0  50.0  33970  286.35 0855.53
2009/04/23 07:38:06.1      34     13     49     37     61  68.3  59.4  33968  286.34 0855.53
2009/04/23 07:38:06.2       8    -30     35     32     47 164.9  52.2  33970  286.35 0855.53
2009/04/23 07:38:06.3     -16    -16     37     24     44 225.0  63.6  33964  286.25 0855.53
2009/04/23 07:38:06.4     -40    -33     48     53     71 230.5  47.9  33958  286.17 0855.53
2009/04/23 07:38:06.5     -31    -49     26     59     64 212.6  24.1  33960  286.19 0855.53
2009/04/23 07:38:06.6     -43    -56     41     71     81 217.8  32.9  33958  286.17 0855.53
2009/04/23 07:38:06.7     -43    -76     46     88     99 209.4  30.3  33958  286.15 0855.53
2009/04/23 07:38:06.9     -14    -70     28     72     77 191.6  22.0  33958  286.17 0855.53
2009/04/23 07:38:07.0     -34    -16     40     38     55 244.6  50.1  33956  286.14 0855.53
2009/04/23 07:38:07.1     -37     12     49     40     63 288.6  56.4  33956  286.14 0855.53
2009/04/23 07:38:07.2     -29     16     45     34     56 298.9  59.4  33956  286.12 0855.53
2009/04/23 07:38:07.3     -27     -2     50     28     57 263.9  67.7  33960  286.20 0855.53
2009/04/23 07:38:07.4     -26     -4     67     27     72 260.3  77.1  33962  286.24 0855.53
2009/04/23 07:38:07.5     -30     29     56     43     70 314.0  58.5  33968  286.32 0855.53
2009/04/23 07:38:07.6     -14     46     39     49     62 342.2  43.7  33972  286.41 0855.53
2009/04/23 07:38:07.7     -10     50     28     52     59 348.5  31.3  33972  286.39 0855.53
2009/04/23 07:38:07.8     -21     32     38     39     54 325.7  51.1  33968  286.32 0855.53
2009/04/23 07:38:07.9     -28     45     40     54     67 328.4  39.7  33970  286.35 0855.53
2009/04/23 07:38:08.0     -35     31     38     47     60 311.3  43.7  33964  286.27 0855.53
2009/04/23 07:38:08.1     -54     44     32     70     76 309.5  27.1  33964  286.27 0855.53
2009/04/23 07:38:08.2     -27     40     17     49     53 325.7  19.4  33966  286.29 0855.53
2009/04/23 07:38:08.3     -16     16     17     23     28 315.0  41.7  33966  286.30 0855.53
2009/04/23 07:38:08.4      13    -16     32     21     38 140.4  64.6  33968  286.32 0855.53
2009/04/23 07:38:08.5      -1    -22     46     23     51 182.7  72.8  33964  286.27 0855.53
2009/04/23 07:38:08.6       3    -31     58     32     66 173.8  68.8  33962  286.22 0855.53
2009/04/23 07:38:08.7    -100   -200    -48    224    230 206.7 -12.2  34014  287.10 0855.53
2009/04/23 07:38:08.8     -12    -37     26     40     47 198.3  35.6  33960  286.19 0855.53
2009/04/23 07:38:08.9     -14    -46     19     49     52 197.8  22.0  33958  286.17 0855.53
2009/04/23 07:38:09.0       0    -21     32     22     38 180.9  62.6  33958  286.17 0855.53
2009/04/23 07:38:09.1      -3    -29     40     30     50 186.2  58.5  33956  286.14 0855.53
2009/04/23 07:38:09.2      -7    -38     57     39     69 191.6  62.6  33954  286.08 0855.53
2009/04/23 07:38:09.3     -16    -41     56     45     71 201.8  56.4  33958  286.15 0855.53
2009/04/23 07:38:09.4     -22    -47     51     53     73 205.4  50.0  33958  286.15 0855.53
2009/04/23 07:38:09.5     -34    -50     47     61     77 214.3  42.7  33962  286.22 0855.53
2009/04/23 07:38:09.6     -43    -64     48     78     91 214.3  35.0  33960  286.19 0855.53
2009/04/23 07:38:09.7     -46    -63     49     79     92 216.1  35.5  33960  286.19 0855.53
2009/04/23 07:38:09.9     -61    -47     43     78     89 232.2  31.4  33958  286.15 0855.53
2009/04/23 07:38:10.0     -54    -23     55     59     80 246.5  47.9  33956  286.12 0855.53
2009/04/23 07:38:10.1     -65    -36     54     75     92 241.2  39.7  33960  286.19 0855.53
2009/04/23 07:38:10.2     -67    -40     46     79     91 239.3  32.9  33962  286.24 0855.53
2009/04/23 07:38:10.3     -67    -23     45     71     84 250.9  35.5  33962  286.24 0855.53
2009/04/23 07:38:10.4     -49    -16     46     52     69 251.8  46.9  33964  286.25 0855.53
2009/04/23 07:38:10.5     -19    -10     55     22     59 241.1  77.1  33966  286.30 0855.53
2009/04/23 07:38:10.6     -27      0     33     28     43 270.0  54.3  33964  286.27 0855.53
2009/04/23 07:38:10.7     -17    -18     28     25     37 223.4  52.2  33964  286.25 0855.53
2009/04/23 07:38:10.8     -18    -30     23     36     42 210.7  35.5  33960  286.19 0855.53
2009/04/23 07:38:10.9     -10    -37     24     39     45 195.1  35.5  33958  286.17 0855.53
2009/04/23 07:38:11.0      -4    -30     28     31     41 188.0  46.9  33958  286.15 0855.53
2009/04/23 07:38:11.1      -9     12     16     16     22 323.9  50.1  33962  286.22 0855.53
2009/04/23 07:38:11.2      -2     35    -10     36     37 355.5 -21.7  33962  286.24 0855.53
2009/04/23 07:38:11.3     -20     70     -6     73     74 344.0  -5.2  33964  286.25 0855.53
2009/04/23 07:38:11.4     -32     80     -2     87     88 338.2  -1.8  33968  286.32 0855.53
2009/04/23 07:38:11.5     -72     67      5     99    100 313.1   2.9  33972  286.39 0855.53
2009/04/23 07:38:11.6     -77     71     -4    105    106 312.7  -2.6  33974  286.42 0855.53
2009/04/23 07:38:11.7     -88     73    -16    115    117 309.6  -8.2  33976  286.46 0855.53
2009/04/23 07:38:11.8     -77     77    -22    109    112 315.0 -11.3  33976  286.47 0855.53
2009/04/23 07:38:11.9     -87     77    -15    117    118 311.8  -7.3  33976  286.47 0855.53
2009/04/23 07:38:12.0     -72     87    -14    114    115 320.3  -7.3  33976  286.47 0855.53
2009/04/23 07:38:12.1     -63     87    -21    108    111 324.0 -11.3  33976  286.47 0855.53
2009/04/23 07:38:12.2     -45     86    -16     98    100 332.4  -9.3  33978  286.49 0855.53
2009/04/23 07:38:12.3     -30     86     -7     92     93 340.4  -4.6  33978  286.51 0855.53
2009/04/23 07:38:12.4     -34     58    -17     68     71 329.3 -14.5  33976  286.46 0855.53
2009/04/23 07:38:12.5     -37     55    -20     67     70 325.7 -16.6  33976  286.47 0855.53
2009/04/23 07:38:12.6     -32     27    -19     43     47 310.4 -29.5  33974  286.42 0855.53
2009/04/23 07:38:12.7     -38     26    -31     47     56 304.2 -40.0  33976  286.46 0855.53
2009/04/23 07:38:12.8     -45     15    -37     48     60 288.4 -46.1  33974  286.44 0855.53
2009/04/23 07:38:12.9     -36     14    -42     39     57 291.7 -55.6  33974  286.44 0855.53
2009/04/23 07:38:13.0       7     -6    -59     10     59 129.5 -90.0  33972  286.39 0855.53
2009/04/23 07:38:13.1      -2    -25    -41     26     48 184.5 -69.1  33972  286.39 0855.53
2009/04/23 07:38:13.2      17     -1    -46     18     49  94.4 -82.6  33970  286.35 0855.53
2009/04/23 07:38:13.3      17      0    -35     18     39  90.0 -77.2  33970  286.35 0855.53
2009/04/23 07:38:13.4      12     -8    -25     15     29 122.4 -69.1  33970  286.35 0855.53
2009/04/23 07:38:13.5      18    -51     -2     55     56 160.8  -2.2  33968  286.34 0855.52
2009/04/23 07:38:13.6      10    -76     -1     77     78 172.0  -1.3  33972  286.41 0855.52
2009/04/23 07:38:13.7      27    -86     33     91     96 162.2  20.0  33968  286.32 0855.52
2009/04/23 07:38:13.8       2    -81     34     82     88 178.2  23.6  33962  286.24 0855.52
2009/04/23 07:38:13.9     -33    -98     28    104    108 198.7  15.2  33964  286.27 0855.52
2009/04/23 07:38:14.0     -26   -116     24    119    122 192.9  11.6  33962  286.24 0855.52
2009/04/23 07:38:14.1     -53   -112    -19    124    126 205.4  -8.8  33968  286.34 0855.52
2009/04/23 07:38:14.2     -89    -98    -39    133    138 222.3 -21.2  33970  286.37 0855.52
2009/04/23 07:38:14.3    -107    -72    -48    130    138 235.9 -25.4  33972  286.41 0855.52
2009/04/23 07:38:14.4     -67    -49    -41     84     93 234.0 -31.7  33974  286.42 0855.52
2009/04/23 07:38:14.5     -23    -46    -30     52     60 207.2 -36.8  33972  286.41 0855.52
2009/04/23 07:38:14.6     -10    -80     -7     81     82 187.6  -5.2  33966  286.29 0855.52
2009/04/23 07:38:14.7     -20    -66    -16     70     72 196.9 -13.4  33966  286.29 0855.52
2009/04/23 07:38:14.8       0    -63    -32     64     71 179.1 -31.7  33966  286.29 0855.52
2009/04/23 07:38:14.9      -6    -40    -27     41     49 188.9 -40.9  33968  286.34 0855.52
2009/04/23 07:38:15.0      -7    -41    -25     42     48 190.7 -38.8  33968  286.32 0855.52
2009/04/23 07:38:15.1     -18    -40    -16     45     48 204.5 -19.7  33966  286.30 0855.52
2009/04/23 07:38:15.2     -26    -79     33     84     90 198.5  22.0  33966  286.30 0855.52
2009/04/23 07:38:15.3     -34   -146     23    150    152 193.3   8.9  33964  286.25 0855.52
2009/04/23 07:38:15.4     -26   -139      3    142    143 190.7   1.2  33960  286.19 0855.52
2009/04/23 07:38:15.5     -39   -142     16    148    149 195.6   6.5  33958  286.17 0855.52
2009/04/23 07:38:15.6     -57   -131     12    143    144 203.6   5.0  33946  285.97 0855.52
2009/04/23 07:38:15.7     -58   -133     18    146    148 203.6   7.1  33946  285.97 0855.52
2009/04/23 07:38:15.8     -41   -123     30    130    134 198.7  13.2  33948  286.00 0855.52
2009/04/23 07:38:15.9     -56   -116     11    129    130 205.9   5.0  33954  286.08 0855.52
2009/04/23 07:38:16.0     -46   -130      7    139    140 199.6   2.9  33958  286.17 0855.52
2009/04/23 07:38:16.1     -35   -132     -3    137    138 195.1  -1.3  33964  286.25 0855.52
2009/04/23 07:38:16.2     -26   -138     -9    141    142 190.7  -3.7  33964  286.27 0855.52
2009/04/23 07:38:16.3     -43   -103     -1    112    113 202.7  -0.7  33966  286.30 0855.52
2009/04/23 07:38:16.4     -38   -112    -23    119    122 198.7 -10.9  33966  286.29 0855.52
2009/04/23 07:38:16.5     -32   -103    -21    109    112 197.4 -10.9  33966  286.29 0855.52
2009/04/23 07:38:16.6     -31   -102    -23    107    110 196.9 -12.4  33966  286.29 0855.52
2009/04/23 07:38:16.7     -16   -124     -3    126    127 187.6  -1.8  33964  286.27 0855.52
2009/04/23 07:38:16.8      -5   -120    -11    121    122 182.7  -5.2  33962  286.22 0855.52
2009/04/23 07:38:16.9       9   -128      1    129    130 176.0   0.8  33958  286.15 0855.52
2009/04/23 07:38:17.0       3   -116    -13    117    118 178.2  -6.7  33960  286.20 0855.52
2009/04/23 07:38:17.1     -16   -132      4    134    135 187.1   1.8  33964  286.25 0855.52
2009/04/23 07:38:17.2     -11   -148     -5    149    150 184.5  -2.2  33968  286.32 0855.52
2009/04/23 07:38:17.3     -10   -139    -51    140    149 184.5 -25.3  33974  286.42 0855.52
2009/04/23 07:38:17.4     -47   -117    -78    127    149 201.8 -39.4  33976  286.47 0855.52
2009/04/23 07:38:17.5     -48   -107    -92    118    149 204.1 -46.6  33976  286.46 0855.52
2009/04/23 07:38:17.6     -57    -84    -96    102    140 214.3 -52.4  33970  286.37 0855.52
2009/04/23 07:38:17.7     -41    -86    -80     96    124 205.4 -48.2  33972  286.39 0855.52
2009/04/23 07:38:17.8     -45   -109    -41    119    125 202.7 -23.3  33968  286.34 0855.52
2009/04/23 07:38:17.9     -76    -71    -49    105    115 226.9 -31.5  33970  286.35 0855.52
2009/04/23 07:38:18.0     -55    -58    -56     81     98 223.4 -42.0  33968  286.34 0855.52
2009/04/23 07:38:18.1     -28   -107    -43    111    119 194.7 -26.4  33966  286.29 0855.52
2009/04/23 07:38:18.2       8   -102    -64    103    121 175.5 -39.4  33968  286.32 0855.52
2009/04/23 07:38:18.4       2   -128    -44    129    136 179.1 -23.3  33966  286.30 0855.52
2009/04/23 07:38:18.4      22   -110    -37    113    118 168.4 -23.8  33968  286.32 0855.52
2009/04/23 07:38:18.5      53   -125      7    137    138 156.8   3.3  33970  286.35 0855.53
2009/04/23 07:38:18.7      55   -116     11    129    130 154.5   5.0  33968  286.32 0855.53
2009/04/23 07:38:18.8      73    -90    -40    117    124 140.8 -19.1  33970  286.37 0855.53
2009/04/23 07:38:18.9      64    -92    -61    113    128 145.3 -35.2  33970  286.35 0855.53
2009/04/23 07:38:18.9      75    -64    -76     99    124 130.4 -46.0  33970  286.35 0855.53
2009/04/23 07:38:19.0      24    -64    -98     69    119 159.1 -65.9  33962  286.22 0855.53
2009/04/23 07:38:19.1     -74   -109    -55    133    143 214.3 -27.5  33966  286.30 0855.53
2009/04/23 07:38:19.3     -63   -126    -54    142    151 206.7 -25.9  33970  286.37 0855.53
2009/04/23 07:38:19.4     -75   -110    -17    134    136 214.3  -7.3  33970  286.35 0855.53
2009/04/23 07:38:19.5     -96   -101    -50    140    149 223.7 -19.7  33968  286.34 0855.53
2009/04/23 07:38:19.6     -88    -94    -71    130    148 223.2 -35.7  33972  286.39 0855.53
2009/04/23 07:38:19.7     -98    -72    -90    122    151 233.6 -44.1  33970  286.35 0855.53
2009/04/23 07:38:19.8     -46   -122   -113    131    173 200.9 -49.8  33964  286.27 0855.53
2009/04/23 07:38:19.9     -28   -118   -100    122    157 193.4 -48.1  33968  286.32 0855.53
2009/04/23 07:38:20.0     -49   -128    -95    138    167 200.9 -42.2  33968  286.32 0855.53
2009/04/23 07:38:20.1     -56   -118    -74    131    150 205.4 -35.8  33968  286.32 0855.53
2009/04/23 07:38:20.2     -16   -118   -104    120    158 188.0 -49.8  33968  286.34 0855.53
2009/04/23 07:38:20.3       0   -117   -113    118    163 180.0 -53.4  33968  286.32 0855.53
2009/04/23 07:38:20.4      16    -92   -115     94    148 169.8 -60.8  33968  286.32 0855.53
2009/04/23 07:38:20.5      38    -92    -89    100    133 157.3 -50.8  33966  286.30 0855.53
2009/04/23 07:38:20.6      68   -115    -69    134    150 149.3 -33.7  33968  286.32 0855.53
2009/04/23 07:38:20.7      53    -88    -73    104    127 148.8 -42.4  33968  286.32 0855.53
2009/04/23 07:38:20.8      14    -61    -59     63     86 166.6 -52.9  33966  286.30 0855.53
2009/04/23 07:38:20.9       3    -51    -43     52     67 176.4 -48.2  33964  286.25 0855.53
2009/04/23 07:38:21.0     -22    -22    -49     32     58 225.0 -69.0  33960  286.19 0855.53
2009/04/23 07:38:21.1     -48    -19    -46     52     69 248.3 -51.3  33960  286.20 0855.53
2009/04/23 07:38:21.2     -21    -49    -48     54     72 203.6 -51.3  33962  286.24 0855.53
2009/04/23 07:38:21.3      23    -79    -24     83     86 163.5 -21.2  33968  286.32 0855.53
2009/04/23 07:38:21.4      30    -90     -7     96     97 161.3  -4.6  33966  286.30 0855.53
2009/04/23 07:38:21.5      23    -85      4     89     90 164.9   2.9  33968  286.34 0855.53
2009/04/23 07:38:21.6      22    -79     -1     83     84 164.0  -0.7  33968  286.32 0855.53
2009/04/23 07:38:21.7       5    -76     -4     77     78 175.6  -3.2  33968  286.32 0855.53
2009/04/23 07:38:21.8      24    -64     13     69     71 159.1  11.1  33966  286.30 0855.53
2009/04/23 07:38:21.9      19    -69     24     72     77 164.0  18.9  33968  286.32 0855.53
2009/04/23 07:38:22.0       8    -81     32     82     88 174.2  22.0  33970  286.35 0855.53
2009/04/23 07:38:22.1      12    -71     39     73     82 170.2  30.3  33970  286.35 0855.53
2009/04/23 07:38:22.2      18    -71     37     74     82 165.7  28.2  33968  286.32 0855.53
2009/04/23 07:38:22.3      16    -63     32     66     73 165.7  27.3  33968  286.34 0855.53
2009/04/23 07:38:22.4       0    -62     40     63     74 180.0  35.5  33968  286.34 0855.53
2009/04/23 07:38:22.5      -9    -60     49     61     78 188.9  43.7  33964  286.25 0855.53
2009/04/23 07:38:22.6     -18    -71     36     74     82 194.3  27.8  33962  286.24 0855.53
2009/04/23 07:38:22.7     -42    -51     23     67     72 219.7  19.4  33962  286.24 0855.53
2009/04/23 07:38:22.8     -77    -61      3     99    100 231.8   1.8  33962  286.22 0855.53
2009/04/23 07:38:22.9     -57    -50    -20     76     79 228.7 -15.0  33962  286.22 0855.53
2009/04/23 07:38:23.0     -56    -41    -16     70     72 234.0 -13.4  33964  286.25 0855.53
2009/04/23 07:38:23.1     -41    -45    -17     61     64 222.3 -15.5  33964  286.25 0855.53
2009/04/23 07:38:23.2     -22    -38    -15     45     47 210.7 -23.6  33964  286.27 0855.53
2009/04/23 07:38:23.3     -25    -38    -14     46     48 213.4 -23.8  33964  286.25 0855.53
2009/04/23 07:38:23.4       0    -48    -10     49     51 180.0 -12.4  33966  286.29 0855.53
2009/04/23 07:38:23.5       6    -49     -1     50     51 172.0  -2.2  33966  286.29 0855.53
2009/04/23 07:38:23.6      17    -58     -2     61     62 163.1  -2.2  33966  286.30 0855.53
2009/04/23 07:38:23.7     -15    -77    -14     79     81 191.6 -10.3  33964  286.25 0855.53
2009/04/23 07:38:23.8     -15    -84    -22     86     89 190.7 -14.5  33962  286.22 0855.53
2009/04/23 07:38:23.9      22    -59    -20     64     68 159.1 -17.6  33962  286.24 0855.53
2009/04/23 07:38:24.0     -10    -66    -24     67     71 188.9 -23.3  33962  286.22 0855.53
2009/04/23 07:38:24.1      -1    -94    -40     95    103 180.9 -28.0  33960  286.19 0855.53
2009/04/23 07:38:24.2       6   -113    -47    114    123 176.9 -27.5  33960  286.20 0855.53
2009/04/23 07:38:24.3      14   -130    -35    131    136 173.8 -15.0  33960  286.19 0855.53
2009/04/23 07:38:24.4      12   -126    -40    127    133 174.2 -22.8  33960  286.19 0855.53
2009/04/23 07:38:24.5       2   -128    -37    129    134 179.0 -21.7  33962  286.22 0855.53
2009/04/23 07:38:24.6       9   -129    -41    130    137 175.6 -17.5  33962  286.24 0855.53
2009/04/23 07:38:24.7       3   -101    -36    102    108 178.2 -23.8  33960  286.19 0855.53
2009/04/23 07:38:24.8      21   -114    -33    117    121 169.3 -20.7  33960  286.19 0855.53
2009/04/23 07:38:24.9       0   -106    -41    107    114 179.5 -25.9  33960  286.20 0855.53
2009/04/23 07:38:25.0      17   -121    -43    123    131 172.0 -19.6  33958  286.17 0855.53
2009/04/23 07:38:25.1      14   -106    -26    107    111 172.4 -13.9  33958  286.17 0855.53
2009/04/23 07:38:25.2      29    -99    -30    104    108 163.5 -20.7  33956  286.14 0855.53
2009/04/23 07:38:25.3      28    -83    -30     88     92 161.3 -23.3  33960  286.20 0855.53
2009/04/23 07:38:25.4      24    -71    -24     76     79 161.3 -22.8  33964  286.25 0855.53
2009/04/23 07:38:25.5      12    -62    -20     64     67 168.4 -23.8  33968  286.32 0855.53
2009/04/23 07:38:25.6      29    -59    -31     66     72 153.7 -31.5  33966  286.30 0855.53
2009/04/23 07:38:25.7      24    -61    -24     66     70 158.2 -24.4  33966  286.30 0855.53
2009/04/23 07:38:25.8      17    -51    -19     54     58 161.3 -19.6  33966  286.30 0855.53
2009/04/23 07:38:25.9      19    -73    -18     76     79 164.9 -13.4  33966  286.29 0855.53
2009/04/23 07:38:26.0      29    -84     -1     89     90 160.8  -0.7  33968  286.32 0855.53
2009/04/23 07:38:26.1      15    -77    -12     79     80 168.4  -8.8  33970  286.35 0855.53
2009/04/23 07:38:26.2      25    -63     -2     68     69 158.1  -2.2  33970  286.35 0855.53
2009/04/23 07:38:26.3      36    -56     14     67     69 147.4  12.2  33968  286.32 0855.53
2009/04/23 07:38:26.4      46    -63     16     79     81 144.0  11.6  33970  286.35 0855.53
2009/04/23 07:38:26.5      48    -37     26     61     66 127.8  23.1  33970  286.35 0855.53
2009/04/23 07:38:26.6      37    -36     28     52     59 134.1  31.3  33966  286.30 0855.53
2009/04/23 07:38:26.7      13    -35     21     38     43 160.0  31.4  33966  286.29 0855.53
2009/04/23 07:38:26.8      -1    -29      5     30     31 182.6  11.1  33964  286.27 0855.53
2009/04/23 07:38:26.9       7    -22      0     24     25 161.5   0.8  33968  286.32 0855.53
2009/04/23 07:38:27.0      12     -8      5     15     16 122.4  18.9  33964  286.27 0855.53
2009/04/23 07:38:27.1      18    -11      0     22     23 120.7  -2.2  33966  286.30 0855.53
2009/04/23 07:38:27.2      21     -7      1     23     24 108.6   2.9  33964  286.27 0855.53
2009/04/23 07:38:27.3       0      0      6      0      6   0.0 -90.0  33964  286.27 0855.53
2009/04/23 07:38:27.4      -9      9     -5     14     15 315.0 -19.7  33966  286.29 0855.53
2009/04/23 07:38:27.5      -6      6      0      9     10 313.1  -3.1  33968  286.32 0855.53
2009/04/23 07:38:27.6      11     12     -6     17     18  43.4 -23.6  33966  286.30 0855.53
2009/04/23 07:38:27.7      29     18    -17     35     38  57.5 -31.6  33966  286.29 0855.53
2009/04/23 07:38:27.8       6     13     -2     15     16  25.4  -7.3  33966  286.30 0855.53
2009/04/23 07:38:27.9       7     21      0     23     24  18.3  -1.3  33968  286.32 0855.53
2009/04/23 07:38:28.0     -13     14      8     20     21 316.8  23.0  33968  286.32 0855.53
2009/04/23 07:38:28.1     -24      2      8     25     27 276.1  18.9  33966  286.30 0855.53
2009/04/23 07:38:28.2      -4      2      0      5      6 295.3  -2.2  33966  286.29 0855.53
2009/04/23 07:38:28.3       1     10     -4     11     11   8.0 -23.6  33966  286.29 0855.53
2009/04/23 07:38:28.4       0     11     -8     12     14 355.5 -44.1  33966  286.29 0855.53
2009/04/23 07:38:28.5     -22      7     -9     24     25 288.6 -23.3  33966  286.30 0855.53
2009/04/23 07:38:28.6     -32     21    -11     39     40 304.2 -20.7  33964  286.27 0855.53
2009/04/23 07:38:28.7     -22      0    -22     23     31 270.0 -54.4  33962  286.24 0855.53
2009/04/23 07:38:28.8     -17      7    -23     19     29 291.7 -60.8  33966  286.30 0855.53
2009/04/23 07:38:28.9     -26      0    -14     27     30 270.0 -33.7  33966  286.29 0855.53
2009/04/23 07:38:29.0     -47     -2    -14     48     51 266.5 -16.6  33966  286.29 0855.53
2009/04/23 07:38:29.1     -43      0    -13     44     46 270.0 -16.6  33964  286.27 0855.53
2009/04/23 07:38:29.2     -44      0     -4     45     46 270.0  -6.2  33966  286.30 0855.53
2009/04/23 07:38:29.3     -44     14    -13     47     49 288.4 -15.5  33964  286.27 0855.53
2009/04/23 07:38:29.4     -39     14      4     42     43 290.0   5.9  33968  286.32 0855.53
2009/04/23 07:38:29.5     -36     13     -3     39     40 290.0  -5.2  33964  286.27 0855.53
2009/04/23 07:38:29.6     -16     10    -16     19     24 302.5 -50.2  33964  286.27 0855.53
2009/04/23 07:38:29.7     -16     18    -28     25     37 318.6 -56.6  33964  286.27 0855.53
2009/04/23 07:38:29.8     -21     13    -22     26     34 302.5 -50.2  33962  286.24 0855.53
2009/04/23 07:38:29.9      -8     14    -28     17     32 331.0 -69.1  33964  286.27 0855.53
2009/04/23 07:38:30.0       0     23    -26     24     35 359.1 -54.5  33962  286.24 0855.53
2009/04/23 07:38:30.1       9     31    -24     33     40  16.9 -44.1  33964  286.27 0855.53
2009/04/23 07:38:30.2      23     19    -29     31     42  50.5 -53.4  33960  286.20 0855.53
2009/04/23 07:38:30.3      24      4    -35     25     43  80.3 -64.9  33966  286.30 0855.53
2009/04/23 07:38:30.4      30      3    -30     31     43  83.9 -54.4  33966  286.29 0855.53
2009/04/23 07:38:30.5      34      2    -39     35     52  85.7 -57.7  33966  286.29 0855.53
2009/04/23 07:38:30.6      40      6    -33     41     52  81.2 -48.1  33964  286.27 0855.53
2009/04/23 07:38:30.7      43      2    -31     44     53  86.5 -43.0  33966  286.30 0855.53
2009/04/23 07:38:30.8      37      7    -23     38     44  78.5 -37.9  33966  286.30 0855.53
2009/04/23 07:38:30.9      42      8    -18     43     46  78.5 -27.4  33966  286.29 0855.53
2009/04/23 07:38:31.0      35      7    -10     36     37  78.5 -21.7  33968  286.32 0855.53
2009/04/23 07:38:31.1      26     12     -5     29     30  64.8 -11.3  33966  286.29 0855.53
2009/04/23 07:38:31.2      27      2      7     28     30  85.6  15.3  33966  286.30 0855.53
2009/04/23 07:38:31.3      33     -2     19     34     38  94.4  31.4  33968  286.32 0855.53
2009/04/23 07:38:31.4      23    -15     15     28     31 122.4  29.3  33968  286.32 0855.53
2009/04/23 07:38:31.5      22    -22     15     32     35 135.0  27.2  33964  286.25 0855.53
2009/04/23 07:38:31.6       0    -25     35     26     43 179.1  59.4  33966  286.30 0855.53
2009/04/23 07:38:31.7       5    -34     26     35     43 170.2  40.7  33968  286.34 0855.53
2009/04/23 07:38:31.8       0    -42     16     43     45 180.0  20.0  33970  286.37 0855.53
2009/04/23 07:38:31.9      -5    -22      8     23     25 193.4  19.2  33970  286.35 0855.53
2009/04/23 07:38:32.0      14     15     25     21     32  43.2  56.3  33972  286.39 0855.53
2009/04/23 07:38:32.1      16     15     17     23     28  46.9  41.7  33970  286.35 0855.53
2009/04/23 07:38:32.2      -1     -2     11      3     11 212.5  84.9  33970  286.37 0855.53
2009/04/23 07:38:32.3      -1     10     11     11     15 352.0  50.1  33970  286.37 0855.53
2009/04/23 07:38:32.4     -10      6      0     13     14 302.4  -2.2  33970  286.35 0855.53
2009/04/23 07:38:32.5     -12      0    -13     13     18 270.0 -54.5  33972  286.41 0855.53
2009/04/23 07:38:32.6     -12      0    -13     13     18 270.0 -54.5  33972  286.41 0855.52
2009/04/23 07:38:32.7     -10      2    -11     11     15 285.1 -54.5  33970  286.37 0855.52
2009/04/23 07:38:32.8     -11      0    -12     12     16 270.0 -54.5  33972  286.39 0855.52
2009/04/23 07:38:32.9     -12      0    -13     13     18 270.0 -54.5  33972  286.41 0855.52
2009/04/23 07:38:33.0     -15    -14      1     21     22 226.9   2.9  33970  286.37 0855.52
2009/04/23 07:38:33.1     -20    -26     -1     33     34 217.8  -2.2  33968  286.34 0855.52
2009/04/23 07:38:33.2     -19    -57     -8     61     62 198.3  -8.2  33970  286.37 0855.52
2009/04/23 07:38:33.3     -59   -100    -31    117    122 210.7 -15.0  33974  286.42 0855.52
2009/04/23 07:38:33.4     -71    -98    -41    122    128 216.0 -23.6  33970  286.35 0855.52
2009/04/23 07:38:33.5     -38    -75    -64     85    106 206.7 -45.1  33972  286.39 0855.52
2009/04/23 07:38:33.6     -31    -65    -71     73    101 205.4 -53.8  33964  286.27 0855.52
2009/04/23 07:38:33.7    -109   -125    -53    167    176 221.2 -17.6  33966  286.30 0855.52
2009/04/23 07:38:33.8    -167   -121    -79    207    221 234.0 -26.4  33968  286.34 0855.52
2009/04/23 07:38:33.9    -159   -139    -76    212    226 228.7 -19.7  33972  286.39 0855.52
2009/04/23 07:38:34.0    -127   -151    -72    198    210 219.9 -25.1  33972  286.39 0855.52
2009/04/23 07:38:34.1     -93   -124    -64    156    168 217.0 -28.0  33968  286.34 0855.52
2009/04/23 07:38:34.2     -65    -78    -35    102    107 219.6 -23.3  33970  286.35 0855.52
2009/04/23 07:38:34.3     -76    -57    -13     95     96 233.1  -8.2  33968  286.32 0855.52
2009/04/23 07:38:34.4     -49     40     39     64     74 309.6  35.5  33970  286.35 0855.52
2009/04/23 07:38:34.5     -68     55     -3     88     89 309.1  -2.2  33970  286.35 0855.52
2009/04/23 07:38:34.6     -45     34    -21     57     60 306.9 -25.4  33970  286.37 0855.52
2009/04/23 07:38:34.7     -52     55     -1     76     77 316.8  -1.2  33970  286.37 0855.52
2009/04/23 07:38:34.8     -52     55     -1     76     77 316.8  -1.2  33970  286.37 0855.52
2009/04/23 07:38:34.9     -30     63     13     70     72 334.5  11.1  33968  286.32 0855.52
2009/04/23 07:38:35.0     -15     57      9     60     61 344.9   9.0  33970  286.37 0855.52
2009/04/23 07:38:35.1       0     54      6     55     56   0.0   6.9  33966  286.29 0855.52
2009/04/23 07:38:35.2      -4     66     -1     67     68 356.4  -1.2  33968  286.32 0855.52
2009/04/23 07:38:35.3       5     70     -2     71     72   4.5  -2.2  33966  286.29 0855.52
2009/04/23 07:38:35.4      16     38     -3     42     43  23.6  -4.1  33968  286.32 0855.52
2009/04/23 07:38:35.5      18     39     10     44     46  25.4  13.2  33968  286.32 0855.52
2009/04/23 07:38:35.6      33     33     12     47     49  45.0  15.3  33966  286.30 0855.52
2009/04/23 07:38:35.7      48     30     28     57     63  57.6  27.3  33968  286.32 0855.52
2009/04/23 07:38:35.8      54     39     33     67     74  54.1  27.3  33968  286.32 0855.52
2009/04/23 07:38:35.9      68     13     32     70     76  78.5  27.1  33968  286.32 0855.52
2009/04/23 07:38:36.0      99     -3     24    100    103  92.1  13.7  33972  286.39 0855.52
2009/04/23 07:38:36.1     110    -26     11    114    115 103.3   5.9  33970  286.37 0855.52
2009/04/23 07:38:36.2      88    -25     25     92     96 106.4  15.2  33968  286.34 0855.52
2009/04/23 07:38:36.3      41    -42     44     59     73 135.8  40.7  33970  286.37 0855.52
2009/04/23 07:38:36.4      -5    -77     89     78    118 184.4  54.3  33972  286.41 0855.52
2009/04/23 07:38:36.5     -19    -71     89     74    115 195.1  56.3  33972  286.39 0855.52
2009/04/23 07:38:36.6      -5    -67     87     68    110 184.5  57.9  33974  286.42 0855.52
2009/04/23 07:38:36.7     -62    -74     73     97    121 220.1  41.2  33970  286.37 0855.52
2009/04/23 07:38:36.8     -51    -97     72    110    131 208.1  36.0  33972  286.39 0855.52
2009/04/23 07:38:36.9     -66    -91     -3    113    114 216.1  -1.8  33970  286.37 0855.52
2009/04/23 07:38:37.0     -65    -90     -7    112    113 216.0  -3.7  33974  286.44 0855.52
2009/04/23 07:38:37.1     -60    -76    -17     98    100 218.3 -10.3  33976  286.47 0855.52
2009/04/23 07:38:37.2     -72    -86     -1    113    114 219.7  -0.7  33976  286.47 0855.52
2009/04/23 07:38:37.3     -65    -71     29     97    102 222.3  16.8  33974  286.42 0855.52
2009/04/23 07:38:37.4     -50    -47     -5     69     70 226.8  -4.1  33974  286.44 0855.52
2009/04/23 07:38:37.5      -7    -40     -1     41     42 190.7  -2.2  33974  286.44 0855.52
2009/04/23 07:38:37.6     -16    -28     -9     33     34 210.7 -21.7  33974  286.44 0855.51
2009/04/23 07:38:37.7     -22    -30    -29     38     47 216.1 -46.1  33976  286.47 0855.51
2009/04/23 07:38:37.8     -13    -21    -27     26     37 212.5 -52.6  33978  286.49 0855.51
2009/04/23 07:38:37.9      11    -25    -20     28     34 156.4 -42.0  33974  286.44 0855.51
2009/04/23 07:38:38.0      42    -17     -5     46     47 112.6  -7.3  33976  286.46 0855.51
2009/04/23 07:38:38.1      50    -53     -1     74     75 136.8  -1.2  33974  286.42 0855.51
2009/04/23 07:38:38.2      49    -49     37     70     79 135.0  30.3  33974  286.42 0855.51
2009/04/23 07:38:38.3      67    -55     33     88     93 129.5  20.4  33974  286.42 0855.51
2009/04/23 07:38:38.4      68    -25     58     73     93 110.8  43.3  33974  286.44 0855.51
2009/04/23 07:38:38.5      22    -22     69     32     76 135.0  73.1  33974  286.42 0855.51
2009/04/23 07:38:38.6       3     -8     37      9     38 154.6  84.9  33974  286.42 0855.51
2009/04/23 07:38:38.7      -5    -16     33     17     37 198.7  70.8  33972  286.41 0855.51
2009/04/23 07:38:38.8      11    -43     24     45     51 165.7  30.3  33970  286.37 0855.51
2009/04/23 07:38:38.9      30    -32      4     45     46 136.8   5.9  33974  286.44 0855.51
2009/04/23 07:38:39.0      78    -35     -7     86     87 114.4  -5.2  33974  286.44 0855.51
2009/04/23 07:38:39.1      82    -43     -3     93     94 118.0  -2.2  33972  286.41 0855.51
2009/04/23 07:38:39.2     106    -88     44    138    146 129.6  17.9  33974  286.42 0855.51
2009/04/23 07:38:39.3      91   -110     55    143    153 140.3  22.0  33974  286.44 0855.51
2009/04/23 07:38:39.4      95   -172     32    197    200 151.0   9.5  33972  286.41 0855.51
2009/04/23 07:38:39.5     106   -194     -8    222    223 151.3  -2.2  33974  286.44 0855.51
2009/04/23 07:38:39.6      78   -164     34    182    186 154.5  10.8  33972  286.41 0855.52
2009/04/23 07:38:39.7      85   -179     35    199    203 154.5  10.1  33974  286.44 0855.52
2009/04/23 07:38:39.8     133   -170      8    217    218 141.9   2.1  33974  286.44 0855.52
2009/04/23 07:38:39.9     102   -116    -23    155    157 138.6  -8.6  33976  286.47 0855.52
2009/04/23 07:38:40.0      69   -130      6    148    149 151.9   2.3  33974  286.44 0855.52
2009/04/23 07:38:40.1      63    -89     37    110    117 144.8  18.9  33974  286.42 0855.52
2009/04/23 07:38:40.2      71    -71     45    101    110 135.0  26.2  33972  286.41 0855.52
2009/04/23 07:38:40.3     132    -44     19    140    142 108.6   8.0  33974  286.42 0855.52
2009/04/23 07:38:40.4     156    -21      4    158    159  98.0   1.6  33978  286.49 0855.52
2009/04/23 07:38:40.5     159     -2     32    160    164  90.8  11.6  33974  286.42 0855.52
2009/04/23 07:38:40.6     131    -26     52    134    143 101.4  22.5  33976  286.46 0855.52
2009/04/23 07:38:40.7     144      2     64    145    158  89.2  25.1  33976  286.47 0855.52
2009/04/23 07:38:40.8     123    -13     58    124    136  96.1  27.1  33976  286.47 0855.52
2009/04/23 07:38:40.9      97      2     56     98    112  88.3  32.4  33974  286.42 0855.52
2009/04/23 07:38:41.0      96     21     46     99    109  77.2  27.1  33974  286.42 0855.52
2009/04/23 07:38:41.1      81     17     57     83    100  78.1  38.0  33974  286.44 0855.52
2009/04/23 07:38:41.2      79     45     46     92    102  60.2  28.2  33974  286.42 0855.52
2009/04/23 07:38:41.3      53     55     40     77     86  44.2  29.8  33972  286.41 0855.52
2009/04/23 07:38:41.4      65     47     33     81     87  54.0  23.0  33976  286.47 0855.52
2009/04/23 07:38:41.5      68     39     46     79     91  60.2  32.9  33974  286.42 0855.52
2009/04/23 07:38:41.6      67     62     58     92    108  46.9  35.5  33976  286.47 0855.51
2009/04/23 07:38:41.7      57     68     55     89    104  40.1  35.5  33974  286.42 0855.51
2009/04/23 07:38:41.8      -1     67     73     68     99 359.1  52.1  33974  286.44 0855.51
2009/04/23 07:38:41.9      -8     57     71     58     91 352.0  56.4  33972  286.41 0855.51
2009/04/23 07:38:42.0      15     23     46     28     53  32.5  64.7  33974  286.42 0855.51
2009/04/23 07:38:42.1       4      8     52     10     52  29.0  89.1  33974  286.44 0855.51
2009/04/23 07:38:42.2     -36    -11     60     38     71 251.8  64.7  33974  286.44 0855.51
2009/04/23 07:38:42.3     -33     24     52     42     66 306.0  56.4  33976  286.47 0855.51
2009/04/23 07:38:42.4      -4     59     68     60     90 355.5  54.3  33974  286.44 0855.51
2009/04/23 07:38:42.5     -15     49     45     52     68 342.2  44.8  33974  286.42 0855.51
2009/04/23 07:38:42.6     -25      2     41     26     48 276.1  64.7  33972  286.41 0855.51
2009/04/23 07:38:42.7      -6     -7     42     10     43 219.6  85.9  33974  286.42 0855.51
2009/04/23 07:38:42.8       0    -21     80     22     82 180.9  84.4  33972  286.39 0855.51
2009/04/23 07:38:42.9     -10    -16     50     19     53 212.5  80.2  33974  286.44 0855.51
2009/04/23 07:38:43.0     -13    -66     83     68    107 191.6  56.4  33974  286.42 0855.51
2009/04/23 07:38:43.1     -58   -110     92    125    155 208.1  39.7  33972  286.41 0855.51
2009/04/23 07:38:43.2     -50   -102    106    114    155 206.3  47.9  33974  286.42 0855.51
2009/04/23 07:38:43.3     -37    -72     98     81    127 207.2  56.3  33972  286.41 0855.51
2009/04/23 07:38:43.4     -38    -24     98     45    107 237.6  73.5  33972  286.41 0855.51
2009/04/23 07:38:43.5       0      7     53      8     53 357.3  90.0  33972  286.41 0855.51
2009/04/23 07:38:43.6      43    -78     27     90     95 151.0  16.8  33972  286.39 0855.51
2009/04/23 07:38:43.7      37   -106     39    113    120 160.8  19.4  33972  286.39 0855.51
2009/04/23 07:38:43.8      43   -108     -4    117    118 158.1  -2.2  33972  286.41 0855.51
2009/04/23 07:38:43.9      74    -87    -39    115    122 139.9 -19.1  33972  286.41 0855.51
2009/04/23 07:38:44.0      68    -64    -40     94    102 133.6 -28.5  33972  286.41 0855.51
2009/04/23 07:38:44.1       0    -85    -52     86    100 180.5 -38.8  33972  286.39 0855.51
2009/04/23 07:38:44.2     -32    -86    -33     92     98 200.5 -19.7  33970  286.35 0855.51
2009/04/23 07:38:44.3     -53    -80    -25     97    101 213.4 -14.5  33974  286.42 0855.51
2009/04/23 07:38:44.4     -89    -43     10     99    100 244.2   5.9  33972  286.39 0855.51
2009/04/23 07:38:44.5    -102      9      5    103    104 275.2   2.9  33974  286.42 0855.51
2009/04/23 07:38:44.6    -118     22      1    121    122 280.6   0.8  33974  286.42 0855.51
2009/04/23 07:38:44.7    -118     32      6    123    124 285.5   2.8  33974  286.42 0855.51
2009/04/23 07:38:44.8    -132     82    -16    156    157 302.0  -6.2  33972  286.41 0855.51
2009/04/23 07:38:44.9    -149     84    -26    172    175 299.5  -8.8  33974  286.42 0855.51
2009/04/23 07:38:45.1    -161    121    -18    202    203 306.9  -5.2  33974  286.42 0855.51
2009/04/23 07:38:45.2    -161    141    -32    215    218 311.3  -8.6  33972  286.39 0855.51
2009/04/23 07:38:45.3     -82    148     83    170    189 331.0  27.4  33970  286.35 0855.51
2009/04/23 07:38:45.3     -29    166    144    169    222 350.0  44.8  33970  286.37 0855.51
2009/04/23 07:38:45.5      10     95    131     96    162   6.2  60.3  33970  286.37 0855.51
2009/04/23 07:38:45.6     -12     73    113     75    135 350.2  63.6  33972  286.39 0855.51
2009/04/23 07:38:45.7     -23    115    104    118    157 348.4  46.2  33974  286.44 0855.51
2009/04/23 07:38:45.8      -8    112    114    113    160 355.5  49.9  33970  286.37 0855.51
2009/04/23 07:38:45.9     -39    117    124    124    175 341.5  50.1  33972  286.41 0855.51
2009/04/23 07:38:46.0    -124    124     68    176    188 314.8  22.3  33974  286.42 0855.51
2009/04/23 07:38:46.1    -148     98     11    178    179 303.5   3.8  33972  286.39 0855.51
2009/04/23 07:38:46.2     -36    107     99    113    150 341.3  45.8  33970  286.37 0855.51
2009/04/23 07:38:46.3     -45    113     90    122    151 338.2  39.7  33970  286.37 0855.51
2009/04/23 07:38:46.4     -50    185     79    192    207 344.6  23.6  33974  286.42 0855.51
2009/04/23 07:38:46.5     -49    183     -4    190    191 344.9  -1.3  33968  286.34 0855.51
2009/04/23 07:38:46.6     -30    215    -26    218    220 351.9  -6.9  33970  286.37 0855.51
2009/04/23 07:38:46.7      73    124     50    145    154  30.7  19.2  33972  286.41 0855.51
2009/04/23 07:38:46.8      47     35     99     59    115  53.1  65.7  33974  286.44 0855.51
2009/04/23 07:38:46.9     -17    -13     97     22     99 232.2  88.0  33974  286.44 0855.51
2009/04/23 07:38:47.0     -74      0     75     75    106 270.0  50.1  33974  286.42 0855.51
2009/04/23 07:38:47.1    -128     84     79    154    173 303.3  29.3  33970  286.35 0855.51
2009/04/23 07:38:47.2    -173    -61     68    184    196 250.3  21.3  33968  286.32 0855.51
2009/04/23 07:38:47.3    -177    -85    123    197    232 244.2  35.5  33972  286.39 0855.51
2009/04/23 07:38:47.4    -206    -36     84    210    226 259.9  23.0  33968  286.32 0855.51
2009/04/23 07:38:47.5    -252     84     -5    266    267 288.6  -1.2  33972  286.40 0855.51
2009/04/23 07:38:47.6    -277     72    -52    287    292 284.6 -10.3  33974  286.43 0855.51
2009/04/23 07:38:47.7    -240    105    -14    263    264 293.6  -3.1  33976  286.45 0855.50
2009/04/23 07:38:47.8    -230     98    -27    250    252 293.1  -6.2  33978  286.48 0855.50
2009/04/23 07:38:47.9    -219     90    -48    237    243 292.4 -11.6  33978  286.48 0855.50
2009/04/23 07:38:48.0    -247     16    -59    248    255 273.9 -13.4  33978  286.48 0855.50
2009/04/23 07:38:48.1    -299     74     -6    309    310 283.9  -1.1  33968  286.33 0855.50
2009/04/23 07:38:48.2    -240    112     -5    266    267 295.1  -1.2  33970  286.36 0855.50
2009/04/23 07:38:48.3    -248     62    -16    256    257 284.2  -3.7  33974  286.42 0855.50
2009/04/23 07:38:48.4    -260     90    -10    276    277 289.1  -2.1  33978  286.48 0855.50
2009/04/23 07:38:48.5    -230     30    -44    232    237 277.5 -10.9  33978  286.50 0855.50
2009/04/23 07:38:48.6    -264    119    -80    290    301 294.4 -15.5  33974  286.42 0855.50
2009/04/23 07:38:48.7    -270     54    -25    276    278 281.5  -5.2  33972  286.38 0855.50
2009/04/23 07:38:48.8    -293     94    -74    308    317 287.8 -13.6  33976  286.47 0855.50
2009/04/23 07:38:48.9    -282     66    -83    290    302 283.3 -16.0  33976  286.47 0855.50
2009/04/23 07:38:49.0    -309     95    -89    324    337 287.1 -15.4  33970  286.36 0855.50
2009/04/23 07:38:49.1    -247    126    -10    278    279 297.0  -2.2  33974  286.43 0855.50
2009/04/23 07:38:49.2    -229    100    -88    251    265 293.7 -24.3  33974  286.42 0855.50
2009/04/23 07:38:49.3    -204     84    -82    221    235 292.6 -25.4  33976  286.47 0855.50
2009/04/23 07:38:49.4    -183     94    -65    207    218 297.3 -17.6  33970  286.35 0855.50
2009/04/23 07:38:49.5    -206     -4     22    207    209 268.7   6.1  33966  286.30 0855.50
2009/04/23 07:38:49.6    -315   -101     72    331    339 252.2  12.3  33970  286.37 0855.50
2009/04/23 07:38:49.7    -240   -105    157    263    306 246.3  33.5  33974  286.43 0855.50
2009/04/23 07:38:49.8    -271     42     34    275    278 278.8   7.1  33968  286.31 0855.50
2009/04/23 07:38:49.9    -268     -3     38    269    272 269.2   8.2  33972  286.40 0855.50
2009/04/23 07:38:50.0    -251    -52     30    257    259 258.1   6.7  33970  286.36 0855.50
2009/04/23 07:38:50.1    -203    -78     -6    218    219 248.9  -1.6  33972  286.41 0855.50
2009/04/23 07:38:50.2    -164    -40    -47    169    176 256.1 -15.8  33970  286.35 0855.50
2009/04/23 07:38:50.3    -240    -48      7    245    246 258.5   1.7  33970  286.36 0855.50
2009/04/23 07:38:50.4    -206    -15     -4    207    208 265.7  -1.1  33968  286.34 0855.50
2009/04/23 07:38:50.5    -193     17     37    194    198 275.2  11.0  33966  286.29 0855.50
2009/04/23 07:38:50.6    -224    -33    -43    227    232 261.6 -10.9  33972  286.41 0855.50
2009/04/23 07:38:50.7    -197     14    -82    198    214 274.1 -28.0  33974  286.42 0855.50
2009/04/23 07:38:50.8    -164     72      0    180    181 293.7   0.2  33966  286.30 0855.50
2009/04/23 07:38:50.9    -177     69      0    191    192 291.3   0.0  33966  286.30 0855.50
2009/04/23 07:38:51.0    -144    134     76    197    211 312.9  22.0  33966  286.30 0855.50
2009/04/23 07:38:51.1    -143     97     53    173    182 304.2  17.1  33968  286.32 0855.50
2009/04/23 07:38:51.2    -131     75     20    152    154 299.8   7.5  33968  286.32 0855.50
2009/04/23 07:38:51.3    -108     83     46    137    145 307.8  18.9  33968  286.32 0855.50
2009/04/23 07:38:51.4     -83     95     29    127    131 319.0  13.2  33966  286.29 0855.50
2009/04/23 07:38:51.5     -99    120     60    156    167 320.4  22.0  33964  286.27 0855.50
2009/04/23 07:38:51.6     -68    133     63    150    162 332.8  23.8  33966  286.29 0855.50
2009/04/23 07:38:51.7     -68     97     60    119    133 324.8  28.2  33968  286.32 0855.51
2009/04/23 07:38:51.8     -39    112     74    119    140 340.4  35.5  33968  286.32 0855.51
2009/04/23 07:38:51.9     -73     98     85    123    149 323.5  38.0  33970  286.35 0855.51
2009/04/23 07:38:52.0     -88     79     40    119    126 311.8  18.9  33970  286.37 0855.51
2009/04/23 07:38:52.1     -77     73     29    107    111 313.2  15.2  33970  286.37 0855.51
2009/04/23 07:38:52.2     -48     69     55     85    101 325.3  36.0  33968  286.32 0855.51
2009/04/23 07:38:52.3    -110     43     55    119    131 291.7  27.1  33970  286.37 0855.51
2009/04/23 07:38:52.4    -134     40    104    140    174 286.8  40.4  33974  286.42 0855.51
2009/04/23 07:38:52.5    -175     61     46    186    192 289.3  13.9  33970  286.35 0855.51
2009/04/23 07:38:52.6    -155     36     27    160    163 283.2   9.9  33972  286.41 0855.51
2009/04/23 07:38:52.7    -174     27     38    177    182 279.0  12.2  33974  286.42 0855.51
2009/04/23 07:38:52.8    -190      7     26    191    193 272.1   7.8  33968  286.32 0855.51
2009/04/23 07:38:52.9    -189     23     63    191    202 277.0  18.4  33960  286.20 0855.51
2009/04/23 07:38:53.0    -207     22     59    209    218 276.1  15.8  33962  286.22 0855.51
2009/04/23 07:38:53.1    -208      2     90    209    227 270.8  24.9  33970  286.35 0855.51
2009/04/23 07:38:53.2    -204    -34    105    207    232 260.3  29.2  33968  286.32 0855.51
2009/04/23 07:38:53.3    -209    -46     49    215    221 257.6  12.9  33968  286.34 0855.51
2009/04/23 07:38:53.4    -182    -16     61    183    194 264.8  18.6  33966  286.29 0855.51
2009/04/23 07:38:53.5    -174    -58     64    184    195 251.4  19.2  33968  286.34 0855.51
2009/04/23 07:38:53.6    -169    -35     65    173    184 258.1  21.3  33964  286.27 0855.51
2009/04/23 07:38:53.7    -127    -61     63    142    155 244.2  25.2  33966  286.29 0855.50
2009/04/23 07:38:53.8    -114    -63     57    131    142 241.2  25.1  33964  286.25 0855.50
2009/04/23 07:38:53.9    -133    -63     51    148    157 244.6  19.2  33966  286.30 0855.50
2009/04/23 07:38:54.0    -109    -48     -5    120    121 246.0  -2.6  33968  286.32 0855.50
2009/04/23 07:38:54.1    -114    -30     14    119    120 255.0   6.9  33968  286.32 0855.50
2009/04/23 07:38:54.2    -117    -24     28    120    124 258.1  13.2  33962  286.22 0855.50
2009/04/23 07:38:54.3    -115    -24     23    118    121 258.1  11.0  33960  286.19 0855.50
2009/04/23 07:38:54.4    -182    -13     80    183    199 265.6  25.1  33964  286.25 0855.50
2009/04/23 07:38:54.5    -206    -74     63    220    229 250.1  16.0  33968  286.34 0855.50
2009/04/23 07:38:54.6    -151    -66     26    165    168 246.4   9.0  33968  286.32 0855.50
2009/04/23 07:38:54.7     -55   -119    -12    132    133 204.9  -5.2  33968  286.32 0855.50
2009/04/23 07:38:54.8     -44   -100     44    110    118 204.1  23.0  33968  286.34 0855.50
2009/04/23 07:38:54.9       3    -76     34     77     84 177.3  24.6  33972  286.41 0855.50
2009/04/23 07:38:55.0      40    -95     40    104    111 156.8  22.0  33972  286.39 0855.50
2009/04/23 07:38:55.1      62   -122     18    138    140 152.9   7.5  33972  286.39 0855.50
2009/04/23 07:38:55.2      77   -104     49    130    138 143.5  21.5  33968  286.34 0855.50
2009/04/23 07:38:55.3      54   -136     -5    147    148 158.2  -2.2  33972  286.39 0855.50
2009/04/23 07:38:55.4     106   -170    -66    201    212 148.1 -18.3  33972  286.41 0855.50
2009/04/23 07:38:55.5     159   -149    -76    218    230 133.1 -23.8  33972  286.39 0855.50
2009/04/23 07:38:55.6     204   -103    -74    229    240 117.0 -23.0  33970  286.36 0855.50
2009/04/23 07:38:55.7     196    -71    -24    209    211 109.9  -6.7  33972  286.41 0855.51
2009/04/23 07:38:55.8     169    -90    -22    192    194 118.2  -6.7  33970  286.35 0855.51
2009/04/23 07:38:55.9     172   -109     55    204    212 122.5  15.3  33974  286.44 0855.51
2009/04/23 07:38:56.0     168    -97     -4    194    195 120.0  -1.3  33972  286.39 0855.51
2009/04/23 07:38:56.1     147    -79    -43    168    174 118.4 -14.5  33966  286.30 0855.51
2009/04/23 07:38:56.2      52    -94    -43    108    116 151.0 -27.4  33972  286.39 0855.51
2009/04/23 07:38:56.3      37    -87    -71     95    118 156.8 -45.1  33972  286.41 0855.51
2009/04/23 07:38:56.4      43    -92    -78    102    128 154.5 -46.0  33970  286.37 0855.51
2009/04/23 07:38:56.5      16    -86    -94     88    128 169.3 -56.5  33970  286.37 0855.51
2009/04/23 07:38:56.6      15    -77    -79     79    111 168.4 -54.5  33970  286.37 0855.51
2009/04/23 07:38:56.7      18   -102    -49    104    114 169.8 -31.5  33972  286.41 0855.51
2009/04/23 07:38:56.8      44   -111     -1    120    121 158.1  -0.7  33970  286.35 0855.51
2009/04/23 07:38:56.9      53   -116     51    128    137 155.5  23.0  33970  286.37 0855.51
2009/04/23 07:38:57.0      21   -128     88    130    156 170.7  37.8  33972  286.39 0855.51
2009/04/23 07:38:57.1      25    -98     64    102    120 165.3  35.5  33970  286.37 0855.51
2009/04/23 07:38:57.2     -13   -103     64    104    122 187.6  34.4  33970  286.35 0855.51
2009/04/23 07:38:57.3     -37    -94     51    102    114 201.4  28.2  33964  286.27 0855.51
2009/04/23 07:38:57.4     -17    -52     70     55     89 198.5  57.5  33968  286.32 0855.51
2009/04/23 07:38:57.5     -45    -36     65     58     87 231.4  53.3  33964  286.27 0855.51
2009/04/23 07:38:57.6     -64      0     42     65     77 269.2  35.6  33968  286.34 0855.51
2009/04/23 07:38:57.7     -89    -32     55     95    109 250.0  32.9  33968  286.32 0855.51
2009/04/23 07:38:57.8     -89    -51     28    103    107 240.2  15.2  33968  286.34 0855.51
2009/04/23 07:38:57.9     -89    -56     18    106    108 237.5  10.1  33968  286.34 0855.51
2009/04/23 07:38:58.0     -54    -54     33     77     83 225.0  24.1  33968  286.32 0855.51
2009/04/23 07:38:58.1     -38    -46     44     60     74 219.6  39.7  33970  286.35 0855.51
2009/04/23 07:38:58.2     -37    -62     51     73     89 210.7  38.6  33970  286.37 0855.51
2009/04/23 07:38:58.3     -38   -103     45    110    118 200.5  23.1  33972  286.41 0855.51
2009/04/23 07:38:58.4     -57   -106     52    121    131 208.5  25.1  33972  286.39 0855.51
2009/04/23 07:38:58.5     -30   -114     50    119    129 195.1  24.1  33970  286.37 0855.51
2009/04/23 07:38:58.6     -19    -94     49     96    107 191.5  28.2  33970  286.35 0855.51
2009/04/23 07:38:58.7       1    -92     45     93    103 179.1  27.3  33970  286.37 0855.51
2009/04/23 07:38:58.8       2    -79     43     80     90 178.2  30.3  33972  286.39 0855.51
2009/04/23 07:38:58.9      -6    -88     31     89     95 184.0  19.4  33970  286.37 0855.51
2009/04/23 07:38:59.0     -16    -85      5     87     88 191.1   3.8  33972  286.41 0855.51
2009/04/23 07:38:59.1       0    -86      9     87     88 180.5   6.5  33972  286.39 0855.51
2009/04/23 07:38:59.2      -3    -91      5     92     93 182.2   3.3  33972  286.41 0855.51
2009/04/23 07:38:59.3      -6    -97     -9     98     99 184.0  -5.6  33970  286.37 0855.51
2009/04/23 07:38:59.4     -45   -136    -33    144    148 198.3 -12.9  33968  286.34 0855.51
2009/04/23 07:38:59.5     -36   -135    -48    140    148 195.2 -23.3  33962  286.24 0855.51
2009/04/23 07:38:59.6     -54   -126    -52    138    147 203.2 -25.9  33960  286.19 0855.51
2009/04/23 07:38:59.7     -33    -98    -46    104    113 198.7 -30.1  33960  286.20 0855.51
2009/04/23 07:38:59.8       3   -106    -29    107    112 178.2 -15.5  33962  286.22 0855.51
2009/04/23 07:38:59.9      20    -68    -27     72     76 163.1 -24.4  33960  286.19 0855.51
2009/04/23 07:39:00.0      49    -49    -32     70     76 135.0 -31.5  33962  286.22 0855.51
2009/04/23 07:39:00.1      57    -39    -19     70     73 124.2 -15.4  33962  286.24 0855.51
2009/04/23 07:39:00.2      35    -37      6     52     53 136.8   6.9  33962  286.24 0855.51
2009/04/23 07:39:00.3      17    -30     -1     35     36 149.3  -3.1  33964  286.27 0855.51
2009/04/23 07:39:00.4       8    -12      1     15     16 143.9   6.9  33966  286.29 0855.51
2009/04/23 07:39:00.5      18      5     31     19     36  71.8  64.7  33962  286.24 0855.51
2009/04/23 07:39:00.6      18      2     46     19     49  82.1  77.1  33966  286.30 0855.51
2009/04/23 07:39:00.7     -23     11     55     26     60 297.1  72.9  33970  286.37 0855.50
2009/04/23 07:39:00.8     -15     35     44     39     58 336.4  53.3  33966  286.30 0855.50
2009/04/23 07:39:00.9     -21     54     38     59     70 338.2  35.6  33964  286.27 0855.50
2009/04/23 07:39:01.0     -33     53     51     63     81 327.4  43.3  33966  286.30 0855.50
2009/04/23 07:39:01.1     -30     49     57     58     81 328.4  50.0  33966  286.29 0855.50
2009/04/23 07:39:01.2     -46     68     43     83     93 326.2  29.3  33966  286.30 0855.50
2009/04/23 07:39:01.3     -51     70     44     87     97 323.9  28.2  33966  286.29 0855.50
2009/04/23 07:39:01.4     -57     50     31     76     82 311.3  23.0  33966  286.29 0855.50
2009/04/23 07:39:01.5     -72     53     21     90     93 306.4  13.2  33962  286.24 0855.50
2009/04/23 07:39:01.6     -88     29     -2     93     94 288.6  -1.8  33968  286.32 0855.50
2009/04/23 07:39:01.7     -84     14     10     86     87 279.7   6.9  33966  286.29 0855.50
2009/04/23 07:39:01.8    -117     37     -4    123    124 287.7  -2.2  33968  286.34 0855.50
2009/04/23 07:39:01.9     -89     53     -5    104    105 301.1  -3.1  33968  286.32 0855.50
2009/04/23 07:39:02.0     -94     27    -27     98    102 286.4 -15.4  33968  286.34 0855.50
2009/04/23 07:39:02.1     -92     14    -18     94     96 278.8 -10.9  33972  286.41 0855.50
2009/04/23 07:39:02.2     -51     69     -3     87     88 323.5  -2.6  33974  286.42 0855.50
2009/04/23 07:39:02.3     -20     43     16     48     51 334.6  19.2  33972  286.41 0855.50
2009/04/23 07:39:02.4     -14      9     38     17     41 302.4  75.0  33972  286.39 0855.50
2009/04/23 07:39:02.5       2     -3     56      4     56 147.5  90.0  33970  286.37 0855.50
2009/04/23 07:39:02.6       2     -7     64      8     64 161.5  90.0  33974  286.42 0855.50
2009/04/23 07:39:02.7       2    -27     66     28     71 175.5  76.1  33970  286.37 0855.49
2009/04/23 07:39:02.8      -1    -80     58     81     99 180.9  39.5  33974  286.44 0855.49
2009/04/23 07:39:03.0     -11    -94     -2     95     96 186.7  -1.8  33974  286.42 0855.49
2009/04/23 07:39:03.0     -20   -104      3    107    108 191.1   1.8  33972  286.41 0855.49
2009/04/23 07:39:03.1     -27   -132     24    135    138 191.6  10.1  33972  286.41 0855.49
2009/04/23 07:39:03.2     -49   -135      9    144    145 200.0   3.8  33972  286.39 0855.49
2009/04/23 07:39:03.3    -115   -106     31    157    161 227.3  11.4  33970  286.37 0855.49
2009/04/23 07:39:03.4     -42   -110    -13    118    119 200.9  -6.7  33966  286.30 0855.49
2009/04/23 07:39:03.5     -82   -144    -54    166    174 209.6 -23.8  33970  286.35 0855.49
2009/04/23 07:39:03.6    -121   -120    -82    171    189 225.2 -31.7  33968  286.34 0855.49
2009/04/23 07:39:03.7     -61   -119    -59    134    146 207.1 -29.5  33968  286.34 0855.49
2009/04/23 07:39:03.8     -51   -128     26    138    141 201.8  11.0  33972  286.39 0855.49
2009/04/23 07:39:03.9       0   -115     66    116    133 180.5  32.9  33972  286.39 0855.49
2009/04/23 07:39:04.0     -60   -132     64    146    159 204.5  25.3  33968  286.34 0855.49
2009/04/23 07:39:04.1     -61   -121     14    136    137 207.1   5.9  33970  286.37 0855.49
2009/04/23 07:39:04.2     -75   -137     -9    157    158 208.9  -3.3  33972  286.39 0855.49
2009/04/23 07:39:04.3      11   -140     -5    141    142 175.1  -2.2  33970  286.37 0855.49
2009/04/23 07:39:04.4      -7   -176     29    177    180 182.5   9.5  33974  286.42 0855.49
2009/04/23 07:39:04.5       0   -180     -6    181    182 179.8  -2.1  33972  286.39 0855.49
2009/04/23 07:39:04.6     -24   -167      5    169    170 188.2   1.8  33972  286.41 0855.49
2009/04/23 07:39:04.7     -43   -217    -18    222    223 191.3  -4.9  33972  286.41 0855.49
2009/04/23 07:39:04.8     -11   -253    -13    254    255 182.5  -3.1  33976  286.47 0855.49
2009/04/23 07:39:04.9     -18   -236     -9    237    238 184.4  -2.2  33976  286.45 0855.49
2009/04/23 07:39:05.0      -4   -256     -1    257    258 181.1  -0.3  33976  286.45 0855.49
2009/04/23 07:39:05.1     -31   -267     13    269    270 186.7   2.9  33974  286.42 0855.49
2009/04/23 07:39:05.2    -105   -250     20    272    273 202.9   4.2  33972  286.38 0855.49
2009/04/23 07:39:05.3    -111   -219     -9    246    247 207.0  -2.2  33974  286.43 0855.49
2009/04/23 07:39:05.4    -122   -206    -15    240    241 210.7  -3.7  33980  286.53 0855.49
2009/04/23 07:39:05.5     -17   -222      3    223    224 184.4   0.8  33972  286.39 0855.49
2009/04/23 07:39:05.6     -42   -246     28    250    252 189.8   6.5  33974  286.43 0855.49
2009/04/23 07:39:05.7     -32   -277     13    279    280 186.7   2.8  33972  286.40 0855.49
2009/04/23 07:39:05.8     -72   -235     -5    247    248 197.2  -1.3  33976  286.47 0855.49
2009/04/23 07:39:05.9     -62   -230     -1    239    240 195.1  -0.3  33976  286.45 0855.49
2009/04/23 07:39:06.0    -107   -231     -1    255    256 204.9  -0.3  33966  286.30 0855.49
2009/04/23 07:39:06.1     -64   -222      2    232    233 196.0   0.7  33974  286.42 0855.49
2009/04/23 07:39:06.2    -130   -209    -29    247    249 211.9  -6.7  33968  286.33 0855.49
2009/04/23 07:39:06.3     -89   -207    -20    226    227 203.4  -5.2  33968  286.32 0855.49
2009/04/23 07:39:06.4    -104   -219     -2    243    244 205.5  -0.5  33968  286.33 0855.49
2009/04/23 07:39:06.5    -139   -144    -38    201    205 224.1 -10.9  33968  286.34 0855.49
2009/04/23 07:39:06.6     -52   -133     41    143    149 201.4  16.3  33970  286.37 0855.49
2009/04/23 07:39:06.7     -49   -161     16    169    170 196.9   5.4  33970  286.37 0855.49
2009/04/23 07:39:06.8      -1   -135     30    136    140 180.5  12.6  33976  286.46 0855.49
2009/04/23 07:39:06.9      -5   -126     47    127    135 182.7  20.9  33972  286.39 0855.49
2009/04/23 07:39:07.0     -41   -124     92    131    160 198.3  38.6  33972  286.39 0855.49
2009/04/23 07:39:07.1       7   -132     88    133    159 176.9  36.7  33972  286.39 0855.49
2009/04/23 07:39:07.2      66   -112    116    131    174 149.3  46.2  33970  286.37 0855.49
2009/04/23 07:39:07.3      61    -92    113    111    158 146.6  50.4  33972  286.41 0855.49
2009/04/23 07:39:07.4      26   -136     93    139    167 168.9  37.0  33972  286.41 0855.49
2009/04/23 07:39:07.5      68   -160     93    175    198 156.8  30.3  33972  286.41 0855.49
2009/04/23 07:39:07.6      11   -154    110    155    190 175.6  39.1  33972  286.41 0855.49
2009/04/23 07:39:07.7      -8   -179     83    180    198 182.7  26.4  33972  286.41 0855.49
2009/04/23 07:39:07.8       0   -195     53    196    204 179.8  15.3  33972  286.41 0855.49
2009/04/23 07:39:07.9      32   -191     -3    194    195 170.4  -1.2  33972  286.41 0855.49
2009/04/23 07:39:08.0      60   -187    -25    197    199 162.0  -7.3  33978  286.49 0855.49
2009/04/23 07:39:08.1      73   -228     19    240    241 162.2   4.6  33974  286.43 0855.49
2009/04/23 07:39:08.2      75   -226     72    239    250 161.7  16.8  33976  286.45 0855.49
2009/04/23 07:39:08.3      53   -196     91    204    223 164.9  25.3  33976  286.46 0855.49
2009/04/23 07:39:08.4      57   -247    145    254    292 166.9  32.4  33976  286.45 0855.49
2009/04/23 07:39:08.5     100   -286    121    304    327 160.6  22.8  33976  286.45 0855.49
2009/04/23 07:39:08.6     122   -228    138    259    293 151.9  30.3  33974  286.43 0855.49
2009/04/23 07:39:08.7     134   -264     15    297    298 153.0   2.9  33976  286.47 0855.49
2009/04/23 07:39:08.8     168   -325     74    366    374 152.6  11.5  33972  286.39 0855.49
2009/04/23 07:39:08.9     105   -354     84    370    380 163.4  12.8  33974  286.43 0855.49
2009/04/23 07:39:09.0     104   -359    146    374    401 163.7  22.5  33974  286.43 0855.49
2009/04/23 07:39:09.1      77   -363    129    372    394 168.0  19.2  33974  286.43 0855.49
2009/04/23 07:39:09.2      94   -335     71    348    356 164.3  11.6  33974  286.43 0855.49
2009/04/23 07:39:09.3     -40   -381    -98    384    397 186.1 -14.3  33968  286.32 0855.49
2009/04/23 07:39:09.4     -15   -334    -42    335    338 182.6  -7.2  33974  286.43 0855.49
2009/04/23 07:39:09.5     -66   -399    -81    405    414 189.4 -11.3  33976  286.45 0855.49
2009/04/23 07:39:09.6     -41   -415    -30    418    420 185.7  -4.1  33974  286.42 0855.49
2009/04/23 07:39:09.7     -11   -374     11    375    376 181.7   1.7  33974  286.44 0855.49
2009/04/23 07:39:09.8     -89   -346    -64    358    364 194.5 -10.3  33978  286.48 0855.49
2009/04/23 07:39:09.9     -25   -396   -122    397    416 183.6 -17.2  33974  286.42 0855.49
2009/04/23 07:39:10.0      18   -395   -115    396    412 177.3 -20.8  33970  286.35 0855.49
2009/04/23 07:39:10.1      17   -364   -101    365    379 177.2 -15.5  33972  286.39 0855.49
2009/04/23 07:39:10.2      84   -394   -185    404    444 167.9 -30.7  33974  286.44 0855.49
2009/04/23 07:39:10.3      50   -376   -127    380    400 172.4 -23.6  33974  286.44 0855.49
2009/04/23 07:39:10.4      64   -375    -90    381    392 170.2 -13.4  33972  286.41 0855.49
2009/04/23 07:39:10.5     102   -335    -71    351    359 163.1 -11.5  33978  286.48 0855.49
2009/04/23 07:39:10.6     110   -366    -65    383    389 163.2  -9.7  33974  286.43 0855.49
2009/04/23 07:39:10.7     125   -349    -56    371    376 160.2  -8.7  33972  286.41 0855.48
2009/04/23 07:39:10.8     110   -346    -32    364    366 162.3  -5.1  33976  286.46 0855.48
2009/04/23 07:39:10.9      83   -361     -3    371    372 167.0  -0.6  33974  286.43 0855.48
2009/04/23 07:39:11.0     103   -363    -21    378    379 164.1  -3.2  33972  286.41 0855.48
2009/04/23 07:39:11.1      47   -364     11    368    369 172.6   1.8  33972  286.41 0855.48
2009/04/23 07:39:11.2      44   -277    -33    281    284 170.9  -6.9  33976  286.45 0855.48
2009/04/23 07:39:11.3      20   -258    -42    259    263 175.5  -9.4  33978  286.48 0855.48
2009/04/23 07:39:11.4     -28   -162    -89    165    187 190.0 -35.2  33978  286.49 0855.48
2009/04/23 07:39:11.6     -38   -196    -76    200    213 191.1 -25.9  33974  286.42 0855.48
2009/04/23 07:39:11.6     -17   -222    -57    223    231 184.5 -14.3  33974  286.42 0855.48
2009/04/23 07:39:11.7      16   -292    -75    293    303 176.9 -14.5  33974  286.42 0855.48
2009/04/23 07:39:11.8      93   -327    -18    341    342 164.1  -3.1  33974  286.44 0855.48
2009/04/23 07:39:11.9      75   -219    -95    232    250 161.1 -28.0  33964  286.25 0855.48
2009/04/23 07:39:12.0      61   -305   -120    312    334 168.7 -26.6  33976  286.45 0855.48
2009/04/23 07:39:12.1      83   -287    -75    299    309 163.7 -14.1  33976  286.47 0855.48
2009/04/23 07:39:12.2      53   -223    -98    230    250 166.4 -29.0  33978  286.50 0855.48
2009/04/23 07:39:12.4      41   -265    -92    269    284 171.1 -23.6  33974  286.42 0855.48
2009/04/23 07:39:12.5     -10   -320   -102    321    337 181.8 -17.7  33972  286.41 0855.48
2009/04/23 07:39:12.6      75   -270    -39    281    284 164.4  -8.0  33976  286.45 0855.48
2009/04/23 07:39:12.6      92   -303    -58    317    323 163.1 -10.5  33978  286.48 0855.48
2009/04/23 07:39:12.7      69   -281    -79    290    301 166.2 -15.4  33978  286.48 0855.49
2009/04/23 07:39:12.9      58   -285    -28    292    294 168.4  -5.6  33978  286.48 0855.49
2009/04/23 07:39:13.0      24   -311    -90    313    325 175.5 -20.9  33976  286.45 0855.49
2009/04/23 07:39:13.1      57   -283    -80    289    300 168.5 -15.5  33976  286.47 0855.49
2009/04/23 07:39:13.2      67   -286    -21    294    295 166.7  -4.1  33976  286.45 0855.49
2009/04/23 07:39:13.3     -25   -302    -38    304    307 184.9  -7.2  33974  286.42 0855.49
2009/04/23 07:39:13.4     -72   -303    -55    312    317 193.4 -10.1  33974  286.42 0855.49
2009/04/23 07:39:13.5     -91   -287    -83    302    313 197.6 -20.0  33974  286.42 0855.49
2009/04/23 07:39:13.6    -131   -275    -90    305    318 205.5 -21.2  33976  286.45 0855.49
2009/04/23 07:39:13.7    -157   -265   -111    308    327 210.7 -25.0  33974  286.42 0855.49
2009/04/23 07:39:13.8    -140   -263    -93    299    314 208.1 -17.3  33964  286.26 0855.49
2009/04/23 07:39:13.9    -111   -306    -68    326    334 200.1 -11.9  33972  286.39 0855.49
2009/04/23 07:39:14.0     -92   -305   -112    319    339 196.9 -19.3  33972  286.39 0855.49
2009/04/23 07:39:14.1     -78   -268    -94    280    296 196.3 -18.7  33974  286.42 0855.49
2009/04/23 07:39:14.2     -11   -247    -84    248    261 182.7 -23.3  33976  286.47 0855.49
2009/04/23 07:39:14.3     -30   -261    -87    263    277 186.7 -18.3  33972  286.40 0855.49
2009/04/23 07:39:14.4    -105   -278    -40    298    301 200.7  -7.7  33978  286.48 0855.49
2009/04/23 07:39:14.5     -25   -230    -11    232    233 186.2  -2.8  33974  286.44 0855.49
2009/04/23 07:39:14.6     -31   -198    -33    201    204 188.9  -9.3  33972  286.41 0855.49
2009/04/23 07:39:14.7     -94   -234     -7    253    254 201.8  -1.8  33972  286.40 0855.49
2009/04/23 07:39:14.8     -81   -239    -18    253    254 198.7  -4.1  33972  286.40 0855.48
2009/04/23 07:39:14.9    -131   -227     37    263    266 209.9   8.0  33968  286.33 0855.48
2009/04/23 07:39:15.0    -102   -190     50    216    222 208.3  13.1  33968  286.34 0855.48
2009/04/23 07:39:15.1     -38   -142     56    148    158 195.2  21.7  33970  286.35 0855.48
2009/04/23 07:39:15.2      19   -141     50    143    152 172.0  19.4  33972  286.39 0855.48
2009/04/23 07:39:15.3      52   -194     32    202    205 164.9   9.0  33972  286.41 0855.48
2009/04/23 07:39:15.4      71   -220     45    232    237 162.0  11.0  33976  286.45 0855.48
2009/04/23 07:39:15.5     154   -153     27    218    220 134.8   7.2  33974  286.42 0855.48
2009/04/23 07:39:15.6     124   -115    -14    170    171 132.9  -4.9  33972  286.41 0855.48
2009/04/23 07:39:15.7      40   -193     94    198    219 168.2  27.2  33972  286.41 0855.48
2009/04/23 07:39:15.8      87   -239    138    255    289 160.0  30.8  33974  286.42 0855.48
2009/04/23 07:39:15.9      69   -285    157    294    333 166.4  30.5  33970  286.35 0855.48
2009/04/23 07:39:16.0      59   -251    193    258    322 166.7  40.7  33972  286.38 0855.48
2009/04/23 07:39:16.1     163   -208    142    265    300 141.9  30.6  33972  286.38 0855.48
2009/04/23 07:39:16.2     141   -256    173    293    340 151.1  33.5  33972  286.40 0855.48
2009/04/23 07:39:16.3     209   -223    143    306    337 136.8  27.0  33972  286.40 0855.48
2009/04/23 07:39:16.4     229    -96    -32    249    252 112.8  -7.3  33976  286.45 0855.48
2009/04/23 07:39:16.5     202   -125    -71    238    249 121.8 -16.6  33974  286.42 0855.48
2009/04/23 07:39:16.6     221   -118    -26    251    253 118.2  -6.0  33974  286.42 0855.48
2009/04/23 07:39:16.7     175   -106    -10    205    206 121.3  -2.8  33972  286.39 0855.48
2009/04/23 07:39:16.8     143   -100    -19    175    177 124.9  -6.5  33974  286.44 0855.49
2009/04/23 07:39:16.9     166   -103      5    196    197 121.8   1.6  33974  286.42 0855.49
2009/04/23 07:39:17.0      74   -137     98    157    185 151.5  35.2  33972  286.39 0855.49
2009/04/23 07:39:17.1      96   -102     17    141    143 136.8   6.9  33974  286.42 0855.49
2009/04/23 07:39:17.2      60   -104      0    121    122 150.1  -0.3  33974  286.42 0855.49
2009/04/23 07:39:17.3       0   -172     -2    173    174 180.0  -0.7  33972  286.39 0855.49
2009/04/23 07:39:17.4     -30   -132     42    136    143 192.9  17.4  33968  286.34 0855.49
2009/04/23 07:39:17.5    -155   -128      8    202    203 230.4   2.3  33972  286.41 0855.49
2009/04/23 07:39:17.6     -66    -80    -16    104    106 219.7  -8.8  33972  286.39 0855.49
2009/04/23 07:39:17.7     -68    -49    -33     85     91 234.0 -26.4  33974  286.44 0855.49
2009/04/23 07:39:17.8     -64    -58    -56     87    103 227.8 -40.0  33978  286.51 0855.49
2009/04/23 07:39:17.9     -16     -5    -49     17     51 251.4 -85.6  33974  286.44 0855.49
2009/04/23 07:39:18.0      23     15     -8     28     30  57.6 -15.5  33974  286.42 0855.49
2009/04/23 07:39:18.1      42    -14     19     45     48 109.1  23.0  33976  286.46 0855.49
2009/04/23 07:39:18.2      71      9     74     72    103  82.1  50.1  33972  286.39 0855.49
2009/04/23 07:39:18.3       7     22     88     24     91  18.3  84.4  33972  286.41 0855.49
2009/04/23 07:39:18.4     -18     26     72     32     78 325.7  75.0  33976  286.46 0855.49
2009/04/23 07:39:18.5       3     41     50     42     65   4.5  56.3  33974  286.44 0855.49
2009/04/23 07:39:18.6      20     79     63     82    103  14.3  41.7  33974  286.42 0855.49
2009/04/23 07:39:18.7     -35    116     61    122    136 343.1  28.2  33968  286.34 0855.49
2009/04/23 07:39:18.8     -30     98     35    103    109 342.6  18.9  33968  286.34 0855.49
2009/04/23 07:39:18.9      54     54     80     77    111  45.0  51.2  33972  286.41 0855.49
2009/04/23 07:39:19.0      45     39     84     60    103  48.7  61.1  33972  286.41 0855.49
2009/04/23 07:39:19.1      27    -54     81     61    101 152.8  59.4  33972  286.39 0855.49
2009/04/23 07:39:19.2     -24    -63     84     68    108 200.9  56.4  33970  286.37 0855.49
2009/04/23 07:39:19.3      23    -77     76     81    111 163.1  48.0  33970  286.37 0855.49
2009/04/23 07:39:19.4     -29   -154     99    157    185 190.7  35.5  33968  286.34 0855.49
2009/04/23 07:39:19.5     -26   -190     63    192    203 187.8  18.1  33968  286.34 0855.49
2009/04/23 07:39:19.6     -16   -162     41    163    169 186.0  14.3  33970  286.35 0855.49
2009/04/23 07:39:19.7     -39   -129     95    135    165 197.0  38.6  33972  286.39 0855.49
2009/04/23 07:39:19.8     -15   -111    108    113    156 188.0  49.0  33968  286.34 0855.48
2009/04/23 07:39:19.9     -19   -111    129    113    171 189.8  54.3  33970  286.35 0855.48
2009/04/23 07:39:20.0      35    -47     95     59    111 143.0  64.7  33970  286.37 0855.48
2009/04/23 07:39:20.1      -9     46     51     47     69 348.4  52.2  33968  286.32 0855.48
2009/04/23 07:39:20.2       0     62    107     63    124 359.1  66.8  33970  286.35 0855.48
2009/04/23 07:39:20.3       0      2     83      3     83 350.3  90.0  33972  286.41 0855.48
2009/04/23 07:39:20.4     -14    -25     15     29     32 209.0  29.3  33970  286.35 0855.48
2009/04/23 07:39:20.5     -43     16      5     46     47 290.8   6.9  33970  286.35 0855.48
2009/04/23 07:39:20.6     -24     12     30     28     41 297.1  51.2  33968  286.32 0855.48
2009/04/23 07:39:20.7      32     27     99     43    107  49.6  75.0  33966  286.30 0855.48
2009/04/23 07:39:20.8      12     36    127     38    132  18.5  82.8  33970  286.37 0855.48
2009/04/23 07:39:20.9     -56     71    126     91    155 321.7  60.6  33968  286.32 0855.48
2009/04/23 07:39:21.0     -38     81    110     90    142 334.6  56.4  33970  286.35 0855.48
2009/04/23 07:39:21.1     -68     57     59     90    107 310.0  35.6  33970  286.35 0855.48
2009/04/23 07:39:21.2     -14    -49     73     52     89 196.0  61.1  33968  286.32 0855.48
2009/04/23 07:39:21.3     -67    -55    104     88    136 230.5  55.8  33970  286.35 0855.48
2009/04/23 07:39:21.4     -48   -117    115    127    171 202.3  46.9  33972  286.41 0855.48
2009/04/23 07:39:21.5     -25   -116     90    119    149 192.5  41.2  33966  286.30 0855.48
2009/04/23 07:39:21.6     -46   -105     77    115    138 203.6  37.4  33968  286.34 0855.48
2009/04/23 07:39:21.7      33     -2    -13     34     36  94.4 -23.3  33968  286.34 0855.48
2009/04/23 07:39:21.8      30    -56     90     64    110 151.1  60.6  33970  286.37 0855.48
2009/04/23 07:39:21.9      -5    -40    101     41    109 188.0  77.1  33970  286.35 0855.48
2009/04/23 07:39:22.0     -18     41     76     45     88 336.4  66.8  33968  286.34 0855.48
2009/04/23 07:39:22.1     -32     39     96     51    108 320.4  69.8  33970  286.37 0855.48
2009/04/23 07:39:22.2     -30     34     71     46     84 317.7  64.6  33970  286.35 0855.48
2009/04/23 07:39:22.3     -87     53     90    103    136 301.5  45.8  33966  286.29 0855.48
2009/04/23 07:39:22.4    -175    -89     64    197    208 242.9  18.1  33968  286.34 0855.48
2009/04/23 07:39:22.5     -95    -95     88    135    161 225.0  36.3  33968  286.34 0855.48
2009/04/23 07:39:22.6     -71   -233     59    244    252 196.9  13.7  33966  286.30 0855.48
2009/04/23 07:39:22.7     -23   -156     21    158    160 188.5   7.8  33966  286.29 0855.48
2009/04/23 07:39:22.8      21    -29      1     37     38 143.9   2.9  33964  286.25 0855.48
2009/04/23 07:39:22.9    -109    -58     63    124    139 241.6  29.2  33966  286.30 0855.48
2009/04/23 07:39:23.0     -61     39      0     73     74 302.5  -0.3  33962  286.22 0855.48
2009/04/23 07:39:23.1      45     21    117     50    127  64.6  75.5  33966  286.30 0855.48
2009/04/23 07:39:23.2     -20     -8     96     22     98 248.3  87.5  33966  286.30 0855.48
2009/04/23 07:39:23.3     -24   -119    152    122    194 191.5  56.9  33974  286.42 0855.48
2009/04/23 07:39:23.4     -47    -63    189     79    204 217.0  75.9  33968  286.34 0855.48
2009/04/23 07:39:23.5      -5    -47    141     48    148 186.2  81.2  33972  286.39 0855.48
2009/04/23 07:39:23.6     -26    -14    150     30    152 241.1  89.0  33972  286.39 0855.48
2009/04/23 07:39:23.7      20    -20    148     29    150 135.0  89.1  33974  286.42 0855.48
2009/04/23 07:39:23.8      14     -5    166     16    166 111.7  90.0  33972  286.41 0855.48
2009/04/23 07:39:23.9      33    -27    153     43    158 129.5  84.1  33970  286.35 0855.48
2009/04/23 07:39:24.0       2     27    140     28    142   4.5  89.0  33970  286.37 0855.48
2009/04/23 07:39:24.1     -26     78    111     83    138 341.7  60.0  33974  286.42 0855.48
2009/04/23 07:39:24.2      18     17     87     26     90  46.9  83.3  33972  286.41 0855.48
2009/04/23 07:39:24.3     -42   -179    167    185    249 193.4  46.9  33970  286.37 0855.48
2009/04/23 07:39:24.4      33   -101    172    107    202 161.7  64.9  33968  286.34 0855.48
2009/04/23 07:39:24.5      26    -23    117     35    122 131.3  82.8  33972  286.41 0855.48
2009/04/23 07:39:24.6      -1   -103    146    104    179 180.9  60.8  33968  286.32 0855.48
2009/04/23 07:39:24.7     -64   -135    170    150    226 205.3  54.2  33970  286.37 0855.48
2009/04/23 07:39:24.8    -125   -141    155    189    244 221.4  43.7  33970  286.37 0855.48
2009/04/23 07:39:24.9    -241    -42    152    245    288 259.9  35.0  33966  286.30 0855.48
2009/04/23 07:39:25.0    -251     30     93    253    269 277.0  21.0  33966  286.30 0855.48
2009/04/23 07:39:25.1    -258    -31     92    260    277 263.0  19.6  33964  286.25 0855.48
2009/04/23 07:39:25.2    -229    -86    175    245    301 249.4  39.3  33968  286.31 0855.48
2009/04/23 07:39:25.3    -233   -105    194    256    321 245.6  40.9  33966  286.30 0855.48
2009/04/23 07:39:25.4    -206   -114    142    236    275 241.1  33.7  33968  286.31 0855.48
2009/04/23 07:39:25.5    -176   -182     97    254    271 223.9  22.0  33964  286.26 0855.48
2009/04/23 07:39:25.6    -158   -217    109    269    290 216.1  23.1  33968  286.33 0855.48
2009/04/23 07:39:25.7     -79   -138     92    160    184 209.9  32.7  33970  286.37 0855.48
2009/04/23 07:39:25.8     -10   -111    110    112    156 185.3  49.8  33970  286.37 0855.47
2009/04/23 07:39:25.9     -41   -104    147    113    185 201.8  58.5  33966  286.30 0855.47
2009/04/23 07:39:26.0     -91    -58    154    108    188 237.5  61.5  33968  286.32 0855.47
2009/04/23 07:39:26.1    -121    -36     64    127    142 253.2  28.7  33966  286.30 0855.47
2009/04/23 07:39:26.2    -154    -73     17    171    172 244.6   5.7  33970  286.35 0855.47
2009/04/23 07:39:26.3    -197    -49     92    204    223 255.8  25.9  33968  286.32 0855.47
2009/04/23 07:39:26.4     -90   -171    154    194    247 207.9  42.7  33970  286.35 0855.47
2009/04/23 07:39:26.5     106     -7    141    107    177  94.3  59.0  33968  286.34 0855.47
2009/04/23 07:39:26.6      24   -120    105    123    161 168.4  45.1  33964  286.27 0855.47
2009/04/23 07:39:26.7       0   -174    200    175    265 180.2  54.3  33966  286.30 0855.47
2009/04/23 07:39:26.8     -29   -213    213    215    302 187.8  50.0  33974  286.43 0855.47
2009/04/23 07:39:26.9      31   -171    160    174    236 169.5  47.5  33970  286.35 0855.47
2009/04/23 07:39:27.0     -39   -191    166    196    256 191.6  44.8  33970  286.35 0855.47
2009/04/23 07:39:27.1     -36   -191    145    195    243 190.9  40.4  33970  286.35 0855.47
2009/04/23 07:39:27.2      40   -123    153    130    200 161.7  55.4  33970  286.35 0855.47
2009/04/23 07:39:27.3      23   -210    150    212    259 173.7  38.8  33970  286.36 0855.47
2009/04/23 07:39:27.4      30   -155    136    158    208 168.9  45.1  33970  286.35 0855.47
2009/04/23 07:39:27.5      22   -118    142    121    186 169.3  55.6  33970  286.35 0855.47
2009/04/23 07:39:27.6      17    -17     85     25     88 135.0  82.8  33968  286.34 0855.47
2009/04/23 07:39:27.7      -5    -27     81     28     85 191.6  81.2  33970  286.37 0855.47
2009/04/23 07:39:27.8      37    -58    140     69    156 147.5  72.8  33972  286.41 0855.46
2009/04/23 07:39:27.9      62    -22    155     67    168 110.0  75.3  33970  286.35 0855.46
2009/04/23 07:39:28.0      91    -50    138    105    173 118.9  59.0  33968  286.32 0855.46
2009/04/23 07:39:28.1      33     -7    101     34    106 103.3  81.0  33972  286.39 0855.46
2009/04/23 07:39:28.2     -15    -96    136     98    167 188.9  60.8  33970  286.35 0855.46
2009/04/23 07:39:28.3      40   -128    152    135    203 162.6  53.7  33968  286.34 0855.46
2009/04/23 07:39:28.4       4   -176    193    177    261 178.4  52.5  33968  286.31 0855.46
2009/04/23 07:39:28.5     -96   -299    183    315    364 197.8  32.9  33970  286.36 0855.46
2009/04/23 07:39:28.6      45   -114    141    123    187 158.2  54.6  33968  286.34 0855.46
2009/04/23 07:39:28.7      -2   -130    145    131    195 181.0  53.3  33964  286.27 0855.46
2009/04/23 07:39:28.8      -9   -117    176    118    211 184.4  63.2  33964  286.27 0855.46
2009/04/23 07:39:28.9     147     13    176    148    229  84.8  56.1  33968  286.32 0855.46
2009/04/23 07:39:29.0      93     -7    166     94    190  94.4  68.3  33968  286.32 0855.46
2009/04/23 07:39:29.1     142    -42    121    149    191 106.4  43.7  33970  286.37 0855.46
2009/04/23 07:39:29.2     121    -82     77    147    165 124.1  30.1  33972  286.39 0855.46
2009/04/23 07:39:29.3      37   -178     64    182    194 168.2  19.4  33970  286.37 0855.46
2009/04/23 07:39:29.4     106   -208     -1    234    235 152.8  -0.3  33974  286.42 0855.46
2009/04/23 07:39:29.5      31   -301     -8    303    304 174.0  -1.6  33968  286.31 0855.46
2009/04/23 07:39:29.6      31   -285     29    287    289 173.8   5.9  33972  286.38 0855.46
2009/04/23 07:39:29.7      17   -310    -14    311    312 176.9  -2.7  33970  286.36 0855.46
2009/04/23 07:39:29.8      54   -282     22    288    289 169.1   4.4  33970  286.36 0855.45
2009/04/23 07:39:29.9      69   -255     83    265    278 164.8  17.4  33970  286.35 0855.45
2009/04/23 07:39:30.0      72   -248     96    259    276 163.9  21.0  33974  286.42 0855.45
2009/04/23 07:39:30.1     101   -252     70    272    281 158.1  14.5  33972  286.40 0855.45
2009/04/23 07:39:30.2     147   -231    107    274    294 147.5  22.5  33970  286.35 0855.45
2009/04/23 07:39:30.3     139   -239     70    277    286 149.9  14.3  33976  286.45 0855.45
2009/04/23 07:39:30.4     127   -199     82    237    252 147.5  19.2  33972  286.40 0855.45
2009/04/23 07:39:30.5     149   -269     72    308    317 151.0  13.2  33970  286.36 0855.45
2009/04/23 07:39:30.6     138   -271     92    305    319 152.9  16.8  33968  286.31 0855.45
2009/04/23 07:39:30.7     115   -276     84    300    312 157.3  15.8  33970  286.36 0855.45
2009/04/23 07:39:30.8     141   -249    108    287    306 150.4  21.5  33972  286.38 0855.45
2009/04/23 07:39:30.9     144   -162    111    217    243 138.3  29.3  33974  286.42 0855.45
2009/04/23 07:39:31.0     133   -176    161    221    273 142.8  39.7  33966  286.30 0855.45
2009/04/23 07:39:31.1      71   -195    175    208    271 159.9  44.3  33968  286.33 0855.45
2009/04/23 07:39:31.2      26   -141    174    144    225 169.3  56.3  33970  286.37 0855.45
2009/04/23 07:39:31.3      13   -178    162    179    241 175.5  46.9  33972  286.39 0855.45
2009/04/23 07:39:31.4      50   -194    158    201    255 165.5  42.2  33972  286.40 0855.45
2009/04/23 07:39:31.5       0   -195    147    196    245 180.2  40.7  33972  286.41 0855.45
2009/04/23 07:39:31.6      30   -177    153    180    236 170.4  44.8  33970  286.35 0855.45
2009/04/23 07:39:31.7       4   -149    156    150    216 178.2  51.4  33972  286.41 0855.45
2009/04/23 07:39:31.8      37   -173    169    178    245 167.7  48.5  33970  286.37 0855.44
2009/04/23 07:39:31.9      28   -117    130    121    177 166.2  52.2  33970  286.35 0855.44
2009/04/23 07:39:32.0     -53   -116    110    128    168 204.9  45.1  33974  286.42 0855.44
2009/04/23 07:39:32.1     -93    -90     96    130    161 226.0  40.4  33974  286.42 0855.44
2009/04/23 07:39:32.2    -147    -39     42    153    159 255.0  15.6  33974  286.44 0855.44
2009/04/23 07:39:32.3    -127    -34     65    132    147 255.0  27.3  33970  286.37 0855.44
2009/04/23 07:39:32.4     -56     21     79     60     99 290.8  59.4  33972  286.41 0855.44
2009/04/23 07:39:32.5     -77    -24     76     81    111 252.3  48.0  33970  286.37 0855.44
2009/04/23 07:39:32.6     -99    -82    105    129    166 230.4  43.7  33972  286.39 0855.44
2009/04/23 07:39:32.7     -84    -22     30     88     94 254.9  18.9  33972  286.39 0855.44
2009/04/23 07:39:32.8      36     -3     82     37     89  96.1  74.0  33966  286.30 0855.44
2009/04/23 07:39:32.9     -28    -18     67     34     75 237.5  71.9  33968  286.34 0855.44
2009/04/23 07:39:33.0     -28    -28     79     41     89 225.0  70.4  33968  286.34 0855.44
2009/04/23 07:39:33.1     -24    -44    103     51    114 209.0  72.4  33968  286.34 0855.44
2009/04/23 07:39:33.2     -31    -95     95    101    138 198.5  48.0  33968  286.32 0855.44
2009/04/23 07:39:33.3     -72   -110    102    132    166 213.4  42.0  33968  286.32 0855.44
2009/04/23 07:39:33.4    -123   -121     78    173    189 225.6  26.2  33966  286.30 0855.44
2009/04/23 07:39:33.5    -146   -110    102    184    210 232.9  31.4  33970  286.35 0855.44
2009/04/23 07:39:33.6    -154    -71     88    170    191 245.2  29.5  33970  286.35 0855.44
2009/04/23 07:39:33.7    -117    -25     41    120    127 257.6  18.9  33972  286.41 0855.44
2009/04/23 07:39:33.8     -67    -92     85    114    142 216.1  40.1  33968  286.32 0855.44
2009/04/23 07:39:33.9      -5    -34     32     35     47 189.8  47.9  33968  286.32 0855.44
2009/04/23 07:39:34.0     -99    -53    -32    113    117 241.6 -20.7  33968  286.32 0855.44
2009/04/23 07:39:34.1     -82    -22    -26     86     89 254.5 -22.3  33972  286.41 0855.44
2009/04/23 07:39:34.2    -126    -17    -19    128    130 262.1  -8.8  33974  286.44 0855.44
2009/04/23 07:39:34.3    -171    -31    -18    174    175 259.6  -6.0  33978  286.49 0855.44
2009/04/23 07:39:34.4    -196    -25    -55    198    206 262.5 -15.5  33976  286.46 0855.44
2009/04/23 07:39:34.5    -223    -16    -73    224    236 265.9 -18.1  33978  286.49 0855.44
2009/04/23 07:39:34.6    -196    -28   -100    199    222 261.6 -33.1  33978  286.49 0855.44
2009/04/23 07:39:34.7    -213     15    -70    214    225 274.1 -23.8  33974  286.44 0855.44
2009/04/23 07:39:34.8    -276     30   -106    278    297 276.4 -26.4  33976  286.45 0855.44
2009/04/23 07:39:34.9    -300    -22   -115    301    322 265.6 -26.2  33978  286.48 0855.44
2009/04/23 07:39:35.0    -312    -18    -87    313    324 266.6 -20.3  33976  286.47 0855.44
2009/04/23 07:39:35.1    -272    -46    -82    276    289 260.3 -16.6  33978  286.48 0855.44
2009/04/23 07:39:35.2    -240      3   -115    241    267 270.9 -31.7  33978  286.48 0855.44
2009/04/23 07:39:35.3    -226     10   -102    227    248 272.6 -30.6  33976  286.47 0855.44
2009/04/23 07:39:35.4    -244    -18    -69    245    254 265.6 -20.4  33978  286.48 0855.44
2009/04/23 07:39:35.5    -188    -31    -69    191    203 260.5 -25.1  33976  286.46 0855.44
2009/04/23 07:39:35.6    -155    -31    -82    159    178 258.6 -33.9  33974  286.44 0855.44
2009/04/23 07:39:35.8    -130    -71    -50    149    157 241.2 -23.6  33972  286.41 0855.44
2009/04/23 07:39:35.8    -138    -70     -6    155    156 242.9  -2.2  33974  286.44 0855.45
2009/04/23 07:39:35.9    -161   -105    -16    193    194 236.7  -4.9  33974  286.44 0855.45
2009/04/23 07:39:36.0    -208    -74    -92    221    239 250.3 -28.2  33968  286.33 0855.45
2009/04/23 07:39:36.1    -192    -77    -79    208    222 248.0 -26.1  33970  286.35 0855.45
2009/04/23 07:39:36.2    -179    -39    -67    184    195 257.6 -25.1  33968  286.34 0855.45
2009/04/23 07:39:36.3    -186    -47    -76    193    207 255.6 -27.2  33974  286.42 0855.45
2009/04/23 07:39:36.4    -177    -52    -66    185    196 253.6 -24.6  33974  286.44 0855.45
2009/04/23 07:39:36.5    -183    -53    -54    191    198 253.6 -20.4  33972  286.39 0855.45
2009/04/23 07:39:36.6    -192    -45    -69    198    210 256.7 -19.4  33972  286.39 0855.45
2009/04/23 07:39:36.7    -217    -44    -74    222    234 258.3 -23.6  33972  286.39 0855.45
2009/04/23 07:39:36.8    -199    -40    -68    203    214 258.5 -23.6  33970  286.37 0855.45
2009/04/23 07:39:36.9    -198   -101    -66    223    233 242.9 -16.5  33970  286.37 0855.45
2009/04/23 07:39:37.0    -229    -77    -78    242    254 251.4 -23.0  33976  286.47 0855.45
2009/04/23 07:39:37.1    -251    -79    -85    264    277 252.5 -22.9  33970  286.36 0855.45
2009/04/23 07:39:37.2    -231    -46    -91    236    252 258.5 -26.4  33974  286.42 0855.45
2009/04/23 07:39:37.3    -199    -70    -86    212    228 250.5 -27.5  33976  286.46 0855.45
2009/04/23 07:39:37.5    -222    -28    -84    224    239 262.8 -25.9  33976  286.47 0855.45
2009/04/23 07:39:37.5    -258    -52    -92    264    279 258.6 -24.4  33976  286.45 0855.45
2009/04/23 07:39:37.6    -287    -58    -91    293    306 258.5 -22.5  33970  286.35 0855.45
2009/04/23 07:39:37.7    -256    -19    -86    257    271 265.6 -23.6  33974  286.42 0855.45
2009/04/23 07:39:37.8    -233    -78   -108    246    268 251.4 -29.7  33974  286.43 0855.45
2009/04/23 07:39:37.9    -190    -80    -77    207    220 247.2 -25.7  33974  286.42 0855.45
2009/04/23 07:39:38.0    -129    -98    -60    163    173 232.7 -25.1  33976  286.47 0855.45
2009/04/23 07:39:38.1    -167    -55    -74    176    190 251.6 -28.5  33976  286.47 0855.45
2009/04/23 07:39:38.2    -202    -45    -74    208    220 257.4 -24.6  33968  286.34 0855.45
2009/04/23 07:39:38.3    -182    -43    -53    188    196 256.5 -15.8  33968  286.32 0855.45
2009/04/23 07:39:38.4    -178      2   -103    179    206 270.8 -37.1  33970  286.35 0855.45
2009/04/23 07:39:38.5    -203     38    -97    207    228 280.6 -31.5  33972  286.41 0855.45
2009/04/23 07:39:38.6    -187     38    -38    192    196 281.7 -11.3  33964  286.27 0855.45
2009/04/23 07:39:38.7    -172     21     -8    174    175 277.2  -2.8  33966  286.29 0855.45
2009/04/23 07:39:38.8    -158    -86    -49    180    187 241.4 -15.4  33970  286.35 0855.45
2009/04/23 07:39:38.9    -149    -70    -62    165    176 244.6 -25.9  33966  286.29 0855.45
2009/04/23 07:39:39.0    -160    -79    -65    179    190 243.8 -24.8  33968  286.34 0855.45
2009/04/23 07:39:39.1    -183    -86     -7    203    204 244.7  -2.2  33974  286.44 0855.45
2009/04/23 07:39:39.2    -125    -83    -49    151    158 236.3 -23.0  33966  286.30 0855.45
2009/04/23 07:39:39.3    -129    -76      0    150    151 239.4   0.2  33972  286.39 0855.45
2009/04/23 07:39:39.4    -118    -86     -6    147    148 234.0  -2.6  33970  286.35 0855.45
2009/04/23 07:39:39.5    -104   -103    -25    147    150 225.2  -9.8  33972  286.39 0855.45
2009/04/23 07:39:39.6     -96    -96     16    136    137 225.1   6.9  33968  286.32 0855.45
2009/04/23 07:39:39.7     -48    -41    -37     64     73 229.6 -36.8  33966  286.30 0855.45
2009/04/23 07:39:39.8      -3    -47    -38     48     61 184.5 -48.1  33966  286.30 0855.46
2009/04/23 07:39:39.9       9     -5     -9     11     14 118.9 -52.3  33968  286.34 0855.46
2009/04/23 07:39:40.0       8      8     23     12     25  45.0  70.8  33970  286.37 0855.46
2009/04/23 07:39:40.1     -18     20     20     28     34 318.6  37.6  33972  286.41 0855.46
2009/04/23 07:39:40.2     -28     26     24     39     45 313.1  35.5  33974  286.42 0855.46
2009/04/23 07:39:40.3     -19    -14     20     24     31 234.0  43.8  33974  286.44 0855.46
2009/04/23 07:39:40.4     -27    -22     26     36     44 230.4  39.7  33972  286.41 0855.46
2009/04/23 07:39:40.5     -35    -22     19     42     46 237.6  25.1  33970  286.37 0855.46
2009/04/23 07:39:40.7     -54     -4     -2     55     56 265.6  -2.2  33972  286.39 0855.46
2009/04/23 07:39:40.8     -49    -13     10     51     53 254.1  11.1  33968  286.32 0855.46
2009/04/23 07:39:40.9     -41    -45     27     62     67 222.3  24.1  33972  286.41 0855.46
2009/04/23 07:39:41.0     -44    -37      7     58     59 230.4   7.1  33972  286.39 0855.46
2009/04/23 07:39:41.1     -39    -18      0     44     45 244.7   0.8  33970  286.37 0855.46
2009/04/23 07:39:41.2     -38      0      5     39     40 270.0   8.0  33966  286.30 0855.46
2009/04/23 07:39:41.3     -28      3     24     29     37 277.9  43.8  33970  286.37 0855.46
2009/04/23 07:39:41.4     -15      9     24     18     30 302.5  58.5  33970  286.37 0855.46
2009/04/23 07:39:41.5      -7      6     17     10     19 313.1  64.7  33972  286.41 0855.46
2009/04/23 07:39:41.6       0      0     13      0     13   0.0 -90.0  33970  286.35 0855.46
2009/04/23 07:39:41.7       5    -10      6     12     13 151.0  27.2  33970  286.37 0855.46
2009/04/23 07:39:41.8       5    -16      6     17     19 161.3  19.4  33970  286.37 0855.46
2009/04/23 07:39:41.9       1    -17      0     18     19 175.6   2.8  33970  286.37 0855.47
2009/04/23 07:39:42.0       3    -18      7     19     20 168.4  21.0  33970  286.37 0855.47
2009/04/23 07:39:42.1       8    -25      9     27     29 161.7  18.9  33970  286.37 0855.47
2009/04/23 07:39:42.2       9    -29     -1     31     32 161.7  -2.2  33972  286.39 0855.47
2009/04/23 07:39:42.3      11    -41     -3     43     44 164.9  -4.1  33970  286.37 0855.47
2009/04/23 07:39:42.4      23    -38     -1     45     46 149.3  -1.3  33974  286.42 0855.47
2009/04/23 07:39:42.5      42    -41     -4     59     60 134.1  -4.1  33974  286.42 0855.47
2009/04/23 07:39:42.6      43    -80     -3     92     93 151.5  -2.2  33974  286.44 0855.47
2009/04/23 07:39:42.7      12    -86      3     87     88 171.5   2.3  33974  286.42 0855.47
2009/04/23 07:39:42.8      10    -82    -20     83     86 172.9 -13.9  33974  286.42 0855.47
2009/04/23 07:39:42.9      37    -79    -24     88     91 154.6 -20.2  33974  286.42 0855.46
2009/04/23 07:39:43.0      44    -82    -28     94     99 151.9 -16.6  33972  286.41 0855.46
2009/04/23 07:39:43.1      26    -88     -4     92     93 163.5  -2.6  33972  286.39 0855.46
2009/04/23 07:39:43.2      13    -80     -3     82     83 170.2  -2.2  33972  286.39 0855.46
2009/04/23 07:39:43.3      10    -70     -2     71     72 171.1  -2.2  33968  286.34 0855.46
2009/04/23 07:39:43.4      24    -73     25     78     83 161.5  17.9  33970  286.37 0855.46
2009/04/23 07:39:43.5      35    -63      3     73     74 151.0   2.8  33974  286.42 0855.46
2009/04/23 07:39:43.6      42    -80    -13     91     92 151.9  -8.2  33972  286.39 0855.46
2009/04/23 07:39:43.7      32    -96     18    102    104 161.7  10.1  33972  286.41 0855.46
2009/04/23 07:39:43.8     101    -76     10    127    128 127.3   4.9  33972  286.41 0855.46
2009/04/23 07:39:43.9      86    -84     50    121    130 134.6  23.6  33974  286.42 0855.46
2009/04/23 07:39:44.0     105    -29     78    110    134 105.5  38.6  33974  286.42 0855.46
2009/04/23 07:39:44.1     149      6     62    150    162  87.5  23.6  33972  286.39 0855.46
2009/04/23 07:39:44.2     106     -4     13    107    108  92.6   7.1  33976  286.46 0855.46
2009/04/23 07:39:44.3     127    -50     11    137    138 111.7   5.0  33974  286.44 0855.46
2009/04/23 07:39:44.4     163    -26     41    166    171  99.2  13.9  33980  286.52 0855.46
2009/04/23 07:39:44.5     166    -11      2    167    168  93.9   1.0  33978  286.51 0855.46
2009/04/23 07:39:44.6     147      0     60    148    159  90.4  23.4  33978  286.51 0855.46
2009/04/23 07:39:44.7     178    -13     74    179    193  94.4  23.4  33976  286.47 0855.46
2009/04/23 07:39:44.8     209     24     93    211    230  83.2  25.3  33972  286.39 0855.46
2009/04/23 07:39:44.9     211     16     81    212    226  85.4  22.0  33972  286.39 0855.47
2009/04/23 07:39:45.0     203     21     71    205    218  83.9  19.2  33972  286.39 0855.47
2009/04/23 07:39:45.1     243      7     65    244    253  88.3  15.0  33972  286.40 0855.47
2009/04/23 07:39:45.2     222      1     74    223    235  89.6  18.4  33970  286.35 0855.47
2009/04/23 07:39:45.3     241    -12     52    242    248  93.0  12.1  33972  286.40 0855.47
2009/04/23 07:39:45.4     204      0     35    205    209  90.0   9.9  33972  286.41 0855.47
2009/04/23 07:39:45.5     190    -25     49    192    199  97.7  14.3  33974  286.42 0855.47
2009/04/23 07:39:45.6     169     14     46    170    177  85.0  15.3  33970  286.37 0855.47
2009/04/23 07:39:45.7     190     26     76    192    206  82.1  23.0  33972  286.41 0855.47
2009/04/23 07:39:45.8     175     44     15    181    182  75.8   4.9  33974  286.44 0855.47
2009/04/23 07:39:45.9     101     60     33    118    123  59.3  15.8  33970  286.35 0855.47
2009/04/23 07:39:46.0     158     74    132    175    219  64.8  40.7  33976  286.46 0855.47
2009/04/23 07:39:46.1     195     38     83    199    215  78.8  23.8  33974  286.42 0855.47
2009/04/23 07:39:46.2     142     24    116    145    185  80.3  43.3  33972  286.41 0855.47
2009/04/23 07:39:46.3     128      7    104    129    165  86.5  43.0  33968  286.32 0855.47
2009/04/23 07:39:46.4      82     -8     97     83    127  95.7  54.8  33968  286.32 0855.47
2009/04/23 07:39:46.5      26    -28     82     39     90 136.6  72.9  33970  286.37 0855.47
2009/04/23 07:39:46.6      57    -74    101     94    137 142.2  52.2  33966  286.30 0855.47
2009/04/23 07:39:46.7      47   -120    116    129    173 158.6  46.9  33968  286.32 0855.47
2009/04/23 07:39:46.8      59   -166    115    177    211 160.2  35.7  33972  286.39 0855.47
2009/04/23 07:39:46.9      70   -204     78    216    229 161.1  20.7  33976  286.46 0855.46
2009/04/23 07:39:47.0     110   -200     74    229    241 151.1  17.9  33974  286.43 0855.46
2009/04/23 07:39:47.1      87   -163    100    185    210 151.9  30.8  33974  286.42 0855.46
2009/04/23 07:39:47.2     102   -158    112    189    219 147.0  33.5  33974  286.42 0855.46
2009/04/23 07:39:47.3     122   -127     95    177    200 136.3  30.6  33974  286.44 0855.46
2009/04/23 07:39:47.4     172   -109     72    204    217 122.4  19.6  33976  286.46 0855.46
2009/04/23 07:39:47.5     159   -135    111    209    236 130.4  30.3  33974  286.42 0855.46
2009/04/23 07:39:47.6     129   -142    123    193    228 137.7  35.6  33978  286.49 0855.46
2009/04/23 07:39:47.7     223   -162     89    276    291 126.0  17.9  33974  286.42 0855.46
2009/04/23 07:39:47.8      19   -206    146    207    253 174.7  38.6  33966  286.30 0855.46
2009/04/23 07:39:47.9     -43   -142    140    149    204 196.9  48.2  33972  286.39 0855.46
2009/04/23 07:39:48.0      40    -21    105     46    114 118.0  75.0  33970  286.35 0855.46
2009/04/23 07:39:48.1      23    -61     76     66    100 159.1  54.3  33974  286.42 0855.46
2009/04/23 07:39:48.2     128    -30    157    132    205 103.3  55.8  33974  286.44 0855.46
2009/04/23 07:39:48.3     122    -99    135    158    207 129.1  44.8  33972  286.41 0855.46
2009/04/23 07:39:48.4     113   -124     75    169    184 137.7  25.7  33972  286.39 0855.46
2009/04/23 07:39:48.5      61   -172    118    183    217 160.4  35.6  33968  286.34 0855.46
2009/04/23 07:39:48.6      26   -190    107    192    219 172.2  31.4  33970  286.35 0855.46
2009/04/23 07:39:48.7      10   -142     88    143    167 175.6  34.8  33970  286.37 0855.46
2009/04/23 07:39:48.8      -5   -126     61    127    140 182.7  27.3  33972  286.39 0855.46
2009/04/23 07:39:48.9     -30    -89    124     94    155 198.7  59.0  33968  286.34 0855.46
2009/04/23 07:39:49.0      32    -88     72     94    118 159.5  41.6  33968  286.34 0855.46
2009/04/23 07:39:49.1      77   -120     95    143    171 147.4  36.7  33974  286.44 0855.46
2009/04/23 07:39:49.2      67   -121     90    139    165 151.1  35.7  33970  286.37 0855.46
2009/04/23 07:39:49.3      97    -80     92    126    156 129.6  39.7  33972  286.41 0855.46
2009/04/23 07:39:49.4     121    -77     90    144    169 122.4  35.2  33972  286.39 0855.46
2009/04/23 07:39:49.5      79    -74     66    109    127 133.2  34.0  33974  286.44 0855.46
2009/04/23 07:39:49.6      84    -97     31    129    133 139.0  13.7  33974  286.44 0855.46
2009/04/23 07:39:49.7      90    -88     54    127    138 134.4  24.1  33972  286.39 0855.46
2009/04/23 07:39:49.8      68    -79     80    105    132 139.5  41.6  33972  286.41 0855.46
2009/04/23 07:39:49.9      86    -80     70    118    137 132.7  33.5  33972  286.41 0855.46
2009/04/23 07:39:50.0      85   -103     51    134    143 140.3  21.5  33974  286.42 0855.46
2009/04/23 07:39:50.1      72   -126     77    146    165 150.1  30.1  33974  286.42 0855.46
2009/04/23 07:39:50.3      74   -134     71    154    169 151.1  26.6  33970  286.37 0855.46
2009/04/23 07:39:50.4      56   -110     74    124    144 152.9  34.0  33970  286.37 0855.46
2009/04/23 07:39:50.5      45    -82     68     94    116 151.0  39.7  33970  286.35 0855.46
2009/04/23 07:39:50.6      51    -67     64     85    106 142.6  40.7  33970  286.37 0855.46
2009/04/23 07:39:50.7      37    -58     64     70     94 147.4  47.5  33970  286.37 0855.46
2009/04/23 07:39:50.8      71    -26     82     76    111 110.8  52.2  33970  286.37 0855.46
2009/04/23 07:39:50.9     110    -22     74    113    135 101.4  35.6  33972  286.41 0855.45
2009/04/23 07:39:51.0     106      6     30    107    112  86.5  15.8  33976  286.47 0855.45
2009/04/23 07:39:51.1     135    -28     14    138    139 101.9   5.9  33974  286.44 0855.45
2009/04/23 07:39:51.2     136     -5      9    137    138  92.5   3.8  33976  286.46 0855.45
2009/04/23 07:39:51.3     128    -60    -28    142    145 115.4 -11.5  33976  286.46 0855.45
2009/04/23 07:39:51.4      89    -54    -29    105    108 121.1 -20.2  33976  286.46 0855.45
2009/04/23 07:39:51.5     111    -24    -39    114    120 102.4 -23.3  33970  286.37 0855.45
2009/04/23 07:39:51.6     144    -21    -42    146    151  98.4 -21.2  33974  286.42 0855.45
2009/04/23 07:39:51.7     130     -9    -16    131    133  94.3  -7.2  33972  286.39 0855.45
2009/04/23 07:39:51.8     122    -22    -19    125    127 100.6  -8.8  33976  286.46 0855.45
2009/04/23 07:39:51.9     189      0    -10    190    191  90.0  -3.2  33994  286.76 0855.45
2009/04/23 07:39:52.0     133     27     -9    136    137  78.5  -4.1  33992  286.74 0855.45
2009/04/23 07:39:52.1     149     42    -40    155    161  74.1 -14.7  33996  286.81 0855.45
2009/04/23 07:39:52.2     136     53    -35    146    151  68.7 -13.4  33982  286.56 0855.45
2009/04/23 07:39:52.3      84     68      6    109    110  50.9   3.3  33980  286.52 0855.45
2009/04/23 07:39:52.4      70     49     21     86     89  54.9  14.3  33976  286.46 0855.45
2009/04/23 07:39:52.5      57     22     11     62     63  68.3  10.1  33974  286.44 0855.45
2009/04/23 07:39:52.6      54     21      5     59     60  68.3   4.9  33980  286.52 0855.45
2009/04/23 07:39:52.7      50     34      9     61     62  55.8   9.0  33980  286.54 0855.45
2009/04/23 07:39:52.8      38     12     12     41     43  71.6  17.3  33982  286.57 0855.45
2009/04/23 07:39:52.9      31    -14     11     35     37 115.3  17.3  33986  286.64 0855.45
2009/04/23 07:39:53.0      59    -37      1     70     71 122.5   0.8  33986  286.62 0855.45
2009/04/23 07:39:53.1      63    -70     -9     95     96 137.7  -5.6  33982  286.56 0855.45
2009/04/23 07:39:53.2      23    -69      3     73     74 161.3   2.9  33976  286.46 0855.45
2009/04/23 07:39:53.3       0    -54     -7     55     56 180.9  -7.3  33976  286.47 0855.45
2009/04/23 07:39:53.4      19    -68     18     71     74 164.0  14.3  33972  286.39 0855.45
2009/04/23 07:39:53.5      22    -87     42     90     99 165.7  27.1  33974  286.42 0855.45
2009/04/23 07:39:53.6       6   -114     71    115    135 176.9  35.5  33978  286.51 0855.45
2009/04/23 07:39:53.7      45   -121     78    130    151 159.5  34.0  33976  286.47 0855.45
2009/04/23 07:39:53.8      35   -168     60    172    183 168.2  19.2  33978  286.49 0855.45
2009/04/23 07:39:53.9      64   -210     76    220    233 163.1  19.2  33976  286.46 0855.45
2009/04/23 07:39:54.0     101   -179     75    206    219 150.4  20.9  33976  286.46 0855.45
2009/04/23 07:39:54.1     138   -154     40    207    211 138.1  11.1  33974  286.44 0855.45
2009/04/23 07:39:54.2      74   -193     72    207    220 158.8  19.2  33974  286.42 0855.45
2009/04/23 07:39:54.3     124   -177    112    217    244 145.0  29.3  33978  286.48 0855.45
2009/04/23 07:39:54.4     135   -185    101    230    251 143.9  25.2  33978  286.50 0855.45
2009/04/23 07:39:54.5     125   -191    113    229    255 146.6  28.2  33978  286.48 0855.45
2009/04/23 07:39:54.6     156   -176    110    236    260 138.5  27.0  33978  286.50 0855.45
2009/04/23 07:39:54.7     154   -163     88    225    241 136.7  22.3  33976  286.47 0855.45
2009/04/23 07:39:54.8     100   -152     97    183    207 146.6  30.3  33972  286.41 0855.45
2009/04/23 07:39:54.9      36   -136     89    141    166 164.9  35.5  33972  286.41 0855.45
2009/04/23 07:39:55.0      49    -90     80    103    130 151.0  41.7  33974  286.44 0855.45
2009/04/23 07:39:55.1      58    -91     75    108    131 147.5  38.0  33976  286.46 0855.45
2009/04/23 07:39:55.2       8    -91     84     92    124 174.7  47.5  33976  286.46 0855.45
2009/04/23 07:39:55.3      15    -73     42     75     85 168.4  31.9  33974  286.42 0855.45
2009/04/23 07:39:55.4      20    -30     28     37     46 145.7  40.7  33976  286.47 0855.45
2009/04/23 07:39:55.5      39    -35     18     53     57 132.2  19.4  33976  286.46 0855.45
2009/04/23 07:39:55.6      14    -18     49     24     54 142.2  72.9  33976  286.46 0855.45
2009/04/23 07:39:55.7      -6    -53     53     54     75 187.1  51.1  33976  286.46 0855.45
2009/04/23 07:39:55.8      -9    -64     22     65     69 188.0  19.4  33976  286.46 0855.45
2009/04/23 07:39:55.9     -32    -54     -1     63     64 210.7  -1.3  33974  286.42 0855.45
2009/04/23 07:39:56.0      -8    -30     17     32     36 195.1  29.3  33976  286.46 0855.45
2009/04/23 07:39:56.1     -26    -22     -8     35     36 230.4 -13.4  33978  286.49 0855.45
2009/04/23 07:39:56.2     -26     -7    -12     27     29 254.9 -27.4  33972  286.41 0855.45
2009/04/23 07:39:56.3     -45     -7    -17     46     49 260.3 -23.3  33972  286.41 0855.45
2009/04/23 07:39:56.4     -22    -10      8     25     27 244.7  19.4  33974  286.44 0855.45
2009/04/23 07:39:56.5     -48    -49      8     69     70 224.2   6.9  33976  286.46 0855.45
2009/04/23 07:39:56.6     -46    -56    -24     73     78 219.6 -18.7  33974  286.42 0855.45
2009/04/23 07:39:56.7     -84    -84    -41    120    126 225.0 -23.3  33972  286.39 0855.45
2009/04/23 07:39:56.8    -115    -84    -23    143    145 233.6  -9.3  33976  286.46 0855.45
2009/04/23 07:39:56.9     -98   -109    -28    147    150 221.9 -10.9  33976  286.47 0855.45
2009/04/23 07:39:57.0     -91    -88     -4    127    128 226.0  -2.2  33976  286.47 0855.45
2009/04/23 07:39:57.1     -93    -81     22    124    126 228.7  10.1  33974  286.44 0855.45
2009/04/23 07:39:57.2    -105    -82     46    134    142 231.8  18.9  33974  286.42 0855.45
2009/04/23 07:39:57.3     -97    -68     43    119    126 234.9  20.4  33976  286.46 0855.45
2009/04/23 07:39:57.4     -81    -52     48     97    108 237.1  27.3  33974  286.42 0855.45
2009/04/23 07:39:57.5    -103    -69     73    125    144 236.3  33.4  33976  286.46 0855.45
2009/04/23 07:39:57.6    -155    -98      0    184    185 237.8   0.2  33968  286.34 0855.45
2009/04/23 07:39:57.7    -133   -118     28    178    181 228.4   9.0  33970  286.35 0855.45
2009/04/23 07:39:57.8    -135    -98     -4    167    168 234.0  -1.6  33958  286.17 0855.45
2009/04/23 07:39:57.9    -161    -69     36    176    180 246.7  11.6  33972  286.39 0855.45
2009/04/23 07:39:58.0    -158    -58    -15    169    170 249.8  -5.2  33968  286.34 0855.45
2009/04/23 07:39:58.1    -142    -27     -3    145    146 259.0  -1.3  33972  286.39 0855.45
2009/04/23 07:39:58.2     -87    -29     37     92     99 251.6  23.0  33972  286.39 0855.45
2009/04/23 07:39:58.3     -41    -17     55     45     71 246.5  56.4  33974  286.42 0855.45
2009/04/23 07:39:58.4     -77     13     72     79    106 279.7  47.9  33972  286.41 0855.45
2009/04/23 07:39:58.5    -140     47     76    148    166 288.6  29.1  33972  286.39 0855.45
2009/04/23 07:39:58.6     -75     80    111    110    156 316.7  50.1  33972  286.39 0855.45
2009/04/23 07:39:58.7     -93     73     56    119    131 308.2  27.1  33972  286.41 0855.45
2009/04/23 07:39:58.8     -41     70     -3     82     83 329.7  -2.2  33970  286.35 0855.45
2009/04/23 07:39:58.9     -32    -10     69     34     76 251.4  72.8  33970  286.35 0855.46
2009/04/23 07:39:59.0     -36     12    101     38    107 288.6  79.2  33968  286.34 0855.46
2009/04/23 07:39:59.1     -79     50     75     94    120 302.4  42.7  33970  286.35 0855.46
2009/04/23 07:39:59.2     -62     29     65     69     94 295.3  49.0  33970  286.37 0855.46
2009/04/23 07:39:59.3     -31     -3     51     32     60 263.9  64.7  33970  286.37 0855.46
2009/04/23 07:39:59.4      -2    -35     50     36     61 184.4  60.5  33970  286.37 0855.46
2009/04/23 07:39:59.5     -11    -34     42     36     55 198.7  55.4  33970  286.37 0855.46
2009/04/23 07:39:59.6       5    -31     16     32     35 170.2  27.3  33972  286.39 0855.46
2009/04/23 07:39:59.7      54    -24     27     60     65 114.4  26.2  33974  286.42 0855.46
2009/04/23 07:39:59.8      52    -32     40     62     73 121.5  35.6  33974  286.44 0855.46
2009/04/23 07:39:59.9      26    -45     33     53     62 150.1  35.5  33974  286.42 0855.46
2009/04/23 07:40:00.0      33    -42     32     54     62 141.3  33.5  33974  286.42 0855.46
2009/04/23 07:40:00.1      37    -29     43     48     64 127.8  47.9  33974  286.44 0855.46
2009/04/23 07:40:00.2      58    -61     56     85    101 136.3  36.5  33976  286.47 0855.46
2009/04/23 07:40:00.3      84    -79     61    116    131 133.1  29.3  33976  286.46 0855.46
2009/04/23 07:40:00.4      34   -104     42    110    117 161.7  22.0  33976  286.47 0855.46
2009/04/23 07:40:00.5      44   -101     39    111    118 156.4  19.4  33976  286.46 0855.46
2009/04/23 07:40:00.6      61    -83     28    104    108 143.5  15.2  33974  286.44 0855.46
2009/04/23 07:40:00.7      85    -65     59    108    123 127.3  31.3  33974  286.44 0855.46
2009/04/23 07:40:00.8      57    -57     63     82    103 135.0  41.7  33974  286.44 0855.46
2009/04/23 07:40:00.9      19    -30     72     36     80 147.5  71.4  33978  286.49 0855.46
2009/04/23 07:40:01.0      -2    -75    102     76    127 181.8  59.0  33980  286.54 0855.46
2009/04/23 07:40:01.1      16    -41     92     45    102 158.2  72.8  33976  286.47 0855.46
2009/04/23 07:40:01.2       0    -57    130     58    142 180.9  74.9  33976  286.47 0855.46
2009/04/23 07:40:01.3       4     -3    126      6    126 129.5  90.0  33978  286.49 0855.46
2009/04/23 07:40:01.4      -1     -4     89      5     89 191.6  90.0  33980  286.52 0855.46
2009/04/23 07:40:01.5     -52    -55    139     76    158 223.2  69.1  33976  286.46 0855.46
2009/04/23 07:40:01.6     -28    -73    105     79    131 200.9  59.0  33974  286.42 0855.46
2009/04/23 07:40:01.7     -23    -66     93     70    116 199.2  59.4  33974  286.42 0855.46
2009/04/23 07:40:01.8      -7      9     19     12     22 323.9  64.7  33970  286.35 0855.46
2009/04/23 07:40:01.9     -11     87     37     88     95 352.4  24.1  33974  286.44 0855.46
2009/04/23 07:40:02.0       0    110     65    111    128   0.0  33.5  33980  286.54 0855.46
2009/04/23 07:40:02.1      54     14     53     56     77  74.9  49.0  33978  286.51 0855.46
2009/04/23 07:40:02.2      39    -32      5     51     52 129.5   5.9  33978  286.49 0855.46
2009/04/23 07:40:02.3      39      0     21     40     45  89.2  30.3  33976  286.46 0855.46
2009/04/23 07:40:02.4     -32    -39     36     51     62 219.6  39.5  33976  286.46 0855.46
2009/04/23 07:40:02.5       9    -91     64     92    112 174.2  38.6  33974  286.42 0855.46
2009/04/23 07:40:02.6      51    -24     68     57     88 115.4  55.8  33974  286.44 0855.46
2009/04/23 07:40:02.7      11    -58     44     60     74 168.5  39.7  33976  286.46 0855.46
2009/04/23 07:40:02.8     -12   -103     29    104    109 187.1  15.8  33974  286.44 0855.46
2009/04/23 07:40:02.9     -28   -117    -11    121    122 193.4  -5.2  33974  286.44 0855.46
2009/04/23 07:40:03.0      22    -82     26     85     90 164.9  17.3  33974  286.44 0855.46
2009/04/23 07:40:03.1      36    -74     56     83    100 153.7  37.0  33976  286.47 0855.46
2009/04/23 07:40:03.2      59    -63     46     87     98 137.2  29.8  33972  286.41 0855.46
2009/04/23 07:40:03.3      32    -40     35     52     62 141.3  37.6  33974  286.42 0855.46
2009/04/23 07:40:03.4      44      1     36     45     57  88.3  43.7  33974  286.44 0855.46
2009/04/23 07:40:03.5       8    -45     30     46     54 169.3  35.6  33976  286.46 0855.46
2009/04/23 07:40:03.6       3    -62     31     63     70 176.4  27.3  33972  286.41 0855.46
2009/04/23 07:40:03.7      48    -33     31     59     66 124.2  30.3  33976  286.47 0855.46
2009/04/23 07:40:03.8      54     -6     -9     55     56  97.0  -9.3  33976  286.47 0855.46
2009/04/23 07:40:03.9      58     -1    -50     59     77  91.7 -48.2  33976  286.47 0855.46
2009/04/23 07:40:04.0     123    -25    -36    126    131 101.9 -20.7  33976  286.46 0855.46
2009/04/23 07:40:04.1      95    -18     27     97    101 101.0  15.8  33978  286.49 0855.46
2009/04/23 07:40:04.2      86     -8     26     87     91  95.7  16.8  33976  286.46 0855.46
2009/04/23 07:40:04.3      59    -14     37     61     71 103.3  35.5  33978  286.49 0855.46
2009/04/23 07:40:04.4      42     -3     42     43     60  95.2  50.0  33978  286.51 0855.46
2009/04/23 07:40:04.5      33    -19     38     39     54 120.7  51.1  33976  286.47 0855.46
2009/04/23 07:40:04.6      56    -41     46     70     83 126.0  36.0  33978  286.49 0855.46
2009/04/23 07:40:04.7      16    -48     64     51     81 161.7  57.5  33974  286.44 0855.46
2009/04/23 07:40:04.8       5    -67     65     68     94 175.6  49.4  33974  286.44 0855.46
2009/04/23 07:40:04.9       0    -53     47     54     71 180.9  44.8  33976  286.47 0855.46
2009/04/23 07:40:05.0     -33    -79     41     86     95 203.2  27.2  33976  286.46 0855.46
2009/04/23 07:40:05.1       6    -68     42     69     80 174.7  34.0  33976  286.46 0855.46
2009/04/23 07:40:05.2       9    -62     54     63     82 171.1  45.4  33974  286.42 0855.46
2009/04/23 07:40:05.3       8    -47     67     48     82 169.3  61.1  33974  286.42 0855.46
2009/04/23 07:40:05.4      -1    -30     59     31     66 182.6  69.8  33974  286.42 0855.46
2009/04/23 07:40:05.5     -15    -58     51     61     79 195.2  44.3  33970  286.37 0855.46
2009/04/23 07:40:05.6     -41    -46     40     62     73 221.4  35.6  33972  286.41 0855.46
2009/04/23 07:40:05.7     -51    -63     31     82     87 218.7  21.0  33972  286.41 0855.46
2009/04/23 07:40:05.8     -42    -76     29     88     93 209.0  18.4  33974  286.42 0855.46
2009/04/23 07:40:05.9     -58    -79      6     99    100 216.1   3.8  33972  286.39 0855.46
2009/04/23 07:40:06.0     -91    -66      5    113    114 234.1   2.8  33972  286.41 0855.46
2009/04/23 07:40:06.1    -108    -81     -7    135    136 233.1  -3.1  33968  286.34 0855.46
2009/04/23 07:40:06.2    -103    -86    -17    135    137 230.4  -7.3  33968  286.32 0855.46
2009/04/23 07:40:06.3    -126    -75    -18    147    149 239.3  -7.3  33968  286.32 0855.46
2009/04/23 07:40:06.4    -114    -68     -6    133    134 239.3  -2.6  33968  286.32 0855.46
2009/04/23 07:40:06.6    -118    -68     -5    137    138 239.8  -2.2  33966  286.29 0855.46
2009/04/23 07:40:06.7    -113    -53     -8    126    127 244.7  -3.7  33960  286.19 0855.46
2009/04/23 07:40:06.7     -91    -50     -6    104    105 241.1  -3.7  33962  286.24 0855.46
2009/04/23 07:40:06.8     -97    -26     10    101    102 255.0   5.9  33962  286.24 0855.46
2009/04/23 07:40:06.9    -124    -37     21    130    132 253.2   9.5  33960  286.19 0855.46
2009/04/23 07:40:07.0    -104    -34     54    110    122 251.8  27.8  33966  286.30 0855.46
2009/04/23 07:40:07.1    -110    -37     41    117    125 251.4  19.4  33964  286.25 0855.46
2009/04/23 07:40:07.2    -114    -37     40    121    128 251.8  18.4  33964  286.27 0855.46
2009/04/23 07:40:07.3    -142    -20      7    144    145 262.0   2.8  33960  286.20 0855.46
2009/04/23 07:40:07.4    -128    -30    -10    132    133 256.8  -4.6  33960  286.19 0855.46
2009/04/23 07:40:07.5    -112    -36      9    118    119 251.8   4.4  33962  286.24 0855.46
2009/04/23 07:40:07.6    -147    -56    -13    158    159 249.2  -4.9  33960  286.20 0855.46
2009/04/23 07:40:07.8    -132     -2    -11    133    134 268.7  -5.1  33964  286.27 0855.46
2009/04/23 07:40:07.9    -104      7    -32    105    110 274.3 -17.0  33964  286.25 0855.46
2009/04/23 07:40:08.0     -82    -22    -33     86     92 254.5 -25.9  33966  286.29 0855.46
2009/04/23 07:40:08.0     -58    -91      0    108    109 212.5  -0.3  33966  286.29 0855.46
2009/04/23 07:40:08.1     -56    -88     14    105    107 212.5   8.0  33964  286.27 0855.46
2009/04/23 07:40:08.3    -115   -108    -33    158    162 226.8 -11.9  33968  286.34 0855.46
2009/04/23 07:40:08.4    -113    -23    -36    116    122 258.5 -17.6  33968  286.32 0855.46
2009/04/23 07:40:08.5    -109    -13    -48    110    120 263.0 -29.5  33970  286.37 0855.46
2009/04/23 07:40:08.6    -127    -15    -75    128    148 263.0 -37.8  33968  286.32 0855.46
2009/04/23 07:40:08.7    -148    -35      7    153    154 256.7   2.8  33964  286.27 0855.46
2009/04/23 07:40:08.8     -96    -21     38     99    106 257.6  22.0  33968  286.32 0855.46
2009/04/23 07:40:08.9     -49    -59     67     77    102 219.6  45.8  33966  286.29 0855.46
2009/04/23 07:40:09.0     -23    -86     51     90    103 195.1  31.4  33964  286.27 0855.46
2009/04/23 07:40:09.1     -10    -81     68     82    106 187.6  43.8  33964  286.27 0855.46
2009/04/23 07:40:09.2     -18    -91     46     93    103 191.6  27.8  33964  286.27 0855.46
2009/04/23 07:40:09.3      -1   -120     22    121    124 180.5  10.6  33964  286.27 0855.46
2009/04/23 07:40:09.4      -5   -121     24    122    125 182.7  11.1  33966  286.29 0855.46
2009/04/23 07:40:09.5      -1   -103     14    104    106 180.9   8.0  33966  286.30 0855.46
2009/04/23 07:40:09.6     -10    -80     -7     81     82 187.6  -5.2  33966  286.29 0855.46
2009/04/23 07:40:09.7     -29    -85     -5     91     92 199.2  -3.7  33968  286.32 0855.46
2009/04/23 07:40:09.8     -45    -98     -4    109    110 204.9  -2.6  33966  286.30 0855.46
2009/04/23 07:40:09.9     -19   -108    -38    110    117 190.2 -19.1  33966  286.30 0855.46
2009/04/23 07:40:10.0      -8   -105    -30    106    110 184.5 -20.2  33966  286.29 0855.46
2009/04/23 07:40:10.1      21   -105    -52    108    119 168.5 -31.7  33966  286.29 0855.46
2009/04/23 07:40:10.2      74    -87    -42    115    122 139.5 -25.3  33968  286.32 0855.46
2009/04/23 07:40:10.3      87    -64    -19    109    111 126.4 -10.3  33968  286.34 0855.46
2009/04/23 07:40:10.4      60    -84    -30    104    108 144.4 -20.7  33968  286.34 0855.46
2009/04/23 07:40:10.5      79    -65    -13    103    104 129.5  -7.3  33968  286.34 0855.46
2009/04/23 07:40:10.6      60    -61    -22     86     89 135.3 -14.5  33970  286.35 0855.46
2009/04/23 07:40:10.7      64    -41    -23     77     81 122.5 -16.6  33972  286.39 0855.46
2009/04/23 07:40:10.8      70    -18    -14     73     75 105.0 -11.3  33970  286.37 0855.46
2009/04/23 07:40:10.9      66      7     13     67     69  83.9  11.0  33968  286.34 0855.46
2009/04/23 07:40:11.0      66      3     37     67     76  87.4  31.4  33972  286.39 0855.46
2009/04/23 07:40:11.1      68      0     39     69     79  90.0  32.4  33972  286.41 0855.46
2009/04/23 07:40:11.2      73      0     71     74    102  90.0  49.0  33970  286.35 0855.46
2009/04/23 07:40:11.3      64      7     49     65     81  83.0  41.2  33972  286.39 0855.46
2009/04/23 07:40:11.4      67     13     79     69    104  78.5  54.3  33972  286.39 0855.46
2009/04/23 07:40:11.5      76    -15     89     78    118 101.4  54.3  33972  286.39 0855.46
2009/04/23 07:40:11.6      81     24     65     85    107  73.2  41.2  33970  286.37 0855.46
2009/04/23 07:40:11.7      76     34     51     84     98  66.0  34.4  33970  286.35 0855.46
2009/04/23 07:40:11.8      76     48     35     91     97  57.6  21.5  33972  286.39 0855.46
2009/04/23 07:40:11.9      66     31     40     74     84  64.8  31.4  33972  286.41 0855.46
2009/04/23 07:40:12.0      26     -8     12     28     30 108.6  25.1  33972  286.39 0855.46
2009/04/23 07:40:12.1      -4    -30      7     31     32 188.0  13.2  33972  286.39 0855.46
2009/04/23 07:40:12.2      -3    -29     -5     30     31 186.2  -9.3  33972  286.41 0855.46
2009/04/23 07:40:12.3      -5    -34    -13     35     37 189.8 -23.3  33972  286.41 0855.46
2009/04/23 07:40:12.4     -35    -39    -20     53     56 221.4 -24.4  33970  286.37 0855.46
2009/04/23 07:40:12.5     -60    -77      5     98     99 217.8   3.3  33972  286.41 0855.46
2009/04/23 07:40:12.6     -48    -89      9    102    103 208.5   5.4  33972  286.41 0855.46
2009/04/23 07:40:12.7     -45    -88     35     99    106 207.2  19.4  33970  286.37 0855.46
2009/04/23 07:40:12.8     -36   -103     44    110    118 199.2  23.0  33972  286.41 0855.46
2009/04/23 07:40:12.9     -39   -109     68    117    135 200.0  33.4  33974  286.42 0855.46
2009/04/23 07:40:13.0     -47   -143     53    151    161 198.3  19.4  33968  286.34 0855.46
2009/04/23 07:40:13.1     -67   -147     38    162    167 204.5  13.2  33968  286.34 0855.46
2009/04/23 07:40:13.2     -66   -164    -17    178    179 202.1  -5.6  33970  286.37 0855.46
2009/04/23 07:40:13.3    -126   -148    -41    195    200 220.3 -11.9  33970  286.37 0855.46
2009/04/23 07:40:13.4    -106   -142    -22    178    180 216.7  -7.3  33968  286.32 0855.46
2009/04/23 07:40:13.5     -69   -164     -5    179    180 202.9  -1.6  33966  286.30 0855.46
2009/04/23 07:40:13.6     -56   -181     21    190    192 197.4   6.5  33972  286.41 0855.46
2009/04/23 07:40:13.7     -65   -185     17    197    198 199.6   5.0  33968  286.34 0855.46
2009/04/23 07:40:13.8     -48   -193     20    199    201 194.0   5.9  33968  286.34 0855.46
2009/04/23 07:40:13.9     -73   -207     14    220    221 199.6   3.8  33970  286.35 0855.46
2009/04/23 07:40:14.0     -92   -219     -1    238    239 202.9  -0.3  33972  286.38 0855.46
2009/04/23 07:40:14.1     -87   -200     11    219    220 203.6   2.9  33970  286.35 0855.46
2009/04/23 07:40:14.2    -100   -222    -26    244    246 204.3  -6.2  33972  286.40 0855.46
2009/04/23 07:40:14.3     -75   -202    -12    216    217 200.5  -3.2  33970  286.37 0855.46
2009/04/23 07:40:14.4     -55   -168    -52    177    184 198.3 -21.2  33972  286.39 0855.46
2009/04/23 07:40:14.5     -72   -147    -55    164    172 206.1 -23.6  33980  286.54 0855.46
2009/04/23 07:40:14.6     -39   -167    -55    172    181 193.4 -17.9  33978  286.49 0855.46
2009/04/23 07:40:14.7      13   -167    -60    168    179 175.5 -19.7  33976  286.47 0855.46
2009/04/23 07:40:14.8     -66   -167    -64    180    192 201.6 -19.7  33966  286.29 0855.46
2009/04/23 07:40:14.9     -97    -90    -88    133    159 226.9 -41.1  33976  286.46 0855.46
2009/04/23 07:40:15.0     -69   -173    -74    187    201 201.8 -27.2  33976  286.47 0855.46
2009/04/23 07:40:15.1    -101    -84   -142    132    193 230.4 -56.5  33976  286.46 0855.46
2009/04/23 07:40:15.2     -51   -154   -118    163    201 198.3 -44.1  33970  286.37 0855.46
2009/04/23 07:40:15.3      31   -163    -21    167    169 169.1  -7.5  33972  286.41 0855.46
2009/04/23 07:40:15.4      53   -192    112    200    229 164.6  31.4  33974  286.42 0855.46
2009/04/23 07:40:15.5       1   -126    127    127    179 179.5  50.1  33974  286.44 0855.46
2009/04/23 07:40:15.6     -47   -177     66    184    195 194.9  20.4  33974  286.44 0855.46
2009/04/23 07:40:15.8     -30   -177     64    180    192 189.6  19.6  33974  286.44 0855.46
2009/04/23 07:40:15.9     -75   -143     83    162    182 207.6  29.1  33974  286.44 0855.46
2009/04/23 07:40:16.0     -78   -149     65    169    181 207.6  22.3  33976  286.46 0855.46
2009/04/23 07:40:16.1     -84   -143     43    166    172 210.5  14.7  33976  286.46 0855.46
2009/04/23 07:40:16.2     -78   -123     58    147    158 212.5  22.5  33972  286.39 0855.46
2009/04/23 07:40:16.3     -73   -115     40    137    143 212.5  16.3  33968  286.34 0855.46
2009/04/23 07:40:16.4     -45   -129     40    137    143 199.6  16.3  33968  286.34 0855.46
2009/04/23 07:40:16.5     -31   -136     48    140    149 192.9  18.9  33972  286.41 0855.46
2009/04/23 07:40:16.6     -19   -137     50    139    147 188.1  20.4  33970  286.37 0855.46
2009/04/23 07:40:16.7     -28   -122     66    126    142 192.9  29.8  33972  286.39 0855.46
2009/04/23 07:40:16.8     -19    -71     55     74     92 195.1  40.7  33968  286.32 0855.46
2009/04/23 07:40:16.9     -46    -56     20     73     76 219.7  15.3  33970  286.37 0855.46
2009/04/23 07:40:17.0     -61    -81     11    102    103 217.4   6.5  33968  286.32 0855.46
2009/04/23 07:40:17.1     -78    -83    -10    115    116 223.3  -5.2  33970  286.35 0855.46
2009/04/23 07:40:17.2     -63    -85     -9    106    107 216.5  -5.2  33970  286.35 0855.46
2009/04/23 07:40:17.3     -35   -129     32    134    138 195.6  13.7  33966  286.30 0855.46
2009/04/23 07:40:17.4     -67   -131     23    148    150 207.1   8.9  33968  286.34 0855.46
2009/04/23 07:40:17.5     -52   -127     48    138    147 202.3  19.4  33968  286.32 0855.46
2009/04/23 07:40:17.6     -49   -136     52    145    154 200.1  20.0  33970  286.37 0855.46
2009/04/23 07:40:17.7     -66   -169     10    182    183 201.4   3.1  33968  286.34 0855.46
2009/04/23 07:40:17.8     -70   -126     48    145    153 209.0  18.4  33970  286.37 0855.46
2009/04/23 07:40:18.0     -53   -132     39    143    149 201.8  15.3  33972  286.39 0855.46
2009/04/23 07:40:18.0     -57   -121     46    134    142 205.3  18.9  33970  286.37 0855.46
2009/04/23 07:40:18.1     -60   -159      2    171    172 200.7   1.0  33972  286.41 0855.46
2009/04/23 07:40:18.2     -99   -180     16    206    207 208.7   4.6  33970  286.35 0855.46
2009/04/23 07:40:18.3    -143   -166      2    220    221 220.8   0.7  33970  286.35 0855.46
2009/04/23 07:40:18.4    -210    -96     -9    232    233 245.4  -2.2  33968  286.32 0855.46
2009/04/23 07:40:18.5    -233   -123    -19    264    265 242.0  -4.1  33968  286.31 0855.46
2009/04/23 07:40:18.6    -240    -18    -74    241    252 265.6 -22.1  33968  286.31 0855.46
2009/04/23 07:40:18.7    -223     16    -93    224    242 274.3 -28.2  33968  286.33 0855.46
2009/04/23 07:40:18.8    -255    -64    -89    263    277 255.8 -23.6  33966  286.28 0855.46
2009/04/23 07:40:18.9    -199    -55    -83    207    223 254.5 -27.4  33968  286.34 0855.46
2009/04/23 07:40:19.0    -189    -46   -122    195    230 256.3 -39.9  33968  286.32 0855.46
2009/04/23 07:40:19.1    -261     20    -72    262    272 274.4 -15.5  33966  286.28 0855.46
2009/04/23 07:40:19.2    -196     77    -65    211    220 291.7 -22.3  33968  286.32 0855.46
2009/04/23 07:40:19.3    -132     72    -19    151    153 298.9  -7.2  33970  286.37 0855.46
2009/04/23 07:40:19.4    -173     29    -71    176    189 279.5 -27.4  33964  286.27 0855.46
2009/04/23 07:40:19.5    -143    -27    -67    146    160 259.0 -30.6  33966  286.29 0855.46
2009/04/23 07:40:19.6    -129    -56    -52    141    150 246.4 -25.3  33970  286.35 0855.46
2009/04/23 07:40:19.7     -68    -68   -127     97    159 225.0 -63.1  33968  286.34 0855.46
2009/04/23 07:40:19.8    -148   -179   -148    233    276 219.6 -39.9  33970  286.35 0855.46
2009/04/23 07:40:19.9    -179   -212    -95    278    293 220.3 -23.6  33966  286.28 0855.46
2009/04/23 07:40:20.1     -57   -143    -34    155    159 201.8 -12.4  33968  286.34 0855.46
2009/04/23 07:40:20.2     -28   -161    -55    164    174 190.0 -18.7  33970  286.37 0855.46
2009/04/23 07:40:20.3     -52   -129     -3    140    141 201.8  -1.3  33970  286.37 0855.46
2009/04/23 07:40:20.4     -24   -144      9    147    148 189.7   3.8  33970  286.35 0855.46
2009/04/23 07:40:20.5      27   -170    -14    173    174 170.9  -4.9  33970  286.35 0855.46
2009/04/23 07:40:20.6      10   -181     15    182    183 176.6   4.9  33972  286.39 0855.46
2009/04/23 07:40:20.7       2   -135     56    136    147 179.1  23.1  33970  286.37 0855.46
2009/04/23 07:40:20.8      67   -189    -22    201    203 160.4  -6.5  33972  286.41 0855.46
2009/04/23 07:40:20.9      44   -195     17    201    202 167.1   4.9  33972  286.39 0855.46
2009/04/23 07:40:21.0      65   -153     26    167    170 157.1   9.0  33970  286.37 0855.46
2009/04/23 07:40:21.1      77   -163     17    181    182 154.5   5.4  33972  286.39 0855.46
2009/04/23 07:40:21.2      77   -206      0    221    222 159.5   0.2  33972  286.39 0855.46
2009/04/23 07:40:21.3      60   -223    -16    232    233 164.8  -4.1  33972  286.39 0855.46
2009/04/23 07:40:21.4      55   -215      6    223    224 165.5   1.6  33972  286.41 0855.46
2009/04/23 07:40:21.5      23   -222    -28    224    226 174.0  -7.2  33970  286.37 0855.46
2009/04/23 07:40:21.6      22   -205    -26    207    209 173.7  -7.2  33972  286.39 0855.46
2009/04/23 07:40:21.7       9   -204    -18    205    206 177.4  -5.2  33974  286.44 0855.46
2009/04/23 07:40:21.8      -6   -192     12    193    194 182.0   3.6  33970  286.37 0855.46
2009/04/23 07:40:21.9     -16   -182     17    183    184 185.3   5.4  33972  286.41 0855.46
2009/04/23 07:40:22.0       7   -156    -28    157    160 177.4 -10.3  33972  286.39 0855.45
2009/04/23 07:40:22.1      44   -127      6    135    136 160.8   2.9  33974  286.42 0855.45
2009/04/23 07:40:22.2      41   -168    -34    173    177 166.2 -11.3  33974  286.42 0855.45
2009/04/23 07:40:22.3      55   -182     -7    191    192 163.1  -2.2  33972  286.41 0855.45
2009/04/23 07:40:22.4      72   -190     -8    204    205 159.1  -2.3  33974  286.42 0855.45
2009/04/23 07:40:22.5      75   -206    -27    220    222 160.0  -7.2  33974  286.42 0855.45
2009/04/23 07:40:22.6      83   -165    -23    185    187 153.3  -7.3  33972  286.39 0855.45
2009/04/23 07:40:22.7      82   -174      9    193    194 154.8   2.9  33972  286.41 0855.45
2009/04/23 07:40:22.8      52   -159    -22    168    170 161.7  -7.7  33970  286.37 0855.45
2009/04/23 07:40:22.9      57   -143    -31    155    159 158.2 -11.3  33972  286.41 0855.45
2009/04/23 07:40:23.0      33   -142    -48    146    153 166.7 -23.8  33972  286.39 0855.45
2009/04/23 07:40:23.1      90   -120    -57    151    161 143.0 -26.1  33974  286.42 0855.45
2009/04/23 07:40:23.2      96   -118    -57    153    163 140.8 -25.7  33972  286.39 0855.45
2009/04/23 07:40:23.3     135   -111    -58    176    185 129.5 -23.8  33972  286.39 0855.45
2009/04/23 07:40:23.4     179    -63    -38    190    194 109.5 -11.3  33972  286.39 0855.45
2009/04/23 07:40:23.5     161    -42    -39    167    172 104.6 -13.2  33970  286.37 0855.45
2009/04/23 07:40:23.6     149    -54      2    159    160 110.0   1.0  33972  286.41 0855.45
2009/04/23 07:40:23.7     140    -66    -11    155    156 115.4  -4.1  33972  286.41 0855.45
2009/04/23 07:40:23.8     144    -43      0    151    152 106.8   0.2  33972  286.39 0855.45
2009/04/23 07:40:23.9     120    -52     24    131    134 113.5  10.6  33974  286.44 0855.45
2009/04/23 07:40:24.0     167    -77    -14    185    186 114.8  -4.4  33970  286.37 0855.45
2009/04/23 07:40:24.1     160    -66    -18    174    175 112.4  -6.0  33970  286.37 0855.45
2009/04/23 07:40:24.2     149    -30    -19    153    155 101.5  -7.2  33964  286.25 0855.45
2009/04/23 07:40:24.3     215     -3     67    216    227  90.8  17.3  33970  286.37 0855.45
2009/04/23 07:40:24.4     183     -3     47    184    191  91.0  14.5  33970  286.37 0855.45
2009/04/23 07:40:24.5     131    -35     42    136    143 105.1  17.4  33970  286.35 0855.45
2009/04/23 07:40:24.6      92    -15     48     94    105  99.7  29.3  33968  286.34 0855.45
2009/04/23 07:40:24.7      59    -63      8     87     88 136.8   5.4  33966  286.30 0855.45
2009/04/23 07:40:24.8     102    -55     27    117    121 118.4  13.2  33968  286.34 0855.45
2009/04/23 07:40:24.9      51    -47     67     70     96 133.1  49.4  33968  286.34 0855.45
2009/04/23 07:40:25.0      49    -27     75     56     93 118.9  59.4  33968  286.34 0855.45
2009/04/23 07:40:25.1      28     -9     57     30     64 108.6  69.8  33970  286.35 0855.45
2009/04/23 07:40:25.2      99    -32     50    105    116 108.2  27.2  33970  286.35 0855.45
2009/04/23 07:40:25.3     -12    -70     52     72     88 189.8  39.7  33968  286.34 0855.45
2009/04/23 07:40:25.4     -35    -93     22    100    103 200.9  12.6  33970  286.35 0855.45
2009/04/23 07:40:25.5     -53    -66     35     85     91 218.7  23.6  33970  286.35 0855.45
2009/04/23 07:40:25.6     -66    -59     42     89     98 228.2  27.1  33970  286.37 0855.45
2009/04/23 07:40:25.7     -60    -48     43     78     89 231.4  31.4  33968  286.32 0855.45
2009/04/23 07:40:25.8     -50    -60     75     79    108 219.6  48.5  33966  286.30 0855.45
2009/04/23 07:40:25.9     -24    -40     64     47     79 211.6  60.0  33968  286.34 0855.45
2009/04/23 07:40:26.0     -15    -36     65     40     76 202.7  64.7  33968  286.34 0855.45
2009/04/23 07:40:26.1     -26    -41     47     49     67 212.5  50.0  33968  286.32 0855.45
2009/04/23 07:40:26.2     -40    -34     48     53     71 229.6  47.9  33968  286.34 0855.45
2009/04/23 07:40:26.3     -72    -49     33     88     93 235.8  20.4  33968  286.32 0855.45
2009/04/23 07:40:26.4     -96    -43     36    106    113 246.0  18.9  33966  286.29 0855.45
2009/04/23 07:40:26.5    -139    -14    -17    140    142 263.9  -7.2  33968  286.32 0855.45
2009/04/23 07:40:26.6    -123    -41    -16    130    132 251.6  -7.3  33966  286.29 0855.45
2009/04/23 07:40:26.7     -57    -11     57     59     82 258.6  49.4  33966  286.29 0855.45
2009/04/23 07:40:26.8     -40    -63     72     75    103 212.6  49.0  33966  286.30 0855.45
2009/04/23 07:40:26.9     -57    -46     71     74    102 231.4  49.0  33970  286.35 0855.45
2009/04/23 07:40:27.0     -58    -70     94     91    130 219.7  50.7  33968  286.32 0855.45
2009/04/23 07:40:27.1     -12    -63    126     65    141 191.5  70.8  33968  286.32 0855.45
2009/04/23 07:40:27.2     -50    -13    115     52    126 254.9  74.5  33970  286.35 0855.45
2009/04/23 07:40:27.3    -100    -15     87    102    134 261.2  44.8  33968  286.32 0855.45
2009/04/23 07:40:27.4    -134      7     45    135    143 273.0  18.4  33968  286.32 0855.45
2009/04/23 07:40:27.5    -100     13     60    101    117 277.9  34.0  33968  286.32 0855.45
2009/04/23 07:40:27.6     -76      2     52     77     92 271.7  37.0  33968  286.32 0855.45
2009/04/23 07:40:27.7     -48     14     -3     51     52 286.8  -4.1  33966  286.30 0855.45
2009/04/23 07:40:27.8      18      6     39     19     43  71.4  72.9  33968  286.34 0855.45
2009/04/23 07:40:27.9      66     10     44     67     80  81.2  36.5  33966  286.30 0855.45
2009/04/23 07:40:28.0      63      6     55     64     84  83.9  45.8  33968  286.32 0855.45
2009/04/23 07:40:28.1      55      0     85     56    101  90.0  63.6  33964  286.27 0855.45
2009/04/23 07:40:28.2      -1      6     75      7     75 350.3  90.0  33966  286.29 0855.45
2009/04/23 07:40:28.3     -20      4     88     21     90 281.5  87.5  33964  286.25 0855.45
2009/04/23 07:40:28.4     -20    -32     45     38     58 212.6  55.4  33962  286.24 0855.45
2009/04/23 07:40:28.5     -77    -76     59    109    123 225.4  31.3  33964  286.25 0855.45
2009/04/23 07:40:28.6     -91    -63     34    111    117 235.4  17.3  33962  286.24 0855.45
2009/04/23 07:40:28.7     -63    -65     -3     91     92 224.1  -2.2  33962  286.24 0855.45
2009/04/23 07:40:28.8      21    -39     62     45     76 151.0  60.5  33960  286.19 0855.45
2009/04/23 07:40:28.9     -12     -8     59     15     60 237.6  84.9  33964  286.27 0855.45
2009/04/23 07:40:29.0      19      7     65     21     68  68.3  80.7  33964  286.27 0855.45
2009/04/23 07:40:29.1     -34    -22     73     41     83 237.5  67.7  33970  286.35 0855.45
2009/04/23 07:40:29.2     -17    -43     92     47    103 201.8  71.4  33970  286.37 0855.45
2009/04/23 07:40:29.3       2    -50     67     51     84 177.3  59.0  33968  286.34 0855.45
2009/04/23 07:40:29.4       6    -49     87     50    100 172.9  67.7  33966  286.30 0855.45
2009/04/23 07:40:29.5     -31   -138     33    142    146 192.9  13.1  33962  286.24 0855.45
2009/04/23 07:40:29.6     -63    -85     21    106    109 216.5  11.1  33956  286.14 0855.45
2009/04/23 07:40:29.7    -104    -40     49    112    122 248.7  25.1  33962  286.24 0855.45
2009/04/23 07:40:29.8    -129    -23     -8    132    133 259.9  -3.7  33962  286.22 0855.45
2009/04/23 07:40:29.9    -151     43    -15    157    158 285.9  -5.6  33960  286.20 0855.45
2009/04/23 07:40:30.0    -128     42    -22    135    137 288.2  -9.3  33962  286.22 0855.45
2009/04/23 07:40:30.1    -141     47    -44    149    155 288.6 -21.7  33962  286.24 0855.45
2009/04/23 07:40:30.2    -121     77    -33    144    148 302.4 -13.3  33964  286.25 0855.45
2009/04/23 07:40:30.3    -101     61      1    118    119 301.1   0.7  33962  286.22 0855.45
2009/04/23 07:40:30.4     -86     51     16    100    102 300.7   9.5  33966  286.29 0855.45
2009/04/23 07:40:30.5     -92     64     -2    113    114 305.1  -1.2  33962  286.22 0855.45
2009/04/23 07:40:30.6     -81     38    -17     90     92 295.3 -10.9  33964  286.27 0855.45
2009/04/23 07:40:30.7     -86     40    -55     96    110 295.2 -36.8  33966  286.30 0855.45
2009/04/23 07:40:30.8     -78    -60    -33     99    104 232.2 -23.6  33960  286.20 0855.45
2009/04/23 07:40:30.9      -3    -80     50     81     95 182.2  35.5  33964  286.25 0855.45
2009/04/23 07:40:31.0     -23   -115    106    118    158 191.5  46.9  33964  286.27 0855.44
2009/04/23 07:40:31.1     -66   -120    111    138    177 208.9  43.3  33964  286.25 0855.44
2009/04/23 07:40:31.2     -38     56     71     68     98 325.7  50.7  33962  286.24 0855.44
2009/04/23 07:40:31.3     -59    -20      3     63     64 251.4   2.9  33964  286.27 0855.44
2009/04/23 07:40:31.4     -48    -15     -9     51     52 251.8 -10.3  33964  286.25 0855.44
2009/04/23 07:40:31.5     -57      7    -12     58     60 277.0 -12.4  33962  286.24 0855.44
2009/04/23 07:40:31.6     -60     20      0     64     65 289.1   0.8  33964  286.25 0855.44
2009/04/23 07:40:31.7     -94     48     17    106    108 297.1   9.5  33966  286.30 0855.44
2009/04/23 07:40:31.9    -104     62      6    122    123 300.7   2.9  33966  286.30 0855.44
2009/04/23 07:40:31.9    -106     41     31    114    119 291.3  15.3  33966  286.29 0855.44
2009/04/23 07:40:32.0     -99      0     34    100    106 270.0  18.9  33968  286.32 0855.44
2009/04/23 07:40:32.1     -67    -22     18     71     74 251.4  14.3  33968  286.32 0855.44
2009/04/23 07:40:32.2     -56     -7    -19     57     61 262.1 -18.7  33966  286.30 0855.44
2009/04/23 07:40:32.3     -82     -1    -27     83     88 269.2 -18.1  33966  286.30 0855.44
2009/04/23 07:40:32.4     -87     15    -64     89    109 279.7 -43.9  33968  286.32 0855.44
2009/04/23 07:40:32.5     -90      4    -46     91    101 272.6 -33.1  33964  286.27 0855.44
2009/04/23 07:40:32.6     -73    -17    -25     76     80 256.7 -23.3  33964  286.27 0855.44
2009/04/23 07:40:32.7     -45    -46      0     65     66 224.2   0.8  33964  286.25 0855.44
2009/04/23 07:40:32.8     -78    -49     29     93     98 237.5  17.3  33964  286.27 0855.44
2009/04/23 07:40:32.9    -131    -58     55    144    154 246.0  21.5  33966  286.30 0855.44
2009/04/23 07:40:33.0    -160   -135     33    210    213 229.8   9.0  33964  286.27 0855.45
2009/04/23 07:40:33.1    -162   -103     37    193    197 237.6  11.1  33962  286.24 0855.45
2009/04/23 07:40:33.2    -186    -74    -28    201    204 248.3  -8.0  33966  286.30 0855.45
2009/04/23 07:40:33.3    -110      8    -30    111    116 274.4 -15.4  33968  286.32 0855.45
2009/04/23 07:40:33.4    -112    -43    -14    121    122 248.7  -6.7  33968  286.34 0855.45
2009/04/23 07:40:33.5    -202    -32    -26    205    207 261.0  -7.5  33966  286.30 0855.45
2009/04/23 07:40:33.6    -228     61   -108    237    260 285.0 -30.6  33960  286.18 0855.45
2009/04/23 07:40:33.7    -224      6     82    225    239 271.7  20.9  33964  286.25 0855.45
2009/04/23 07:40:33.8    -235      3     13    236    237 270.8   3.3  33964  286.25 0855.45
2009/04/23 07:40:34.0    -230    -46    -15    235    236 258.6  -3.7  33962  286.21 0855.45
2009/04/23 07:40:34.1    -257    -52    -43    263    267 258.5  -9.4  33962  286.23 0855.45
2009/04/23 07:40:34.2    -264      0    -68    265    274 270.0 -14.5  33960  286.20 0855.45
2009/04/23 07:40:34.2    -222      0    -33    223    226 270.0  -8.6  33956  286.14 0855.45
2009/04/23 07:40:34.4    -176     13     34    177    181 274.3  11.0  33960  286.19 0855.45
2009/04/23 07:40:34.5    -102     47     93    113    146 294.8  43.7  33960  286.19 0855.45
2009/04/23 07:40:34.6    -103     92     28    139    142 311.8  11.6  33964  286.25 0855.45
2009/04/23 07:40:34.7    -140     85     19    165    167 301.3   6.7  33964  286.25 0855.45
2009/04/23 07:40:34.8    -208    102    -42    232    236 296.2 -10.4  33962  286.21 0855.45
2009/04/23 07:40:34.9    -218     73    -46    231    236 288.6 -11.5  33960  286.20 0855.45
2009/04/23 07:40:35.0    -191    106     -2    219    220 299.1  -0.7  33960  286.20 0855.45
2009/04/23 07:40:35.1    -216    217     -6    307    308 315.1  -1.2  33966  286.28 0855.45
2009/04/23 07:40:35.2     -80    268     97    280    297 343.3  19.2  33962  286.23 0855.45
2009/04/23 07:40:35.3    -149    270     75    309    318 331.0  13.7  33964  286.25 0855.45
2009/04/23 07:40:35.4    -121    190     19    226    227 327.4   4.9  33974  286.42 0855.45
2009/04/23 07:40:35.5    -119    163     -5    203    204 323.9  -1.6  33972  286.39 0855.45
2009/04/23 07:40:35.6    -104    163    -14    194    195 327.4  -4.1  33972  286.39 0855.45
2009/04/23 07:40:35.7    -106    156     -3    189    190 325.7  -1.2  33978  286.49 0855.45
2009/04/23 07:40:35.8     -73    220    -65    232    242 341.5 -15.8  33976  286.45 0855.45
2009/04/23 07:40:35.9      -7    253    -69    254    264 358.2 -15.2  33978  286.50 0855.45
2009/04/23 07:40:36.0     -25    216    -44    218    223 353.3 -11.5  33968  286.34 0855.45
2009/04/23 07:40:36.1     -36    194    -46    198    204 349.3 -13.3  33972  286.39 0855.45
2009/04/23 07:40:36.2     -58    101    -90    117    147 330.1 -46.1  33970  286.37 0855.45
2009/04/23 07:40:36.3      -9    126    -51    127    136 355.6 -27.4  33970  286.37 0855.45
2009/04/23 07:40:36.4      18     90    -34     92     98  11.6 -25.9  33972  286.39 0855.45
2009/04/23 07:40:36.5      17     52     -9     55     56  18.7 -10.3  33972  286.41 0855.45
2009/04/23 07:40:36.6      25     41      9     49     50  31.6  11.1  33970  286.37 0855.45
2009/04/23 07:40:36.7     -16     26     17     31     35 327.5  33.5  33970  286.35 0855.45
2009/04/23 07:40:36.8     -11      3     16     12     20 288.4  58.5  33970  286.37 0855.45
2009/04/23 07:40:36.9       7     -7     35     11     36 135.0  80.7  33972  286.41 0855.45
2009/04/23 07:40:37.0      -1    -11     37     12     38 188.0  80.7  33970  286.37 0855.45
2009/04/23 07:40:37.1     -11    -25     41     28     49 203.6  62.6  33972  286.39 0855.45
2009/04/23 07:40:37.2      31    -40     44     51     67 142.2  45.8  33968  286.34 0855.45
2009/04/23 07:40:37.3      18    -40     57     44     72 155.5  57.5  33972  286.39 0855.45
2009/04/23 07:40:37.4      -8      8     44     12     45 313.1  83.9  33972  286.41 0855.45
2009/04/23 07:40:37.5     -11      8     45     14     47 306.0  81.8  33974  286.42 0855.45
2009/04/23 07:40:37.6      15     12     34     20     39  52.2  66.8  33972  286.39 0855.45
2009/04/23 07:40:37.7     -21    -60     52     64     82 199.2  43.7  33968  286.34 0855.45
2009/04/23 07:40:37.8      -9   -140     84    141    164 184.0  33.7  33970  286.35 0855.45
2009/04/23 07:40:37.9     -16   -152     57    153    163 186.2  21.3  33968  286.34 0855.45
2009/04/23 07:40:38.0      -9   -187     58    188    197 182.9  17.3  33970  286.35 0855.45
2009/04/23 07:40:38.1     -38   -188     28    192    195 191.6   8.5  33968  286.34 0855.45
2009/04/23 07:40:38.2     -26   -167     55    170    179 188.9  18.1  33970  286.37 0855.45
2009/04/23 07:40:38.3     -17   -158     56    159    168 186.2  20.0  33974  286.42 0855.45
2009/04/23 07:40:38.4     -47   -174     46    181    187 195.2  14.3  33974  286.44 0855.45
2009/04/23 07:40:38.5     -33   -156     59    160    170 192.0  20.7  33970  286.37 0855.45
2009/04/23 07:40:38.6      78   -139     85    160    181 150.6  30.3  33968  286.34 0855.45
2009/04/23 07:40:38.7      46   -138    101    146    177 161.3  38.0  33964  286.25 0855.45
2009/04/23 07:40:38.8     126    -80     49    150    158 122.5  18.1  33966  286.29 0855.45
2009/04/23 07:40:38.9      90    -69     97    114    149 127.8  44.3  33960  286.19 0855.45
2009/04/23 07:40:39.0     100   -183     89    209    227 151.1  24.6  33962  286.24 0855.45
2009/04/23 07:40:39.1      68   -229    118    240    267 163.3  28.2  33966  286.28 0855.46
2009/04/23 07:40:39.2      70   -218    111    229    254 162.2  27.8  33968  286.33 0855.46
2009/04/23 07:40:39.3      95   -223    155    243    288 156.8  35.6  33962  286.21 0855.46
2009/04/23 07:40:39.4     133   -260     36    293    296 152.8   7.1  33960  286.18 0855.46
2009/04/23 07:40:39.5     141   -221     41    263    267 147.5   9.0  33964  286.25 0855.46
2009/04/23 07:40:39.6      98   -177     21    203    205 151.1   6.1  33964  286.25 0855.46
2009/04/23 07:40:39.7     101    -77      4    128    129 127.3   1.8  33964  286.27 0855.46
2009/04/23 07:40:39.8     150    -71     15    167    168 115.4   5.2  33964  286.25 0855.46
2009/04/23 07:40:39.9     196    -93     18    218    219 115.4   4.9  33968  286.32 0855.46
2009/04/23 07:40:40.0     158    -84     54    179    187 118.0  16.8  33964  286.27 0855.46
2009/04/23 07:40:40.1     132    -47     63    141    154 109.5  26.2  33962  286.24 0855.46
2009/04/23 07:40:40.2     100    -77     84    127    152 127.7  36.0  33964  286.27 0855.46
2009/04/23 07:40:40.3     105   -116     15    157    158 137.7   5.7  33962  286.22 0855.46
2009/04/23 07:40:40.4     157    -83     62    178    189 118.0  19.2  33960  286.19 0855.46
2009/04/23 07:40:40.5     143    -47    109    151    186 108.2  39.7  33970  286.37 0855.46
2009/04/23 07:40:40.6     189      0     37    190    194  90.0  11.1  33966  286.30 0855.46
2009/04/23 07:40:40.7     164   -109     -7    198    199 123.7  -2.1  33962  286.22 0855.46
2009/04/23 07:40:40.8     141    -62     29    155    158 113.6  10.6  33966  286.29 0855.46
2009/04/23 07:40:40.9     130    -46     50    138    146 109.5  20.4  33964  286.27 0855.46
2009/04/23 07:40:41.0     147    -74     15    165    166 117.0   5.2  33958  286.17 0855.46
2009/04/23 07:40:41.1     128    -38     72    134    152 106.8  30.8  33962  286.22 0855.46
2009/04/23 07:40:41.2     154   -103    105    186    213 124.0  32.1  33962  286.24 0855.46
2009/04/23 07:40:41.3     207    -64     79    217    230 107.3  20.7  33962  286.22 0855.46
2009/04/23 07:40:41.4     210      0     79    211    225  90.1  21.3  33962  286.22 0855.46
2009/04/23 07:40:41.5     185    -25     49    187    194  97.9  14.7  33962  286.22 0855.46
2009/04/23 07:40:41.6     186    -22     82    188    205  97.0  25.2  33962  286.24 0855.46
2009/04/23 07:40:41.7     158    -53     96    167    192 108.8  32.7  33964  286.27 0855.46
2009/04/23 07:40:41.8     124    -73    131    145    195 120.7  46.9  33966  286.29 0855.46
2009/04/23 07:40:41.9     151   -103    119    184    219 124.4  35.7  33966  286.29 0855.46
2009/04/23 07:40:42.0     136   -121     93    183    205 131.6  29.1  33964  286.27 0855.46
2009/04/23 07:40:42.1      94    -93    111    133    173 134.9  44.1  33964  286.27 0855.46
2009/04/23 07:40:42.2     104    -93     90    140    166 131.8  35.7  33966  286.29 0855.46
2009/04/23 07:40:42.3      64   -120     95    137    166 151.9  38.4  33968  286.34 0855.46
2009/04/23 07:40:42.4      31   -116    125    121    173 164.8  50.7  33964  286.25 0855.46
2009/04/23 07:40:42.5       9   -101    134    102    168 174.7  59.0  33968  286.32 0855.46
2009/04/23 07:40:42.6      -1    -65     82     66    105 180.9  56.9  33966  286.29 0855.46
2009/04/23 07:40:42.7      -8    -43    105     44    113 190.7  76.6  33966  286.29 0855.46
2009/04/23 07:40:42.8     -37    -44     98     58    113 219.6  66.2  33966  286.29 0855.46
2009/04/23 07:40:42.9     -83    -27     78     88    117 251.6  46.4  33968  286.34 0855.46
2009/04/23 07:40:43.0     -34    -45     81     57     99 217.0  61.1  33966  286.30 0855.46
2009/04/23 07:40:43.1     -66    -34     91     75    117 242.9  56.3  33964  286.25 0855.46
2009/04/23 07:40:43.2     -66    -42      8     79     80 237.6   5.9  33968  286.32 0855.46
2009/04/23 07:40:43.3     -74    -13     36     76     84 259.4  27.2  33966  286.29 0855.46
2009/04/23 07:40:43.4     -59    -55     42     81     91 226.9  29.3  33964  286.27 0855.46
2009/04/23 07:40:43.5     -26    -68     28     73     78 200.9  21.0  33966  286.29 0855.46
2009/04/23 07:40:43.6      -6    -66    107     67    126 185.3  64.7  33964  286.25 0855.46
2009/04/23 07:40:43.7     -19    -69    115     72    135 196.0  64.7  33962  286.24 0855.46
2009/04/23 07:40:43.8     -15    -21    112     26    114 216.1  87.5  33966  286.29 0855.46
2009/04/23 07:40:43.9     -46    -67     98     82    127 214.7  56.3  33966  286.29 0855.46
2009/04/23 07:40:44.0     -80    -75     77    110    134 226.8  38.0  33966  286.29 0855.46
2009/04/23 07:40:44.1     -58    -91     70    109    129 212.5  35.6  33968  286.34 0855.46
2009/04/23 07:40:44.2     -58    -94     81    111    137 211.6  39.7  33968  286.34 0855.46
2009/04/23 07:40:44.3     -29    -54     98     62    115 208.9  64.7  33966  286.30 0855.46
2009/04/23 07:40:44.4     -50    -44     75     67    100 228.7  53.3  33966  286.29 0855.46
2009/04/23 07:40:44.5     -70    -23     52     74     90 251.8  38.6  33966  286.29 0855.46
2009/04/23 07:40:44.6    -121    -12     49    122    131 263.9  23.0  33966  286.30 0855.46
2009/04/23 07:40:44.7    -180     13    -52    181    189 274.4 -16.0  33968  286.32 0855.46
2009/04/23 07:40:44.8    -179    -15    -10    180    181 265.0  -3.3  33968  286.34 0855.46
2009/04/23 07:40:44.9    -168    -14     -6    169    170 265.0  -2.2  33968  286.34 0855.46
2009/04/23 07:40:45.0    -220    -31    -23    223    225 262.0  -6.0  33966  286.29 0855.46
2009/04/23 07:40:45.1    -191    -46    -33    197    200 256.5  -9.8  33970  286.35 0855.47
2009/04/23 07:40:45.2    -169    -64    -28    181    184 249.2  -9.0  33968  286.34 0855.47
2009/04/23 07:40:45.3    -157    -77      8    175    176 243.8   2.9  33970  286.35 0855.47
2009/04/23 07:40:45.4    -191    -77     19    207    208 248.0   5.4  33970  286.35 0855.47
2009/04/23 07:40:45.5    -153    -68    -40    168    173 245.8 -13.7  33968  286.32 0855.47
2009/04/23 07:40:45.6    -174   -136    -40    222    226 232.0 -10.3  33962  286.22 0855.47
2009/04/23 07:40:45.7    -189    -17   -158    190    247 264.8 -48.2  33962  286.22 0855.47
2009/04/23 07:40:45.8    -179    -34     29    183    186 259.2   9.0  33964  286.27 0855.47
2009/04/23 07:40:45.9    -124    -59     48    138    147 244.7  19.4  33964  286.25 0855.47
2009/04/23 07:40:46.0     -40    -13     88     43     97 251.6  72.8  33968  286.32 0855.47
2009/04/23 07:40:46.1     -90     18     67     92    113 281.4  39.7  33966  286.29 0855.47
2009/04/23 07:40:46.2     -57    -28     77     64    100 243.8  56.3  33964  286.27 0855.47
2009/04/23 07:40:46.3       6    -90     73     91    116 176.0  43.7  33964  286.27 0855.47
2009/04/23 07:40:46.4     -24    -96     60    100    116 194.3  34.4  33964  286.25 0855.47
2009/04/23 07:40:46.5     -39    -74     56     84    100 208.1  37.0  33964  286.27 0855.47
2009/04/23 07:40:46.6     -37    -99     55    106    119 200.5  29.3  33960  286.20 0855.47
2009/04/23 07:40:46.7     -60    -99     40    116    123 211.2  19.2  33966  286.29 0855.47
2009/04/23 07:40:46.8     -67   -106     55    126    137 212.1  25.1  33964  286.27 0855.47
2009/04/23 07:40:46.9     -90   -117     23    148    150 217.8   8.9  33966  286.29 0855.47
2009/04/23 07:40:47.0     -86    -86    -15    122    124 225.0  -7.3  33964  286.27 0855.47
2009/04/23 07:40:47.1    -144    -43    -23    151    153 253.1  -8.8  33964  286.27 0855.45
2009/04/23 07:40:47.2    -171      0      4    172    173 270.0   1.6  33964  286.25 0855.45
2009/04/23 07:40:47.3    -149    -21    -40    151    157 262.0 -15.0  33962  286.24 0855.45
2009/04/23 07:40:47.4    -180   -109    -64    211    221 238.9 -17.0  33962  286.24 0855.45
2009/04/23 07:40:47.5    -202    -53    -42    209    214 255.2 -11.6  33960  286.20 0855.45
2009/04/23 07:40:47.6    -187    -22    -61    189    199 263.2 -17.9  33962  286.24 0855.45
2009/04/23 07:40:47.7    -153    -73    -60    170    181 244.5 -19.6  33962  286.22 0855.45
2009/04/23 07:40:47.8    -162    -31    -61    166    176 259.0 -25.7  33964  286.25 0855.45
2009/04/23 07:40:47.9    -150    -28    -64    153    165 259.4 -28.2  33962  286.22 0855.45
2009/04/23 07:40:48.0    -161    -21   -106    163    194 262.5 -40.0  33964  286.25 0855.45
2009/04/23 07:40:48.1    -172      3    -73    173    187 271.3 -28.5  33956  286.14 0855.44
2009/04/23 07:40:48.2    -153     46    -52    160    168 286.8 -23.3  33954  286.08 0855.44
2009/04/23 07:40:48.3    -220    -16    -70    221    231 265.6 -23.0  33956  286.14 0855.44
2009/04/23 07:40:48.4    -182    -13    -85    183    201 265.7 -31.0  33958  286.15 0855.44
2009/04/23 07:40:48.5    -201    -68    -38    213    217 251.2 -10.3  33958  286.17 0855.44
2009/04/23 07:40:48.6    -234   -102    -30    256    258 246.4  -6.7  33960  286.20 0855.44
2009/04/23 07:40:48.7    -175    -76    -24    191    193 246.5  -7.3  33960  286.20 0855.44
2009/04/23 07:40:48.8    -183    -76     -4    199    200 247.4  -1.3  33964  286.25 0855.44
2009/04/23 07:40:48.9    -200     14     -9    201    202 274.3  -2.8  33962  286.24 0855.44
2009/04/23 07:40:49.0    -184     85    -26    203    205 294.8  -7.5  33964  286.25 0855.44
2009/04/23 07:40:49.1    -145    105    -38    180    185 305.9 -12.2  33966  286.29 0855.44
2009/04/23 07:40:49.2    -134     84    -27    159    162 302.2  -9.6  33958  286.17 0855.44
2009/04/23 07:40:49.3     -61      4    -22     62     66 274.4 -19.6  33958  286.15 0855.44
2009/04/23 07:40:49.4     -47    -75      3     89     90 212.5   2.3  33960  286.20 0855.44
2009/04/23 07:40:49.5     -24    -73     14     77     79 198.3  10.6  33960  286.20 0855.44
2009/04/23 07:40:49.6     -86    -55     -4    103    104 237.5  -2.2  33962  286.24 0855.44
2009/04/23 07:40:49.7     -87    -41    -35     97    104 244.8 -19.7  33960  286.19 0855.44
2009/04/23 07:40:49.8    -114    -63    -43    131    137 241.2 -23.8  33964  286.27 0855.44
2009/04/23 07:40:49.9     -77   -106    -35    132    137 216.0 -15.0  33966  286.29 0855.44
2009/04/23 07:40:50.0     -60    -94      5    112    113 212.5   2.8  33962  286.24 0855.44
2009/04/23 07:40:50.1     -52    -91    -14    106    107 209.9  -7.7  33964  286.27 0855.43
2009/04/23 07:40:50.3     -84   -103    -36    133    138 219.2 -15.4  33962  286.24 0855.43
2009/04/23 07:40:50.3     -77    -85    -39    115    122 222.3 -18.7  33964  286.27 0855.43
2009/04/23 07:40:50.4     -41    -87      3     97     98 205.5   2.3  33964  286.25 0855.43
2009/04/23 07:40:50.5      -4   -122     43    123    131 182.2  19.2  33960  286.20 0855.43
2009/04/23 07:40:50.6      54   -191      5    199    200 164.0   1.6  33960  286.19 0855.43
2009/04/23 07:40:50.7      55   -215      4    223    224 165.5   1.2  33962  286.24 0855.43
2009/04/23 07:40:50.8      53   -197      8    205    206 164.8   2.5  33962  286.24 0855.43
2009/04/23 07:40:50.9      65   -227    -18    237    238 164.0  -4.6  33964  286.25 0855.43
2009/04/23 07:40:51.0      25   -228     -9    230    231 173.5  -2.2  33962  286.22 0855.43
2009/04/23 07:40:51.1      39   -252    -14    256    257 171.1  -3.2  33960  286.20 0855.43
2009/04/23 07:40:51.2      54   -269    -24    275    277 168.7  -5.1  33960  286.20 0855.43
2009/04/23 07:40:51.3      87   -280     16    294    295 162.6   3.1  33958  286.16 0855.43
2009/04/23 07:40:51.4      68   -279    -11    288    289 166.2  -2.2  33962  286.21 0855.43
2009/04/23 07:40:51.5      18   -256    -21    257    259 175.8  -4.9  33962  286.21 0855.43
2009/04/23 07:40:51.6       8   -268     -1    269    270 178.2  -0.3  33960  286.20 0855.43
2009/04/23 07:40:51.7      22   -299      2    300    301 175.6   0.5  33962  286.23 0855.43
2009/04/23 07:40:51.8      14   -318     49    319    323 177.4   8.9  33962  286.21 0855.43
2009/04/23 07:40:51.9      -6   -213    -27    214    216 181.8  -7.3  33960  286.19 0855.43
2009/04/23 07:40:52.0      -7   -253    -73    254    265 181.8 -16.0  33960  286.18 0855.43
2009/04/23 07:40:52.1      21   -277    -55    278    284 175.5 -11.3  33960  286.20 0855.43
2009/04/23 07:40:52.2      21   -275     -3    276    277 175.5  -0.7  33960  286.20 0855.43
2009/04/23 07:40:52.3      -9   -299    -11    300    301 181.8  -2.2  33960  286.20 0855.43
2009/04/23 07:40:52.4      11   -282    -57    283    289 177.8 -11.5  33960  286.20 0855.43
2009/04/23 07:40:52.5      74   -262    -65    273    281 164.2 -13.4  33960  286.18 0855.43
2009/04/23 07:40:52.6      50   -264    -54    269    275 169.3 -11.3  33960  286.18 0855.43
2009/04/23 07:40:52.7      21   -247    -50    248    254 175.1 -11.6  33960  286.18 0855.43
2009/04/23 07:40:52.8       9   -258    -35    259    262 178.0  -7.7  33960  286.18 0855.43
2009/04/23 07:40:52.9      -9   -262    -33    263    266 182.0  -7.2  33960  286.18 0855.43
2009/04/23 07:40:53.0       7   -253    -39    254    257 178.2  -8.8  33958  286.15 0855.43
2009/04/23 07:40:53.1       0   -237    -39    238    242 180.0  -9.3  33964  286.25 0855.43
2009/04/23 07:40:53.2      24   -248    -45    250    255 174.4 -10.4  33964  286.25 0855.43
2009/04/23 07:40:53.3      28   -259    -37    261    264 173.8  -8.2  33964  286.25 0855.43
2009/04/23 07:40:53.4      46   -223    -12    228    229 168.2  -3.1  33964  286.25 0855.43
2009/04/23 07:40:53.5      35   -171     21    175    177 168.2   7.1  33962  286.24 0855.43
2009/04/23 07:40:53.6      -7   -166     32    167    171 182.5  10.8  33962  286.22 0855.43
2009/04/23 07:40:53.7      32   -160     58    164    173 168.7  20.0  33962  286.24 0855.43
2009/04/23 07:40:53.8      47   -152     82    160    179 162.6  29.3  33964  286.25 0855.43
2009/04/23 07:40:53.9     -48   -123     47    133    141 201.4  20.4  33962  286.22 0855.43
2009/04/23 07:40:54.0     -14   -124      6    125    126 186.7   2.9  33962  286.22 0855.43
2009/04/23 07:40:54.1      55    -89     28    105    109 148.4  15.3  33962  286.24 0855.44
2009/04/23 07:40:54.2       0    -97     43     98    107 180.0  24.6  33960  286.20 0855.44
2009/04/23 07:40:54.3       9    -70     54     71     89 172.0  41.2  33958  286.17 0855.44
2009/04/23 07:40:54.5     -27   -198     42    201    206 188.0  12.0  33956  286.14 0855.44
2009/04/23 07:40:54.5     -51   -157     -6    166    167 198.0  -2.2  33958  286.17 0855.44
2009/04/23 07:40:54.6     -16   -160     13    161    162 186.0   4.9  33962  286.24 0855.44
2009/04/23 07:40:54.7     -30   -177     20    180    182 189.6   6.5  33960  286.20 0855.44
2009/04/23 07:40:54.8     -30   -150     13    154    155 191.6   4.9  33960  286.20 0855.44
2009/04/23 07:40:54.9      19   -146     49    148    157 172.4  18.4  33964  286.25 0855.44
2009/04/23 07:40:55.0       0   -132     25    133    136 180.4  11.0  33962  286.24 0855.44
2009/04/23 07:40:55.1     -35   -114     28    120    124 197.4  13.2  33960  286.20 0855.44
2009/04/23 07:40:55.2    -102   -109      4    150    151 223.3   1.8  33962  286.22 0855.44
2009/04/23 07:40:55.3    -104   -141     13    176    177 216.3   4.4  33964  286.25 0855.44
2009/04/23 07:40:55.4     -54   -135     62    146    158 201.8  24.3  33958  286.17 0855.44
2009/04/23 07:40:55.5      51   -197    116    204    234 165.3  32.1  33964  286.25 0855.44
2009/04/23 07:40:55.6      73   -217     82    230    245 161.3  19.6  33966  286.30 0855.44
2009/04/23 07:40:55.7      96   -202     44    224    229 154.5  11.1  33966  286.30 0855.44
2009/04/23 07:40:55.8      88   -218     35    236    239 158.1   8.5  33964  286.26 0855.44
2009/04/23 07:40:55.9      88   -250     34    266    269 160.6   7.5  33968  286.31 0855.44
2009/04/23 07:40:56.0     115   -253     45    278    282 155.5   9.3  33968  286.33 0855.44
2009/04/23 07:40:56.1      85   -315     62    327    333 164.9  10.8  33962  286.21 0855.44
2009/04/23 07:40:56.2     -51   -201     21    208    210 194.3   5.9  33964  286.27 0855.44
2009/04/23 07:40:56.3     -43   -212     33    217    220 191.6   8.8  33962  286.22 0855.44
2009/04/23 07:40:56.4      10   -214      3    215    216 177.1   0.8  33964  286.25 0855.44
2009/04/23 07:40:56.5      55   -178     -3    187    188 162.8  -1.1  33966  286.29 0855.44
2009/04/23 07:40:56.6     119   -205    -21    238    239 149.9  -5.2  33966  286.28 0855.44
2009/04/23 07:40:56.7     122   -179     10    217    218 145.7   2.8  33966  286.30 0855.44
2009/04/23 07:40:56.8     129   -162     16    208    209 141.5   4.6  33966  286.29 0855.44
2009/04/23 07:40:56.9     121   -166     -7    206    207 143.9  -2.1  33968  286.32 0855.44
2009/04/23 07:40:57.0      53   -160     -6    169    170 161.5  -2.2  33962  286.22 0855.44
2009/04/23 07:40:57.1     -39   -159     14    164    165 194.0   5.2  33964  286.27 0855.44
2009/04/23 07:40:57.2     -65   -138      2    153    154 205.4   0.8  33964  286.27 0855.44
2009/04/23 07:40:57.3     -52   -158    -52    167    175 198.5 -17.3  33966  286.29 0855.44
2009/04/23 07:40:57.4     -60   -180    -44    190    196 198.5 -13.2  33964  286.27 0855.44
2009/04/23 07:40:57.5     -58   -148     10    160    161 201.4   3.8  33960  286.20 0855.44
2009/04/23 07:40:57.6     -63   -142     72    156    171 204.1  26.6  33962  286.24 0855.44
2009/04/23 07:40:57.7     -23    -97     93    100    136 193.8  47.9  33964  286.25 0855.44
2009/04/23 07:40:57.8     -41   -103     86    111    140 201.8  41.7  33964  286.25 0855.44
2009/04/23 07:40:57.9      13    -56     98     58    113 166.6  66.2  33964  286.27 0855.44
2009/04/23 07:40:58.0      29    -72     63     78    100 158.1  43.3  33966  286.29 0855.44
2009/04/23 07:40:58.1      20   -109     80    111    136 169.3  39.5  33966  286.30 0855.44
2009/04/23 07:40:58.2      24   -120     63    123    138 168.4  29.3  33970  286.35 0855.44
2009/04/23 07:40:58.3      -9   -140     70    141    157 184.0  28.2  33970  286.35 0855.44
2009/04/23 07:40:58.4     -18   -112     99    114    150 189.3  45.4  33970  286.35 0855.44
2009/04/23 07:40:58.5      28    -74    108     80    134 159.1  60.0  33972  286.39 0855.44
2009/04/23 07:40:58.6     -15   -144    105    145    179 186.2  39.7  33964  286.27 0855.44
2009/04/23 07:40:58.7     -16   -104    111    106    153 188.9  51.2  33966  286.30 0855.44
2009/04/23 07:40:58.8     -29   -111    100    115    152 195.1  45.8  33964  286.27 0855.44
2009/04/23 07:40:58.9     -11   -149     90    150    174 184.4  34.2  33966  286.30 0855.44
2009/04/23 07:40:59.0      18   -147     82    149    170 172.9  31.0  33966  286.30 0855.44
2009/04/23 07:40:59.1      11   -145     71    146    162 175.6  27.8  33966  286.29 0855.44
2009/04/23 07:40:59.2     -14   -140     73    141    158 185.8  29.5  33968  286.32 0855.44
2009/04/23 07:40:59.3      40   -131     84    138    161 163.1  34.2  33968  286.32 0855.44
2009/04/23 07:40:59.4      30   -123     74    127    146 166.2  33.4  33966  286.29 0855.44
2009/04/23 07:40:59.5       9   -106     57    107    121 175.1  30.3  33966  286.29 0855.44
2009/04/23 07:40:59.6     -11   -113     48    114    123 185.8  24.1  33964  286.27 0855.44
2009/04/23 07:40:59.8     -21   -113     66    116    133 190.7  32.9  33966  286.30 0855.44
2009/04/23 07:40:59.9     -14   -110     58    111    125 187.6  29.8  33968  286.32 0855.44
2009/04/23 07:41:00.0     -18   -103     42    105    113 190.2  23.0  33968  286.32 0855.44
2009/04/23 07:41:00.1      20    -95     69     98    119 168.0  38.6  33966  286.30 0855.43
2009/04/23 07:41:00.2      15    -70     70     72    100 167.5  49.4  33962  286.24 0855.43
2009/04/23 07:41:00.3       0    -85     53     86    101 180.0  35.0  33962  286.24 0855.43
2009/04/23 07:41:00.4     -24   -106     55    109    122 192.9  29.2  33962  286.22 0855.43
2009/04/23 07:41:00.5     -22   -103     51    106    117 192.5  27.2  33964  286.27 0855.43
2009/04/23 07:41:00.6     -29   -119     42    123    131 193.8  18.9  33964  286.25 0855.43
2009/04/23 07:41:00.8     -36   -143     85    148    170 194.3  32.4  33962  286.24 0855.43
2009/04/23 07:41:00.8       0   -139     94    140    168 180.4  37.0  33970  286.35 0855.43
2009/04/23 07:41:00.9       4   -106     92    107    141 177.8  45.4  33966  286.29 0855.43
2009/04/23 07:41:01.1       1    -72     75     73    104 179.1  50.1  33966  286.30 0855.43
2009/04/23 07:41:01.2       7    -45     55     46     71 171.1  56.3  33964  286.27 0855.43
2009/04/23 07:41:01.3      -9    -86     49     87     99 186.2  31.9  33966  286.30 0855.43
2009/04/23 07:41:01.4     -15   -128     59    129    141 187.1  26.6  33966  286.30 0855.43
2009/04/23 07:41:01.5     -51   -113     63    125    139 204.5  29.2  33966  286.30 0855.43
2009/04/23 07:41:01.6     -42    -95     60    105    120 204.1  32.4  33968  286.32 0855.43
2009/04/23 07:41:01.7       1    -35     62     36     71 177.3  66.8  33966  286.29 0855.43
2009/04/23 07:41:01.8       0    -61     66     62     90 179.1  51.6  33970  286.37 0855.43
2009/04/23 07:41:01.9     -27   -150     60    153    164 190.2  22.3  33968  286.32 0855.43
2009/04/23 07:41:02.0     -45   -154     56    161    171 196.5  19.2  33966  286.30 0855.43
2009/04/23 07:41:02.1     -63   -132     48    147    155 205.5  18.1  33968  286.34 0855.43
2009/04/23 07:41:02.2     -81   -129     45    153    160 212.1  16.6  33968  286.32 0855.43
2009/04/23 07:41:02.3     -52   -119     46    131    138 203.7  20.0  33968  286.34 0855.43
2009/04/23 07:41:02.4     -72   -101     -2    125    126 215.6  -1.3  33968  286.32 0855.43
2009/04/23 07:41:02.5    -105    -80     11    133    134 232.7   4.9  33964  286.25 0855.43
2009/04/23 07:41:02.6    -175   -116     10    211    212 236.5   2.8  33964  286.27 0855.43
2009/04/23 07:41:02.7    -154   -102    -23    185    187 236.5  -7.2  33966  286.29 0855.43
2009/04/23 07:41:02.8    -114    -82    -28    141    144 234.0 -11.3  33964  286.25 0855.43
2009/04/23 07:41:02.9    -125    -45     -6    134    135 250.1  -2.6  33962  286.24 0855.43
2009/04/23 07:41:03.0    -146    -39    -82    152    172 255.0 -35.2  33964  286.25 0855.43
2009/04/23 07:41:03.1    -107   -122      9    163    164 221.4   3.3  33964  286.25 0855.43
2009/04/23 07:41:03.2     -75   -141     -5    160    161 208.1  -2.1  33966  286.29 0855.43
2009/04/23 07:41:03.3     -76    -69     15    103    105 227.8   8.5  33966  286.29 0855.43
2009/04/23 07:41:03.4    -107    -48     17    118    120 245.6   8.5  33962  286.22 0855.43
2009/04/23 07:41:03.5     -99    -97     55    139    149 225.6  23.0  33964  286.27 0855.43
2009/04/23 07:41:03.6    -150   -161     43    221    226 223.0  11.1  33966  286.29 0855.43
2009/04/23 07:41:03.7    -212   -154    -38    263    266 234.0  -8.2  33970  286.35 0855.43
2009/04/23 07:41:03.8    -207    -86    -40    225    229 247.4 -10.1  33968  286.32 0855.43
2009/04/23 07:41:03.9    -215    -64    -50    225    231 253.4 -12.6  33970  286.37 0855.43
2009/04/23 07:41:04.0    -233    -67    -48    243    248 254.0 -11.3  33970  286.35 0855.43
2009/04/23 07:41:04.1    -232    -42    -47    236    241 259.6 -11.3  33970  286.36 0855.43
2009/04/23 07:41:04.2    -242    -53    -53    248    254 257.6 -12.2  33974  286.43 0855.42
2009/04/23 07:41:04.3    -212    -61    -54    221    228 253.8 -13.9  33968  286.32 0855.42
2009/04/23 07:41:04.4    -219    -44    -28    224    226 258.5  -7.3  33964  286.27 0855.42
2009/04/23 07:41:04.5    -220   -108     12    246    247 243.8   2.9  33964  286.26 0855.42
2009/04/23 07:41:04.6    -236    -70    -35    247    250 253.4  -8.2  33970  286.36 0855.42
2009/04/23 07:41:04.7    -238    -71    -22    249    251 253.2  -5.1  33970  286.35 0855.42
2009/04/23 07:41:04.8    -238    -94    -12    257    258 248.3  -2.8  33972  286.40 0855.42
2009/04/23 07:41:04.9    -229    -47    -28    234    236 258.3  -6.9  33972  286.40 0855.42
2009/04/23 07:41:05.0    -246    -54    -80    252    265 257.6 -17.6  33970  286.35 0855.42
2009/04/23 07:41:05.1    -286    -83    -43    298    302 253.8  -8.2  33968  286.31 0855.42
2009/04/23 07:41:05.2    -290    -49   -104    295    313 260.3 -19.5  33968  286.31 0855.42
2009/04/23 07:41:05.3    -218   -123    -87    251    265 240.5 -24.0  33964  286.25 0855.42
2009/04/23 07:41:05.4    -201    -95    -97    223    243 244.6 -29.5  33962  286.21 0855.42
2009/04/23 07:41:05.5    -146   -143    -73    205    218 225.6 -19.6  33964  286.25 0855.42
2009/04/23 07:41:05.6    -191   -129    -68    231    240 235.8 -21.5  33962  286.23 0855.42
2009/04/23 07:41:05.7    -172    -95    -82    197    213 241.1 -28.0  33962  286.24 0855.42
2009/04/23 07:41:05.8    -135    -91    -77    164    181 235.9 -31.4  33968  286.32 0855.42
2009/04/23 07:41:05.9     -96    -97    -63    137    150 224.5 -31.5  33968  286.32 0855.42
2009/04/23 07:41:06.0    -173   -114    -50    208    215 236.7 -13.7  33970  286.35 0855.42
2009/04/23 07:41:06.1    -198    -79    -49    214    220 248.3 -12.9  33964  286.27 0855.42
2009/04/23 07:41:06.2    -202    -15    -75    203    216 265.7 -25.7  33970  286.37 0855.42
2009/04/23 07:41:06.3    -173    -88    -89    195    214 242.9 -30.8  33968  286.34 0855.42
2009/04/23 07:41:06.4    -190    -85    -89    209    227 245.8 -29.0  33966  286.29 0855.42
2009/04/23 07:41:06.5    -260    -36   -103    263    282 262.1 -26.9  33964  286.26 0855.42
2009/04/23 07:41:06.6    -145   -125   -139    192    237 229.3 -43.9  33964  286.25 0855.42
2009/04/23 07:41:06.7    -136   -154    -90    206    224 221.5 -29.6  33964  286.27 0855.42
2009/04/23 07:41:06.8    -107   -195    -20    223    224 208.9  -5.2  33960  286.20 0855.42
2009/04/23 07:41:06.9    -185   -197    -19    271    272 223.2  -4.1  33970  286.35 0855.42
2009/04/23 07:41:07.0    -220   -118    -88    250    266 241.8 -19.4  33972  286.38 0855.42
2009/04/23 07:41:07.1    -180    -72   -101    194    218 248.2 -33.9  33972  286.41 0855.42
2009/04/23 07:41:07.2    -130   -103    -89    167    189 231.6 -35.0  33968  286.32 0855.42
2009/04/23 07:41:07.3    -181   -115    -98    215    236 237.4 -30.6  33964  286.27 0855.42
2009/04/23 07:41:07.4    -250   -109    -75    273    284 246.4 -15.4  33966  286.30 0855.42
2009/04/23 07:41:07.5    -256   -120    -85    284    297 244.8 -16.6  33968  286.31 0855.42
2009/04/23 07:41:07.6    -165    -81    -80    184    200 243.8 -29.5  33964  286.27 0855.42
2009/04/23 07:41:07.7     -66    -92    -37    114    119 216.0 -23.3  33964  286.25 0855.42
2009/04/23 07:41:07.8     -71    -18     26     74     79 255.8  19.4  33964  286.25 0855.42
2009/04/23 07:41:07.9     -97    -12      5     98     99 262.5   2.9  33966  286.30 0855.42
2009/04/23 07:41:08.0     -67      3     13     68     70 272.6  11.1  33964  286.27 0855.42
2009/04/23 07:41:08.1     -50      0     10     51     53 270.0  11.1  33968  286.32 0855.42
2009/04/23 07:41:08.2     -16     10     17     19     25 302.5  47.9  33966  286.30 0855.43
2009/04/23 07:41:08.3       0     15     40     16     43 357.3  78.2  33970  286.35 0855.43
2009/04/23 07:41:08.4       0     11     28     12     30   4.5  75.0  33972  286.39 0855.43
2009/04/23 07:41:08.5     -12     -6     26     14     29 241.1  68.8  33970  286.35 0855.43
2009/04/23 07:41:08.6      -1    -10     31     11     32 188.0  81.2  33966  286.30 0855.43
2009/04/23 07:41:08.7      -1     -8     16      9     18 191.6  68.8  33966  286.29 0855.43
2009/04/23 07:41:08.8      24     21     -9     33     35  48.7 -15.5  33968  286.32 0855.43
2009/04/23 07:41:08.9      28     -2      1     29     30  94.4   2.8  33964  286.27 0855.43
2009/04/23 07:41:09.0      29    -10     -5     31     32 110.0  -9.3  33966  286.30 0855.43
2009/04/23 07:41:09.1       5    -37    -30     38     48 172.0 -47.1  33964  286.27 0855.43
2009/04/23 07:41:09.2      13    -23    -32     27     41 149.3 -59.8  33964  286.27 0855.44
2009/04/23 07:41:09.3      52     -3    -29     53     60  94.3 -35.8  33964  286.27 0855.44
2009/04/23 07:41:09.4      19     -2    -32     20     37  96.1 -69.1  33964  286.27 0855.44
2009/04/23 07:41:09.5       5     -6    -28      8     29 140.4 -85.1  33964  286.27 0855.44
2009/04/23 07:41:09.6     -30    -18    -29     36     46 239.3 -47.1  33964  286.25 0855.44
2009/04/23 07:41:09.7     -38    -24    -35     45     57 237.6 -47.1  33962  286.24 0855.44
2009/04/23 07:41:09.8     -49      0    -48     50     69 269.2 -54.4  33962  286.24 0855.44
2009/04/23 07:41:09.9     -33     -2    -46     34     57 265.6 -63.8  33962  286.22 0855.44
2009/04/23 07:41:10.0     -34     -4    -34     35     48 262.1 -55.5  33962  286.22 0855.44
2009/04/23 07:41:10.1      -9      0    -41     10     42 270.0 -90.0  33964  286.25 0855.44
2009/04/23 07:41:10.2     -22      0    -35     23     41 270.0 -68.0  33962  286.24 0855.44
2009/04/23 07:41:10.3     -38      0    -38     39     54 269.2 -55.5  33962  286.24 0855.44
2009/04/23 07:41:10.4     -33    -27    -58     43     72 230.5 -64.9  33960  286.20 0855.44
2009/04/23 07:41:10.5     -62    -58    -27     86     91 226.9 -17.6  33960  286.20 0855.44
2009/04/23 07:41:10.6     -77    -63     34    100    106 230.4  18.9  33960  286.20 0855.44
2009/04/23 07:41:10.7     -82    -64    -18    105    107 232.2  -9.8  33960  286.20 0855.44
2009/04/23 07:41:10.8    -176    -58    -98    186    210 251.6 -34.2  33966  286.29 0855.44
2009/04/23 07:41:10.9    -236    -64    -81    245    259 254.7 -18.3  33966  286.28 0855.44
2009/04/23 07:41:11.0    -215    -37    -91    219    237 260.1 -28.5  33966  286.29 0855.44
2009/04/23 07:41:11.1    -114      3   -107    115    157 271.7 -52.3  33960  286.20 0855.44
2009/04/23 07:41:11.2     -63     -8    -74     64     97 262.1 -58.7  33964  286.25 0855.45
2009/04/23 07:41:11.3    -153    -31   -113    157    193 258.5 -43.7  33968  286.34 0855.45
2009/04/23 07:41:11.4    -159    -50   -108    167    198 252.3 -40.1  33964  286.27 0855.45
2009/04/23 07:41:11.5    -164    -58    -55    175    183 250.5 -22.8  33966  286.30 0855.45
2009/04/23 07:41:11.6    -171    -48    -49    178    184 254.1 -20.0  33966  286.30 0855.45
2009/04/23 07:41:11.7    -154    -34    -61    158    169 257.2 -26.4  33966  286.30 0855.45
2009/04/23 07:41:11.8    -155    -56    -66    165    177 250.1 -27.4  33966  286.29 0855.45
2009/04/23 07:41:11.9    -158    -89    -36    182    186 240.5 -11.3  33964  286.27 0855.45
2009/04/23 07:41:12.0    -174    -64     -4    186    187 249.8  -1.3  33966  286.30 0855.45
2009/04/23 07:41:12.1    -124    -98      8    159    160 231.8   2.9  33962  286.24 0855.45
2009/04/23 07:41:12.2    -138   -130     -3    190    191 226.7  -1.2  33962  286.22 0855.45
2009/04/23 07:41:12.3    -144   -141     23    202    204 225.6   6.7  33966  286.30 0855.45
2009/04/23 07:41:12.4    -126   -140     -3    189    190 222.1  -1.1  33966  286.30 0855.45
2009/04/23 07:41:12.5    -172   -120    -58    210    218 235.1 -15.5  33966  286.30 0855.45
2009/04/23 07:41:12.6    -160   -116    -45    198    204 234.0 -12.9  33968  286.32 0855.45
2009/04/23 07:41:12.7    -205    -72    -27    218    220 250.7  -7.2  33966  286.30 0855.45
2009/04/23 07:41:12.8    -188    -79    -33    205    208 247.2  -9.3  33964  286.27 0855.45
2009/04/23 07:41:12.9    -195   -117    -12    228    229 238.9  -3.1  33966  286.30 0855.45
2009/04/23 07:41:13.0    -154    -94     83    181    199 238.7  26.4  33964  286.27 0855.45
2009/04/23 07:41:13.1    -151    -76    -19    170    172 243.1  -6.5  33968  286.32 0855.45
2009/04/23 07:41:13.2    -119    -79      7    144    145 236.3   2.8  33966  286.30 0855.45
2009/04/23 07:41:13.3    -150    -91    -45    176    182 238.7 -14.5  33966  286.29 0855.45
2009/04/23 07:41:13.5    -146    -29    -41    149    155 258.5 -15.5  33966  286.30 0855.45
2009/04/23 07:41:13.6    -133    -98    -43    166    172 233.6 -14.5  33968  286.32 0855.45
2009/04/23 07:41:13.7    -133   -125    -58    183    191 226.9 -22.8  33966  286.29 0855.45
2009/04/23 07:41:13.8    -129    -47    -73    138    156 250.0 -34.7  33966  286.29 0855.45
2009/04/23 07:41:13.9    -119    -55    -45    132    140 245.2 -19.1  33962  286.24 0855.45
2009/04/23 07:41:14.0    -164    -96    -38    191    195 239.6 -11.3  33966  286.29 0855.45
2009/04/23 07:41:14.1    -145   -100    -56    177    186 235.4 -17.6  33966  286.29 0855.45
2009/04/23 07:41:14.2    -152   -129    -81    200    215 229.6 -27.5  33964  286.25 0855.45
2009/04/23 07:41:14.3     -97   -126    -67    160    173 217.8 -28.2  33962  286.24 0855.45
2009/04/23 07:41:14.4     -82    -61   -117    103    155 233.1 -58.4  33964  286.25 0855.45
2009/04/23 07:41:14.6     -17      5    -45     18     48 288.6 -83.6  33962  286.24 0855.45
2009/04/23 07:41:14.7      -2      0    -30      3     30 288.4 -90.0  33962  286.24 0855.45
2009/04/23 07:41:14.8      -3    -32    -45     33     55 186.2 -64.9  33962  286.22 0855.45
2009/04/23 07:41:14.9       9    -78    -84     79    115 172.9 -56.5  33962  286.22 0855.45
2009/04/23 07:41:15.0      92    -52    -91    106    139 119.8 -49.2  33960  286.20 0855.45
2009/04/23 07:41:15.1      86    -73    -14    114    115 130.4  -7.3  33962  286.24 0855.45
2009/04/23 07:41:15.2      51    -73     50     90    102 144.8  31.4  33964  286.27 0855.45
2009/04/23 07:41:15.3       5    -93     56     94    109 176.4  34.0  33964  286.25 0855.45
2009/04/23 07:41:15.4     -36   -107     13    114    115 198.7   6.9  33966  286.30 0855.45
2009/04/23 07:41:15.5       1   -120    -15    121    122 179.5  -7.3  33962  286.22 0855.45
2009/04/23 07:41:15.6      18    -55     24     58     62 161.7  23.1  33960  286.19 0855.45
2009/04/23 07:41:15.7     -35    -49     82     61    102 216.1  60.0  33960  286.20 0855.45
2009/04/23 07:41:15.8     -65    -41     49     77     91 237.6  35.5  33960  286.19 0855.45
2009/04/23 07:41:15.9     -34    -50     32     61     68 214.3  29.3  33962  286.22 0855.45
2009/04/23 07:41:16.0     -17    -53     43     56     70 198.7  41.7  33958  286.17 0855.45
2009/04/23 07:41:16.1       9    -62     44     63     76 171.1  37.6  33956  286.14 0855.45
2009/04/23 07:41:16.2       5    -84     15     85     87 176.4  10.6  33958  286.15 0855.45
2009/04/23 07:41:16.3       7    -62     82     63    103 172.9  58.5  33956  286.12 0855.45
2009/04/23 07:41:16.4     -21    -55     90     59    107 200.9  64.6  33954  286.10 0855.45
2009/04/23 07:41:16.5      -1    -30     82     31     87 182.6  79.2  33956  286.14 0855.45
2009/04/23 07:41:16.6      52    -43     77     68    102 129.5  53.7  33960  286.20 0855.45
2009/04/23 07:41:16.7      47    -60     92     77    119 142.2  56.3  33966  286.29 0855.45
2009/04/23 07:41:16.8      36   -111     95    117    150 161.7  43.7  33964  286.27 0855.45
2009/04/23 07:41:16.9      35   -138     74    143    161 165.7  29.5  33964  286.27 0855.45
2009/04/23 07:41:17.0      44   -134     63    142    155 161.5  25.2  33968  286.32 0855.45
2009/04/23 07:41:17.1      61   -165     21    177    179 159.7   6.9  33966  286.29 0855.45
2009/04/23 07:41:17.2      33   -202     13    205    206 170.7   3.8  33964  286.27 0855.44
2009/04/23 07:41:17.3      33   -202     13    205    206 170.7   3.8  33964  286.27 0855.44
2009/04/23 07:41:17.4      36   -212      1    216    217 170.2   0.5  33962  286.24 0855.44
2009/04/23 07:41:17.5      79   -211    -19    226    227 159.5  -4.9  33966  286.29 0855.44
2009/04/23 07:41:17.6      18   -236      2    237    238 175.6   0.5  33968  286.31 0855.44
2009/04/23 07:41:17.7     -11   -234    -20    235    236 182.7  -5.1  33966  286.28 0855.44
2009/04/23 07:41:17.8     -35   -215    -33    218    221 189.3  -8.6  33962  286.24 0855.44
2009/04/23 07:41:17.9     -40   -212    -37    216    220 190.9  -9.8  33964  286.27 0855.44
2009/04/23 07:41:18.0     -47   -244    -11    249    250 190.9  -2.6  33964  286.25 0855.44
2009/04/23 07:41:18.1       9   -334    -18    335    336 178.4  -3.2  33968  286.32 0855.44
2009/04/23 07:41:18.2       5   -323     40    324    327 179.1   7.1  33966  286.28 0855.44
2009/04/23 07:41:18.3     -51   -303     26    308    310 189.6   4.9  33964  286.25 0855.44
2009/04/23 07:41:18.4     -54   -266      8    272    273 191.5   1.8  33966  286.30 0855.44
2009/04/23 07:41:18.5     -19   -288      5    289    290 183.8   1.0  33968  286.33 0855.44
2009/04/23 07:41:18.6     -22   -289    -11    290    291 184.4  -2.2  33968  286.31 0855.44
2009/04/23 07:41:18.7     -15   -301    -17    302    303 182.9  -3.3  33968  286.31 0855.44
2009/04/23 07:41:18.8     -33   -272    -25    275    277 187.1  -5.2  33968  286.31 0855.44
2009/04/23 07:41:18.9     -17   -229     -5    230    231 184.4  -1.3  33966  286.29 0855.44
2009/04/23 07:41:19.0     -59   -256    -48    263    268 193.1 -10.4  33958  286.16 0855.44
2009/04/23 07:41:19.1     -75   -246    -46    258    263 196.9 -10.1  33964  286.26 0855.44
2009/04/23 07:41:19.2     -93   -263    -35    280    283 199.6  -7.2  33966  286.28 0855.44
2009/04/23 07:41:19.3    -126   -238    -18    270    271 208.0  -3.9  33960  286.20 0855.44
2009/04/23 07:41:19.4    -149   -234     21    278    279 212.6   4.4  33962  286.21 0855.44
2009/04/23 07:41:19.5    -136   -230      2    268    269 210.5   0.5  33966  286.28 0855.44
2009/04/23 07:41:19.6     -99   -154     65    184    196 212.6  19.6  33972  286.39 0855.44
2009/04/23 07:41:19.7     -45   -289    118    293    315 188.9  23.2  33968  286.33 0855.44
2009/04/23 07:41:19.8      33   -285     44    287    291 173.3   8.9  33970  286.35 0855.44
2009/04/23 07:41:19.9      36   -233     33    236    239 171.1   8.0  33972  286.38 0855.44
2009/04/23 07:41:20.0       0   -162     54    163    172 180.0  18.6  33968  286.34 0855.44
2009/04/23 07:41:20.1     -17   -172     41    173    178 185.8  13.5  33974  286.42 0855.44
2009/04/23 07:41:20.3     -39   -196     12    200    201 191.5   3.6  33974  286.42 0855.44
2009/04/23 07:41:20.3     -51   -183     25    191    193 195.6   7.5  33970  286.37 0855.44
2009/04/23 07:41:20.4     -60   -182     37    192    196 198.5  11.1  33968  286.34 0855.44
2009/04/23 07:41:20.5     -27   -150     61    153    164 190.2  22.5  33968  286.32 0855.44
2009/04/23 07:41:20.6     -39   -131     48    137    146 196.9  19.4  33968  286.34 0855.44
2009/04/23 07:41:20.7     -64   -117     36    134    139 208.9  15.3  33968  286.32 0855.44
2009/04/23 07:41:20.8     -67   -113     63    132    146 210.7  27.2  33970  286.37 0855.44
2009/04/23 07:41:20.9     -46   -111     62    121    135 202.7  29.2  33968  286.34 0855.44
2009/04/23 07:41:21.0     -33   -100     94    106    141 198.7  46.4  33968  286.32 0855.44
2009/04/23 07:41:21.1     -53   -108     96    121    154 206.3  42.7  33970  286.37 0855.44
2009/04/23 07:41:21.2     -49    -46    106     68    125 226.9  64.6  33972  286.41 0855.44
2009/04/23 07:41:21.3      -6    -70    103     71    125 185.3  62.6  33976  286.47 0855.44
2009/04/23 07:41:21.4      -6   -117    122    118    169 183.1  50.7  33978  286.51 0855.44
2009/04/23 07:41:21.5     -34   -104    120    110    162 198.3  52.5  33974  286.42 0855.44
2009/04/23 07:41:21.6       7   -124     47    125    133 176.4  21.0  33978  286.49 0855.44
2009/04/23 07:41:21.7      56   -118     37    131    137 154.6  15.8  33974  286.42 0855.44
2009/04/23 07:41:21.8     100   -121     31    158    162 140.4  11.1  33972  286.41 0855.44
2009/04/23 07:41:21.9      74   -118     77    140    159 147.9  31.0  33978  286.49 0855.44
2009/04/23 07:41:22.0      62   -110     25    127    130 150.6  11.1  33968  286.34 0855.44
2009/04/23 07:41:22.1      70   -154     44    170    176 155.7  14.5  33964  286.27 0855.44
2009/04/23 07:41:22.2      56   -167     29    177    180 161.5   9.3  33966  286.30 0855.44
2009/04/23 07:41:22.3      -1   -141     63    142    155 180.5  25.2  33968  286.34 0855.44
2009/04/23 07:41:22.4      32   -134     71    138    155 166.6  29.3  33970  286.35 0855.44
2009/04/23 07:41:22.5     -25   -122     57    125    137 191.6  26.2  33970  286.35 0855.44
2009/04/23 07:41:22.6     -35   -142     57    147    157 193.8  22.3  33968  286.34 0855.44
2009/04/23 07:41:22.7     -35   -165     73    169    184 192.0  24.9  33972  286.39 0855.44
2009/04/23 07:41:22.8     -32   -156     81    160    179 191.6  28.7  33968  286.32 0855.44
2009/04/23 07:41:22.9     -34   -125     68    130    146 195.2  29.3  33968  286.32 0855.44
2009/04/23 07:41:23.0     -42    -83     25     94     98 207.2  15.3  33968  286.34 0855.44
2009/04/23 07:41:23.1     -57    -72    -26     92     96 218.3 -16.0  33968  286.32 0855.44
2009/04/23 07:41:23.2     -67    -84    -38    108    115 218.7 -19.6  33966  286.30 0855.44
2009/04/23 07:41:23.3     -68    -70    -19     98    100 224.1 -11.3  33968  286.34 0855.44
2009/04/23 07:41:23.4     -70    -71    -31    100    105 224.7 -17.6  33968  286.32 0855.44
2009/04/23 07:41:23.5     -44    -72    -36     85     92 211.6 -28.5  33966  286.30 0855.44
2009/04/23 07:41:23.6     -87   -105    -51    137    146 219.7 -25.4  33966  286.29 0855.44
2009/04/23 07:41:23.7     -14   -128    -30    129    133 186.3 -13.3  33966  286.29 0855.44
2009/04/23 07:41:23.8      -2   -109    -49    110    120 181.4 -29.6  33966  286.29 0855.44
2009/04/23 07:41:23.9       9   -123    -32    124    129 175.6 -14.5  33964  286.27 0855.44
2009/04/23 07:41:24.0      -2    -66    -66     67     94 181.8 -54.9  33964  286.27 0855.44
2009/04/23 07:41:24.1     -60    -83    -40    103    110 216.1 -26.9  33968  286.32 0855.44
2009/04/23 07:41:24.2     -51   -108      3    120    121 205.5   1.8  33970  286.35 0855.44
2009/04/23 07:41:24.3     -69   -110    -18    130    132 212.1  -8.2  33972  286.41 0855.44
2009/04/23 07:41:24.4     -46   -152    -33    159    163 196.9 -11.9  33968  286.32 0855.44
2009/04/23 07:41:24.5     -31   -154     -6    158    159 191.6  -2.2  33966  286.29 0855.44
2009/04/23 07:41:24.6     -51   -157      6    166    167 198.0   2.3  33966  286.30 0855.44
2009/04/23 07:41:24.7     -41   -151      1    157    158 195.2   0.5  33964  286.25 0855.44
2009/04/23 07:41:24.8      30   -141     12    145    146 168.0   5.0  33962  286.24 0855.44
2009/04/23 07:41:24.9       9   -155     52    156    165 176.4  18.4  33966  286.30 0855.44
2009/04/23 07:41:25.0      11   -145     71    146    162 175.6  27.8  33966  286.29 0855.44
2009/04/23 07:41:25.1      13   -166     39    167    172 175.5  13.2  33964  286.27 0855.44
2009/04/23 07:41:25.2     -22   -189     71    191    203 186.9  21.0  33964  286.25 0855.43
2009/04/23 07:41:25.3      -2   -159     57    160    169 180.9  20.0  33966  286.29 0855.43
2009/04/23 07:41:25.4      10   -134     57    135    146 175.6  24.1  33968  286.32 0855.43
2009/04/23 07:41:25.5      32   -191     28    194    197 170.4   8.2  33972  286.41 0855.43
2009/04/23 07:41:25.6       6   -177     39    178    183 177.8  12.4  33968  286.34 0855.43
2009/04/23 07:41:25.7     -55   -198    -29    206    209 195.6  -8.0  33974  286.42 0855.43
2009/04/23 07:41:25.9     -69   -210     18    222    223 198.3   4.9  33980  286.52 0855.43
2009/04/23 07:41:25.9     -27   -196     59    198    207 188.0  16.8  33986  286.62 0855.43
2009/04/23 07:41:26.0       2   -141    151    142    207 179.1  52.1  33974  286.42 0855.43
2009/04/23 07:41:26.1      68   -217    165    228    281 162.4  39.5  33966  286.28 0855.43
2009/04/23 07:41:26.3      58   -217    156    225    273 164.9  38.0  33966  286.28 0855.43
2009/04/23 07:41:26.3      87   -184    157    204    257 154.7  41.4  33964  286.26 0855.43
2009/04/23 07:41:26.4      83   -188    175    206    270 156.2  44.5  33966  286.30 0855.43
2009/04/23 07:41:26.5      55   -232    159    239    287 166.6  36.7  33964  286.25 0855.43
2009/04/23 07:41:26.7      10   -217    121    218    249 177.3  31.4  33966  286.28 0855.43
2009/04/23 07:41:26.7      47   -175     91    182    203 164.9  28.7  33964  286.25 0855.43
2009/04/23 07:41:26.9      34   -161    110    165    198 168.0  37.0  33964  286.25 0855.43
2009/04/23 07:41:27.0      12   -155     77    156    173 175.5  28.0  33968  286.34 0855.43
2009/04/23 07:41:27.1      -6   -155     81    156    175 182.2  29.5  33966  286.29 0855.43
2009/04/23 07:41:27.2       8   -158    103    159    189 176.9  35.7  33966  286.29 0855.43
2009/04/23 07:41:27.3       4   -138     95    139    168 178.2  37.6  33966  286.29 0855.44
2009/04/23 07:41:27.4      72   -143    109    161    194 153.3  37.0  33968  286.34 0855.44
2009/04/23 07:41:27.5      84   -173    100    193    217 154.1  29.5  33966  286.30 0855.44
2009/04/23 07:41:27.6     109   -212     97    239    257 152.8  23.1  33968  286.31 0855.44
2009/04/23 07:41:27.7      93   -182    109    205    232 153.0  30.6  33968  286.32 0855.44
2009/04/23 07:41:27.8      46   -198    106    204    229 166.7  29.5  33968  286.34 0855.44
2009/04/23 07:41:27.9      22   -207     55    209    217 173.7  14.7  33968  286.32 0855.44
2009/04/23 07:41:28.0      10   -232     66    233    243 177.3  15.8  33964  286.26 0855.44
2009/04/23 07:41:28.1      16   -196     47    197    203 175.3  13.5  33968  286.34 0855.44
2009/04/23 07:41:28.2     -36   -227     66    230    240 189.1  16.0  33968  286.33 0855.44
2009/04/23 07:41:28.3     -31   -220     72    223    235 188.0  17.9  33966  286.30 0855.44
2009/04/23 07:41:28.4      36   -224      9    228    229 170.7   2.5  33968  286.34 0855.44
2009/04/23 07:41:28.5      -7   -215     11    216    217 182.0   3.1  33968  286.34 0855.44
2009/04/23 07:41:28.6     -23   -211     10    213    214 186.2   2.9  33966  286.30 0855.44
2009/04/23 07:41:28.7       6   -204     47    205    211 178.2  13.1  33968  286.32 0855.44
2009/04/23 07:41:28.8      -8   -204     41    205    210 182.5  11.4  33970  286.35 0855.44
2009/04/23 07:41:28.9      -7   -190     22    191    193 182.2   6.7  33968  286.34 0855.44
2009/04/23 07:41:29.0      22   -183     33    185    189 173.1  10.3  33970  286.35 0855.44
2009/04/23 07:41:29.1      64   -179     34    191    195 160.2  10.3  33970  286.35 0855.44
2009/04/23 07:41:29.2      93   -171     40    195    200 151.3  11.6  33968  286.32 0855.44
2009/04/23 07:41:29.3     126   -150     38    197    201 139.9  11.0  33968  286.32 0855.43
2009/04/23 07:41:29.4     119   -136     54    182    190 138.8  16.6  33966  286.29 0855.43
2009/04/23 07:41:29.5      93    -93    -27    132    135 135.0 -11.9  33966  286.30 0855.43
2009/04/23 07:41:29.6      44   -135     -7    143    144 161.7  -3.1  33968  286.32 0855.43
2009/04/23 07:41:29.7      43   -166     -6    172    173 165.5  -2.2  33968  286.34 0855.43
2009/04/23 07:41:29.8      53   -169     -8    178    179 162.6  -2.6  33970  286.35 0855.43
2009/04/23 07:41:29.9      69   -169     -7    183    184 157.7  -2.2  33968  286.32 0855.43
2009/04/23 07:41:30.0     112   -183     12    215    216 148.6   3.3  33968  286.34 0855.43
2009/04/23 07:41:30.1     100   -156     21    186    188 147.4   6.5  33966  286.29 0855.43
2009/04/23 07:41:30.2      97   -176     43    202    207 151.0  12.0  33966  286.29 0855.43
2009/04/23 07:41:30.3     112   -202     28    232    234 151.0   7.1  33968  286.33 0855.43
2009/04/23 07:41:30.4     128   -187     17    227    228 145.5   4.4  33966  286.30 0855.43
2009/04/23 07:41:30.5     160   -190     17    249    250 139.9   3.9  33966  286.30 0855.43
2009/04/23 07:41:30.6     120   -199     10    233    234 149.0   2.5  33968  286.33 0855.43
2009/04/23 07:41:30.7     128   -185    -22    226    228 145.3  -5.6  33966  286.29 0855.43
2009/04/23 07:41:30.8      80   -219      2    234    235 160.0   0.7  33966  286.28 0855.43
2009/04/23 07:41:30.9     117   -246    -10    273    274 154.5  -2.1  33966  286.28 0855.43
2009/04/23 07:41:31.0     139   -199     11    244    245 145.0   2.8  33968  286.33 0855.43
2009/04/23 07:41:31.1     113   -205     24    235    237 151.0   6.0  33968  286.33 0855.43
2009/04/23 07:41:31.2     128   -203     87    241    257 147.7  19.9  33968  286.33 0855.43
2009/04/23 07:41:31.3      84   -210     77    227    240 158.2  18.9  33968  286.33 0855.44
2009/04/23 07:41:31.4     111   -225     42    251    255 153.7   9.5  33966  286.28 0855.44
2009/04/23 07:41:31.5     102   -244     93    265    280 157.3  20.0  33966  286.28 0855.44
2009/04/23 07:41:31.6      71   -264     95    274    291 164.8  19.2  33968  286.31 0855.44
2009/04/23 07:41:31.7      47   -268     53    273    279 170.0  11.1  33966  286.28 0855.44
2009/04/23 07:41:31.8      63   -190    101    201    224 161.7  28.5  33970  286.35 0855.44
2009/04/23 07:41:31.9      21   -182    109    184    213 173.3  33.5  33966  286.30 0855.44
2009/04/23 07:41:32.0       0   -171     56    172    182 180.2  18.1  33968  286.34 0855.44
2009/04/23 07:41:32.1     -14   -159     28    160    163 185.3  10.1  33968  286.34 0855.44
2009/04/23 07:41:32.2       8   -166     25    167    169 177.1   8.8  33968  286.32 0855.44
2009/04/23 07:41:32.3      37   -157      4    162    163 166.6   1.6  33968  286.34 0855.44
2009/04/23 07:41:32.4      31   -193     30    196    199 170.9   8.8  33966  286.30 0855.44
2009/04/23 07:41:32.5      25   -184     29    186    189 172.0   9.0  33968  286.32 0855.44
2009/04/23 07:41:32.6      37   -185     58    189    198 168.7  17.3  33968  286.34 0855.44
2009/04/23 07:41:32.7      49   -201     38    207    211 166.2  10.6  33964  286.25 0855.44
2009/04/23 07:41:32.8      70   -172     68    186    198 157.7  21.0  33964  286.27 0855.44
2009/04/23 07:41:32.9      97   -176     86    202    219 151.0  24.6  33968  286.32 0855.44
2009/04/23 07:41:33.0     105   -123     84    163    183 139.5  29.5  33968  286.32 0855.44
2009/04/23 07:41:33.1      55   -174    105    183    210 162.2  32.7  33966  286.29 0855.44
2009/04/23 07:41:33.2      73   -205     26    218    220 160.2   6.9  33964  286.27 0855.44
2009/04/23 07:41:33.3      50   -196      8    203    204 165.7   2.5  33966  286.29 0855.44
2009/04/23 07:41:33.4      64   -146      9    160    161 156.4   3.3  33964  286.25 0855.44
2009/04/23 07:41:33.5      83   -130     36    155    160 147.5  13.2  33962  286.24 0855.44
2009/04/23 07:41:33.6     115   -224     47    252    257 152.8  10.6  33968  286.31 0855.44
2009/04/23 07:41:33.7     120   -224     35    255    258 151.9   8.0  33968  286.31 0855.44
2009/04/23 07:41:33.8     114   -245     48    271    276 155.1  10.1  33970  286.35 0855.44
2009/04/23 07:41:33.9     110   -224     44    250    254 153.7  10.1  33968  286.31 0855.44
2009/04/23 07:41:34.0      71   -199     69    212    224 160.4  18.1  33970  286.37 0855.44
2009/04/23 07:41:34.1      99   -208     85    231    246 154.5  21.0  33972  286.38 0855.44
2009/04/23 07:41:34.2      98   -138     59    170    181 144.4  19.2  33966  286.29 0855.44
2009/04/23 07:41:34.3     117    -58     46    131    138 116.6  20.0  33968  286.32 0855.44
2009/04/23 07:41:34.4      82    -83     23    118    121 135.3  11.0  33970  286.35 0855.44
2009/04/23 07:41:34.5     111    -80     12    138    139 125.9   5.0  33968  286.34 0855.44
2009/04/23 07:41:34.6      74    -94     14    121    122 141.7   6.9  33968  286.34 0855.44
2009/04/23 07:41:34.7      60   -127      7    141    142 154.5   2.9  33966  286.30 0855.44
2009/04/23 07:41:34.8      61   -111     44    127    135 151.0  19.4  33968  286.32 0855.44
2009/04/23 07:41:34.9      58    -55     43     81     91 133.6  30.3  33968  286.32 0855.44
2009/04/23 07:41:35.0      40    -15     73     43     84 110.8  66.2  33968  286.32 0855.44
2009/04/23 07:41:35.1      36    -24     68     44     80 123.3  64.1  33968  286.34 0855.44
2009/04/23 07:41:35.2      22    -22     62     32     69 135.0  70.8  33968  286.34 0855.44
2009/04/23 07:41:35.3      26    -23     60     35     69 131.3  66.8  33968  286.32 0855.44
2009/04/23 07:41:35.4      43    -58     49     73     87 143.9  37.0  33968  286.34 0855.44
2009/04/23 07:41:35.5      67    -70     53     98    111 136.3  30.8  33968  286.34 0855.44
2009/04/23 07:41:35.6      45    -58     60     74     95 142.2  43.7  33966  286.29 0855.44
2009/04/23 07:41:35.7     108    -71     92    130    159 123.3  38.8  33966  286.29 0855.44
2009/04/23 07:41:35.8     196    -93     89    218    235 115.4  23.6  33966  286.30 0855.44
2009/04/23 07:41:35.9     169   -135     42    217    222 128.6  11.1  33964  286.27 0855.44
2009/04/23 07:41:36.0     137   -137     24    194    196 135.0   7.1  33964  286.27 0855.44
2009/04/23 07:41:36.1     126    -80      9    150    151 122.5   3.8  33964  286.25 0855.44
2009/04/23 07:41:36.2      92    -88     10    128    129 133.6   4.9  33966  286.30 0855.44
2009/04/23 07:41:36.3      85    -86     37    121    127 135.3  17.3  33966  286.29 0855.44
2009/04/23 07:41:36.4     113    -82     27    140    143 125.9  11.1  33966  286.30 0855.44
2009/04/23 07:41:36.5     176    -92     60    199    208 117.8  16.8  33968  286.32 0855.44
2009/04/23 07:41:36.6     157    -95     58    184    194 121.1  17.7  33968  286.34 0855.44
2009/04/23 07:41:36.7     127    -81     69    151    166 122.5  26.4  33970  286.37 0855.44
2009/04/23 07:41:36.8     159    -93     93    185    207 120.2  28.5  33968  286.32 0855.44
2009/04/23 07:41:36.9     121   -124    118    174    210 135.9  37.4  33970  286.37 0855.44
2009/04/23 07:41:37.0      65   -125    147    142    204 152.4  50.7  33970  286.37 0855.44
2009/04/23 07:41:37.1     129    -47    137    138    194 110.0  50.5  33970  286.35 0855.44
2009/04/23 07:41:37.2     158    -12     84    159    179  94.4  30.1  33968  286.34 0855.44
2009/04/23 07:41:37.3     128    -30    124    132    181 103.3  48.0  33970  286.37 0855.44
2009/04/23 07:41:37.4     110    -24     93    113    146 102.8  43.7  33972  286.39 0855.44
2009/04/23 07:41:37.5     130    -47     97    139    169 110.0  38.4  33970  286.35 0855.44
2009/04/23 07:41:37.6     144    -21     78    146    165  98.4  30.6  33968  286.34 0855.44
2009/04/23 07:41:37.7     133    -42     99    140    171 107.7  38.8  33968  286.34 0855.44
2009/04/23 07:41:37.9      55    -62     80     84    116 138.6  49.0  33970  286.35 0855.44
2009/04/23 07:41:38.0      36      3     56     37     67  83.9  64.6  33968  286.32 0855.44
2009/04/23 07:41:38.1       3    -14     57     15     58 164.9  84.9  33972  286.41 0855.44
2009/04/23 07:41:38.2      87      6     73     88    114  85.6  43.7  33968  286.32 0855.44
2009/04/23 07:41:38.3     146    -49    113    155    191 108.6  39.7  33972  286.39 0855.44
2009/04/23 07:41:38.4     118    -75    128    141    190 122.5  47.1  33968  286.34 0855.44
2009/04/23 07:41:38.5     169    -71    134    184    227 112.8  39.7  33968  286.34 0855.44
2009/04/23 07:41:38.6     118   -110     34    162    166 133.2  12.0  33968  286.34 0855.44
2009/04/23 07:41:38.7     184    -66     82    196    212 110.0  24.1  33970  286.35 0855.44
2009/04/23 07:41:38.8     152    -69     57    168    178 114.6  18.9  33966  286.30 0855.44
2009/04/23 07:41:38.9     159   -103    110    190    219 123.1  32.7  33970  286.35 0855.44
2009/04/23 07:41:39.0     115    -97     90    151    175 130.0  34.0  33968  286.34 0855.44
2009/04/23 07:41:39.1     142    -67     56    158    168 115.2  19.6  33966  286.30 0855.44
2009/04/23 07:41:39.2     131   -115     61    175    186 131.1  19.4  33970  286.35 0855.44
2009/04/23 07:41:39.3      77   -109     67    134    149 144.8  28.2  33966  286.30 0855.44
2009/04/23 07:41:39.4     148    -90     59    174    185 121.5  18.9  33966  286.29 0855.44
2009/04/23 07:41:39.5     102   -116     62    155    166 138.6  23.0  33968  286.34 0855.44
2009/04/23 07:41:39.6      88   -106    102    138    171 140.3  40.4  33968  286.32 0855.44
2009/04/23 07:41:39.7     120    -58     71    134    151 115.8  29.8  33970  286.35 0855.44
2009/04/23 07:41:39.8     167    -78     52    185    193 115.2  15.8  33966  286.30 0855.44
2009/04/23 07:41:39.9     122    -57     57    135    146 115.3  24.1  33970  286.35 0855.44
2009/04/23 07:41:40.0      34    -35     85     50     98 135.8  67.2  33964  286.25 0855.44
2009/04/23 07:41:40.1     122    -57     82    135    157 115.2  34.2  33968  286.34 0855.44
2009/04/23 07:41:40.2     133    -63     63    148    160 115.2  24.3  33968  286.34 0855.44
2009/04/23 07:41:40.3     148    -70     16    164    165 115.4   5.9  33968  286.32 0855.45
2009/04/23 07:41:40.4     144    -59      1    156    157 112.6   0.5  33970  286.35 0855.45
2009/04/23 07:41:40.5     164    -69    -30    179    182 112.8  -9.6  33970  286.35 0855.45
2009/04/23 07:41:40.6     119    -40     -9    126    127 108.6  -4.1  33970  286.37 0855.45
2009/04/23 07:41:40.7      89    -22     -6     92     93 104.2  -4.1  33972  286.39 0855.45
2009/04/23 07:41:40.8     -20    -62     56     66     86 197.8  45.4  33968  286.34 0855.45
2009/04/23 07:41:40.9     -52    -68     58     86    103 217.8  37.0  33968  286.32 0855.45
2009/04/23 07:41:41.0     -38    -66     42     77     87 209.9  30.8  33972  286.39 0855.45
2009/04/23 07:41:41.1      -7    -99     62    100    117 184.5  35.0  33968  286.32 0855.45
2009/04/23 07:41:41.2     140    -77     43    160    166 118.9  15.3  33972  286.39 0855.45
2009/04/23 07:41:41.3     146    -25    -46    149    155  99.7 -22.8  33970  286.37 0855.45
2009/04/23 07:41:41.4     124    -79     -8    148    149 122.4  -3.2  33972  286.39 0855.45
2009/04/23 07:41:41.5     146   -104      9    180    181 125.3   2.9  33970  286.37 0855.45
2009/04/23 07:41:41.6      39    -64     45     76     88 148.4  33.5  33968  286.34 0855.45
2009/04/23 07:41:41.7      67    -27     64     73     97 111.8  45.8  33970  286.37 0855.45
2009/04/23 07:41:41.8      86    -14     64     88    108  99.7  39.7  33968  286.32 0855.45
2009/04/23 07:41:41.9      85    -23     84     89    122 105.1  48.5  33970  286.35 0855.45
2009/04/23 07:41:42.0      77    -28     88     83    120 110.4  52.1  33972  286.39 0855.45
2009/04/23 07:41:42.1      61    -39     74     73    103 122.4  49.7  33968  286.34 0855.45
2009/04/23 07:41:42.2      94    -44     53    105    117 115.3  28.7  33970  286.35 0855.45
2009/04/23 07:41:42.3     100    -31     28    105    109 107.3  15.3  33968  286.34 0855.44
2009/04/23 07:41:42.4      78    -41     51     89    102 118.0  32.4  33968  286.32 0855.44
2009/04/23 07:41:42.5      52    -55     23     76     80 136.8  17.3  33970  286.35 0855.44
2009/04/23 07:41:42.6      64    -77     -7    101    102 140.3  -4.1  33968  286.34 0855.44
2009/04/23 07:41:42.8      69    -63    -47     94    105 132.7 -32.6  33968  286.32 0855.44
2009/04/23 07:41:42.9      76    -55    -76     95    121 126.0 -47.1  33972  286.39 0855.44
2009/04/23 07:41:43.0     112    -81    -65    139    153 126.0 -31.5  33968  286.32 0855.44
2009/04/23 07:41:43.1      77    -86    -57    116    129 138.1 -32.2  33968  286.34 0855.44
2009/04/23 07:41:43.2     108    -41    -14    116    117 110.8  -7.3  33966  286.29 0855.44
2009/04/23 07:41:43.3      89    -55     -2    105    106 122.0  -1.2  33968  286.32 0855.44
2009/04/23 07:41:43.4      65    -69     -1     95     96 136.8  -0.7  33968  286.32 0855.44
2009/04/23 07:41:43.5      86    -30     23     92     95 109.5  14.3  33968  286.32 0855.44
2009/04/23 07:41:43.6     102    -55     25    117    120 118.4  12.2  33970  286.35 0855.44
2009/04/23 07:41:43.7      36    -87     79     95    123 157.3  44.3  33964  286.27 0855.44
2009/04/23 07:41:43.8      77   -190    128    206    242 157.9  35.0  33972  286.41 0855.44
2009/04/23 07:41:43.9     124   -203    140    239    276 148.6  33.1  33972  286.40 0855.44
2009/04/23 07:41:44.0     118   -174    114    211    239 145.7  30.6  33972  286.41 0855.44
2009/04/23 07:41:44.1     100   -200    110    224    249 153.3  28.2  33974  286.42 0855.44
2009/04/23 07:41:44.2     118   -178     86    214    230 146.4  23.0  33970  286.37 0855.44
2009/04/23 07:41:44.3     116   -201    100    233    253 149.9  24.3  33970  286.36 0855.44
2009/04/23 07:41:44.4     140   -157    107    211    236 138.3  29.1  33970  286.37 0855.44
2009/04/23 07:41:44.5     120   -135    101    181    207 138.3  31.6  33972  286.41 0855.44
2009/04/23 07:41:44.6     120   -120    108    170    201 135.0  35.5  33970  286.37 0855.44
2009/04/23 07:41:44.7     106   -158    126    191    228 146.2  36.3  33972  286.39 0855.44
2009/04/23 07:41:44.8      85   -186    134    205    244 155.5  36.3  33972  286.38 0855.44
2009/04/23 07:41:44.9     109   -171    111    203    231 147.5  31.3  33970  286.37 0855.44
2009/04/23 07:41:45.0      72   -173     94    188    210 157.3  28.5  33968  286.32 0855.44
2009/04/23 07:41:45.1      52   -194    117    202    233 164.9  32.9  33970  286.37 0855.44
2009/04/23 07:41:45.2      78   -185     89    201    219 157.1  25.3  33970  286.35 0855.44
2009/04/23 07:41:45.3      70   -189     75    202    215 159.5  21.0  33968  286.34 0855.44
2009/04/23 07:41:45.4      80   -184     65    201    212 156.4  18.1  33972  286.39 0855.44
2009/04/23 07:41:45.5     111   -200    126    229    261 151.0  31.4  33970  286.35 0855.44
2009/04/23 07:41:45.6     110   -214    139    241    278 152.8  32.7  33968  286.33 0855.44
2009/04/23 07:41:45.7     159   -205    139    260    294 142.2  30.3  33968  286.33 0855.44
2009/04/23 07:41:45.8     192   -223    140    295    326 139.4  27.1  33966  286.30 0855.44
2009/04/23 07:41:45.9     223   -223    132    316    342 135.0  23.9  33968  286.32 0855.44
2009/04/23 07:41:46.0     172   -173    116    245    271 135.2  27.1  33968  286.31 0855.44
2009/04/23 07:41:46.1     154   -210     81    261    274 143.7  17.3  33968  286.31 0855.44
2009/04/23 07:41:46.2      92   -160     23    185    187 149.9   7.2  33968  286.34 0855.44
2009/04/23 07:41:46.3      66   -151     37    165    170 156.4  12.9  33968  286.32 0855.45
2009/04/23 07:41:46.4     101   -141     -9    174    175 144.4  -3.2  33970  286.35 0855.45
2009/04/23 07:41:46.5      58   -145      9    157    158 158.2   3.3  33970  286.35 0855.45
2009/04/23 07:41:46.6       8   -154     23    155    157 176.9   8.5  33968  286.34 0855.45
2009/04/23 07:41:46.7     -46   -192     18    198    199 193.6   5.4  33970  286.35 0855.45
2009/04/23 07:41:46.8     -70   -179    -41    193    198 201.6 -12.2  33968  286.34 0855.45
2009/04/23 07:41:46.9     -87   -142    -64    167    178 211.6 -26.4  33968  286.32 0855.45
2009/04/23 07:41:47.0    -120   -157    -47    198    204 217.4 -13.4  33966  286.29 0855.45
2009/04/23 07:41:47.1    -106   -178    -57    208    216 210.8 -15.4  33968  286.32 0855.45
2009/04/23 07:41:47.2    -126   -147    -66    194    206 220.5 -18.9  33966  286.29 0855.45
2009/04/23 07:41:47.3     -73   -184    -34    199    203 201.8  -9.8  33968  286.32 0855.45
2009/04/23 07:41:47.4    -132   -160    -57    208    216 219.7 -15.5  33968  286.32 0855.45
2009/04/23 07:41:47.5     -65   -164    -70    177    190 201.8 -27.2  33966  286.30 0855.45
2009/04/23 07:41:47.6     -38   -160   -110    165    198 193.4 -41.4  33966  286.29 0855.45
2009/04/23 07:41:47.7     -11   -153   -124    154    197 184.4 -47.4  33966  286.29 0855.45
2009/04/23 07:41:47.8     -81    -97    -84    127    152 219.6 -40.4  33962  286.24 0855.45
2009/04/23 07:41:47.9     -32    -94    -77    100    126 198.7 -46.0  33966  286.30 0855.45
2009/04/23 07:41:48.0     -16    -50    -81     53     96 198.3 -69.0  33964  286.25 0855.45
2009/04/23 07:41:48.1     -33    -67    -26     75     79 206.3 -23.8  33966  286.29 0855.45
2009/04/23 07:41:48.2       3    -14     11     15     18 164.9  39.7  33968  286.32 0855.45
2009/04/23 07:41:48.3      12    -24    -21     27     34 152.8 -48.1  33966  286.29 0855.44
2009/04/23 07:41:48.4      50    -47    -51     69     85 133.1 -44.5  33968  286.34 0855.44
2009/04/23 07:41:48.5      52    -39    -51     66     83 126.9 -46.1  33964  286.27 0855.44
2009/04/23 07:41:48.6     116     -8    -68    117    135  94.3 -37.8  33964  286.27 0855.44
2009/04/23 07:41:48.7     126     26    -58    129    141  78.1 -30.1  33968  286.34 0855.44
2009/04/23 07:41:48.8     164     -8    -50    165    173  93.0 -17.0  33966  286.30 0855.44
2009/04/23 07:41:48.9     221    -53     -4    228    229 103.7  -1.2  33968  286.34 0855.44
2009/04/23 07:41:49.0     209    -64    -16    219    220 107.1  -4.4  33966  286.30 0855.44
2009/04/23 07:41:49.1     176    -62     69    187    199 109.7  21.0  33966  286.29 0855.44
2009/04/23 07:41:49.2      92    -89     96    129    160 134.0  40.4  33968  286.32 0855.44
2009/04/23 07:41:49.3     101   -100    106    143    178 134.9  40.1  33970  286.35 0855.44
2009/04/23 07:41:49.5     129    -93     78    160    178 125.9  28.0  33968  286.34 0855.44
2009/04/23 07:41:49.5     166   -124     22    208    210 126.6   6.1  33968  286.32 0855.44
2009/04/23 07:41:49.6     137   -158     -8    210    211 139.0  -2.2  33968  286.32 0855.44
2009/04/23 07:41:49.7      78   -190     47    206    212 157.7  12.9  33970  286.35 0855.44
2009/04/23 07:41:49.8     130   -219     73    255    266 149.3  16.0  33970  286.35 0855.44
2009/04/23 07:41:49.9      75   -213     44    226    231 160.6  11.0  33968  286.32 0855.44
2009/04/23 07:41:50.0       8   -187     86    188    206 177.3  26.4  33970  286.37 0855.44
2009/04/23 07:41:50.1      33   -199     78    202    216 170.4  22.5  33970  286.37 0855.44
2009/04/23 07:41:50.2      68   -174     76    187    201 158.6  23.1  33970  286.35 0855.44
2009/04/23 07:41:50.3      98   -206     53    229    236 154.5  13.2  33972  286.38 0855.45
2009/04/23 07:41:50.4     117   -269     57    294    300 156.4  11.0  33970  286.36 0855.45
2009/04/23 07:41:50.5      97   -253     77    272    283 159.0  15.8  33972  286.38 0855.45
2009/04/23 07:41:50.6     135   -277     43    309    313 153.9   8.0  33974  286.42 0855.45
2009/04/23 07:41:50.7     144   -305     34    338    340 154.7   5.8  33972  286.41 0855.45
2009/04/23 07:41:50.8     149   -259    -54    299    304 150.1 -10.3  33968  286.31 0855.45
2009/04/23 07:41:50.9     136   -214    -73    254    265 147.5 -16.0  33970  286.35 0855.45
2009/04/23 07:41:51.0     126   -256     24    286    288 153.7   5.0  33968  286.33 0855.45
2009/04/23 07:41:51.1      76   -223    -10    236    237 161.1  -2.6  33972  286.40 0855.45
2009/04/23 07:41:51.2      62   -176      1    187    188 160.4   0.5  33970  286.35 0855.45
2009/04/23 07:41:51.3      96   -174    -22    199    201 151.0  -6.5  33972  286.39 0855.45
2009/04/23 07:41:51.4      60   -151     14    163    164 158.1   5.2  33970  286.37 0855.45
2009/04/23 07:41:51.5      69   -157    -33    172    176 156.2 -11.1  33972  286.39 0855.45
2009/04/23 07:41:51.6      90   -194    -62    214    222 155.1 -21.2  33972  286.41 0855.45
2009/04/23 07:41:51.7     111   -169      7    203    204 146.8   2.1  33970  286.37 0855.45
2009/04/23 07:41:51.8      77   -122     47    145    153 147.5  17.9  33972  286.41 0855.45
2009/04/23 07:41:51.9      97   -117     30    153    156 140.4  11.1  33970  286.37 0855.45
2009/04/23 07:41:52.0     176   -147     10    230    231 129.8   2.5  33972  286.41 0855.45
2009/04/23 07:41:52.1     169   -144     -2    223    224 130.4  -0.7  33972  286.39 0855.45
2009/04/23 07:41:52.2     147   -114    -19    187    189 127.8  -6.0  33972  286.39 0855.45
2009/04/23 07:41:52.3     117    -95     28    152    155 129.1  10.6  33972  286.39 0855.45
2009/04/23 07:41:52.4     112   -114      3    160    161 135.5   1.2  33972  286.39 0855.45
2009/04/23 07:41:52.5     105    -85     -9    136    137 129.1  -4.1  33970  286.37 0855.45
2009/04/23 07:41:52.6      92    -71    -23    117    120 127.8 -11.3  33972  286.41 0855.45
2009/04/23 07:41:52.7      94    -60    -24    112    115 122.4 -12.4  33972  286.39 0855.45
2009/04/23 07:41:52.8      79    -64     -9    103    104 129.1  -5.2  33972  286.39 0855.45
2009/04/23 07:41:52.9      65    -79    -28    103    107 140.8 -15.5  33970  286.35 0855.45
2009/04/23 07:41:53.1      48    -71    -27     86     91 145.7 -17.6  33970  286.35 0855.45
2009/04/23 07:41:53.2      44    -60    -26     75     80 143.9 -19.7  33970  286.35 0855.45
2009/04/23 07:41:53.3      94    -52     14    108    109 119.3   7.5  33972  286.39 0855.45
2009/04/23 07:41:53.4     108   -115     -4    159    160 136.8  -1.6  33970  286.35 0855.46
2009/04/23 07:41:53.5     103   -128     12    165    166 141.3   4.4  33966  286.30 0855.46
2009/04/23 07:41:53.6      77   -147     66    167    179 152.4  22.8  33968  286.34 0855.46
2009/04/23 07:41:53.7      40   -135     94    141    169 163.5  36.7  33968  286.34 0855.46
2009/04/23 07:41:53.8      24   -117     85    120    147 168.4  39.1  33966  286.30 0855.46
2009/04/23 07:41:53.9      65    -79     60    103    119 140.4  32.9  33968  286.34 0855.46
2009/04/23 07:41:54.0     111    -61     17    127    129 118.9   8.0  33968  286.34 0855.46
2009/04/23 07:41:54.1     128    -21     64    130    144  99.7  28.2  33968  286.32 0855.46
2009/04/23 07:41:54.2     131    -39    116    137    179 106.8  44.5  33968  286.34 0855.46
2009/04/23 07:41:54.3      50    -44     98     67    118 131.3  62.6  33964  286.27 0855.46
2009/04/23 07:41:54.4     -11   -147     90    148    173 184.4  34.8  33968  286.32 0855.46
2009/04/23 07:41:54.5     -42   -140     96    147    175 197.0  35.7  33964  286.27 0855.46
2009/04/23 07:41:54.6     -77   -154     34    173    177 206.5  11.1  33970  286.35 0855.46
2009/04/23 07:41:54.7      -9   -126    -56    127    138 184.4 -29.5  33964  286.27 0855.46
2009/04/23 07:41:54.8      84    -41    -59     94    110 116.2 -39.9  33968  286.34 0855.46
2009/04/23 07:41:54.9      99    -59    -78    116    139 120.7 -41.8  33968  286.32 0855.46
2009/04/23 07:41:55.0      86    -73    -59    113    127 130.4 -33.7  33966  286.29 0855.46
2009/04/23 07:41:55.1      86    -85     -2    122    123 134.8  -1.3  33968  286.32 0855.46
2009/04/23 07:41:55.2      83   -109     48    138    147 142.6  19.4  33968  286.34 0855.46
2009/04/23 07:41:55.3      76   -106     19    131    133 144.4   8.5  33970  286.35 0855.46
2009/04/23 07:41:55.4      60    -94      5    112    113 147.5   2.9  33968  286.32 0855.46
2009/04/23 07:41:55.5      57    -90      5    107    108 147.5   2.8  33966  286.29 0855.46
2009/04/23 07:41:55.6      28    -83     15     88     90 161.3  10.1  33966  286.29 0855.46
2009/04/23 07:41:55.7      44    -57      0     73     74 142.2  -0.3  33966  286.30 0855.46
2009/04/23 07:41:55.8      44    -63     25     78     83 144.8  17.9  33964  286.27 0855.46
2009/04/23 07:41:55.9      26    -87     52     91    104 163.1  32.4  33962  286.24 0855.46
2009/04/23 07:41:56.0      25    -88     49     92    104 164.0  30.8  33960  286.20 0855.46
2009/04/23 07:41:56.1       0   -100     73    101    124 180.0  39.5  33958  286.17 0855.46
2009/04/23 07:41:56.2     -16   -118     88    120    148 188.0  39.7  33964  286.27 0855.46
2009/04/23 07:41:56.3      -2   -115     41    116    123 181.4  20.0  33966  286.30 0855.46
2009/04/23 07:41:56.4      48    -98     66    110    128 153.7  34.0  33958  286.17 0855.46
2009/04/23 07:41:56.5      72    -87     70    114    133 140.3  35.5  33962  286.24 0855.46
2009/04/23 07:41:56.6      45    -87     71     99    121 152.4  39.5  33964  286.25 0855.46
2009/04/23 07:41:56.7      18    -96     51     98    110 169.3  29.3  33964  286.27 0855.46
2009/04/23 07:41:56.8      16    -94     51     96    108 170.2  30.3  33964  286.27 0855.46
2009/04/23 07:41:56.9      53    -96     35    110    116 151.0  17.9  33964  286.27 0855.46
2009/04/23 07:41:57.0      42    -89     19     99    101 154.6  11.1  33964  286.27 0855.46
2009/04/23 07:41:57.1      81    -79     35    114    120 134.0  17.3  33964  286.25 0855.46
2009/04/23 07:41:57.2      70    -56     31     90     96 128.6  19.4  33964  286.27 0855.46
2009/04/23 07:41:57.3      72    -56     31     92     98 127.8  18.9  33964  286.27 0855.46
2009/04/23 07:41:57.4     105    -50     36    117    123 115.4  17.4  33962  286.24 0855.46
2009/04/23 07:41:57.5      93    -33     23     99    102 110.0  13.2  33964  286.27 0855.46
2009/04/23 07:41:57.6      93      0    -23     94     97  90.0 -13.9  33966  286.29 0855.46
2009/04/23 07:41:57.7      58     15    -49     61     78  75.0 -48.1  33962  286.22 0855.46
2009/04/23 07:41:57.8      21    -18    -73     28     78 131.3 -83.6  33962  286.24 0855.46
2009/04/23 07:41:57.9      61    -44    -62     76     98 126.0 -48.1  33962  286.22 0855.46
2009/04/23 07:41:58.0      78    -32    -60     85    104 112.2 -43.0  33962  286.22 0855.46
2009/04/23 07:41:58.1     101    -44    -50    111    121 113.5 -30.1  33960  286.20 0855.46
2009/04/23 07:41:58.2      85    -21    -31     88     94 104.2 -19.7  33960  286.20 0855.46
2009/04/23 07:41:58.3      57    -30    -34     65     73 118.0 -33.7  33964  286.25 0855.46
2009/04/23 07:41:58.4      65      0    -31     66     72  90.0 -31.5  33962  286.22 0855.46
2009/04/23 07:41:58.5      54     -6    -17     55     58  97.0 -17.6  33962  286.24 0855.46
2009/04/23 07:41:58.6      78    -32    -25     85     89 112.6 -17.0  33962  286.22 0855.46
2009/04/23 07:41:58.7      72    -38     -2     82     83 118.0  -1.8  33960  286.20 0855.46
2009/04/23 07:41:58.8      84    -26     -1     88     89 107.3  -1.3  33960  286.20 0855.46
2009/04/23 07:41:58.9      95     21     -8     98     99  77.6  -5.2  33964  286.25 0855.46
2009/04/23 07:41:59.0      80    -22     -3     84     85 105.5  -2.2  33964  286.25 0855.46
2009/04/23 07:41:59.1      57    -12     17     59     62 102.4  16.3  33962  286.24 0855.46
2009/04/23 07:41:59.2      66    -14     10     68     69 102.4   9.0  33962  286.24 0855.46
2009/04/23 07:41:59.3      54    -21     11     59     61 111.7  11.1  33964  286.25 0855.46
2009/04/23 07:41:59.4      46    -21     18     51     55 115.4  19.4  33964  286.25 0855.46
2009/04/23 07:41:59.5      31    -46     43     56     70 145.7  41.7  33964  286.25 0855.46
2009/04/23 07:41:59.6      33    -42     52     54     74 141.3  51.1  33962  286.24 0855.46
2009/04/23 07:41:59.7      24    -35     57     43     71 145.7  58.5  33966  286.30 0855.46
2009/04/23 07:41:59.8      41    -47     27     63     68 138.6  24.1  33962  286.24 0855.46
2009/04/23 07:41:59.9       5    -43     47     44     64 172.9  52.1  33962  286.22 0855.46
2009/04/23 07:42:00.0      25    -30     47     40     61 140.4  55.4  33964  286.25 0855.46
2009/04/23 07:42:00.1      37     -7     50     38     62 101.5  58.5  33962  286.22 0855.46
2009/04/23 07:42:00.2      55      5     66     56     86  83.9  54.8  33962  286.24 0855.46
2009/04/23 07:42:00.3      32      7     65     33     72  76.7  71.9  33964  286.25 0855.46
2009/04/23 07:42:00.4      26     31     61     41     73  39.6  63.6  33964  286.25 0855.46
2009/04/23 07:42:00.5      -8      8     51     12     52 313.1  88.0  33968  286.32 0855.46
2009/04/23 07:42:00.6      12      0     47     13     48  90.0  82.8  33968  286.32 0855.46
2009/04/23 07:42:00.7       2     -3     49      4     49 147.5  90.0  33966  286.29 0855.46
2009/04/23 07:42:00.8      -2    -20     37     21     42 188.0  67.7  33966  286.29 0855.46
2009/04/23 07:42:00.9      -7    -24     50     26     56 196.9  70.8  33974  286.42 0855.46
2009/04/23 07:42:01.0     -18      6     61     19     63 288.6  80.7  33982  286.57 0855.46
2009/04/23 07:42:01.1       3     12     49     13     50  15.1  84.9  33972  286.39 0855.46
2009/04/23 07:42:01.2      21     25     60     33     68  39.7  68.8  33970  286.35 0855.46
2009/04/23 07:42:01.3      16     12     56     21     59  52.2  79.2  33972  286.39 0855.46
2009/04/23 07:42:01.4      -4     12     45     13     46 341.7  82.8  33970  286.35 0855.46
2009/04/23 07:42:01.5       1     20     48     21     52   4.4  75.0  33970  286.35 0855.46
2009/04/23 07:42:01.6       9    -12     64     16     65 143.9  84.9  33970  286.37 0855.46
2009/04/23 07:42:01.7      21      0     82     22     84  90.0  84.9  33968  286.32 0855.46
2009/04/23 07:42:01.8      39     13     58     42     71  71.6  60.5  33968  286.32 0855.46
2009/04/23 07:42:01.9       1    -18     35     19     39 175.6  68.8  33966  286.30 0855.46
2009/04/23 07:42:02.0      17    -22     44     29     52 142.2  64.6  33962  286.24 0855.46
2009/04/23 07:42:02.1      60      3     66     61     89  86.5  52.2  33966  286.29 0855.46
2009/04/23 07:42:02.2      92    -43     39    102    109 115.2  21.5  33966  286.29 0855.46
2009/04/23 07:42:02.3      73    -46     34     87     93 122.0  22.0  33966  286.30 0855.46
2009/04/23 07:42:02.4      94    -43     44    104    112 114.8  24.1  33968  286.32 0855.46
2009/04/23 07:42:02.5      81    -41     35     92     98 117.1  22.0  33970  286.35 0855.46
2009/04/23 07:42:02.6      43    -47     65     64     91 137.7  50.1  33966  286.29 0855.46
2009/04/23 07:42:02.7      57    -55     51     80     94 134.0  35.5  33980  286.52 0855.46
2009/04/23 07:42:02.8      76    -37     55     85    101 116.2  36.0  33984  286.59 0855.46
2009/04/23 07:42:02.9      31    -31     37     45     58 135.0  43.8  33970  286.37 0855.46
2009/04/23 07:42:03.0      -2    -21     35     22     41 186.2  64.7  33968  286.34 0855.46
2009/04/23 07:42:03.1     -17      0     35     18     39 270.0  72.8  33970  286.35 0855.46
2009/04/23 07:42:03.2      15    -19     41     25     48 140.4  64.7  33970  286.35 0855.46
2009/04/23 07:42:03.3      22    -29     56     37     67 142.2  64.6  33966  286.30 0855.46
2009/04/23 07:42:03.4      44    -69     59     82    101 147.5  39.5  33966  286.29 0855.46
2009/04/23 07:42:03.5      22    -92     68     95    116 166.2  39.1  33966  286.30 0855.46
2009/04/23 07:42:03.6      84    -31     99     90    133 110.8  52.7  33968  286.32 0855.46
2009/04/23 07:42:03.7      63    -21     91     67    113 108.6  60.0  33976  286.47 0855.46
2009/04/23 07:42:03.8      53    -13     69     55     88 104.2  56.4  33980  286.52 0855.46
2009/04/23 07:42:03.9     -38    -27     79     47     91 234.9  66.2  33998  286.84 0855.46
2009/04/23 07:42:04.0      33    -52     66     62     90 147.4  51.6  34002  286.91 0855.46
2009/04/23 07:42:04.1      67      7     94     68    116  83.9  60.5  34054  287.77 0855.46
2009/04/23 07:42:04.2      75     77     75    108    131  44.1  38.0  34050  287.72 0855.46
2009/04/23 07:42:04.3      92     92     92    131    160  45.0  38.6  34054  287.77 0855.46
2009/04/23 07:42:04.4      65    120     96    137    167  28.5  38.6  34062  287.92 0855.46
2009/04/23 07:42:04.5      59    137     44    150    157  23.2  16.3  34088  288.35 0855.46
2009/04/23 07:42:04.6      27    108     60    112    127  14.3  30.8  34084  288.28 0855.46
2009/04/23 07:42:04.7     173     28    126    176    216  80.8  39.5  34094  288.47 0855.46
2009/04/23 07:42:04.8     185     41    116    190    222  77.4  34.8  34090  288.38 0855.46
2009/04/23 07:42:04.9     167     55     99    176    201  71.6  31.9  34090  288.40 0855.46
2009/04/23 07:42:05.0     188     29    115    191    222  81.2  34.0  34076  288.16 0855.46
2009/04/23 07:42:05.1     198     53    120    206    238  74.9  32.9  34080  288.21 0855.46
2009/04/23 07:42:05.2     176     75    131    192    232  66.7  37.4  34066  287.98 0855.46
2009/04/23 07:42:05.3     164     56    138    174    222  70.9  42.4  34060  287.89 0855.46
2009/04/23 07:42:05.4      83     72    117    110    160  49.1  52.0  34078  288.18 0855.47
2009/04/23 07:42:05.5     131    103    150    167    224  51.8  46.6  34076  288.14 0855.47
2009/04/23 07:42:05.6     140     65    145    155    212  65.2  48.0  34072  288.08 0855.47
2009/04/23 07:42:05.7     143     74    120    162    201  62.7  40.4  34068  288.01 0855.47
2009/04/23 07:42:05.8     170    108    101    202    225  57.5  28.2  34084  288.30 0855.47
2009/04/23 07:42:05.9     153    113    121    191    226  53.6  35.5  34076  288.16 0855.47
2009/04/23 07:42:06.0     139    122    127    185    224  48.7  37.6  34072  288.08 0855.47
2009/04/23 07:42:06.1     112    120     80    165    183  43.0  27.8  34076  288.14 0855.47
2009/04/23 07:42:06.2     111     72     80    133    155  57.1  34.4  34066  287.98 0855.47
2009/04/23 07:42:06.3      88     62     78    108    133  54.9  39.5  34066  287.98 0855.47
2009/04/23 07:42:06.4      80     27     78     85    115  71.4  47.9  34056  287.82 0855.47
2009/04/23 07:42:06.5     109     34     70    115    134  72.3  35.0  34060  287.87 0855.47
2009/04/23 07:42:06.6     101     43     94    110    144  66.9  44.8  34064  287.94 0855.47
2009/04/23 07:42:06.7      83     31     94     89    129  69.6  51.6  34050  287.72 0855.47
2009/04/23 07:42:06.8      99     51     38    112    119  62.5  18.9  34040  287.54 0855.47
2009/04/23 07:42:06.9      81     37     53     90    104  65.6  33.5  34038  287.52 0855.47
2009/04/23 07:42:07.0     134     11     40    135    141  85.2  16.8  34046  287.64 0855.47
2009/04/23 07:42:07.1     111     56     63    125    139  62.9  29.2  34058  287.86 0855.47
2009/04/23 07:42:07.2      93     43     91    103    137  65.2  45.9  34056  287.82 0855.47
2009/04/23 07:42:07.3     123     33     42    128    135  75.0  18.4  34056  287.81 0855.47
2009/04/23 07:42:07.4      83     44     69     95    117  62.0  39.7  34058  287.86 0855.48
2009/04/23 07:42:07.5      86     54     63    102    119  57.6  34.4  34062  287.92 0855.48
2009/04/23 07:42:07.6      95     35     72    102    124  69.6  38.6  34066  287.99 0855.48
2009/04/23 07:42:07.7      65     41     86     78    116  57.6  52.7  34066  287.99 0855.48
2009/04/23 07:42:07.8      78     32     77     85    114  67.8  47.5  34062  287.91 0855.48
2009/04/23 07:42:07.9      59     36     74     70    101  58.5  51.6  34056  287.81 0855.48
2009/04/23 07:42:08.0      16     38     60     42     73  23.6  60.6  34060  287.89 0855.48
2009/04/23 07:42:08.1       0     88     89     89    125   0.5  50.1  34052  287.74 0855.48
2009/04/23 07:42:08.2     -23     95     91     98    133 346.2  47.9  34062  287.92 0855.48
2009/04/23 07:42:08.3     -38     77     70     86    110 333.7  43.7  34066  287.98 0855.48
2009/04/23 07:42:08.4      -6     57     70     58     90 353.8  56.3  34068  288.03 0855.48
2009/04/23 07:42:08.5      21     56     56     61     82  20.9  47.9  34068  288.03 0855.48
2009/04/23 07:42:08.6      14     74     54     76     93  10.7  39.1  34074  288.11 0855.48
2009/04/23 07:42:08.7      23     68     38     73     82  19.2  29.3  34076  288.14 0855.48
2009/04/23 07:42:08.8      11     87     38     88     95   7.6  25.1  34082  288.25 0855.48
2009/04/23 07:42:08.9      11     80     45     81     92   8.0  31.4  34080  288.21 0855.48
2009/04/23 07:42:09.0       1     69     24     70     75   1.0  19.4  34080  288.21 0855.48
2009/04/23 07:42:09.1       6     43      3     44     45   8.0   4.9  34082  288.25 0855.48
2009/04/23 07:42:09.2      25     22     14     34     36  48.7  23.0  34070  288.04 0855.48
2009/04/23 07:42:09.3      21      7     22     23     31  71.4  50.0  34064  287.94 0855.48
2009/04/23 07:42:09.4      28      3     28     29     40  82.1  50.0  34062  287.91 0855.48
2009/04/23 07:42:09.5      24      7     40     26     47  73.2  64.6  34062  287.91 0855.48
2009/04/23 07:42:09.6      38     -9     31     40     50 103.3  42.7  34066  287.99 0855.48
2009/04/23 07:42:09.7      70    -14     50     72     87 101.4  38.0  34054  287.77 0855.48
2009/04/23 07:42:09.8     110    -15     40    112    118  98.0  20.4  34052  287.74 0855.48
2009/04/23 07:42:09.9      36     12     71     39     81  71.4  68.8  34060  287.89 0855.48
2009/04/23 07:42:10.0      17     22     58     29     64  37.8  71.9  34058  287.86 0855.48
2009/04/23 07:42:10.1      79      6     84     80    116  85.6  51.2  34056  287.82 0855.48
2009/04/23 07:42:10.2     111     12    107    112    154  83.4  49.0  34066  287.99 0855.48
2009/04/23 07:42:10.3      95     28    114    100    151  73.2  54.3  34072  288.08 0855.48
2009/04/23 07:42:10.4     123     32    113    128    170  75.4  45.8  34072  288.08 0855.48
2009/04/23 07:42:10.5      95     45    101    106    146  64.8  48.5  34072  288.08 0855.48
2009/04/23 07:42:10.6     114     25    103    117    155  77.6  46.2  34070  288.06 0855.48
2009/04/23 07:42:10.7     105     43    117    114    163  67.8  50.7  34068  288.01 0855.48
2009/04/23 07:42:10.8     142     19    115    144    184  82.1  42.7  34060  287.89 0855.48
2009/04/23 07:42:10.9     144      7     90    145    170  87.0  35.0  34050  287.70 0855.48
2009/04/23 07:42:11.0     131     -4     90    132    159  92.1  37.8  34058  287.86 0855.48
2009/04/23 07:42:11.1      90     49    148    103    180  61.2  61.8  34078  288.20 0855.48
2009/04/23 07:42:11.2     106     47    138    116    180  66.0  55.8  34090  288.38 0855.48
2009/04/23 07:42:11.3     115     35    163    121    203  72.7  60.0  34082  288.25 0855.48
2009/04/23 07:42:11.4     118     21    148    120    190  79.9  56.4  34066  287.99 0855.48
2009/04/23 07:42:11.5     115     33    136    120    181  73.6  54.0  34068  288.01 0855.48
2009/04/23 07:42:11.6     120     -9    102    121    158  94.3  44.5  34056  287.82 0855.48
2009/04/23 07:42:11.7     126      5    104    127    164  87.5  43.5  34062  287.91 0855.48
2009/04/23 07:42:11.8     110     53     80    123    146  64.2  35.6  34068  288.01 0855.48
2009/04/23 07:42:11.9     116     50     74    127    146  66.5  33.4  34064  287.94 0855.48
2009/04/23 07:42:12.0     135     45     94    143    171  71.4  36.3  34064  287.94 0855.48
2009/04/23 07:42:12.1     111     29     94    115    148  75.0  43.7  34072  288.08 0855.48
2009/04/23 07:42:12.2      89     26     87     93    127  73.6  48.0  34068  288.03 0855.48
2009/04/23 07:42:12.3      72     35     99     81    127  63.8  56.4  34068  288.03 0855.48
2009/04/23 07:42:12.4      67     46     94     82    124  55.4  54.3  34068  288.01 0855.48
2009/04/23 07:42:12.5     127     70    104    146    179  61.1  39.3  34072  288.09 0855.48
2009/04/23 07:42:12.6     113    112    101    160    189  45.1  35.5  34068  288.03 0855.48
2009/04/23 07:42:12.7     114    107     63    157    169  46.9  23.0  34078  288.20 0855.48
2009/04/23 07:42:12.8     162     26     99    165    192  80.8  34.2  34074  288.13 0855.48
2009/04/23 07:42:12.9     141     38     54    147    156  74.9  20.9  34054  287.79 0855.48
2009/04/23 07:42:13.0     144     57     35    156    161  68.3  12.9  34056  287.81 0855.48
2009/04/23 07:42:13.1     105    105     74    149    166  45.0  28.0  34052  287.74 0855.48
2009/04/23 07:42:13.2      99     83     61    130    143  50.0  27.1  34054  287.77 0855.48
2009/04/23 07:42:13.3      86     36     84     94    126  67.4  46.9  34046  287.64 0855.48
2009/04/23 07:42:13.4      81     36     67     89    111  66.0  41.2  34048  287.67 0855.49
2009/04/23 07:42:13.5      89     31     67     95    116  70.5  38.6  34036  287.49 0855.49
2009/04/23 07:42:13.6      86     24     91     90    127  74.5  50.1  34038  287.50 0855.49
2009/04/23 07:42:13.7      83     44     83     95    126  62.0  45.8  34030  287.38 0855.49
2009/04/23 07:42:13.8      88     43     65     99    118  63.8  36.5  34034  287.45 0855.49
2009/04/23 07:42:13.9      79     43     51     91    104  61.1  31.9  34036  287.49 0855.49
2009/04/23 07:42:14.0      74     64     52     99    111  49.1  29.8  34036  287.47 0855.49
2009/04/23 07:42:14.1      78     49     65     93    113  58.0  38.0  34036  287.49 0855.49
2009/04/23 07:42:14.2      92     44     82    103    131  64.2  43.3  34048  287.67 0855.49
2009/04/23 07:42:14.3     114     46     70    124    142  67.8  31.4  34048  287.69 0855.49
2009/04/23 07:42:14.4      89     44     88    100    133  63.4  45.9  34042  287.59 0855.50
2009/04/23 07:42:14.5      91     49     48    104    114  61.6  27.1  34030  287.38 0855.50
2009/04/23 07:42:14.6     101     60     54    118    129  59.3  26.6  34028  287.33 0855.50
2009/04/23 07:42:14.7      93     68     76    116    138  53.6  36.0  34030  287.38 0855.50
2009/04/23 07:42:14.8      99     67     61    120    134  55.8  29.2  34022  287.25 0855.50
2009/04/23 07:42:14.9      75     92     68    119    137  39.2  31.9  34058  287.86 0855.50
2009/04/23 07:42:15.1      56     87     81    104    131  32.6  41.7  34072  288.09 0855.50
2009/04/23 07:42:15.1      53     68     71     87    112  37.8  43.7  34052  287.74 0855.50
2009/04/23 07:42:15.2      64     64     81     91    121  45.0  46.4  34032  287.40 0855.50
2009/04/23 07:42:15.3      44     61     76     76    107  36.0  50.1  34030  287.37 0855.50
2009/04/23 07:42:15.4      26      6     61     27     66  76.7  75.0  34016  287.13 0855.50
2009/04/23 07:42:15.5      34     40     67     53     85  40.5  57.5  34008  287.01 0855.50
2009/04/23 07:42:15.6     109     61     44    126    134  60.7  19.4  34034  287.45 0855.50
2009/04/23 07:42:15.7     132     43      1    139    140  71.8   0.8  34012  287.08 0855.50
2009/04/23 07:42:15.8     108     70     40    129    136  57.1  17.4  34048  287.69 0855.50
2009/04/23 07:42:15.9     118     42     59    126    139  70.1  27.1  34038  287.50 0855.50
2009/04/23 07:42:16.0     118     29     14    122    123  75.8   6.9  34012  287.08 0855.50
2009/04/23 07:42:16.1     108     49     45    119    127  65.2  21.5  33992  286.74 0855.50
2009/04/23 07:42:16.2     103     62     11    121    122  58.9   5.4  33986  286.64 0855.50
2009/04/23 07:42:16.3     105     72     -2    128    129  55.4  -1.3  33986  286.64 0855.50
2009/04/23 07:42:16.4      96     79     40    125    132  50.5  17.9  34022  287.25 0855.49
2009/04/23 07:42:16.5     102     69     48    124    132  55.9  22.0  34034  287.45 0855.49
2009/04/23 07:42:16.6      81     80     53    114    125  45.4  26.6  34034  287.45 0855.49
2009/04/23 07:42:16.7      70     68     61     98    115  45.6  35.5  34030  287.37 0855.49
2009/04/23 07:42:16.8      80     70     61    107    123  49.1  32.9  34032  287.42 0855.49
2009/04/23 07:42:16.9      74     67     59    101    116  47.8  33.5  34030  287.38 0855.49
2009/04/23 07:42:17.0      89     67     46    112    121  53.1  23.6  34030  287.38 0855.49
2009/04/23 07:42:17.1     108     55     43    122    130  62.9  19.4  34028  287.33 0855.49
2009/04/23 07:42:17.2     173     52     73    181    195  73.2  23.0  34034  287.43 0855.49
2009/04/23 07:42:17.3     153     68     67    168    180  66.0  23.0  34020  287.20 0855.49
2009/04/23 07:42:17.4     153     41     65    159    171  75.0  23.6  34026  287.32 0855.49
2009/04/23 07:42:17.5     142     40     52    148    156  74.1  20.2  34030  287.37 0855.49
2009/04/23 07:42:17.6     172     39     58    177    187  77.2  18.1  34052  287.74 0855.49
2009/04/23 07:42:17.7     162     60     53    173    182  69.6  17.1  34058  287.86 0855.49
2009/04/23 07:42:17.8     142     49     88    151    174  70.9  33.1  34072  288.08 0855.49
2009/04/23 07:42:17.9     178     36     96    182    205  78.5  29.8  34074  288.11 0855.49
2009/04/23 07:42:18.0     124     39     90    131    158  72.3  37.8  34022  287.25 0855.49
2009/04/23 07:42:18.1     134     22     95    136    165  80.3  38.4  34008  287.01 0855.49
2009/04/23 07:42:18.2     128      0     71    129    147  90.0  31.3  34022  287.23 0855.49
2009/04/23 07:42:18.3     139     32     72    143    160  76.8  28.7  34046  287.64 0855.49
2009/04/23 07:42:18.5     130      3     65    131    146  88.3  27.8  34038  287.50 0855.49
2009/04/23 07:42:18.6     153     24     78    156    174  80.8  28.5  34070  288.04 0855.49
2009/04/23 07:42:18.7     142     49     87    151    174  70.9  32.9  34066  287.98 0855.49
2009/04/23 07:42:18.8     103     48     70    114    133  64.8  35.5  34062  287.91 0855.49
2009/04/23 07:42:18.9     105     41     81    113    139  68.7  39.5  34060  287.89 0855.49
2009/04/23 07:42:19.0     118     46     95    127    158  68.3  40.7  34040  287.55 0855.49
2009/04/23 07:42:19.1      99      9     82    100    129  84.3  43.7  34006  286.96 0855.49
2009/04/23 07:42:19.2      98    -10     82     99    128  96.1  43.8  33984  286.59 0855.49
2009/04/23 07:42:19.3      90     -8     74     91    117  95.2  43.7  33990  286.69 0855.49
2009/04/23 07:42:19.4      79      6     54     80     96  85.6  37.0  34008  287.01 0855.49
2009/04/23 07:42:19.5      75     15     80     77    111  78.5  51.2  34026  287.32 0855.49
2009/04/23 07:42:19.6      83     13     94     85    126  80.8  52.7  34042  287.59 0855.49
2009/04/23 07:42:19.7      50     36     79     62    100  54.0  57.9  34040  287.54 0855.49
2009/04/23 07:42:19.8      90    107     72    140    157  40.1  29.3  34082  288.26 0855.49
2009/04/23 07:42:19.9      40    149     65    155    168  15.1  24.1  34074  288.13 0855.49
2009/04/23 07:42:20.0       4    195     40    196    201   1.4  11.6  34070  288.06 0855.49
2009/04/23 07:42:20.1      81    142     64    164    176  29.9  22.5  34082  288.25 0855.49
2009/04/23 07:42:20.2      49    147     65    156    169  18.7  23.8  34070  288.06 0855.49
2009/04/23 07:42:20.3     101     90     53    136    145  48.2  22.5  34066  287.99 0855.49
2009/04/23 07:42:20.4     109     60     81    125    148  61.1  35.6  34050  287.70 0855.49
2009/04/23 07:42:20.6      71     92     50    117    127  37.4  24.6  34048  287.69 0855.49
2009/04/23 07:42:20.7      74     94     60    120    134  38.3  28.7  34062  287.92 0855.49
2009/04/23 07:42:20.8      94    145     48    173    180  33.0  15.8  34010  287.05 0855.49
2009/04/23 07:42:20.9     116    205     42    236    240  29.6  10.1  34058  287.83 0855.49
2009/04/23 07:42:21.0      98    177     86    203    220  29.0  24.3  34062  287.91 0855.49
2009/04/23 07:42:21.1     107    175    -11    206    207  31.4  -3.3  34074  288.11 0855.49
2009/04/23 07:42:21.2     128    212     67    248    257  31.2  15.2  34072  288.09 0855.49
2009/04/23 07:42:21.3     147    171     18    226    227  40.8   4.6  34060  287.87 0855.49
2009/04/23 07:42:21.4      97    175     66    201    212  29.0  18.4  34110  288.72 0855.49
2009/04/23 07:42:21.5      50    169     75    177    192  16.7  24.3  34092  288.43 0855.49
2009/04/23 07:42:21.6      68    172     68    185    197  21.6  21.0  34122  288.94 0855.49
2009/04/23 07:42:21.7      86    155    104    178    206  29.2  33.1  34104  288.62 0855.49
2009/04/23 07:42:21.8      39    229     74    233    245   9.8  17.7  33990  286.68 0855.49
2009/04/23 07:42:21.9      33    231     28    234    236   8.2   6.9  33996  286.80 0855.49
2009/04/23 07:42:22.0      75    215    -32    228    231  19.4  -8.0  34004  286.94 0855.49
2009/04/23 07:42:22.1     103    177    -63    206    215  30.3 -22.1  34014  287.10 0855.49
2009/04/23 07:42:22.2      93    158    -67    184    195  30.5 -25.1  34008  287.00 0855.49
2009/04/23 07:42:22.3      43    144    -60    151    162  16.9 -26.9  34016  287.13 0855.49
2009/04/23 07:42:22.4      38    163    -41    168    174  13.4 -13.9  34020  287.21 0855.49
2009/04/23 07:42:22.5      13    117    -66    118    135   6.7 -36.3  34010  287.05 0855.49
2009/04/23 07:42:22.6      17    122    -77    124    145   8.1 -39.9  34000  286.88 0855.49
2009/04/23 07:42:22.7      32     96    -49    102    113  18.3 -31.6  34020  287.20 0855.49
2009/04/23 07:42:22.8       5    120     -8    121    122   2.7  -4.1  34032  287.40 0855.49
2009/04/23 07:42:22.9      -1    137    -38    138    144 359.2 -15.4  34018  287.18 0855.49
2009/04/23 07:42:23.0      25    129    -39    132    137  11.1 -21.2  34008  287.00 0855.49
2009/04/23 07:42:23.1      50    113    -65    124    140  24.1 -34.2  33996  286.81 0855.49
2009/04/23 07:42:23.2      66    112    -44    131    138  30.7 -23.6  33992  286.73 0855.49
2009/04/23 07:42:23.3      44     98    -30    108    113  24.1 -15.4  33998  286.83 0855.49
2009/04/23 07:42:23.4      43     97    -32    107    112  24.1 -17.0  33992  286.74 0855.49
2009/04/23 07:42:23.5      26     77    -43     82     92  18.7 -33.7  33990  286.69 0855.49
2009/04/23 07:42:23.6      10    104    -42    105    113   5.8 -27.4  33964  286.27 0855.49
2009/04/23 07:42:23.7      23     70    -50     74     89  18.7 -41.4  33964  286.27 0855.49
2009/04/23 07:42:23.8      15     64    -46     66     80  13.4 -43.0  33968  286.32 0855.49
2009/04/23 07:42:23.9       4     68    -41     69     80   3.6 -37.9  33968  286.32 0855.49
2009/04/23 07:42:24.0      18     49    -26     53     59  20.9 -31.6  33966  286.29 0855.49
2009/04/23 07:42:24.1      19     43    -26     48     54  23.6 -35.8  33966  286.29 0855.49
2009/04/23 07:42:24.2      15     41    -25     44     50  20.0 -36.8  33964  286.25 0855.49
2009/04/23 07:42:24.3      16     47    -16     50     52  19.2 -23.8  33964  286.27 0855.49
2009/04/23 07:42:24.4      21     39    -24     45     51  29.0 -34.7  33964  286.25 0855.49
2009/04/23 07:42:24.5      27     39    -26     48     54  34.3 -35.8  33962  286.24 0855.49
2009/04/23 07:42:24.6      37     36    -42     52     66  46.0 -48.1  33964  286.25 0855.49
2009/04/23 07:42:24.7      32     39    -41     51     65  39.6 -48.1  33964  286.27 0855.49
2009/04/23 07:42:24.8      22     31    -44     39     58  36.1 -57.7  33962  286.24 0855.49
2009/04/23 07:42:24.9       8     23    -50     25     55  20.0 -76.3  33968  286.32 0855.49
2009/04/23 07:42:25.0       0      7    -40      8     40 357.3 -90.0  33962  286.24 0855.49
2009/04/23 07:42:25.1      -2      3    -29      4     29 327.5 -90.0  33962  286.22 0855.49
2009/04/23 07:42:25.2     -12      0    -26     13     29 270.0 -77.3  33962  286.24 0855.49
2009/04/23 07:42:25.3     -30     -4    -26     31     40 262.1 -49.2  33962  286.24 0855.49
2009/04/23 07:42:25.4     -32     10    -66     34     74 288.4 -75.2  33966  286.30 0855.49
2009/04/23 07:42:25.5     -29     73    -22     79     82 338.2 -20.2  33962  286.24 0855.49
2009/04/23 07:42:25.6      -8     94    -21     95     98 354.7 -12.9  33966  286.29 0855.49
2009/04/23 07:42:25.7     -13     89    -26     90     93 351.5 -21.7  33966  286.30 0855.49
2009/04/23 07:42:25.8     -25     76    -21     81     84 341.3 -15.0  33966  286.30 0855.49
2009/04/23 07:42:25.9     -30     65    -29     72     77 334.7 -27.4  33964  286.25 0855.49
2009/04/23 07:42:26.0     -16     71    -24     73     76 346.6 -23.8  33968  286.32 0855.49
2009/04/23 07:42:26.1      -1     62    -22     63     66 358.2 -23.3  33970  286.35 0855.49
2009/04/23 07:42:26.2      18     65    -18     68     71  16.0 -15.4  33972  286.39 0855.49
2009/04/23 07:42:26.3      38     59      2     71     72  32.6   1.8  33982  286.56 0855.49
2009/04/23 07:42:26.4      88     66    -12    111    112  53.1  -6.2  34036  287.47 0855.49
2009/04/23 07:42:26.5     112     57    -16    126    128  63.0  -7.2  34054  287.79 0855.48
2009/04/23 07:42:26.6     137     64     -8    152    153  64.8  -3.1  34046  287.64 0855.48
2009/04/23 07:42:26.7     128     47    -12    137    138  69.6  -5.2  34036  287.47 0855.48
2009/04/23 07:42:26.8     102     34    -20    108    111  71.4 -10.9  34036  287.49 0855.48
2009/04/23 07:42:26.9      83     63     -4    105    106  52.7  -2.2  34052  287.74 0855.48
2009/04/23 07:42:27.0      35     39     -2     53     54  42.3  -2.2  34044  287.60 0855.48
2009/04/23 07:42:27.1       8     26     17     28     32  18.3  35.5  34038  287.52 0855.48
2009/04/23 07:42:27.2       2     23     24     24     33   6.2  50.1  34030  287.38 0855.48
2009/04/23 07:42:27.3       4     12     39     13     41  18.3  81.0  34024  287.27 0855.48
2009/04/23 07:42:27.4       7     32     22     33     39  13.4  36.5  34026  287.32 0855.48
2009/04/23 07:42:27.5      10     33     19     35     39  18.3  31.4  34034  287.43 0855.48
2009/04/23 07:42:27.6       0     20     30     21     36 357.3  62.6  34028  287.35 0855.48
2009/04/23 07:42:27.7       5     -2     53      6     53 115.3  90.0  34022  287.25 0855.48
2009/04/23 07:42:27.8      -1    -10     45     11     46 188.0  85.9  34006  286.98 0855.48
2009/04/23 07:42:27.9     -18    -15     55     24     60 228.7  75.0  34002  286.91 0855.48
2009/04/23 07:42:28.0     -15     -8     54     18     56 241.1  81.0  34000  286.86 0855.48
2009/04/23 07:42:28.1      -8    -11     47     14     49 216.1  81.8  34002  286.91 0855.48
2009/04/23 07:42:28.2      -6     -1     41      7     41 258.5  90.0  34000  286.86 0855.48
2009/04/23 07:42:28.3      -8      0     38      9     39 274.4  86.9  34000  286.88 0855.48
2009/04/23 07:42:28.4       3      0     31      4     31  90.0  90.0  33994  286.78 0855.48
2009/04/23 07:42:28.5      -6    -18     27     19     33 198.5  60.5  33994  286.76 0855.48
2009/04/23 07:42:28.6       1    -16     35     17     38 175.6  72.9  33998  286.83 0855.48
2009/04/23 07:42:28.7       8     -8     41     12     42 133.1  83.9  34004  286.94 0855.48
2009/04/23 07:42:28.8      22      0     29     23     37  90.0  56.4  34008  287.01 0855.48
2009/04/23 07:42:28.9       7      0     29      8     30  90.0  84.9  34012  287.06 0855.48
2009/04/23 07:42:29.0      27      4     20     28     34  80.3  37.6  34010  287.03 0855.48
2009/04/23 07:42:29.1      29     -2     22     30     37  94.4  39.7  34010  287.03 0855.48
2009/04/23 07:42:29.2      21      7     29     23     37  71.4  56.4  34014  287.11 0855.48
2009/04/23 07:42:29.3      15     26     29     31     42  30.7  49.0  34008  287.01 0855.48
2009/04/23 07:42:29.4      23     19     37     30     47  50.5  56.4  34008  287.01 0855.48
2009/04/23 07:42:29.5      36     14     42     39     57  68.3  51.2  34008  287.01 0855.48
2009/04/23 07:42:29.6      59      2     46     60     75  87.4  41.7  33996  286.79 0855.48
2009/04/23 07:42:29.7      54     24     61     60     85  65.6  49.7  34000  286.88 0855.48
2009/04/23 07:42:29.8      24      7     59     26     64  73.2  76.1  33996  286.79 0855.48
2009/04/23 07:42:29.9      12     -4     40     13     42 108.2  81.8  33996  286.81 0855.48
2009/04/23 07:42:30.0      12    -14     39     19     43 140.4  72.9  33998  286.83 0855.48
2009/04/23 07:42:30.1      -6     17     25     19     31 341.3  56.4  33994  286.76 0855.48
2009/04/23 07:42:30.2     -32     32     33     46     56 315.0  38.6  34002  286.89 0855.48
2009/04/23 07:42:30.3     -43     18      2     47     48 293.5   2.9  34004  286.94 0855.48
2009/04/23 07:42:30.4     -43    -27    -10     51     53 237.6 -11.3  33998  286.84 0855.48
2009/04/23 07:42:30.5     -30    -49     38     58     69 211.6  35.6  33986  286.64 0855.49
2009/04/23 07:42:30.6      -6    -70     30     71     77 185.3  23.1  33982  286.56 0855.49
2009/04/23 07:42:30.7      -8    -42     34     43     54 191.6  42.7  33992  286.73 0855.49
2009/04/23 07:42:30.8     -37    -23      2     44     45 237.6   3.8  34000  286.86 0855.49
2009/04/23 07:42:30.9     -27     -2     17     28     32 263.9  35.5  34004  286.93 0855.49
2009/04/23 07:42:31.0     -35     11     12     37     39 288.2  18.4  34004  286.93 0855.49
2009/04/23 07:42:31.1     -40     23     20     47     51 300.7  24.1  34000  286.88 0855.49
2009/04/23 07:42:31.2     -36     12     44     38     58 288.4  54.3  34000  286.86 0855.49
2009/04/23 07:42:31.3     -10      2     42     11     43 285.1  84.9  33992  286.74 0855.49
2009/04/23 07:42:31.4     -11    -18     28     22     35 210.7  56.4  33984  286.59 0855.49
2009/04/23 07:42:31.5     -34    -35     20     50     53 224.2  22.0  33980  286.52 0855.49
2009/04/23 07:42:31.6      -5    -47     10     48     50 187.1  12.2  33984  286.61 0855.49
2009/04/23 07:42:31.7      30      0     23     31     38  90.0  41.7  33986  286.64 0855.49
2009/04/23 07:42:31.8       9      0     49     10     50  90.8  89.1  33982  286.56 0855.49
2009/04/23 07:42:31.9      10    -67     58     68     89 171.1  44.8  33974  286.44 0855.49
2009/04/23 07:42:32.0     -10    -84     74     85    112 187.1  45.4  33974  286.44 0855.49
2009/04/23 07:42:32.1     -12    -58     82     60    101 191.6  60.5  33974  286.42 0855.49
2009/04/23 07:42:32.2     -14    -71     92     73    117 191.6  56.9  33972  286.39 0855.49
2009/04/23 07:42:32.3     -18    -54     82     58    100 198.7  61.1  33976  286.47 0855.49
2009/04/23 07:42:32.4     -21    -58     73     62     95 200.0  55.8  33974  286.44 0855.49
2009/04/23 07:42:32.5     -14    -54     73     56     92 195.1  58.5  33972  286.41 0855.48
2009/04/23 07:42:32.6       6    -45     82     46     94 172.0  67.7  33974  286.42 0855.48
2009/04/23 07:42:32.7     -14    -72     57     74     93 191.5  42.2  33974  286.44 0855.48
2009/04/23 07:42:32.8     -23    -72     59     76     96 198.3  42.2  33978  286.49 0855.48
2009/04/23 07:42:32.9     -25    -75     49     80     93 198.3  35.0  33976  286.46 0855.48
2009/04/23 07:42:33.0     -19    -71     42     74     85 195.1  32.4  33976  286.47 0855.48
2009/04/23 07:42:33.1      -6    -66     60     67     89 185.3  46.4  33980  286.54 0855.48
2009/04/23 07:42:33.2     -14    -69     65     71     96 191.5  47.9  33978  286.51 0855.48
2009/04/23 07:42:33.3     -17    -66     70     69     98 194.3  50.1  33978  286.51 0855.48
2009/04/23 07:42:33.4     -14    -77     67     79    103 190.7  44.8  33982  286.56 0855.48
2009/04/23 07:42:33.5     -16    -82     51     84     98 191.6  34.4  33980  286.52 0855.48
2009/04/23 07:42:33.6     -18    -93     49     95    106 191.5  29.8  33978  286.51 0855.48
2009/04/23 07:42:33.7     -16    -97     51     99    111 189.3  29.3  33980  286.54 0855.48
2009/04/23 07:42:33.8      -8    -93     44     94    103 185.3  27.1  33978  286.51 0855.48
2009/04/23 07:42:33.9       0    -82     37     83     90 180.5  26.2  33980  286.54 0855.48
2009/04/23 07:42:34.0      -1    -78     40     79     88 180.9  28.2  33978  286.51 0855.48
2009/04/23 07:42:34.1       1    -74     28     75     80 179.1  21.0  33980  286.52 0855.48
2009/04/23 07:42:34.2       6    -73     25     74     79 174.7  19.2  33980  286.52 0855.48
2009/04/23 07:42:34.3       0    -61     40     62     73 180.9  35.6  33978  286.51 0855.48
2009/04/23 07:42:34.4      -4    -53     49     54     72 184.4  47.9  33978  286.51 0855.48
2009/04/23 07:42:34.5      -4    -54     62     55     82 184.5  53.7  33978  286.51 0855.48
2009/04/23 07:42:34.6      -5    -74     32     75     81 184.5  24.1  33980  286.54 0855.48
2009/04/23 07:42:34.7     -14    -70     25     72     77 191.6  19.4  33980  286.54 0855.48
2009/04/23 07:42:34.8     -15    -76     20     78     81 191.6  14.7  33978  286.51 0855.48
2009/04/23 07:42:34.9      -7    -62     30     63     69 187.1  27.2  33978  286.51 0855.48
2009/04/23 07:42:35.0       5    -66     33     67     74 175.5  27.3  33980  286.52 0855.48
2009/04/23 07:42:35.1      -2    -50     36     51     62 182.7  39.5  33980  286.52 0855.48
2009/04/23 07:42:35.2       0    -42     41     43     59 180.0  49.0  33980  286.54 0855.48
2009/04/23 07:42:35.3       0    -33     48     34     58 180.9  61.5  33978  286.51 0855.48
2009/04/23 07:42:35.4     -13    -43     48     45     65 196.9  52.1  33978  286.51 0855.48
2009/04/23 07:42:35.5     -10    -51     42     53     67 191.6  42.7  33970  286.37 0855.47
2009/04/23 07:42:35.6     -18    -49     41     53     67 200.9  41.7  33966  286.29 0855.47
2009/04/23 07:42:35.7     -13    -47     40     49     63 196.0  43.7  33962  286.24 0855.47
2009/04/23 07:42:35.8      -5    -42     47     43     63 188.0  52.2  33970  286.37 0855.47
2009/04/23 07:42:35.9     -11    -43     42     45     61 195.1  47.9  33970  286.37 0855.47
2009/04/23 07:42:36.0       0    -38     40     39     55 180.9  49.1  33972  286.41 0855.47
2009/04/23 07:42:36.1       0    -42     37     43     56 180.0  45.8  33974  286.44 0855.47
2009/04/23 07:42:36.2       4    -47     38     48     61 174.7  43.7  33976  286.47 0855.47
2009/04/23 07:42:36.3       3    -42     47     43     63 174.7  52.2  33976  286.47 0855.47
2009/04/23 07:42:36.4       8    -47     48     48     67 170.2  50.1  33978  286.51 0855.47
2009/04/23 07:42:36.5      -1    -49     44     50     66 181.8  46.9  33976  286.46 0855.47
2009/04/23 07:42:36.6      -1    -30     26     31     40 182.6  44.8  33978  286.51 0855.47
2009/04/23 07:42:36.7      10     -7     27     13     29 126.0  72.8  33978  286.49 0855.47
2009/04/23 07:42:36.8      -6      0     32      7     32 270.0  89.0  33980  286.54 0855.47
2009/04/23 07:42:36.9     -50    -16     25     53     58 252.3  27.1  33976  286.47 0855.47
2009/04/23 07:42:37.0     -53    -17      0     56     57 251.8  -0.3  33974  286.42 0855.47
2009/04/23 07:42:37.1     -46    -25      0     53     54 241.1   0.8  33976  286.47 0855.47
2009/04/23 07:42:37.2     -35    -23      2     43     44 236.7   2.9  33972  286.41 0855.47
2009/04/23 07:42:37.3     -37    -31     11     49     51 230.5  13.2  33974  286.42 0855.47
2009/04/23 07:42:37.4     -38    -24     17     45     48 237.6  20.0  33972  286.41 0855.47
2009/04/23 07:42:37.5     -28    -26     31     39     49 226.7  43.7  33974  286.44 0855.46
2009/04/23 07:42:37.6     -25    -25     35     36     50 225.0  51.1  33976  286.46 0855.46
2009/04/23 07:42:37.7     -17    -22     35     28     44 217.8  57.5  33972  286.41 0855.46
2009/04/23 07:42:37.8     -10    -18     28     21     35 209.0  60.5  33970  286.37 0855.46
2009/04/23 07:42:37.9      -7    -28     25     29     38 195.1  45.8  33974  286.44 0855.46
2009/04/23 07:42:38.0     -10    -33     29     35     45 196.9  44.8  33980  286.52 0855.46
2009/04/23 07:42:38.1      -2    -35     31     36     47 184.4  45.8  33984  286.61 0855.46
2009/04/23 07:42:38.2       0    -45     33     46     56 180.9  38.6  33982  286.57 0855.46
2009/04/23 07:42:38.3      -7    -45     38     46     59 188.9  43.7  33984  286.59 0855.46
2009/04/23 07:42:38.4      -1    -39     41     40     57 182.7  49.1  33982  286.57 0855.46
2009/04/23 07:42:38.5      -4    -40     28     41     49 186.2  37.6  33984  286.61 0855.46
2009/04/23 07:42:38.6      -9    -41     35     43     55 193.4  43.7  33984  286.61 0855.46
2009/04/23 07:42:38.7      -3    -31     41     32     52 186.2  57.5  33986  286.62 0855.46
2009/04/23 07:42:38.8     -12    -31     40     34     52 201.8  55.4  33982  286.56 0855.46
2009/04/23 07:42:38.9     -10    -35     35     37     50 196.9  49.0  33984  286.61 0855.46
2009/04/23 07:42:39.0       3    -14     31     15     34 164.9  72.9  33982  286.56 0855.46
2009/04/23 07:42:39.1       0    -10     21     11     23 175.5  70.8  33982  286.56 0855.46
2009/04/23 07:42:39.2      11     -2     23     12     25 101.5  70.8  33980  286.52 0855.46
2009/04/23 07:42:39.3      17     -5     24     18     30 108.2  58.5  33976  286.47 0855.46
2009/04/23 07:42:39.4      13      4     28     14     31  71.4  72.8  33978  286.49 0855.46
2009/04/23 07:42:39.5      15      7     38     17     41  64.7  75.0  33978  286.49 0855.46
2009/04/23 07:42:39.6       7      7     35     11     36  45.0  80.7  33976  286.46 0855.46
2009/04/23 07:42:39.7      24      7     32     26     41  73.2  56.4  33984  286.59 0855.46
2009/04/23 07:42:39.8      21      7     42     23     47  71.8  68.8  34002  286.91 0855.46
2009/04/23 07:42:39.9      24     38     47     46     65  32.5  50.1  34012  287.06 0855.46
2009/04/23 07:42:40.0      33     21     50     40     64  57.6  56.4  34028  287.33 0855.46
2009/04/23 07:42:40.1      27     14     55     31     63  62.9  68.8  34054  287.79 0855.46
2009/04/23 07:42:40.2       7     33     44     34     55  13.4  57.5  34034  287.43 0855.46
2009/04/23 07:42:40.3       0     11     28     12     30   4.5  75.0  34030  287.38 0855.46
2009/04/23 07:42:40.4       7     15     35     17     38  25.4  72.9  34042  287.57 0855.46
2009/04/23 07:42:40.5      34      3     54     35     64  83.9  64.6  34042  287.57 0855.46
2009/04/23 07:42:40.6      35     34     39     50     63  46.0  42.7  34042  287.57 0855.46
2009/04/23 07:42:40.7      39     32     46     51     68  50.5  47.9  34034  287.43 0855.46
2009/04/23 07:42:40.8      70     44     55     83     99  58.0  36.5  34028  287.33 0855.46
2009/04/23 07:42:40.9      84     28     79     89    119  71.4  46.4  34030  287.38 0855.46
2009/04/23 07:42:41.0      73     28     65     79    102  69.2  43.8  34036  287.49 0855.46
2009/04/23 07:42:41.1      52     31     66     61     89  59.3  52.2  34032  287.42 0855.46
2009/04/23 07:42:41.2      34     21     57     41     70  58.5  60.5  34026  287.30 0855.46
2009/04/23 07:42:41.3      20     -4     25     21     32 103.3  56.3  34024  287.28 0855.46
2009/04/23 07:42:41.4       2      0     31      3     31  90.0  90.0  34022  287.25 0855.46
2009/04/23 07:42:41.5      21     13     34     25     42  57.5  59.4  34038  287.50 0855.45
2009/04/23 07:42:41.6      19      0     43     20     47  90.0  74.0  34036  287.49 0855.45
2009/04/23 07:42:41.7      16     18     28     25     37  41.4  52.2  34038  287.50 0855.45
2009/04/23 07:42:41.8      16     -1     24     17     29  94.4  62.6  34032  287.42 0855.45
2009/04/23 07:42:41.9       3      0     31      4     31  90.0  90.0  34036  287.47 0855.45
2009/04/23 07:42:42.0       8     26     37     28     46  18.3  59.4  34082  288.25 0855.45
2009/04/23 07:42:42.1      -2     61     45     62     76 357.3  39.7  34076  288.14 0855.45
2009/04/23 07:42:42.2       2     90     49     91    103   1.4  31.3  34074  288.11 0855.45
2009/04/23 07:42:42.3      39     80     44     90    100  25.9  27.8  34046  287.65 0855.45
2009/04/23 07:42:42.4      55     56     33     79     85  44.2  24.1  34008  287.01 0855.45
2009/04/23 07:42:42.5      56     54     32     78     84  45.9  23.0  34014  287.11 0855.45
2009/04/23 07:42:42.6      52     63     13     82     84  39.6   9.5  33996  286.79 0855.45
2009/04/23 07:42:42.7      42     71      1     83     84  31.2   1.2  34000  286.88 0855.45
2009/04/23 07:42:42.8      37     68     -1     78     79  29.0  -1.3  34004  286.94 0855.45
2009/04/23 07:42:43.0      15     75     -1     77     78  11.6  -1.3  34034  287.45 0855.45
2009/04/23 07:42:43.0      19     70     -6     73     74  15.2  -5.2  34042  287.59 0855.45
2009/04/23 07:42:43.1      20     71    -17     74     77  16.0 -13.4  34048  287.67 0855.45
2009/04/23 07:42:43.2      22     55    -18     60     63  21.8 -16.6  34040  287.54 0855.45
2009/04/23 07:42:43.3      38     62     22     73     77  31.6  17.3  34066  287.99 0855.45
2009/04/23 07:42:43.4     -13    126     46    127    135 353.8  20.0  34090  288.38 0855.45
2009/04/23 07:42:43.5     -24    135     36    138    143 349.8  14.7  34100  288.55 0855.46
2009/04/23 07:42:43.6     -25    148      4    151    152 350.3   1.8  34102  288.60 0855.46
2009/04/23 07:42:43.7     -29    127     21    131    133 347.1   9.5  34104  288.62 0855.46
2009/04/23 07:42:43.8     -42    128     26    135    138 341.7  11.1  34090  288.38 0855.46
2009/04/23 07:42:43.9       8    103     43    104    112   4.5  23.1  34086  288.33 0855.46
2009/04/23 07:42:44.0       7    112     48    113    122   4.0  24.1  34092  288.42 0855.46
2009/04/23 07:42:44.1      39    102     37    110    117  20.9  18.9  34102  288.60 0855.46
2009/04/23 07:42:44.2      35    105     18    111    113  18.7   9.5  34102  288.60 0855.46
2009/04/23 07:42:44.3      55     97     -4    112    113  29.9  -2.2  34102  288.58 0855.46
2009/04/23 07:42:44.4      53     92      5    107    108  29.9   2.9  34098  288.52 0855.46
2009/04/23 07:42:44.5      49     91     -4    104    105  28.1  -2.2  34090  288.38 0855.46
2009/04/23 07:42:44.6      53     68     -4     87     88  38.3  -3.1  34084  288.30 0855.46
2009/04/23 07:42:44.7      59     55     -5     81     82  46.9  -3.7  34084  288.30 0855.46
2009/04/23 07:42:44.8      57     47     -4     75     76  50.5  -3.2  34082  288.25 0855.46
2009/04/23 07:42:44.9      74     33      2     82     83  65.6   1.8  34072  288.09 0855.46
2009/04/23 07:42:45.0      56     31      0     65     66  61.1   0.8  34064  287.96 0855.46
2009/04/23 07:42:45.1      40     35      0     54     55  48.7  -0.3  34066  287.98 0855.46
2009/04/23 07:42:45.2      52     31      5     61     62  59.3   4.9  34066  287.98 0855.46
2009/04/23 07:42:45.4      69     33      3     77     78  64.6   2.9  34070  288.06 0855.46
2009/04/23 07:42:45.5      86     25     26     90     94  73.6  16.3  34074  288.11 0855.46
2009/04/23 07:42:45.6      64     21     41     68     79  71.8  34.0  34078  288.20 0855.46
2009/04/23 07:42:45.7      57     26     35     63     72  65.6  31.4  34082  288.26 0855.46
2009/04/23 07:42:45.8      40     15      4     43     44  69.2   5.9  34084  288.30 0855.46
2009/04/23 07:42:45.9      34     21      7     41     42  57.6  10.1  34084  288.28 0855.46
2009/04/23 07:42:46.0      40     25     16     48     51  57.6  18.4  34090  288.40 0855.46
2009/04/23 07:42:46.1      19     40     36     45     57  26.3  43.7  34088  288.36 0855.46
2009/04/23 07:42:46.2      16     48     51     51     72  18.3  50.1  34082  288.25 0855.46
2009/04/23 07:42:46.3       0     62     50     63     80 359.1  42.7  34080  288.21 0855.46
2009/04/23 07:42:46.3     -21     42     60     48     76 332.8  56.4  34068  288.03 0855.46
2009/04/23 07:42:46.4      -6     37     54     38     66 350.2  61.5  34068  288.03 0855.46
2009/04/23 07:42:46.5     -22     47     77     52     92 334.7  63.2  34072  288.08 0855.46
2009/04/23 07:42:46.6     -41     43     65     60     88 315.8  52.2  34074  288.13 0855.46
2009/04/23 07:42:46.7     -41     56     61     70     92 323.9  45.8  34062  287.91 0855.46
2009/04/23 07:42:46.8     -15     74     58     76     95 348.5  41.7  34042  287.57 0855.46
2009/04/23 07:42:46.9     -31     81     30     87     93 339.1  18.9  34026  287.32 0855.46
2009/04/23 07:42:47.0     -38     87     19     96     99 336.4  11.6  33998  286.83 0855.46
2009/04/23 07:42:47.1     -38     78     19     88     91 333.7  12.6  33996  286.79 0855.46
2009/04/23 07:42:47.2     -41     79     10     90     91 332.4   6.5  33990  286.71 0855.46
2009/04/23 07:42:47.4     -41     78    -10     89     90 331.9  -6.7  33996  286.79 0855.46
2009/04/23 07:42:47.4     -38     75     -1     85     86 332.8  -0.7  33992  286.74 0855.46
2009/04/23 07:42:47.6     -30     89      1     95     96 341.3   0.8  34000  286.88 0855.46
2009/04/23 07:42:47.6     -32     76      4     83     84 337.3   3.3  34010  287.03 0855.46
2009/04/23 07:42:47.7     -34     75      4     83     84 335.5   2.9  34040  287.54 0855.46
2009/04/23 07:42:47.8     -47     52      7     71     72 317.7   5.9  34048  287.67 0855.46
2009/04/23 07:42:47.9     -44     57      3     73     74 322.2   2.8  34048  287.69 0855.46
2009/04/23 07:42:48.1     -32     54      0     63     64 329.3  -0.3  34062  287.92 0855.46
2009/04/23 07:42:48.2     -24     37     -1     45     46 327.5  -1.3  34092  288.43 0855.46
2009/04/23 07:42:48.3     -17     42    -10     46     48 338.2 -12.4  34096  288.48 0855.46
2009/04/23 07:42:48.3      -4     45    -14     46     48 354.7 -23.8  34072  288.09 0855.46
2009/04/23 07:42:48.5      11     43    -42     45     61  15.1 -52.3  34058  287.86 0855.46
2009/04/23 07:42:48.6      26     42    -49     50     70  31.6 -55.5  34060  287.89 0855.46
2009/04/23 07:42:48.7      36     36    -46     51     68  45.0 -52.3  34064  287.96 0855.46
2009/04/23 07:42:48.8      43     36    -39     57     69  49.6 -42.0  34064  287.96 0855.46
2009/04/23 07:42:48.9      45     23    -36     51     62  62.9 -43.9  34064  287.94 0855.46
2009/04/23 07:42:49.0      50     23    -31     56     64  64.8 -35.8  34064  287.94 0855.46
2009/04/23 07:42:49.1      44     14    -23     47     52  71.6 -31.7  34076  288.16 0855.46
2009/04/23 07:42:49.2      46     21    -29     51     58  64.6 -37.9  34078  288.20 0855.46
2009/04/23 07:42:49.3      43     27    -24     52     57  57.5 -31.5  34074  288.13 0855.46
2009/04/23 07:42:49.4      49     23    -18     55     57  64.8 -23.8  34074  288.11 0855.46
2009/04/23 07:42:49.5      63     21    -16     67     69  71.6 -13.4  34072  288.08 0855.46
2009/04/23 07:42:49.6      51     25     -5     57     58  63.8  -5.2  34068  288.03 0855.45
2009/04/23 07:42:49.7      48     21     -6     53     54  66.5  -7.2  34070  288.06 0855.45
2009/04/23 07:42:49.8      49     15    -14     52     55  72.3 -15.5  34068  288.03 0855.45
2009/04/23 07:42:49.9      60     18    -17     63     66  73.2 -15.5  34070  288.06 0855.45
2009/04/23 07:42:50.0      61     20    -33     65     72  71.4 -32.6  34062  287.92 0855.45
2009/04/23 07:42:50.1      61     -4    -60     62     86  94.3 -54.4  34056  287.81 0855.45
2009/04/23 07:42:50.2      66      0    -51     67     84  90.0 -45.6  34054  287.79 0855.45
2009/04/23 07:42:50.3      66     -1    -66     67     94  91.7 -54.9  34038  287.50 0855.45
2009/04/23 07:42:50.4      54    -17    -46     57     73 107.7 -48.1  34024  287.28 0855.45
2009/04/23 07:42:50.5      17    -25    -50     31     58 145.7 -69.1  34018  287.16 0855.45
2009/04/23 07:42:50.6      25    -25    -34     36     49 134.9 -54.4  34024  287.27 0855.45
2009/04/23 07:42:50.7      11    -34    -35     36     50 161.3 -55.5  34024  287.27 0855.45
2009/04/23 07:42:50.8      11    -43    -42     45     61 164.9 -52.3  34008  287.01 0855.45
2009/04/23 07:42:50.9       9    -53    -45     54     70 170.2 -48.2  34000  286.86 0855.45
2009/04/23 07:42:51.0      45    -23    -59     51     77 118.0 -58.7  34002  286.89 0855.45
2009/04/23 07:42:51.1      52    -22    -71     57     91 113.5 -60.8  34006  286.98 0855.45
2009/04/23 07:42:51.2      81    -47    -60     94    111 120.2 -40.0  34006  286.96 0855.45
2009/04/23 07:42:51.3      80    -58    -29    100    105 126.0 -16.0  34016  287.15 0855.45
2009/04/23 07:42:51.4      96    -55    -33    111    115 119.8 -21.7  34012  287.06 0855.45
2009/04/23 07:42:51.5     109    -41    -44    117    125 110.8 -25.4  34012  287.08 0855.45
2009/04/23 07:42:51.6     103    -80    -43    131    137 127.7 -23.8  34006  286.98 0855.46
2009/04/23 07:42:51.7      67    -64      9     93     94 133.6   5.9  34010  287.05 0855.46
2009/04/23 07:42:51.8      83   -130      4    155    156 147.4   1.8  34006  286.98 0855.46
2009/04/23 07:42:51.9      94   -156      5    183    184 149.0   1.8  34036  287.47 0855.46
2009/04/23 07:42:52.0      88   -162      5    185    186 151.3   1.6  34034  287.43 0855.46
2009/04/23 07:42:52.1      74   -166    -10    182    183 155.9  -3.1  34026  287.30 0855.46
2009/04/23 07:42:52.2      71   -146    -11    163    164 154.1  -4.1  34032  287.42 0855.46
2009/04/23 07:42:52.3      80   -164     25    183    185 153.9   7.8  34044  287.60 0855.46
2009/04/23 07:42:52.4      96   -149     61    178    189 147.3  18.9  34022  287.25 0855.46
2009/04/23 07:42:52.5      89   -170     46    192    198 152.4  13.5  34040  287.55 0855.46
2009/04/23 07:42:52.6      66   -175      9    188    189 159.3   2.9  34048  287.69 0855.46
2009/04/23 07:42:52.7      70   -173     22    187    189 157.9   6.9  34028  287.33 0855.46
2009/04/23 07:42:52.8      89   -171     41    194    199 152.4  12.2  33998  286.83 0855.46
2009/04/23 07:42:52.9     114   -174     42    209    214 146.6  11.4  33986  286.62 0855.46
2009/04/23 07:42:53.0      95   -169     24    195    197 150.6   7.2  33968  286.34 0855.46
2009/04/23 07:42:53.1      69   -176     12    190    191 158.6   3.8  33968  286.32 0855.46
2009/04/23 07:42:53.2      98   -163     38    191    195 148.8  11.4  33962  286.22 0855.46
2009/04/23 07:42:53.3     117   -159     51    198    205 143.5  14.5  33966  286.29 0855.46
2009/04/23 07:42:53.4     135   -164     73    213    226 140.4  18.9  33978  286.51 0855.46
2009/04/23 07:42:53.5     145   -196     85    244    259 143.5  19.2  33980  286.52 0855.46
2009/04/23 07:42:53.6     109   -187     57    217    225 149.7  14.7  33984  286.59 0855.46
2009/04/23 07:42:53.7     102   -160     97    190    213 147.5  29.2  33980  286.54 0855.46
2009/04/23 07:42:53.8     124   -136     81    185    201 137.7  25.1  33988  286.67 0855.46
2009/04/23 07:42:53.9      94   -156      7    183    184 148.8   2.3  33984  286.59 0855.46
2009/04/23 07:42:54.0     135   -161    -16    211    212 139.9  -4.4  33986  286.62 0855.46
2009/04/23 07:42:54.1     152   -152     -4    216    217 134.9  -1.1  33986  286.64 0855.46
2009/04/23 07:42:54.2     127    -92    -22    158    160 126.0  -8.0  33982  286.57 0855.46
2009/04/23 07:42:54.3      96    -96     48    137    146 135.0  19.4  33984  286.59 0855.46
2009/04/23 07:42:54.4     100   -161     75    190    204 148.1  22.5  33994  286.76 0855.46
2009/04/23 07:42:54.5      94   -144     87    173    193 146.8  28.7  33986  286.64 0855.46
2009/04/23 07:42:54.6      85   -135     60    160    170 147.9  21.5  33986  286.62 0855.46
2009/04/23 07:42:54.7      89   -132     59    160    170 146.2  20.7  33992  286.74 0855.46
2009/04/23 07:42:54.8      98   -137     42    169    175 144.2  13.9  33996  286.79 0855.46
2009/04/23 07:42:54.9      11   -175     98    176    201 176.2  31.4  33998  286.84 0855.46
2009/04/23 07:42:55.0      -1   -195    105    196    222 180.5  30.8  33990  286.71 0855.46
2009/04/23 07:42:55.1      38   -143     94    149    176 164.9  35.5  33990  286.71 0855.46
2009/04/23 07:42:55.2      59   -148     46    160    167 158.1  16.3  33992  286.73 0855.46
2009/04/23 07:42:55.3      16   -166     54    167    176 174.4  18.1  33986  286.64 0855.46
2009/04/23 07:42:55.4      85   -173     82    193    209 153.7  24.6  33980  286.54 0855.46
2009/04/23 07:42:55.5      25   -147    102    150    181 170.3  37.6  33980  286.54 0855.46
2009/04/23 07:42:55.6      37   -165    129    170    213 167.1  41.2  33984  286.59 0855.46
2009/04/23 07:42:55.7     -13   -179    115    180    213 184.4  35.6  33984  286.61 0855.46
2009/04/23 07:42:55.8      21   -153     97    155    182 171.9  35.5  33984  286.61 0855.46
2009/04/23 07:42:55.9      38   -164    125    169    210 166.9  40.1  33976  286.46 0855.46
2009/04/23 07:42:56.0      28   -138    144    141    201 168.5  50.4  33974  286.44 0855.46
2009/04/23 07:42:56.1      48   -147    153    155    217 161.7  49.9  33974  286.42 0855.46
2009/04/23 07:42:56.2       6   -153    140    154    208 177.8  47.1  33972  286.39 0855.46
2009/04/23 07:42:56.3      23   -147    150    149    211 171.1  50.1  33970  286.35 0855.46
2009/04/23 07:42:56.4      33   -131    147    136    200 165.7  52.5  33972  286.41 0855.46
2009/04/23 07:42:56.5       0    -59    121     60    135 180.9  71.9  33974  286.44 0855.46
2009/04/23 07:42:56.6       2    -45    124     46    132 177.3  79.2  33982  286.57 0855.46
2009/04/23 07:42:56.7      32      7     92     33     97  76.7  80.7  33982  286.56 0855.46
2009/04/23 07:42:56.8      -4    -14     82     15     83 198.5  90.0  33978  286.49 0855.46
2009/04/23 07:42:56.9       7    -84    109     85    138 174.7  58.4  33976  286.46 0855.46
2009/04/23 07:42:57.0      21   -151    130    153    200 171.9  44.8  33972  286.41 0855.46
2009/04/23 07:42:57.1      70    -45    121     84    147 122.4  61.5  33966  286.29 0855.46
2009/04/23 07:42:57.2       8    -20     88     22     90 158.2  86.4  33972  286.39 0855.46
2009/04/23 07:42:57.3       0     -8     78      9     78 184.5  90.0  33972  286.39 0855.46
2009/04/23 07:42:57.4      26     22     95     35    101  50.4  79.2  33970  286.37 0855.46
2009/04/23 07:42:57.5       2     33    118     34    122   4.5  83.3  33978  286.49 0855.46
2009/04/23 07:42:57.6      13    -21    120     26    122 147.5  88.0  33978  286.49 0855.46
2009/04/23 07:42:57.7     -48   -100    134    112    174 205.9  56.1  33978  286.49 0855.46
2009/04/23 07:42:57.8     -36   -107    133    113    174 198.7  55.6  33976  286.46 0855.46
2009/04/23 07:42:57.9      16     59    109     62    125  15.2  67.7  33978  286.51 0855.46
2009/04/23 07:42:58.0      25    -64    158     69    172 158.2  75.0  33988  286.66 0855.46
2009/04/23 07:42:58.1       3   -180    147    181    233 179.0  43.7  33988  286.66 0855.46
2009/04/23 07:42:58.2      19   -167     58    169    179 173.5  19.2  33982  286.57 0855.46
2009/04/23 07:42:58.3      55   -183     37    192    196 163.3  11.0  33982  286.56 0855.46
2009/04/23 07:42:58.4      48   -160     56    168    178 163.3  18.4  33984  286.59 0855.46
2009/04/23 07:42:58.5      24   -177     58    179    189 172.0  18.1  33976  286.47 0855.46
2009/04/23 07:42:58.6      41   -152     65    158    170 164.8  23.6  33976  286.47 0855.46
2009/04/23 07:42:58.7      43   -120     57    128    140 159.9  25.2  33982  286.56 0855.46
2009/04/23 07:42:58.8      51    -99     38    112    119 152.4  18.9  33980  286.54 0855.46
2009/04/23 07:42:58.9      35   -100     52    107    118 160.4  27.8  33980  286.52 0855.46
2009/04/23 07:42:59.0      64    -88     30    109    114 144.0  15.3  33976  286.47 0855.46
2009/04/23 07:42:59.1      37   -120     68    126    143 162.6  31.3  33976  286.47 0855.46
2009/04/23 07:42:59.2      15   -133     90    134    161 173.3  37.3  33976  286.47 0855.46
2009/04/23 07:42:59.3      -6    -91     68     92    114 184.0  39.7  33976  286.47 0855.46
2009/04/23 07:42:59.4       6    -85     82     86    118 175.5  49.0  33978  286.49 0855.46
2009/04/23 07:42:59.6       0   -114     86    115    143 180.0  40.1  33976  286.47 0855.46
2009/04/23 07:42:59.6     -29   -156    106    159    191 190.7  36.7  33970  286.35 0855.46
2009/04/23 07:42:59.7     -88    -79     42    119    127 227.8  19.4  33970  286.35 0855.46
2009/04/23 07:42:59.8    -117   -118    101    167    195 224.9  34.0  33968  286.34 0855.46
2009/04/23 07:42:59.9     -70   -177    100    191    215 201.8  29.5  33968  286.32 0855.46
2009/04/23 07:43:00.0     -57   -142     67    154    167 201.8  24.9  33970  286.35 0855.46
2009/04/23 07:43:00.1     -39    -99     49    107    117 201.8  26.2  33966  286.30 0855.46
2009/04/23 07:43:00.2     -46    -70     56     84    100 213.4  37.0  33968  286.32 0855.46
2009/04/23 07:43:00.3     -43    -85    112     96    147 206.7  55.4  33966  286.29 0855.46
2009/04/23 07:43:00.4     -21    -98    113    101    151 192.5  53.7  33964  286.25 0855.46
2009/04/23 07:43:00.5      -6   -102    115    103    154 183.6  53.7  33968  286.32 0855.46
2009/04/23 07:43:00.6     -29   -105    100    110    148 195.6  47.9  33966  286.30 0855.46
2009/04/23 07:43:00.7     -76   -117    106    140    175 213.0  41.2  33966  286.29 0855.47
2009/04/23 07:43:00.8      16    -98     57    100    115 170.7  32.4  33966  286.30 0855.47
2009/04/23 07:43:00.9      51   -119      4    130    131 156.8   1.8  33968  286.34 0855.47
2009/04/23 07:43:01.0       4   -142     21    143    145 178.2   8.5  33968  286.32 0855.47
2009/04/23 07:43:01.1       3   -140     77    141    160 178.6  31.0  33966  286.30 0855.47
2009/04/23 07:43:01.2      32   -157     79    161    179 168.4  28.0  33968  286.34 0855.47
2009/04/23 07:43:01.3      64   -175     65    187    199 159.7  19.2  33968  286.32 0855.47
2009/04/23 07:43:01.4      66   -134     53    150    160 153.7  19.4  33966  286.29 0855.47
2009/04/23 07:43:01.5      45   -136     90    144    169 161.7  35.2  33968  286.32 0855.47
2009/04/23 07:43:01.6      38   -111     97    118    152 160.8  43.7  33966  286.29 0855.47
2009/04/23 07:43:01.7      14   -115    101    116    153 172.9  45.8  33966  286.29 0855.47
2009/04/23 07:43:01.8      38    -93     83    101    130 157.7  43.7  33966  286.30 0855.47
2009/04/23 07:43:01.9      30    -90     75     96    121 161.3  41.7  33966  286.29 0855.47
2009/04/23 07:43:02.0       5    -76     76     77    108 175.6  50.5  33968  286.34 0855.47
2009/04/23 07:43:02.1       7   -100     69    101    122 175.5  37.6  33966  286.30 0855.47
2009/04/23 07:43:02.2      29    -88     85     93    125 161.7  47.9  33970  286.37 0855.47
2009/04/23 07:43:02.3       0    -62     80     63    101 180.0  57.5  33968  286.34 0855.47
2009/04/23 07:43:02.5       0    -57     68     58     89 180.9  55.4  33974  286.42 0855.47
2009/04/23 07:43:02.6       4    -42     73     43     84 173.8  66.2  33978  286.49 0855.47
2009/04/23 07:43:02.7      -2    -48     72     49     87 182.7  63.2  33974  286.44 0855.47
2009/04/23 07:43:02.8       0    -68     66     69     95 180.0  49.0  33972  286.41 0855.47
2009/04/23 07:43:02.8       1    -74     55     75     93 179.1  40.1  33970  286.37 0855.45
2009/04/23 07:43:02.9     -14    -70     14     72     74 191.5  11.0  33968  286.34 0855.45
2009/04/23 07:43:03.0      -7    -77     31     78     83 185.3  22.0  33968  286.32 0855.45
2009/04/23 07:43:03.1     -27    -83     49     88    100 198.3  31.4  33970  286.35 0855.45
2009/04/23 07:43:03.2      -1    -65     50     66     82 181.0  41.2  33970  286.37 0855.45
2009/04/23 07:43:03.3       5    -49     59     50     77 173.8  56.3  33970  286.37 0855.45
2009/04/23 07:43:03.4      13    -47     60     49     77 164.0  56.4  33976  286.47 0855.45
2009/04/23 07:43:03.6      13    -58     62     60     86 166.6  50.1  33974  286.44 0855.45
2009/04/23 07:43:03.6     -17    -85     62     87    106 191.6  39.1  33972  286.39 0855.45
2009/04/23 07:43:03.7      -6    -86     77     87    116 184.5  46.4  33966  286.30 0855.45
2009/04/23 07:43:03.8      -3    -68     77     69    103 182.7  52.7  33968  286.34 0855.45
2009/04/23 07:43:03.9      -3   -100     95    101    138 181.8  48.0  33974  286.42 0855.45
2009/04/23 07:43:04.0      -5    -67     81     68    105 184.5  55.8  33974  286.44 0855.45
2009/04/23 07:43:04.1      16    -26     70     31     76 147.5  75.0  33972  286.41 0855.45
2009/04/23 07:43:04.2      16    -67     68     69     96 166.6  50.5  33970  286.37 0855.45
2009/04/23 07:43:04.3       2    -73     68     74    100 178.2  47.9  33970  286.35 0855.45
2009/04/23 07:43:04.4     -26    -81     62     86    106 197.8  39.5  33976  286.46 0855.45
2009/04/23 07:43:04.5     -33    -75     54     83     99 204.1  36.0  33972  286.41 0855.45
2009/04/23 07:43:04.6     -37    -72     71     81    107 207.2  45.8  33972  286.41 0855.45
2009/04/23 07:43:04.7     -37    -70     84     80    116 208.1  51.2  33972  286.41 0855.45
2009/04/23 07:43:04.8     -54    -32     76     63     98 239.3  56.3  33968  286.34 0855.45
2009/04/23 07:43:04.9     -59    -21     57     63     84 250.0  47.5  33970  286.35 0855.45
2009/04/23 07:43:05.0     -35    -34     47     50     68 225.9  49.0  33978  286.49 0855.45
2009/04/23 07:43:05.1     -33    -42     47     54     71 218.7  44.8  33978  286.49 0855.45
2009/04/23 07:43:05.2     -60    -52     61     80    100 228.7  41.2  33990  286.69 0855.45
2009/04/23 07:43:05.3     -83    -51     44     98    107 238.5  26.2  33988  286.67 0855.45
2009/04/23 07:43:05.4     -66    -52     50     85     98 231.8  32.9  33990  286.71 0855.45
2009/04/23 07:43:05.5     -51    -47     38     70     79 226.8  30.8  33978  286.49 0855.45
2009/04/23 07:43:05.6     -46    -39     29     61     67 229.6  27.2  33976  286.47 0855.45
2009/04/23 07:43:05.7     -58    -36     36     69     77 237.6  29.3  33974  286.42 0855.45
2009/04/23 07:43:05.8     -60    -28     23     67     71 244.8  18.9  33974  286.44 0855.45
2009/04/23 07:43:05.9     -49    -19     26     53     59 248.3  27.2  33970  286.35 0855.45
2009/04/23 07:43:06.1     -36    -39     37     54     65 222.3  37.6  33968  286.32 0855.45
2009/04/23 07:43:06.2     -38    -38     51     54     74 225.0  49.0  33968  286.32 0855.45
2009/04/23 07:43:06.2     -41    -64     60     77     97 212.6  42.2  33968  286.32 0855.45
2009/04/23 07:43:06.3     -41    -64     60     77     97 212.6  42.2  33968  286.32 0855.45
2009/04/23 07:43:06.4     -38    -38     65     54     84 225.0  56.4  33968  286.32 0855.45
2009/04/23 07:43:06.5     -45    -37     64     59     87 230.5  52.2  33964  286.25 0855.45
2009/04/23 07:43:06.6     -38    -34     56     52     76 227.8  52.1  33962  286.22 0855.45
2009/04/23 07:43:06.7     -41    -28     49     50     70 235.8  51.1  33960  286.19 0855.45
2009/04/23 07:43:06.8     -34    -25     37     43     56 233.1  45.8  33962  286.22 0855.44
2009/04/23 07:43:06.9     -57      4     38     58     69 274.3  35.6  33968  286.32 0855.44
2009/04/23 07:43:07.0     -67     -4     36     68     76 266.5  30.3  33970  286.35 0855.44
2009/04/23 07:43:07.1     -65     -6     38     66     76 263.9  33.5  33968  286.32 0855.44
2009/04/23 07:43:07.2     -72    -19     31     75     81 255.0  23.6  33970  286.35 0855.44
2009/04/23 07:43:07.3     -49     -9     47     50     68 258.5  49.0  33970  286.37 0855.44
2009/04/23 07:43:07.4     -35     25     59     44     73 306.0  59.4  33982  286.56 0855.44
2009/04/23 07:43:07.5     -43     52     69     68     96 320.4  49.7  34066  287.98 0855.44
2009/04/23 07:43:07.6     -42     73     67     85    108 329.7  43.3  34130  289.08 0855.44
2009/04/23 07:43:07.7     -37    112     57    118    131 341.7  27.3  34136  289.18 0855.44
2009/04/23 07:43:07.8     -39    168     71    173    187 346.9  23.6  34136  289.18 0855.44
2009/04/23 07:43:07.9     -50    152     72    161    176 341.5  25.7  34112  288.75 0855.44
2009/04/23 07:43:08.0     -69    141     52    158    167 333.9  18.4  34094  288.47 0855.44
2009/04/23 07:43:08.1     -48    120     47    130    138 338.2  20.9  34100  288.55 0855.44
2009/04/23 07:43:08.2     -48    119     31    129    133 338.1  13.7  34074  288.13 0855.44
2009/04/23 07:43:08.3     -37    109      5    116    117 341.3   2.9  34072  288.08 0855.44
2009/04/23 07:43:08.4      12    120    -14    121    122   5.8  -6.7  34028  287.35 0855.44
2009/04/23 07:43:08.5       1    116      2    117    118   0.5   1.2  34050  287.70 0855.44
2009/04/23 07:43:08.6     -26    142    -18    145    147 349.3  -7.2  34048  287.69 0855.44
2009/04/23 07:43:08.7     -19    127    -10    129    130 351.1  -4.6  34056  287.82 0855.44
2009/04/23 07:43:08.8     -29     92     41     97    105 342.2  24.1  34084  288.28 0855.44
2009/04/23 07:43:08.9     -10    100     59    101    116 353.8  33.5  34102  288.58 0855.44
2009/04/23 07:43:09.0     -33    100     54    106    118 341.3  29.3  34112  288.75 0855.44
2009/04/23 07:43:09.1     -29    133     48    137    146 347.5  19.4  34132  289.09 0855.44
2009/04/23 07:43:09.2     -41    124     41    131    138 341.3  17.3  34064  287.94 0855.44
2009/04/23 07:43:09.3     -62    115      6    131    132 331.5   2.9  34058  287.86 0855.44
2009/04/23 07:43:09.4       5    107     32    108    113   3.1  16.8  34116  288.84 0855.44
2009/04/23 07:43:09.5      16    114      8    116    117   8.1   4.4  34124  288.96 0855.44
2009/04/23 07:43:09.6      11     86      1     87     88   7.6   0.8  34124  288.97 0855.44
2009/04/23 07:43:09.7       2     92    -28     93     98   1.4 -17.0  34110  288.74 0855.44
2009/04/23 07:43:09.8      -3    100    -22    101    104 357.8 -12.4  34096  288.48 0855.44
2009/04/23 07:43:09.9      26     92    -15     96     98  16.0  -9.3  34110  288.74 0855.44
2009/04/23 07:43:10.0      70     54     45     89     99  52.2  28.7  34076  288.14 0855.44
2009/04/23 07:43:10.1      80     30     67     86    109  69.2  42.2  34014  287.11 0855.44
2009/04/23 07:43:10.2      52     41     52     67     84  52.2  41.7  33990  286.71 0855.44
2009/04/23 07:43:10.3      47     74     52     88    102  32.5  33.5  33996  286.81 0855.44
2009/04/23 07:43:10.4      44     79     66     91    112  29.4  39.7  34016  287.13 0855.44
2009/04/23 07:43:10.5      10    132     92    133    161   4.5  38.0  34030  287.38 0855.44
2009/04/23 07:43:10.6      -6    142     78    143    162 357.3  31.0  34016  287.13 0855.44
2009/04/23 07:43:10.7      33    121     87    126    153  15.2  37.6  34046  287.64 0855.44
2009/04/23 07:43:10.8       6    150    100    151    181   2.6  36.5  34040  287.55 0855.43
2009/04/23 07:43:10.9     -40    107     96    115    149 339.5  43.8  34022  287.23 0855.43
2009/04/23 07:43:11.0     -69    100     77    122    144 325.3  35.5  34040  287.54 0855.43
2009/04/23 07:43:11.1     -47    134    116    143    184 340.4  43.3  34024  287.27 0855.43
2009/04/23 07:43:11.2      10     45    102     47    112  12.5  73.5  34034  287.45 0855.43
2009/04/23 07:43:11.4      11    145    131    146    196   4.5  46.4  34070  288.06 0855.43
2009/04/23 07:43:11.5       0    162     93    163    187   0.0  32.4  34092  288.43 0855.43
2009/04/23 07:43:11.6     -23    186     60    188    198 352.9  17.7  34102  288.60 0855.43
2009/04/23 07:43:11.7     -67    200     25    212    214 341.3   6.9  34098  288.52 0855.43
2009/04/23 07:43:11.8     -86    143     72    167    181 329.0  24.6  34094  288.47 0855.43
2009/04/23 07:43:11.8     -47    165     60    172    183 344.0  19.2  34096  288.50 0855.43
2009/04/23 07:43:11.9     -59    170     49    181    188 340.8  15.2  34096  288.48 0855.43
2009/04/23 07:43:12.1     -37    168     40    173    178 347.3  13.2  34096  288.50 0855.43
2009/04/23 07:43:12.2      48    152     22    160    162  17.8   8.0  34090  288.40 0855.43
2009/04/23 07:43:12.3      79     96      0    125    126  39.6   0.2  34066  287.99 0855.43
2009/04/23 07:43:12.3      96    116     -3    151    152  39.6  -1.3  34064  287.94 0855.43
2009/04/23 07:43:12.4      70    129     79    147    166  28.5  30.3  34088  288.36 0855.43
2009/04/23 07:43:12.5      11     58     86     60    104  11.5  61.5  34098  288.53 0855.43
2009/04/23 07:43:12.6     -22     72     91     76    118 343.1  55.8  34096  288.50 0855.43
2009/04/23 07:43:12.8      -1    114     79    115    139 359.1  37.6  34106  288.65 0855.43
2009/04/23 07:43:12.9      -9    125     59    126    139 355.6  27.1  34100  288.57 0855.44
2009/04/23 07:43:13.0      12    107     46    108    117   6.7  24.1  34086  288.33 0855.44
2009/04/23 07:43:13.1      58     85     20    104    106  34.3  11.0  34072  288.09 0855.44
2009/04/23 07:43:13.2      56     88     40    105    112  32.5  21.5  34064  287.94 0855.44
2009/04/23 07:43:13.2      83    126     63    152    164  33.4  23.6  34052  287.76 0855.44
2009/04/23 07:43:13.3      94    103     48    140    149  42.3  18.9  34026  287.30 0855.44
2009/04/23 07:43:13.4     127     55     63    139    152  66.4  26.2  34034  287.43 0855.44
2009/04/23 07:43:13.5     109     46     59    119    132  66.9  27.8  34040  287.55 0855.44
2009/04/23 07:43:13.6      84     64     74    106    129  52.7  38.0  34032  287.42 0855.44
2009/04/23 07:43:13.7      81     78     92    113    145  46.0  43.7  34060  287.89 0855.44
2009/04/23 07:43:13.8      75     41     81     86    118  61.1  48.0  34056  287.82 0855.44
2009/04/23 07:43:13.9      44     40     71     60     92  47.8  55.8  34058  287.84 0855.44
2009/04/23 07:43:14.0      45     48     50     67     83  43.2  40.7  34066  287.99 0855.44
2009/04/23 07:43:14.1      -6     70     40     71     81 354.7  31.9  34074  288.11 0855.44
2009/04/23 07:43:14.2      -2     94     68     95    116 358.6  39.1  34084  288.30 0855.44
2009/04/23 07:43:14.3     -47    140     52    148    156 341.3  20.2  34092  288.43 0855.44
2009/04/23 07:43:14.4     -60    115     30    130    134 332.4  13.1  34082  288.25 0855.44
2009/04/23 07:43:14.5     -50     90     60    104    120 331.0  32.9  34080  288.23 0855.44
2009/04/23 07:43:14.6      -6    132     60    133    145 357.3  25.7  34078  288.20 0855.44
2009/04/23 07:43:14.7     -57    162     98    173    198 340.4  31.9  34060  287.89 0855.44
2009/04/23 07:43:14.8     -49    146     89    155    178 341.3  32.4  34062  287.91 0855.44
2009/04/23 07:43:15.0     -57    171     79    181    197 341.5  25.1  34068  288.01 0855.44
2009/04/23 07:43:15.0     -19    161     56    163    173 353.3  18.9  34084  288.28 0855.44
2009/04/23 07:43:15.1     -78    122    -18    145    147 327.4  -7.2  34008  287.01 0855.44
2009/04/23 07:43:15.2     -94    125    -23    157    159 323.0  -8.6  34012  287.08 0855.44
2009/04/23 07:43:15.3     -78    129    -43    151    157 328.8 -20.7  34064  287.96 0855.44
2009/04/23 07:43:15.4     -14    130    -48    131    139 353.7 -25.3  34052  287.76 0855.44
2009/04/23 07:43:15.5     -22    110    -48    113    122 348.5 -28.5  34048  287.67 0855.44
2009/04/23 07:43:15.6       8     91    -51     92    105   5.3 -35.8  34036  287.47 0855.44
2009/04/23 07:43:15.7      13     89    -51     91    104   8.5 -36.3  34048  287.69 0855.44
2009/04/23 07:43:15.8      26     42    -36     50     61  31.6 -44.1  34042  287.57 0855.44
2009/04/23 07:43:15.9      29     34    -24     46     51  40.5 -33.7  34046  287.64 0855.44
2009/04/23 07:43:16.1      24     45     -2     52     53  28.1  -2.2  34058  287.86 0855.44
2009/04/23 07:43:16.2      14     49     28     52     59  16.0  31.3  34076  288.14 0855.44
2009/04/23 07:43:16.3      14     64     23     66     71  12.5  19.4  34078  288.18 0855.44
2009/04/23 07:43:16.4      -6    101      5    102    103 356.4   2.8  34078  288.18 0855.44
2009/04/23 07:43:16.5     -41    103     38    112    119 338.2  18.9  34050  287.70 0855.44
2009/04/23 07:43:16.6     -35    108     41    114    121 341.7  20.9  34054  287.77 0855.44
2009/04/23 07:43:16.7       1     83     26     84     88   0.9  17.3  34070  288.04 0855.44
2009/04/23 07:43:16.8      -2     87     24     88     92 358.6  15.3  34074  288.13 0855.44
2009/04/23 07:43:16.9       0     85      4     86     87   0.0   2.9  34070  288.04 0855.45
2009/04/23 07:43:17.0      15     57      6     60     61  15.1   5.9  34060  287.89 0855.45
2009/04/23 07:43:17.1      21     46      7     51     52  25.5   8.0  34060  287.87 0855.45
2009/04/23 07:43:17.2      12     40      3     42     43  16.9   4.9  34062  287.91 0855.45
2009/04/23 07:43:17.3       3     14     18     15     23  15.1  54.3  34064  287.94 0855.45
2009/04/23 07:43:17.4      37     13     15     40     42  70.0  21.0  34068  288.01 0855.45
2009/04/23 07:43:17.5      73     19     27     76     80  74.9  20.0  34082  288.26 0855.45
2009/04/23 07:43:17.6      72     10     25     73     78  82.1  19.2  34090  288.38 0855.45
2009/04/23 07:43:17.7      55     25     35     61     70  64.8  32.4  34094  288.45 0855.45
2009/04/23 07:43:17.8      20     60     20     64     68  18.7  17.3  34094  288.45 0855.45
2009/04/23 07:43:17.9      -9     74     31     75     81 352.9  23.6  34090  288.38 0855.45
2009/04/23 07:43:18.0       0     57     18     58     61   0.9  17.3  34084  288.28 0855.45
2009/04/23 07:43:18.1      -7     77     17     78     80 354.7  12.6  34086  288.31 0855.45
2009/04/23 07:43:18.2      -4     74     14     75     77 356.4  11.0  34088  288.35 0855.45
2009/04/23 07:43:18.3      -1     70      8     71     72 359.1   6.9  34086  288.33 0855.45
2009/04/23 07:43:18.4      11     56      2     58     59  11.6   2.9  34090  288.40 0855.45
2009/04/23 07:43:18.5      10     55     22     56     60  10.7  23.0  34096  288.48 0855.45
2009/04/23 07:43:18.6      14     37     35     40     53  21.8  45.8  34092  288.43 0855.45
2009/04/23 07:43:18.7      17     52     41     55     68  18.5  41.7  34094  288.45 0855.45
2009/04/23 07:43:18.8      20     63     39     67     77  17.8  33.5  34094  288.45 0855.45
2009/04/23 07:43:18.9      14     66     42     68     79  12.5  35.0  34094  288.47 0855.45
2009/04/23 07:43:19.0      11     94     38     95    102   7.1  23.0  34084  288.28 0855.45
2009/04/23 07:43:19.1       0    104     33    105    111 359.5  17.3  34066  287.99 0855.45
2009/04/23 07:43:19.2       0     97     29     98    103   0.5  16.8  34066  287.98 0855.45
2009/04/23 07:43:19.3      -4     90     31     91     97 356.9  18.9  34066  287.98 0855.45
2009/04/23 07:43:19.4       7    104     20    105    107   4.0  11.0  34066  287.98 0855.45
2009/04/23 07:43:19.5      23     95      5     98     99  13.8   2.9  34068  288.01 0855.45
2009/04/23 07:43:19.6      27     82    -16     87     89  18.3 -10.9  34068  288.03 0855.45
2009/04/23 07:43:19.7      25     76    -17     81     83  18.5 -12.4  34064  287.94 0855.45
2009/04/23 07:43:19.8      34     58    -26     68     72  30.7 -26.4  34068  288.01 0855.45
2009/04/23 07:43:19.9      32     59    -33     68     75  28.9 -31.7  34064  287.96 0855.45
2009/04/23 07:43:20.0      15     84    -48     86     98  10.2 -35.8  34004  286.93 0855.45
2009/04/23 07:43:20.1      18     76    -39     79     88  13.4 -32.6  33994  286.76 0855.45
2009/04/23 07:43:20.2      11     72    -32     73     79   8.9 -29.0  34000  286.86 0855.45
2009/04/23 07:43:20.3       1     71    -24     72     75   1.0 -23.6  34008  287.01 0855.45
2009/04/23 07:43:20.4      35     69    -35     78     85  27.2 -30.1  34000  286.88 0855.45
2009/04/23 07:43:20.5      37     58    -34     69     76  32.5 -31.7  33996  286.81 0855.45
2009/04/23 07:43:20.6      43     54    -21     70     73  38.7 -21.7  34028  287.33 0855.45
2009/04/23 07:43:20.7      36     43    -34     57     66  39.6 -38.8  34036  287.49 0855.45
2009/04/23 07:43:20.8      44     16      0     47     48  70.0   0.8  34062  287.92 0855.45
2009/04/23 07:43:20.9      40     28     14     50     53  54.9  16.3  34078  288.18 0855.45
2009/04/23 07:43:21.0      37     13     29     40     49  70.0  39.7  34082  288.25 0855.45
2009/04/23 07:43:21.1      45     31     31     55     63  54.9  31.4  34082  288.26 0855.45
2009/04/23 07:43:21.2      49     10     18     51     55  77.6  19.4  34080  288.21 0855.45
2009/04/23 07:43:21.3      42     12     21     44     48  73.2  26.2  34074  288.11 0855.45
2009/04/23 07:43:21.4      52     -3     24     53     58  94.3  26.2  34074  288.13 0855.45
2009/04/23 07:43:21.5      47      0     39     48     61  90.8  43.7  34070  288.04 0855.45
2009/04/23 07:43:21.6      55      0     27     56     62  90.0  27.2  34060  287.89 0855.45
2009/04/23 07:43:21.7      40      8    -31     41     51  77.6 -46.1  34032  287.42 0855.45
2009/04/23 07:43:21.8      46      1    -35     47     58  88.3 -45.1  34004  286.93 0855.45
2009/04/23 07:43:21.9      52     19    -29     56     63  70.0 -33.7  34004  286.94 0855.45
2009/04/23 07:43:22.0      64     15    -18     66     68  76.7 -20.7  34014  287.10 0855.45
2009/04/23 07:43:22.1      85      0     16     86     88  90.0  10.6  34038  287.52 0855.45
2009/04/23 07:43:22.2      83     10      4     84     85  82.5   2.9  34052  287.74 0855.45
2009/04/23 07:43:22.3      64     30     24     71     76  64.7  18.9  34046  287.65 0855.45
2009/04/23 07:43:22.4      64     36     24     74     79  60.2  18.4  34042  287.57 0855.45
2009/04/23 07:43:22.5      47     34     11     59     61  54.0  11.1  34042  287.57 0855.45
2009/04/23 07:43:22.6      39     31     13     51     53  51.4  14.3  34042  287.57 0855.45
2009/04/23 07:43:22.7      42      3     41     43     59  85.6  49.0  34060  287.87 0855.45
2009/04/23 07:43:22.8      55      8     54     56     77  81.2  51.1  34064  287.96 0855.45
2009/04/23 07:43:22.9      51     31     44     60     74  58.5  39.7  34064  287.94 0855.45
2009/04/23 07:43:23.0      62     45     32     77     83  54.0  23.6  34068  288.03 0855.45
2009/04/23 07:43:23.1      78     42     24     89     93  61.6  15.3  34072  288.09 0855.45
2009/04/23 07:43:23.2      84     53     41    100    108  57.5  23.0  34076  288.16 0855.45
2009/04/23 07:43:23.3      70     54     41     89     97  52.2  26.6  34074  288.13 0855.45
2009/04/23 07:43:23.4      61     69     30     93     98  41.4  18.4  34066  287.98 0855.45
2009/04/23 07:43:23.5      58     73     15     94     96  38.3   9.0  34054  287.79 0855.45
2009/04/23 07:43:23.6      63     85      4    107    108  36.5   2.3  34056  287.82 0855.45
2009/04/23 07:43:23.7      37     68     26     78     83  29.0  18.9  34060  287.87 0855.45
2009/04/23 07:43:23.8      67     55     55     87    102  50.5  35.5  34058  287.84 0855.45
2009/04/23 07:43:23.9      92     38     41    100    108  67.4  23.0  34054  287.77 0855.44
2009/04/23 07:43:24.0      89     54     61    105    121  58.9  32.9  34058  287.84 0855.44
2009/04/23 07:43:24.1     127     40     50    134    143  72.3  21.0  34044  287.60 0855.44
2009/04/23 07:43:24.2     110     24     62    113    128  77.2  31.3  34046  287.64 0855.44
2009/04/23 07:43:24.4     121     25     49    124    133  78.1  22.5  34054  287.77 0855.44
2009/04/23 07:43:24.5     122     32     46    127    135  75.0  20.0  34044  287.60 0855.44
2009/04/23 07:43:24.6     110     28     47    114    123  75.4  23.1  34036  287.49 0855.44
2009/04/23 07:43:24.7      98     32     62    104    121  71.8  33.5  34060  287.87 0855.44
2009/04/23 07:43:24.8      89     51     59    103    118  60.2  32.4  34066  287.98 0855.44
2009/04/23 07:43:24.9      98     48     68    110    129  63.8  35.5  34066  287.98 0855.44
2009/04/23 07:43:25.0      98     39     59    106    121  68.3  31.4  34058  287.86 0855.44
2009/04/23 07:43:25.1     103     75     66    128    144  54.1  29.3  34052  287.74 0855.44
2009/04/23 07:43:25.2      78     85     68    116    134  42.8  33.5  34058  287.84 0855.44
2009/04/23 07:43:25.3     117     74     60    139    151  57.6  25.1  34050  287.70 0855.44
2009/04/23 07:43:25.4     125     59     62    139    152  64.8  25.7  34054  287.79 0855.44
2009/04/23 07:43:25.5     119     36     71    125    143  73.1  32.4  34060  287.87 0855.44
2009/04/23 07:43:25.6     113     37     56    120    132  71.6  27.1  34080  288.21 0855.44
2009/04/23 07:43:25.7     100     63     65    119    135  57.6  31.4  34074  288.13 0855.44
2009/04/23 07:43:25.8      93     68     66    116    133  53.6  32.9  34076  288.16 0855.44
2009/04/23 07:43:25.9      83     48     83     97    127  59.8  45.4  34068  288.03 0855.45
2009/04/23 07:43:26.0      89     55     63    105    122  58.0  33.5  34064  287.96 0855.45
2009/04/23 07:43:26.1     103     54     49    117    126  62.5  23.6  34066  287.99 0855.45
2009/04/23 07:43:26.2      81     69     57    107    121  49.6  30.3  34070  288.06 0855.45
2009/04/23 07:43:26.3      95     52     72    109    130  61.1  36.5  34072  288.08 0855.45
2009/04/23 07:43:26.4     120     54     66    132    147  65.6  28.2  34078  288.20 0855.45
2009/04/23 07:43:26.5     123     66     93    140    168  61.6  36.5  34074  288.11 0855.45
2009/04/23 07:43:26.6     134     72     62    153    165  61.6  23.0  34008  287.00 0855.45
2009/04/23 07:43:26.7     104     73     50    128    137  54.9  23.0  34002  286.91 0855.45
2009/04/23 07:43:26.8      97     84     36    129    135  49.1  15.8  34002  286.91 0855.45
2009/04/23 07:43:26.9      90     75     32    118    123  50.0  15.3  33992  286.74 0855.45
2009/04/23 07:43:27.0      75     63     36     99    105  50.0  20.0  33992  286.74 0855.45
2009/04/23 07:43:27.1      87     71     43    113    120  50.5  22.0  33988  286.66 0855.45
2009/04/23 07:43:27.2      84     68      4    109    110  50.9   2.3  33986  286.62 0855.45
2009/04/23 07:43:27.3      45     86     -1     98     99  27.6  -0.7  33992  286.73 0855.45
2009/04/23 07:43:27.4      78     82    -14    114    115  43.3  -7.2  34000  286.88 0855.45
2009/04/23 07:43:27.5      91    104    -17    139    141  41.4  -7.3  33998  286.83 0855.45
2009/04/23 07:43:27.6      78    107    -31    133    137  36.1 -13.4  34006  286.96 0855.45
2009/04/23 07:43:27.7      43     92    -29    102    107  25.5 -16.0  34000  286.88 0855.45
2009/04/23 07:43:27.8      61     76    -35     98    105  38.7 -19.7  33996  286.79 0855.45
2009/04/23 07:43:27.9      75     75    -29    107    112  45.0 -15.4  33994  286.78 0855.44
2009/04/23 07:43:28.0      80     91      0    122    123  41.4  -0.3  33994  286.78 0855.44
2009/04/23 07:43:28.1      98     86    -14    131    132  48.7  -6.2  33992  286.74 0855.44
2009/04/23 07:43:28.2      86     86    -10    123    124  45.0  -5.1  34016  287.13 0855.44
2009/04/23 07:43:28.3     133     44     -7    141    142  71.8  -3.2  34010  287.05 0855.44
2009/04/23 07:43:28.4     134     57    -14    146    147  66.9  -5.6  34008  287.00 0855.44
2009/04/23 07:43:28.5     140     47     -8    148    149  71.4  -3.2  34014  287.10 0855.44
2009/04/23 07:43:28.6     137     40     12    143    144  73.6   4.9  34030  287.37 0855.44
2009/04/23 07:43:28.7     158     36     13    163    164  77.2   4.9  34052  287.76 0855.44
2009/04/23 07:43:28.8     155     36      9    160    161  76.8   3.3  34056  287.81 0855.44
2009/04/23 07:43:28.9     134     44      6    142    143  71.8   2.8  34076  288.14 0855.44
2009/04/23 07:43:29.0     114     43      5    123    124  69.2   2.3  34046  287.65 0855.44
2009/04/23 07:43:29.1     123     53    -12    135    136  66.5  -5.2  34022  287.23 0855.44
2009/04/23 07:43:29.2      98     59     -5    115    116  58.9  -2.6  34024  287.27 0855.44
2009/04/23 07:43:29.3      95     69    -11    118    119  54.0  -5.6  34022  287.23 0855.44
2009/04/23 07:43:29.4     100     72    -43    124    131  54.0 -23.3  34016  287.13 0855.44
2009/04/23 07:43:29.5     118     53    -46    130    139  65.6 -19.7  34004  286.93 0855.44
2009/04/23 07:43:29.6     130     43    -58    138    149  71.4 -28.5  34004  286.93 0855.44
2009/04/23 07:43:29.8     117     33    -57    122    134  74.1 -31.5  34016  287.15 0855.44
2009/04/23 07:43:29.9      92     16    -32     94    100  79.9 -18.7  34012  287.06 0855.44
2009/04/23 07:43:30.0      15     48    -53     51     73  17.8 -54.5  34026  287.32 0855.44
2009/04/23 07:43:30.2      17     51    -37     54     65  18.7 -42.0  34030  287.38 0855.44
2009/04/23 07:43:30.2      33     32    -20     47     51  46.0 -28.5  34030  287.37 0855.44
2009/04/23 07:43:30.3      18     19     -1     27     28  43.4  -2.2  34024  287.27 0855.44
2009/04/23 07:43:30.4      35     42     -8     55     56  39.6  -8.2  34028  287.33 0855.44
2009/04/23 07:43:30.5      53     49      8     73     74  46.8   6.9  34028  287.33 0855.44
2009/04/23 07:43:30.6      53     38     19     66     69  54.0  16.3  34024  287.28 0855.44
2009/04/23 07:43:30.7      45     38     24     60     64  49.6  23.0  34014  287.11 0855.44
2009/04/23 07:43:30.8      39     22     26     46     52  60.2  32.4  34006  286.98 0855.44
2009/04/23 07:43:30.9      36     14     35     39     52  68.3  46.9  34006  286.98 0855.44
2009/04/23 07:43:31.0      21     21     35     31     46  45.0  53.3  34006  286.98 0855.44
2009/04/23 07:43:31.1       2     34     29     35     45   4.4  44.8  34012  287.06 0855.44
2009/04/23 07:43:31.3     -19     56     43     60     73 341.3  39.7  34012  287.08 0855.44
2009/04/23 07:43:31.3     -32     87     49     93    105 339.5  30.3  34016  287.15 0855.44
2009/04/23 07:43:31.4     -26     92     26     96    100 344.0  15.2  34026  287.30 0855.44
2009/04/23 07:43:31.5     -33     97     11    103    104 340.8   6.5  34026  287.30 0855.44
2009/04/23 07:43:31.6     -55     82    -41     99    107 326.2 -27.5  34002  286.89 0855.44
2009/04/23 07:43:31.7     -81     69    -49    107    117 310.4 -30.6  33994  286.78 0855.44
2009/04/23 07:43:31.8     -60     53    -72     81    108 311.8 -50.8  33990  286.71 0855.44
2009/04/23 07:43:31.9     -54     39    -86     67    109 306.0 -62.3  33990  286.69 0855.45
2009/04/23 07:43:32.0     -60     38    -82     72    109 302.4 -58.1  33992  286.74 0855.45
2009/04/23 07:43:32.1     -45     48    -85     67    108 316.8 -61.3  33996  286.79 0855.45
2009/04/23 07:43:32.2     -14     28    -83     32     88 332.8 -83.0  33990  286.69 0855.45
2009/04/23 07:43:32.3     -15     31    -77     35     84 332.8 -78.4  33984  286.59 0855.45
2009/04/23 07:43:32.4      -2     27    -75     28     80 355.5 -83.6  33970  286.35 0855.45
2009/04/23 07:43:32.5      10     32    -77     34     84  18.7 -79.9  33970  286.37 0855.45
2009/04/23 07:43:32.6      11     18    -69     22     72  30.7 -85.1  33972  286.39 0855.45
2009/04/23 07:43:32.7      -1      8    -52      9     52 350.3 -90.0  33982  286.56 0855.45
2009/04/23 07:43:32.8      18     15    -35     24     42  48.7 -67.0  33988  286.67 0855.45
2009/04/23 07:43:32.9       1     -2    -57      3     57 147.5 -90.0  33988  286.66 0855.45
2009/04/23 07:43:33.0      17      0    -34     18     38  90.8 -75.2  33988  286.66 0855.45
2009/04/23 07:43:33.1      37     13    -31     40     50  70.0 -47.1  33988  286.66 0855.45
2009/04/23 07:43:33.2      19     -3    -40     20     44 101.5 -75.2  33988  286.67 0855.45
2009/04/23 07:43:33.3      43      0    -32     44     54  90.0 -44.1  33986  286.62 0855.45
2009/04/23 07:43:33.4      52      4    -41     53     67  85.7 -46.1  33978  286.49 0855.45
2009/04/23 07:43:33.5      72      0    -24     73     76  90.0 -23.8  33972  286.41 0855.45
2009/04/23 07:43:33.6      52     -3    -29     53     60  94.3 -35.8  33970  286.37 0855.45
2009/04/23 07:43:33.7      78     -4    -14     79     81  93.5 -10.3  33968  286.34 0855.45
2009/04/23 07:43:33.8      87      0    -12     88     89  90.0  -8.2  33972  286.41 0855.45
2009/04/23 07:43:33.9      69      6    -18     70     73  84.8 -14.5  33976  286.46 0855.44
2009/04/23 07:43:34.0      73     -5     -4     74     75  94.4  -3.2  33986  286.64 0855.44
2009/04/23 07:43:34.1      62     12     27     64     69  78.5  23.1  34000  286.86 0855.44
2009/04/23 07:43:34.2      52      4     24     53     58  85.7  26.2  34002  286.91 0855.44
2009/04/23 07:43:34.3      48     -3     10     49     51  94.3  12.2  33994  286.76 0855.44
2009/04/23 07:43:34.4      37      2     -3     38     39  85.6  -5.2  33984  286.61 0855.44
2009/04/23 07:43:34.5      44      0     -4     45     46  90.0  -5.2  33978  286.49 0855.44
2009/04/23 07:43:34.6      57      1     -5     58     59  88.3  -5.2  33976  286.47 0855.44
2009/04/23 07:43:34.7      91    -17     33     93     98 101.0  20.0  34006  286.98 0855.44
2009/04/23 07:43:34.8      92     -7     61     93    111  94.4  36.0  34020  287.20 0855.44
2009/04/23 07:43:34.9      68      5     66     69     95  85.6  49.0  34016  287.15 0855.44
2009/04/23 07:43:35.0      48    -27     74     56     92 119.8  58.5  34018  287.16 0855.44
2009/04/23 07:43:35.1      71    -11     62     72     95  98.8  45.4  34016  287.15 0855.44
2009/04/23 07:43:35.2      65    -14     61     67     90 102.4  47.5  34016  287.13 0855.44
2009/04/23 07:43:35.3      16      0     64     17     66  90.0  84.9  34012  287.06 0855.44
2009/04/23 07:43:35.4      12    -14     40     19     44 138.6  74.0  34010  287.05 0855.44
2009/04/23 07:43:35.5      29    -15     45     33     55 117.1  60.5  34008  287.00 0855.44
2009/04/23 07:43:35.6      47    -44     46     65     79 133.2  38.6  34006  286.96 0855.44
2009/04/23 07:43:35.7      50    -47     41     69     80 133.1  33.5  34000  286.86 0855.44
2009/04/23 07:43:35.8      56    -41     40     70     80 126.0  32.4  34000  286.86 0855.44
2009/04/23 07:43:35.9      54    -34     56     64     85 122.4  45.8  33996  286.79 0855.44
2009/04/23 07:43:36.0      85    -23     43     89     98 105.1  27.8  33994  286.78 0855.44
2009/04/23 07:43:36.1      78    -31     29     85     90 111.7  18.9  33996  286.79 0855.44
2009/04/23 07:43:36.2      84    -36     37     92     99 113.5  23.0  33996  286.79 0855.44
2009/04/23 07:43:36.3      68    -32     35     76     83 115.4  26.2  33998  286.83 0855.44
2009/04/23 07:43:36.4      48    -27     53     56     77 119.8  49.0  33994  286.76 0855.44
2009/04/23 07:43:36.5      20    -32     55     38     66 147.4  62.6  33996  286.79 0855.44
2009/04/23 07:43:36.6      50    -36     52     62     80 126.0  44.8  33994  286.78 0855.44
2009/04/23 07:43:36.8      63    -19     65     66     92 106.8  50.5  33990  286.69 0855.44
2009/04/23 07:43:36.9      94      7     53     95    108  85.6  31.4  33988  286.66 0855.44
2009/04/23 07:43:37.0     101     -3     24    102    105  91.7  13.7  33984  286.61 0855.44
2009/04/23 07:43:37.1      96      6     30     97    102  86.1  17.3  33982  286.56 0855.44
2009/04/23 07:43:37.2     110    -10     21    111    114  95.7  11.0  33992  286.73 0855.44
2009/04/23 07:43:37.3     111     -8     -4    112    113  94.4  -2.2  33998  286.84 0855.44
2009/04/23 07:43:37.4     108     -3     -4    109    110  91.7  -2.2  34040  287.54 0855.44
2009/04/23 07:43:37.5     116     15     -6    117    118  82.5  -3.1  34044  287.60 0855.44
2009/04/23 07:43:37.6     112     11     38    113    120  84.3  18.9  34042  287.57 0855.44
2009/04/23 07:43:37.7     127     23     21    130    132  79.4   9.5  34034  287.43 0855.44
2009/04/23 07:43:37.8     107     35     77    113    136  71.6  37.4  34028  287.33 0855.44
2009/04/23 07:43:37.9      75     24     79     79    111  71.8  50.1  34020  287.20 0855.44
2009/04/23 07:43:38.0      68      5     73     69    100  85.6  52.1  34022  287.23 0855.44
2009/04/23 07:43:38.1      73     14     71     75    103  78.5  48.5  34024  287.27 0855.44
2009/04/23 07:43:38.2      87     35     54     94    108  67.8  32.4  34018  287.18 0855.44
2009/04/23 07:43:38.4      76     15     74     78    107  78.5  48.5  34012  287.06 0855.44
2009/04/23 07:43:38.4      86     27     74     91    117  72.7  43.7  34008  287.00 0855.44
2009/04/23 07:43:38.5      70      2     88     71    113  88.3  56.4  34004  286.94 0855.44
2009/04/23 07:43:38.6      76     15     89     78    118  78.6  54.3  34020  287.20 0855.44
2009/04/23 07:43:38.7      88     34     66     95    115  68.7  38.0  34028  287.35 0855.44
2009/04/23 07:43:38.8      81     24    113     85    141  73.6  59.4  34016  287.13 0855.44
2009/04/23 07:43:38.9     103     47    109    114    157  65.6  48.7  34014  287.11 0855.44
2009/04/23 07:43:39.0     101     39    116    109    159  68.7  52.0  34004  286.94 0855.44
2009/04/23 07:43:39.1     101     40     88    109    140  68.3  43.7  34008  287.00 0855.44
2009/04/23 07:43:39.2      86     54     91    102    136  57.5  46.4  34022  287.23 0855.44
2009/04/23 07:43:39.3      93     17     63     95    113  79.4  36.0  34028  287.33 0855.44
2009/04/23 07:43:39.4      99     20     62    101    118  78.6  34.4  34022  287.25 0855.44
2009/04/23 07:43:39.5     148     43     78    155    173  73.6  28.7  34026  287.32 0855.44
2009/04/23 07:43:39.6     149     11     82    150    170  85.6  31.0  34010  287.03 0855.44
2009/04/23 07:43:39.7     166    -15     14    167    168  95.5   4.9  34008  287.01 0855.44
2009/04/23 07:43:39.8     153     -9     33    154    158  93.5  12.4  33996  286.79 0855.44
2009/04/23 07:43:39.9     133     13     39    134    140  84.3  16.3  33996  286.79 0855.43
2009/04/23 07:43:40.0     147     31     61    151    162  78.1  23.0  33994  286.78 0855.43
2009/04/23 07:43:40.1     152     41     66    158    171  74.9  24.1  33994  286.78 0855.43
2009/04/23 07:43:40.2     135     54     67    146    160  68.2  26.2  34018  287.16 0855.43
2009/04/23 07:43:40.3     114     37     71    120    139  71.8  33.5  34020  287.20 0855.43
2009/04/23 07:43:40.4     103     54     54    117    128  62.5  26.6  33994  286.78 0855.43
2009/04/23 07:43:40.6      98     52     56    112    125  62.0  28.7  34008  287.01 0855.43
2009/04/23 07:43:40.6     119     39     61    126    139  71.6  27.3  34000  286.88 0855.43
2009/04/23 07:43:40.7     137     36     57    142    153  75.0  23.0  34010  287.05 0855.43
2009/04/23 07:43:40.8     120     39     57    127    139  71.8  26.2  33998  286.83 0855.43
2009/04/23 07:43:40.9     121     51     70    132    149  66.9  30.3  33998  286.83 0855.44
2009/04/23 07:43:41.0     152     50      3    161    162  71.8   1.2  33988  286.67 0855.44
2009/04/23 07:43:41.1     148     48     -6    156    157  71.8  -2.3  33988  286.66 0855.44
2009/04/23 07:43:41.3     136     18     40    138    144  82.1  16.3  33986  286.62 0855.44
2009/04/23 07:43:41.3     168      0    -19    169    171  90.0  -6.7  33978  286.49 0855.44
2009/04/23 07:43:41.4     133     83     12    157    158  58.0   4.6  33976  286.46 0855.44
2009/04/23 07:43:41.5     137     86      0    162    163  57.8   0.0  33978  286.49 0855.44
2009/04/23 07:43:41.6     148     70     16    164    165  64.7   5.9  34000  286.88 0855.44
2009/04/23 07:43:41.7     161     55     30    171    174  70.9  10.1  34006  286.96 0855.44
2009/04/23 07:43:41.8     132     63      9    147    148  64.6   3.8  33990  286.69 0855.44
2009/04/23 07:43:42.0     121     62      7    137    138  62.9   3.3  33982  286.56 0855.44
2009/04/23 07:43:42.0     134     59     12    147    148  66.0   4.9  33984  286.61 0855.44
2009/04/23 07:43:42.2     137     71      0    155    156  62.5   0.2  33996  286.79 0855.44
2009/04/23 07:43:42.3     132     63      8    147    148  64.6   3.3  33996  286.79 0855.44
2009/04/23 07:43:42.4     132     52     28    143    146  68.3  11.1  34038  287.50 0855.44
2009/04/23 07:43:42.5     117     56     -7    131    132  64.2  -3.1  33990  286.69 0855.44
2009/04/23 07:43:42.6     101     46     13    112    113  65.6   6.9  33998  286.84 0855.44
2009/04/23 07:43:42.7      94     66     22    115    118  54.9  11.0  34002  286.89 0855.44
2009/04/23 07:43:42.8      97     48     51    109    120  63.4  27.1  34058  287.84 0855.44
2009/04/23 07:43:42.9      76     39     48     86     98  62.5  31.4  34062  287.91 0855.44
2009/04/23 07:43:43.0      75     47     68     89    112  58.0  41.7  34062  287.92 0855.43
2009/04/23 07:43:43.1      83     52     61     99    116  58.0  35.5  34064  287.94 0855.43
2009/04/23 07:43:43.2      97     57     35    113    119  59.3  17.4  34064  287.96 0855.43
2009/04/23 07:43:43.3      92     49     13    105    106  61.6   7.1  34068  288.03 0855.43
2009/04/23 07:43:43.4     104     49     38    116    123  64.7  18.4  34066  287.98 0855.43
2009/04/23 07:43:43.5      94     64     60    114    128  55.8  29.8  34060  287.89 0855.43
2009/04/23 07:43:43.6      70     24     76     75    106  70.9  49.7  34064  287.96 0855.43
2009/04/23 07:43:43.7      56     47     79     74    108  50.4  52.1  34062  287.91 0855.43
2009/04/23 07:43:43.8      94     56     52    110    121  58.9  27.2  34068  288.03 0855.43
2009/04/23 07:43:43.9     102     53     34    115    121  62.5  16.8  34074  288.11 0855.43
2009/04/23 07:43:44.0      69     64     46     95    105  46.9  27.3  34062  287.92 0855.43
2009/04/23 07:43:44.1      57     67     62     89    108  40.5  38.0  34058  287.84 0855.43
2009/04/23 07:43:44.2      44     78     63     90    109  29.4  38.6  34064  287.94 0855.43
2009/04/23 07:43:44.3      56     89     54    106    118  32.5  29.3  34062  287.91 0855.43
2009/04/23 07:43:44.4      -6     85     51     86     99 355.5  33.5  34068  288.01 0855.43
2009/04/23 07:43:44.5     -19     97     55     99    113 348.5  31.4  34070  288.04 0855.43
2009/04/23 07:43:44.6       1    107     56    108    121   0.9  29.3  34060  287.87 0855.43
2009/04/23 07:43:44.7      16     92     43     94    103  10.2  26.2  34068  288.01 0855.43
2009/04/23 07:43:44.8       4     90     49     91    103   3.1  31.3  34070  288.06 0855.43
2009/04/23 07:43:44.9       3     81     48     82     95   2.7  34.0  34080  288.21 0855.43
2009/04/23 07:43:45.0      16     47     37     50     62  19.2  39.7  34082  288.25 0855.43
2009/04/23 07:43:45.1      37     36     43     52     67  46.0  43.8  34086  288.31 0855.43
2009/04/23 07:43:45.2      56     44     42     72     83  51.4  32.9  34084  288.30 0855.43
2009/04/23 07:43:45.3      87     19     82     90    121  77.6  47.5  34088  288.36 0855.43
2009/04/23 07:43:45.4     111     39     81    118    143  70.5  37.6  34096  288.48 0855.43
2009/04/23 07:43:45.5     100     28     92    105    139  74.1  45.8  34088  288.36 0855.43
2009/04/23 07:43:45.6      95     38     66    103    122  68.2  35.6  34086  288.33 0855.43
2009/04/23 07:43:45.7     100     52     32    113    118  62.5  15.8  34094  288.47 0855.43
2009/04/23 07:43:45.8     127     41     16    134    136  71.8   7.1  34092  288.42 0855.43
2009/04/23 07:43:45.9     130     42     17    137    139  71.8   7.1  34080  288.21 0855.43
2009/04/23 07:43:46.0     126     40     47    133    142  72.3  19.4  34060  287.89 0855.43
2009/04/23 07:43:46.1      87     48     52    100    112  60.7  29.3  34060  287.89 0855.43
2009/04/23 07:43:46.2     116     46     97    125    158  68.3  41.7  34048  287.67 0855.43
2009/04/23 07:43:46.3     136     55     90    147    172  67.8  34.8  34044  287.62 0855.43
2009/04/23 07:43:46.4     122     48     85    132    157  68.3  35.7  34044  287.62 0855.43
2009/04/23 07:43:46.5     106     63    101    124    159  59.3  43.3  34040  287.54 0855.43
2009/04/23 07:43:46.6      90     84     80    124    147  46.9  35.6  34032  287.42 0855.43
2009/04/23 07:43:46.7      70    112     66    133    148  32.1  27.8  34050  287.70 0855.43
2009/04/23 07:43:46.8      60    143      4    156    157  22.7   1.8  34052  287.76 0855.43
2009/04/23 07:43:46.9      80    133    -50    156    164  31.2 -17.9  34034  287.43 0855.43
2009/04/23 07:43:47.0      87    132    -38    159    164  33.4 -13.7  34036  287.47 0855.43
2009/04/23 07:43:47.1      91    115    -13    147    148  38.3  -5.2  34046  287.65 0855.43
2009/04/23 07:43:47.2      96     97    -16    137    138  44.5  -6.7  34044  287.62 0855.43
2009/04/23 07:43:47.3      84     96    -13    128    129  41.0  -6.2  34040  287.55 0855.43
2009/04/23 07:43:47.4      83     79     -4    115    116  46.4  -2.2  34032  287.42 0855.43
2009/04/23 07:43:47.5      66     92     -1    114    115  36.0  -0.7  34030  287.37 0855.43
2009/04/23 07:43:47.6      56     83     -3    101    102  34.3  -1.8  34022  287.23 0855.43
2009/04/23 07:43:47.7      67     82      5    106    107  39.2   2.9  34020  287.20 0855.43
2009/04/23 07:43:47.8      50     73     -1     89     90  34.7  -0.7  34022  287.23 0855.43
2009/04/23 07:43:47.9      50     85    -14     99    101  30.7  -8.2  34024  287.27 0855.43
2009/04/23 07:43:48.0      75     58    -19     95     97  52.2 -11.3  34006  286.98 0855.43
2009/04/23 07:43:48.1      57     62    -10     85     86  42.8  -7.3  34016  287.13 0855.43
2009/04/23 07:43:48.2      77     89     -4    118    119  41.0  -2.2  34004  286.93 0855.43
2009/04/23 07:43:48.3      81     78    -19    113    115  46.0  -9.8  33994  286.78 0855.43
2009/04/23 07:43:48.4      91     75    -39    119    125  50.4 -23.8  34004  286.93 0855.43
2009/04/23 07:43:48.5     103     49    -14    115    116  64.2  -7.3  34016  287.13 0855.43
2009/04/23 07:43:48.6      94     61    -18    113    115  57.1  -9.3  34010  287.05 0855.43
2009/04/23 07:43:48.7      77     82    -27    113    117  43.3 -13.4  34010  287.03 0855.43
2009/04/23 07:43:48.8     106     46      9    116    117  66.5   4.9  34028  287.35 0855.43
2009/04/23 07:43:48.9     119     58     11    133    134  63.8   5.0  34048  287.67 0855.43
2009/04/23 07:43:49.0     163     68     18    177    179  67.2   6.1  34018  287.18 0855.43
2009/04/23 07:43:49.1     145     89     24    171    173  58.5   8.2  33988  286.67 0855.43
2009/04/23 07:43:49.2     143     91     32    170    174  57.4  10.8  33996  286.81 0855.43
2009/04/23 07:43:49.3     154     70     11    170    171  65.6   3.8  34000  286.88 0855.43
2009/04/23 07:43:49.4     135     64     19    150    152  64.7   7.5  34000  286.86 0855.43
2009/04/23 07:43:49.5     133     78     28    155    158  59.4  10.3  34004  286.93 0855.43
2009/04/23 07:43:49.6     134     75     37    154    159  60.7  13.5  34006  286.98 0855.43
2009/04/23 07:43:49.7     137     63     22    152    154  65.2   8.5  34016  287.15 0855.43
2009/04/23 07:43:49.9     156     50     20    164    166  72.1   7.2  34012  287.08 0855.43
2009/04/23 07:43:50.0     127     46     -3    136    137  70.0  -1.3  34004  286.93 0855.43
2009/04/23 07:43:50.1     122     44     23    130    133  70.0  10.1  34012  287.08 0855.43
2009/04/23 07:43:50.2     103     45     -4    113    114  66.5  -2.2  34016  287.15 0855.43
2009/04/23 07:43:50.3     124     22    -11    126    127  79.9  -5.2  34020  287.21 0855.43
2009/04/23 07:43:50.4      90     65    -30    112    116  54.0 -15.0  34008  287.01 0855.43
2009/04/23 07:43:50.5      99     91      0    135    136  47.3   0.2  33990  286.71 0855.43
2009/04/23 07:43:50.6      58     89    -13    107    108  33.4  -7.3  33972  286.39 0855.43
2009/04/23 07:43:50.7      78     73     12    107    108  46.9   6.9  33974  286.42 0855.43
2009/04/23 07:43:50.8     101     79     23    129    132  52.2  10.1  33984  286.59 0855.43
2009/04/23 07:43:50.9     128    108     17    168    169  50.0   5.9  34010  287.03 0855.43
2009/04/23 07:43:51.0     112    112     23    159    161  45.1   8.5  34000  286.88 0855.43
2009/04/23 07:43:51.1      97    127      0    161    162  37.4   0.2  33972  286.39 0855.43
2009/04/23 07:43:51.2     100    115      7    153    154  41.0   2.9  33990  286.69 0855.43
2009/04/23 07:43:51.3      98    104      8    144    145  43.2   3.3  33988  286.66 0855.43
2009/04/23 07:43:51.4      91     85     15    125    126  46.9   7.1  34032  287.40 0855.43
2009/04/23 07:43:51.5      65     97     19    117    119  33.8   9.5  33992  286.74 0855.43
2009/04/23 07:43:51.6      68     82      5    107    108  39.6   2.9  34000  286.86 0855.43
2009/04/23 07:43:51.7      89     84      9    123    124  46.9   4.4  33992  286.73 0855.43
2009/04/23 07:43:51.8      93     71      7    118    119  52.7   3.8  33994  286.76 0855.43
2009/04/23 07:43:51.9     116     57     46    130    137  63.8  20.4  34056  287.82 0855.43
2009/04/23 07:43:52.0      97     19     43     99    107  78.6  25.1  34072  288.08 0855.43
2009/04/23 07:43:52.1      72     33     47     80     92  65.2  33.5  34042  287.59 0855.43
2009/04/23 07:43:52.2      32     67      3     75     76  25.5   2.9  34024  287.27 0855.43
2009/04/23 07:43:52.3      40     64     -3     76     77  32.6  -2.2  34030  287.37 0855.43
2009/04/23 07:43:52.4      41     65      9     78     79  32.5   6.9  34040  287.55 0855.43
2009/04/23 07:43:52.5      50     87     19    101    103  30.3  11.0  34014  287.11 0855.43
2009/04/23 07:43:52.6      68     80     21    106    109  40.5  11.1  33976  286.47 0855.43
2009/04/23 07:43:52.7      72     73     24    103    106  44.7  13.2  33968  286.32 0855.43
2009/04/23 07:43:52.8      72     73     24    103    106  44.7  13.2  33968  286.32 0855.43
2009/04/23 07:43:52.9      98     50     13    111    112  62.9   6.9  33972  286.39 0855.43
2009/04/23 07:43:53.0     109     36      2    116    117  71.4   1.2  33998  286.83 0855.43
2009/04/23 07:43:53.1      99     54     13    113    114  61.2   6.9  34034  287.45 0855.43
2009/04/23 07:43:53.2     101     79     14    129    130  52.2   6.5  34008  287.00 0855.43
2009/04/23 07:43:53.3     114     75     42    137    144  56.7  17.3  34048  287.69 0855.43
2009/04/23 07:43:53.4     103     65     50    123    132  57.6  23.0  34048  287.69 0855.43
2009/04/23 07:43:53.5      91     75     54    118    129  50.5  26.6  34050  287.70 0855.43
2009/04/23 07:43:53.6      92     74     30    119    123  51.4  14.3  34066  287.99 0855.43
2009/04/23 07:43:53.7      93     76     23    121    124  50.5  11.1  34080  288.23 0855.43
2009/04/23 07:43:53.8     110     65     14    128    129  59.4   6.5  34082  288.26 0855.43
2009/04/23 07:43:53.9     132     84     28    157    160  57.5  10.3  34078  288.18 0855.43
2009/04/23 07:43:54.0     139     96     31    170    173  55.4  10.3  34046  287.65 0855.43
2009/04/23 07:43:54.2     105     99     25    145    148  46.8  10.1  33994  286.78 0855.43
2009/04/23 07:43:54.3     105    101     30    146    150  46.0  11.6  33980  286.54 0855.43
2009/04/23 07:43:54.4     104     92     32    140    144  48.6  13.1  33986  286.64 0855.43
2009/04/23 07:43:54.5     105     98     17    144    146  46.9   6.9  33990  286.71 0855.43
2009/04/23 07:43:54.6      94     84     32    127    132  48.2  14.3  34012  287.06 0855.43
2009/04/23 07:43:54.7     107     63     36    125    131  59.4  16.3  34034  287.43 0855.43
2009/04/23 07:43:54.8      85     57     12    103    104  56.3   7.1  34032  287.40 0855.43
2009/04/23 07:43:54.9      99     65      4    119    120  56.7   2.3  34024  287.27 0855.43
2009/04/23 07:43:55.0      85     59     21    104    107  54.9  11.6  34002  286.89 0855.43
2009/04/23 07:43:55.1      67     55     18     87     90  50.5  12.2  33990  286.69 0855.43
2009/04/23 07:43:55.2      79     50     -7     94     95  57.6  -4.6  33980  286.54 0855.43
2009/04/23 07:43:55.3      83     53      3     99    100  57.1   1.8  33986  286.64 0855.43
2009/04/23 07:43:55.4      72     54     16     90     92  53.1  10.6  34016  287.15 0855.43
2009/04/23 07:43:55.5      94     69     24    117    120  53.6  11.6  34036  287.47 0855.43
2009/04/23 07:43:55.6      87     68     18    111    113  51.8   9.5  34058  287.86 0855.43
2009/04/23 07:43:55.7      85     46     14     97     99  61.6   8.5  34058  287.84 0855.43
2009/04/23 07:43:55.8      94     72     15    119    121  52.7   7.5  34042  287.59 0855.43
2009/04/23 07:43:55.9      79     62     35    101    108  51.8  19.4  34036  287.47 0855.43
2009/04/23 07:43:56.0      86     36     53     94    107  66.9  31.4  34032  287.40 0855.43
2009/04/23 07:43:56.1     119     44     30    128    132  69.6  13.2  34046  287.64 0855.43
2009/04/23 07:43:56.2     102     81     24    131    134  51.4  10.6  34004  286.93 0855.43
2009/04/23 07:43:56.3      94     68     31    117    122  54.1  15.2  33994  286.76 0855.43
2009/04/23 07:43:56.4      87     72     44    114    122  50.5  22.0  33998  286.83 0855.43
2009/04/23 07:43:56.5      79     65     35    103    109  50.5  18.9  33992  286.73 0855.43
2009/04/23 07:43:56.6      78     53     35     95    101  55.4  21.0  33988  286.66 0855.43
2009/04/23 07:43:56.7      72     46     37     86     93  57.6  24.6  33992  286.74 0855.43
2009/04/23 07:43:56.8      77     32     31     84     89  66.9  20.4  33994  286.76 0855.43
2009/04/23 07:43:56.9      87     25     17     91     93  73.6  11.1  34024  287.28 0855.43
2009/04/23 07:43:57.0      95     37      5    102    103  68.7   2.8  34002  286.89 0855.42
2009/04/23 07:43:57.1      92     35    -11     99    100  69.2  -6.7  34010  287.05 0855.42
2009/04/23 07:43:57.2      91     25      3     95     96  74.5   2.3  34020  287.20 0855.42
2009/04/23 07:43:57.3      88     25      2     92     93  73.6   1.8  34014  287.11 0855.42
2009/04/23 07:43:57.4      82     16    -17     84     86  79.0 -11.9  33994  286.78 0855.42
2009/04/23 07:43:57.5      80     11    -11     81     82  81.6  -8.2  33988  286.66 0855.42
2009/04/23 07:43:57.6      82     18    -23     85     89  77.2 -15.0  33988  286.67 0855.42
2009/04/23 07:43:57.7      94     10    -21     95     98  83.4 -12.9  33992  286.74 0855.42
2009/04/23 07:43:57.8      87     22    -11     90     91  75.4  -7.3  34004  286.93 0855.42
2009/04/23 07:43:57.9      87     22    -22     90     93  75.4 -13.9  34006  286.96 0855.42
2009/04/23 07:43:58.0      83     27    -15     88     90  71.8  -9.8  34012  287.06 0855.42
2009/04/23 07:43:58.1      87     34     -3     94     95  68.7  -2.2  34000  286.88 0855.42
2009/04/23 07:43:58.2      85     30     -5     91     92  70.5  -3.1  33996  286.81 0855.42
2009/04/23 07:43:58.3      72     46      1     86     87  57.5   0.8  34020  287.20 0855.42
2009/04/23 07:43:58.4      67     54     -3     87     88  51.4  -2.2  34020  287.20 0855.42
2009/04/23 07:43:58.5      54     48    -16     73     75  48.7 -12.4  34020  287.21 0855.42
2009/04/23 07:43:58.6      66     31    -19     73     76  64.8 -14.5  34016  287.15 0855.42
2009/04/23 07:43:58.7      69     28     -9     75     76  67.4  -7.2  34016  287.13 0855.42
2009/04/23 07:43:58.8      70     28      6     76     77  68.2   4.9  34020  287.21 0855.42
2009/04/23 07:43:58.9      60     49      3     78     79  50.4   2.3  34008  287.01 0855.42
2009/04/23 07:43:59.0      50     53      3     74     75  43.2   2.9  34010  287.05 0855.42
2009/04/23 07:43:59.1      50     53     -1     74     75  43.2  -1.3  34002  286.91 0855.42
2009/04/23 07:43:59.2      53     49      3     73     74  46.8   2.8  33992  286.73 0855.42
2009/04/23 07:43:59.3      40     40     13     57     59  45.1  13.2  33976  286.46 0855.42
2009/04/23 07:43:59.4      36     46     -1     59     60  37.8  -1.2  33974  286.44 0855.42
2009/04/23 07:43:59.5      23     57      7     62     63  22.7   7.1  33974  286.42 0855.42
2009/04/23 07:43:59.6       5     42     13     43     46   8.0  17.3  33972  286.41 0855.42
2009/04/23 07:43:59.7      18     31     17     37     40  30.7  26.2  33972  286.41 0855.42
2009/04/23 07:43:59.8      38     31     -1     50     51  50.5  -2.2  33976  286.46 0855.42
2009/04/23 07:43:59.9      49     38     -8     63     64  52.2  -7.2  33982  286.56 0855.42
2009/04/23 07:44:00.0      48     45    -13     66     68  46.9 -11.3  33978  286.49 0855.42
2009/04/23 07:44:00.1      45     41    -17     62     65  47.8 -15.5  33976  286.46 0855.42
2009/04/23 07:44:00.2      47     44     -8     65     66  46.9  -7.3  33980  286.54 0855.42
2009/04/23 07:44:00.3      48     30     -7     57     58  57.5  -7.3  33982  286.57 0855.42
2009/04/23 07:44:00.4      51     38     -2     64     65  53.1  -2.2  33984  286.61 0855.42
2009/04/23 07:44:00.5      44     37     -4     58     59  50.4  -4.1  33986  286.64 0855.42
2009/04/23 07:44:00.6      43     38    -11     58     60  48.7 -11.3  33982  286.56 0855.42
2009/04/23 07:44:00.7      43     38    -11     58     60  48.7 -11.3  33976  286.46 0855.42
2009/04/23 07:44:00.8      43     39     -3     59     60  47.8  -3.2  33978  286.49 0855.42
2009/04/23 07:44:00.9      46     34    -16     58     61  54.0 -15.5  33976  286.46 0855.42
2009/04/23 07:44:01.0      45     43    -17     63     66  46.9 -15.4  33972  286.41 0855.42
2009/04/23 07:44:01.1      46     34    -16     58     61  54.0 -15.5  33976  286.46 0855.42
2009/04/23 07:44:01.2      45     34    -17     57     60  52.2 -16.6  33976  286.47 0855.42
2009/04/23 07:44:01.3      51     30    -19     60     63  59.3 -17.6  33978  286.51 0855.42
2009/04/23 07:44:01.4      47     30    -15     56     59  57.6 -15.4  33978  286.49 0855.42
2009/04/23 07:44:01.5      49     35    -12     61     63  54.9 -11.3  33976  286.46 0855.42
2009/04/23 07:44:01.6      48     21    -14     53     55  66.5 -15.4  33974  286.42 0855.42
2009/04/23 07:44:01.7      43     24    -18     50     54  60.2 -19.7  33976  286.46 0855.42
2009/04/23 07:44:01.8      45     18    -16     49     52  68.3 -18.7  33976  286.46 0855.42
2009/04/23 07:44:01.9      52     17    -18     55     59  71.4 -18.7  33978  286.49 0855.42
2009/04/23 07:44:02.0      54     15    -17     57     60  74.1 -16.6  33978  286.51 0855.41
2009/04/23 07:44:02.1      54     15    -17     57     60  74.1 -16.6  33978  286.51 0855.41
2009/04/23 07:44:02.2      52     10    -16     54     56  78.5 -22.8  33976  286.47 0855.41
2009/04/23 07:44:02.3      40     14    -20     43     47  70.0 -30.6  33976  286.47 0855.41
2009/04/23 07:44:02.4      40     14    -20     43     47  70.0 -30.6  33976  286.47 0855.41
2009/04/23 07:44:02.5      40      6    -13     41     43  81.2 -23.8  33978  286.51 0855.41
2009/04/23 07:44:02.6      40      6    -13     41     43  81.2 -23.8  33978  286.51 0855.41
2009/04/23 07:44:02.7      30      6     -9     31     33  78.5 -17.6  33982  286.56 0855.41
2009/04/23 07:44:02.8      20     17      0     27     28  50.5  -1.3  33988  286.66 0855.41
2009/04/23 07:44:02.9      32     20     -1     38     39  57.6  -2.2  33998  286.83 0855.41
2009/04/23 07:44:03.0      31     19      1     37     38  57.6   2.8  34012  287.08 0855.41
2009/04/23 07:44:03.1      32     15      1     36     37  64.8   2.9  34012  287.08 0855.41
2009/04/23 07:44:03.2      30     14      1     34     35  64.7   2.9  34014  287.10 0855.41
2009/04/23 07:44:03.3      33     21     -2     40     41  56.7  -4.1  34004  286.93 0855.41
2009/04/23 07:44:03.4      41     26     -1     49     50  57.6  -2.2  33984  286.59 0855.41
2009/04/23 07:44:03.5      44     28     -2     53     54  57.5  -2.2  33984  286.59 0855.41
2009/04/23 07:44:03.6      53     38     -9     66     67  54.0  -8.2  34012  287.06 0855.41
2009/04/23 07:44:03.7      56     30    -11     64     66  61.2 -10.3  34042  287.57 0855.41
2009/04/23 07:44:03.8      57     35    -17     68     71  58.5 -14.5  34042  287.57 0855.41
2009/04/23 07:44:03.9      57      7     -6     58     59  83.0  -6.2  34042  287.59 0855.41
2009/04/23 07:44:04.0      61     20     10     65     66  71.6   9.0  34042  287.57 0855.41
2009/04/23 07:44:04.1      75     19     21     78     81  75.8  15.3  34042  287.57 0855.41
2009/04/23 07:44:04.2      89     31      4     95     96  70.5   2.8  34046  287.64 0855.41
2009/04/23 07:44:04.3      74      1      3     75     76  89.2   2.8  34040  287.54 0855.41
2009/04/23 07:44:04.4      49      0     -1     50     51  90.0  -1.3  34044  287.60 0855.41
2009/04/23 07:44:04.5      44      0      1     45     46  90.0   1.8  34036  287.47 0855.41
2009/04/23 07:44:04.6      45     -3     20     46     50  94.4  26.2  34032  287.42 0855.41
2009/04/23 07:44:04.7      19     19     33     27     42  45.1  55.4  34024  287.28 0855.41
2009/04/23 07:44:04.8      15     26     29     31     42  30.7  49.0  34018  287.18 0855.41
2009/04/23 07:44:04.9      15     26     22     31     38  30.7  37.6  34016  287.15 0855.41
2009/04/23 07:44:05.0      24      4     24     25     34  80.3  52.0  34018  287.16 0855.41
2009/04/23 07:44:05.1      30     10     22     32     38  70.0  37.6  34022  287.25 0855.41
2009/04/23 07:44:05.2      21      7     22     23     31  71.4  50.0  34022  287.25 0855.41
2009/04/23 07:44:05.3      21     13     15     26     30  57.5  33.5  34020  287.21 0855.41
2009/04/23 07:44:05.4      23     19     10     31     33  50.5  19.2  34018  287.18 0855.41
2009/04/23 07:44:05.5      16     18     16     25     29  41.4  35.5  34018  287.18 0855.41
2009/04/23 07:44:05.6      12     16     19     21     28  36.1  50.0  34018  287.16 0855.41
2009/04/23 07:44:05.7      19     19     15     27     30  45.0  31.4  34014  287.10 0855.41
2009/04/23 07:44:05.8      10     18     17     21     27  29.0  43.7  34004  286.93 0855.41
2009/04/23 07:44:05.9      18     10     19     21     28  59.3  50.0  33998  286.84 0855.41
2009/04/23 07:44:06.1      11     10     17     16     23  46.7  50.1  33994  286.78 0855.42
2009/04/23 07:44:06.1       8     11     19     14     23  36.1  58.5  33992  286.74 0855.42
2009/04/23 07:44:06.2       6     11     19     13     23  29.0  60.5  33992  286.74 0855.42
2009/04/23 07:44:06.3      14     12     21     19     28  50.5  50.1  34000  286.86 0855.42
2009/04/23 07:44:06.4      15     17     15     24     28  41.4  35.5  34012  287.06 0855.42
2009/04/23 07:44:06.5      20     17     20     27     33  48.7  41.7  34016  287.15 0855.42
2009/04/23 07:44:06.6      16     18     21     25     32  41.4  43.8  34038  287.50 0855.42
2009/04/23 07:44:06.7      20     32     16     38     41  32.5  24.1  34050  287.72 0855.42
2009/04/23 07:44:06.8      28     35      7     45     46  38.7   9.0  34046  287.64 0855.42
2009/04/23 07:44:06.9      24     38     14     46     49  32.6  17.3  34048  287.69 0855.42
2009/04/23 07:44:07.1      25     39      4     47     48  33.4   4.9  34044  287.60 0855.42
2009/04/23 07:44:07.2      24     24     12     35     38  45.0  19.4  34044  287.60 0855.42
2009/04/23 07:44:07.3      28     26     15     39     41  46.7  22.0  34046  287.65 0855.42
2009/04/23 07:44:07.4      26     17     21     32     38  57.5  35.6  34040  287.54 0855.42
2009/04/23 07:44:07.5      31      6     24     32     40  78.5  40.7  34030  287.38 0855.42
2009/04/23 07:44:07.6      23     21     26     32     41  46.9  43.7  34052  287.74 0855.42
2009/04/23 07:44:07.7      26     22     20     35     40  50.4  32.4  34062  287.91 0855.42
2009/04/23 07:44:07.8      32     21     17     39     42  55.8  25.1  34070  288.06 0855.42
2009/04/23 07:44:07.9      32     16     15     37     39  62.9  24.1  34074  288.11 0855.42
2009/04/23 07:44:08.0      32     20     18     39     42  57.5  26.2  34066  287.99 0855.42
2009/04/23 07:44:08.1      19      6     30     21     36  71.6  62.6  34058  287.86 0855.42
2009/04/23 07:44:08.2      30      3     32     31     44  83.9  49.1  34052  287.74 0855.42
2009/04/23 07:44:08.3      32     10     32     34     46  71.6  50.0  34046  287.65 0855.42
2009/04/23 07:44:08.4      10     10     30     15     33  43.2  72.9  34042  287.57 0855.42
2009/04/23 07:44:08.5      11      5     24     13     27  64.7  68.8  34044  287.62 0855.42
2009/04/23 07:44:08.7      19     19     32     27     41  45.0  55.4  34050  287.70 0855.42
2009/04/23 07:44:08.7      30     10     49     32     58  70.0  64.6  34052  287.74 0855.42
2009/04/23 07:44:08.8      16      2     47     17     49  82.1  80.2  34050  287.70 0855.42
2009/04/23 07:44:09.0      16     10     48     19     51  57.5  78.2  34060  287.89 0855.42
2009/04/23 07:44:09.1      12     15     39     20     43  39.6  71.9  34052  287.74 0855.42
2009/04/23 07:44:09.2       9      0     27     10     28  90.0  81.2  34050  287.72 0855.42
2009/04/23 07:44:09.3       0     -2     21      3     21 161.5  90.0  34038  287.52 0855.42
2009/04/23 07:44:09.4      10     10     30     15     33  43.2  72.9  34048  287.69 0855.42
2009/04/23 07:44:09.5      17     14     37     23     43  50.5  64.7  34056  287.82 0855.42
2009/04/23 07:44:09.6      16     15     31     23     38  46.9  58.5  34060  287.89 0855.42
2009/04/23 07:44:09.7       7      8     28     11     30  39.6  79.2  34058  287.86 0855.42
2009/04/23 07:44:09.8      12      8     20     15     25  57.6  60.5  34056  287.81 0855.42
2009/04/23 07:44:09.9       5     11     20     13     23  25.4  64.7  34060  287.87 0855.42
2009/04/23 07:44:10.0       5     11     27     13     29  25.4  72.8  34058  287.84 0855.42
2009/04/23 07:44:10.1       3     14     31     15     34  15.1  72.9  34058  287.84 0855.42
2009/04/23 07:44:10.2      20     12     35     24     42  57.6  62.6  34064  287.94 0855.42
2009/04/23 07:44:10.3      25     16     40     30     50  57.6  58.5  34062  287.91 0855.42
2009/04/23 07:44:10.4      12      1     34     13     36  82.1  81.2  34054  287.79 0855.42
2009/04/23 07:44:10.5       7     -6     21     10     23 133.1  75.0  34048  287.69 0855.42
2009/04/23 07:44:10.6      24      4     31     25     39  80.3  56.4  34048  287.69 0855.42
2009/04/23 07:44:10.7      22      3     24     23     33  80.3  48.2  34042  287.59 0855.42
2009/04/23 07:44:10.8      19     -3     20     20     28 101.5  50.1  34034  287.43 0855.42
2009/04/23 07:44:10.9      22     -7     22     24     32 108.2  50.0  34022  287.25 0855.42
2009/04/23 07:44:11.0      35      0     28     36     45  90.0  41.7  34022  287.23 0855.42
2009/04/23 07:44:11.1      47     -3     33     48     58  94.4  36.5  34036  287.49 0855.42
2009/04/23 07:44:11.2      46     -4     32     47     56  95.2  36.5  34040  287.54 0855.42
2009/04/23 07:44:11.3      54     -6     33     55     64  97.0  35.5  34034  287.43 0855.42
2009/04/23 07:44:11.4      54      0     33     55     64  90.0  35.5  34030  287.38 0855.42
2009/04/23 07:44:11.5      53      4     38     54     66  85.6  38.6  34018  287.16 0855.42
2009/04/23 07:44:11.6      58     -6     43     59     73  96.1  39.7  34006  286.98 0855.42
2009/04/23 07:44:11.7      61     -1     46     62     77  91.7  39.7  34018  287.18 0855.42
2009/04/23 07:44:11.8      57     -4     41     58     71  94.4  39.5  34008  287.00 0855.42
2009/04/23 07:44:11.9      43    -24     33     50     59 119.8  36.5  33996  286.79 0855.42
2009/04/23 07:44:12.0      55    -22     26     60     65 111.7  25.1  33982  286.56 0855.42
2009/04/23 07:44:12.1      64    -36     26     74     79 119.8  19.4  33976  286.46 0855.42
2009/04/23 07:44:12.2      62    -43     32     76     82 125.1  24.1  33978  286.49 0855.42
2009/04/23 07:44:12.3      67    -53     42     86     95 128.2  27.8  33978  286.49 0855.42
2009/04/23 07:44:12.4      56    -53     34     78     85 133.2  25.1  33978  286.49 0855.42
2009/04/23 07:44:12.5      44    -50     23     67     72 138.6  19.4  33976  286.46 0855.42
2009/04/23 07:44:12.6      45    -40     30     61     67 131.3  27.3  33976  286.46 0855.42
2009/04/23 07:44:12.7      42    -46     26     63     68 137.7  23.0  33972  286.41 0855.42
2009/04/23 07:44:12.8      52    -40     28     66     71 127.8  24.1  33974  286.42 0855.42
2009/04/23 07:44:12.9      52    -33     21     62     66 122.4  18.9  33972  286.41 0855.42
2009/04/23 07:44:13.0      57    -15     24     60     64 105.1  23.0  33968  286.32 0855.42
2009/04/23 07:44:13.1      62    -34     16     71     73 118.9  13.2  33972  286.41 0855.42
2009/04/23 07:44:13.2      55    -33     20     65     69 120.7  17.3  33974  286.42 0855.42
2009/04/23 07:44:13.3      59    -43     29     74     79 125.9  22.0  33980  286.52 0855.42
2009/04/23 07:44:13.4      68    -32     35     76     83 115.4  26.2  33978  286.51 0855.42
2009/04/23 07:44:13.5      66    -22     42     70     81 108.6  34.0  33978  286.49 0855.42
2009/04/23 07:44:13.6      61    -33     24     70     75 118.9  18.9  33976  286.47 0855.42
2009/04/23 07:44:13.7      60    -38     33     72     79 122.5  25.7  33976  286.47 0855.42
2009/04/23 07:44:13.8      43    -43     21     62     66 134.9  18.9  33972  286.41 0855.42
2009/04/23 07:44:13.9      45    -40     17     61     64 131.3  16.3  33972  286.41 0855.42
2009/04/23 07:44:14.0      55    -33     20     65     69 120.7  17.3  33974  286.42 0855.42
2009/04/23 07:44:14.1      52    -33     16     62     65 122.5  14.3  33976  286.47 0855.42
2009/04/23 07:44:14.2      47    -36     13     60     62 127.8  12.2  33976  286.46 0855.42
2009/04/23 07:44:14.3      45    -40     23     61     65 131.3  22.0  33976  286.47 0855.42
2009/04/23 07:44:14.4      63    -40     31     75     81 122.5  23.6  33978  286.51 0855.42
2009/04/23 07:44:14.5      63    -40     31     75     81 122.5  23.6  33978  286.51 0855.42
2009/04/23 07:44:14.6      66    -42     35     79     86 122.4  25.1  33982  286.56 0855.42
2009/04/23 07:44:14.7      69    -44     25     83     87 122.5  16.8  33980  286.54 0855.42
2009/04/23 07:44:14.8      62    -45     18     77     80 125.9  13.2  33980  286.54 0855.42
2009/04/23 07:44:14.9      63    -40     31     75     81 122.5  23.6  33978  286.51 0855.42
2009/04/23 07:44:15.0      74    -36     28     83     88 116.2  18.9  33980  286.54 0855.42
2009/04/23 07:44:15.1      73    -34     28     81     86 115.3  19.4  33986  286.62 0855.42
2009/04/23 07:44:15.2      65    -13     13     67     69 101.5  11.0  33994  286.78 0855.42
2009/04/23 07:44:15.3      69     -6     26     70     74  95.2  20.0  34008  287.00 0855.42
2009/04/23 07:44:15.4      80     -2     30     81     86  91.7  20.4  34006  286.98 0855.42
2009/04/23 07:44:15.5      71     -5     24     72     77  94.3  18.9  34008  287.00 0855.42
2009/04/23 07:44:15.6      76      5     13     77     79  85.6  10.1  34002  286.89 0855.42
2009/04/23 07:44:15.7      66      0     18     67     70  90.0  15.3  34006  286.96 0855.42
2009/04/23 07:44:15.8      71      5     14     72     74  85.6  11.1  34014  287.10 0855.42
2009/04/23 07:44:15.9      76      5     32     77     83  85.7  23.6  34024  287.28 0855.42
2009/04/23 07:44:16.0      78     10     32     79     85  82.1  23.0  34012  287.08 0855.42
2009/04/23 07:44:16.1      73     -1     44     74     86  90.8  34.0  34000  286.86 0855.42
2009/04/23 07:44:16.2      68    -13     41     70     81 101.4  32.9  34004  286.93 0855.42
2009/04/23 07:44:16.3      72     -1     36     73     81  90.9  28.2  33998  286.83 0855.42
2009/04/23 07:44:16.4      75      2     32     76     82  88.3  24.1  34000  286.86 0855.42
2009/04/23 07:44:16.5      72      0     36     73     81  90.0  28.2  34002  286.89 0855.42
2009/04/23 07:44:16.6      77     -5     41     78     88  94.4  29.8  34006  286.96 0855.42
2009/04/23 07:44:16.7      58     -7     44     59     73  97.0  40.7  33994  286.78 0855.42
2009/04/23 07:44:16.8      40     -6     40     41     57  98.8  51.1  33998  286.83 0855.42
2009/04/23 07:44:16.9      40     -6     40     41     57  98.8  51.1  33998  286.83 0855.42
2009/04/23 07:44:17.0      57    -15     43     60     73 105.1  39.7  34006  286.98 0855.42
2009/04/23 07:44:17.1      52     -8     40     53     66  98.8  40.7  34018  287.18 0855.42
2009/04/23 07:44:17.2      41     -7     32     42     52  99.7  42.7  34008  287.01 0855.42
2009/04/23 07:44:17.3      40      0     26     41     48  90.0  35.5  34004  286.93 0855.42
2009/04/23 07:44:17.4      35     -2     32     36     48  94.4  47.9  34002  286.89 0855.42
2009/04/23 07:44:17.5      24      4     24     25     34  80.3  52.0  33992  286.74 0855.42
2009/04/23 07:44:17.6      24      4     25     25     35  80.3  50.1  33992  286.74 0855.42
2009/04/23 07:44:17.7      22      0     22     23     31  90.0  50.0  33994  286.78 0855.42
2009/04/23 07:44:17.8      23      3     17     24     29  82.1  37.6  33994  286.78 0855.42
2009/04/23 07:44:17.9      26      8     13     28     30  71.4  27.1  33988  286.66 0855.42
2009/04/23 07:44:18.0      33     10     12     35     38  71.8  18.9  33984  286.61 0855.42
2009/04/23 07:44:18.1      44     14     17     47     49  71.6  20.0  33990  286.71 0855.40
2009/04/23 07:44:18.2      47     12     26     49     55  74.9  30.3  34000  286.88 0855.40
2009/04/23 07:44:18.3      45     16     24     48     53  70.0  27.3  34010  287.03 0855.40
2009/04/23 07:44:18.4      49     23     19     55     59  64.6  19.2  34042  287.59 0855.40
2009/04/23 07:44:18.5      47     28     32     55     63  59.3  32.4  34076  288.16 0855.40
2009/04/23 07:44:18.6      43     23     38     49     62  62.0  41.7  34060  287.87 0855.40
2009/04/23 07:44:18.7      48     20      0     53     54  67.4   0.8  34032  287.42 0855.40
2009/04/23 07:44:18.8      50     30     -2     59     60  58.5  -2.2  34026  287.30 0855.40
2009/04/23 07:44:18.9      47     30     15     56     59  57.5  15.3  34026  287.32 0855.40
2009/04/23 07:44:19.0      55     24     27     61     66  66.5  25.1  34028  287.35 0855.40
2009/04/23 07:44:19.1      52     18     37     56     67  70.9  35.6  34028  287.33 0855.40
2009/04/23 07:44:19.2      47     17     33     51     60  70.0  35.6  34022  287.23 0855.40
2009/04/23 07:44:19.3      39     22     26     46     52  60.2  32.4  34016  287.15 0855.40
2009/04/23 07:44:19.4      39     22     33     46     56  60.2  38.6  34022  287.23 0855.40
2009/04/23 07:44:19.5      37     19     37     42     55  62.9  45.8  34014  287.11 0855.40
2009/04/23 07:44:19.6      37     12     36     39     53  71.8  47.9  34008  287.00 0855.40
2009/04/23 07:44:19.7      40     14     27     43     50  70.0  35.5  34000  286.88 0855.40
2009/04/23 07:44:19.8      42     11     29     44     52  74.9  35.6  34000  286.86 0855.40
2009/04/23 07:44:19.9      36     12     37     39     53  71.4  50.0  33998  286.84 0855.40
2009/04/23 07:44:20.0      38      7     41     39     56  78.6  50.1  34004  286.93 0855.40
2009/04/23 07:44:20.1      54      6     40     55     68  83.0  39.7  34000  286.88 0855.40
2009/04/23 07:44:20.2      46      7     25     47     53  81.2  30.3  33998  286.84 0855.40
2009/04/23 07:44:20.3      35      7     22     36     42  78.5  34.4  33998  286.83 0855.40
2009/04/23 07:44:20.4      37      2     24     38     44  85.6  35.5  33996  286.79 0855.40
2009/04/23 07:44:20.5      51      0     21     52     56  90.0  22.0  33994  286.76 0855.40
2009/04/23 07:44:20.6      41     11      6     43     44  74.9   9.0  33994  286.78 0855.40
2009/04/23 07:44:20.7      47     11      4     49     50  75.8   4.9  33992  286.74 0855.40
2009/04/23 07:44:20.8      39     11     16     41     44  74.1  21.0  33996  286.81 0855.40
2009/04/23 07:44:20.9      26      2     30     27     40  85.6  53.3  34018  287.18 0855.40
2009/04/23 07:44:21.0      33      2     33     34     47  85.6  51.1  34038  287.50 0855.40
2009/04/23 07:44:21.1      36     12     45     38     58  71.4  55.4  34044  287.62 0855.40
2009/04/23 07:44:21.2      33     10     45     35     57  71.8  57.5  34034  287.45 0855.40
2009/04/23 07:44:21.3      20      6     42     22     47  71.6  69.8  34014  287.11 0855.40
2009/04/23 07:44:21.4      10      6     40     13     42  57.6  81.8  34016  287.15 0855.40
2009/04/23 07:44:21.5      31      0     50     32     59  90.0  64.6  34024  287.28 0855.40
2009/04/23 07:44:21.6      17      5     44     18     47  71.8  77.1  34026  287.30 0855.40
2009/04/23 07:44:21.7      22      2     42     23     47  83.9  68.8  34036  287.47 0855.40
2009/04/23 07:44:21.8      38      7     34     39     51  78.5  45.8  34040  287.54 0855.40
2009/04/23 07:44:21.9      30      6     37     31     48  78.5  54.3  34050  287.70 0855.40
2009/04/23 07:44:22.0      30     10     34     32     46  70.0  50.1  34052  287.74 0855.40
2009/04/23 07:44:22.1      26      0     39     27     47  90.0  62.6  34054  287.79 0855.40
2009/04/23 07:44:22.2      30     10     34     32     46  70.0  50.1  34052  287.74 0855.40
2009/04/23 07:44:22.3      31     10     26     33     42  71.8  42.7  34050  287.72 0855.40
2009/04/23 07:44:22.4      19      4     34     20     39  76.7  66.8  34040  287.54 0855.40
2009/04/23 07:44:22.5      10      9     24     14     27  46.7  64.7  34030  287.38 0855.40
2009/04/23 07:44:22.6       8      0     26      9     27  90.0  81.0  34030  287.37 0855.40
2009/04/23 07:44:22.7       9      3     23     10     25  68.3  77.1  34034  287.43 0855.40
2009/04/23 07:44:22.8      10     10     24     15     28  45.0  64.7  34038  287.50 0855.40
2009/04/23 07:44:22.9       0     11     28     12     30   4.5  75.0  34038  287.50 0855.40
2009/04/23 07:44:23.0      13     14     19     20     27  41.4  52.0  34038  287.50 0855.40
2009/04/23 07:44:23.1      17     17     22     25     33  45.0  45.8  34042  287.57 0855.40
2009/04/23 07:44:23.2      34     16     22     38     43  64.7  32.4  34046  287.64 0855.40
2009/04/23 07:44:23.3      32      8     16     34     37  74.9  27.2  34046  287.65 0855.40
2009/04/23 07:44:23.4      49      6     21     50     54  83.0  23.0  34052  287.74 0855.40
2009/04/23 07:44:23.5      48      2     17     49     53  86.5  19.4  34060  287.89 0855.40
2009/04/23 07:44:23.6      48      6     16     49     52  82.1  18.4  34066  287.98 0855.40
2009/04/23 07:44:23.7      46     11     12     48     50  75.8  14.3  34070  288.06 0855.40
2009/04/23 07:44:23.8      43      6      9     44     46  82.1  12.2  34062  287.92 0855.40
2009/04/23 07:44:23.9      33      7      8     34     35  76.7  13.2  34058  287.86 0855.40
2009/04/23 07:44:24.0      36     12     -3     39     40  71.4  -5.2  34054  287.77 0855.40
2009/04/23 07:44:24.1      33     25    -14     42     44  52.2 -23.6  34050  287.72 0855.40
2009/04/23 07:44:24.2      22      3     -3     23     24  80.3  -9.3  34050  287.70 0855.40
2009/04/23 07:44:24.3       9    -15     13     18     22 147.4  39.7  34050  287.72 0855.40
2009/04/23 07:44:24.4       7    -22     15     24     28 161.7  35.5  34046  287.65 0855.40
2009/04/23 07:44:24.5       2    -13     10     14     17 168.4  39.7  34046  287.65 0855.40
2009/04/23 07:44:24.6       2    -13     10     14     17 168.4  39.7  34044  287.60 0855.40
2009/04/23 07:44:24.7       7     -9     12     12     16 143.9  50.1  34042  287.57 0855.40
2009/04/23 07:44:24.8      -4    -13     15     14     20 198.7  52.2  34044  287.60 0855.40
2009/04/23 07:44:24.9      -8    -20     18     22     28 201.8  45.8  34040  287.54 0855.40
2009/04/23 07:44:25.0      -4    -13     22     14     26 198.7  64.7  34038  287.52 0855.40
2009/04/23 07:44:25.1      -8    -14     17     17     24 209.0  50.1  34032  287.42 0855.41
2009/04/23 07:44:25.2      -6    -18     20     20     28 200.0  50.1  34028  287.33 0855.41
2009/04/23 07:44:25.3      -8    -23     18     25     30 200.0  39.7  34026  287.30 0855.41
2009/04/23 07:44:25.4      -8    -26     16     28     32 198.3  33.5  34024  287.28 0855.41
2009/04/23 07:44:25.5      -8    -22     18     24     30 200.0  41.7  34020  287.20 0855.41
2009/04/23 07:44:25.6     -19    -20     20     28     34 223.4  37.6  34012  287.06 0855.41
2009/04/23 07:44:25.7     -11    -18     22     22     31 210.7  50.1  34004  286.94 0855.41
2009/04/23 07:44:25.8     -13    -23     20     27     33 210.7  41.7  34002  286.91 0855.41
2009/04/23 07:44:25.9      -1    -18     17     19     25 184.4  47.9  33994  286.78 0855.41
2009/04/23 07:44:26.0      -3    -14     15     15     21 195.1  50.1  33996  286.79 0855.41
2009/04/23 07:44:26.1      -3    -14     22     15     26 195.1  64.6  34000  286.88 0855.41
2009/04/23 07:44:26.2      -7     -8     19     11     21 219.6  66.8  34008  287.01 0855.41
2009/04/23 07:44:26.3      -5     -6     16      8     17 219.6  72.9  34014  287.11 0855.41
2009/04/23 07:44:26.4      -7     -3     13      8     15 244.7  64.7  34016  287.15 0855.41
2009/04/23 07:44:26.5      -6      2      6      7      9 288.2  52.0  34022  287.23 0855.41
2009/04/23 07:44:26.6      -7      3      7      8     10 295.3  47.9  34024  287.28 0855.41
2009/04/23 07:44:26.7       3      7     11      8     13  25.4  60.5  34028  287.33 0855.41
2009/04/23 07:44:26.8       5     10     13     12     17  29.0  48.2  34038  287.52 0855.41
2009/04/23 07:44:26.9      12      0     13     13     18  90.0  50.1  34044  287.62 0855.41
2009/04/23 07:44:27.0      10      3     17     11     20  71.6  62.6  34044  287.62 0855.41
2009/04/23 07:44:27.1       7     10     19     13     23  36.1  60.5  34048  287.69 0855.40
2009/04/23 07:44:27.2      11      7     13     14     19  57.6  52.0  34044  287.62 0855.40
2009/04/23 07:44:27.3       8      0     15      9     17  90.0  64.7  34042  287.59 0855.40
2009/04/23 07:44:27.4       4      0     10      5     11  90.0  72.9  34044  287.60 0855.40
2009/04/23 07:44:27.5      -1      6     13      7     14 350.3  64.7  34038  287.52 0855.40
2009/04/23 07:44:27.6       6      2     13      7     14  71.8  64.7  34042  287.57 0855.40
2009/04/23 07:44:27.7       5      1     18      6     19  71.6  81.0  34046  287.64 0855.40
2009/04/23 07:44:27.8       4      5     17      7     18  39.6  81.2  34042  287.57 0855.40
2009/04/23 07:44:27.9      10      2     16     11     19  74.9  64.6  34038  287.52 0855.40
2009/04/23 07:44:28.0      13      0     14     14     19  89.2  50.1  34038  287.52 0855.40
2009/04/23 07:44:28.1      14      2     15     15     21  78.5  50.1  34038  287.50 0855.40
2009/04/23 07:44:28.2      18      2     12     19     22  82.1  35.5  34036  287.47 0855.40
2009/04/23 07:44:28.3      26      0     12     27     29  90.0  23.0  34032  287.42 0855.40
2009/04/23 07:44:28.4      21      7      8     23     25  70.0  18.9  34034  287.45 0855.40
2009/04/23 07:44:28.5      20      7      0     22     23  71.4   0.8  34036  287.49 0855.40
2009/04/23 07:44:28.6      15      0     -2     16     17  90.0  -7.3  34030  287.38 0855.40
2009/04/23 07:44:28.7      11      0      0     12     13  90.0  -2.2  34036  287.47 0855.40
2009/04/23 07:44:28.8       8      3      0      9     10  68.3  -3.1  34036  287.49 0855.40
2009/04/23 07:44:28.9      10      1      0     11     12  82.1  -3.1  34030  287.37 0855.40
2009/04/23 07:44:29.0      13      3     -5     14     15  74.9 -19.7  34032  287.40 0855.40
2009/04/23 07:44:29.1      13      3     -5     14     15  74.9 -19.7  34036  287.47 0855.40
2009/04/23 07:44:29.2      16     11     -6     20     21  55.8 -17.6  34036  287.49 0855.40
2009/04/23 07:44:29.3      22      7     -8     24     26  71.6 -19.7  34048  287.69 0855.40
2009/04/23 07:44:29.4      30     20     -9     37     39  55.8 -14.5  34058  287.84 0855.40
2009/04/23 07:44:29.5      18     19     -1     27     28  43.4  -2.2  34064  287.94 0855.40
2009/04/23 07:44:29.6      29     10     -5     31     32  70.0  -9.3  34064  287.94 0855.40
2009/04/23 07:44:29.7      30     10    -10     32     33  71.6 -23.8  34062  287.91 0855.40
2009/04/23 07:44:29.8      36     13     -5     39     40  70.0  -8.2  34048  287.69 0855.40
2009/04/23 07:44:29.9      32      6     11     33     35  78.5  19.4  34044  287.62 0855.40
2009/04/23 07:44:30.0      34      0     22     35     41  90.0  35.5  34034  287.43 0855.40
2009/04/23 07:44:30.1      39     -4     24     40     46  97.0  34.4  34024  287.27 0855.40
2009/04/23 07:44:30.2      48    -12     20     50     53 104.2  22.0  34022  287.23 0855.40
2009/04/23 07:44:30.3      48     -6     16     49     52  97.9  18.4  34022  287.23 0855.40
2009/04/23 07:44:30.4      48      6     16     49     52  82.1  18.4  34020  287.21 0855.40
2009/04/23 07:44:30.5      54      6     26     55     60  83.0  27.2  34022  287.25 0855.40
2009/04/23 07:44:30.6      53      4     24     54     59  85.6  25.1  34024  287.27 0855.40
2009/04/23 07:44:30.7      53      4     15     54     57  85.7  15.3  34018  287.16 0855.40
2009/04/23 07:44:30.8      50      7     22     51     55  81.2  25.1  34036  287.47 0855.40
2009/04/23 07:44:30.9      41     20     22     46     51  63.8  27.2  34042  287.57 0855.40
2009/04/23 07:44:31.0      33     33     21     47     51  45.1  26.2  34042  287.59 0855.40
2009/04/23 07:44:31.1      40     37     26     55     60  46.9  27.2  34044  287.62 0855.39
2009/04/23 07:44:31.2      39     33     18     52     56  49.6  18.9  34054  287.77 0855.39
2009/04/23 07:44:31.3      37     34     18     51     55  47.8  19.4  34048  287.69 0855.39
2009/04/23 07:44:31.4      36     39      0     54     55  43.2  -0.3  34052  287.76 0855.39
2009/04/23 07:44:31.5      62     33     19     71     74  62.0  15.2  34074  288.13 0855.39
2009/04/23 07:44:31.6      72     31     30     79     84  66.5  21.0  34074  288.11 0855.39
2009/04/23 07:44:31.7      68     23     24     72     77  70.9  18.9  34078  288.18 0855.39
2009/04/23 07:44:31.8      54     39     25     67     71  54.0  21.0  34076  288.14 0855.39
2009/04/23 07:44:31.9      56     49      3     75     76  48.7   2.9  34078  288.18 0855.39
2009/04/23 07:44:32.0      49     38      6     63     64  52.2   5.9  34082  288.26 0855.39
2009/04/23 07:44:32.1      41     36     16     55     58  48.7  16.3  34090  288.40 0855.39
2009/04/23 07:44:32.2      35     39     22     53     57  41.4  23.0  34096  288.48 0855.39
2009/04/23 07:44:32.3      28     42     18     51     55  34.3  19.4  34094  288.47 0855.39
2009/04/23 07:44:32.4      44     40     16     60     63  47.8  15.3  34096  288.48 0855.39
2009/04/23 07:44:32.5      53     48     14     72     74  47.8  11.0  34098  288.53 0855.39
2009/04/23 07:44:32.6      52     43      8     68     69  50.5   6.9  34098  288.52 0855.39
2009/04/23 07:44:32.7      55     45      3     72     73  50.4   2.9  34088  288.35 0855.39
2009/04/23 07:44:32.8      57     43      4     72     73  53.1   3.8  34090  288.38 0855.39
2009/04/23 07:44:33.0      58     49     -1     77     78  49.6  -1.3  34088  288.35 0855.39
2009/04/23 07:44:33.0      47     51      3     70     71  43.2   2.8  34086  288.33 0855.39
2009/04/23 07:44:33.1      47     47      6     67     68  45.0   5.9  34088  288.35 0855.40
2009/04/23 07:44:33.2      47     44      3     65     66  46.9   2.9  34084  288.30 0855.40
2009/04/23 07:44:33.3      47     44      3     65     66  46.9   2.9  34084  288.30 0855.40
2009/04/23 07:44:33.4      45     30      2     55     56  55.8   2.8  34086  288.33 0855.40
2009/04/23 07:44:33.6      33     33     19     47     50  45.0  23.0  34084  288.28 0855.40
2009/04/23 07:44:33.6      35     32     28     48     55  47.8  34.4  34082  288.25 0855.40
2009/04/23 07:44:33.7      41     26     22     49     53  57.6  25.1  34082  288.26 0855.40
2009/04/23 07:44:33.8      33     11     26     35     43  71.6  40.7  34084  288.28 0855.40
2009/04/23 07:44:34.0      16     35     28     39     48  25.4  38.6  34084  288.30 0855.40
2009/04/23 07:44:34.0      25     28     22     38     43  41.4  32.4  34088  288.35 0855.40
2009/04/23 07:44:34.1      55     29     24     63     67  62.0  21.0  34102  288.60 0855.40
2009/04/23 07:44:34.2      63     21     23     67     72  70.9  19.4  34106  288.65 0855.40
2009/04/23 07:44:34.3      85     40     -2     95     96  64.8  -1.8  34100  288.55 0855.40
2009/04/23 07:44:34.4      83     30     10     89     90  70.0   6.5  34086  288.33 0855.40
2009/04/23 07:44:34.5      91     47     20    103    105  62.5  11.1  34050  287.72 0855.40
2009/04/23 07:44:34.7      89     42     16     99    101  64.8   9.5  34062  287.91 0855.40
2009/04/23 07:44:34.8      74     41     28     85     90  61.1  18.4  34070  288.04 0855.40
2009/04/23 07:44:34.9      64     30     42     71     82  64.6  33.5  34078  288.20 0855.40
2009/04/23 07:44:35.0      71     19     42     74     85  75.0  32.4  34084  288.30 0855.40
2009/04/23 07:44:35.1      73     12     48     75     89  80.3  35.5  34092  288.42 0855.40
2009/04/23 07:44:35.2      70     24     49     75     89  70.9  36.0  34102  288.58 0855.40
2009/04/23 07:44:35.3      61     31     34     69     76  62.9  27.3  34104  288.62 0855.40
2009/04/23 07:44:35.4      44     47     38     65     75  43.3  33.5  34094  288.45 0855.40
2009/04/23 07:44:35.5      38     53     36     66     75  35.2  31.4  34100  288.57 0855.40
2009/04/23 07:44:35.6      51     36     31     63     70  54.9  27.3  34090  288.38 0855.40
2009/04/23 07:44:35.7      46     36     33     59     67  52.2  31.4  34090  288.40 0855.40
2009/04/23 07:44:35.8      38     24     39     46     60  57.6  43.8  34092  288.42 0855.40
2009/04/23 07:44:35.9      28     38     41     48     63  37.0  44.8  34096  288.48 0855.40
2009/04/23 07:44:36.0      28     37     51     47     69  37.8  52.2  34086  288.33 0855.40
2009/04/23 07:44:36.1      24     35     44     43     61  34.3  50.1  34074  288.11 0855.40
2009/04/23 07:44:36.2      44     22     51     50     71  62.9  50.1  34052  287.76 0855.40
2009/04/23 07:44:36.3      53     43     40     69     79  50.5  32.9  34040  287.54 0855.40
2009/04/23 07:44:36.4      45     42     32     62     69  46.9  29.3  34042  287.57 0855.40
2009/04/23 07:44:36.5      54     49     40     73     83  47.8  30.8  34046  287.64 0855.40
2009/04/23 07:44:36.6      56     53     42     78     88  46.9  30.8  34044  287.60 0855.40
2009/04/23 07:44:36.7      52     52     44     74     86  45.0  34.0  34042  287.57 0855.40
2009/04/23 07:44:36.8      27     57     41     64     76  25.3  35.5  34056  287.81 0855.40
2009/04/23 07:44:36.9      20     67     47     71     85  16.9  36.5  34068  288.03 0855.40
2009/04/23 07:44:37.0      23     72     47     76     89  18.3  35.0  34058  287.86 0855.40
2009/04/23 07:44:37.1      18     72     38     75     84  14.3  28.7  34062  287.92 0855.40
2009/04/23 07:44:37.2       8     73     49     74     88   6.2  36.5  34058  287.84 0855.40
2009/04/23 07:44:37.3      11     72     48     73     87   8.9  36.0  34052  287.76 0855.40
2009/04/23 07:44:37.4      23     79     42     83     93  16.5  28.2  34052  287.76 0855.40
2009/04/23 07:44:37.5      46     83     23     95     98  29.0  13.7  34044  287.62 0855.40
2009/04/23 07:44:37.6      74     78      5    108    109  43.3   2.9  34032  287.40 0855.40
2009/04/23 07:44:37.7      63     74     18     98    100  40.1  10.6  34024  287.28 0855.40
2009/04/23 07:44:37.8      67     77      8    103    104  41.0   4.9  34026  287.30 0855.40
2009/04/23 07:44:37.9      58     84     12    103    104  34.7   7.1  34028  287.33 0855.40
2009/04/23 07:44:38.0      75     77     16    108    110  44.1   8.5  34048  287.69 0855.40
2009/04/23 07:44:38.1      79     48      7     93     94  58.5   4.4  34064  287.94 0855.40
2009/04/23 07:44:38.2      87     41     21     97    100  64.6  12.2  34074  288.13 0855.40
2009/04/23 07:44:38.3      81     39     24     91     95  64.2  14.7  34072  288.09 0855.40
2009/04/23 07:44:38.4      81     53     33     97    103  56.7  19.2  34052  287.76 0855.40
2009/04/23 07:44:38.5      79     59     19     99    101  53.1  11.1  34046  287.65 0855.40
2009/04/23 07:44:38.6      66     59      8     89     90  48.2   5.4  34056  287.81 0855.40
2009/04/23 07:44:38.7      72     59      0     94     95  50.5   0.2  34040  287.55 0855.40
2009/04/23 07:44:38.8      60     63     16     88     90  43.7  10.6  34046  287.64 0855.40
2009/04/23 07:44:38.9      47     61     35     78     85  37.8  25.7  34046  287.65 0855.40
2009/04/23 07:44:39.0      75     59     18     96     98  51.8  10.6  34036  287.49 0855.40
2009/04/23 07:44:39.1      67     67     36     95    101  45.1  21.5  34042  287.59 0855.40
2009/04/23 07:44:39.2      88     99     18    133    135  41.4   8.0  34048  287.69 0855.40
2009/04/23 07:44:39.3      90     90     37    128    134  45.1  16.3  34102  288.60 0855.40
2009/04/23 07:44:39.4      90     90     49    128    137  45.0  21.5  34106  288.65 0855.40
2009/04/23 07:44:39.5      71     71     67    101    121  45.0  37.0  34098  288.53 0855.40
2009/04/23 07:44:39.6      73     50     61     89    107  55.4  37.6  34104  288.64 0855.40
2009/04/23 07:44:39.7      75     34     60     83    102  65.6  39.7  34116  288.84 0855.40
2009/04/23 07:44:39.8     112     61     70    128    145  61.1  31.4  34070  288.06 0855.40
2009/04/23 07:44:39.9      91     51     37    105    112  60.7  19.4  34002  286.91 0855.40
2009/04/23 07:44:40.0      91     53     13    106    107  59.8   7.1  34004  286.94 0855.40
2009/04/23 07:44:40.1      79     52      7     95     96  56.7   4.4  33994  286.76 0855.40
2009/04/23 07:44:40.2      83     51     11     98     99  58.5   6.9  33990  286.69 0855.40
2009/04/23 07:44:40.3      89     73     15    116    117  50.5   7.5  33990  286.69 0855.40
2009/04/23 07:44:40.4      86     81     31    119    123  46.9  14.7  33992  286.73 0855.40
2009/04/23 07:44:40.5      97     78     30    125    129  51.4  13.7  33994  286.76 0855.40
2009/04/23 07:44:40.6     119     86     -9    147    148  54.1  -3.7  33992  286.73 0855.40
2009/04/23 07:44:40.7      88     88      7    125    126  45.0   3.3  33994  286.76 0855.40
2009/04/23 07:44:40.8      99     87     11    133    134  48.7   5.0  33990  286.71 0855.40
2009/04/23 07:44:40.9     121     88     12    150    151  54.1   4.9  33994  286.76 0855.40
2009/04/23 07:44:41.0     146     93      1    174    175  57.5   0.5  34020  287.21 0855.40
2009/04/23 07:44:41.1     121     75      9    143    144  58.0   3.8  34010  287.05 0855.40
2009/04/23 07:44:41.2     132     84     19    157    159  57.6   7.2  34028  287.33 0855.40
2009/04/23 07:44:41.3     148     58     55    160    170  68.5  19.2  34060  287.89 0855.40
2009/04/23 07:44:41.4     128     76     45    149    156  59.3  17.1  34074  288.11 0855.40
2009/04/23 07:44:41.5     148     53     57    158    167  70.1  20.4  34060  287.89 0855.40
2009/04/23 07:44:41.6     157     86     35    180    184  61.1  11.1  34096  288.48 0855.40
2009/04/23 07:44:41.7     157     82     39    178    183  62.2  12.4  34064  287.94 0855.40
2009/04/23 07:44:41.8     160     57     36    171    175  70.3  12.0  34046  287.65 0855.40
2009/04/23 07:44:41.9     143     48     38    151    156  71.4  14.3  34048  287.69 0855.40
2009/04/23 07:44:42.0     132     42     47    139    148  72.3  18.9  34092  288.43 0855.40
2009/04/23 07:44:42.1     141     47     53    149    158  71.4  20.4  34080  288.23 0855.40
2009/04/23 07:44:42.2     143     62     34    157    161  66.5  12.4  34004  286.93 0855.40
2009/04/23 07:44:42.3     135     63     23    150    152  64.8   9.0  33968  286.34 0855.40
2009/04/23 07:44:42.4     137     70     14    154    155  62.9   5.4  33968  286.32 0855.40
2009/04/23 07:44:42.5     144     63      2    158    159  66.5   0.8  33970  286.35 0855.40
2009/04/23 07:44:42.6     145     53     10    155    156  70.0   3.8  33968  286.32 0855.40
2009/04/23 07:44:42.7     144     63      2    158    159  66.5   0.8  33970  286.35 0855.40
2009/04/23 07:44:42.8     150     62      7    163    164  67.4   2.8  33972  286.41 0855.40
2009/04/23 07:44:42.9     151     48     -6    159    160  72.3  -2.2  33972  286.41 0855.40
2009/04/23 07:44:43.0     153     61    -22    165    167  68.0  -7.7  33972  286.41 0855.40
2009/04/23 07:44:43.1     168     58    -25    178    180  70.9  -8.2  33978  286.49 0855.40
2009/04/23 07:44:43.2     152     62    -15    165    166  67.6  -5.4  33996  286.79 0855.41
2009/04/23 07:44:43.3     157     52      0    166    167  71.6  -0.3  33984  286.59 0855.41
2009/04/23 07:44:43.4     143     57     -6    155    156  68.2  -2.2  33972  286.41 0855.41
2009/04/23 07:44:43.5     142     56     -6    153    154  68.3  -2.2  33972  286.41 0855.41
2009/04/23 07:44:43.6     145     58     -1    157    158  68.3  -0.7  33976  286.47 0855.41
2009/04/23 07:44:43.7     158     53     -6    167    168  71.4  -2.2  34000  286.86 0855.41
2009/04/23 07:44:43.8     140     32    -37    144    149  76.8 -14.5  34010  287.03 0855.41
2009/04/23 07:44:43.9     122     48     -9    132    133  68.3  -4.1  33992  286.74 0855.41
2009/04/23 07:44:44.0     120     36     -4    126    127  73.1  -2.2  33994  286.76 0855.41
2009/04/23 07:44:44.1     103     34     -4    109    110  71.8  -2.2  33992  286.73 0855.41
2009/04/23 07:44:44.2     113     53     -2    125    126  64.7  -1.2  33988  286.67 0855.41
2009/04/23 07:44:44.3      92     27     -5     96     97  73.6  -3.1  33994  286.78 0855.41
2009/04/23 07:44:44.4     109      9    -13    110    111  84.8  -7.2  33994  286.78 0855.41
2009/04/23 07:44:44.5     129      9    -25    130    133  85.6 -10.9  33994  286.78 0855.41
2009/04/23 07:44:44.6     125     22    -19    127    129  79.9  -8.8  33998  286.83 0855.41
2009/04/23 07:44:44.7     115     23    -23    118    121  78.5 -11.3  34010  287.03 0855.41
2009/04/23 07:44:44.8     113     18    -14    115    116  80.8  -7.3  34016  287.15 0855.41
2009/04/23 07:44:44.9     119      9    -19    120    122  85.6  -9.3  34026  287.30 0855.41
2009/04/23 07:44:45.0     120     39      1    127    128  71.8   0.8  33992  286.73 0855.41
2009/04/23 07:44:45.1     135     27      6    138    139  78.6   2.8  33990  286.71 0855.41
2009/04/23 07:44:45.2     144     48      7    153    154  71.4   2.9  33984  286.59 0855.40
2009/04/23 07:44:45.3     134     57      7    146    147  66.9   2.8  33990  286.69 0855.40
2009/04/23 07:44:45.4     134     44     12    142    143  71.8   5.0  33992  286.73 0855.40
2009/04/23 07:44:45.5     136     14      7    137    138  83.9   3.3  33998  286.83 0855.40
2009/04/23 07:44:45.6     131     46     16    140    142  70.5   6.9  34014  287.10 0855.40
2009/04/23 07:44:45.7     121     36     22    127    130  73.1  10.1  33996  286.79 0855.40
2009/04/23 07:44:45.8     125     45     36    134    139  70.0  15.3  33990  286.69 0855.40
2009/04/23 07:44:45.9     131     39     44    137    144  73.1  17.9  34010  287.05 0855.40
2009/04/23 07:44:46.0     123     45     45    132    140  70.0  18.9  34004  286.94 0855.40
2009/04/23 07:44:46.1     117     19     46    119    127  80.8  22.0  34000  286.86 0855.40
2009/04/23 07:44:46.2     108     22     39    111    118  78.6  19.4  34002  286.91 0855.40
2009/04/23 07:44:46.3     105     18     37    107    114  79.9  19.4  34008  287.00 0855.40
2009/04/23 07:44:46.4     118     13     38    119    126  83.4  17.9  34000  286.88 0855.40
2009/04/23 07:44:46.5     125     13     29    126    130  83.9  13.1  33998  286.83 0855.40
2009/04/23 07:44:46.6     127      8     40    128    135  86.1  17.4  33998  286.84 0855.40
2009/04/23 07:44:46.7     116      8     36    117    123  85.6  17.3  34002  286.89 0855.40
2009/04/23 07:44:46.8     105     12     38    106    112  83.4  20.0  34002  286.89 0855.40
2009/04/23 07:44:46.9     110    -17     34    112    118  99.2  16.8  34008  287.00 0855.40
2009/04/23 07:44:47.0     106    -34     21    112    115 108.2  11.0  34012  287.06 0855.40
2009/04/23 07:44:47.1     109    -26     21    113    115 103.7  10.6  34020  287.20 0855.40
2009/04/23 07:44:47.2     100    -25     27    104    108 104.2  14.7  34018  287.18 0855.40
2009/04/23 07:44:47.3      98    -13     30     99    104  98.0  16.8  34020  287.20 0855.40
2009/04/23 07:44:47.4      84     -9     30     85     91  96.6  19.4  34012  287.06 0855.40
2009/04/23 07:44:47.5      81     -6     30     82     87  94.8  20.4  34018  287.16 0855.40
2009/04/23 07:44:47.6      62    -26     25     68     72 112.6  20.0  34004  286.93 0855.40
2009/04/23 07:44:47.7      90     -4     21     91     94  93.0  13.2  34010  287.03 0855.40
2009/04/23 07:44:47.8     108    -21      6    111    112 101.4   3.3  34020  287.21 0855.40
2009/04/23 07:44:47.9     116     -7     15    117    118  93.5   7.5  34022  287.25 0855.40
2009/04/23 07:44:48.0     107    -19     11    109    110 100.1   5.9  33996  286.81 0855.40
2009/04/23 07:44:48.1      91    -27     44     96    105 106.8  26.6  33984  286.61 0855.40
2009/04/23 07:44:48.2      84    -31     46     90    101 110.8  29.3  33982  286.57 0855.40
2009/04/23 07:44:48.3      91    -30     41     97    105 108.6  24.1  33984  286.59 0855.40
2009/04/23 07:44:48.4      98    -41     36    107    114 113.1  18.9  33998  286.84 0855.40
2009/04/23 07:44:48.5      92    -43     33    102    108 115.4  17.9  34002  286.91 0855.40
2009/04/23 07:44:48.6      98    -34     43    104    112 109.5  23.1  34004  286.93 0855.40
2009/04/23 07:44:48.7      90    -30     29     96    101 108.6  16.8  34012  287.06 0855.40
2009/04/23 07:44:48.8      92    -41     37    101    107 114.0  20.4  34006  286.96 0855.40
2009/04/23 07:44:48.9      78    -31     41     85     94 111.7  27.3  33988  286.66 0855.40
2009/04/23 07:44:49.0      86    -34     40     93    101 111.7  24.6  33988  286.67 0855.40
2009/04/23 07:44:49.1      82    -37     50     91    103 114.4  31.4  33992  286.74 0855.40
2009/04/23 07:44:49.2      81    -51     62     96    114 122.4  35.6  33992  286.73 0855.40
2009/04/23 07:44:49.3      73    -29     56     79     96 111.7  38.6  33988  286.67 0855.40
2009/04/23 07:44:49.4      54    -34     54     64     83 122.4  45.4  33996  286.79 0855.40
2009/04/23 07:44:49.5      38    -36     51     53     73 133.1  50.0  33998  286.84 0855.40
2009/04/23 07:44:49.6      59    -43     64     74     97 125.9  45.8  34002  286.89 0855.40
2009/04/23 07:44:49.7      55    -50     61     75     96 132.2  43.7  34002  286.91 0855.40
2009/04/23 07:44:49.8      50    -41     62     65     89 129.5  49.0  34008  287.00 0855.40
2009/04/23 07:44:49.9      65    -36     60     75     96 118.9  43.3  34008  287.00 0855.40
2009/04/23 07:44:50.0      44    -38     57     59     82 131.3  49.4  34010  287.03 0855.40
2009/04/23 07:44:50.1      43    -43     56     61     82 135.0  47.9  34012  287.06 0855.40
2009/04/23 07:44:50.2      35    -48     56     60     82 143.9  48.5  34010  287.05 0855.40
2009/04/23 07:44:50.3      51    -61     48     80     93 140.4  34.4  34010  287.03 0855.40
2009/04/23 07:44:50.4      76    -73     20    106    108 134.0  11.0  34008  287.01 0855.40
2009/04/23 07:44:50.5      55    -69     25     89     93 141.3  15.8  34008  287.00 0855.40
2009/04/23 07:44:50.6      45    -40     30     61     67 131.3  27.3  34008  287.01 0855.40
2009/04/23 07:44:50.7      40    -37     46     55     71 133.1  43.8  34010  287.03 0855.40
2009/04/23 07:44:50.8      46    -46     51     66     83 135.0  41.7  34012  287.06 0855.40
2009/04/23 07:44:50.9      38    -52     44     65     78 143.9  36.5  34014  287.10 0855.40
2009/04/23 07:44:51.0      55    -71     60     91    109 142.2  36.0  34014  287.11 0855.40
2009/04/23 07:44:51.1      50    -79     55     94    108 147.5  32.9  34014  287.11 0855.40
2009/04/23 07:44:51.2      47    -71     49     86     98 146.6  31.9  34010  287.05 0855.40
2009/04/23 07:44:51.3      51    -54     35     75     82 136.8  26.6  34006  286.98 0855.40
2009/04/23 07:44:51.4      59    -64     25     88     92 137.2  16.3  34004  286.94 0855.40
2009/04/23 07:44:51.5      48    -75     40     90     98 147.4  25.7  34004  286.93 0855.40
2009/04/23 07:44:51.6      52    -80     34     96    101 146.6  20.0  34002  286.89 0855.40
2009/04/23 07:44:51.7      59    -74     22     95     98 141.3  13.2  34004  286.93 0855.40
2009/04/23 07:44:51.8      53    -75     44     92    101 144.8  27.2  34006  286.98 0855.40
2009/04/23 07:44:51.9      51    -68     49     86     98 143.0  31.9  34008  287.00 0855.40
2009/04/23 07:44:52.0      27    -84     51     89    102 161.7  32.4  34016  287.15 0855.40
2009/04/23 07:44:52.1      21   -102     59    105    120 168.4  31.9  34018  287.18 0855.40
2009/04/23 07:44:52.2      19   -107     53    109    121 169.8  27.8  34014  287.10 0855.40
2009/04/23 07:44:52.4      12   -103     46    104    113 172.9  25.7  34012  287.06 0855.40
2009/04/23 07:44:52.4       7   -101     27    102    106 175.5  15.3  34006  286.96 0855.40
2009/04/23 07:44:52.5       9    -97     33     98    104 174.2  18.9  34008  287.00 0855.40
2009/04/23 07:44:52.6       8   -107     49    108    118 175.6  25.7  34000  286.88 0855.40
2009/04/23 07:44:52.7      -8   -109     44    110    118 184.5  23.0  34006  286.98 0855.40
2009/04/23 07:44:52.8      -1   -129     49    130    138 180.8  21.5  33998  286.83 0855.40
2009/04/23 07:44:52.9      19   -133     60    135    147 171.5  25.2  33982  286.57 0855.40
2009/04/23 07:44:53.0      15   -138     43    139    146 173.8  17.4  33996  286.81 0855.40
2009/04/23 07:44:53.1      10   -138     43    139    146 175.6  17.4  33982  286.56 0855.40
2009/04/23 07:44:53.2      12   -134     46    135    143 174.7  18.9  33974  286.44 0855.40
2009/04/23 07:44:53.3      15   -132     55    133    143 173.3  23.1  33970  286.37 0855.40
2009/04/23 07:44:53.4      10   -128     51    129    138 175.1  23.0  33974  286.42 0855.40
2009/04/23 07:44:53.5      16   -134     57    136    147 172.9  23.6  33976  286.46 0855.40
2009/04/23 07:44:53.6      10   -132     52    133    142 175.5  22.5  34008  287.01 0855.40
2009/04/23 07:44:53.7       6   -128     40    129    136 177.3  17.4  34014  287.10 0855.40
2009/04/23 07:44:53.8      -6   -129     47    130    138 182.7  20.9  34018  287.18 0855.40
2009/04/23 07:44:53.9      -8   -125     51    126    135 184.0  23.0  34022  287.23 0855.40
2009/04/23 07:44:54.0      -5   -122     46    123    131 182.7  21.0  34018  287.16 0855.40
2009/04/23 07:44:54.1     -15   -124     34    125    130 187.1  15.2  34002  286.89 0855.40
2009/04/23 07:44:54.2      -9   -121     28    122    126 184.5  13.2  33992  286.74 0855.40
2009/04/23 07:44:54.3       0   -110     13    111    112 180.0   6.9  33994  286.78 0855.40
2009/04/23 07:44:54.4       0    -98     -9     99    100 180.4  -5.2  33996  286.79 0855.40
2009/04/23 07:44:54.5       0   -112      0    113    114 180.5   0.2  33998  286.83 0855.40
2009/04/23 07:44:54.6     -13   -112     22    113    116 187.1  11.1  33998  286.83 0855.40
2009/04/23 07:44:54.7     -31   -132     26    136    139 193.4  11.1  34000  286.86 0855.40
2009/04/23 07:44:54.8     -32   -139     22    143    145 193.3   9.0  34004  286.94 0855.40
2009/04/23 07:44:54.9     -11   -145     28    146    149 184.4  11.1  33992  286.74 0855.40
2009/04/23 07:44:55.0     -11   -151     19    152    154 184.5   7.1  33998  286.83 0855.40
2009/04/23 07:44:55.1     -26   -132      1    135    136 191.5   0.8  34004  286.94 0855.40
2009/04/23 07:44:55.2     -24   -134     21    137    139 190.2   9.0  34002  286.91 0855.40
2009/04/23 07:44:55.3      -9   -118     35    119    125 184.4  16.3  33986  286.62 0855.40
2009/04/23 07:44:55.5     -13   -123     24    124    127 186.2  11.1  33990  286.71 0855.40
2009/04/23 07:44:55.5      -6   -112     18    113    115 183.1   9.5  34000  286.86 0855.40
2009/04/23 07:44:55.6     -10   -100      0    101    102 186.2   0.2  34002  286.89 0855.40
2009/04/23 07:44:55.7     -31    -94    -27    100    104 198.3 -15.5  34022  287.23 0855.40
2009/04/23 07:44:55.8     -50   -143      7    152    153 199.6   2.9  34004  286.94 0855.40
2009/04/23 07:44:56.0     -46   -128     32    137    141 200.0  13.2  33996  286.79 0855.40
2009/04/23 07:44:56.0     -29   -120     29    124    128 193.8  13.2  33994  286.78 0855.40
2009/04/23 07:44:56.1     -20   -130     47    132    140 188.9  20.0  33980  286.54 0855.40
2009/04/23 07:44:56.2       0   -124     40    125    132 180.0  17.9  33982  286.56 0855.40
2009/04/23 07:44:56.3       2   -136     26    137    140 179.1  11.1  33980  286.54 0855.40
2009/04/23 07:44:56.4      -5   -151     32    152    156 182.2  12.0  33980  286.54 0855.40
2009/04/23 07:44:56.5       1   -121     55    122    133 179.5  25.7  33980  286.54 0855.40
2009/04/23 07:44:56.6     -11    -98     69     99    120 186.7  38.6  33980  286.54 0855.40
2009/04/23 07:44:56.7     -32   -111     69    116    134 196.5  33.5  33978  286.49 0855.40
2009/04/23 07:44:56.8     -34   -102     49    108    118 198.7  25.7  33978  286.51 0855.40
2009/04/23 07:44:56.9     -40    -95     59    104    119 203.2  31.9  33978  286.49 0855.40
2009/04/23 07:44:57.0     -57   -103     59    118    131 208.9  28.2  33978  286.49 0855.40
2009/04/23 07:44:57.1     -69    -95     47    118    127 216.1  22.5  33976  286.47 0855.40
2009/04/23 07:44:57.2    -100    -90     19    135    137 227.8   8.0  33992  286.74 0855.40
2009/04/23 07:44:57.3     -95    -76     12    122    123 231.4   5.9  33990  286.69 0855.40
2009/04/23 07:44:57.4     -64    -77     35    101    108 219.7  19.2  33984  286.61 0855.40
2009/04/23 07:44:57.5     -63    -76     23     99    102 219.6  13.2  33984  286.59 0855.40
2009/04/23 07:44:57.6     -47    -74     30     89     95 212.6  18.9  33982  286.56 0855.40
2009/04/23 07:44:57.7     -48    -78     35     92     98 211.6  22.0  33978  286.51 0855.40
2009/04/23 07:44:57.8     -36    -87     51     95    107 202.7  30.3  33978  286.49 0855.40
2009/04/23 07:44:57.9     -40    -68     54     80     96 210.7  37.0  33978  286.49 0855.40
2009/04/23 07:44:58.0     -45    -71     43     85     95 212.5  28.7  33976  286.47 0855.40
2009/04/23 07:44:58.1     -38    -87     33     96    102 203.6  18.9  33976  286.46 0855.40
2009/04/23 07:44:58.2     -33    -78     21     85     88 203.2  14.3  33974  286.42 0855.40
2009/04/23 07:44:58.3     -17    -54     22     57     61 197.8  22.0  33972  286.41 0855.40
2009/04/23 07:44:58.4      -7    -54     31     55     63 188.0  31.4  33972  286.41 0855.40
2009/04/23 07:44:58.5     -10    -54     44     55     70 190.7  43.7  33972  286.41 0855.40
2009/04/23 07:44:58.6     -10    -43     69     45     82 193.4  63.6  33974  286.42 0855.40
2009/04/23 07:44:58.7      -8     -8     66     12     67 223.2  90.0  33976  286.46 0855.40
2009/04/23 07:44:58.8       9      0     47     10     48  89.2  89.0  33978  286.49 0855.40
2009/04/23 07:44:58.9       0    -25     49     26     55 180.9  69.8  33974  286.44 0855.40
2009/04/23 07:44:59.0      -3    -53     71     54     89 183.6  59.0  33970  286.37 0855.40
2009/04/23 07:44:59.1     -35    -64     64     74     97 209.0  45.8  33974  286.42 0855.40
2009/04/23 07:44:59.2       5    -65     56     66     86 175.5  45.4  33976  286.47 0855.40
2009/04/23 07:44:59.3      13    -78     11     80     81 170.2   8.0  33972  286.41 0855.40
2009/04/23 07:44:59.4       0    -76     19     77     80 180.0  14.3  33974  286.42 0855.40
2009/04/23 07:44:59.5       5    -68     23     69     74 175.6  18.9  33974  286.42 0855.40
2009/04/23 07:44:59.6       8    -71     36     72     80 172.9  28.7  33972  286.39 0855.40
2009/04/23 07:44:59.7       6    -70     48     71     85 174.7  37.0  33972  286.41 0855.40
2009/04/23 07:44:59.8       4    -70     50     71     86 176.4  38.6  33974  286.44 0855.40
2009/04/23 07:44:59.9      -8    -63     51     64     81 188.0  42.7  33974  286.42 0855.40
2009/04/23 07:45:00.0      -7    -83     45     84     95 185.3  30.3  33974  286.42 0855.40
2009/04/23 07:45:00.1      -6    -98     41     99    107 183.6  23.1  33974  286.42 0855.40
2009/04/23 07:45:00.2     -14    -94     24     96    100 188.5  14.3  33972  286.41 0855.40
2009/04/23 07:45:00.3      -3   -108      5    109    110 181.8   2.9  33972  286.41 0855.40
2009/04/23 07:45:00.4       0    -99    -18    100    102 180.0 -10.3  33972  286.41 0855.40
2009/04/23 07:45:00.6      -1   -106     -4    107    108 180.9  -2.2  33970  286.35 0855.40
2009/04/23 07:45:00.7       7    -83    -13     84     86 175.1  -9.3  33968  286.32 0855.40
2009/04/23 07:45:00.7      20    -90    -11     93     94 167.5  -7.2  33972  286.39 0855.40
2009/04/23 07:45:00.9       7    -97    -12     98     99 175.5  -7.2  33970  286.37 0855.40
2009/04/23 07:45:00.9      -3   -113    -14    114    115 181.8  -7.2  33966  286.30 0855.40
2009/04/23 07:45:01.1       1    -99      1    100    101 179.1   0.8  33968  286.34 0855.40
2009/04/23 07:45:01.2       0    -96      2     97     98 180.5   1.2  33966  286.29 0855.40
2009/04/23 07:45:01.3      -1    -89      0     90     91 180.9   0.2  33966  286.30 0855.40
2009/04/23 07:45:01.4      -9    -78     -5     79     80 187.1  -4.1  33964  286.25 0855.40
2009/04/23 07:45:01.5       4    -62      7     63     64 175.6   6.9  33966  286.30 0855.40
2009/04/23 07:45:01.6      20    -65      3     69     70 163.1   2.9  33964  286.27 0855.40
2009/04/23 07:45:01.7      11    -54     -2     56     57 168.5  -2.2  33964  286.27 0855.40
2009/04/23 07:45:01.8      19    -49     -7     53     54 158.2  -8.2  33964  286.27 0855.40
2009/04/23 07:45:01.9      17    -53      2     56     57 161.3   2.8  33962  286.24 0855.40
2009/04/23 07:45:02.0      12    -47     19     49     52 164.9  22.0  33968  286.32 0855.40
2009/04/23 07:45:02.1       7    -55     28     56     62 172.0  28.2  33968  286.32 0855.40
2009/04/23 07:45:02.3      -4    -52      7     53     54 184.4   8.0  33968  286.34 0855.40
2009/04/23 07:45:02.4       1    -40      8     41     42 178.2  11.1  33966  286.29 0855.40
2009/04/23 07:45:02.5       9    -36      0     38     39 164.9   0.8  33968  286.32 0855.40
2009/04/23 07:45:02.6       8    -35      1     37     38 166.6   2.8  33966  286.30 0855.40
2009/04/23 07:45:02.7       9    -36      0     38     39 164.9   0.8  33968  286.32 0855.40
2009/04/23 07:45:02.8       9    -29     -5     31     32 163.1  -9.3  33970  286.35 0855.40
2009/04/23 07:45:02.9       6    -30     -1     31     32 168.5  -2.2  33966  286.30 0855.40
2009/04/23 07:45:03.0      22    -39      7     45     46 150.1   9.0  33968  286.34 0855.40
2009/04/23 07:45:03.1      24    -36      9     44     46 145.7  12.2  33970  286.37 0855.40
2009/04/23 07:45:03.2      27    -40     13     49     51 145.7  15.3  33972  286.41 0855.40
2009/04/23 07:45:03.3      47    -44     21     65     69 133.1  18.4  33972  286.39 0855.40
2009/04/23 07:45:03.4      52    -50     25     73     78 134.0  19.4  33970  286.37 0855.40
2009/04/23 07:45:03.5      47    -44     21     65     69 133.1  18.4  33972  286.39 0855.40
2009/04/23 07:45:03.6      69    -33     27     77     81 115.4  20.0  33974  286.42 0855.40
2009/04/23 07:45:03.7      71    -33     27     79     84 115.4  19.2  33972  286.39 0855.40
2009/04/23 07:45:03.8      68    -43     35     81     88 122.4  25.1  33972  286.41 0855.40
2009/04/23 07:45:03.9      63    -40     43     75     86 122.5  32.9  33970  286.35 0855.40
2009/04/23 07:45:04.0      50    -41     48     65     80 129.5  40.1  33970  286.35 0855.40
2009/04/23 07:45:04.1      57    -41     53     71     88 125.9  40.7  33972  286.41 0855.40
2009/04/23 07:45:04.2      34    -54     61     65     89 147.5  48.5  33972  286.41 0855.40
2009/04/23 07:45:04.3      31    -48     49     58     75 147.5  43.8  33970  286.37 0855.40
2009/04/23 07:45:04.4      32    -15     44     36     56 115.3  56.4  33972  286.41 0855.40
2009/04/23 07:45:04.5      -4     15     49     16     51 344.9  80.7  33972  286.41 0855.40
2009/04/23 07:45:04.6     -17     -9     46     20     50 241.1  74.0  33974  286.42 0855.40
2009/04/23 07:45:04.7     -15     12     32     20     37 307.8  64.7  33974  286.44 0855.40
2009/04/23 07:45:04.8     -13     21     33     26     42 327.5  57.5  33974  286.42 0855.40
2009/04/23 07:45:04.9      -5     17     25     18     30 341.7  60.5  33974  286.44 0855.40
2009/04/23 07:45:05.0      -8     13     24     16     28 327.5  64.6  33974  286.42 0855.40
2009/04/23 07:45:05.1     -11     41     49     43     65 344.9  53.3  33972  286.41 0855.40
2009/04/23 07:45:05.2     -24    -29     44     38     58 219.6  54.3  33972  286.39 0855.40
2009/04/23 07:45:05.3      13    -21     32     26     41 147.5  56.4  33970  286.35 0855.40
2009/04/23 07:45:05.4       2      3      9      4      9  32.5  81.2  33968  286.34 0855.40
2009/04/23 07:45:05.5      -8      6     24     11     26 309.5  75.0  33968  286.32 0855.40
2009/04/23 07:45:05.6      -9     19     41     22     46 334.6  69.8  33970  286.37 0855.40
2009/04/23 07:45:05.7      -8     -5     31     10     32 237.6  80.7  33972  286.39 0855.40
2009/04/23 07:45:05.8      -1    -15     48     16     50 184.5  81.0  33972  286.39 0855.40
2009/04/23 07:45:05.9     -40    -59     95     72    119 214.3  59.0  33970  286.37 0855.40
2009/04/23 07:45:06.0     -50    -69     58     86    103 216.1  37.0  33968  286.34 0855.40
2009/04/23 07:45:06.1     -75    -64     49     99    110 229.6  27.8  33970  286.35 0855.40
2009/04/23 07:45:06.2     -38    -72     21     82     85 208.1  14.7  33966  286.30 0855.40
2009/04/23 07:45:06.3     -14    -71      3     73     74 191.5   2.8  33970  286.35 0855.40
2009/04/23 07:45:06.4     -30    -63     42     70     81 205.5  34.0  33968  286.32 0855.40
2009/04/23 07:45:06.5      -2   -129     57    130    141 180.9  25.1  33966  286.29 0855.40
2009/04/23 07:45:06.6     -12   -155     16    156    157 184.5   6.1  33968  286.32 0855.40
2009/04/23 07:45:06.7     -13   -170     46    171    178 184.5  15.2  33968  286.32 0855.40
2009/04/23 07:45:06.8     -27   -161     45    164    171 189.6  15.3  33968  286.32 0855.40
2009/04/23 07:45:06.9     -57   -148     41    159    165 201.2  14.7  33968  286.32 0855.40
2009/04/23 07:45:07.0     -73   -170     62    186    197 203.4  18.4  33970  286.35 0855.40
2009/04/23 07:45:07.1     -75   -111     48    135    143 214.2  20.0  33968  286.34 0855.40
2009/04/23 07:45:07.2     -53   -113     76    125    146 205.3  34.4  33968  286.32 0855.40
2009/04/23 07:45:07.3     -12   -108     59    109    123 186.7  31.3  33968  286.32 0855.40
2009/04/23 07:45:07.4      17    -91     54     93    107 169.3  32.9  33968  286.32 0855.40
2009/04/23 07:45:07.5      23   -112     42    115    122 168.4  20.9  33968  286.32 0855.40
2009/04/23 07:45:07.6      26    -45     60     53     80 150.1  54.3  33964  286.25 0855.40
2009/04/23 07:45:07.7      14    -39     58     42     71 160.0  60.5  33962  286.24 0855.40
2009/04/23 07:45:07.8      28    -35     93     46    103 141.3  72.4  33962  286.24 0855.40
2009/04/23 07:45:07.9      10     -3     72     11     72 108.4  90.0  33962  286.24 0855.40
2009/04/23 07:45:08.0     -16    -16     92     24     95 225.0  85.4  33964  286.27 0855.40
2009/04/23 07:45:08.1      23     15     95     28     99  57.5  83.3  33968  286.32 0855.40
2009/04/23 07:45:08.2       1    -76    104     77    129 179.0  60.0  33968  286.32 0855.40
2009/04/23 07:45:08.3       6    -88     95     89    130 175.5  52.1  33968  286.32 0855.40
2009/04/23 07:45:08.4      43   -111     92    120    151 158.6  41.7  33966  286.29 0855.40
2009/04/23 07:45:08.5      53   -104     86    118    146 152.8  39.7  33968  286.32 0855.40
2009/04/23 07:45:08.6      69    -95    113    118    163 144.0  49.0  33968  286.34 0855.40
2009/04/23 07:45:08.7      85    -88    102    123    159 135.9  44.1  33968  286.32 0855.40
2009/04/23 07:45:08.8      83    -95     99    127    161 139.0  42.0  33966  286.29 0855.40
2009/04/23 07:45:08.9     130    -88    105    158    189 124.2  36.5  33968  286.34 0855.40
2009/04/23 07:45:09.0     129   -129    124    183    221 135.0  37.4  33968  286.32 0855.40
2009/04/23 07:45:09.1     120   -193    121    228    258 148.1  30.3  33968  286.33 0855.40
2009/04/23 07:45:09.2     133   -188    127    231    263 144.6  31.4  33970  286.35 0855.40
2009/04/23 07:45:09.3      84   -171    108    191    219 153.9  31.6  33970  286.37 0855.40
2009/04/23 07:45:09.4      77   -174    140    191    236 156.2  39.7  33962  286.24 0855.40
2009/04/23 07:45:09.5     131   -142    142    194    240 137.2  39.9  33968  286.32 0855.40
2009/04/23 07:45:09.6     152   -123     95    196    217 129.1  27.4  33966  286.30 0855.40
2009/04/23 07:45:09.7     169    -85     37    190    194 116.9  11.1  33968  286.34 0855.40
2009/04/23 07:45:09.8     117    -68     39    136    142 120.2  16.3  33970  286.35 0855.40
2009/04/23 07:45:09.9      74    -86      5    114    115 139.5   2.9  33968  286.32 0855.40
2009/04/23 07:45:10.0      66    -76    -12    101    102 139.0  -7.2  33966  286.30 0855.40
2009/04/23 07:45:10.1      56    -53    -20     78     81 133.1 -14.5  33970  286.37 0855.40
2009/04/23 07:45:10.2      19    -59    -60     63     87 161.7 -53.4  33964  286.27 0855.40
2009/04/23 07:45:10.3       9    -67    -36     68     76 171.9 -34.7  33968  286.34 0855.40
2009/04/23 07:45:10.4      32    -55    -17     64     67 149.3 -15.4  33966  286.29 0855.40
2009/04/23 07:45:10.5      37    -32     20     50     53 131.3  22.0  33966  286.30 0855.40
2009/04/23 07:45:10.6      27    -17     40     32     51 122.4  56.4  33970  286.35 0855.40
2009/04/23 07:45:10.7       9    -12     49     16     51 143.9  80.7  33970  286.37 0855.40
2009/04/23 07:45:10.8      -8      9     43     13     44 316.6  81.8  33970  286.37 0855.40
2009/04/23 07:45:10.9     -16     13     21     22     30 309.5  50.0  33968  286.34 0855.40
2009/04/23 07:45:11.0     -12     -8     32     15     35 237.6  72.9  33970  286.37 0855.40
2009/04/23 07:45:11.1     -23     -7     37     25     44 251.4  63.6  33970  286.37 0855.40
2009/04/23 07:45:11.2     -16      2     38     17     41 277.9  75.0  33970  286.37 0855.40
2009/04/23 07:45:11.3       5     -4     32      7     32 129.5  89.0  33970  286.37 0855.39
2009/04/23 07:45:11.4      29    -20     28     36     45 124.2  41.7  33970  286.35 0855.39
2009/04/23 07:45:11.5      59    -32     40     68     78 118.8  33.5  33968  286.34 0855.39
2009/04/23 07:45:11.6      45    -25     24     52     57 119.8  27.1  33968  286.32 0855.39
2009/04/23 07:45:11.7      -2    -70     60     71     92 181.8  44.3  33968  286.32 0855.39
2009/04/23 07:45:11.8      -9    -48     61     49     78 190.7  56.4  33966  286.29 0855.39
2009/04/23 07:45:11.9      30     20     30     37     47  55.8  43.7  33970  286.37 0855.39
2009/04/23 07:45:12.0     -22    -25     44     34     55 221.4  57.5  33964  286.27 0855.39
2009/04/23 07:45:12.1       1    -72     49     73     87 179.1  37.0  33964  286.27 0855.39
2009/04/23 07:45:12.2     -38    -59     89     71    113 212.6  56.9  33966  286.30 0855.39
2009/04/23 07:45:12.3      19    -11     79     23     82 120.7  83.3  33962  286.24 0855.39
2009/04/23 07:45:12.4     -15    -49     49     52     71 196.9  48.0  33966  286.30 0855.39
2009/04/23 07:45:12.5     -25    -74     36     79     86 198.7  25.7  33966  286.29 0855.39
2009/04/23 07:45:12.6     -47    -76     21     90     93 212.1  13.7  33968  286.32 0855.39
2009/04/23 07:45:12.7     -65    -96     63    117    132 214.3  31.3  33964  286.25 0855.39
2009/04/23 07:45:12.8     -33    -53      7     63     64 212.5   7.1  33964  286.27 0855.39
2009/04/23 07:45:12.9     -61    -47    -51     78     93 232.2 -40.4  33966  286.30 0855.39
2009/04/23 07:45:13.0     -28    -44    -34     53     62 212.5 -39.9  33966  286.29 0855.39
2009/04/23 07:45:13.1     -35    -74    -39     82     90 205.4 -31.6  33966  286.29 0855.39
2009/04/23 07:45:13.2     -61    -47    -51     78     93 232.2 -40.4  33966  286.30 0855.39
2009/04/23 07:45:13.3     -65    -26    -45     71     84 248.2 -39.9  33966  286.29 0855.40
2009/04/23 07:45:13.4     -32    -17    -42     37     55 241.1 -58.7  33964  286.25 0855.40
2009/04/23 07:45:13.5       6    -10    -53     13     54 147.5 -90.0  33966  286.29 0855.40
2009/04/23 07:45:13.6      31    -31    -35     44     56 135.0 -48.1  33962  286.24 0855.40
2009/04/23 07:45:13.7      14    -71     -9     73     74 168.4  -7.2  33964  286.27 0855.40
2009/04/23 07:45:13.8      13    -79    -40     81     90 170.2 -32.2  33962  286.24 0855.40
2009/04/23 07:45:13.9       0    -87    -14     88     90 179.5  -9.3  33964  286.27 0855.40
2009/04/23 07:45:14.0      32    -77    -11     84     85 157.3  -7.7  33964  286.25 0855.40
2009/04/23 07:45:14.1      23    -70     -1     74     75 161.3  -1.2  33964  286.27 0855.40
2009/04/23 07:45:14.2      34    -58     13     68     70 149.3  11.0  33966  286.30 0855.40
2009/04/23 07:45:14.3      41    -64     12     77     78 147.4   9.0  33964  286.25 0855.40
2009/04/23 07:45:14.4      36    -45     -1     58     59 141.3  -1.3  33964  286.27 0855.40
2009/04/23 07:45:14.5      35    -43    -12     56     58 141.3 -12.4  33964  286.25 0855.40
2009/04/23 07:45:14.6      36    -57    -11     68     69 147.4  -9.3  33966  286.29 0855.40
2009/04/23 07:45:14.7      28    -57     -8     64     65 153.7  -7.2  33966  286.30 0855.40
2009/04/23 07:45:14.8      37    -65     -9     75     76 150.1  -7.3  33966  286.29 0855.40
2009/04/23 07:45:14.9      54    -85      9    102    103 147.4   5.4  33962  286.24 0855.40
2009/04/23 07:45:15.0      99    -88     13    133    134 131.4   5.9  33962  286.24 0855.40
2009/04/23 07:45:15.1      83    -64     13    106    107 127.8   7.1  33966  286.29 0855.40
2009/04/23 07:45:15.2      95    -65     -2    116    117 124.2  -1.3  33964  286.27 0855.40
2009/04/23 07:45:15.3     108    -93     39    143    149 130.9  15.3  33966  286.29 0855.39
2009/04/23 07:45:15.4      34   -105     62    111    127 161.7  31.4  33962  286.24 0855.39
2009/04/23 07:45:15.5      56    -83     48    101    111 145.7  27.2  33966  286.29 0855.39
2009/04/23 07:45:15.6      80    -75     43    110    118 133.2  22.5  33966  286.30 0855.39
2009/04/23 07:45:15.7      97    -81     59    127    140 129.6  27.1  33968  286.32 0855.39
2009/04/23 07:45:15.8      56    -83     74    101    125 145.7  39.7  33966  286.29 0855.39
2009/04/23 07:45:15.9      33   -131     93    136    164 165.7  37.6  33964  286.27 0855.39
2009/04/23 07:45:16.0      71    -86    116    112    161 140.3  50.9  33968  286.32 0855.39
2009/04/23 07:45:16.1      53   -198    113    206    234 164.8  31.0  33968  286.32 0855.39
2009/04/23 07:45:16.2      58   -154    126    165    207 159.3  41.4  33964  286.25 0855.39
2009/04/23 07:45:16.3      95   -222    110    242    265 156.8  26.2  33966  286.28 0855.39
2009/04/23 07:45:16.4     153   -274    112    314    333 150.8  20.6  33970  286.35 0855.39
2009/04/23 07:45:16.5     129   -232    116    266    290 151.0  25.1  33970  286.35 0855.39
2009/04/23 07:45:16.6     113   -233    145    259    296 154.1  31.4  33966  286.28 0855.39
2009/04/23 07:45:16.7     132   -247      8    281    282 151.9   1.8  33960  286.20 0855.39
2009/04/23 07:45:16.8     147   -177     10    231    232 140.4   2.5  33964  286.25 0855.39
2009/04/23 07:45:16.9     181   -187     87    261    276 135.9  18.6  33970  286.35 0855.39
2009/04/23 07:45:17.0     128   -143     83    193    210 138.1  25.1  33970  286.35 0855.39
2009/04/23 07:45:17.1     101   -152     90    183    203 146.2  28.2  33968  286.32 0855.39
2009/04/23 07:45:17.2      60   -149    100    161    189 158.1  35.2  33970  286.37 0855.39
2009/04/23 07:45:17.3      84   -125     88    151    174 146.2  33.1  33966  286.30 0855.39
2009/04/23 07:45:17.4      27   -138     56    141    151 168.9  23.0  33964  286.27 0855.39
2009/04/23 07:45:17.5      60   -147     53    159    168 157.7  18.6  33968  286.32 0855.39
2009/04/23 07:45:17.6      14   -137     75    138    157 173.8  30.6  33966  286.29 0855.39
2009/04/23 07:45:17.7      35   -123     71    129    147 164.0  31.3  33966  286.29 0855.39
2009/04/23 07:45:17.8      70   -126     74    145    162 151.0  29.1  33966  286.30 0855.39
2009/04/23 07:45:17.9      59   -120     50    134    143 153.7  21.0  33964  286.27 0855.39
2009/04/23 07:45:18.0      35   -106     46    112    121 161.3  23.6  33964  286.27 0855.39
2009/04/23 07:45:18.1      31   -116     41    121    128 164.9  18.9  33964  286.27 0855.39
2009/04/23 07:45:18.2      49   -139     66    148    162 160.4  25.7  33966  286.30 0855.39
2009/04/23 07:45:18.3      46   -164     94    171    195 164.2  31.4  33966  286.29 0855.39
2009/04/23 07:45:18.4      50   -112    108    123    163 155.9  46.2  33968  286.32 0855.39
2009/04/23 07:45:18.5      34   -128     90    133    160 164.9  37.3  33966  286.30 0855.39
2009/04/23 07:45:18.6      44   -122     64    130    144 159.9  28.2  33968  286.32 0855.39
2009/04/23 07:45:18.7      54    -85     34    101    107 147.5  18.9  33964  286.27 0855.39
2009/04/23 07:45:18.8      81    -69     14    107    108 130.4   7.5  33966  286.29 0855.39
2009/04/23 07:45:18.9      78    -73     29    107    111 133.1  15.3  33964  286.27 0855.39
2009/04/23 07:45:19.0     111    -86    -12    141    142 127.8  -5.1  33966  286.29 0855.39
2009/04/23 07:45:19.1     102    -89     21    136    138 131.3   9.0  33968  286.32 0855.39
2009/04/23 07:45:19.2     120    -60      6    135    136 116.6   2.8  33966  286.29 0855.39
2009/04/23 07:45:19.3      63    -76     16     99    101 140.3   9.5  33966  286.30 0855.38
2009/04/23 07:45:19.4       7    -90     31     91     97 175.1  18.9  33968  286.32 0855.38
2009/04/23 07:45:19.5      18    -86     38     88     95 168.0  25.1  33968  286.32 0855.38
2009/04/23 07:45:19.6      13   -102     40    103    110 172.4  22.5  33970  286.35 0855.38
2009/04/23 07:45:19.7      22   -110     56    113    126 168.4  28.2  33968  286.32 0855.38
2009/04/23 07:45:19.8      29   -122     75    126    146 166.6  33.5  33962  286.24 0855.38
2009/04/23 07:45:19.9      85   -118     87    146    169 144.4  33.7  33968  286.32 0855.38
2009/04/23 07:45:20.0      56    -38    117     68    135 124.2  66.8  33970  286.35 0855.38
2009/04/23 07:45:20.1      24    -29     85     38     93 140.3  74.5  33974  286.42 0855.38
2009/04/23 07:45:20.2      46    -22     82     52     97 116.2  64.7  33968  286.34 0855.38
2009/04/23 07:45:20.3     131    -19     93    133    162  98.4  38.4  33968  286.34 0855.38
2009/04/23 07:45:20.4     122    -40     99    129    162 108.2  41.4  33964  286.27 0855.38
2009/04/23 07:45:20.5     107    -28     90    111    142 105.0  43.7  33968  286.32 0855.38
2009/04/23 07:45:20.6     105    -23    102    108    148 102.4  48.0  33970  286.35 0855.38
2009/04/23 07:45:20.7      75    -26     99     80    127 109.1  56.9  33970  286.37 0855.38
2009/04/23 07:45:20.8      37    -42     64     57     85 138.6  53.7  33972  286.39 0855.38
2009/04/23 07:45:20.9      87    -43     69     98    119 116.6  38.6  33968  286.32 0855.38
2009/04/23 07:45:21.0      87    -72     43    114    121 129.6  21.0  33970  286.35 0855.38
2009/04/23 07:45:21.1     105    -42     60    114    128 111.7  29.8  33968  286.34 0855.38
2009/04/23 07:45:21.2     112    -53     32    124    129 115.4  14.7  33966  286.30 0855.38
2009/04/23 07:45:21.3     126    -18     38    128    134  98.4  16.8  33966  286.30 0855.38
2009/04/23 07:45:21.4     110    -53    -12    123    124 115.8  -5.6  33966  286.30 0855.38
2009/04/23 07:45:21.5      85    -64    -18    107    109 126.9  -9.8  33970  286.35 0855.38
2009/04/23 07:45:21.6      60    -75     -3     97     98 141.3  -2.2  33968  286.34 0855.38
2009/04/23 07:45:21.7      50    -73     20     89     92 145.3  12.6  33970  286.35 0855.38
2009/04/23 07:45:21.8      23    -85     -8     89     90 164.9  -5.2  33970  286.35 0855.38
2009/04/23 07:45:21.9      14    -86     25     88     92 170.2  16.3  33966  286.30 0855.38
2009/04/23 07:45:22.0       7    -96     47     97    107 175.5  27.3  33970  286.35 0855.38
2009/04/23 07:45:22.1      13   -101     53    102    114 172.4  29.8  33970  286.35 0855.38
2009/04/23 07:45:22.2      11    -85     51     86     99 172.4  33.5  33968  286.34 0855.38
2009/04/23 07:45:22.3       1    -74     55     75     93 179.1  40.1  33970  286.37 0855.38
2009/04/23 07:45:22.4       0    -61     53     62     81 180.9  45.4  33970  286.35 0855.38
2009/04/23 07:45:22.5     -18    -55     42     58     71 198.5  39.7  33968  286.32 0855.38
2009/04/23 07:45:22.6     -31    -56     49     65     81 209.0  41.2  33970  286.35 0855.38
2009/04/23 07:45:22.7     -13    -54     66     56     86 194.3  54.8  33970  286.35 0855.38
2009/04/23 07:45:22.8     -19    -37     55     42     69 207.2  57.5  33968  286.32 0855.38
2009/04/23 07:45:22.9     -29    -51     32     59     67 209.9  31.3  33968  286.34 0855.38
2009/04/23 07:45:23.0     -32    -47     20     58     62 214.3  19.4  33968  286.32 0855.38
2009/04/23 07:45:23.1     -35    -32    -11     48     50 226.9 -13.4  33968  286.32 0855.38
2009/04/23 07:45:23.2      17    -20    -16     27     31 138.6 -37.9  33968  286.32 0855.38
2009/04/23 07:45:23.3      19     -8      0     21     22 113.5  -2.2  33966  286.29 0855.38
2009/04/23 07:45:23.4      37     -7     17     38     41 101.4  25.1  33968  286.32 0855.38
2009/04/23 07:45:23.5      37    -24     28     45     53 123.3  35.5  33968  286.32 0855.38
2009/04/23 07:45:23.6      33    -24     29     42     51 126.0  37.6  33968  286.34 0855.38
2009/04/23 07:45:23.7      29    -24     31     38     49 129.5  43.7  33968  286.34 0855.38
2009/04/23 07:45:23.8      19    -19     26     27     37 135.0  52.0  33966  286.29 0855.38
2009/04/23 07:45:23.9      30     -9     30     32     43 106.8  50.0  33968  286.34 0855.38
2009/04/23 07:45:24.0      21     -7     21     23     31 110.0  47.9  33968  286.34 0855.38
2009/04/23 07:45:24.1       2      0     17      3     17  90.0  90.0  33972  286.41 0855.38
2009/04/23 07:45:24.2       0     10     15     11     18   0.9  60.5  33970  286.37 0855.38
2009/04/23 07:45:24.3     -11     18     15     22     26 329.3  35.6  33970  286.37 0855.38
2009/04/23 07:45:24.4       2      5     10      6     11  25.4  64.7  33970  286.35 0855.38
2009/04/23 07:45:24.5      16      0      4     17     18  90.0  15.3  33970  286.35 0855.38
2009/04/23 07:45:24.6      16     -1      6     17     19  94.3  19.4  33970  286.37 0855.38
2009/04/23 07:45:24.7       6     -6      0      9     10 133.1  -1.3  33968  286.32 0855.38
2009/04/23 07:45:24.8       6     -6      0      9     10 133.1  -1.3  33968  286.32 0855.38
2009/04/23 07:45:24.9       3    -13     -1     14     15 164.9  -7.3  33968  286.32 0855.38
2009/04/23 07:45:25.0       2    -15     -3     16     17 172.0 -11.3  33966  286.30 0855.38
2009/04/23 07:45:25.1       6    -33     -1     34     35 168.4  -2.2  33966  286.29 0855.38
2009/04/23 07:45:25.2      15    -33     -4     37     38 154.6  -7.2  33966  286.30 0855.38
2009/04/23 07:45:25.3      12    -27     -8     30     32 156.4 -15.4  33968  286.32 0855.37
2009/04/23 07:45:25.4      17    -22     -3     28     29 142.2  -7.2  33968  286.32 0855.37
2009/04/23 07:45:25.5      11    -12      6     17     19 138.6  19.4  33968  286.32 0855.37
2009/04/23 07:45:25.6      24    -10      3     27     28 113.5   6.9  33966  286.30 0855.37
2009/04/23 07:45:25.7      30     -7     10     31     33 103.3  19.2  33964  286.27 0855.37
2009/04/23 07:45:25.8      28      0     10     29     31  90.0  19.4  33968  286.32 0855.37
2009/04/23 07:45:25.9      55     -4     -7     56     57  94.4  -7.3  33966  286.30 0855.37
2009/04/23 07:45:26.0      54     14    -19     56     59  74.9 -23.6  33964  286.27 0855.37
2009/04/23 07:45:26.1      93    -18    -19     95     97 101.5 -11.3  33966  286.29 0855.37
2009/04/23 07:45:26.2     113    -30    -21    117    119 105.1 -10.3  33968  286.32 0855.37
2009/04/23 07:45:26.3     131    -26     -5    134    135 101.5  -2.2  33966  286.29 0855.37
2009/04/23 07:45:26.4     140    -19     22    142    144  97.9   8.9  33962  286.22 0855.37
2009/04/23 07:45:26.5     155    -46    104    162    192 106.6  35.6  33966  286.30 0855.37
2009/04/23 07:45:26.6     134    -61    105    148    181 114.4  39.1  33966  286.29 0855.37
2009/04/23 07:45:26.7     157     -7     56    158    167  92.6  20.2  33964  286.25 0855.37
2009/04/23 07:45:26.8     159    -27      0    162    163  99.7  -0.3  33964  286.27 0855.37
2009/04/23 07:45:26.9     107    -17     26    109    113  99.2  13.7  33964  286.27 0855.37
2009/04/23 07:45:27.0      88    -58     39    106    112 123.7  20.4  33964  286.27 0855.37
2009/04/23 07:45:27.1      36    -63     42     73     84 150.1  32.9  33964  286.27 0855.37
2009/04/23 07:45:27.2      21    -74     32     77     83 164.0  23.6  33964  286.27 0855.37
2009/04/23 07:45:27.3      24    -56      7     62     63 156.4   7.1  33966  286.29 0855.37
2009/04/23 07:45:27.4      -1    -43     -4     44     45 181.8  -5.2  33964  286.25 0855.37
2009/04/23 07:45:27.5     -11    -43     22     45     50 195.1  27.3  33966  286.30 0855.37
2009/04/23 07:45:27.6     -44    -61     15     76     78 216.0  11.1  33964  286.27 0855.37
2009/04/23 07:45:27.7     -54    -34     -8     65     66 237.6  -7.2  33964  286.25 0855.37
2009/04/23 07:45:27.8     -46    -14     -1     49     50 253.2  -2.2  33966  286.30 0855.37
2009/04/23 07:45:27.9     -50    -32     20     60     64 236.7  18.4  33964  286.25 0855.37
2009/04/23 07:45:28.0     -38    -59    -24     71     74 212.6 -23.6  33966  286.30 0855.37
2009/04/23 07:45:28.1      65      5     23     66     71  85.6  19.4  33966  286.29 0855.37
2009/04/23 07:45:28.2     -16    -93     91     95    131 190.2  49.0  33966  286.30 0855.37
2009/04/23 07:45:28.4     -53   -116     82    128    152 204.5  35.6  33970  286.35 0855.37
2009/04/23 07:45:28.5    -135   -179     90    225    242 217.0  23.0  33968  286.33 0855.37
2009/04/23 07:45:28.6      -9   -112    129    113    171 184.9  54.3  33966  286.29 0855.37
2009/04/23 07:45:28.7     -32   -134    148    138    202 193.8  52.1  33964  286.27 0855.37
2009/04/23 07:45:28.8     -12    -90    122     91    152 187.6  60.0  33964  286.27 0855.37
2009/04/23 07:45:28.9      21    -34    112     41    119 148.4  79.2  33966  286.29 0855.37
2009/04/23 07:45:29.0      -3     -3     84      5     84 226.7  90.0  33968  286.32 0855.37
2009/04/23 07:45:29.1       0    -29     73     30     78 180.9  77.1  33968  286.32 0855.37
2009/04/23 07:45:29.2     -31    -42     71     53     88 216.1  59.4  33966  286.30 0855.37
2009/04/23 07:45:29.3     -19     -6     76     20     78 251.8  84.9  33972  286.39 0855.37
2009/04/23 07:45:29.4      15    -15     58     22     62 134.9  78.2  33968  286.34 0855.37
2009/04/23 07:45:29.5      38    -21    101     44    110 119.8  75.0  33964  286.27 0855.37
2009/04/23 07:45:29.6     -15      7    101     17    102 295.3  90.0  33970  286.37 0855.37
2009/04/23 07:45:29.7      57     23     98     62    115  68.2  64.7  33968  286.34 0855.37
2009/04/23 07:45:29.8      -3      9     90     10     90 338.2  90.0  33972  286.41 0855.37
2009/04/23 07:45:29.9      12     55     90     57    106  12.5  64.7  33970  286.37 0855.37
2009/04/23 07:45:30.0      49     82    121     96    154  31.2  57.5  33970  286.35 0855.37
2009/04/23 07:45:30.1     -49     42    107     65    125 310.4  65.7  33968  286.32 0855.37
2009/04/23 07:45:30.2      91     23    110     94    144  75.8  55.4  33966  286.29 0855.37
2009/04/23 07:45:30.3      61     62    124     88    152  44.7  60.6  33964  286.25 0855.37
2009/04/23 07:45:30.4      90     30     81     96    125  71.4  44.3  33964  286.27 0855.38
2009/04/23 07:45:30.5     102      0     69    103    123  90.0  37.0  33968  286.32 0855.38
2009/04/23 07:45:30.6     120      9     55    121    132  85.7  26.2  33966  286.30 0855.38
2009/04/23 07:45:30.7     109    -15     60    111    126  97.9  30.8  33964  286.25 0855.38
2009/04/23 07:45:30.8     114    -47     40    124    131 112.6  17.9  33968  286.32 0855.38
2009/04/23 07:45:30.9     120    -31     31    124    128 104.6  14.3  33968  286.34 0855.38
2009/04/23 07:45:31.0     152    -20     83    154    174  97.5  30.6  33966  286.29 0855.38
2009/04/23 07:45:31.1     135    -27     98    138    169 101.5  38.8  33966  286.29 0855.38
2009/04/23 07:45:31.2     105    -35    118    111    162 108.4  52.0  33966  286.30 0855.38
2009/04/23 07:45:31.3      67    -48     86     83    119 125.9  50.7  33968  286.34 0855.38
2009/04/23 07:45:31.4      63    -87     81    108    135 144.0  40.7  33968  286.32 0855.38
2009/04/23 07:45:31.5     111   -110     77    157    174 134.9  28.0  33966  286.29 0855.38
2009/04/23 07:45:31.6      90   -155     62    180    191 149.7  19.2  33968  286.34 0855.38
2009/04/23 07:45:31.7      46   -152    104    159    189 163.1  36.0  33966  286.30 0855.38
2009/04/23 07:45:31.8      80   -168    100    187    212 154.4  30.6  33968  286.32 0855.38
2009/04/23 07:45:31.9     159   -142     88    214    231 131.8  23.4  33964  286.27 0855.38
2009/04/23 07:45:32.0     169    -94     52    194    201 119.1  15.0  33968  286.32 0855.38
2009/04/23 07:45:32.1     150   -151     81    213    227 135.2  21.7  33966  286.30 0855.38
2009/04/23 07:45:32.2     145   -170     63    224    233 139.5  15.8  33966  286.29 0855.38
2009/04/23 07:45:32.3     134   -191     36    234    237 144.8   8.9  33968  286.31 0855.38
2009/04/23 07:45:32.4     131   -236     -1    271    272 151.0  -0.3  33968  286.31 0855.37
2009/04/23 07:45:32.5     122   -268     36    295    298 155.5   7.1  33970  286.35 0855.37
2009/04/23 07:45:32.6     100   -238     84    259    273 157.1  17.9  33970  286.36 0855.37
2009/04/23 07:45:32.7      93   -237     97    255    272 158.4  22.0  33968  286.31 0855.37
2009/04/23 07:45:32.8     103   -203    105    228    251 153.0  26.4  33968  286.33 0855.37
2009/04/23 07:45:32.9      83   -192    106    210    235 156.6  28.7  33970  286.35 0855.37
2009/04/23 07:45:33.0      54   -154     87    164    185 160.4  30.1  33968  286.32 0855.37
2009/04/23 07:45:33.1      98   -148    112    178    210 146.4  35.5  33964  286.27 0855.37
2009/04/23 07:45:33.2     115   -152    110    191    220 142.8  32.4  33966  286.30 0855.37
2009/04/23 07:45:33.3      72   -153     93    170    193 154.8  31.3  33964  286.25 0855.37
2009/04/23 07:45:33.4      12   -198     85    199    216 176.4  24.6  33964  286.27 0855.37
2009/04/23 07:45:33.5     -16   -206     92    207    226 184.5  25.3  33964  286.27 0855.37
2009/04/23 07:45:33.6     -54   -208     38    215    219 194.7  10.1  33964  286.27 0855.37
2009/04/23 07:45:33.7     -41   -202     11    207    208 191.6   3.1  33966  286.29 0855.37
2009/04/23 07:45:33.8     -49   -192    -54    199    207 194.5 -15.4  33964  286.25 0855.37
2009/04/23 07:45:33.9      -2   -176    -31    177    180 180.7 -10.1  33966  286.29 0855.37
2009/04/23 07:45:34.0      22   -125    -44    128    136 169.8 -19.1  33966  286.29 0855.37
2009/04/23 07:45:34.1       0   -157    -49    158    165 180.0 -22.5  33966  286.29 0855.37
2009/04/23 07:45:34.2      23   -154    -74    156    172 171.5 -31.6  33960  286.20 0855.37
2009/04/23 07:45:34.3      34   -230    -47    233    238 171.5 -11.5  33964  286.26 0855.37
2009/04/23 07:45:34.4      52   -237    -84    243    258 167.6 -19.1  33966  286.28 0855.37
2009/04/23 07:45:34.5     106   -226    -55    250    257 154.7 -12.4  33964  286.26 0855.37
2009/04/23 07:45:34.6      70   -261    -58    271    278 164.9 -12.2  33964  286.25 0855.37
2009/04/23 07:45:34.7     -75   -240    -36    252    255 197.4  -8.2  33966  286.28 0855.37
2009/04/23 07:45:34.8     -56   -278    -55    284    290 191.6 -11.1  33966  286.28 0855.37
2009/04/23 07:45:34.9      -7   -240    -33    241    244 181.8  -8.0  33964  286.25 0855.37
2009/04/23 07:45:35.0      14   -182    -36    183    187 175.5 -11.1  33962  286.24 0855.37
2009/04/23 07:45:35.1     -36   -135    -47    140    148 195.2 -18.7  33962  286.24 0855.37
2009/04/23 07:45:35.2     -17   -161     24    162    164 186.2   8.5  33964  286.27 0855.37
2009/04/23 07:45:35.3     -53    -84    -49    100    111 212.6 -31.7  33966  286.29 0855.37
2009/04/23 07:45:35.4     -81   -105    -44    133    140 217.8 -23.8  33966  286.30 0855.37
2009/04/23 07:45:35.5       6   -173     59    174    185 177.8  18.9  33962  286.24 0855.37
2009/04/23 07:45:35.6     -18   -151     52    153    162 187.1  18.9  33966  286.30 0855.37
2009/04/23 07:45:35.7      82   -132     12    156    157 147.9   4.6  33964  286.27 0855.37
2009/04/23 07:45:35.8      58   -117     59    131    143 153.3  25.7  33970  286.35 0855.37
2009/04/23 07:45:35.9      33   -115     47    120    128 164.0  22.5  33970  286.37 0855.37
2009/04/23 07:45:36.0       8   -110     13    111    112 175.6   6.9  33966  286.30 0855.37
2009/04/23 07:45:36.1     -10   -110    -14    111    112 185.3  -7.2  33968  286.34 0855.37
2009/04/23 07:45:36.2     -46   -110    -72    120    139 202.7 -37.9  33966  286.29 0855.37
2009/04/23 07:45:36.3       9    -83    -23     84     87 173.3 -20.2  33964  286.27 0855.37
2009/04/23 07:45:36.4      33   -101     27    107    111 161.7  14.3  33966  286.29 0855.36
2009/04/23 07:45:36.5       5   -127      1    128    129 177.4   0.7  33964  286.25 0855.36
2009/04/23 07:45:36.6      -8   -130    -14    131    132 183.6  -6.2  33962  286.24 0855.36
2009/04/23 07:45:36.7      -8   -115    -11    116    117 184.0  -5.6  33962  286.24 0855.36
2009/04/23 07:45:36.8      38   -112    -16    119    121 161.3  -7.7  33966  286.30 0855.36
2009/04/23 07:45:36.9      46   -127     -7    136    137 159.9  -3.1  33964  286.25 0855.36
2009/04/23 07:45:37.0      51   -123      0    134    135 157.3  -0.3  33964  286.25 0855.36
2009/04/23 07:45:37.1      79   -117     -5    142    143 145.8  -2.2  33964  286.27 0855.36
2009/04/23 07:45:37.2      68   -117     14    136    137 149.7   5.9  33966  286.29 0855.36
2009/04/23 07:45:37.3      47   -128    -27    137    140 159.5 -11.3  33964  286.27 0855.36
2009/04/23 07:45:37.4      37   -169    -11    174    175 167.5  -3.7  33962  286.22 0855.36
2009/04/23 07:45:37.5      66   -161    -35    175    179 157.5 -11.5  33960  286.19 0855.36
2009/04/23 07:45:37.6      97   -167    -33    194    197 149.9  -9.8  33962  286.22 0855.36
2009/04/23 07:45:37.7     111   -175    -15    208    209 147.5  -4.1  33962  286.24 0855.36
2009/04/23 07:45:37.8      98   -130     -4    164    165 143.0  -1.6  33960  286.20 0855.36
2009/04/23 07:45:37.9      65   -138      0    153    154 154.5  -0.3  33964  286.25 0855.36
2009/04/23 07:45:38.0     102   -123      0    160    161 140.4   0.0  33964  286.25 0855.36
2009/04/23 07:45:38.1      89   -138    -14    165    166 147.0  -4.9  33962  286.22 0855.36
2009/04/23 07:45:38.2      91   -142    -42    169    175 147.4 -13.9  33964  286.25 0855.36
2009/04/23 07:45:38.3     103   -155    -73    187    200 146.4 -26.9  33966  286.29 0855.36
2009/04/23 07:45:38.4      73   -150    -96    168    193 153.9 -36.8  33966  286.30 0855.36
2009/04/23 07:45:38.5      53   -181    -98    189    212 163.7 -33.7  33968  286.34 0855.36
2009/04/23 07:45:38.6      94   -160    -84    186    204 149.5 -30.3  33968  286.34 0855.36
2009/04/23 07:45:38.7      95   -171    -64    196    206 151.0 -23.8  33968  286.32 0855.36
2009/04/23 07:45:38.8      88   -178    -56    199    206 153.5 -20.2  33968  286.32 0855.36
2009/04/23 07:45:38.9     121   -146    -54    190    197 140.4 -20.7  33970  286.35 0855.36
2009/04/23 07:45:39.0     120   -133    -53    180    187 137.9 -21.2  33968  286.34 0855.36
2009/04/23 07:45:39.1      85   -129    -58    155    165 146.6 -25.4  33968  286.32 0855.36
2009/04/23 07:45:39.2      75   -127    -49    148    155 149.3 -23.8  33968  286.34 0855.36
2009/04/23 07:45:39.3      76   -119    -42    142    148 147.5 -21.7  33968  286.32 0855.36
2009/04/23 07:45:39.4      66   -104    -43    124    132 147.4 -19.1  33968  286.34 0855.36
2009/04/23 07:45:39.5      73   -100    -37    124    129 143.9 -21.7  33970  286.37 0855.36
2009/04/23 07:45:39.6      50   -121    -44    132    140 157.3 -18.7  33966  286.29 0855.36
2009/04/23 07:45:39.7      38   -116    -41    123    129 161.7 -23.6  33968  286.32 0855.36
2009/04/23 07:45:39.8      42   -120    -39    128    133 160.4 -21.8  33970  286.35 0855.36
2009/04/23 07:45:39.9      40   -113    -33    120    124 160.4 -20.2  33968  286.32 0855.36
2009/04/23 07:45:40.0      70    -70    -26    100    104 135.0 -14.5  33972  286.39 0855.36
2009/04/23 07:45:40.1      72   -105    -30    128    132 145.7 -13.3  33968  286.34 0855.36
2009/04/23 07:45:40.2      48   -117    -26    127    130 157.7 -11.9  33970  286.35 0855.36
2009/04/23 07:45:40.3      49   -115    -25    126    129 156.8 -11.3  33970  286.35 0855.36
2009/04/23 07:45:40.4      53   -105    -32    118    123 153.3 -15.5  33970  286.35 0855.36
2009/04/23 07:45:40.5      54   -106    -18    120    122 152.8  -8.8  33970  286.35 0855.36
2009/04/23 07:45:40.6      44    -79    -32     91     97 150.6 -19.7  33968  286.34 0855.36
2009/04/23 07:45:40.7      37    -58    -25     70     75 147.4 -19.7  33968  286.32 0855.36
2009/04/23 07:45:40.8      27    -53     -8     60     61 152.8  -8.2  33968  286.32 0855.36
2009/04/23 07:45:40.9      30    -47     10     56     57 147.4  10.1  33968  286.32 0855.36
2009/04/23 07:45:41.0      31    -38     17     50     54 140.4  19.2  33970  286.35 0855.36
2009/04/23 07:45:41.1      43    -43     21     61     65 135.0  18.9  33970  286.35 0855.36
2009/04/23 07:45:41.2      63    -34     51     72     88 118.8  38.6  33966  286.30 0855.36
2009/04/23 07:45:41.3      63    -40     71     75    103 122.5  48.5  33970  286.35 0855.36
2009/04/23 07:45:41.4      68    -22     93     72    117 108.4  58.4  33970  286.35 0855.36
2009/04/23 07:45:41.5      92    -28    104     97    142 107.3  52.2  33970  286.35 0855.36
2009/04/23 07:45:41.6      71    -14     69     73    100 101.4  48.0  33970  286.37 0855.36
2009/04/23 07:45:41.7       3    -44     65     45     79 175.5  62.1  33966  286.30 0855.36
2009/04/23 07:45:41.8      32      6     70     33     77  78.5  73.1  33968  286.32 0855.36
2009/04/23 07:45:41.9      -6    -62     70     63     94 186.2  53.3  33968  286.34 0855.36
2009/04/23 07:45:42.0      -1      6     60      7     60 350.3  90.0  33968  286.32 0855.36
2009/04/23 07:45:42.1      51     -3     50     52     72  94.4  50.0  33970  286.35 0855.36
2009/04/23 07:45:42.2       2    -33     49     34     59 175.5  61.5  33966  286.29 0855.36
2009/04/23 07:45:42.3       7     26     46     27     53  15.1  66.8  33968  286.32 0855.36
2009/04/23 07:45:42.4      32     39     69     51     85  39.6  60.0  33968  286.32 0855.36
2009/04/23 07:45:42.5      33     46     52     57     77  36.1  47.9  33968  286.34 0855.36
2009/04/23 07:45:42.6      -1     26     45     27     52 357.3  65.7  33970  286.37 0855.36
2009/04/23 07:45:42.7       0     37     25     38     45 359.1  35.6  33968  286.32 0855.36
2009/04/23 07:45:42.8      61     64     25     89     93  43.7  15.8  33968  286.32 0855.36
2009/04/23 07:45:42.9      54     61     10     82     83  41.9   7.5  33968  286.34 0855.36
2009/04/23 07:45:43.0      58     36     23     69     74  58.5  18.9  33966  286.29 0855.36
2009/04/23 07:45:43.1      63     45     14     78     80  54.1  10.6  33964  286.25 0855.36
2009/04/23 07:45:43.2      53     53     18     76     79  45.0  13.2  33966  286.30 0855.36
2009/04/23 07:45:43.3      56     32     29     65     71  60.2  26.2  33970  286.35 0855.36
2009/04/23 07:45:43.4      59      0     24     60     64  90.0  23.0  33968  286.32 0855.36
2009/04/23 07:45:43.5      64     -4     22     65     69  94.4  18.9  33970  286.35 0855.36
2009/04/23 07:45:43.6      48     -6     36     49     60  97.9  39.7  33968  286.34 0855.36
2009/04/23 07:45:43.7      38      0      3     39     40  90.8   4.9  33968  286.32 0855.36
2009/04/23 07:45:43.8      32      0     -6     33     34  90.8 -11.3  33970  286.37 0855.36
2009/04/23 07:45:43.9      34     -6    -36     35     50 101.5 -53.5  33968  286.34 0855.36
2009/04/23 07:45:44.0      59     -7    -36     60     69  97.0 -38.8  33970  286.35 0855.36
2009/04/23 07:45:44.1      63      0    -22     64     68  90.0 -19.7  33970  286.35 0855.36
2009/04/23 07:45:44.2      62     10    -10     63     64  80.3  -9.3  33968  286.32 0855.36
2009/04/23 07:45:44.3      53     20    -10     57     58  69.2 -10.3  33966  286.30 0855.36
2009/04/23 07:45:44.4      45     25    -15     52     55  61.1 -16.6  33966  286.29 0855.37
2009/04/23 07:45:44.5      40     16     -5     44     45  67.4  -7.3  33966  286.29 0855.37
2009/04/23 07:45:44.6      47     32     11     57     59  55.8  11.1  33968  286.32 0855.37
2009/04/23 07:45:44.7      53     36     -8     65     66  55.8  -7.3  33966  286.30 0855.37
2009/04/23 07:45:44.8      49     35     -1     61     62  54.0  -1.2  33966  286.30 0855.37
2009/04/23 07:45:44.9      50     25     31     57     64  62.9  31.4  33966  286.30 0855.37
2009/04/23 07:45:45.0      56     29     63     64     89  62.9  50.5  33968  286.32 0855.37
2009/04/23 07:45:45.1      66     10     44     67     80  81.2  36.5  33968  286.34 0855.37
2009/04/23 07:45:45.2      21    -21     44     30     53 135.0  62.6  33972  286.39 0855.37
2009/04/23 07:45:45.3       9    -27     55     29     62 161.3  69.8  33970  286.35 0855.37
2009/04/23 07:45:45.4      14    -19     42     24     48 143.9  66.8  33970  286.37 0855.37
2009/04/23 07:45:45.5      13      4     28     14     31  71.4  72.8  33970  286.37 0855.37
2009/04/23 07:45:45.6       0     -3     28      4     28 175.5  90.0  33970  286.37 0855.37
2009/04/23 07:45:45.7       2      0     30      3     30  90.0  90.0  33972  286.41 0855.37
2009/04/23 07:45:45.8      16    -15     36     22     42 133.1  65.7  33970  286.37 0855.37
2009/04/23 07:45:45.9      40     14     32     43     53  70.0  40.7  33968  286.32 0855.37
2009/04/23 07:45:46.0      56     44     22     72     76  51.4  17.3  33966  286.30 0855.37
2009/04/23 07:45:46.1      75     30     28     81     86  67.8  19.2  33968  286.32 0855.37
2009/04/23 07:45:46.2      70     49     49     86     98  54.5  31.9  33962  286.24 0855.37
2009/04/23 07:45:46.3      57     18     62     60     86  71.8  50.1  33966  286.29 0855.37
2009/04/23 07:45:46.4       8     26     57     28     63  18.3  72.8  33966  286.29 0855.36
2009/04/23 07:45:46.5      23     19     44     31     53  50.5  61.5  33966  286.30 0855.36
2009/04/23 07:45:46.6      26     23     46     35     57  48.7  58.5  33968  286.32 0855.36
2009/04/23 07:45:46.7      47     16     54     50     73  70.9  52.1  33966  286.30 0855.36
2009/04/23 07:45:46.8      51     17     57     55     79  70.9  50.7  33966  286.29 0855.36
2009/04/23 07:45:46.9      83    -23     16     87     89 105.9  11.0  33968  286.34 0855.36
2009/04/23 07:45:47.0     108    -43     22    117    120 111.7  11.0  33972  286.39 0855.36
2009/04/23 07:45:47.1     119    -40     25    126    129 108.6  11.6  33968  286.32 0855.36
2009/04/23 07:45:47.2     118    -31     38    123    129 105.1  17.3  33972  286.39 0855.36
2009/04/23 07:45:47.3     113    -31     64    118    134 105.5  31.3  33968  286.32 0855.36
2009/04/23 07:45:47.4     130    -26     58    133    145 101.5  25.1  33970  286.37 0855.36
2009/04/23 07:45:47.5     117    -26     84    120    146 102.8  38.6  33970  286.35 0855.36
2009/04/23 07:45:47.6      98    -19     95    100    137 101.5  48.0  33970  286.37 0855.36
2009/04/23 07:45:47.7      54      0     92     55    107  90.0  66.2  33970  286.35 0855.36
2009/04/23 07:45:47.8      58     15     85     61    104  75.0  60.6  33972  286.39 0855.36
2009/04/23 07:45:47.9      26      0     80     27     84  90.0  81.0  33968  286.34 0855.36
2009/04/23 07:45:48.0     128     26     83    131    155  78.5  35.5  33964  286.27 0855.36
2009/04/23 07:45:48.1     108     -8     44    109    117  94.3  23.0  33966  286.30 0855.36
2009/04/23 07:45:48.2      90    -23     55     94    108 104.6  32.9  33968  286.32 0855.36
2009/04/23 07:45:48.3      79      0     43     80     90  90.0  30.3  33966  286.30 0855.36
2009/04/23 07:45:48.4      70      7     54     71     89  83.9  41.2  33968  286.34 0855.36
2009/04/23 07:45:48.5      45      6     64     46     78  82.1  60.5  33968  286.32 0855.36
2009/04/23 07:45:48.6      26      7     46     27     53  74.9  66.8  33968  286.32 0855.36
2009/04/23 07:45:48.7      13     -8     40     16     43 122.4  78.2  33970  286.35 0855.36
2009/04/23 07:45:48.8      22    -17     35     28     44 127.8  57.5  33972  286.41 0855.36
2009/04/23 07:45:48.9      16     -7     24     18     30 115.3  58.5  33968  286.32 0855.36
2009/04/23 07:45:49.0      18      3      5     19     20  78.5  17.3  33970  286.37 0855.36
2009/04/23 07:45:49.1       0     14     13     15     19 357.3  45.8  33968  286.34 0855.36
2009/04/23 07:45:49.2      37     11     51     39     64  73.2  59.4  33970  286.37 0855.36
2009/04/23 07:45:49.3      36      2     50     37     62  85.7  60.5  33970  286.37 0855.36
2009/04/23 07:45:49.4      30     -6     44     31     53 101.5  61.5  33970  286.35 0855.36
2009/04/23 07:45:49.5      15    -15     39     22     44 135.0  67.7  33974  286.42 0855.36
2009/04/23 07:45:49.6     -21     11     46     24     51 298.9  70.8  33974  286.42 0855.36
2009/04/23 07:45:49.7      -1     35     44     36     56 357.3  56.4  33976  286.46 0855.36
2009/04/23 07:45:49.8       4     54     66     55     85   4.5  55.8  33976  286.46 0855.36
2009/04/23 07:45:49.9     -25     25     60     36     69 315.0  65.7  33976  286.46 0855.36
2009/04/23 07:45:50.0      -6     26     58     27     63 346.6  74.0  33970  286.35 0855.36
2009/04/23 07:45:50.1     -13     54     53     56     77 345.7  49.0  33966  286.29 0855.36
2009/04/23 07:45:50.2     -14     46     46     49     67 342.2  48.0  33968  286.32 0855.36
2009/04/23 07:45:50.3       0     59     60     60     84 359.1  50.1  33968  286.32 0855.36
2009/04/23 07:45:50.4      -5     71     53     72     89 355.5  40.1  33968  286.34 0855.36
2009/04/23 07:45:50.5      17     53     43     56     70  18.7  41.7  33972  286.39 0855.36
2009/04/23 07:45:50.6      -4     57     35     58     67 355.6  34.4  33970  286.35 0855.36
2009/04/23 07:45:50.7     -23     71     32     75     81 341.7  24.1  33968  286.34 0855.36
2009/04/23 07:45:50.8     -65     54     40     85     93 309.5  27.1  33966  286.30 0855.36
2009/04/23 07:45:50.9     -81     72     12    109    110 311.8   6.5  33972  286.39 0855.36
2009/04/23 07:45:51.0     -87     63      5    108    109 306.0   2.8  33974  286.42 0855.36
2009/04/23 07:45:51.1     -78     66     55    103    116 310.4  30.8  33968  286.32 0855.36
2009/04/23 07:45:51.2     -62     87     49    108    118 324.4  25.7  33968  286.34 0855.36
2009/04/23 07:45:51.3     -52    101     33    114    119 332.8  16.3  33972  286.41 0855.36
2009/04/23 07:45:51.4     -39     98     55    106    119 338.1  29.3  33970  286.37 0855.36
2009/04/23 07:45:51.5     -23     78     71     82    108 343.1  45.4  33972  286.41 0855.36
2009/04/23 07:45:51.6      21     42     39     48     61  27.2  43.7  33974  286.42 0855.36
2009/04/23 07:45:51.7       3     55     42     56     70   3.6  40.7  33974  286.42 0855.36
2009/04/23 07:45:51.8     -23     78     45     82     93 343.5  30.8  33972  286.41 0855.36
2009/04/23 07:45:51.9      -7    112     61    113    128 356.4  30.8  33970  286.35 0855.36
2009/04/23 07:45:52.0     -21    103     74    106    129 348.4  38.0  33972  286.39 0855.36
2009/04/23 07:45:52.1      -5    117     82    118    143 357.3  38.0  33968  286.32 0855.36
2009/04/23 07:45:52.2     -74    105     88    129    156 324.8  37.4  33972  286.39 0855.36
2009/04/23 07:45:52.3     -74     89     49    116    125 320.4  24.1  33972  286.39 0855.36
2009/04/23 07:45:52.4     -24     71     53     76     92 340.8  38.0  33972  286.41 0855.36
2009/04/23 07:45:52.5     -21     67     60     71     92 342.2  44.3  33970  286.37 0855.36
2009/04/23 07:45:52.6     -17     66     64     69     94 345.7  48.5  33970  286.37 0855.36
2009/04/23 07:45:52.7      13     65     47     67     81  11.6  38.6  33968  286.32 0855.36
2009/04/23 07:45:52.8       3     41     38     42     56   4.5  47.9  33968  286.32 0855.36
2009/04/23 07:45:52.9       1     23     45     24     51   4.5  69.8  33968  286.34 0855.36
2009/04/23 07:45:53.0     -13      5     59     15     60 291.7  84.9  33970  286.37 0855.36
2009/04/23 07:45:53.1     -13      8     46     16     48 302.4  81.2  33970  286.37 0855.36
2009/04/23 07:45:53.2     -19     -7     37     21     42 248.3  67.7  33970  286.37 0855.36
2009/04/23 07:45:53.3     -15    -26     24     31     39 210.7  43.7  33970  286.37 0855.36
2009/04/23 07:45:53.4       5    -11     32     13     34 154.6  79.2  33970  286.37 0855.36
2009/04/23 07:45:53.5       2     -7     30      8     31 161.5  84.9  33970  286.35 0855.36
2009/04/23 07:45:53.6      27    -17     26     33     42 122.4  42.7  33968  286.34 0855.36
2009/04/23 07:45:53.7      50    -16     22     53     57 108.2  23.0  33972  286.41 0855.36
2009/04/23 07:45:53.8      58     -9     43     59     73  98.8  39.7  33970  286.37 0855.36
2009/04/23 07:45:53.9      63      6     48     64     80  83.9  40.7  33972  286.39 0855.36
2009/04/23 07:45:54.0      56     16     59     59     83  74.1  50.1  33974  286.42 0855.36
2009/04/23 07:45:54.1      45     24     45     52     68  62.0  44.8  33972  286.39 0855.36
2009/04/23 07:45:54.2      48     30     35     57     66  57.5  35.5  33972  286.39 0855.36
2009/04/23 07:45:54.3      73     20     26     76     81  74.1  18.9  33972  286.39 0855.36
2009/04/23 07:45:54.4      95     18     27     97    101  79.0  15.8  33970  286.37 0855.36
2009/04/23 07:45:54.5     118     13     38    119    126  83.4  17.9  33972  286.41 0855.36
2009/04/23 07:45:54.6      92     30     41     97    105  71.6  24.1  33972  286.41 0855.36
2009/04/23 07:45:54.7      85     25     86     89    123  73.6  49.4  33978  286.49 0855.36
2009/04/23 07:45:54.8     119     -8     75    120    141  94.3  35.5  33972  286.41 0855.36
2009/04/23 07:45:54.9     105     -7     88    106    137  93.9  43.8  33974  286.44 0855.36
2009/04/23 07:45:55.0      82    -38     82     91    122 115.3  46.9  33972  286.41 0855.36
2009/04/23 07:45:55.1      54    -18     93     58    109 108.6  64.7  33982  286.56 0855.36
2009/04/23 07:45:55.2     103    -20    111    106    153 101.4  51.2  33974  286.44 0855.36
2009/04/23 07:45:55.3      71      3    116     72    136  87.4  64.7  33976  286.46 0855.36
2009/04/23 07:45:55.4      19    -15     70     25     74 129.5  81.2  33976  286.47 0855.37
2009/04/23 07:45:55.5     147    -60     94    159    184 112.2  33.5  33974  286.42 0855.37
2009/04/23 07:45:55.6      95    -95    106    135    171 135.0  42.4  33972  286.41 0855.37
2009/04/23 07:45:55.7     132   -110     60    172    183 129.8  19.2  33972  286.39 0855.37
2009/04/23 07:45:55.8     139   -138     82    197    213 134.8  23.6  33970  286.37 0855.37
2009/04/23 07:45:55.9     179   -110    105    211    235 121.5  28.2  33968  286.32 0855.37
2009/04/23 07:45:56.0     114   -148     75    188    202 142.4  23.0  33972  286.39 0855.37
2009/04/23 07:45:56.2     172   -147     64    227    236 130.4  15.8  33970  286.35 0855.37
2009/04/23 07:45:56.3     229   -131     16    264    265 119.8   3.6  33966  286.30 0855.37
2009/04/23 07:45:56.4     194    -95      3    217    218 116.2   0.8  33966  286.29 0855.37
2009/04/23 07:45:56.5     177   -112     59    210    219 122.4  15.8  33966  286.30 0855.37
2009/04/23 07:45:56.6     156   -156     47    221    226 135.0  12.0  33964  286.25 0855.37
2009/04/23 07:45:56.7     123   -162     41    204    209 142.6  11.6  33968  286.34 0855.37
2009/04/23 07:45:56.8     131   -144     30    195    198 137.7   8.8  33968  286.34 0855.37
2009/04/23 07:45:56.9     148   -138     70    203    215 132.9  19.2  33968  286.32 0855.37
2009/04/23 07:45:57.0     104   -146     45    180    186 144.4  14.3  33970  286.35 0855.37
2009/04/23 07:45:57.1      71   -138     -6    156    157 152.8  -2.2  33966  286.29 0855.37
2009/04/23 07:45:57.2      76   -113      2    137    138 146.2   1.2  33968  286.32 0855.37
2009/04/23 07:45:57.3      78    -49     44     93    102 122.5  27.1  33972  286.39 0855.37
2009/04/23 07:45:57.4      89    -16     -8     91     92 100.6  -5.2  33968  286.34 0855.37
2009/04/23 07:45:57.5     162     39    -25    167    169  76.3  -8.8  33970  286.35 0855.36
2009/04/23 07:45:57.6     145     24    -14    148    149  80.3  -5.6  33970  286.37 0855.36
2009/04/23 07:45:57.7     136     38    -12    142    143  74.1  -5.1  33966  286.29 0855.36
2009/04/23 07:45:57.8     153     68     59    168    179  65.8  19.4  33982  286.56 0855.36
2009/04/23 07:45:57.9     133     63     79    148    167  64.6  30.3  33992  286.74 0855.36
2009/04/23 07:45:58.0     118     54     55    130    141  65.2  24.1  33986  286.64 0855.36
2009/04/23 07:45:58.1     107     17     14    109    110  80.8   7.5  33976  286.46 0855.36
2009/04/23 07:45:58.2     104     25     29    108    113  76.3  15.3  33976  286.46 0855.36
2009/04/23 07:45:58.3     117     30     27    121    125  75.4  12.6  33974  286.42 0855.36
2009/04/23 07:45:58.4     123     37     44    129    137  73.1  18.9  33982  286.57 0855.36
2009/04/23 07:45:58.5     115     22     40    118    125  79.0  18.9  33982  286.57 0855.36
2009/04/23 07:45:58.6     134     13     45    135    143  84.3  18.4  33982  286.56 0855.36
2009/04/23 07:45:58.7     129     13     68    130    146  83.9  29.3  33978  286.49 0855.36
2009/04/23 07:45:58.8     173     17     20    174    176  84.3   6.7  33972  286.39 0855.36
2009/04/23 07:45:58.9     159     30     35    162    166  79.2  12.4  33972  286.39 0855.36
2009/04/23 07:45:59.0     119     33     54    124    135  74.5  25.1  33974  286.42 0855.36
2009/04/23 07:45:59.1      97     22     73    100    123  76.7  39.7  33974  286.42 0855.36
2009/04/23 07:45:59.2     103      3     72    104    126  88.3  37.6  33972  286.41 0855.36
2009/04/23 07:45:59.3     115     33     81    120    144  73.6  37.0  33974  286.44 0855.36
2009/04/23 07:45:59.4     166     45     63    173    184  74.9  20.7  33974  286.42 0855.36
2009/04/23 07:45:59.5     164     53     50    173    181  71.8  16.3  33974  286.42 0855.37
2009/04/23 07:45:59.6     121     62     80    137    158  62.9  32.9  33972  286.41 0855.37
2009/04/23 07:45:59.7     135     54     81    146    166  68.2  31.4  33974  286.42 0855.37
2009/04/23 07:45:59.8     139     46     57    147    157  71.6  22.3  33974  286.42 0855.37
2009/04/23 07:45:59.9     140     22     91    142    168  80.8  35.6  33974  286.42 0855.37
2009/04/23 07:46:00.0     163     48    128    171    213  73.4  40.4  33974  286.42 0855.37
2009/04/23 07:46:00.1     211     68     65    222    232  72.1  16.4  33974  286.42 0855.37
2009/04/23 07:46:00.2     209     83     66    226    236  68.3  16.3  33974  286.44 0855.37
2009/04/23 07:46:00.3     209     83     48    226    232  68.2  12.0  33978  286.49 0855.37
2009/04/23 07:46:00.4     202    103     65    227    237  63.0  16.0  33978  286.50 0855.37
2009/04/23 07:46:00.5     202     86     82    220    234  66.9  21.3  33976  286.47 0855.37
2009/04/23 07:46:00.6     168     92    104    192    218  61.1  31.0  33978  286.49 0855.37
2009/04/23 07:46:00.7     168     88    107    190    218  62.2  31.6  33980  286.52 0855.37
2009/04/23 07:46:00.8     200     73    107    214    239  70.0  28.5  33978  286.51 0855.37
2009/04/23 07:46:00.9     161     96    105    188    215  59.3  31.4  33980  286.52 0855.37
2009/04/23 07:46:01.0     169     92     91    193    213  61.4  27.2  33984  286.59 0855.37
2009/04/23 07:46:01.1     204     96    122    226    256  64.8  30.8  33990  286.70 0855.37
2009/04/23 07:46:01.2     209     98    126    231    263  64.8  31.3  33994  286.75 0855.37
2009/04/23 07:46:01.3     203     83     77    220    234  67.8  19.4  33986  286.62 0855.37
2009/04/23 07:46:01.4     154     63     99    167    194  67.6  33.7  33992  286.74 0855.37
2009/04/23 07:46:01.5     170     91     11    193    194  61.8   3.3  33972  286.41 0855.37
2009/04/23 07:46:01.6     214     58     11    222    223  74.7   2.9  33972  286.39 0855.37
2009/04/23 07:46:01.7     218     44     37    223    227  78.5   9.5  33970  286.35 0855.37
2009/04/23 07:46:01.8     215     76     80    229    243  70.5  19.4  33976  286.45 0855.37
2009/04/23 07:46:01.9     159     75    123    176    214  64.7  38.0  33990  286.71 0855.37
2009/04/23 07:46:02.0     145     41    120    151    192  74.1  42.7  33982  286.56 0855.37
2009/04/23 07:46:02.1     170     83     81    190    206  64.0  24.6  33980  286.54 0855.37
2009/04/23 07:46:02.2     173    151     38    230    234  48.9   9.5  33984  286.59 0855.37
2009/04/23 07:46:02.3     158     95     70    185    197  58.9  21.5  33978  286.49 0855.37
2009/04/23 07:46:02.4     178     75     64    194    205  67.2  18.4  33974  286.42 0855.37
2009/04/23 07:46:02.5     162    162     44    230    235  45.0  11.0  33984  286.58 0855.37
2009/04/23 07:46:02.6     165    165     28    234    236  45.0   6.9  33980  286.53 0855.37
2009/04/23 07:46:02.7     233     85      4    249    250  69.8   1.0  33970  286.35 0855.37
2009/04/23 07:46:02.8     203    133    -11    243    244  56.7  -2.8  33972  286.40 0855.37
2009/04/23 07:46:03.0     183    137     44    229    234  53.1  11.0  33992  286.74 0855.37
2009/04/23 07:46:03.1     209    137     28    251    253  56.7   6.5  33986  286.62 0855.37
2009/04/23 07:46:03.2     208    150     26    257    259  54.1   5.9  33984  286.60 0855.37
2009/04/23 07:46:03.3     172    145     72    226    238  49.8  17.7  33992  286.72 0855.37
2009/04/23 07:46:03.4     182    132     88    225    241  54.1  22.3  33996  286.79 0855.37
2009/04/23 07:46:03.5     190     80     70    207    219  67.2  18.9  33972  286.41 0855.37
2009/04/23 07:46:03.6     172     96     78    198    212  60.7  22.5  33986  286.62 0855.37
2009/04/23 07:46:03.7     154     70     75    170    185  65.4  25.1  33986  286.62 0855.37
2009/04/23 07:46:03.8     182     24     35    184    188  82.3  11.0  33976  286.47 0855.37
2009/04/23 07:46:03.9     176     18     34    177    181  84.1  11.0  33968  286.32 0855.37
2009/04/23 07:46:04.0     176     25     55    178    187  81.9  17.3  33968  286.32 0855.37
2009/04/23 07:46:04.1     172     39     59    177    187  77.2  18.4  33972  286.41 0855.37
2009/04/23 07:46:04.2     179     52     57    187    196  73.6  17.1  33972  286.41 0855.37
2009/04/23 07:46:04.3     186     74     -7    201    202  68.3  -2.2  33974  286.44 0855.37
2009/04/23 07:46:04.4     156     76     39    174    179  64.0  12.6  33984  286.61 0855.37
2009/04/23 07:46:04.5     156     75     58    174    184  64.2  18.4  33986  286.64 0855.37
2009/04/23 07:46:04.6     160     81     78    180    196  62.9  25.1  33990  286.69 0855.37
2009/04/23 07:46:04.7     152     52     99    161    189  70.9  35.0  33984  286.59 0855.37
2009/04/23 07:46:04.8     171     80     48    189    196  64.9  14.3  33980  286.54 0855.37
2009/04/23 07:46:04.9     165     85     -2    186    187  62.5  -0.7  33984  286.61 0855.37
2009/04/23 07:46:05.0     205     58      7    214    215  74.1   2.1  34010  287.03 0855.37
2009/04/23 07:46:05.1     179    145     57    231    238  50.9  13.9  34058  287.83 0855.37
2009/04/23 07:46:05.2     232    111     55    258    264  64.5  12.1  34014  287.11 0855.37
2009/04/23 07:46:05.3     196    153     71    249    260  52.0  16.0  34014  287.09 0855.37
2009/04/23 07:46:05.4     122    123    125    174    214  44.9  39.3  34022  287.23 0855.37
2009/04/23 07:46:05.5      72    102    127    126    178  35.2  50.1  34018  287.18 0855.38
2009/04/23 07:46:05.6     134     98     21    167    169  53.8   7.2  34020  287.21 0855.38
2009/04/23 07:46:05.7     120     99     15    156    157  50.4   5.7  34018  287.18 0855.38
2009/04/23 07:46:05.8     117     72     37    138    144  58.5  15.2  34004  286.93 0855.38
2009/04/23 07:46:05.9     139     65     52    154    163  64.7  18.9  33976  286.46 0855.38
2009/04/23 07:46:06.0     157     31     49    161    169  78.8  17.1  33972  286.41 0855.38
2009/04/23 07:46:06.1     182     37     54    186    194  78.5  16.3  33974  286.42 0855.38
2009/04/23 07:46:06.2     203     62     58    213    221  72.9  15.3  34004  286.94 0855.38
2009/04/23 07:46:06.3     179     84     53    198    206  64.8  15.2  33996  286.81 0855.38
2009/04/23 07:46:06.4     168     91     42    192    197  61.4  12.6  33992  286.74 0855.38
2009/04/23 07:46:06.5     115    113     91    162    185  45.6  31.6  34046  287.65 0855.38
2009/04/23 07:46:06.6     134    100     76    168    184  53.1  26.2  34028  287.33 0855.38
2009/04/23 07:46:06.7     112    105     78    154    172  46.9  29.1  34028  287.35 0855.38
2009/04/23 07:46:06.8     117     96     64    152    164  50.4  24.1  34036  287.47 0855.38
2009/04/23 07:46:06.9     148     74     84    166    186  63.4  28.7  34016  287.15 0855.38
2009/04/23 07:46:07.0     124     79     87    148    171  57.6  33.1  33990  286.69 0855.38
2009/04/23 07:46:07.1     142     86     64    167    178  58.7  22.0  33984  286.59 0855.38
2009/04/23 07:46:07.2     152     79     33    172    176  62.5  11.1  33984  286.61 0855.38
2009/04/23 07:46:07.3     156     73     59    173    183  64.8  18.9  33990  286.69 0855.38
2009/04/23 07:46:07.4     138    113     78    179    195  50.5  25.1  34004  286.93 0855.38
2009/04/23 07:46:07.5     107     88    100    139    171  50.5  39.3  34008  287.00 0855.38
2009/04/23 07:46:07.6      93     83     78    126    148  48.2  35.5  34002  286.91 0855.38
2009/04/23 07:46:07.7      99     79     52    127    137  51.4  23.1  33988  286.66 0855.38
2009/04/23 07:46:07.8     106     77     49    132    140  54.0  21.0  33982  286.57 0855.38
2009/04/23 07:46:07.9     105     50     56    117    129  64.2  27.3  33984  286.61 0855.38
2009/04/23 07:46:08.0     117     57     69    131    148  63.8  30.3  33984  286.59 0855.38
2009/04/23 07:46:08.1     123     40     86    130    155  71.8  36.0  33984  286.59 0855.38
2009/04/23 07:46:08.2     119     37     76    125    146  72.7  34.4  33982  286.57 0855.38
2009/04/23 07:46:08.3      97     33     75    103    127  70.9  39.7  33984  286.61 0855.38
2009/04/23 07:46:08.4      66     22     59     70     91  71.4  44.3  33998  286.84 0855.38
2009/04/23 07:46:08.5      48     30     62     57     84  57.6  52.2  34010  287.03 0855.38
2009/04/23 07:46:08.6      47     14     54     50     73  73.2  52.1  33998  286.84 0855.38
2009/04/23 07:46:08.7      33     26     85     43     95  52.2  71.4  34004  286.94 0855.38
2009/04/23 07:46:08.8      73     31     72     80    107  66.5  46.9  33998  286.84 0855.38
2009/04/23 07:46:08.9      98     10     68     99    120  83.9  37.6  34000  286.86 0855.38
2009/04/23 07:46:09.0     128      8     55    129    140  86.1  24.6  33986  286.64 0855.38
2009/04/23 07:46:09.1     113     13     57    114    127  83.4  28.2  34002  286.91 0855.38
2009/04/23 07:46:09.2      98     19     67    100    120  78.5  37.4  34008  287.01 0855.38
2009/04/23 07:46:09.3     109     22     71    112    132  78.5  35.5  33996  286.81 0855.38
2009/04/23 07:46:09.4      94     10     57     95    110  83.4  34.4  33978  286.51 0855.38
2009/04/23 07:46:09.5      97     -7     53     98    111  94.4  30.8  33982  286.56 0855.37
2009/04/23 07:46:09.6      88    -20     13     91     93 102.8   8.5  33976  286.46 0855.37
2009/04/23 07:46:09.7      76    -16     12     78     79 102.4   9.0  33976  286.47 0855.37
2009/04/23 07:46:09.8      75    -15      5     77     78 101.5   3.8  33974  286.44 0855.37
2009/04/23 07:46:09.9      68    -22      3     72     73 108.2   2.9  33974  286.42 0855.37
2009/04/23 07:46:10.0      51      3    -21     52     56  85.6 -26.4  33982  286.56 0855.37
2009/04/23 07:46:10.1      52     -3    -28     53     59  93.5 -34.7  33986  286.64 0855.37
2009/04/23 07:46:10.2      59      0    -21     60     64  90.0 -19.7  33986  286.64 0855.37
2009/04/23 07:46:10.3      51     -3    -13     52     54  94.3 -14.5  33988  286.67 0855.37
2009/04/23 07:46:10.4      53      0    -18     54     58  90.0 -18.7  33988  286.67 0855.37
2009/04/23 07:46:10.5      58      0     -3     59     60  90.0  -3.2  33986  286.64 0855.37
2009/04/23 07:46:10.6      49     10     -2     51     52  77.6  -2.2  33986  286.62 0855.37
2009/04/23 07:46:10.7      41     -2      7     42     43  93.5  10.1  33984  286.61 0855.37
2009/04/23 07:46:10.8      46     16    -13     49     51  70.0 -15.4  33996  286.79 0855.37
2009/04/23 07:46:10.9      15     91    -30     93     98   9.8 -18.1  34028  287.33 0855.37
2009/04/23 07:46:11.0      14     69    -25     71     75  11.6 -23.3  34014  287.11 0855.37
2009/04/23 07:46:11.1      17     65    -31     68     74  15.1 -31.5  34004  286.93 0855.37
2009/04/23 07:46:11.2      20     66    -26     70     74  16.9 -24.4  34022  287.23 0855.37
2009/04/23 07:46:11.3      10     69    -22     70     73   8.9 -23.8  34042  287.59 0855.37
2009/04/23 07:46:11.4      10     52    -15     54     57  11.6 -15.5  34056  287.81 0855.37
2009/04/23 07:46:11.5       5     69    -25     70     75   4.5 -19.6  34056  287.82 0855.37
2009/04/23 07:46:11.6      29     54    -19     62     64  28.1 -22.8  34056  287.82 0855.37
2009/04/23 07:46:11.7      28     57    -25     64     68  26.3 -25.4  34060  287.89 0855.37
2009/04/23 07:46:11.8      27     45    -16     53     56  30.7 -17.6  34058  287.84 0855.37
2009/04/23 07:46:11.9      45     37    -12     59     61  50.5 -11.5  34058  287.84 0855.37
2009/04/23 07:46:12.0      49     34    -10     60     61  54.9 -10.3  34022  287.23 0855.37
2009/04/23 07:46:12.1      58     23     21     63     67  68.3  18.4  34008  287.01 0855.37
2009/04/23 07:46:12.2      50     17     18     53     57  70.9  19.4  34004  286.94 0855.37
2009/04/23 07:46:12.3      60     26      3     66     67  66.5   2.9  34014  287.11 0855.37
2009/04/23 07:46:12.4      42     19      0     47     48  65.6   0.8  34012  287.06 0855.37
2009/04/23 07:46:12.5      22     23     -1     33     34  43.4  -3.2  34012  287.06 0855.36
2009/04/23 07:46:12.6      20     37     -5     43     44  28.1  -7.3  34014  287.11 0855.36
2009/04/23 07:46:12.7     -15     52    -21     55     58 344.0 -26.4  34020  287.21 0855.36
2009/04/23 07:46:12.8     -49     76    -27     91     95 327.4 -16.6  34044  287.60 0855.36
2009/04/23 07:46:12.9     -29     54    -52     62     80 331.9 -49.2  34038  287.50 0855.36
2009/04/23 07:46:13.0     -38     52   -125     65    140 323.9 -75.2  34038  287.52 0855.36
2009/04/23 07:46:13.1    -101     -7   -132    102    166 265.6 -62.6  34030  287.38 0855.36
2009/04/23 07:46:13.2    -131    -83    -49    156    164 237.6 -17.6  34036  287.49 0855.36
2009/04/23 07:46:13.3     -47     -2    118     48    127 267.4  77.0  34036  287.47 0855.36
2009/04/23 07:46:13.4     -80    -18     82     83    116 257.2  50.5  34030  287.37 0855.36
2009/04/23 07:46:13.5     -54    -25     85     60    104 244.8  61.5  34026  287.30 0855.36
2009/04/23 07:46:13.6     -31    -31     90     44    100 225.0  72.4  34028  287.35 0855.36
2009/04/23 07:46:13.7     -24     -2     82     25     85 263.9  82.8  34030  287.38 0855.36
2009/04/23 07:46:13.8       1    -18     69     19     71 175.6  84.8  34028  287.33 0855.36
2009/04/23 07:46:13.9      -6     -2     67      7     67 251.8  90.0  34026  287.30 0855.36
2009/04/23 07:46:14.0       3     11     57     12     58  18.5  89.0  34028  287.33 0855.36
2009/04/23 07:46:14.1      21     21     69     31     75  45.0  73.1  34044  287.60 0855.36
2009/04/23 07:46:14.2      13     43     70     45     83  16.9  64.1  34048  287.67 0855.36
2009/04/23 07:46:14.3      35     16     54     39     66  64.6  60.6  34052  287.76 0855.36
2009/04/23 07:46:14.4      56     26     49     62     79  64.8  42.7  34052  287.74 0855.36
2009/04/23 07:46:14.5      52      8     28     53     59  81.2  30.3  34048  287.69 0855.37
2009/04/23 07:46:14.6      17     22     17     28     32  37.8  35.5  34048  287.69 0855.37
2009/04/23 07:46:14.7      16     21     29     27     39  37.8  51.2  34048  287.67 0855.37
2009/04/23 07:46:14.8      36     18     24     41     47  62.9  33.5  34052  287.74 0855.37
2009/04/23 07:46:14.9      40     24     40     47     61  59.3  44.8  34054  287.79 0855.37
2009/04/23 07:46:15.0      24     61     49     66     82  21.8  40.7  34060  287.87 0855.37
2009/04/23 07:46:15.1      39     61     51     73     89  32.5  38.6  34074  288.13 0855.37
2009/04/23 07:46:15.2      30     48     51     57     76  32.6  47.9  34072  288.09 0855.37
2009/04/23 07:46:15.3      68     64     40     94    102  46.4  24.1  34092  288.43 0855.37
2009/04/23 07:46:15.4     102     84     80    133    155  50.5  34.4  34094  288.47 0855.37
2009/04/23 07:46:15.5     124    106     89    164    186  49.3  30.8  34078  288.18 0855.37
2009/04/23 07:46:15.6     124    130     98    180    204  43.7  31.3  34076  288.16 0855.37
2009/04/23 07:46:15.7     102    147     97    180    204  34.7  30.8  34076  288.16 0855.37
2009/04/23 07:46:15.8     129    104     71    166    180  51.1  24.3  34066  287.98 0855.37
2009/04/23 07:46:15.9     123    108     58    165    176  48.7  19.6  34070  288.06 0855.37
2009/04/23 07:46:16.0      98    111     60    149    160  41.5  23.0  34078  288.20 0855.37
2009/04/23 07:46:16.1     109     68     70    129    146  58.0  30.8  34060  287.89 0855.37
2009/04/23 07:46:16.2      95    114     33    149    153  39.7  12.6  34044  287.60 0855.37
2009/04/23 07:46:16.3     120    129      9    177    178  42.8   2.9  34032  287.40 0855.37
2009/04/23 07:46:16.4     115    103     34    155    159  48.2  12.4  34040  287.54 0855.37
2009/04/23 07:46:16.5     133     79     17    155    156  59.3   6.5  34038  287.52 0855.37
2009/04/23 07:46:16.6     131     70      9    149    150  61.6   3.8  34034  287.45 0855.37
2009/04/23 07:46:16.7      92    122     18    153    155  37.0   6.9  34026  287.30 0855.37
2009/04/23 07:46:16.8      90    107      7    140    141  40.1   2.9  34028  287.35 0855.37
2009/04/23 07:46:16.9      88    106     14    138    139  39.6   5.9  34032  287.40 0855.37
2009/04/23 07:46:17.0      53     84     25    100    104  32.1  14.3  34046  287.64 0855.37
2009/04/23 07:46:17.1      16    100      2    102    103   9.3   1.2  34046  287.64 0855.37
2009/04/23 07:46:17.2      30    106     -8    111    112  16.0  -4.1  34042  287.57 0855.37
2009/04/23 07:46:17.3      46    102    -14    113    114  24.5  -7.3  34038  287.52 0855.37
2009/04/23 07:46:17.4      21    106     -4    109    110  11.1  -2.2  34042  287.57 0855.37
2009/04/23 07:46:17.5       7    102      4    103    104   4.4   2.3  34046  287.64 0855.37
2009/04/23 07:46:17.6      11     79      3     80     81   8.0   2.3  34042  287.59 0855.37
2009/04/23 07:46:17.7      16     50    -18     53     55  17.8 -23.6  34042  287.57 0855.37
2009/04/23 07:46:17.8      23     70    -38     74     83  18.5 -33.7  34040  287.55 0855.37
2009/04/23 07:46:17.9     -26     46    -66     54     85 330.1 -60.8  34022  287.25 0855.37
2009/04/23 07:46:18.0     -58     40    -50     71     86 305.1 -43.0  34014  287.11 0855.37
2009/04/23 07:46:18.1     -45     37    -51     59     77 309.6 -50.2  34018  287.16 0855.37
2009/04/23 07:46:18.3     -72     59    -27     94     97 309.5 -21.2  34066  287.98 0855.37
2009/04/23 07:46:18.4     -66    104    -35    124    128 327.5 -20.2  34064  287.94 0855.37
2009/04/23 07:46:18.5     -57     92    -37    109    116 328.4 -18.7  34054  287.79 0855.37
2009/04/23 07:46:18.6     -53     86    -41    102    109 328.4 -27.4  34046  287.64 0855.37
2009/04/23 07:46:18.7     -45     98    -37    109    115 335.1 -23.3  34020  287.21 0855.37
2009/04/23 07:46:18.8     -47    100    -31    111    116 334.5 -15.5  34010  287.05 0855.37
2009/04/23 07:46:18.9     -42     91    -29    101    105 335.1 -21.2  33990  286.69 0855.37
2009/04/23 07:46:19.0     -25     97    -32    101    106 345.3 -17.6  34008  287.01 0855.37
2009/04/23 07:46:19.1       0     97    -12     98     99 359.6  -7.3  34012  287.06 0855.37
2009/04/23 07:46:19.2       0     82    -25     83     87   0.0 -17.0  34006  286.96 0855.37
2009/04/23 07:46:19.3       1     95    -31     96    101   0.9 -18.1  34002  286.91 0855.37
2009/04/23 07:46:19.4      -6     95    -54     96    110 356.0 -36.3  34000  286.86 0855.37
2009/04/23 07:46:19.5       7    112    -61    113    128   3.6 -35.2  34026  287.30 0855.37
2009/04/23 07:46:19.6      44     98    -15    108    110  24.1  -8.2  34044  287.60 0855.37
2009/04/23 07:46:19.7      42     86     12     97     98  26.3   7.5  34040  287.54 0855.37
2009/04/23 07:46:19.8      41    111     10    119    120  20.5   4.9  34020  287.20 0855.37
2009/04/23 07:46:19.9      22    111    -10    114    115  11.6  -5.2  34020  287.20 0855.37
2009/04/23 07:46:20.0      20     81    -10     84     85  14.3  -7.3  34018  287.16 0855.37
2009/04/23 07:46:20.1       0     53    -22     54     58 359.1 -26.4  34012  287.08 0855.37
2009/04/23 07:46:20.2      10     65    -18     66     69   8.9 -15.5  34018  287.16 0855.37
2009/04/23 07:46:20.3      21     67    -26     71     75  17.8 -23.3  34020  287.20 0855.37
2009/04/23 07:46:20.4      51     81    -29     96    100  32.1 -21.7  34020  287.20 0855.37
2009/04/23 07:46:20.5      59     93    -35    111    117  32.6 -17.6  34038  287.50 0855.37
2009/04/23 07:46:20.6      78    113    -17    138    140  34.7  -7.3  34074  288.11 0855.37
2009/04/23 07:46:20.7     122     62      6    137    138  63.0   2.9  34100  288.55 0855.37
2009/04/23 07:46:20.8     129     63      7    144    145  63.8   2.8  34086  288.33 0855.37
2009/04/23 07:46:20.9     116     64      2    133    134  61.2   1.2  34072  288.08 0855.37
2009/04/23 07:46:21.0     125     74     27    146    149  59.3  10.6  34100  288.57 0855.37
2009/04/23 07:46:21.1     122     68     66    141    155  60.7  27.1  34080  288.23 0855.37
2009/04/23 07:46:21.2     124     63     67    140    155  62.9  27.3  34084  288.28 0855.37
2009/04/23 07:46:21.3     141     49     62    150    162  70.9  23.6  34064  287.96 0855.37
2009/04/23 07:46:21.4     113     41     73    121    141  70.1  34.0  34068  288.03 0855.37
2009/04/23 07:46:21.5     142    108     49    179    186  52.5  15.6  34010  287.05 0855.37
2009/04/23 07:46:21.6     140     99     49    172    179  54.7  16.0  34004  286.94 0855.37
2009/04/23 07:46:21.7     157     90     46    182    188  60.2  14.3  34012  287.08 0855.37
2009/04/23 07:46:21.8     157    100     66    187    199  57.6  19.6  34044  287.60 0855.37
2009/04/23 07:46:21.9     165     84     49    186    193  63.1  15.0  34034  287.43 0855.37
2009/04/23 07:46:22.0     183    109     77    214    227  59.3  20.7  34106  288.67 0855.37
2009/04/23 07:46:22.1     181     92     83    204    220  63.1  23.1  34132  289.11 0855.37
2009/04/23 07:46:22.2     184     83    105    203    228  65.6  29.3  34110  288.72 0855.37
2009/04/23 07:46:22.3     171    111     40    205    209  56.9  11.1  34106  288.65 0855.37
2009/04/23 07:46:22.4     177     73      4    192    193  67.6   1.2  34000  286.86 0855.37
2009/04/23 07:46:22.5     171     81     -2    190    191  64.7  -0.7  34000  286.86 0855.37
2009/04/23 07:46:22.6     167     73      9    183    184  66.5   2.9  34002  286.89 0855.37
2009/04/23 07:46:22.7     152     65     32    166    170  66.9  11.1  34004  286.94 0855.37
2009/04/23 07:46:22.8     177     65     66    189    201  69.6  19.2  34012  287.06 0855.37
2009/04/23 07:46:22.9     163     77     53    181    189  64.8  16.3  33998  286.83 0855.37
2009/04/23 07:46:23.0     149     71     47    166    173  64.5  16.0  33994  286.76 0855.37
2009/04/23 07:46:23.1     138     88     40    165    170  57.4  13.7  33990  286.69 0855.37
2009/04/23 07:46:23.2     142    117     39    184    189  50.5  12.2  34004  286.94 0855.37
2009/04/23 07:46:23.3     145     92     26    172    175  57.6   8.8  34002  286.89 0855.37
2009/04/23 07:46:23.4     118    107     29    160    163  47.8  10.6  34022  287.25 0855.37
2009/04/23 07:46:23.5     107     78     36    133    138  54.1  15.3  34054  287.77 0855.37
2009/04/23 07:46:23.6     119     94     29    152    155  51.8  11.1  34046  287.65 0855.37
2009/04/23 07:46:23.7     130     60     27    144    147  65.2  10.6  33996  286.79 0855.37
2009/04/23 07:46:23.9     125     66     27    142    145  62.0  11.0  34000  286.86 0855.37
2009/04/23 07:46:24.0     108     68     40    128    135  57.6  17.4  34020  287.20 0855.37
2009/04/23 07:46:24.1     126     72     50    146    155  60.2  18.9  34006  286.98 0855.37
2009/04/23 07:46:24.2     136     75     62    156    167  61.2  22.8  34012  287.06 0855.37
2009/04/23 07:46:24.3     163     64     53    176    184  68.5  16.8  34058  287.86 0855.37
2009/04/23 07:46:24.4     189     44     50    195    202  76.7  14.5  34060  287.87 0855.37
2009/04/23 07:46:24.5     202     33     72    205    217  80.5  20.2  34066  287.98 0855.37
2009/04/23 07:46:24.6     211     40     58    215    223  79.2  15.3  34044  287.60 0855.37
2009/04/23 07:46:24.7     204     26     72    206    218  82.5  20.0  34066  287.98 0855.37
2009/04/23 07:46:24.8     218     49     47    224    230  77.2  12.0  34022  287.25 0855.37
2009/04/23 07:46:24.9     211     70     60    223    232  71.6  15.2  33998  286.83 0855.37
2009/04/23 07:46:25.0     175     69     68    189    200  68.3  20.4  33996  286.79 0855.37
2009/04/23 07:46:25.1     169     60     64    180    191  70.3  20.0  33986  286.64 0855.37
2009/04/23 07:46:25.2     156     49     37    164    169  72.5  12.9  33994  286.78 0855.37
2009/04/23 07:46:25.3     130     71     51    149    158  61.1  19.2  33994  286.78 0855.37
2009/04/23 07:46:25.4     119    116     73    167    182  45.6  25.1  34002  286.89 0855.37
2009/04/23 07:46:25.5      93    128     82    159    178  36.1  29.5  34008  287.01 0855.37
2009/04/23 07:46:25.6     111    122     65    166    178  42.3  22.5  33992  286.74 0855.37
2009/04/23 07:46:25.7      95    115     57    150    160  39.6  21.5  33994  286.78 0855.37
2009/04/23 07:46:25.8     111     81     51    138    147  54.0  20.9  33998  286.84 0855.37
2009/04/23 07:46:25.9     108     64     46    126    134  59.4  20.4  34002  286.89 0855.37
2009/04/23 07:46:26.0     127     56     49    139    148  66.0  19.4  34000  286.86 0855.37
2009/04/23 07:46:26.1     121     53     47    133    142  66.5  19.4  34006  286.96 0855.37
2009/04/23 07:46:26.2     117     46     49    126    135  68.3  21.5  34012  287.08 0855.37
2009/04/23 07:46:26.3     103     41     46    111    120  68.3  23.6  34008  287.01 0855.37
2009/04/23 07:46:26.4     110     52     47    122    130  64.6  22.0  34004  286.94 0855.37
2009/04/23 07:46:26.5     105     54     48    119    128  62.5  23.0  33998  286.83 0855.37
2009/04/23 07:46:26.6     104     67     47    125    133  57.1  21.0  33998  286.83 0855.38
2009/04/23 07:46:26.7     119     48     37    129    135  67.8  16.3  34002  286.91 0855.38
2009/04/23 07:46:26.8     112     37     13    119    120  71.4   6.5  34008  287.01 0855.38
2009/04/23 07:46:26.9     105     67     29    125    129  57.5  13.2  34004  286.93 0855.38
2009/04/23 07:46:27.0     102     57      9    117    118  60.7   4.4  34022  287.25 0855.38
2009/04/23 07:46:27.1      97     66     27    118    122  55.8  13.2  34000  286.86 0855.38
2009/04/23 07:46:27.2      94     48     16    106    108  62.9   9.0  34024  287.27 0855.38
2009/04/23 07:46:27.3      98     53     30    112    117  61.6  15.2  34006  286.98 0855.38
2009/04/23 07:46:27.4      87     44     29     98    103  62.9  16.8  34006  286.96 0855.38
2009/04/23 07:46:27.5      76     36     13     85     87  64.2   9.0  34012  287.06 0855.38
2009/04/23 07:46:27.6      73     31     17     80     82  66.5  12.6  34012  287.08 0855.38
2009/04/23 07:46:27.7      57     30     24     65     69  62.0  20.0  34006  286.96 0855.38
2009/04/23 07:46:27.8      57     36     41     68     79  57.6  34.0  34012  287.06 0855.38
2009/04/23 07:46:27.9      57     36     41     68     79  57.6  34.0  34008  287.01 0855.38
2009/04/23 07:46:28.0      54     39     39     67     77  54.0  33.5  34010  287.05 0855.38
2009/04/23 07:46:28.1      46     46     31     66     72  45.0  27.1  34006  286.98 0855.38
2009/04/23 07:46:28.2      56     47     11     74     75  49.6   9.0  34006  286.98 0855.38
2009/04/23 07:46:28.3      57     40      4     70     71  54.9   3.8  34004  286.93 0855.38
2009/04/23 07:46:28.4      45     35     11     58     60  52.2  11.0  34006  286.98 0855.38
2009/04/23 07:46:28.5      46     25     11     53     55  61.1  12.2  34004  286.93 0855.38
2009/04/23 07:46:28.6      48     15     15     51     54  72.3  16.3  34006  286.96 0855.38
2009/04/23 07:46:28.7      47     11     19     49     52  76.7  22.0  34012  287.06 0855.38
2009/04/23 07:46:28.8      48     12      6     50     51  75.8   6.9  34012  287.06 0855.38
2009/04/23 07:46:28.9      32     32    -16     46     48  44.2 -23.3  34006  286.96 0855.38
2009/04/23 07:46:29.0      42     30    -26     52     58  54.0 -32.6  34010  287.03 0855.38
2009/04/23 07:46:29.1      35     29    -19     46     49  49.6 -27.4  34008  287.00 0855.38
2009/04/23 07:46:29.2      32     20    -26     39     46  57.6 -40.9  34008  287.00 0855.38
2009/04/23 07:46:29.3      22     22    -31     32     44  45.0 -55.5  34006  286.98 0855.38
2009/04/23 07:46:29.4      14     22    -26     27     37  32.5 -56.4  34008  287.00 0855.38
2009/04/23 07:46:29.5      26     23    -21     35     40  48.7 -38.8  34006  286.96 0855.38
2009/04/23 07:46:29.6      32     15    -22     36     42  64.7 -38.8  34000  286.88 0855.38
2009/04/23 07:46:29.7      31     10    -32     33     45  71.8 -54.4  34004  286.93 0855.38
2009/04/23 07:46:29.8      35      7    -31     36     47  78.5 -50.2  34000  286.88 0855.38
2009/04/23 07:46:29.9      29      2    -31     30     43  85.6 -54.5  34000  286.88 0855.38
2009/04/23 07:46:30.0      29     -3    -25     30     39  96.1 -48.2  33998  286.84 0855.38
2009/04/23 07:46:30.1      27     -9    -13     29     31 108.6 -31.5  34000  286.88 0855.38
2009/04/23 07:46:30.2      24      4    -16     25     29  80.3 -39.9  33998  286.84 0855.38
2009/04/23 07:46:30.3      25     16    -19     30     35  57.6 -39.9  34002  286.89 0855.38
2009/04/23 07:46:30.4      50     16    -31     53     61  72.3 -37.9  34000  286.88 0855.38
2009/04/23 07:46:30.5      50     16    -31     53     61  72.3 -37.9  34000  286.88 0855.38
2009/04/23 07:46:30.6      51     12    -30     53     60  75.8 -35.8  34002  286.89 0855.38
2009/04/23 07:46:30.7      59     23    -28     64     69  68.3 -30.6  34002  286.91 0855.38
2009/04/23 07:46:30.8      46     29    -34     55     64  57.6 -39.9  34006  286.98 0855.38
2009/04/23 07:46:30.9      51     34    -18     62     65  55.8 -16.6  34018  287.16 0855.38
2009/04/23 07:46:31.0      51     47    -19     70     73  47.8 -15.5  34016  287.13 0855.38
2009/04/23 07:46:31.1      35     55    -19     66     69  32.6 -16.6  34014  287.11 0855.38
2009/04/23 07:46:31.2      32     64    -35     72     80  27.2 -32.2  34006  286.98 0855.38
2009/04/23 07:46:31.3      19     55    -50     59     77  19.2 -48.2  33992  286.73 0855.38
2009/04/23 07:46:31.4      12     51    -62     53     81  13.4 -59.2  33982  286.56 0855.38
2009/04/23 07:46:31.5      18     51    -73     55     91  19.2 -63.4  33984  286.59 0855.38
2009/04/23 07:46:31.6      14     30    -67     34     75  25.3 -76.3  33980  286.54 0855.38
2009/04/23 07:46:31.7      13      0    -46     14     48  90.0 -85.1  33978  286.49 0855.38
2009/04/23 07:46:31.8      40      2    -49     41     63  86.5 -59.8  33980  286.52 0855.38
2009/04/23 07:46:31.9      24    -27    -46     37     59 138.6 -60.8  33980  286.54 0855.38
2009/04/23 07:46:32.0      36      3    -45     37     58  83.9 -60.7  33982  286.56 0855.38
2009/04/23 07:46:32.1      46     26    -46     53     70  60.2 -49.2  33980  286.54 0855.38
2009/04/23 07:46:32.2      43     35    -45     56     71  50.5 -48.1  33984  286.61 0855.38
2009/04/23 07:46:32.3      47     18    -53     51     73  68.3 -54.5  33986  286.62 0855.38
2009/04/23 07:46:32.4      58     17    -50     61     78  73.2 -48.1  33996  286.81 0855.38
2009/04/23 07:46:32.5      71     -1    -46     72     85  90.9 -40.0  34006  286.98 0855.38
2009/04/23 07:46:32.6      61    -29    -38     68     77 115.3 -35.8  34008  287.01 0855.38
2009/04/23 07:46:32.7      46    -38    -43     60     73 129.6 -44.1  34004  286.94 0855.38
2009/04/23 07:46:32.8      52    -30    -28     61     67 119.8 -30.6  34002  286.91 0855.38
2009/04/23 07:46:32.9      61    -29    -18     68     71 115.4 -15.5  34004  286.93 0855.38
2009/04/23 07:46:33.0      70    -45      8     84     85 122.4   5.9  33998  286.84 0855.38
2009/04/23 07:46:33.1      64    -41     30     77     82 122.5  22.0  33996  286.81 0855.38
2009/04/23 07:46:33.2      65    -64     34     92     98 134.4  21.5  33996  286.81 0855.38
2009/04/23 07:46:33.3      69    -52     24     87     91 127.3  15.3  34002  286.91 0855.38
2009/04/23 07:46:33.4      79    -65    -13    103    104 129.5  -7.7  34004  286.94 0855.38
2009/04/23 07:46:33.5     117    -40     -2    124    125 109.1  -1.3  34008  287.00 0855.38
2009/04/23 07:46:33.6     158    -47     32    165    169 106.6  11.1  34002  286.89 0855.37
2009/04/23 07:46:33.7     155    -46     56    162    172 106.6  19.2  33996  286.79 0855.37
2009/04/23 07:46:33.8     127    -30     65    131    146 103.3  27.8  34002  286.89 0855.37
2009/04/23 07:46:33.9     149    -30     88    152    175 101.5  32.7  33998  286.83 0855.37
2009/04/23 07:46:34.0     142    -34    100    147    177 103.7  37.6  34000  286.88 0855.37
2009/04/23 07:46:34.1     120    -52     81    132    154 113.6  35.5  34000  286.88 0855.37
2009/04/23 07:46:34.2     122    -26     84    125    150 102.4  37.0  34002  286.89 0855.37
2009/04/23 07:46:34.3     149    -35     77    154    172 103.3  28.2  34002  286.89 0855.37
2009/04/23 07:46:34.4     145    -28     79    148    167 101.0  30.3  33998  286.83 0855.37
2009/04/23 07:46:34.5     141    -19     95    143    171  97.9  36.7  34002  286.91 0855.37
2009/04/23 07:46:34.6     125    -17     94    127    158  97.9  40.1  34010  287.05 0855.37
2009/04/23 07:46:34.7     139    -14     86    140    164  96.1  34.8  34010  287.03 0855.37
2009/04/23 07:46:34.8     126    -26     61    129    142 101.9  27.1  34000  286.88 0855.37
2009/04/23 07:46:34.9     129    -39     77    135    155 106.9  32.4  34006  286.96 0855.37
2009/04/23 07:46:35.0     111    -37     92    118    149 108.6  42.2  34010  287.03 0855.37
2009/04/23 07:46:35.1     101    -27     80    105    132 105.1  41.6  34012  287.08 0855.37
2009/04/23 07:46:35.2      93     -4    104     94    140  93.0  52.7  34008  287.00 0855.37
2009/04/23 07:46:35.3      96      7    100     97    139  85.6  50.7  34002  286.89 0855.37
2009/04/23 07:46:35.4     104     -3    100    105    145  91.7  49.0  33998  286.83 0855.37
2009/04/23 07:46:35.5     141     16     64    142    155  83.4  26.2  33994  286.78 0855.37
2009/04/23 07:46:35.6     144      0     65    145    158  90.0  25.9  33996  286.79 0855.37
2009/04/23 07:46:35.7     119     12     82    120    145  83.9  37.6  33992  286.74 0855.37
2009/04/23 07:46:35.8     154      9     61    155    166  86.5  22.8  33994  286.76 0855.37
2009/04/23 07:46:35.9     124      0     79    125    147  90.0  35.5  34000  286.88 0855.37
2009/04/23 07:46:36.0      85      5     99     86    131  86.1  54.3  34004  286.94 0855.37
2009/04/23 07:46:36.1      75     20    100     78    126  75.0  58.4  34000  286.86 0855.37
2009/04/23 07:46:36.2      33     21     89     40     97  56.7  74.5  34000  286.88 0855.37
2009/04/23 07:46:36.3      71      5    130     72    148  85.6  68.8  33992  286.74 0855.37
2009/04/23 07:46:36.4     133     31    122    137    183  76.7  46.6  33990  286.69 0855.37
2009/04/23 07:46:36.5     119     36    100    125    160  73.1  42.7  33990  286.69 0855.37
2009/04/23 07:46:36.6     111     21    108    114    157  79.0  48.5  33994  286.76 0855.37
2009/04/23 07:46:36.7      13     -2     82     14     83 101.5  90.0  33992  286.73 0855.37
2009/04/23 07:46:36.8     -36      0     58     37     68 270.0  64.7  33998  286.83 0855.37
2009/04/23 07:46:36.9     -37     -5     57     38     68 262.1  64.6  34000  286.86 0855.37
2009/04/23 07:46:37.0     -12    -38     53     40     66 197.8  59.4  33998  286.83 0855.37
2009/04/23 07:46:37.1       4    -22     63     23     67 168.4  80.2  34000  286.86 0855.37
2009/04/23 07:46:37.2      22    -55     88     60    106 158.2  62.6  34000  286.86 0855.37
2009/04/23 07:46:37.3     -14    -22     93     27     96 212.6  82.8  33998  286.83 0855.37
2009/04/23 07:46:37.4      12    -14     46     19     49 140.4  77.1  33992  286.73 0855.37
2009/04/23 07:46:37.5     -80     -1     43     81     91 269.2  30.3  33992  286.74 0855.37
2009/04/23 07:46:37.6    -136    -44     58    144    155 251.8  23.0  33994  286.78 0855.38
2009/04/23 07:46:37.7    -126    -91     45    156    163 234.1  16.3  34000  286.88 0855.38
2009/04/23 07:46:37.8    -108   -106     62    152    164 225.6  23.4  33996  286.81 0855.38
2009/04/23 07:46:37.9    -132    -88     35    159    163 236.3  12.6  33994  286.78 0855.38
2009/04/23 07:46:38.0    -109    -90     17    142    144 230.5   7.1  33996  286.79 0855.38
2009/04/23 07:46:38.1     -81    -73     48    110    120 227.8  25.1  33994  286.78 0855.38
2009/04/23 07:46:38.2     -68    -81     77    106    131 220.1  39.7  33994  286.76 0855.38
2009/04/23 07:46:38.3     -61    -86     69    106    126 215.6  35.6  33994  286.76 0855.38
2009/04/23 07:46:38.4     -78    -78     45    111    119 225.0  23.1  33992  286.73 0855.38
2009/04/23 07:46:38.5     -18    -53     49     57     75 198.7  44.8  33990  286.71 0855.38
2009/04/23 07:46:38.6      62    -10     65     63     90  99.7  50.7  33990  286.71 0855.38
2009/04/23 07:46:38.7      -1    -18     17     19     25 184.4  47.9  33988  286.66 0855.38
2009/04/23 07:46:38.8     -32     -7     42     33     53 256.7  56.4  33992  286.74 0855.38
2009/04/23 07:46:38.9       7    -55     35     56     66 172.0  35.5  33990  286.71 0855.38
2009/04/23 07:46:39.0     -18    -45     21     49     53 202.7  24.1  33988  286.66 0855.38
2009/04/23 07:46:39.1     -29   -108     70    112    132 195.1  35.5  33986  286.64 0855.38
2009/04/23 07:46:39.2     -44   -135     36    143    148 198.3  14.3  33990  286.69 0855.38
2009/04/23 07:46:39.3     -74   -134     62    154    166 208.9  23.4  33990  286.71 0855.38
2009/04/23 07:46:39.4     -56   -140     62    151    163 201.8  23.4  33994  286.76 0855.38
2009/04/23 07:46:39.5     -38   -142     29    148    151 195.1  11.1  33996  286.81 0855.38
2009/04/23 07:46:39.6     -53   -133     24    144    146 201.9   9.5  33992  286.73 0855.38
2009/04/23 07:46:39.7     -59   -124     26    138    141 205.4  11.0  33986  286.64 0855.38
2009/04/23 07:46:39.8     -51    -80     19     96     99 212.6  11.6  33984  286.61 0855.38
2009/04/23 07:46:39.9     -47    -89     26    101    105 208.1  14.7  33984  286.61 0855.38
2009/04/23 07:46:40.0     -27    -79     47     84     96 199.2  31.9  33982  286.57 0855.38
2009/04/23 07:46:40.1     -16    -85      5     87     88 191.1   3.3  33982  286.56 0855.38
2009/04/23 07:46:40.2      -8   -114     -5    115    116 184.5  -2.6  33986  286.62 0855.38
2009/04/23 07:46:40.3     -23   -138     27    141    144 189.7  11.1  33982  286.56 0855.38
2009/04/23 07:46:40.4     -28   -141     28    144    147 191.5  11.1  33982  286.57 0855.38
2009/04/23 07:46:40.5     -13   -131     26    132    135 185.8  11.1  33988  286.67 0855.38
2009/04/23 07:46:40.6      -4   -162     33    163    167 181.6  11.4  33988  286.67 0855.38
2009/04/23 07:46:40.7      14   -146     32    147    151 174.2  12.6  33984  286.61 0855.38
2009/04/23 07:46:40.8       9   -123     29    124    128 175.6  13.1  33986  286.62 0855.38
2009/04/23 07:46:40.9      -9   -116     31    117    122 184.5  15.2  33992  286.73 0855.38
2009/04/23 07:46:41.0     -24   -119     28    122    126 191.5  13.1  33990  286.69 0855.38
2009/04/23 07:46:41.1     -21   -140     27    142    145 188.9  11.1  33992  286.73 0855.38
2009/04/23 07:46:41.2     -35   -136     17    141    143 194.7   6.9  33992  286.74 0855.38
2009/04/23 07:46:41.3     -32   -118     26    123    126 195.2  12.2  33992  286.74 0855.38
2009/04/23 07:46:41.4     -45   -115     19    124    126 201.4   9.0  33992  286.73 0855.38
2009/04/23 07:46:41.5     -54   -120     20    132    134 204.5   9.0  33992  286.74 0855.38
2009/04/23 07:46:41.6     -36   -123     45    129    137 196.5  19.4  33988  286.67 0855.38
2009/04/23 07:46:41.7     -32   -119     49    124    133 195.2  22.5  33988  286.67 0855.38
2009/04/23 07:46:41.8     -43   -129     35    137    142 198.5  14.3  33980  286.54 0855.38
2009/04/23 07:46:41.9     -41   -124     35    131    136 198.3  15.2  33984  286.61 0855.38
2009/04/23 07:46:42.0     -71    -92     46    117    125 217.4  22.5  33986  286.64 0855.38
2009/04/23 07:46:42.1     -57   -121     36    134    139 205.3  15.3  33984  286.61 0855.38
2009/04/23 07:46:42.2     -80    -99     33    128    133 219.2  14.7  33986  286.64 0855.38
2009/04/23 07:46:42.3     -55    -97      3    112    113 209.9   1.8  33984  286.61 0855.38
2009/04/23 07:46:42.4     -27   -133      0    136    137 191.6   0.2  33986  286.64 0855.38
2009/04/23 07:46:42.5     -26   -116      2    120    121 192.9   1.2  33986  286.64 0855.38
2009/04/23 07:46:42.6     -58   -113     -7    128    129 207.2  -3.2  33990  286.71 0855.38
2009/04/23 07:46:42.7     -77   -130      7    152    153 210.7   2.9  33986  286.64 0855.38
2009/04/23 07:46:42.8     -66   -139     31    154    158 205.4  11.6  33986  286.62 0855.38
2009/04/23 07:46:42.9     -59   -154     20    166    168 201.2   6.9  33984  286.59 0855.38
2009/04/23 07:46:43.0     -57   -140     21    152    154 202.3   8.0  33980  286.54 0855.38
2009/04/23 07:46:43.1     -52   -145     26    155    158 200.0   9.5  33980  286.54 0855.38
2009/04/23 07:46:43.2     -45   -134     22    142    144 198.7   8.9  33980  286.54 0855.38
2009/04/23 07:46:43.3     -27   -136     47    139    148 191.5  18.9  33978  286.49 0855.38
2009/04/23 07:46:43.4     -29   -146     64    149    162 191.5  24.6  33980  286.54 0855.38
2009/04/23 07:46:43.5     -29   -152     58    155    165 191.1  21.0  33978  286.51 0855.38
2009/04/23 07:46:43.6     -54   -138     69    149    164 201.4  26.6  33980  286.54 0855.38
2009/04/23 07:46:43.7     -78   -136     75    157    173 209.9  27.3  33980  286.54 0855.38
2009/04/23 07:46:43.8     -96   -108     24    145    148 221.5   9.5  33982  286.56 0855.38
2009/04/23 07:46:43.9     -74   -116     35    138    143 212.6  14.3  33980  286.54 0855.38
2009/04/23 07:46:44.0     -71   -138     34    156    160 207.2  12.4  33980  286.52 0855.38
2009/04/23 07:46:44.1    -100   -158     18    188    189 212.5   5.7  33980  286.54 0855.38
2009/04/23 07:46:44.2     -46   -136     48    144    152 198.7  18.6  33978  286.51 0855.38
2009/04/23 07:46:44.3     -37   -141     86    146    169 194.7  33.5  33980  286.52 0855.38
2009/04/23 07:46:44.4     -74   -155     66    172    184 205.6  22.0  33980  286.52 0855.38
2009/04/23 07:46:44.5     -83   -156     37    177    182 208.1  12.0  33978  286.51 0855.38
2009/04/23 07:46:44.6     -75   -135     31    155    159 209.0  11.4  33980  286.52 0855.38
2009/04/23 07:46:44.7     -40   -121     88    128    155 198.3  37.6  33984  286.61 0855.38
2009/04/23 07:46:44.8     -40   -112     87    120    148 200.0  39.7  33986  286.64 0855.38
2009/04/23 07:46:44.9     -50   -123     86    134    159 202.3  35.7  33984  286.59 0855.38
2009/04/23 07:46:45.0     -68   -143     75    159    175 205.5  27.1  33982  286.56 0855.38
2009/04/23 07:46:45.1     -73   -132     52    151    160 209.0  19.2  33978  286.51 0855.38
2009/04/23 07:46:45.2    -109   -127     35    168    172 220.8  12.0  33980  286.52 0855.38
2009/04/23 07:46:45.3     -83   -120     48    147    155 214.7  18.1  33982  286.56 0855.38
2009/04/23 07:46:45.4     -76   -119     44    142    149 212.6  17.4  33980  286.54 0855.38
2009/04/23 07:46:45.5     -85   -114      5    143    144 216.5   2.3  33980  286.54 0855.38
2009/04/23 07:46:45.6     -64   -100     45    119    127 212.6  21.5  33982  286.57 0855.38
2009/04/23 07:46:45.7     -75    -74     10    106    107 225.1   5.4  33980  286.52 0855.38
2009/04/23 07:46:45.8     -91    -91    -28    129    133 225.0 -12.4  33978  286.51 0855.38
2009/04/23 07:46:45.9     -81    -66    -56    105    119 230.5 -34.7  33978  286.49 0855.38
2009/04/23 07:46:46.0     -97    -97    -57    138    149 225.2 -27.5  33974  286.42 0855.38
2009/04/23 07:46:46.1    -106   -126    -22    165    167 220.1  -7.7  33978  286.49 0855.38
2009/04/23 07:46:46.2     -73   -103     11    127    128 215.2   5.0  33976  286.47 0855.38
2009/04/23 07:46:46.3     -51   -129     19    139    141 201.8   8.0  33978  286.51 0855.38
2009/04/23 07:46:46.4     -87   -135     -6    161    162 213.0  -2.2  33976  286.46 0855.38
2009/04/23 07:46:46.5    -106    -99    -22    146    148 226.8  -8.8  33974  286.44 0855.38
2009/04/23 07:46:46.6    -105    -80    -31    133    137 232.7 -13.4  33974  286.42 0855.38
2009/04/23 07:46:46.7    -119    -66    -47    137    146 241.1 -19.1  33978  286.49 0855.38
2009/04/23 07:46:46.8    -115    -89    -29    146    149 232.2 -11.3  33976  286.47 0855.38
2009/04/23 07:46:46.9    -107    -60    -36    123    128 240.7 -21.2  33976  286.47 0855.38
2009/04/23 07:46:47.0     -77    -93     -4    121    122 219.7  -2.2  33976  286.47 0855.38
2009/04/23 07:46:47.1     -60   -109     12    125    126 208.9   5.9  33976  286.47 0855.38
2009/04/23 07:46:47.2     -21   -140      6    142    143 188.9   2.8  33976  286.47 0855.38
2009/04/23 07:46:47.3     -14   -135      6    136    137 186.2   2.8  33978  286.51 0855.38
2009/04/23 07:46:47.4     -11   -164      8    165    166 184.0   2.8  33978  286.51 0855.38
2009/04/23 07:46:47.5      -2   -178     15    179    180 180.9   4.9  33976  286.46 0855.38
2009/04/23 07:46:47.6      -3   -159     37    160    165 181.1  13.2  33978  286.51 0855.37
2009/04/23 07:46:47.7      -2   -183     35    184    188 180.7  11.0  33976  286.46 0855.37
2009/04/23 07:46:47.8      -3   -188     38    189    193 181.1  11.6  33978  286.49 0855.37
2009/04/23 07:46:47.9     -30   -182     42    185    190 189.6  12.9  33980  286.52 0855.37
2009/04/23 07:46:48.0     -42   -234     43    238    242 190.2  10.3  33978  286.48 0855.37
2009/04/23 07:46:48.1     -26   -204     64    206    216 187.3  17.4  33978  286.51 0855.37
2009/04/23 07:46:48.2     -14   -215     60    216    225 183.8  15.6  33978  286.51 0855.37
2009/04/23 07:46:48.4      18   -232     82    233    248 175.5  19.4  33978  286.50 0855.37
2009/04/23 07:46:48.4      20   -235     97    236    255 174.9  23.6  33980  286.52 0855.37
2009/04/23 07:46:48.5     -15   -251     73    252    263 183.6  16.3  33980  286.52 0855.37
2009/04/23 07:46:48.6       0   -269     63    270    278 180.0  13.2  33978  286.48 0855.37
2009/04/23 07:46:48.7      16   -266     78    267    279 176.4  16.3  33976  286.47 0855.37
2009/04/23 07:46:48.8       3   -226     73    227    239 179.1  17.9  33980  286.52 0855.37
2009/04/23 07:46:48.9      -7   -251     14    252    253 181.8   3.3  33978  286.48 0855.37
2009/04/23 07:46:49.0     -77   -229     -7    242    243 198.7  -1.8  33978  286.50 0855.37
2009/04/23 07:46:49.1     -99   -202    -34    226    229 206.1  -8.6  33976  286.47 0855.37
2009/04/23 07:46:49.2     -63   -202     57    212    220 197.4  15.2  33978  286.51 0855.37
2009/04/23 07:46:49.3     -34   -168    -24    172    174 191.6  -8.2  33980  286.52 0855.37
2009/04/23 07:46:49.4     -43   -214     32    219    222 191.3   8.5  33976  286.47 0855.37
2009/04/23 07:46:49.5     -90   -244     38    261    264 200.3   8.5  33974  286.43 0855.37
2009/04/23 07:46:49.6     -59   -195     -2    204    205 196.9  -0.7  33974  286.42 0855.38
2009/04/23 07:46:49.8    -112   -168    -19    203    204 213.8  -5.6  33974  286.42 0855.38
2009/04/23 07:46:49.9    -126   -190    -26    229    231 213.6  -6.5  33972  286.39 0855.38
2009/04/23 07:46:49.9    -133   -169    -12    216    217 218.3  -3.3  33972  286.41 0855.38
2009/04/23 07:46:50.1    -116   -153    -35    193    197 217.2 -10.3  33976  286.46 0855.38
2009/04/23 07:46:50.1    -128   -125    -36    180    184 225.6 -11.3  33974  286.44 0855.38
2009/04/23 07:46:50.3    -128   -127    -17    181    182 225.3  -5.6  33974  286.42 0855.38
2009/04/23 07:46:50.4    -165    -99      7    193    194 239.1   2.3  33974  286.44 0855.38
2009/04/23 07:46:50.5    -146    -55     36    157    162 249.2  12.9  33974  286.44 0855.38
2009/04/23 07:46:50.6    -117   -130     15    176    177 222.1   4.9  33974  286.42 0855.38
2009/04/23 07:46:50.7    -118   -137     -5    182    183 220.8  -1.8  33974  286.44 0855.38
2009/04/23 07:46:50.8    -107   -146     -5    182    183 216.3  -1.6  33972  286.41 0855.38
2009/04/23 07:46:50.9     -42   -140     28    147    150 197.0  11.1  33976  286.46 0855.38
2009/04/23 07:46:51.0     -12   -155     32    156    160 184.5  11.6  33978  286.49 0855.38
2009/04/23 07:46:51.1     -42   -182     12    187    188 193.1   3.8  33974  286.44 0855.38
2009/04/23 07:46:51.2     -39   -206     10    210    211 190.7   2.9  33976  286.47 0855.38
2009/04/23 07:46:51.3     -10   -198     24    199    201 183.1   6.9  33974  286.44 0855.38
2009/04/23 07:46:51.4      -6   -213     33    214    217 181.8   8.8  33976  286.47 0855.38
2009/04/23 07:46:51.5      10   -214     29    215    217 177.3   7.8  33974  286.42 0855.38
2009/04/23 07:46:51.6      17   -225     44    226    231 175.6  11.1  33976  286.46 0855.38
2009/04/23 07:46:51.7       8   -227     53    228    235 177.8  13.2  33978  286.49 0855.38
2009/04/23 07:46:51.8     -17   -221     22    222    224 184.5   5.7  33976  286.46 0855.38
2009/04/23 07:46:51.9      -4   -235     45    236    241 181.1  11.0  33974  286.42 0855.38
2009/04/23 07:46:52.0     -32   -240     34    243    246 187.6   8.0  33972  286.38 0855.38
2009/04/23 07:46:52.1     -19   -266     46    267    272 184.2   9.9  33970  286.36 0855.38
2009/04/23 07:46:52.2      16   -218     43    219    224 175.6  11.1  33970  286.35 0855.38
2009/04/23 07:46:52.3      28   -180     -7    183    184 171.1  -2.2  33970  286.37 0855.38
2009/04/23 07:46:52.4     -13   -174    -23    175    177 184.5  -7.5  33970  286.37 0855.38
2009/04/23 07:46:52.5      28   -202     -8    205    206 172.0  -2.2  33972  286.39 0855.38
2009/04/23 07:46:52.6      33   -205     45    208    213 170.7  12.4  33972  286.41 0855.38
2009/04/23 07:46:52.7      42   -178     56    183    192 166.6  17.1  33972  286.41 0855.38
2009/04/23 07:46:52.8     -20   -185     39    187    192 186.2  12.0  33972  286.41 0855.38
2009/04/23 07:46:52.9     -24   -136     17    139    141 190.2   7.1  33972  286.41 0855.38
2009/04/23 07:46:53.0     -24   -145      7    148    149 189.7   2.9  33974  286.42 0855.38
2009/04/23 07:46:53.1     -43   -128     11    136    137 198.7   5.0  33972  286.39 0855.38
2009/04/23 07:46:53.2     -49   -114     12    125    126 203.2   5.9  33972  286.39 0855.38
2009/04/23 07:46:53.3     -27   -103    -32    107    112 194.7 -16.6  33972  286.39 0855.38
2009/04/23 07:46:53.4      19   -136     48    138    147 172.0  19.2  33970  286.35 0855.38
2009/04/23 07:46:53.5      -4   -153     49    154    162 181.8  17.9  33972  286.39 0855.38
2009/04/23 07:46:53.6     -45   -161     32    168    172 195.6  11.0  33972  286.39 0855.38
2009/04/23 07:46:53.7       7   -179     33    180    184 177.5  10.6  33972  286.41 0855.38
2009/04/23 07:46:53.8      -9   -195     11    196    197 182.9   3.3  33972  286.41 0855.38
2009/04/23 07:46:53.9      16   -241     -1    242    243 176.2  -0.3  33974  286.43 0855.38
2009/04/23 07:46:54.0      42   -222      8    227    228 169.1   2.1  33972  286.39 0855.38
2009/04/23 07:46:54.1      50   -230     17    236    237 167.7   4.2  33972  286.38 0855.38
2009/04/23 07:46:54.2      70   -217      2    229    230 162.0   0.7  33970  286.35 0855.38
2009/04/23 07:46:54.3      83   -211     19    228    229 158.4   4.9  33970  286.35 0855.38
2009/04/23 07:46:54.4      92   -194      1    216    217 154.5   0.5  33970  286.37 0855.38
2009/04/23 07:46:54.5      81   -172     20    191    193 154.6   6.1  33972  286.41 0855.38
2009/04/23 07:46:54.6     -11   -150    -37    151    156 184.5 -13.9  33970  286.37 0855.38
2009/04/23 07:46:54.7     -22   -110     13    113    114 191.6   6.9  33970  286.37 0855.38
2009/04/23 07:46:54.8     -59   -124     77    138    158 205.3  31.6  33974  286.42 0855.38
2009/04/23 07:46:54.9     -87   -159    101    182    208 208.7  31.4  33974  286.42 0855.38
2009/04/23 07:46:55.0     -59   -224    101    232    253 194.9  25.1  33974  286.43 0855.38
2009/04/23 07:46:55.1     -60   -239    103    247    267 194.3  24.1  33974  286.43 0855.38
2009/04/23 07:46:55.2     -72   -185     55    199    207 201.4  15.6  33972  286.41 0855.38
2009/04/23 07:46:55.3     -42   -158     80    164    182 195.1  27.8  33972  286.41 0855.38
2009/04/23 07:46:55.4     -69   -126     91    144    170 208.9  35.5  33974  286.42 0855.38
2009/04/23 07:46:55.5     -81    -76     57    112    125 226.9  29.2  33974  286.44 0855.38
2009/04/23 07:46:55.6     -50   -103     64    115    131 205.9  31.4  33974  286.42 0855.38
2009/04/23 07:46:55.7     -16   -118    100    120    156 188.0  44.3  33974  286.42 0855.38
2009/04/23 07:46:55.8       4    -57    111     58    125 175.6  70.4  33972  286.39 0855.38
2009/04/23 07:46:55.9       6    -80    107     81    134 175.1  59.0  33974  286.44 0855.38
2009/04/23 07:46:56.0      -6   -121     80    122    145 183.1  36.0  33976  286.46 0855.38
2009/04/23 07:46:56.1      -8   -104     85    105    135 184.5  43.7  33974  286.42 0855.38
2009/04/23 07:46:56.2       9   -112    109    113    157 175.1  49.0  33974  286.44 0855.38
2009/04/23 07:46:56.3     -26   -127    112    130    171 191.6  45.4  33974  286.42 0855.38
2009/04/23 07:46:56.4     -28   -120     85    124    150 193.4  37.6  33976  286.47 0855.38
2009/04/23 07:46:56.5     -25   -128     96    131    162 191.1  39.9  33974  286.42 0855.38
2009/04/23 07:46:56.6     -36   -108     76    115    137 198.7  36.5  33976  286.46 0855.38
2009/04/23 07:46:56.7     -60    -96     63    114    130 212.1  31.4  33972  286.39 0855.39
2009/04/23 07:46:56.8     -66    -90     61    112    127 216.1  31.3  33974  286.42 0855.39
2009/04/23 07:46:56.9     -66    -54     36     86     93 230.9  24.1  33974  286.44 0855.39
2009/04/23 07:46:57.0    -137    -25     48    140    149 259.4  19.2  33974  286.44 0855.39
2009/04/23 07:46:57.1    -160     29    -10    163    164 280.6  -3.7  33980  286.52 0855.39
2009/04/23 07:46:57.2    -199      6    -56    200    208 271.9 -15.8  33980  286.52 0855.39
2009/04/23 07:46:57.3    -210    -31    -75    213    226 261.6 -19.4  33976  286.46 0855.39
2009/04/23 07:46:57.4    -162    -16    -68    163    176 264.3 -28.2  33976  286.47 0855.39
2009/04/23 07:46:57.5    -160    -40    -74    166    181 255.8 -30.1  33976  286.46 0855.39
2009/04/23 07:46:57.6    -193    -51    -97    200    222 255.0 -31.7  33976  286.46 0855.39
2009/04/23 07:46:57.7    -281    -33    -37    283    286 263.2  -7.5  33970  286.36 0855.39
2009/04/23 07:46:57.8    -305     25   -101    307    324 274.7 -18.2  33972  286.40 0855.39
2009/04/23 07:46:57.9    -309    -16   -126    310    334 267.0 -27.8  33972  286.38 0855.39
2009/04/23 07:46:58.0    -242   -144   -107    282    301 239.3 -26.1  33974  286.43 0855.39
2009/04/23 07:46:58.1    -152   -165     -8    225    226 222.5  -2.2  33968  286.32 0855.39
2009/04/23 07:46:58.2    -133    -90    120    161    200 235.9  40.4  33970  286.37 0855.39
2009/04/23 07:46:58.3    -154    -50     16    163    164 251.8   5.9  33974  286.42 0855.39
2009/04/23 07:46:58.4    -234     42    -33    238    241 280.4  -8.0  33974  286.42 0855.39
2009/04/23 07:46:58.5    -255     16    -68    256    265 273.7 -15.0  33974  286.42 0855.39
2009/04/23 07:46:58.6    -278     12   -100    279    297 272.5 -19.7  33972  286.38 0855.39
2009/04/23 07:46:58.7    -291    -18    -74    292    302 266.3 -14.3  33970  286.36 0855.39
2009/04/23 07:46:58.8    -287    -40   -104    290    309 261.9 -19.8  33972  286.38 0855.39
2009/04/23 07:46:58.9    -304      0    -87    305    318 270.0 -15.9  33972  286.40 0855.39
2009/04/23 07:46:59.0    -311    -38   -110    314    332 262.9 -24.5  33972  286.38 0855.39
2009/04/23 07:46:59.1    -299    -66   -112    307    326 257.4 -25.1  33972  286.38 0855.39
2009/04/23 07:46:59.2    -301    -61   -111    308    327 258.6 -25.0  33972  286.38 0855.39
2009/04/23 07:46:59.3    -271    -91    -93    287    301 251.4 -23.6  33972  286.38 0855.39
2009/04/23 07:46:59.4    -290   -110   -108    311    329 249.2 -24.0  33972  286.40 0855.39
2009/04/23 07:46:59.5    -330    -69    -47    338    342 258.1  -7.9  33968  286.34 0855.39
2009/04/23 07:46:59.6    -271    -24    -83    273    286 264.8 -17.0  33966  286.30 0855.39
2009/04/23 07:46:59.7    -291    -73    -91    301    314 255.8 -21.7  33972  286.38 0855.39
2009/04/23 07:46:59.8    -301      0   -133    302    329 270.0 -29.7  33968  286.33 0855.39
2009/04/23 07:46:59.9    -293     13   -110    294    313 272.6 -25.9  33968  286.31 0855.39
2009/04/23 07:47:00.0    -277     38    -89    280    293 277.9 -22.8  33964  286.25 0855.39
2009/04/23 07:47:00.1    -250     99    -75    270    280 291.7 -20.2  33968  286.31 0855.39
2009/04/23 07:47:00.2    -252     76   -128    264    293 286.8 -31.8  33970  286.36 0855.39
2009/04/23 07:47:00.3    -260     85   -107    274    294 288.2 -26.9  33968  286.33 0855.39
2009/04/23 07:47:00.4    -274     87    -81    288    299 287.7 -20.4  33966  286.30 0855.39
2009/04/23 07:47:00.5    -237     99   -102    257    276 292.7 -27.4  33970  286.36 0855.39
2009/04/23 07:47:00.6    -226     97   -105    247    268 293.3 -28.7  33970  286.36 0855.39
2009/04/23 07:47:00.7    -216     95    -79    237    249 293.7 -23.6  33964  286.25 0855.38
2009/04/23 07:47:00.8    -205    110    -93    233    250 298.4 -27.4  33972  286.38 0855.38
2009/04/23 07:47:00.9    -204     93   -112    225    251 294.6 -32.6  33970  286.35 0855.38
2009/04/23 07:47:01.0    -169     81   -105    188    215 295.8 -35.8  33968  286.34 0855.38
2009/04/23 07:47:01.1    -157     42   -131    163    209 285.0 -47.7  33968  286.32 0855.38
2009/04/23 07:47:01.2    -200    -72   -148    213    259 250.0 -42.8  33960  286.20 0855.38
2009/04/23 07:47:01.3    -193    -14    -13    194    195 265.7  -3.9  33964  286.27 0855.38
2009/04/23 07:47:01.4    -204    -36    -26    208    210 259.9  -7.3  33964  286.27 0855.38
2009/04/23 07:47:01.5    -200     24    -55    202    210 277.0 -15.4  33964  286.27 0855.38
2009/04/23 07:47:01.6    -195     56    -83    204    220 286.2 -27.5  33966  286.30 0855.38
2009/04/23 07:47:01.7    -156     54   -104    166    195 289.3 -39.6  33968  286.32 0855.38
2009/04/23 07:47:01.8     -81     71   -106    108    151 311.3 -54.4  33972  286.39 0855.38
2009/04/23 07:47:01.9     -32    121    -85    126    151 344.9 -41.8  33970  286.37 0855.38
2009/04/23 07:47:02.0     -16    113    -77    115    138 351.5 -41.8  33964  286.27 0855.38
2009/04/23 07:47:02.1     -17     56   -110     59    124 343.1 -73.7  33962  286.24 0855.38
2009/04/23 07:47:02.2    -105     31    -56    110    123 286.4 -33.7  33966  286.30 0855.38
2009/04/23 07:47:02.3    -135     -5    -21    136    138 267.9  -8.8  33960  286.20 0855.38
2009/04/23 07:47:02.4    -168      0     -6    169    170 270.0  -2.2  33962  286.22 0855.38
2009/04/23 07:47:02.5    -153    -76     26    171    174 243.6   8.8  33964  286.27 0855.38
2009/04/23 07:47:02.6    -162    -34     -9    166    167 257.8  -3.3  33966  286.29 0855.38
2009/04/23 07:47:02.7    -123     -1    -28    124    128 269.2 -12.9  33974  286.44 0855.38
2009/04/23 07:47:02.8    -145    -35    -65    150    163 256.3 -29.0  33974  286.44 0855.38
2009/04/23 07:47:02.9    -160     53    -76    169    185 288.6 -30.3  33968  286.34 0855.38
2009/04/23 07:47:03.0    -144     38    -87    150    173 285.0 -37.3  33972  286.39 0855.38
2009/04/23 07:47:03.1    -181     41   -154    186    241 283.0 -48.2  33968  286.34 0855.38
2009/04/23 07:47:03.2    -198    -17   -210    199    289 264.8 -56.0  33968  286.33 0855.38
2009/04/23 07:47:03.3    -285    -21    -68    286    294 265.6 -13.4  33966  286.30 0855.38
2009/04/23 07:47:03.4    -277     -9    -84    278    291 268.1 -17.0  33968  286.31 0855.38
2009/04/23 07:47:03.5    -226     24    -72    228    240 276.1 -17.6  33970  286.35 0855.38
2009/04/23 07:47:03.6    -249     65    -92    258    275 284.6 -19.7  33970  286.35 0855.38
2009/04/23 07:47:03.7    -214     39   -110    218    244 280.4 -33.1  33974  286.42 0855.38
2009/04/23 07:47:03.8    -215     36   -108    219    244 279.7 -32.6  33974  286.42 0855.38
2009/04/23 07:47:03.9    -190     30   -128    193    231 279.2 -40.7  33972  286.41 0855.38
2009/04/23 07:47:04.0    -168     22   -131    170    214 277.5 -46.0  33972  286.41 0855.38
2009/04/23 07:47:04.1    -158      7   -137    159    209 272.6 -49.8  33972  286.41 0855.38
2009/04/23 07:47:04.2    -181      8   -115    182    215 272.6 -39.9  33970  286.35 0855.38
2009/04/23 07:47:04.3    -170     67   -107    183    211 291.5 -37.8  33972  286.39 0855.38
2009/04/23 07:47:04.4    -131     60   -115    145    185 294.8 -47.4  33972  286.39 0855.38
2009/04/23 07:47:04.5    -144      6   -116    145    185 272.6 -47.7  33972  286.41 0855.38
2009/04/23 07:47:04.6    -132     13   -113    133    174 275.7 -48.9  33972  286.39 0855.38
2009/04/23 07:47:04.7    -128     24   -138    131    190 280.6 -56.0  33972  286.41 0855.38
2009/04/23 07:47:04.8    -163     23   -122    165    205 278.1 -44.3  33974  286.42 0855.38
2009/04/23 07:47:04.9    -147     20   -117    149    189 278.0 -46.8  33974  286.44 0855.38
2009/04/23 07:47:05.0    -169     27   -115    172    206 279.2 -41.4  33970  286.35 0855.38
2009/04/23 07:47:05.1    -156     23   -110    158    192 278.4 -42.4  33972  286.41 0855.38
2009/04/23 07:47:05.2    -158     31    -98    162    189 281.4 -38.6  33968  286.32 0855.38
2009/04/23 07:47:05.3    -162     35   -117    166    203 282.4 -43.0  33972  286.39 0855.38
2009/04/23 07:47:05.4    -162     51   -116    171    206 287.7 -41.8  33968  286.34 0855.38
2009/04/23 07:47:05.5    -181     85    -62    201    210 295.2 -22.3  33966  286.29 0855.38
2009/04/23 07:47:05.6    -125     54    -77    137    157 293.5 -36.0  33968  286.32 0855.38
2009/04/23 07:47:05.7    -109     59   -115    125    169 298.4 -51.9  33970  286.35 0855.38
2009/04/23 07:47:05.8    -110     49   -101    121    157 294.0 -48.7  33968  286.34 0855.38
2009/04/23 07:47:05.9    -105     50    -96    117    151 295.8 -48.1  33970  286.37 0855.38
2009/04/23 07:47:06.0    -103     54    -88    117    146 297.5 -45.1  33970  286.35 0855.38
2009/04/23 07:47:06.1    -111     44    -91    120    150 291.7 -45.6  33968  286.34 0855.38
2009/04/23 07:47:06.2     -89     44    -95    100    137 296.6 -52.4  33970  286.37 0855.38
2009/04/23 07:47:06.3    -103     34    -99    109    147 288.6 -51.9  33972  286.41 0855.38
2009/04/23 07:47:06.4     -90     32    -87     96    129 289.5 -51.9  33972  286.41 0855.38
2009/04/23 07:47:06.5     -66     18    -91     69    114 285.9 -63.4  33972  286.41 0855.38
2009/04/23 07:47:06.6     -90     18    -73     92    117 281.5 -47.7  33972  286.41 0855.38
2009/04/23 07:47:06.7     -91     26    -64     95    114 285.9 -40.9  33974  286.44 0855.37
2009/04/23 07:47:06.8     -87     31    -70     93    116 289.5 -45.1  33972  286.41 0855.37
2009/04/23 07:47:06.9     -87     15    -57     89    105 279.7 -40.0  33972  286.41 0855.37
2009/04/23 07:47:07.0     -69    -14    -67     71     97 258.6 -53.4  33972  286.41 0855.37
2009/04/23 07:47:07.1     -73     -6    -57     74     93 264.8 -46.6  33972  286.41 0855.37
2009/04/23 07:47:07.2     -88     -5    -45     89     99 266.5 -33.1  33970  286.35 0855.37
2009/04/23 07:47:07.3     -94    -10    -44     95    104 263.4 -31.0  33970  286.35 0855.37
2009/04/23 07:47:07.4     -86      0    -44     87     97 270.0 -32.6  33972  286.41 0855.37
2009/04/23 07:47:07.5     -84    -17    -40     86     94 258.5 -31.5  33970  286.35 0855.37
2009/04/23 07:47:07.6    -143    -31    -50    147    155 257.6 -23.3  33968  286.32 0855.37
2009/04/23 07:47:07.7    -160    -47    -82    167    186 253.4 -32.2  33968  286.34 0855.37
2009/04/23 07:47:07.8    -152    -31    -73    156    172 258.5 -31.4  33968  286.32 0855.37
2009/04/23 07:47:07.9    -138    -40    -93    144    171 253.6 -40.1  33972  286.41 0855.37
2009/04/23 07:47:08.0    -150    -24   -123    152    195 260.8 -47.7  33966  286.30 0855.37
2009/04/23 07:47:08.1    -150      6    -52    151    160 272.5 -19.1  33968  286.32 0855.37
2009/04/23 07:47:08.2    -143     57    -73    155    171 291.8 -31.5  33970  286.37 0855.37
2009/04/23 07:47:08.3    -157     36    -57    162    172 283.0 -19.4  33966  286.30 0855.37
2009/04/23 07:47:08.4    -195     21    -65    197    207 276.4 -23.8  33972  286.41 0855.37
2009/04/23 07:47:08.5    -203     21    -55    205    213 276.1 -15.2  33972  286.41 0855.37
2009/04/23 07:47:08.6    -200     28    -57    203    211 278.1 -15.8  33978  286.49 0855.37
2009/04/23 07:47:08.7    -205     39    -82    209    224 281.0 -26.9  33978  286.49 0855.38
2009/04/23 07:47:08.8    -189     18    -92    190    211 275.7 -31.8  33976  286.47 0855.38
2009/04/23 07:47:08.9    -178     25    -76    180    195 278.1 -28.7  33974  286.42 0855.38
2009/04/23 07:47:09.0    -167     22    -79    169    186 277.7 -31.5  33972  286.41 0855.38
2009/04/23 07:47:09.1    -171     13    -77    172    188 274.6 -30.1  33978  286.49 0855.38
2009/04/23 07:47:09.2    -163     14    -68    164    177 275.2 -28.0  33978  286.49 0855.38
2009/04/23 07:47:09.3    -157     22    -50    159    166 278.0 -22.5  33976  286.47 0855.38
2009/04/23 07:47:09.4    -150      2    -83    151    172 270.8 -35.8  33974  286.42 0855.38
2009/04/23 07:47:09.5    -123    -39    -73    130    149 252.3 -35.8  33972  286.41 0855.38
2009/04/23 07:47:09.6    -139    -37    -56    144    154 255.0 -26.4  33974  286.44 0855.38
2009/04/23 07:47:09.7    -117    -23    -94    120    152 258.5 -47.1  33976  286.46 0855.38
2009/04/23 07:47:09.8    -122    -23    -74    125    145 259.0 -37.9  33974  286.42 0855.38
2009/04/23 07:47:09.9    -120    -39    -62    127    141 251.8 -31.7  33972  286.41 0855.38
2009/04/23 07:47:10.0    -145    -22    -67    147    161 261.2 -30.6  33976  286.46 0855.38
2009/04/23 07:47:10.1    -142      6    -85    143    166 272.6 -37.9  33978  286.51 0855.38
2009/04/23 07:47:10.2    -124     15    -86    125    151 277.0 -42.0  33978  286.49 0855.38
2009/04/23 07:47:10.3    -105     13    -80    106    132 277.5 -46.0  33978  286.49 0855.38
2009/04/23 07:47:10.4    -101     23    -77    104    129 282.8 -44.5  33976  286.47 0855.38
2009/04/23 07:47:10.5     -87     10    -73     88    114 276.6 -48.1  33980  286.52 0855.38
2009/04/23 07:47:10.6     -77     14    -68     79    104 280.6 -49.8  33978  286.49 0855.38
2009/04/23 07:47:10.7     -77     14    -68     79    104 280.6 -49.8  33978  286.49 0855.39
2009/04/23 07:47:10.8     -78     15    -55     80     97 281.5 -42.0  33978  286.49 0855.39
2009/04/23 07:47:10.9     -68      0    -59     69     90 270.0 -49.2  33978  286.49 0855.39
2009/04/23 07:47:11.0     -77      0    -68     78    103 270.0 -50.8  33976  286.47 0855.39
2009/04/23 07:47:11.1     -68      0    -73     69    100 270.0 -56.5  33976  286.47 0855.39
2009/04/23 07:47:11.2     -62      8    -70     63     94 277.9 -57.7  33976  286.47 0855.39
2009/04/23 07:47:11.3     -55      7    -73     56     92 277.9 -62.9  33976  286.47 0855.39
2009/04/23 07:47:11.4     -86      3    -62     87    106 272.1 -43.5  33976  286.46 0855.39
2009/04/23 07:47:11.5     -78      0    -55     79     96 270.0 -42.4  33978  286.49 0855.39
2009/04/23 07:47:11.6     -53     -8    -59     54     79 261.2 -56.6  33978  286.49 0855.39
2009/04/23 07:47:11.7     -82     -6    -59     83    101 265.6 -43.9  33976  286.47 0855.39
2009/04/23 07:47:11.8     -62     -6    -68     63     92 263.9 -56.6  33976  286.47 0855.39
2009/04/23 07:47:11.9     -67    -20    -77     70    104 253.2 -56.6  33980  286.52 0855.39
2009/04/23 07:47:12.0     -94     -7    -80     95    124 265.6 -48.7  33978  286.51 0855.39
2009/04/23 07:47:12.1     -73     -5    -78     74    107 265.6 -56.0  33976  286.47 0855.39
2009/04/23 07:47:12.2     -68    -15    -73     70    101 257.6 -56.0  33976  286.47 0855.39
2009/04/23 07:47:12.3     -51    -12    -64     53     83 256.7 -60.2  33974  286.42 0855.39
2009/04/23 07:47:12.4     -49     -8    -62     50     79 260.3 -61.3  33976  286.46 0855.39
2009/04/23 07:47:12.5     -45    -10    -54     47     71 257.6 -59.8  33974  286.44 0855.39
2009/04/23 07:47:12.6     -28    -31    -52     42     66 222.3 -60.8  33976  286.47 0855.39
2009/04/23 07:47:12.7     -57    -58    -48     82     95 224.5 -38.4  33974  286.44 0855.38
2009/04/23 07:47:12.8     -82    -49    -54     96    110 239.3 -36.3  33976  286.47 0855.38
2009/04/23 07:47:12.9     -78    -49    -50     93    105 237.6 -35.2  33974  286.42 0855.38
2009/04/23 07:47:13.0     -88    -31    -63     94    113 250.5 -40.9  33978  286.49 0855.38
2009/04/23 07:47:13.1     -88    -41    -60     98    114 244.7 -39.9  33976  286.47 0855.38
2009/04/23 07:47:13.2     -76    -31    -69     83    107 247.4 -48.2  33978  286.51 0855.38
2009/04/23 07:47:13.3     -63    -34    -76     72    104 241.2 -55.6  33976  286.47 0855.38
2009/04/23 07:47:13.4     -53    -33    -70     63     94 237.6 -57.7  33976  286.47 0855.38
2009/04/23 07:47:13.5     -76    -25    -65     81    103 251.8 -47.7  33976  286.46 0855.38
2009/04/23 07:47:13.6     -80    -32    -68     87    110 247.8 -46.6  33978  286.49 0855.38
2009/04/23 07:47:13.7     -22    -30    -75     38     84 216.1 -75.8  33972  286.39 0855.40
2009/04/23 07:47:13.8     -21    -23    -74     32     80 223.2 -79.4  33974  286.44 0855.40
2009/04/23 07:47:13.9     -26    -23    -73     35     80 228.7 -76.8  33976  286.47 0855.40
2009/04/23 07:47:14.0     -16    -27    -76     32     82 210.7 -80.5  33974  286.44 0855.40
2009/04/23 07:47:14.1     -41      8    -73     42     84 281.5 -71.6  33974  286.42 0855.40
2009/04/23 07:47:14.2     -40      4    -57     41     70 277.0 -64.9  33974  286.44 0855.40
2009/04/23 07:47:14.3       3     -8    -41      9     41 154.6 -90.0  33974  286.42 0855.40
2009/04/23 07:47:14.4      12    -14    -40     19     44 138.6 -78.4  33972  286.41 0855.40
2009/04/23 07:47:14.5       0    -16    -66     17     68 182.7 -89.3  33974  286.44 0855.40
2009/04/23 07:47:14.7     -20      7    -68     22     71 290.0 -85.1  33972  286.41 0855.40
2009/04/23 07:47:14.7      25    -33    -60     42     73 143.0 -65.0  33974  286.44 0855.40
2009/04/23 07:47:14.8       8    -51    -81     52     96 170.2 -69.0  33974  286.44 0855.40
2009/04/23 07:47:14.9      39    -67    -75     78    108 149.3 -53.4  33976  286.46 0855.40
2009/04/23 07:47:15.0      27    -43    -90     51    103 147.5 -73.2  33974  286.44 0855.40
2009/04/23 07:47:15.1      -8     -8   -100     12    100 226.9 -90.0  33976  286.46 0855.40
2009/04/23 07:47:15.2      17    -14    -68     23     71 129.5 -85.4  33976  286.47 0855.40
2009/04/23 07:47:15.3    -105      3   -125    106    163 271.7 -60.0  33970  286.37 0855.40
2009/04/23 07:47:15.4     -80    -23   -148     84    170 254.1 -72.5  33972  286.41 0855.40
2009/04/23 07:47:15.5      -9      1   -108     10    108 281.5 -90.0  33974  286.42 0855.40
2009/04/23 07:47:15.6      32     20    -81     39     89  57.5 -77.2  33966  286.30 0855.40
2009/04/23 07:47:15.7      10     -6    -97     12     97 122.4 -90.0  33972  286.39 0855.39
2009/04/23 07:47:15.8      43    -68    -70     81    107 147.5 -49.8  33970  286.35 0855.39
2009/04/23 07:47:15.9      61    -61   -116     87    145 135.0 -64.4  33972  286.39 0855.39
2009/04/23 07:47:16.0      65    -36    -94     75    120 118.9 -61.9  33968  286.34 0855.39
2009/04/23 07:47:16.1      72    -91   -111    117    161 141.7 -53.1  33970  286.35 0855.39
2009/04/23 07:47:16.2     105    -62   -105    123    161 120.7 -49.5  33970  286.37 0855.39
2009/04/23 07:47:16.4     112    -22   -126    115    170 101.5 -57.4  33970  286.35 0855.39
2009/04/23 07:47:16.5     127    -45   -119    135    179 109.5 -50.6  33968  286.34 0855.39
2009/04/23 07:47:16.6     160    -21    -90    162    185  97.7 -35.8  33974  286.42 0855.39
2009/04/23 07:47:16.7     171    -31   -116    174    209 100.6 -41.4  33972  286.41 0855.39
2009/04/23 07:47:16.8     165    -66   -101    178    204 112.0 -36.5  33974  286.42 0855.39
2009/04/23 07:47:16.9     152   -101   -103    183    209 123.7 -36.3  33972  286.39 0855.39
2009/04/23 07:47:17.0     187    -12    -93    188    209  93.9 -32.4  33974  286.42 0855.39
2009/04/23 07:47:17.1     183    -53    -90    191    211 106.4 -31.5  33970  286.35 0855.39
2009/04/23 07:47:17.2     189      9    -89    190    209  87.2 -31.5  33972  286.39 0855.39
2009/04/23 07:47:17.3     234     74    -41    246    250  72.3  -9.6  33976  286.45 0855.39
2009/04/23 07:47:17.4     224     75     24    237    239  71.4   5.9  33974  286.43 0855.39
2009/04/23 07:47:17.5     259    112     46    283    287  66.5   9.3  33972  286.40 0855.39
2009/04/23 07:47:17.6     272     94     43    288    292  70.9   8.5  33972  286.40 0855.39
2009/04/23 07:47:17.7     251     79     -5    264    265  72.5  -1.2  33972  286.40 0855.39
2009/04/23 07:47:17.8     186     87    -72    206    219  64.9 -19.4  33968  286.34 0855.39
2009/04/23 07:47:17.9     193    165   -104    255    275  49.5 -27.8  33972  286.38 0855.39
2009/04/23 07:47:18.0     176    146    -77    229    242  50.4 -18.7  33974  286.43 0855.39
2009/04/23 07:47:18.1     220    162    -26    274    276  53.6  -5.6  33968  286.33 0855.39
2009/04/23 07:47:18.2     194    177    -72    263    273  47.7 -15.4  33974  286.43 0855.39
2009/04/23 07:47:18.3     134    175     10    221    222  37.4   2.8  33970  286.37 0855.39
2009/04/23 07:47:18.4     247     95     76    265    276  68.9  16.0  33974  286.42 0855.39
2009/04/23 07:47:18.5     219    135     97    258    275  58.4  21.5  33978  286.48 0855.39
2009/04/23 07:47:18.6     238    136     77    275    286  60.3  15.8  33978  286.50 0855.39
2009/04/23 07:47:18.7     246    114     44    272    276  65.2   9.3  33976  286.45 0855.39
2009/04/23 07:47:18.8     209     67     48    220    226  72.1  12.4  33970  286.35 0855.39
2009/04/23 07:47:18.9     251     95     92    269    285  69.2  18.9  33976  286.47 0855.39
2009/04/23 07:47:19.0     239     92     88    257    272  68.9  18.9  33978  286.50 0855.39
2009/04/23 07:47:19.1     195     86     97    214    234  66.3  26.2  33978  286.49 0855.39
2009/04/23 07:47:19.2     206     50     98    213    234  76.3  26.2  33978  286.51 0855.39
2009/04/23 07:47:19.3     209     42    100    214    236  78.5  27.0  33978  286.51 0855.39
2009/04/23 07:47:19.4     152     53    155    162    224  70.7  48.7  33974  286.44 0855.39
2009/04/23 07:47:19.5     209     87    135    227    264  67.4  33.5  33980  286.53 0855.39
2009/04/23 07:47:19.6     208     99     89    231    247  64.5  22.1  33976  286.47 0855.39
2009/04/23 07:47:19.7     172     71    121    187    222  67.6  35.6  33986  286.64 0855.39
2009/04/23 07:47:19.8     115     33    141    120    185  73.6  55.4  33988  286.66 0855.39
2009/04/23 07:47:19.9     145      0    103    146    178  90.0  38.8  33974  286.42 0855.39
2009/04/23 07:47:20.0     110     15    -42    112    119  82.1 -25.4  33978  286.49 0855.39
2009/04/23 07:47:20.1     118     51    -22    129    131  66.5  -9.8  33974  286.42 0855.39
2009/04/23 07:47:20.2      75     38    -46     85     96  62.9 -35.2  33974  286.42 0855.39
2009/04/23 07:47:20.3     115     53    -57    127    139  65.2 -30.6  33972  286.41 0855.39
2009/04/23 07:47:20.4     117     15    -62    118    133  82.5 -34.2  33972  286.41 0855.39
2009/04/23 07:47:20.5     110     37    -67    117    134  71.4 -37.3  33972  286.39 0855.39
2009/04/23 07:47:20.6     127     46    -41    136    142  70.0 -21.7  33974  286.42 0855.39
2009/04/23 07:47:20.7     133     58    -43    146    152  66.5 -21.7  33970  286.37 0855.39
2009/04/23 07:47:20.8     157     82    -21    178    180  62.2  -6.9  33974  286.44 0855.39
2009/04/23 07:47:20.9     143    124      9    190    191  49.1   2.8  33980  286.52 0855.39
2009/04/23 07:47:21.0     134    117    -27    179    182  48.9  -8.8  33976  286.46 0855.39
2009/04/23 07:47:21.1     113    107     18    156    158  46.4   6.7  33976  286.46 0855.39
2009/04/23 07:47:21.2     133    116     62    177    188  48.7  19.4  33976  286.46 0855.39
2009/04/23 07:47:21.3     193    128     34    232    235  56.3   8.5  33976  286.47 0855.39
2009/04/23 07:47:21.4     206    152     44    257    261  53.6   9.9  33976  286.47 0855.39
2009/04/23 07:47:21.5     214    136     65    254    263  57.5  14.5  33978  286.48 0855.39
2009/04/23 07:47:21.6     244    155     55    290    296  57.6  10.8  33980  286.53 0855.39
2009/04/23 07:47:21.7     232    143     48    273    278  58.2  10.0  33982  286.57 0855.39
2009/04/23 07:47:21.8     243    124     53    274    280  62.9  11.1  33980  286.52 0855.40
2009/04/23 07:47:21.9     246     97     89    265    280  68.3  18.6  33976  286.47 0855.40
2009/04/23 07:47:22.0     260    154     42    303    307  59.3   8.0  33992  286.74 0855.40
2009/04/23 07:47:22.1     253    153     80    296    307  58.9  15.2  33990  286.68 0855.40
2009/04/23 07:47:22.2     297    154     97    335    349  62.6  16.1  34000  286.86 0855.40
2009/04/23 07:47:22.3     327    183     62    375    381  60.7   9.4  33978  286.49 0855.40
2009/04/23 07:47:22.4     370    123    -37    390    392  71.6  -5.5  33974  286.44 0855.40
2009/04/23 07:47:22.5     244    117    -85    271    285  64.2 -17.5  33970  286.36 0855.40
2009/04/23 07:47:22.6     223    167    -10    279    280  53.1  -2.2  34022  287.22 0855.40
2009/04/23 07:47:22.7     223    153    -24    271    273  55.6  -5.1  34016  287.14 0855.40
2009/04/23 07:47:22.8     267     97     67    285    293  70.0  13.2  34006  286.95 0855.40
2009/04/23 07:47:22.9     349     87     -7    360    361  75.9  -1.3  33978  286.51 0855.40
2009/04/23 07:47:23.0     269     63     56    277    283  76.8  11.6  33984  286.58 0855.40
2009/04/23 07:47:23.1     299    -21     -6    300    301  94.1  -1.2  33980  286.53 0855.40
2009/04/23 07:47:23.2     359     54    -26    364    365  81.4  -4.2  33980  286.53 0855.40
2009/04/23 07:47:23.3     359     36    -30    361    363  84.2  -4.8  33980  286.53 0855.40
2009/04/23 07:47:23.4     381     77     -6    389    390  78.6  -0.9  33984  286.61 0855.40
2009/04/23 07:47:23.5     379     64    -34    385    387  80.3  -5.1  33984  286.58 0855.40
2009/04/23 07:47:23.6     345     92    -66    358    365  75.0 -10.5  33980  286.53 0855.40
2009/04/23 07:47:23.7     396    119     81    414    422  73.2  11.1  33984  286.59 0855.40
2009/04/23 07:47:23.8     399      2     74    400    407  89.6  10.6  33980  286.52 0855.39
2009/04/23 07:47:23.9     389     57     62    394    399  81.7   9.0  33984  286.58 0855.39
2009/04/23 07:47:24.0     268     29     51    270    275  83.8  10.8  33972  286.40 0855.39
2009/04/23 07:47:24.1     300    -42     15    304    305  98.0   2.9  33978  286.50 0855.39
2009/04/23 07:47:24.2     404      0     36    405    407  90.0   5.2  33986  286.64 0855.39
2009/04/23 07:47:24.3     367     52     37    371    373  81.9   5.8  33984  286.58 0855.39
2009/04/23 07:47:24.4     326     92     23    339    340  74.1   4.0  33982  286.56 0855.39
2009/04/23 07:47:24.5     269     82     13    282    283  73.1   2.8  33982  286.55 0855.39
2009/04/23 07:47:24.6     295     31    -43    297    301  83.9  -8.2  33978  286.50 0855.39
2009/04/23 07:47:24.7     297    -70     -1    306    307 103.3  -0.3  33978  286.50 0855.39
2009/04/23 07:47:24.8     257     -7     60    258    265  91.7  13.2  33990  286.68 0855.39
2009/04/23 07:47:24.9     300    -37    107    303    321  97.1  20.1  33992  286.74 0855.39
2009/04/23 07:47:25.0     318     -4     91    319    332  90.8  16.0  33984  286.60 0855.39
2009/04/23 07:47:25.1     298     -5     86    299    312  91.0  16.0  33980  286.53 0855.39
2009/04/23 07:47:25.2     235   -116     41    263    267 116.4   8.9  33982  286.55 0855.39
2009/04/23 07:47:25.3      82    -74    -95    111    146 132.2 -49.8  33974  286.44 0855.39
2009/04/23 07:47:25.4     181      0    -68    182    194  89.9 -25.7  33974  286.42 0855.39
2009/04/23 07:47:25.5     278     10     11    279    280  87.9   2.3  33988  286.65 0855.39
2009/04/23 07:47:25.6     247     38    -27    250    252  81.2  -6.2  34010  287.04 0855.39
2009/04/23 07:47:25.7     223     77    -17    236    237  70.9  -4.1  34020  287.19 0855.39
2009/04/23 07:47:25.8     209     66    -12    220    221  72.3  -3.2  34022  287.23 0855.39
2009/04/23 07:47:25.9     276     93     41    292    295  71.4   8.0  34002  286.89 0855.39
2009/04/23 07:47:26.0     272     92     73    288    298  71.2  14.3  33994  286.75 0855.39
2009/04/23 07:47:26.1     278     56     79    284    295  78.5  15.6  33998  286.82 0855.39
2009/04/23 07:47:26.2     326     45    102    330    346  82.1  17.3  33998  286.83 0855.39
2009/04/23 07:47:26.3     310     57     96    316    331  79.5  17.0  33996  286.80 0855.39
2009/04/23 07:47:26.4     389      5     98    390    403  89.2  14.2  33990  286.69 0855.39
2009/04/23 07:47:26.5     296    -90     80    310    321 106.9  14.6  33986  286.63 0855.39
2009/04/23 07:47:26.6     231    -82     25    246    248 109.7   6.0  33982  286.55 0855.39
2009/04/23 07:47:26.7     229    -80     18    243    244 109.3   4.2  33978  286.48 0855.39
2009/04/23 07:47:26.8     206    -58    -11    215    216 105.9  -3.2  33996  286.79 0855.39
2009/04/23 07:47:26.9     150   -109     -7    186    187 126.0  -2.2  33978  286.49 0855.39
2009/04/23 07:47:27.0     117   -114     36    164    169 134.4  12.6  33976  286.47 0855.39
2009/04/23 07:47:27.1     125   -151     14    197    198 140.4   4.2  33972  286.41 0855.39
2009/04/23 07:47:27.2     107   -145     62    181    192 143.5  18.9  33970  286.37 0855.39
2009/04/23 07:47:27.3      89   -133     43    161    167 146.2  15.0  33972  286.39 0855.39
2009/04/23 07:47:27.4      99   -124     80    159    177 141.3  28.7  33972  286.39 0855.39
2009/04/23 07:47:27.5     107   -143     88    179    199 143.3  28.0  33972  286.41 0855.39
2009/04/23 07:47:27.6     111   -153     86    190    208 143.9  26.2  33978  286.49 0855.39
2009/04/23 07:47:27.7     106   -163     72    195    207 146.8  21.0  33974  286.44 0855.39
2009/04/23 07:47:27.8     124   -146     94    192    213 139.7  28.0  33974  286.44 0855.38
2009/04/23 07:47:27.9     115   -115     71    163    177 135.0  24.9  33976  286.46 0855.38
2009/04/23 07:47:28.0      93   -132     65    162    174 144.8  22.8  33972  286.39 0855.38
2009/04/23 07:47:28.1      85   -142     76    166    182 148.8  26.4  34000  286.86 0855.38
2009/04/23 07:47:28.2      51   -128     91    138    165 158.2  36.3  33994  286.78 0855.38
2009/04/23 07:47:28.3      67   -133    125    150    195 153.3  44.1  33976  286.46 0855.38
2009/04/23 07:47:28.4      20   -115    113    117    162 169.8  49.2  33982  286.57 0855.38
2009/04/23 07:47:28.5      -2   -116    100    117    153 181.0  44.8  33986  286.62 0855.38
2009/04/23 07:47:28.6       9   -139    130    140    191 176.0  47.9  33980  286.52 0855.38
2009/04/23 07:47:28.7      48   -120     96    130    161 158.2  40.4  33974  286.42 0855.38
2009/04/23 07:47:28.8      21    -75    100     79    127 164.0  57.5  33980  286.52 0855.38
2009/04/23 07:47:28.9      -5    -70     97     71    120 184.5  60.5  33980  286.52 0855.38
2009/04/23 07:47:29.0       0   -100    106    101    146 180.0  51.6  33972  286.41 0855.38
2009/04/23 07:47:29.1      -8   -129    125    130    180 183.6  49.0  33972  286.41 0855.38
2009/04/23 07:47:29.2     -15   -141    147    142    204 186.2  50.7  33972  286.41 0855.38
2009/04/23 07:47:29.3     -28   -179    103    182    209 189.1  31.9  33970  286.37 0855.38
2009/04/23 07:47:29.4     -25   -182     80    184    200 188.1  25.1  33972  286.41 0855.38
2009/04/23 07:47:29.5      31   -153     74    157    173 168.5  27.1  33968  286.34 0855.38
2009/04/23 07:47:29.6      73   -152     70    169    182 154.4  23.4  33972  286.41 0855.38
2009/04/23 07:47:29.7      62   -130    100    145    176 154.5  38.0  33972  286.39 0855.38
2009/04/23 07:47:29.8      71    -97     82    121    146 143.9  37.4  33970  286.37 0855.38
2009/04/23 07:47:29.9      61   -103     76    120    142 149.3  35.5  33974  286.42 0855.38
2009/04/23 07:47:30.0      46    -95     77    106    131 153.7  39.7  33972  286.41 0855.38
2009/04/23 07:47:30.1     108    -89     67    140    155 129.5  27.3  33974  286.42 0855.38
2009/04/23 07:47:30.2      90    -99     72    134    152 137.7  30.8  33970  286.37 0855.38
2009/04/23 07:47:30.3      86    -98     68    131    147 138.6  29.3  33972  286.41 0855.38
2009/04/23 07:47:30.4      77    -93     60    121    135 140.4  28.2  33972  286.39 0855.38
2009/04/23 07:47:30.5      52    -87     41    102    109 149.3  23.0  33972  286.41 0855.38
2009/04/23 07:47:30.6      13    -85     57     87    104 171.1  36.0  33972  286.41 0855.38
2009/04/23 07:47:30.7      21    -74     59     77     97 164.0  41.7  33970  286.37 0855.38
2009/04/23 07:47:30.8      10    -90     50     91    103 173.3  31.4  33970  286.37 0855.38
2009/04/23 07:47:30.9      18    -77     51     80     94 166.6  35.5  33974  286.42 0855.38
2009/04/23 07:47:31.0      27    -86     53     91    105 162.2  33.5  33972  286.41 0855.38
2009/04/23 07:47:31.1      35    -95     49    102    113 159.5  27.2  33978  286.51 0855.38
2009/04/23 07:47:31.2      91    -61     67    110    128 124.2  34.4  33976  286.47 0855.38
2009/04/23 07:47:31.3      86   -104    109    136    174 140.4  43.0  33978  286.49 0855.38
2009/04/23 07:47:31.4      79    -80     94    113    146 135.3  43.8  33978  286.51 0855.38
2009/04/23 07:47:31.5      24    -73     98     78    125 161.3  57.5  33978  286.51 0855.38
2009/04/23 07:47:31.6      -1   -117    127    118    173 180.9  52.2  33976  286.47 0855.38
2009/04/23 07:47:31.7      26   -135    100    138    170 168.9  39.7  33978  286.49 0855.38
2009/04/23 07:47:31.8      16   -118    123    120    171 172.0  50.7  33980  286.54 0855.37
2009/04/23 07:47:31.9     -24   -140     86    143    166 189.7  34.0  33980  286.54 0855.37
2009/04/23 07:47:32.0     -23   -165     31    167    170 188.2  10.6  33978  286.51 0855.37
2009/04/23 07:47:32.1     -48   -177     37    184    188 195.2  11.4  33976  286.47 0855.37
2009/04/23 07:47:32.2     -43   -186     41    191    196 193.1  12.2  33978  286.49 0855.37
2009/04/23 07:47:32.3     -28   -167     61    170    180 189.8  20.2  33978  286.49 0855.37
2009/04/23 07:47:32.4      20   -145     51    147    156 171.9  19.4  33978  286.49 0855.37
2009/04/23 07:47:32.5      19   -136      0    138    139 171.9   0.2  33980  286.54 0855.37
2009/04/23 07:47:32.6      23   -126    -21    129    131 169.3  -9.4  33980  286.52 0855.37
2009/04/23 07:47:32.7      31   -114    -28    119    123 164.8 -13.4  33978  286.51 0855.37
2009/04/23 07:47:32.8      52   -114     44    126    134 155.5  19.2  33976  286.46 0855.37
2009/04/23 07:47:32.9      49   -128     32    138    142 159.1  13.2  33980  286.54 0855.37
2009/04/23 07:47:33.0      56   -130     25    142    145 156.4  10.1  33978  286.51 0855.37
2009/04/23 07:47:33.1      94   -123     42    155    161 142.6  15.3  33976  286.47 0855.37
2009/04/23 07:47:33.2      74   -118     51    140    149 147.9  20.9  33976  286.47 0855.37
2009/04/23 07:47:33.3      49   -143     82    152    172 160.8  30.8  33976  286.47 0855.37
2009/04/23 07:47:33.4      78   -186     75    202    215 157.1  21.0  33980  286.52 0855.37
2009/04/23 07:47:33.5      89   -155     78    179    195 150.1  25.1  33976  286.46 0855.37
2009/04/23 07:47:33.6      67   -114     78    133    154 149.7  33.5  33980  286.52 0855.37
2009/04/23 07:47:33.7      23   -112     66    115    132 168.0  32.4  33978  286.49 0855.37
2009/04/23 07:47:33.8      44   -112    103    121    158 158.6  44.8  33980  286.52 0855.36
2009/04/23 07:47:33.9      43   -120    117    128    173 160.0  47.5  33978  286.49 0855.36
2009/04/23 07:47:34.0     100   -120    101    157    186 140.4  35.6  33976  286.46 0855.36
2009/04/23 07:47:34.1      70   -110     84    131    155 147.5  35.6  33978  286.49 0855.36
2009/04/23 07:47:34.2      30   -132     61    136    149 167.1  25.7  33978  286.51 0855.36
2009/04/23 07:47:34.3      19   -127     45    129    137 171.5  19.2  33976  286.47 0855.36
2009/04/23 07:47:34.4     -19   -137     49    139    148 188.0  19.4  33976  286.47 0855.36
2009/04/23 07:47:34.5     -29   -138     39    142    148 192.0  15.3  33976  286.47 0855.36
2009/04/23 07:47:34.6     -21   -154     44    156    163 188.1  15.8  33972  286.41 0855.36
2009/04/23 07:47:34.7      11   -174     99    175    201 176.2  31.9  33978  286.49 0855.36
2009/04/23 07:47:34.8      26   -178    104    180    207 171.5  32.9  33978  286.49 0855.37
2009/04/23 07:47:34.9       0   -227     80    228    241 179.8  20.0  33974  286.42 0855.37
2009/04/23 07:47:35.0      -3   -223    111    224    249 180.9  28.2  33972  286.40 0855.37
2009/04/23 07:47:35.1      29   -204    116    207    237 171.8  31.6  33978  286.49 0855.37
2009/04/23 07:47:35.2       1   -214    103    215    238 179.5  27.4  33976  286.46 0855.37
2009/04/23 07:47:35.3     -14   -186     88    187    206 184.5  27.1  33976  286.47 0855.37
2009/04/23 07:47:35.4     -24   -162     82    164    183 188.5  28.7  33972  286.41 0855.37
2009/04/23 07:47:35.5     -81   -142     49    164    172 209.9  16.6  33970  286.35 0855.37
2009/04/23 07:47:35.6     -81   -164    -19    184    186 206.3  -6.0  33970  286.37 0855.37
2009/04/23 07:47:35.7     -71    -98     14    122    123 216.1   6.9  33972  286.39 0855.37
2009/04/23 07:47:35.8     -80   -123     -3    147    148 213.0  -1.3  33970  286.35 0855.37
2009/04/23 07:47:35.9      -3   -103     41    104    111 181.8  22.5  33972  286.41 0855.37
2009/04/23 07:47:36.0      11   -100     35    101    108 173.3  19.4  33972  286.41 0855.37
2009/04/23 07:47:36.1      55    -96     39    111    117 150.1  20.0  33970  286.35 0855.37
2009/04/23 07:47:36.2      41   -100     55    109    122 157.7  29.2  33970  286.37 0855.37
2009/04/23 07:47:36.3       9   -118     95    119    152 175.6  43.7  33976  286.47 0855.37
2009/04/23 07:47:36.4     -21   -112    121    115    166 190.7  51.4  33976  286.46 0855.37
2009/04/23 07:47:36.5     -27   -111    100    115    152 193.8  45.8  33974  286.42 0855.37
2009/04/23 07:47:36.6     -40   -103     86    111    140 201.4  41.7  33974  286.42 0855.37
2009/04/23 07:47:36.7     -18    -78     56     81     98 193.4  37.6  33974  286.42 0855.37
2009/04/23 07:47:36.8     -12    -62     40     64     75 191.6  35.5  33972  286.39 0855.36
2009/04/23 07:47:36.9      -7    -54     37     55     66 188.0  36.5  33976  286.47 0855.36
2009/04/23 07:47:37.0       8    -47     29     48     56 170.2  35.5  33974  286.44 0855.36
2009/04/23 07:47:37.1       5    -43     27     44     51 172.9  35.5  33976  286.46 0855.36
2009/04/23 07:47:37.2       5    -42     33     43     54 172.0  41.7  33974  286.44 0855.36
2009/04/23 07:47:37.3      -6    -50     60     51     78 187.1  54.8  33974  286.42 0855.36
2009/04/23 07:47:37.4       8    -81     52     82     97 174.2  35.5  33974  286.44 0855.36
2009/04/23 07:47:37.5       9    -94     54     95    109 174.2  31.9  33972  286.41 0855.36
2009/04/23 07:47:37.6      27   -103     57    107    121 165.3  30.3  33976  286.46 0855.36
2009/04/23 07:47:37.7      18   -128     55    130    141 172.0  24.1  33980  286.52 0855.36
2009/04/23 07:47:37.8       7   -165     82    166    185 177.5  28.0  33978  286.49 0855.36
2009/04/23 07:47:37.9      18   -169     73    171    185 173.8  24.6  33978  286.51 0855.36
2009/04/23 07:47:38.0       3   -204     49    205    211 179.0  13.5  33976  286.47 0855.36
2009/04/23 07:47:38.1     -23   -175     18    177    179 187.6   6.1  33976  286.46 0855.36
2009/04/23 07:47:38.2      13   -165     66    166    178 175.3  23.0  33978  286.51 0855.36
2009/04/23 07:47:38.3      27   -168     87    171    191 170.9  28.7  33976  286.47 0855.36
2009/04/23 07:47:38.4      15   -196     67    197    209 175.5  18.9  33978  286.49 0855.36
2009/04/23 07:47:38.5      10   -163     57    164    174 176.4  19.2  33976  286.47 0855.36
2009/04/23 07:47:38.6      21   -151     51    153    162 171.9  18.6  33978  286.51 0855.36
2009/04/23 07:47:38.7      26   -126     80    129    151 168.0  35.5  33978  286.51 0855.36
2009/04/23 07:47:38.8       3   -145     66    146    160 178.6  25.9  33978  286.49 0855.36
2009/04/23 07:47:38.9      84   -127     92    153    178 146.6  34.0  33978  286.51 0855.36
2009/04/23 07:47:39.0     148    -71     44    165    171 115.8  15.0  33978  286.51 0855.36
2009/04/23 07:47:39.1     166    -82     42    186    191 116.4  12.9  33978  286.51 0855.36
2009/04/23 07:47:39.2     176    -64     16    188    189 110.2   4.9  33978  286.51 0855.36
2009/04/23 07:47:39.4     125    -41     64    132    146 108.4  27.3  33980  286.52 0855.36
2009/04/23 07:47:39.4      92    -90    103    129    165 134.4  42.7  33980  286.52 0855.36
2009/04/23 07:47:39.5     141   -122     46    187    193 130.9  13.9  33978  286.49 0855.36
2009/04/23 07:47:39.6     152    -92     59    178    188 121.3  18.4  33980  286.52 0855.36
2009/04/23 07:47:39.7     113    -77     49    137    145 124.2  20.0  33980  286.52 0855.36
2009/04/23 07:47:39.8      94    -67     49    116    125 125.9  24.1  33978  286.51 0855.36
2009/04/23 07:47:39.9      99    -66     42    120    128 123.7  19.4  33982  286.56 0855.36
2009/04/23 07:47:40.0      90    -86     47    125    133 133.6  21.0  33982  286.56 0855.36
2009/04/23 07:47:40.1      53   -115     65    127    142 155.1  29.3  33980  286.52 0855.36
2009/04/23 07:47:40.2      12   -121     59    122    135 174.2  27.3  33978  286.51 0855.36
2009/04/23 07:47:40.3      -7    -98     53     99    112 184.4  30.8  33978  286.49 0855.36
2009/04/23 07:47:40.4      -9   -117    104    118    157 184.5  46.2  33978  286.49 0855.36
2009/04/23 07:47:40.5      18    -55    105     59    120 161.3  68.3  33976  286.47 0855.36
2009/04/23 07:47:40.6      38    -83     84     92    124 155.5  47.5  33978  286.51 0855.36
2009/04/23 07:47:40.7      68    -79     73    105    127 139.5  38.0  33978  286.49 0855.36
2009/04/23 07:47:40.8      89    -83    100    122    157 133.1  43.7  33980  286.52 0855.36
2009/04/23 07:47:40.9      63   -192     76    203    216 161.7  21.5  33978  286.51 0855.36
2009/04/23 07:47:41.0      85   -195    156    213    264 156.4  39.7  33978  286.50 0855.36
2009/04/23 07:47:41.1     111   -171    142    205    249 147.0  38.0  33976  286.47 0855.36
2009/04/23 07:47:41.2      50   -150    139    159    211 161.3  45.8  33978  286.49 0855.36
2009/04/23 07:47:41.3      48    -82     86     96    128 149.7  46.9  33976  286.46 0855.36
2009/04/23 07:47:41.4      62   -121     74    137    155 152.8  31.3  33980  286.54 0855.36
2009/04/23 07:47:41.5      -1   -117     93    118    150 180.9  42.7  33978  286.49 0855.36
2009/04/23 07:47:41.6      20   -123     46    125    133 170.7  20.9  33980  286.52 0855.36
2009/04/23 07:47:41.7      48   -137     28    146    149 160.4  11.0  33976  286.47 0855.36
2009/04/23 07:47:41.8      88   -130     37    158    163 145.7  13.2  33976  286.47 0855.36
2009/04/23 07:47:41.9      75   -147     58    166    177 152.9  19.4  33978  286.51 0855.36
2009/04/23 07:47:42.0      -7   -181     39    182    187 182.5  12.2  33974  286.44 0855.36
2009/04/23 07:47:42.1      -2   -145     48    146    154 180.9  18.4  33976  286.46 0855.36
2009/04/23 07:47:42.3      22   -142     28    144    147 171.1  11.0  33978  286.49 0855.36
2009/04/23 07:47:42.4      14   -160      2    161    162 174.7   1.0  33976  286.46 0855.36
2009/04/23 07:47:42.5       9   -166     11    167    168 176.6   3.8  33976  286.47 0855.36
2009/04/23 07:47:42.5       6   -144      7    145    146 177.4   2.9  33976  286.46 0855.36
2009/04/23 07:47:42.7      31   -146      7    150    151 168.0   2.9  33976  286.47 0855.36
2009/04/23 07:47:42.8       0   -159     23    160    162 180.0   8.5  33974  286.44 0855.36
2009/04/23 07:47:42.9      63   -186     44    197    202 161.3  12.6  33978  286.51 0855.37
2009/04/23 07:47:43.0      53   -195     39    203    207 164.6  11.1  33976  286.47 0855.37
2009/04/23 07:47:43.1      83   -273     70    286    295 163.1  13.9  33976  286.47 0855.37
2009/04/23 07:47:43.2      11   -274     33    275    278 177.5   6.9  33970  286.35 0855.37
2009/04/23 07:47:43.3     -35   -252     30    255    257 188.1   6.9  33974  286.43 0855.37
2009/04/23 07:47:43.4     -53   -201     89    209    227 194.9  24.6  33976  286.46 0855.37
2009/04/23 07:47:43.5     -17   -182     76    183    198 185.6  23.6  33972  286.41 0855.37
2009/04/23 07:47:43.6      -2   -136     98    137    168 180.9  39.1  33974  286.44 0855.37
2009/04/23 07:47:43.7      50   -160    122    168    207 162.6  39.7  33976  286.46 0855.37
2009/04/23 07:47:43.8       8   -166    136    167    215 177.1  43.7  33976  286.47 0855.37
2009/04/23 07:47:43.9     141   -201     64    246    255 145.0  14.7  33976  286.45 0855.37
2009/04/23 07:47:44.0     147   -227     95    271    288 147.0  19.4  33978  286.50 0855.37
2009/04/23 07:47:44.1      48   -188    109    195    223 165.7  31.6  33976  286.46 0855.37
2009/04/23 07:47:44.2     143   -199     84    246    261 144.2  18.9  33980  286.53 0855.37
2009/04/23 07:47:44.3     115   -191    -49    224    230 149.0 -12.4  33976  286.47 0855.37
2009/04/23 07:47:44.4      48   -211     71    217    229 167.1  18.1  33976  286.47 0855.37
2009/04/23 07:47:44.5     113   -233     84    260    274 154.1  17.9  33980  286.52 0855.37
2009/04/23 07:47:44.6     118   -199     96    232    251 149.2  23.8  33980  286.52 0855.37
2009/04/23 07:47:44.7     111   -185     96    217    237 149.0  25.2  33980  286.52 0855.37
2009/04/23 07:47:44.8     108   -208    103    235    256 152.6  25.1  33980  286.52 0855.37
2009/04/23 07:47:44.9      77   -203     41    218    222 159.1  10.8  33974  286.42 0855.37
2009/04/23 07:47:45.0     151   -182     -9    237    238 140.4  -2.2  33978  286.48 0855.37
2009/04/23 07:47:45.1     137   -168     -4    218    219 140.8  -1.1  33974  286.44 0855.37
2009/04/23 07:47:45.2     151   -118     42    192    197 128.0  12.6  33970  286.37 0855.37
2009/04/23 07:47:45.3     131    -83     73    156    172 122.4  27.0  33978  286.49 0855.37
2009/04/23 07:47:45.4     115    -68      8    134    135 120.6   3.8  33978  286.49 0855.37
2009/04/23 07:47:45.5     108    -22     44    111    119 101.5  22.5  33976  286.47 0855.37
2009/04/23 07:47:45.6      98    -95     32    137    141 134.0  13.2  33976  286.47 0855.37
2009/04/23 07:47:45.7     144    -87     30    169    172 121.1  10.1  33974  286.42 0855.37
2009/04/23 07:47:45.8     123    -50     45    133    141 112.2  18.9  33976  286.46 0855.37
2009/04/23 07:47:45.9     137    -49     34    146    150 109.9  13.1  33974  286.44 0855.37
2009/04/23 07:47:46.0      87    -12     32     88     93  98.4  20.0  33972  286.41 0855.37
2009/04/23 07:47:46.1      64      3     51     65     82  86.5  42.7  33976  286.47 0855.37
2009/04/23 07:47:46.2      33     15     75     37     83  64.8  71.9  33978  286.49 0855.37
2009/04/23 07:47:46.3      49    -15     75     52     91 107.7  62.1  33976  286.46 0855.37
2009/04/23 07:47:46.4      42    -14     63     45     77 108.6  60.6  33974  286.44 0855.37
2009/04/23 07:47:46.5      78     17     52     81     96  77.2  35.6  33978  286.49 0855.37
2009/04/23 07:47:46.6      90      1     54     91    105  89.2  34.0  33974  286.44 0855.37
2009/04/23 07:47:46.7      80      4     47     81     93  86.5  33.5  33976  286.46 0855.37
2009/04/23 07:47:46.8     122      9     72    123    142  85.7  32.9  33974  286.42 0855.37
2009/04/23 07:47:46.9      94      7     87     95    128  85.6  47.9  33974  286.42 0855.38
2009/04/23 07:47:47.0      63    -12     76     65    100 101.5  55.4  33974  286.44 0855.38
2009/04/23 07:47:47.1      87    -37     83     95    126 113.5  45.8  33980  286.52 0855.38
2009/04/23 07:47:47.2      95    -14     66     97    117  98.8  37.0  33974  286.44 0855.38
2009/04/23 07:47:47.3      86    -14     77     88    116  99.7  45.8  33976  286.47 0855.38
2009/04/23 07:47:47.4      58     37     71     69     99  57.5  50.7  33978  286.49 0855.38
2009/04/23 07:47:47.5      -1     20     57     21     60 355.5  79.2  33978  286.51 0855.38
2009/04/23 07:47:47.6      12     30     33     33     46  21.8  50.1  33976  286.47 0855.38
2009/04/23 07:47:47.7      40     36     28     54     60  47.8  30.3  33978  286.51 0855.38
2009/04/23 07:47:47.8       7     22     55     24     60  18.3  75.0  33978  286.49 0855.38
2009/04/23 07:47:47.9      14     22     51     27     57  32.6  69.8  33978  286.51 0855.38
2009/04/23 07:47:48.0      30     60     50     68     84  26.3  40.1  33976  286.47 0855.38
2009/04/23 07:47:48.1      22     69     62     73     95  18.3  44.3  33982  286.56 0855.38
2009/04/23 07:47:48.2      16     48     57     51     76  18.5  52.2  33988  286.66 0855.38
2009/04/23 07:47:48.3      14     58     61     60     85  14.3  49.7  33984  286.61 0855.38
2009/04/23 07:47:48.4      10     64     35     65     73   8.9  31.4  33978  286.49 0855.38
2009/04/23 07:47:48.5       6     17     99     19    100  18.7  89.6  33980  286.54 0855.38
2009/04/23 07:47:48.6      14      0     66     15     67  90.0  88.0  33980  286.54 0855.38
2009/04/23 07:47:48.7      50     -4     63     51     81  95.2  56.9  33980  286.52 0855.38
2009/04/23 07:47:48.8      73     14     78     75    108  78.5  51.2  33982  286.57 0855.38
2009/04/23 07:47:48.9      61      0     74     62     96  90.9  55.8  33982  286.56 0855.38
2009/04/23 07:47:49.0      43    -26     74     51     89 120.7  62.6  33982  286.57 0855.38
2009/04/23 07:47:49.1      90    -25     63     94    113 105.5  36.5  33980  286.54 0855.38
2009/04/23 07:47:49.2      96    -41     75    105    129 113.5  39.5  33980  286.54 0855.38
2009/04/23 07:47:49.3     112    -46     81    122    146 112.2  36.5  33978  286.49 0855.38
2009/04/23 07:47:49.4     127   -118     93    174    197 132.9  30.6  33978  286.49 0855.38
2009/04/23 07:47:49.5     140   -166     67    218    229 139.9  17.1  33976  286.47 0855.38
2009/04/23 07:47:49.6      34   -159     73    163    178 167.7  25.9  33978  286.49 0855.38
2009/04/23 07:47:49.7      66   -180     50    193    200 159.7  14.7  33976  286.47 0855.38
2009/04/23 07:47:49.8      59   -211     90    220    237 164.2  23.6  33976  286.47 0855.38
2009/04/23 07:47:49.9      71   -215    116    227    254 161.7  29.2  33978  286.48 0855.38
2009/04/23 07:47:50.0      52   -166     74    175    190 162.4  24.3  33974  286.44 0855.38
2009/04/23 07:47:50.1      67   -141     81    157    176 154.5  29.3  33978  286.51 0855.38
2009/04/23 07:47:50.2      62   -165     49    177    184 159.3  15.6  33980  286.52 0855.38
2009/04/23 07:47:50.3      86   -183     -3    203    204 154.7  -1.1  33978  286.51 0855.38
2009/04/23 07:47:50.4      97   -160    -41    188    193 148.6 -12.4  33976  286.47 0855.38
2009/04/23 07:47:50.5     100    -79    -13    128    129 128.2  -6.2  33978  286.49 0855.38
2009/04/23 07:47:50.6     114    -16     22    116    119  98.0  11.1  33978  286.51 0855.38
2009/04/23 07:47:50.7     131    -14     11    132    133  96.2   4.9  33976  286.47 0855.38
2009/04/23 07:47:50.8     142    -11      5    143    144  94.8   2.3  33976  286.47 0855.38
2009/04/23 07:47:50.9     138     19     16    140    142  82.1   6.9  33978  286.49 0855.38
2009/04/23 07:47:51.0     121     29     32    125    130  76.3  14.7  33978  286.49 0855.38
2009/04/23 07:47:51.1     141     38     -1    147    148  74.9  -0.7  33978  286.49 0855.38
2009/04/23 07:47:51.2     166     74      8    182    183  65.8   2.8  33980  286.54 0855.38
2009/04/23 07:47:51.3     186     66     -4    198    199  70.5  -1.3  33986  286.62 0855.38
2009/04/23 07:47:51.4     164     55     11    174    175  71.4   3.8  33986  286.64 0855.38
2009/04/23 07:47:51.5     160     45     26    167    170  74.3   9.0  33980  286.52 0855.38
2009/04/23 07:47:51.6     142     60      7    155    156  66.9   2.9  33986  286.64 0855.38
2009/04/23 07:47:51.7     115     25     16    118    120  77.6   8.0  33984  286.59 0855.38
2009/04/23 07:47:51.8     111     30    -27    116    120  74.9 -13.4  33982  286.57 0855.38
2009/04/23 07:47:51.9     102      7    -29    103    107  85.7 -20.7  33976  286.47 0855.38
2009/04/23 07:47:52.0      88     31    -10     94     95  70.5  -6.2  33980  286.52 0855.38
2009/04/23 07:47:52.1      72     24    -29     76     81  71.4 -25.9  33976  286.47 0855.38
2009/04/23 07:47:52.2      58     13     -3     60     61  76.7  -3.2  33978  286.49 0855.38
2009/04/23 07:47:52.3      63     -4     17     64     67  94.3  15.2  33978  286.51 0855.38
2009/04/23 07:47:52.4      64    -46      4     80     81 125.9   3.3  33978  286.51 0855.38
2009/04/23 07:47:52.5      55    -40      3     69     70 126.0   2.9  33978  286.49 0855.38
2009/04/23 07:47:52.6      45    -32      2     56     57 125.1   2.8  33978  286.51 0855.38
2009/04/23 07:47:52.7      35    -36      2     51     52 135.8   2.9  33978  286.49 0855.38
2009/04/23 07:47:52.8      31    -38      2     50     51 140.4   2.8  33978  286.51 0855.38
2009/04/23 07:47:52.9      13    -31      6     34     35 156.4  11.1  33976  286.47 0855.38
2009/04/23 07:47:53.0       6    -17     -7     19     21 160.0 -19.7  33976  286.47 0855.38
2009/04/23 07:47:53.1     -20    -26    -27     34     43 217.8 -47.1  33978  286.49 0855.38
2009/04/23 07:47:53.2     -27    -39    -19     48     51 214.3 -26.4  33976  286.47 0855.38
2009/04/23 07:47:53.3     -32    -16    -24     37     44 242.9 -40.9  33978  286.49 0855.38
2009/04/23 07:47:53.4     -31    -32    -13     45     47 224.2 -16.6  33978  286.49 0855.38
2009/04/23 07:47:53.5     -31    -42    -19     53     57 217.0 -19.7  33980  286.52 0855.38
2009/04/23 07:47:53.6       0    -42    -30     43     52 180.0 -43.0  33978  286.51 0855.38
2009/04/23 07:47:53.7       7    -46    -14     47     50 171.1 -16.6  33980  286.52 0855.38
2009/04/23 07:47:53.8       8    -59    -15     60     63 171.9 -14.5  33982  286.57 0855.38
2009/04/23 07:47:53.9      22    -61    -45     65     79 160.0 -42.4  33982  286.56 0855.38
2009/04/23 07:47:54.0       0    -49    -42     50     65 180.9 -48.2  33980  286.52 0855.38
2009/04/23 07:47:54.1       2    -40    -23     41     47 176.4 -36.8  33980  286.52 0855.38
2009/04/23 07:47:54.2       0    -20      0     21     22 179.1  -2.2  33980  286.54 0855.38
2009/04/23 07:47:54.3       0    -20     -8     21     22 182.7 -25.4  33982  286.56 0855.38
2009/04/23 07:47:54.4     -11    -13      0     18     19 221.4  -2.2  33982  286.56 0855.38
2009/04/23 07:47:54.5     -11     12     10     17     19 316.8  35.5  33982  286.56 0855.38
2009/04/23 07:47:54.6     -12     27     26     30     39 334.5  45.8  33980  286.54 0855.38
2009/04/23 07:47:54.7     -10     11     48     16     50 316.6  81.0  33986  286.62 0855.38
2009/04/23 07:47:54.8       8      4     63     10     63  61.1  90.0  33986  286.62 0855.38
2009/04/23 07:47:54.9      26     -3     56     27     62  97.9  72.9  33986  286.62 0855.38
2009/04/23 07:47:55.0      17     -7     64     19     66 111.7  82.8  33986  286.64 0855.38
2009/04/23 07:47:55.1      21     -7     55     23     59 110.0  77.0  33982  286.57 0855.38
2009/04/23 07:47:55.2      27    -17     53     33     62 122.4  64.7  33988  286.66 0855.38
2009/04/23 07:47:55.3      16    -21     43     27     50 142.2  64.7  33990  286.71 0855.38
2009/04/23 07:47:55.4      17      0     31     18     35  90.0  64.7  33988  286.67 0855.38
2009/04/23 07:47:55.5       3      0     11      4     11  94.4  81.0  33986  286.62 0855.38
2009/04/23 07:47:55.6     -11    -36     36     38     52 198.3  50.0  33984  286.59 0855.38
2009/04/23 07:47:55.7     -49    -46     58     68     89 226.9  44.8  33982  286.56 0855.38
2009/04/23 07:47:55.8     -36    -51     34     63     71 215.2  31.3  33980  286.52 0855.38
2009/04/23 07:47:55.9      57    -48     54     75     92 130.4  39.7  33982  286.56 0855.38
2009/04/23 07:47:56.0      89   -124     -8    153    154 144.4  -3.2  33978  286.49 0855.38
2009/04/23 07:47:56.1      66   -139     43    155    161 154.5  15.6  33978  286.49 0855.38
2009/04/23 07:47:56.2      58   -103     77    119    141 150.6  35.6  33972  286.41 0855.38
2009/04/23 07:47:56.3      96   -109     51    146    155 138.5  19.4  33972  286.41 0855.38
2009/04/23 07:47:56.4      78   -158     83    177    195 153.5  27.1  33968  286.34 0855.38
2009/04/23 07:47:56.5      77   -130     50    152    161 149.2  18.4  33972  286.39 0855.38
2009/04/23 07:47:56.6      50   -135     68    145    160 159.5  27.0  33974  286.42 0855.38
2009/04/23 07:47:56.7      32   -157    124    161    203 168.4  41.6  33972  286.39 0855.38
2009/04/23 07:47:56.8     114   -178    131    212    249 147.3  34.8  33974  286.42 0855.38
2009/04/23 07:47:56.9      61   -154    130    166    210 158.2  42.2  33972  286.39 0855.38
2009/04/23 07:47:57.0      74    -96    117    122    169 142.2  49.0  33974  286.42 0855.38
2009/04/23 07:47:57.1      35    -32     81     48     94 133.1  66.2  33974  286.42 0855.38
2009/04/23 07:47:57.2       3    -78     98     79    125 177.3  56.9  33972  286.39 0855.38
2009/04/23 07:47:57.3      24   -150    146    153    211 170.7  48.7  33972  286.41 0855.38
2009/04/23 07:47:57.4     -13   -201    159    202    257 183.8  42.2  33972  286.38 0855.38
2009/04/23 07:47:57.5      -2   -189    185    190    265 180.7  49.2  33974  286.42 0855.38
2009/04/23 07:47:57.6      16   -160    191    161    249 174.2  55.6  33972  286.41 0855.38
2009/04/23 07:47:57.7      23   -136    210    138    251 170.3  63.9  33972  286.39 0855.38
2009/04/23 07:47:57.8      63   -122    156    138    208 152.8  54.0  33970  286.37 0855.38
2009/04/23 07:47:57.9       5    -15     90     16     91 161.3  90.0  33976  286.47 0855.37
2009/04/23 07:47:58.0      97    -43    129    107    167 114.0  56.1  33972  286.39 0855.37
2009/04/23 07:47:58.1      53    -49     88     73    114 133.1  56.4  33974  286.44 0855.37
2009/04/23 07:47:58.2      51    -61     75     80    109 140.4  48.0  33972  286.41 0855.37
2009/04/23 07:47:58.4      81    -34     37     89     96 113.1  23.6  33974  286.42 0855.37
2009/04/23 07:47:58.4      69    -55      3     89     90 128.6   2.3  33974  286.42 0855.37
2009/04/23 07:47:58.5      51    -72     30     89     95 144.8  18.9  33974  286.44 0855.37
2009/04/23 07:47:58.6      52    -39     34     65     73 126.9  29.3  33974  286.42 0855.37
2009/04/23 07:47:58.7      54    -13     32     56     64 104.2  32.4  33974  286.42 0855.37
2009/04/23 07:47:58.8      41    -24     40     48     62 120.7  43.8  33976  286.47 0855.37
2009/04/23 07:47:58.9      22      4     47     23     52  78.5  72.8  33984  286.59 0855.37
2009/04/23 07:47:59.0       2     -7     33      8     33 161.3  86.9  33984  286.59 0855.37
2009/04/23 07:47:59.1     -25    -20     35     33     48 230.5  50.1  33978  286.51 0855.37
2009/04/23 07:47:59.2     -15    -16     31     22     38 223.2  62.6  33978  286.49 0855.37
2009/04/23 07:47:59.3     -18     -7     16     20     25 248.3  43.7  33976  286.47 0855.37
2009/04/23 07:47:59.4     -21      0     10     22     24 270.0  25.1  33978  286.49 0855.37
2009/04/23 07:47:59.5     -28      0      1     29     30 270.0   2.8  33976  286.47 0855.37
2009/04/23 07:47:59.6     -46      3     12     47     49 274.4  15.3  33974  286.44 0855.37
2009/04/23 07:47:59.7     -46      7     16     47     50 278.8  19.4  33978  286.49 0855.37
2009/04/23 07:47:59.8     -22      0     17     23     28 270.0  41.7  33982  286.56 0855.37
2009/04/23 07:47:59.9     -21      0      3     22     23 270.0   9.0  33982  286.56 0855.37
2009/04/23 07:48:00.0      10      3    -15     11     18  71.6 -64.9  33980  286.52 0855.37
2009/04/23 07:48:00.1     -21     13     -8     26     27 302.5 -23.8  33982  286.56 0855.37
2009/04/23 07:48:00.2     -40      1     14     41     44 272.6  19.2  33978  286.51 0855.37
2009/04/23 07:48:00.3     -47     -3     41     48     63 265.6  44.8  33978  286.49 0855.37
2009/04/23 07:48:00.4     -78    -17     56     81     98 257.2  37.6  33974  286.42 0855.37
2009/04/23 07:48:00.5     -92    -22     44     95    104 256.3  26.6  33972  286.41 0855.37
2009/04/23 07:48:00.6     -92    -43     49    102    113 244.7  27.2  33974  286.44 0855.37
2009/04/23 07:48:00.7    -137    -18     49    139    147 262.5  20.0  33970  286.37 0855.37
2009/04/23 07:48:00.8    -147     -4     17    148    150 268.3   6.9  33974  286.42 0855.37
2009/04/23 07:48:00.9    -142     12     -2    143    144 275.2  -1.2  33976  286.47 0855.37
2009/04/23 07:48:01.0     -95    -11     -6     96     97 263.4  -4.1  33976  286.46 0855.37
2009/04/23 07:48:01.1     -69     15     40     71     81 282.4  31.9  33972  286.39 0855.37
2009/04/23 07:48:01.2     -94     31      4    100    101 288.4   2.8  33976  286.46 0855.37
2009/04/23 07:48:01.3    -105     57    -10    120    121 298.8  -5.1  33978  286.49 0855.37
2009/04/23 07:48:01.4    -108     72    -14    131    132 303.7  -6.2  33978  286.51 0855.37
2009/04/23 07:48:01.5    -106     70    -11    128    129 303.3  -5.1  33976  286.47 0855.37
2009/04/23 07:48:01.6    -107     68     -4    127    128 302.5  -2.2  33980  286.54 0855.37
2009/04/23 07:48:01.7    -123     61     -5    138    139 296.6  -2.2  33978  286.51 0855.37
2009/04/23 07:48:01.8    -137     48     -9    146    147 289.5  -3.7  33980  286.52 0855.37
2009/04/23 07:48:01.9    -156     35     13    160    161 282.8   4.9  33976  286.46 0855.37
2009/04/23 07:48:02.0    -138     57     -3    150    151 292.6  -1.2  33980  286.54 0855.37
2009/04/23 07:48:02.1     -92     74    -23    119    122 308.6 -11.3  33978  286.51 0855.37
2009/04/23 07:48:02.2     -54     80    -53     97    110 325.7 -35.7  33978  286.51 0855.37
2009/04/23 07:48:02.3     -49     69    -74     85    112 324.4 -49.8  33980  286.52 0855.37
2009/04/23 07:48:02.4     -75     47    -75     89    116 302.0 -48.7  33982  286.56 0855.37
2009/04/23 07:48:02.5     -73     77    -64    107    124 316.3 -37.9  33984  286.59 0855.37
2009/04/23 07:48:02.6     -77     30    -18     83     86 291.7 -12.4  33984  286.59 0855.37
2009/04/23 07:48:02.7     -69      0    -19     70     73 270.0 -15.5  33984  286.59 0855.37
2009/04/23 07:48:02.8     -67     20     -6     70     71 286.8  -5.2  33984  286.61 0855.37
2009/04/23 07:48:02.9     -29     12      1     32     33 293.5   2.9  33986  286.62 0855.37
2009/04/23 07:48:03.0      -8      0     17      9     19 270.0  68.8  33984  286.61 0855.37
2009/04/23 07:48:03.1       0    -14     33     15     36 182.7  73.1  33984  286.59 0855.37
2009/04/23 07:48:03.2      -5     -6     28      8     29 219.6  80.7  33984  286.59 0855.37
2009/04/23 07:48:03.3      -1     -6     26      7     26 189.7  84.9  33982  286.56 0855.37
2009/04/23 07:48:03.4      -3      0     35      4     35 270.0  90.0  33982  286.56 0855.37
2009/04/23 07:48:03.5      -9     -5     36     11     37 241.1  80.7  33986  286.64 0855.37
2009/04/23 07:48:03.6      -7      0     37      8     37 270.0  89.0  33984  286.59 0855.37
2009/04/23 07:48:03.7      -3      0     42      4     42 270.0  90.0  33986  286.64 0855.37
2009/04/23 07:48:03.8       6     17     53     19     56  18.7  81.2  33986  286.62 0855.37
2009/04/23 07:48:03.9      25     40     49     48     68  31.6  49.1  33996  286.81 0855.37
2009/04/23 07:48:04.0      46     36     59     59     83  51.4  50.1  34024  287.27 0855.37
2009/04/23 07:48:04.1      46     27     65     54     84  59.3  56.4  34044  287.62 0855.37
2009/04/23 07:48:04.2      28      3     48     29     56  82.1  64.7  34052  287.74 0855.37
2009/04/23 07:48:04.3      12     18     36     22     42  34.3  65.7  34068  288.01 0855.37
2009/04/23 07:48:04.4      19     64     37     67     76  16.9  31.4  34068  288.01 0855.37
2009/04/23 07:48:04.5      24     83     50     87    100  16.0  32.4  34086  288.31 0855.37
2009/04/23 07:48:04.6      -9     84     76     85    114 353.3  46.9  34010  287.05 0855.37
2009/04/23 07:48:04.7     -40     74     62     85    105 331.9  39.7  33992  286.73 0855.37
2009/04/23 07:48:04.8     -36     87     64     95    114 337.3  36.5  34024  287.27 0855.37
2009/04/23 07:48:04.9       6     67     70     68     97   5.3  49.7  34044  287.60 0855.37
2009/04/23 07:48:05.0      66     98     83    119    145  33.8  38.0  34100  288.57 0855.37
2009/04/23 07:48:05.1      74     89     97    116    151  39.6  43.8  34080  288.21 0855.37
2009/04/23 07:48:05.2      75     77     79    108    133  44.1  39.7  34056  287.81 0855.37
2009/04/23 07:48:05.3     121     39     57    128    140  71.8  25.2  34022  287.23 0855.37
2009/04/23 07:48:05.4      64     77     68    101    121  39.6  37.4  34056  287.81 0855.37
2009/04/23 07:48:05.5      93     44     79    104    130  64.6  41.6  34042  287.59 0855.37
2009/04/23 07:48:05.6     118     59     45    132    140  63.4  18.9  34044  287.60 0855.37
2009/04/23 07:48:05.7      85     80     42    118    125  46.8  20.0  34068  288.03 0855.37
2009/04/23 07:48:05.8     109     68     76    129    149  58.0  33.5  34144  289.30 0855.37
2009/04/23 07:48:05.9      97     58     75    114    136  59.3  35.6  34124  288.97 0855.37
2009/04/23 07:48:06.0      96     63     80    115    140  56.7  38.0  34096  288.48 0855.37
2009/04/23 07:48:06.1      83     80     93    116    148  46.0  43.3  34082  288.26 0855.37
2009/04/23 07:48:06.2      64     85     90    107    139  37.4  43.8  34068  288.01 0855.37
2009/04/23 07:48:06.3      58     90     90    108    140  33.0  43.8  34070  288.06 0855.37
2009/04/23 07:48:06.4      65     82     90    105    138  38.3  45.4  34066  287.99 0855.37
2009/04/23 07:48:06.5      61     96     78    114    138  32.5  37.6  34074  288.13 0855.37
2009/04/23 07:48:06.6      76     81     49    112    122  43.2  25.1  34076  288.16 0855.37
2009/04/23 07:48:06.7      26     78     74     83    111  18.7  46.4  34094  288.45 0855.37
2009/04/23 07:48:06.8      23     61     40     66     77  20.9  35.5  34098  288.52 0855.37
2009/04/23 07:48:06.9      34     58     33     68     75  30.7  27.3  34106  288.67 0855.37
2009/04/23 07:48:07.0      59     55     37     81     89  46.9  26.2  34116  288.82 0855.37
2009/04/23 07:48:07.1      79     29     63     85    105  69.6  40.1  34130  289.08 0855.37
2009/04/23 07:48:07.2      99     13     72    100    123  82.1  39.5  34102  288.60 0855.37
2009/04/23 07:48:07.3     126     34     71    131    149  74.9  31.3  34044  287.60 0855.37
2009/04/23 07:48:07.4      96     40     60    105    120  67.4  32.4  34052  287.76 0855.37
2009/04/23 07:48:07.5     108     43     71    117    136  68.2  34.4  34042  287.57 0855.37
2009/04/23 07:48:07.6     136    126     34    186    190  47.3  10.6  34036  287.49 0855.37
2009/04/23 07:48:07.7     156     95     75    183    197  58.5  23.4  34040  287.54 0855.37
2009/04/23 07:48:07.8     107    140     22    177    179  37.2   7.2  34042  287.57 0855.37
2009/04/23 07:48:07.9     101    101     18    144    146  45.1   7.5  34064  287.94 0855.37
2009/04/23 07:48:08.0     133     43     14    140    141  71.8   5.9  34066  287.98 0855.37
2009/04/23 07:48:08.1     125     49     54    135    145  68.3  23.0  34066  287.98 0855.37
2009/04/23 07:48:08.2     114     54     56    127    138  64.8  25.1  34054  287.77 0855.37
2009/04/23 07:48:08.3     100     54     43    114    121  61.6  21.0  34040  287.55 0855.37
2009/04/23 07:48:08.4      76     74     14    107    108  45.6   7.5  34048  287.67 0855.37
2009/04/23 07:48:08.5      75    118     -5    141    142  32.6  -2.2  34048  287.67 0855.37
2009/04/23 07:48:08.6      74     96    -26    122    125  37.8 -12.4  34038  287.50 0855.37
2009/04/23 07:48:08.7      61     96     14    114    115  32.6   7.5  34030  287.38 0855.37
2009/04/23 07:48:08.9      68     80     18    106    108  40.5  10.1  34048  287.69 0855.37
2009/04/23 07:48:09.0      83     72     46    110    119  49.1  23.6  34084  288.28 0855.37
2009/04/23 07:48:09.1      93     93     42    132    139  45.0  17.9  34112  288.75 0855.37
2009/04/23 07:48:09.2     132    114     37    175    180  49.1  12.2  34084  288.30 0855.37
2009/04/23 07:48:09.3     153    115     34    192    196  53.1  10.1  34080  288.21 0855.37
2009/04/23 07:48:09.4     173    118     10    210    211  55.8   2.9  34054  287.77 0855.37
2009/04/23 07:48:09.5     161    136     18    212    213  49.8   4.9  34024  287.27 0855.37
2009/04/23 07:48:09.6     130    114    -14    174    175  48.7  -4.9  34028  287.33 0855.37
2009/04/23 07:48:09.7     150     74     10    168    169  63.8   3.6  34050  287.72 0855.37
2009/04/23 07:48:09.8     165     85     36    186    190  62.5  11.1  34080  288.23 0855.37
2009/04/23 07:48:09.9     168     92     64    192    203  61.2  18.6  34062  287.92 0855.37
2009/04/23 07:48:10.0     164    115     77    201    215  54.9  21.7  34056  287.82 0855.38
2009/04/23 07:48:10.1     164     93     87    189    208  60.5  27.0  34046  287.65 0855.38
2009/04/23 07:48:10.2     181     74     88    196    214  67.8  25.9  34036  287.47 0855.38
2009/04/23 07:48:10.3     183    108     41    213    217  59.3  11.0  34028  287.33 0855.38
2009/04/23 07:48:10.4     148    102     30    181    184  55.4   9.5  34020  287.21 0855.38
2009/04/23 07:48:10.5     171     84     67    191    202  63.8  20.0  34024  287.27 0855.38
2009/04/23 07:48:10.6     193     77     95    208    228  68.2  26.6  34022  287.25 0855.38
2009/04/23 07:48:10.7     170     80     75    189    203  64.7  22.8  34024  287.28 0855.38
2009/04/23 07:48:10.8     174    124     66    214    225  54.5  17.3  34026  287.32 0855.38
2009/04/23 07:48:10.9     189    104     43    216    221  61.2  11.4  34034  287.45 0855.38
2009/04/23 07:48:11.0     172     84     30    192    195  64.0   9.0  34058  287.84 0855.38
2009/04/23 07:48:11.1     143     85     42    167    173  59.1  14.3  34034  287.45 0855.38
2009/04/23 07:48:11.2     148     92     77    175    191  58.2  25.3  34022  287.23 0855.38
2009/04/23 07:48:11.3     161     86     24    183    185  61.8   7.5  34022  287.23 0855.38
2009/04/23 07:48:11.4     147     95     76    176    191  57.1  24.9  34036  287.47 0855.38
2009/04/23 07:48:11.5     185    118     41    220    224  57.5  10.6  34038  287.50 0855.38
2009/04/23 07:48:11.6     133    108     65    172    183  50.9  21.5  34042  287.59 0855.38
2009/04/23 07:48:11.7     154     90     86    179    198  59.8  27.4  34072  288.09 0855.38
2009/04/23 07:48:11.8     152     61    107    164    195  68.0  36.3  34102  288.58 0855.38
2009/04/23 07:48:11.9     146     53    128    156    201  70.0  43.7  34114  288.80 0855.38
2009/04/23 07:48:12.0     175     49    118    182    216  74.3  35.7  34108  288.69 0855.38
2009/04/23 07:48:12.1     169     52    123    177    215  72.7  38.6  34116  288.84 0855.38
2009/04/23 07:48:12.2     158     44    134    165    212  74.3  43.7  34102  288.60 0855.38
2009/04/23 07:48:12.3     154     46    149    161    219  73.2  47.9  34060  287.87 0855.38
2009/04/23 07:48:12.4     114     37     87    121    149  71.8  39.5  34054  287.79 0855.38
2009/04/23 07:48:12.5      69     57     33     90     95  50.5  20.4  34048  287.69 0855.38
2009/04/23 07:48:12.6      76    -15     76     78    108 101.4  50.0  34044  287.62 0855.38
2009/04/23 07:48:12.7     105     -7     33    106    112  94.3  17.3  34044  287.60 0855.38
2009/04/23 07:48:12.8     152     -9     34    153    157  93.5  12.6  34036  287.47 0855.38
2009/04/23 07:48:12.9     137     -4    -22    138    140  91.7  -9.4  34040  287.55 0855.38
2009/04/23 07:48:13.0     180     56     49    189    196  72.5  14.5  34026  287.32 0855.38
2009/04/23 07:48:13.1     183    -16     22    184    186  95.2   6.9  34030  287.38 0855.38
2009/04/23 07:48:13.2     168    -75     75    185    199 114.2  23.4  34022  287.25 0855.38
2009/04/23 07:48:13.3     121    -91    -19    152    154 126.9  -7.2  34034  287.43 0855.38
2009/04/23 07:48:13.4     189    -21    -48    191    198  96.4 -14.3  34036  287.49 0855.38
2009/04/23 07:48:13.5     135    -45    -13    143    144 108.6  -5.2  34036  287.49 0855.38
2009/04/23 07:48:13.6     100    -94     -7    138    139 133.1  -3.2  34036  287.47 0855.38
2009/04/23 07:48:13.7      63    -83    -25    105    108 142.6 -13.4  34038  287.50 0855.38
2009/04/23 07:48:13.8      86    -35     -1     93     94 112.2  -0.7  34036  287.47 0855.38
2009/04/23 07:48:13.9      83    -53    -32     99    104 122.5 -23.8  34038  287.52 0855.38
2009/04/23 07:48:14.0      88    -64    -32    109    113 126.0 -21.2  34042  287.59 0855.38
2009/04/23 07:48:14.1     107   -101    -35    148    153 133.2 -13.4  34040  287.54 0855.38
2009/04/23 07:48:14.2     136    -83    -39    160    165 121.5 -13.7  34038  287.52 0855.38
2009/04/23 07:48:14.3     150   -129    -26    198    200 130.7  -7.5  34042  287.57 0855.38
2009/04/23 07:48:14.4     142   -161    -20    215    217 138.6  -5.4  34042  287.59 0855.38
2009/04/23 07:48:14.5     114   -138    -61    180    191 140.4 -18.9  34050  287.70 0855.38
2009/04/23 07:48:14.6     161    -77     -7    179    180 115.5  -2.3  34026  287.32 0855.38
2009/04/23 07:48:14.7     171    -73      5    187    188 113.3   1.6  34018  287.18 0855.38
2009/04/23 07:48:14.8     113    -72      6    135    136 122.5   2.8  34028  287.35 0855.38
2009/04/23 07:48:14.9      71   -111    -36    132    137 147.4 -15.4  34034  287.45 0855.38
2009/04/23 07:48:15.0      91    -86    -42    126    132 133.2 -23.6  34032  287.40 0855.38
2009/04/23 07:48:15.1     139    -91     -6    167    168 123.3  -2.2  34032  287.42 0855.38
2009/04/23 07:48:15.2     121    -94      7    154    155 127.8   2.8  34032  287.40 0855.38
2009/04/23 07:48:15.3     144   -105      0    179    180 126.2  -0.3  34034  287.43 0855.38
2009/04/23 07:48:15.4     176    -70     -7    190    191 111.7  -2.2  34026  287.30 0855.38
2009/04/23 07:48:15.5     171    -81    -17    190    191 115.3  -5.2  34026  287.30 0855.38
2009/04/23 07:48:15.6     167    -73     25    183    185 113.7   7.8  34026  287.32 0855.38
2009/04/23 07:48:15.7     142   -104    -27    177    180 126.2  -8.8  34024  287.28 0855.38
2009/04/23 07:48:15.8     162   -105     -2    194    195 122.9  -0.7  34028  287.33 0855.38
2009/04/23 07:48:15.9     142    -90     25    169    171 122.5   8.5  34022  287.23 0855.38
2009/04/23 07:48:16.0     139   -138    -32    196    199 134.8  -9.4  34022  287.23 0855.39
2009/04/23 07:48:16.1     157   -137    -35    209    212 131.1  -9.6  34020  287.21 0855.39
2009/04/23 07:48:16.2     195   -115    -12    227    228 120.6  -3.2  34026  287.30 0855.39
2009/04/23 07:48:16.3     188   -106    -11    217    218 119.5  -3.1  34020  287.21 0855.39
2009/04/23 07:48:16.4     168   -109      3    201    202 123.1   1.0  34024  287.27 0855.39
2009/04/23 07:48:16.5     154   -121     -7    197    198 128.2  -2.2  34034  287.43 0855.39
2009/04/23 07:48:16.6     150   -149     18    212    213 134.7   4.9  34034  287.43 0855.39
2009/04/23 07:48:16.7     140   -159     58    213    221 138.6  15.3  34032  287.42 0855.39
2009/04/23 07:48:16.8     151   -108     60    186    196 125.7  17.9  34026  287.30 0855.39
2009/04/23 07:48:16.9     148    -46     38    155    160 107.3  13.9  34030  287.37 0855.39
2009/04/23 07:48:17.0     152    -11     21    153    155  94.4   7.8  34020  287.20 0855.39
2009/04/23 07:48:17.1     174    -97     -7    200    201 119.3  -2.3  34018  287.16 0855.39
2009/04/23 07:48:17.2     160    -86      8    182    183 118.2   2.8  34010  287.05 0855.39
2009/04/23 07:48:17.3     139    -82     36    162    167 120.7  12.6  34004  286.93 0855.39
2009/04/23 07:48:17.4     143    -67     -8    159    160 115.2  -3.1  33998  286.83 0855.39
2009/04/23 07:48:17.5     154    -41     -5    160    161 105.1  -2.1  33986  286.62 0855.39
2009/04/23 07:48:17.6     154    -41     -5    160    161 105.1  -1.8  33996  286.79 0855.39
2009/04/23 07:48:17.7     169    -16    -38    170    175  95.5 -12.6  34032  287.40 0855.39
2009/04/23 07:48:17.8     160    -12     10    161    162  94.4   3.6  34014  287.10 0855.39
2009/04/23 07:48:17.9     165    -12     32    166    170  94.4  11.1  34018  287.16 0855.39
2009/04/23 07:48:18.0     164    -11     38    165    170  94.1  13.2  34022  287.23 0855.39
2009/04/23 07:48:18.1     125    -45      1    134    135 110.0   0.8  34024  287.28 0855.39
2009/04/23 07:48:18.2     110    -55     14    124    125 116.6   6.9  34014  287.10 0855.39
2009/04/23 07:48:18.3      89    -65      6    111    112 126.0   3.3  34006  286.96 0855.39
2009/04/23 07:48:18.4      92    -76      8    120    121 129.5   3.8  34004  286.93 0855.39
2009/04/23 07:48:18.5      97   -111    -19    148    150 139.0  -7.3  34002  286.89 0855.39
2009/04/23 07:48:18.6      59   -124    -38    138    144 154.5 -15.5  34006  286.98 0855.39
2009/04/23 07:48:18.7      60   -119    -42    134    140 153.3 -22.8  34012  287.06 0855.39
2009/04/23 07:48:18.8      91    -97    -54    134    144 136.8 -27.4  34014  287.10 0855.39
2009/04/23 07:48:18.9      68   -107    -56    127    138 147.5 -29.5  34018  287.16 0855.39
2009/04/23 07:48:19.0      52    -97    -33    111    116 151.5 -16.6  34010  287.05 0855.39
2009/04/23 07:48:19.1      56   -119    -74    132    151 154.6 -35.8  34024  287.28 0855.39
2009/04/23 07:48:19.2      53   -112    -62    124    138 154.6 -33.1  34016  287.13 0855.39
2009/04/23 07:48:19.3      52    -61    -43     81     91 139.5 -34.7  34020  287.20 0855.39
2009/04/23 07:48:19.4      53    -49    -30     73     78 133.2 -27.4  34018  287.16 0855.39
2009/04/23 07:48:19.5      40      0    -54     41     67  90.0 -63.8  34020  287.20 0855.39
2009/04/23 07:48:19.6      38     24    -74     46     87  57.6 -69.1  34012  287.08 0855.39
2009/04/23 07:48:19.7      42     25    -70     50     86  59.3 -65.5  34016  287.13 0855.39
2009/04/23 07:48:19.8      32      2    -52     33     61  85.6 -69.1  34018  287.16 0855.39
2009/04/23 07:48:19.9      31      9    -50     33     59  73.2 -68.0  34018  287.16 0855.39
2009/04/23 07:48:20.0      45     21    -49     50     70  64.6 -55.5  34020  287.20 0855.39
2009/04/23 07:48:20.1      51     17    -43     54     69  71.6 -48.1  34020  287.20 0855.39
2009/04/23 07:48:20.2      59     16    -36     62     71  74.9 -37.9  34012  287.08 0855.39
2009/04/23 07:48:20.3      81     11    -36     82     89  81.6 -30.1  34008  287.00 0855.39
2009/04/23 07:48:20.4      75     33    -26     83     86  66.0 -22.8  34006  286.98 0855.39
2009/04/23 07:48:20.5      50      7    -24     51     56  81.2 -31.5  34004  286.94 0855.39
2009/04/23 07:48:20.6      52    -21     19     57     61 111.7  18.4  34006  286.96 0855.39
2009/04/23 07:48:20.7      34    -44    -47     56     73 142.2 -48.2  34000  286.88 0855.39
2009/04/23 07:48:20.8      67    -59    -49     90    102 131.8 -35.7  33994  286.78 0855.39
2009/04/23 07:48:20.9      92    -66    -49    114    124 125.5 -29.0  33992  286.73 0855.39
2009/04/23 07:48:21.0      72    -70    -28    101    105 134.4 -15.5  33994  286.76 0855.38
2009/04/23 07:48:21.2      66    -62    -32     91     97 133.1 -19.6  33998  286.84 0855.38
2009/04/23 07:48:21.3      73    -40    -34     84     90 118.8 -28.0  33998  286.84 0855.38
2009/04/23 07:48:21.4      56    -47    -33     74     81 129.6 -30.1  34002  286.91 0855.38
2009/04/23 07:48:21.5      47    -51    -21     70     74 136.8 -16.6  34006  286.98 0855.38
2009/04/23 07:48:21.6      56    -47      3     74     75 130.4   2.8  34006  286.98 0855.38
2009/04/23 07:48:21.7      31    -49     48     59     76 147.4  43.7  33998  286.84 0855.38
2009/04/23 07:48:21.8      66    -73     21     99    102 138.1  12.2  34000  286.88 0855.38
2009/04/23 07:48:21.9      63    -83     45    105    114 142.6  24.1  33998  286.84 0855.38
2009/04/23 07:48:22.0      77    -69     40    104    111 132.2  22.0  33994  286.76 0855.38
2009/04/23 07:48:22.1      53    -84     65    100    119 147.9  36.0  33994  286.76 0855.38
2009/04/23 07:48:22.2      57    -83     68    101    121 145.3  37.4  33996  286.81 0855.38
2009/04/23 07:48:22.3      40    -74      8     85     86 151.9   5.9  33998  286.84 0855.38
2009/04/23 07:48:22.4      30    -65    -13     72     74 154.7 -10.3  34002  286.89 0855.38
2009/04/23 07:48:22.5      24    -70     -2     75     76 160.8  -2.2  34000  286.88 0855.38
2009/04/23 07:48:22.6      15    -76      0     78     79 168.4   0.2  33998  286.84 0855.38
2009/04/23 07:48:22.7       8    -85    -22     86     89 174.2 -14.5  34000  286.88 0855.38
2009/04/23 07:48:22.8     -10    -89    -31     90     96 186.7 -19.1  34000  286.88 0855.38
2009/04/23 07:48:22.9       4    -93    -12     94     95 177.3  -7.3  34000  286.88 0855.38
2009/04/23 07:48:23.0       9   -111    -14    112    113 175.1  -7.2  34000  286.86 0855.38
2009/04/23 07:48:23.1      12   -117     17    118    120 173.8   8.5  33992  286.74 0855.38
2009/04/23 07:48:23.2      40   -124     13    131    132 162.2   5.9  33984  286.61 0855.38
2009/04/23 07:48:23.3      59   -103     16    119    121 150.1   8.0  33986  286.62 0855.38
2009/04/23 07:48:23.4      82    -92     51    124    134 138.6  23.1  33988  286.66 0855.38
2009/04/23 07:48:23.5      72   -106     76    129    149 145.8  33.5  33988  286.66 0855.38
2009/04/23 07:48:23.6      70   -108    102    129    164 147.0  42.2  33986  286.62 0855.38
2009/04/23 07:48:23.7      67    -92     96    115    149 143.9  43.8  33984  286.61 0855.38
2009/04/23 07:48:23.8      49   -103     89    115    145 154.5  41.7  33992  286.73 0855.38
2009/04/23 07:48:23.9      86    -88     89    124    152 135.5  39.5  33994  286.76 0855.38
2009/04/23 07:48:24.0      71    -33     92     79    121 115.3  54.8  33988  286.67 0855.38
2009/04/23 07:48:24.1      34    -11     82     36     89 108.6  74.5  33994  286.78 0855.38
2009/04/23 07:48:24.2     111    -38    106    118    158 109.1  46.9  34000  286.88 0855.38
2009/04/23 07:48:24.3     114    -94     99    148    178 129.5  37.0  34000  286.86 0855.38
2009/04/23 07:48:24.4      60   -109    106    125    163 151.1  44.5  33994  286.76 0855.38
2009/04/23 07:48:24.5      22   -158     74    160    176 171.9  26.6  33992  286.74 0855.38
2009/04/23 07:48:24.6      45   -136     64    144    157 161.7  25.3  33994  286.78 0855.38
2009/04/23 07:48:24.7      31   -143     57    147    157 167.5  22.3  33992  286.73 0855.38
2009/04/23 07:48:24.8      40   -148     45    154    161 164.9  16.3  33994  286.78 0855.38
2009/04/23 07:48:24.9      25   -139     57    142    153 169.8  23.0  33992  286.73 0855.38
2009/04/23 07:48:25.0      12   -133     31    134    138 174.7  13.2  33992  286.74 0855.38
2009/04/23 07:48:25.1       0   -115     52    116    127 180.5  25.7  33990  286.71 0855.38
2009/04/23 07:48:25.2       7   -124     57    125    137 176.4  26.2  33992  286.73 0855.38
2009/04/23 07:48:25.3      26   -111     60    115    129 166.6  29.3  33992  286.74 0855.38
2009/04/23 07:48:25.4      27    -86     27     91     96 162.2  16.8  33992  286.73 0855.38
2009/04/23 07:48:25.5     -10   -112     22    113    116 185.3  11.0  33988  286.66 0855.38
2009/04/23 07:48:25.6     -39   -106     64    114    130 200.5  31.9  33986  286.62 0855.38
2009/04/23 07:48:25.7     -87    -93     50    128    137 223.2  23.0  33990  286.71 0855.38
2009/04/23 07:48:25.8     -89    -98     46    133    141 222.3  19.2  33990  286.71 0855.38
2009/04/23 07:48:25.9     -99   -106     64    146    159 223.2  25.3  33990  286.69 0855.38
2009/04/23 07:48:26.0     -82    -68     75    107    130 230.4  38.6  33988  286.66 0855.38
2009/04/23 07:48:26.1      18    -55     85     59    103 161.3  62.1  33984  286.61 0855.38
2009/04/23 07:48:26.2     -53   -113    131    125    181 205.3  51.4  33986  286.64 0855.38
2009/04/23 07:48:26.3     -18    -96    114     98    150 191.1  55.4  33988  286.67 0855.38
2009/04/23 07:48:26.4     -10    -81     95     82    125 187.6  54.3  33990  286.69 0855.38
2009/04/23 07:48:26.5     -93    -83     88    126    153 228.2  38.0  33992  286.74 0855.38
2009/04/23 07:48:26.6    -115    -67     46    134    142 239.8  18.9  33990  286.71 0855.38
2009/04/23 07:48:26.7    -124    -78     18    147    149 237.6   7.1  33990  286.69 0855.38
2009/04/23 07:48:26.8    -120    -93      3    153    154 232.2   1.2  33990  286.69 0855.38
2009/04/23 07:48:26.9    -103    -77     23    129    132 233.1  10.1  33990  286.69 0855.38
2009/04/23 07:48:27.0    -107    -97     35    145    150 227.8  13.7  33988  286.67 0855.38
2009/04/23 07:48:27.1    -103   -106     34    148    152 224.1  13.1  33990  286.69 0855.38
2009/04/23 07:48:27.2    -103   -111     32    152    156 222.8  12.0  33990  286.69 0855.38
2009/04/23 07:48:27.3    -104    -56     11    119    120 241.6   5.4  33986  286.64 0855.38
2009/04/23 07:48:27.4    -102    -34     20    108    110 251.4  10.6  33988  286.67 0855.38
2009/04/23 07:48:27.5    -110    -32      4    115    116 253.6   2.3  33984  286.59 0855.38
2009/04/23 07:48:27.6    -119    -46    -13    128    129 248.7  -6.2  33986  286.64 0855.38
2009/04/23 07:48:27.7    -106    -57     -9    121    122 241.6  -4.6  33990  286.69 0855.38
2009/04/23 07:48:27.8     -89    -88     55    126    137 225.2  25.1  33986  286.64 0855.38
2009/04/23 07:48:27.9     -96   -117     25    152    155 219.6   9.5  33988  286.66 0855.38
2009/04/23 07:48:28.0     -85   -104     42    135    142 219.2  17.4  33986  286.64 0855.38
2009/04/23 07:48:28.1     -86   -104     42    136    143 219.6  17.3  33986  286.64 0855.38
2009/04/23 07:48:28.2    -109   -102     25    150    153 226.8   9.5  33990  286.69 0855.38
2009/04/23 07:48:28.3    -102    -87     13    135    136 229.6   5.9  33986  286.64 0855.38
2009/04/23 07:48:28.4     -83    -59     37    103    109 234.5  20.0  33984  286.61 0855.38
2009/04/23 07:48:28.5     -52    -71     45     89     99 216.1  28.7  33986  286.62 0855.38
2009/04/23 07:48:28.6     -43    -53     16     69     71 218.7  13.2  33986  286.62 0855.38
2009/04/23 07:48:28.7     -45    -43     25     63     67 226.9  23.0  33990  286.69 0855.38
2009/04/23 07:48:28.8     -79    -52     18     95     97 236.3  11.0  33988  286.67 0855.38
2009/04/23 07:48:28.9     -85    -64     25    107    110 232.7  13.2  33988  286.67 0855.38
2009/04/23 07:48:29.0     -31    -68      3     75     76 204.5   2.9  33986  286.64 0855.37
2009/04/23 07:48:29.1     -26    -87     18     91     93 196.9  11.6  33984  286.61 0855.37
2009/04/23 07:48:29.2     -32    -67     72     75    103 205.5  49.0  33984  286.61 0855.37
2009/04/23 07:48:29.3     -17    -90     91     92    129 190.7  50.0  33990  286.69 0855.37
2009/04/23 07:48:29.4     -23   -103     57    106    120 192.9  30.8  33988  286.67 0855.37
2009/04/23 07:48:29.5      -5    -93     62     94    112 183.1  36.0  33988  286.66 0855.37
2009/04/23 07:48:29.6      23    -86     63     90    109 164.9  38.6  33988  286.66 0855.37
2009/04/23 07:48:29.7      30    -38     58     49     75 141.3  56.3  33988  286.66 0855.37
2009/04/23 07:48:29.8      59    -13     65     61     89 102.4  51.6  33984  286.61 0855.37
2009/04/23 07:48:29.9      63     -6    106     64    123  96.1  65.7  33986  286.64 0855.37
2009/04/23 07:48:30.0      66    -42     84     79    115 122.5  52.1  33986  286.62 0855.37
2009/04/23 07:48:30.1       3    -83     91     84    123 177.3  52.2  33982  286.57 0855.37
2009/04/23 07:48:30.2      -8   -101     90    102    136 184.9  45.9  33986  286.64 0855.37
2009/04/23 07:48:30.3     -14    -74     87     76    115 190.7  54.8  33988  286.66 0855.37
2009/04/23 07:48:30.4      -5    -77     69     78    104 184.4  46.9  33986  286.64 0855.37
2009/04/23 07:48:30.5       0    -63     53     64     83 179.1  44.3  33988  286.67 0855.37
2009/04/23 07:48:30.6      16    -48     49     51     70 161.5  49.0  33988  286.67 0855.37
2009/04/23 07:48:30.7     -14    -67     65     69     94 192.5  49.0  33988  286.67 0855.37
2009/04/23 07:48:30.8     -30    -87     61     93    111 199.2  36.0  33988  286.66 0855.37
2009/04/23 07:48:30.9     -17   -102     42    104    112 189.8  23.0  33986  286.64 0855.37
2009/04/23 07:48:31.0       5    -73     32     74     80 175.5  25.1  33990  286.69 0855.37
2009/04/23 07:48:31.1       6    -62     36     63     72 173.8  31.4  33988  286.66 0855.37
2009/04/23 07:48:31.2      16    -67     49     69     84 166.6  38.6  33988  286.66 0855.37
2009/04/23 07:48:31.3      -7    -51     60     52     79 188.0  54.8  33990  286.69 0855.37
2009/04/23 07:48:31.4       4     -9     73     11     73 154.6  90.0  33990  286.69 0855.37
2009/04/23 07:48:31.5     -12     21     68     25     72 331.0  80.2  33990  286.69 0855.37
2009/04/23 07:48:31.7       8     26     64     28     69  18.3  74.0  33990  286.71 0855.37
2009/04/23 07:48:31.7       4    -17     57     18     59 164.9  81.8  33990  286.69 0855.37
2009/04/23 07:48:31.8      15    -12     69     20     71 129.5  83.9  33990  286.69 0855.37
2009/04/23 07:48:31.9      16     15     51     23     55  46.9  74.0  33988  286.67 0855.37
2009/04/23 07:48:32.0      26      0     53     27     59  90.0  70.8  33988  286.66 0855.37
2009/04/23 07:48:32.1      18     -3     46     19     49 101.5  77.1  33990  286.69 0855.37
2009/04/23 07:48:32.2      16    -10     42     19     46 122.5  75.0  33990  286.69 0855.37
2009/04/23 07:48:32.3      21      7     34     23     41  71.4  62.6  33988  286.67 0855.37
2009/04/23 07:48:32.4       3     52     37     53     64   3.6  38.6  33984  286.61 0855.37
2009/04/23 07:48:32.5     -17     60     67     63     91 344.0  51.6  33982  286.56 0855.37
2009/04/23 07:48:32.6      33     27     66     43     78  50.5  64.6  33986  286.64 0855.37
2009/04/23 07:48:32.7      43    -21     67     49     83 116.2  60.0  33988  286.67 0855.37
2009/04/23 07:48:32.9      13     -4     55     14     56 108.6  85.9  33990  286.69 0855.37
2009/04/23 07:48:32.9       5    -10     33     12     35 151.0  81.2  33990  286.69 0855.37
2009/04/23 07:48:33.0      -2      0     34      3     34 251.6  90.0  33990  286.69 0855.37
2009/04/23 07:48:33.1      15     12     49     20     52  50.5  77.1  33988  286.67 0855.37
2009/04/23 07:48:33.2      32    -16     57     37     67 117.1  64.6  33992  286.73 0855.37
2009/04/23 07:48:33.3      24      0     54     25     59  90.0  74.0  33988  286.66 0855.37
2009/04/23 07:48:33.4      24     -4     50     25     55  99.7  71.9  33990  286.69 0855.37
2009/04/23 07:48:33.5      12     15     46     20     50  39.6  74.0  33986  286.64 0855.37
2009/04/23 07:48:33.6      32      9     45     34     56  73.2  59.4  33990  286.69 0855.37
2009/04/23 07:48:33.7      46     -3     72     47     85  94.4  64.1  33990  286.69 0855.37
2009/04/23 07:48:33.8      36     -7     63     37     73 101.5  66.8  33990  286.71 0855.37
2009/04/23 07:48:33.9      58      0     84     59    102  90.0  61.1  33990  286.69 0855.37
2009/04/23 07:48:34.0      94      7     87     95    128  85.6  47.9  33992  286.74 0855.37
2009/04/23 07:48:34.1     116      0     71    117    136  90.0  34.4  33992  286.73 0855.37
2009/04/23 07:48:34.2     130    -22     72    132    150  99.6  31.3  33984  286.61 0855.37
2009/04/23 07:48:34.3      76      0     60     77     97  90.0  42.2  33982  286.56 0855.37
2009/04/23 07:48:34.4      15    -32     63     36     72 154.5  68.8  33984  286.59 0855.37
2009/04/23 07:48:34.5      13    -17     74     22     77 142.2  81.8  33986  286.64 0855.37
2009/04/23 07:48:34.6      49    -16     60     52     79 108.4  54.8  33990  286.71 0855.37
2009/04/23 07:48:34.7      82    -50     75     97    122 121.5  41.7  33992  286.73 0855.37
2009/04/23 07:48:34.8      97    -43     63    107    124 114.0  33.5  33992  286.74 0855.37
2009/04/23 07:48:34.9     109    -39     60    116    130 110.0  29.3  33996  286.81 0855.37
2009/04/23 07:48:35.0     102    -19     46    104    113 101.0  25.7  33992  286.74 0855.37
2009/04/23 07:48:35.1     109     -8     58    110    124  94.4  30.3  33996  286.79 0855.37
2009/04/23 07:48:35.2      98     -7     65     99    118  94.4  36.5  33998  286.83 0855.37
2009/04/23 07:48:35.3     106     -3     65    107    125  91.7  34.4  33988  286.67 0855.37
2009/04/23 07:48:35.4     115      0     57    116    129  90.0  27.8  33992  286.73 0855.37
2009/04/23 07:48:35.5     109     -8     58    110    124  94.4  30.3  33996  286.81 0855.37
2009/04/23 07:48:35.6     100    -17     63    102    119 100.1  34.4  33996  286.79 0855.37
2009/04/23 07:48:35.7      99    -19     62    101    118 101.4  34.4  33992  286.74 0855.37
2009/04/23 07:48:35.8      96    -15     66     98    118  99.2  37.4  33992  286.73 0855.37
2009/04/23 07:48:35.9      79     -4     77     80    111  93.5  49.0  33990  286.69 0855.37
2009/04/23 07:48:36.0      76      5     72     77    105  85.7  48.0  33986  286.62 0855.37
2009/04/23 07:48:36.2      84     10     95     85    127  83.0  53.7  33990  286.69 0855.37
2009/04/23 07:48:36.3     111      1     54    112    124  89.2  27.8  33990  286.69 0855.37
2009/04/23 07:48:36.4     100     39      0    108    109  68.3  -0.3  33990  286.71 0855.37
2009/04/23 07:48:36.5     120     -8    -17    121    123  93.9  -8.2  33996  286.81 0855.37
2009/04/23 07:48:36.6     105    -26      5    109    110 104.2   2.8  33992  286.74 0855.37
2009/04/23 07:48:36.7     115    -49     65    126    141 113.1  29.3  33994  286.78 0855.37
2009/04/23 07:48:36.8      83    -57     82    101    130 124.6  43.7  33992  286.74 0855.37
2009/04/23 07:48:36.9      33    -39     70     52     87 139.5  59.4  33996  286.79 0855.37
2009/04/23 07:48:37.0      42    -11     62     44     76 105.1  60.6  33994  286.78 0855.37
2009/04/23 07:48:37.1      44    -33     62     56     83 126.9  52.7  33992  286.74 0855.37
2009/04/23 07:48:37.2      25    -64     53     69     87 158.1  41.7  33990  286.71 0855.37
2009/04/23 07:48:37.3      47    -77     17     91     93 148.4  11.1  33988  286.67 0855.37
2009/04/23 07:48:37.4      69    -70     11     99    100 135.3   6.9  33990  286.69 0855.37
2009/04/23 07:48:37.5      92    -69      8    116    117 126.9   4.4  33984  286.61 0855.37
2009/04/23 07:48:37.6      88    -56      3    105    106 122.5   1.8  33986  286.64 0855.37
2009/04/23 07:48:37.7      84    -76      5    114    115 132.2   2.8  33984  286.61 0855.37
2009/04/23 07:48:37.8      71    -56     17     91     93 128.6  11.0  33982  286.57 0855.37
2009/04/23 07:48:37.9      62    -46     26     78     83 126.9  18.4  33988  286.66 0855.37
2009/04/23 07:48:38.0      40    -33     18     52     56 129.5  18.9  33986  286.64 0855.37
2009/04/23 07:48:38.1      25    -46     14     53     55 151.0  15.3  33988  286.66 0855.37
2009/04/23 07:48:38.2       7    -31     -4     32     33 166.6  -7.3  33988  286.66 0855.37
2009/04/23 07:48:38.3      21    -46    -14     51     53 154.6 -15.5  33986  286.64 0855.37
2009/04/23 07:48:38.4      26    -80    -26     85     88 161.5 -22.3  33988  286.67 0855.37
2009/04/23 07:48:38.5      31    -78    -25     85     89 158.2 -16.6  33990  286.69 0855.37
2009/04/23 07:48:38.6      30    -89    -14     94     96 161.3  -8.8  33992  286.74 0855.37
2009/04/23 07:48:38.7      16    -85    -11     87     88 168.9  -7.7  33992  286.73 0855.37
2009/04/23 07:48:38.8      18    -92    -20     94     97 168.5 -12.4  33990  286.69 0855.37
2009/04/23 07:48:38.9       5    -77    -22     78     81 175.6 -20.7  33992  286.73 0855.37
2009/04/23 07:48:39.0      -6    -69     -3     70     71 185.3  -3.1  33986  286.64 0855.37
2009/04/23 07:48:39.1       0    -51    -21     52     56 180.9 -26.4  33988  286.66 0855.37
2009/04/23 07:48:39.3       3    -32    -36     33     48 173.8 -55.6  33990  286.71 0855.37
2009/04/23 07:48:39.4      35    -35    -20     50     53 135.0 -26.4  33990  286.69 0855.37
2009/04/23 07:48:39.5      11    -56     -2     58     59 168.5  -2.2  33988  286.67 0855.37
2009/04/23 07:48:39.6      -3    -61     21     62     66 183.6  18.9  33982  286.56 0855.37
2009/04/23 07:48:39.7     -14    -82     38     84     92 190.2  26.2  33982  286.57 0855.37
2009/04/23 07:48:39.8     -30    -91     29     97    102 198.5  16.8  33986  286.64 0855.37
2009/04/23 07:48:39.9     -24    -91      4     95     96 195.1   2.9  33984  286.61 0855.37
2009/04/23 07:48:40.0     -31    -78     -1     85     86 201.8  -0.7  33986  286.64 0855.37
2009/04/23 07:48:40.1     -36    -86     -4     94     95 202.7  -2.6  33986  286.64 0855.36
2009/04/23 07:48:40.2     -54    -86      5    102    103 212.5   2.8  33986  286.64 0855.36
2009/04/23 07:48:40.3     -63    -86     -4    107    108 216.1  -2.2  33986  286.64 0855.36
2009/04/23 07:48:40.4     -96    -65     -4    117    118 235.8  -2.2  33984  286.59 0855.36
2009/04/23 07:48:40.5    -102    -30    -27    107    111 253.6 -14.5  33982  286.56 0855.36
2009/04/23 07:48:40.6    -102    -30    -27    107    111 253.6 -14.5  33982  286.56 0855.36
2009/04/23 07:48:40.7     -99     -7     -7    100    101 265.7  -4.1  33982  286.56 0855.36
2009/04/23 07:48:40.8     -72     13    -39     74     83 280.6 -34.2  33980  286.54 0855.36
2009/04/23 07:48:40.9     -58      9    -30     59     66 279.7 -33.7  33980  286.52 0855.36
2009/04/23 07:48:41.0     -73      6    -31     74     80 275.2 -28.5  33982  286.56 0855.36
2009/04/23 07:48:41.1     -45      8    -30     46     54 280.6 -40.0  33978  286.51 0855.36
2009/04/23 07:48:41.2     -31     13      6     34     35 293.5  11.1  33982  286.56 0855.36
2009/04/23 07:48:41.3       0      3     13      4     13 350.3  80.7  33980  286.54 0855.36
2009/04/23 07:48:41.4      13      4     28     14     31  71.4  72.8  33980  286.54 0855.36
2009/04/23 07:48:41.5      18    -15     38     24     44 131.3  64.7  33984  286.59 0855.36
2009/04/23 07:48:41.6      34    -54     49     65     81 147.5  41.2  33982  286.56 0855.36
2009/04/23 07:48:41.7      43    -75     41     87     96 150.1  27.2  33982  286.57 0855.36
2009/04/23 07:48:41.8      21    -97     28    100    104 167.5  15.8  33986  286.64 0855.36
2009/04/23 07:48:41.9       0   -112     14    113    114 180.5   7.5  33984  286.59 0855.36
2009/04/23 07:48:42.0       1   -119     -4    120    121 179.1  -2.2  33982  286.56 0855.36
2009/04/23 07:48:42.1      23   -134     19    137    139 170.2   8.0  33978  286.51 0855.36
2009/04/23 07:48:42.2       2   -146      1    147    148 179.1   0.7  33976  286.46 0855.36
2009/04/23 07:48:42.3      16   -161     -5    162    163 174.2  -1.8  33980  286.54 0855.36
2009/04/23 07:48:42.4      43   -143    -19    150    152 163.0  -7.2  33980  286.52 0855.36
2009/04/23 07:48:42.5      50   -134      5    144    145 159.5   2.3  33978  286.51 0855.36
2009/04/23 07:48:42.6      42   -160     15    166    167 165.3   5.2  33978  286.49 0855.36
2009/04/23 07:48:42.7      48   -151     21    159    161 162.2   7.8  33978  286.49 0855.36
2009/04/23 07:48:42.8      60   -150     34    162    166 158.2  12.0  33978  286.51 0855.36
2009/04/23 07:48:42.9      69   -125      7    144    145 151.0   2.8  33980  286.54 0855.36
2009/04/23 07:48:43.0      75   -115     -5    138    139 146.6  -2.2  33978  286.51 0855.36
2009/04/23 07:48:43.1      57   -108     26    123    126 151.9  12.2  33980  286.54 0855.36
2009/04/23 07:48:43.2      40   -113     34    121    126 160.4  15.8  33978  286.49 0855.36
2009/04/23 07:48:43.3      24   -126     30    129    133 168.9  13.1  33976  286.47 0855.36
2009/04/23 07:48:43.4      -9   -137     54    138    148 184.0  23.0  33974  286.44 0855.36
2009/04/23 07:48:43.5     -26   -154     70    157    171 189.8  25.7  33976  286.47 0855.36
2009/04/23 07:48:43.6     -43   -131     41    138    145 198.3  16.8  33976  286.47 0855.36
2009/04/23 07:48:43.7     -31    -95     34    101    107 198.3  18.9  33974  286.42 0855.36
2009/04/23 07:48:43.8     -40    -81    -16     91     93 206.3 -10.3  33972  286.39 0855.36
2009/04/23 07:48:43.9     -33    -70    -13     78     80 205.4  -9.8  33974  286.42 0855.36
2009/04/23 07:48:44.0     -31    -87    -31     93     99 199.6 -18.7  33974  286.42 0855.36
2009/04/23 07:48:44.1      -9   -124    -54    125    136 184.5 -29.5  33974  286.42 0855.36
2009/04/23 07:48:44.2      -3   -109    -44    110    118 181.8 -27.4  33972  286.41 0855.36
2009/04/23 07:48:44.3     -45    -87    -44     99    108 207.6 -30.1  33972  286.41 0855.36
2009/04/23 07:48:44.4      25   -107    -26    110    114 166.6 -13.4  33974  286.42 0855.36
2009/04/23 07:48:44.5       9   -115    -26    116    120 175.1 -12.9  33974  286.42 0855.36
2009/04/23 07:48:44.6      10   -101    -28    102    106 174.2 -15.5  33976  286.46 0855.36
2009/04/23 07:48:44.7      14    -82    -31     84     89 169.8 -24.8  33976  286.46 0855.36
2009/04/23 07:48:44.8      -1    -76    -44     77     88 181.0 -36.8  33972  286.39 0855.36
2009/04/23 07:48:44.9      25    -82     -4     86     87 162.6  -3.1  33972  286.41 0855.36
2009/04/23 07:48:45.0       5   -120     10    121    122 177.3   4.9  33974  286.44 0855.36
2009/04/23 07:48:45.1     -14   -135     -6    136    137 186.2  -2.6  33972  286.41 0855.36
2009/04/23 07:48:45.2     -27   -135    -17    138    140 191.5  -7.3  33972  286.39 0855.36
2009/04/23 07:48:45.3       0   -122    -27    123    126 180.4 -12.4  33974  286.42 0855.36
2009/04/23 07:48:45.4       0   -147    -19    148    150 180.0  -7.3  33972  286.41 0855.36
2009/04/23 07:48:45.5      23   -133     -4    136    137 170.2  -1.8  33974  286.42 0855.36
2009/04/23 07:48:45.6      11   -152    -34    153    157 175.5 -12.6  33972  286.39 0855.36
2009/04/23 07:48:45.7     -25   -164     -6    166    167 188.7  -2.2  33972  286.41 0855.36
2009/04/23 07:48:45.8     -10   -135    -17    136    138 184.4  -7.2  33970  286.37 0855.36
2009/04/23 07:48:45.9       6   -137      7    138    139 177.3   3.3  33968  286.34 0855.36
2009/04/23 07:48:46.0      -2   -176     -9    177    178 180.7  -3.1  33970  286.37 0855.36
2009/04/23 07:48:46.1     -73   -183      2    198    199 201.8   0.7  33962  286.24 0855.36
2009/04/23 07:48:46.2     -88   -161    -10    184    185 208.9  -3.1  33962  286.24 0855.36
2009/04/23 07:48:46.3     -69   -153    -12    168    169 204.3  -4.4  33964  286.27 0855.36
2009/04/23 07:48:46.4     -59   -147     -6    159    160 201.9  -2.2  33966  286.29 0855.36
2009/04/23 07:48:46.5     -67   -157    -41    171    176 203.2 -13.7  33966  286.29 0855.36
2009/04/23 07:48:46.6     -58   -146     -1    158    159 201.8  -0.7  33966  286.29 0855.36
2009/04/23 07:48:46.7     -81   -139     -9    161    162 210.3  -3.3  33966  286.30 0855.36
2009/04/23 07:48:46.8     -81   -148      2    169    170 208.7   1.0  33966  286.30 0855.36
2009/04/23 07:48:46.9     -75   -141     -5    160    161 208.1  -2.1  33968  286.32 0855.36
2009/04/23 07:48:47.0     -76   -120    -33    143    147 212.5 -13.3  33968  286.32 0855.36
2009/04/23 07:48:47.1     -56   -119    -29    132    136 205.5 -12.4  33968  286.34 0855.36
2009/04/23 07:48:47.2     -47   -116    -26    126    129 202.3 -11.9  33970  286.37 0855.36
2009/04/23 07:48:47.3     -60   -103    -24    120    123 210.3 -11.3  33968  286.34 0855.36
2009/04/23 07:48:47.4     -41   -103    -15    111    113 201.9  -7.7  33968  286.34 0855.36
2009/04/23 07:48:47.5     -30   -115     -6    119    120 194.7  -3.1  33970  286.37 0855.36
2009/04/23 07:48:47.6     -20   -117     -2    119    120 189.8  -1.2  33968  286.34 0855.36
2009/04/23 07:48:47.7      -5   -107    -13    108    109 182.7  -7.2  33970  286.35 0855.36
2009/04/23 07:48:47.8       2   -133    -17    134    136 179.1  -7.3  33970  286.37 0855.36
2009/04/23 07:48:47.9      49   -115      0    126    127 156.8  -0.3  33974  286.42 0855.36
2009/04/23 07:48:48.0      84    -93      1    126    127 138.1   0.8  33974  286.42 0855.36
2009/04/23 07:48:48.1      47    -76    -22     90     93 147.9 -13.9  33972  286.39 0855.36
2009/04/23 07:48:48.2      45    -95     -5    106    107 154.7  -3.1  33974  286.42 0855.36
2009/04/23 07:48:48.3      32   -117      6    122    123 164.4   2.9  33974  286.42 0855.36
2009/04/23 07:48:48.4      10   -135    -13    136    137 175.5  -5.6  33966  286.30 0855.36
2009/04/23 07:48:48.5     -10   -137    -22    138    140 184.4  -9.4  33964  286.25 0855.36
2009/04/23 07:48:48.6     -21   -132    -37    134    140 189.3 -15.5  33964  286.27 0855.36
2009/04/23 07:48:48.7      -8   -130    -14    131    132 183.6  -6.2  33962  286.24 0855.36
2009/04/23 07:48:48.8      -7   -138    -22    139    141 183.1  -9.3  33964  286.27 0855.36
2009/04/23 07:48:48.9       1   -126    -16    127    129 179.5  -7.3  33962  286.22 0855.36
2009/04/23 07:48:49.0       0   -107    -16    108    110 180.0  -8.8  33960  286.19 0855.36
2009/04/23 07:48:49.1      18   -114    -36    116    122 170.7 -17.6  33960  286.20 0855.36
2009/04/23 07:48:49.2      39   -118    -24    125    128 161.7 -10.9  33962  286.24 0855.36
2009/04/23 07:48:49.3      47   -115     -4    125    126 157.7  -2.2  33962  286.24 0855.36
2009/04/23 07:48:49.4      64   -136    -19    151    153 154.5  -7.2  33964  286.27 0855.36
2009/04/23 07:48:49.5      74   -134      7    154    155 151.1   2.8  33966  286.30 0855.36
2009/04/23 07:48:49.6      60   -110     -6    126    127 151.5  -3.1  33966  286.30 0855.36
2009/04/23 07:48:49.7      27   -100    -24    104    107 164.9 -13.4  33968  286.32 0855.36
2009/04/23 07:48:49.8      43    -91     -7    101    102 154.6  -4.1  33966  286.29 0855.36
2009/04/23 07:48:49.9      63    -84     12    106    107 143.0   6.5  33968  286.34 0855.36
2009/04/23 07:48:50.0      59   -106     13    122    123 151.0   6.5  33968  286.34 0855.36
2009/04/23 07:48:50.1      35   -108     23    114    117 161.7  11.6  33964  286.27 0855.36
2009/04/23 07:48:50.2     -13   -119     42    120    128 186.7  19.4  33966  286.29 0855.36
2009/04/23 07:48:50.3     -62   -129     37    144    149 205.9  14.7  33966  286.30 0855.36
2009/04/23 07:48:50.4     -52   -126     46    137    145 202.3  18.9  33966  286.29 0855.36
2009/04/23 07:48:50.5     -26   -129     45    132    140 191.5  18.9  33968  286.32 0855.36
2009/04/23 07:48:50.6       3    -93     51     94    106 177.8  31.3  33968  286.32 0855.36
2009/04/23 07:48:50.7       0   -103     48    104    114 179.5  27.1  33966  286.29 0855.36
2009/04/23 07:48:50.8      14   -131     49    132    140 173.7  21.0  33966  286.30 0855.36
2009/04/23 07:48:50.9      11   -141     29    142    146 175.5  11.6  33968  286.32 0855.36
2009/04/23 07:48:51.0      11   -111     16    112    114 174.2   8.5  33968  286.32 0855.36
2009/04/23 07:48:51.1      20    -77     54     80     96 164.9  37.0  33966  286.30 0855.36
2009/04/23 07:48:51.2      19    -72     62     75     97 164.9  43.8  33968  286.32 0855.36
2009/04/23 07:48:51.3      16    -78     57     80     98 168.4  39.5  33968  286.34 0855.36
2009/04/23 07:48:51.4      12    -62     46     64     78 168.5  39.7  33968  286.32 0855.36
2009/04/23 07:48:51.5      -1    -72     32     73     79 180.9  24.6  33968  286.34 0855.36
2009/04/23 07:48:51.6       0    -63     16     64     67 180.0  14.3  33966  286.30 0855.36
2009/04/23 07:48:51.7       4    -43     -3     44     45 173.8  -4.1  33966  286.30 0855.36
2009/04/23 07:48:51.8       2    -36      1     37     38 175.5   2.9  33968  286.34 0855.36
2009/04/23 07:48:51.9      21    -46      0     51     52 154.5  -0.3  33968  286.32 0855.36
2009/04/23 07:48:52.0      27    -43      9     51     52 147.5  10.1  33966  286.30 0855.36
2009/04/23 07:48:52.1      28    -35     15     45     48 141.3  18.9  33966  286.30 0855.36
2009/04/23 07:48:52.2      21    -32     14     39     41 147.4  20.0  33966  286.30 0855.36
2009/04/23 07:48:52.3       7    -39     15     40     42 169.3  21.0  33968  286.32 0855.36
2009/04/23 07:48:52.4      -1    -36      7     37     38 182.6  11.0  33968  286.32 0855.36
2009/04/23 07:48:52.5      24    -24      1     35     36 135.0   2.9  33966  286.29 0855.36
2009/04/23 07:48:52.6      30    -31     12     44     46 135.9  16.3  33968  286.34 0855.36
2009/04/23 07:48:52.7      35    -39     -2     53     54 137.7  -2.2  33968  286.32 0855.36
2009/04/23 07:48:52.8      39    -43      3     59     60 137.7   2.9  33968  286.32 0855.36
2009/04/23 07:48:52.9      43    -48      0     65     66 137.7  -0.3  33970  286.37 0855.36
2009/04/23 07:48:53.0      45    -54     24     71     76 140.3  19.2  33968  286.32 0855.36
2009/04/23 07:48:53.1      72    -71      5    102    103 134.4   2.9  33968  286.32 0855.36
2009/04/23 07:48:53.2      60    -91     -5    110    111 146.6  -2.6  33968  286.34 0855.36
2009/04/23 07:48:53.3      18    -81      8     84     85 167.1   5.9  33968  286.32 0855.36
2009/04/23 07:48:53.4       8   -105     36    106    113 175.5  18.9  33970  286.37 0855.36
2009/04/23 07:48:53.5      23   -105     21    108    111 167.5  11.1  33970  286.35 0855.36
2009/04/23 07:48:53.6      41   -121      6    128    129 161.3   2.9  33970  286.35 0855.36
2009/04/23 07:48:53.7      48   -147     30    155    158 161.7  11.1  33972  286.39 0855.36
2009/04/23 07:48:53.8      40   -120     10    127    128 161.3   4.9  33968  286.34 0855.36
2009/04/23 07:48:53.9      33   -129     17    134    136 165.3   7.5  33970  286.35 0855.36
2009/04/23 07:48:54.0      10   -137     -2    138    139 175.5  -1.2  33966  286.29 0855.36
2009/04/23 07:48:54.1      13   -125    -13    126    127 173.8  -6.2  33968  286.32 0855.36
2009/04/23 07:48:54.2      11    -96     40     97    104 172.9  23.0  33972  286.39 0855.36
2009/04/23 07:48:54.3      33   -115     47    120    128 164.0  22.5  33970  286.37 0855.36
2009/04/23 07:48:54.4      53   -112     37    124    130 154.7  16.8  33972  286.41 0855.36
2009/04/23 07:48:54.5      67   -108     30    128    132 148.4  13.2  33976  286.46 0855.36
2009/04/23 07:48:54.6      84   -105     47    135    144 141.3  19.4  33978  286.49 0855.36
2009/04/23 07:48:54.7      82    -99     57    129    141 140.4  25.2  33976  286.46 0855.36
2009/04/23 07:48:54.8      69    -86     66    111    129 141.3  33.5  33978  286.51 0855.36
2009/04/23 07:48:54.9     101    -73     73    125    144 126.0  33.4  33974  286.42 0855.36
2009/04/23 07:48:55.0     102    -76     46    128    136 126.9  20.4  33972  286.41 0855.36
2009/04/23 07:48:55.1     106    -72     51    129    138 124.2  23.0  33976  286.46 0855.36
2009/04/23 07:48:55.2     111    -75     42    135    142 124.1  17.3  33974  286.44 0855.36
2009/04/23 07:48:55.3     119    -75     38    141    147 122.4  15.2  33974  286.42 0855.36
2009/04/23 07:48:55.4     102    -69      6    124    125 124.2   2.8  33972  286.41 0855.36
2009/04/23 07:48:55.5      94    -42     14    104    106 114.4   8.0  33978  286.49 0855.36
2009/04/23 07:48:55.6      79    -36     39     88     96 114.8  25.7  33974  286.44 0855.36
2009/04/23 07:48:55.7      71    -33     59     79     98 115.2  40.1  33976  286.47 0855.36
2009/04/23 07:48:55.8      91    -30     61     97    114 108.6  35.5  33978  286.51 0855.36
2009/04/23 07:48:55.9      86    -41     59     96    112 115.3  35.0  33976  286.47 0855.36
2009/04/23 07:48:56.0      70    -68     75     98    123 134.4  41.6  33976  286.46 0855.36
2009/04/23 07:48:56.1      80    -57     75     99    124 125.5  41.2  33978  286.51 0855.36
2009/04/23 07:48:56.2      89    -59     74    107    130 123.7  37.6  33976  286.47 0855.36
2009/04/23 07:48:56.3      88    -56     73    105    127 122.9  38.0  33978  286.49 0855.36
2009/04/23 07:48:56.4      91    -53     76    106    130 120.2  39.5  33976  286.47 0855.36
2009/04/23 07:48:56.5      91    -53     76    106    130 120.2  39.5  33976  286.47 0855.36
2009/04/23 07:48:56.6     100    -47     60    111    126 115.2  30.8  33976  286.46 0855.36
2009/04/23 07:48:56.7      62    -67     53     92    106 136.8  32.4  33976  286.46 0855.36
2009/04/23 07:48:56.8      70    -46     56     84    100 123.3  37.0  33974  286.44 0855.36
2009/04/23 07:48:56.9      73    -34     39     81     89 115.2  27.3  33974  286.44 0855.36
2009/04/23 07:48:57.0      74    -22     26     78     83 106.8  18.9  33974  286.42 0855.36
2009/04/23 07:48:57.1     107    -26     -6    111    112 103.7  -3.1  33974  286.42 0855.36
2009/04/23 07:48:57.2      64    -22     -1     68     69 109.1  -1.3  33976  286.47 0855.36
2009/04/23 07:48:57.3      37    -16     28     41     49 113.5  37.6  33974  286.42 0855.36
2009/04/23 07:48:57.4      45    -15     37     48     60 108.4  41.7  33974  286.44 0855.36
2009/04/23 07:48:57.5      40     -8     33     41     52 101.5  43.7  33974  286.42 0855.36
2009/04/23 07:48:57.6      42    -12     28     44     52 106.8  35.5  33976  286.46 0855.36
2009/04/23 07:48:57.7      40     -8     33     41     52 101.5  43.7  33974  286.42 0855.36
2009/04/23 07:48:57.8      52     -4     30     53     60  94.4  31.4  33974  286.44 0855.36
2009/04/23 07:48:57.9      51      0     36     52     63  90.0  38.6  33972  286.41 0855.36
2009/04/23 07:48:58.0      50      7     28     51     58  81.2  31.4  33974  286.42 0855.36
2009/04/23 07:48:58.1      62    -15     29     64     70 104.2  27.1  33974  286.44 0855.37
2009/04/23 07:48:58.2      57     -7      8     58     59  97.0   8.0  33974  286.42 0855.37
2009/04/23 07:48:58.3      61    -12      0     63     64 101.5   0.8  33972  286.41 0855.37
2009/04/23 07:48:58.4      81    -14     17     83     85 100.1  12.2  33974  286.44 0855.37
2009/04/23 07:48:58.5      91    -35      2     98     99 111.3   1.2  33970  286.37 0855.37
2009/04/23 07:48:58.6      99    -51     12    112    113 117.1   6.5  33974  286.42 0855.37
2009/04/23 07:48:58.7      74    -74     11    105    106 134.9   6.5  33974  286.44 0855.37
2009/04/23 07:48:58.8      76    -74     28    107    111 134.0  14.7  33974  286.44 0855.37
2009/04/23 07:48:58.9      85    -81     22    118    121 133.6  10.6  33976  286.47 0855.37
2009/04/23 07:48:59.0      97    -96     32    137    141 134.9  13.2  33978  286.49 0855.37
2009/04/23 07:48:59.1     106    -87     23    138    140 129.5   9.5  33978  286.51 0855.36
2009/04/23 07:48:59.2      96    -93     13    134    135 134.0   5.9  33976  286.46 0855.36
2009/04/23 07:48:59.3      82    -77      7    113    114 133.2   3.8  33978  286.51 0855.36
2009/04/23 07:48:59.4      76    -78     -1    110    111 135.9  -0.7  33978  286.49 0855.36
2009/04/23 07:48:59.5      74    -78      5    108    109 136.7   2.9  33976  286.46 0855.36
2009/04/23 07:48:59.6      56    -81     11     99    100 145.3   6.5  33978  286.49 0855.36
2009/04/23 07:48:59.7      47    -82      4     95     96 149.7   2.8  33976  286.46 0855.36
2009/04/23 07:48:59.8      62    -86     -4    107    108 144.0  -2.2  33976  286.46 0855.36
2009/04/23 07:48:59.9     101    -49     16    113    115 115.8   8.5  33976  286.47 0855.36
2009/04/23 07:49:00.0      99    -35     20    106    108 109.5  11.0  33976  286.46 0855.36
2009/04/23 07:49:00.1      99    -31     22    104    107 107.7  12.2  33974  286.42 0855.36
2009/04/23 07:49:00.2      98    -21     23    101    104 102.4  13.2  33978  286.49 0855.36
2009/04/23 07:49:00.3      99     -1     22    100    103  90.8  12.6  33974  286.44 0855.36
2009/04/23 07:49:00.4     118      9     46    119    127  85.6  22.0  33970  286.37 0855.36
2009/04/23 07:49:00.5      94    -34     57    101    115 110.0  31.9  33978  286.51 0855.36
2009/04/23 07:49:00.6      94    -39     41    102    109 112.6  23.0  33980  286.52 0855.36
2009/04/23 07:49:00.7      89    -34     18     96     98 110.8  10.6  33980  286.54 0855.36
2009/04/23 07:49:00.8      94    -27     38     98    105 106.4  22.5  33978  286.49 0855.36
2009/04/23 07:49:00.9      79    -23     48     83     95 106.4  32.9  33978  286.49 0855.36
2009/04/23 07:49:01.0      76    -25     49     81     94 108.6  35.0  33978  286.51 0855.36
2009/04/23 07:49:01.1      93    -31     34     99    105 108.6  19.4  33978  286.49 0855.36
2009/04/23 07:49:01.2     108    -48     25    119    122 114.0  12.2  33978  286.49 0855.36
2009/04/23 07:49:01.3     111    -44     14    120    121 111.7   6.9  33978  286.51 0855.36
2009/04/23 07:49:01.4      88    -40     32     97    103 114.8  18.4  33978  286.49 0855.36
2009/04/23 07:49:01.5      64    -27     46     70     83 113.5  36.0  33980  286.54 0855.36
2009/04/23 07:49:01.6      72    -40     52     83     97 118.9  35.5  33978  286.51 0855.36
2009/04/23 07:49:01.8      80    -32     42     87     96 111.7  27.3  33980  286.52 0855.36
2009/04/23 07:49:01.8      74    -29     24     80     84 111.8  16.8  33984  286.59 0855.36
2009/04/23 07:49:01.9      48    -33     31     59     66 124.2  30.3  33984  286.61 0855.36
2009/04/23 07:49:02.0      44    -17     33     48     58 110.8  36.5  33984  286.59 0855.36
2009/04/23 07:49:02.1      51    -17     23     54     58 108.4  23.0  33980  286.54 0855.36
2009/04/23 07:49:02.2      49    -19     20     53     56 111.7  20.0  33980  286.52 0855.36
2009/04/23 07:49:02.3      40    -28     17     49     52 125.1  19.2  33978  286.51 0855.36
2009/04/23 07:49:02.4      40    -40     25     57     62 134.9  25.1  33978  286.51 0855.36
2009/04/23 07:49:02.5      33    -33     33     47     57 134.9  38.6  33980  286.52 0855.36
2009/04/23 07:49:02.6      25    -30     40     40     56 140.3  50.1  33978  286.51 0855.36
2009/04/23 07:49:02.7      25    -39     40     47     61 147.4  44.8  33976  286.46 0855.36
2009/04/23 07:49:02.9      23    -36     43     43     60 147.5  50.1  33974  286.44 0855.36
2009/04/23 07:49:03.0      24    -36     35     44     56 145.7  43.7  33978  286.51 0855.36
2009/04/23 07:49:03.0      36    -31     35     48     59 131.3  39.7  33978  286.51 0855.36
2009/04/23 07:49:03.1      26    -28     35     39     52 136.6  46.9  33978  286.49 0855.36
2009/04/23 07:49:03.2      37    -16     35     41     53 113.5  45.8  33978  286.51 0855.36
2009/04/23 07:49:03.3      45    -15     44     48     65 108.6  47.9  33978  286.51 0855.36
2009/04/23 07:49:03.4      46     -7     38     47     60  98.8  43.7  33978  286.49 0855.36
2009/04/23 07:49:03.5      17    -22     31     29     42 142.2  51.2  33982  286.56 0855.36
2009/04/23 07:49:03.6      15    -19     29     25     38 140.4  54.3  33980  286.54 0855.36
2009/04/23 07:49:03.7      10    -19     24     22     32 152.8  50.1  33980  286.54 0855.36
2009/04/23 07:49:03.8       3     -7     31      8     32 154.6  86.9  33978  286.51 0855.36
2009/04/23 07:49:04.0      14     -2     29     15     32 101.5  70.8  33980  286.54 0855.36
2009/04/23 07:49:04.1       5      4     20      7     21  50.5  81.0  33980  286.52 0855.36
2009/04/23 07:49:04.2      23     11     38     26     46  62.9  62.6  33978  286.49 0855.36
2009/04/23 07:49:04.3      19     -5     34     20     39 106.8  66.8  33978  286.51 0855.36
2009/04/23 07:49:04.4      14    -15     35     21     40 136.8  65.7  33976  286.46 0855.36
2009/04/23 07:49:04.5       4    -15     51     16     53 164.9  80.7  33978  286.49 0855.36
2009/04/23 07:49:04.6      40    -12     42     42     59 106.8  50.1  33990  286.69 0855.36
2009/04/23 07:49:04.7      61     -4     15     62     64  94.4  14.3  34026  287.30 0855.36
2009/04/23 07:49:04.8      66      9     30     67     73  82.1  26.2  34072  288.09 0855.36
2009/04/23 07:49:04.9      44     19     27     49     55  66.5  32.4  34066  287.99 0855.36
2009/04/23 07:49:05.0      49     21     24     54     59  66.5  25.1  34036  287.47 0855.36
2009/04/23 07:49:05.1      33     11     19     35     39  71.6  31.4  34028  287.33 0855.36
2009/04/23 07:49:05.2      28      2     14     29     32  85.7  27.2  34030  287.38 0855.35
2009/04/23 07:49:05.3      21      2      5     22     23  83.9  13.2  34038  287.50 0855.35
2009/04/23 07:49:05.4      20      7      7     22     24  71.4  19.2  34030  287.37 0855.35
2009/04/23 07:49:05.5      23      9      1     25     26  68.3   2.9  34026  287.32 0855.35
2009/04/23 07:49:05.6      16     16    -10     24     26  45.0 -27.4  34040  287.55 0855.35
2009/04/23 07:49:05.7       1     20    -24     21     31   4.5 -58.7  34044  287.60 0855.35
2009/04/23 07:49:05.8       6     35    -10     36     38   9.8 -15.5  34028  287.35 0855.35
2009/04/23 07:49:05.9      12     29     -9     32     34  23.6 -15.5  34022  287.23 0855.35
2009/04/23 07:49:06.0      12     30     -7     33     34  21.8 -13.4  34014  287.11 0855.35
2009/04/23 07:49:06.1       3     22     -9     23     24   9.8 -25.4  34012  287.08 0855.35
2009/04/23 07:49:06.2      -6     26    -13     27     29 346.6 -31.7  34006  286.98 0855.35
2009/04/23 07:49:06.3       6     17    -13     19     23  18.7 -44.1  34004  286.94 0855.35
2009/04/23 07:49:06.4       5     27    -13     28     30  11.6 -31.5  34004  286.94 0855.35
2009/04/23 07:49:06.5       1     23    -21     24     31   4.5 -50.2  34006  286.98 0855.35
2009/04/23 07:49:06.6       3     22    -22     23     31   9.8 -54.4  34000  286.88 0855.35
2009/04/23 07:49:06.7      -1     20    -15     21     25 355.5 -44.1  33996  286.79 0855.35
2009/04/23 07:49:06.8      -3      8    -16      9     18 334.6 -73.2  33994  286.76 0855.35
2009/04/23 07:49:06.9      -3      0    -11      4     11 274.4 -85.4  33990  286.69 0855.35
2009/04/23 07:49:07.0       8      8     -2     12     13  43.4 -11.3  33992  286.73 0855.35
2009/04/23 07:49:07.1       9      8      4     13     14  46.7  19.4  33994  286.78 0855.35
2009/04/23 07:49:07.2      16     16     11     23     25  45.0  27.2  33992  286.74 0855.35
2009/04/23 07:49:07.3      26      8     13     28     30  71.4  27.1  33992  286.73 0855.35
2009/04/23 07:49:07.4      26     -8     13     28     30 108.6  27.1  33992  286.73 0855.35
2009/04/23 07:49:07.5      24    -14      9     28     30 120.7  19.2  33992  286.73 0855.35
2009/04/23 07:49:07.6      13    -22      5     26     27 149.3  11.1  33990  286.69 0855.35
2009/04/23 07:49:07.7       6    -54     42     55     69 172.9  42.7  33976  286.47 0855.35
2009/04/23 07:49:07.8      -3    -49     98     50    110 183.6  71.4  33970  286.35 0855.35
2009/04/23 07:49:07.9     -16    -91    105     93    140 190.2  54.2  33970  286.37 0855.35
2009/04/23 07:49:08.0     -59    -77     76     98    124 217.4  41.7  33970  286.37 0855.35
2009/04/23 07:49:08.1     -46    -82     69     95    117 209.4  39.7  33970  286.35 0855.35
2009/04/23 07:49:08.2     -39    -90     56     99    113 203.6  31.9  33974  286.42 0855.35
2009/04/23 07:49:08.3     -43    -79     61     91    109 208.5  37.0  33978  286.49 0855.35
2009/04/23 07:49:08.4     -38    -84     55     93    108 204.5  34.0  33980  286.54 0855.35
2009/04/23 07:49:08.5     -43    -92     45    102    111 205.4  25.7  33984  286.61 0855.35
2009/04/23 07:49:08.6     -41    -83     43     93    102 206.7  26.6  33982  286.56 0855.35
2009/04/23 07:49:08.7     -23    -71     44     75     86 198.5  33.5  33976  286.46 0855.35
2009/04/23 07:49:08.8     -27    -71     74     77    106 200.9  49.0  33968  286.32 0855.35
2009/04/23 07:49:08.9     -26    -43     68     51     85 210.7  59.4  33970  286.37 0855.35
2009/04/23 07:49:09.0       6    -17     53     19     56 161.3  81.2  33970  286.35 0855.35
2009/04/23 07:49:09.1      -1    -11     44     12     45 188.0  83.9  33976  286.46 0855.35
2009/04/23 07:49:09.2      -1     -8     38      9     39 189.7  86.9  33972  286.41 0855.34
2009/04/23 07:49:09.3      -3    -38     42     39     57 184.5  51.2  33974  286.44 0855.34
2009/04/23 07:49:09.4      -3    -46     55     47     72 184.5  55.4  33976  286.47 0855.34
2009/04/23 07:49:09.5      -2    -42     50     43     65 182.7  55.4  33974  286.42 0855.34
2009/04/23 07:49:09.6      18    -43     40     47     61 157.3  44.8  33976  286.46 0855.34
2009/04/23 07:49:09.7       6    -31     42     32     52 168.4  57.5  33974  286.42 0855.34
2009/04/23 07:49:09.8      12    -31     40     34     52 158.2  55.4  33972  286.41 0855.34
2009/04/23 07:49:09.9       3    -38     37     39     53 175.5  50.0  33974  286.44 0855.34
2009/04/23 07:49:10.0       1    -49     41     50     64 178.2  43.7  33974  286.42 0855.34
2009/04/23 07:49:10.1       0    -52     33     53     62 180.9  35.5  33976  286.47 0855.34
2009/04/23 07:49:10.2      -7    -39     31     40     50 190.7  42.7  33972  286.41 0855.34
2009/04/23 07:49:10.3       0    -42     28     43     51 180.0  35.6  33972  286.39 0855.34
2009/04/23 07:49:10.4       0    -38     41     39     56 180.9  50.1  33972  286.39 0855.34
2009/04/23 07:49:10.5     -33    -71     56     79     96 205.3  38.6  33974  286.42 0855.34
2009/04/23 07:49:10.6     -27    -67     41     73     83 201.8  32.4  33972  286.41 0855.34
2009/04/23 07:49:10.7      -9    -58     44     59     73 188.9  40.7  33970  286.37 0855.34
2009/04/23 07:49:10.8      -7    -46     64     47     79 189.8  60.0  33972  286.41 0855.34
2009/04/23 07:49:10.9      -7    -62     64     63     89 187.1  49.7  33972  286.39 0855.34
2009/04/23 07:49:11.0      -1    -65     77     66    101 181.0  55.4  33970  286.37 0855.34
2009/04/23 07:49:11.1      -1    -72    102     73    125 180.9  61.1  33970  286.35 0855.34
2009/04/23 07:49:11.2     -35    -54     79     65    102 213.4  56.3  33976  286.47 0855.35
2009/04/23 07:49:11.3     -13    -54     79     56     96 194.3  61.5  33978  286.51 0855.35
2009/04/23 07:49:11.4       4    -57     73     58     93 175.5  56.9  33974  286.42 0855.35
2009/04/23 07:49:11.5       2    -62     71     63     94 177.3  53.7  33972  286.39 0855.35
2009/04/23 07:49:11.6      -9    -31     51     33     60 196.9  64.6  33974  286.42 0855.35
2009/04/23 07:49:11.7       8    -40     69     41     80 168.4  66.8  33976  286.47 0855.35
2009/04/23 07:49:11.8       5    -42     60     43     73 172.0  60.5  33974  286.42 0855.35
2009/04/23 07:49:11.9       4    -52     78     53     94 175.5  63.2  33968  286.34 0855.35
2009/04/23 07:49:12.0       1    -60     76     61     97 179.0  56.9  33966  286.30 0855.35
2009/04/23 07:49:12.1       3    -46     77     47     90 175.5  65.1  33968  286.32 0855.35
2009/04/23 07:49:12.2      -6    -50     65     51     82 187.1  57.5  33968  286.34 0855.35
2009/04/23 07:49:12.3       5    -53     74     54     91 173.8  60.0  33970  286.37 0855.35
2009/04/23 07:49:12.4     -18    -70     75     73    104 195.1  50.1  33972  286.41 0855.35
2009/04/23 07:49:12.5       0    -77     86     78    116 180.0  52.7  33974  286.44 0855.35
2009/04/23 07:49:12.6      -2    -74     90     75    117 181.8  56.3  33972  286.39 0855.35
2009/04/23 07:49:12.7      -1    -75     79     76    109 180.9  51.2  33966  286.29 0855.35
2009/04/23 07:49:12.8     -25    -84     73     88    114 196.5  43.7  33960  286.20 0855.35
2009/04/23 07:49:12.9     -12    -90     82     91    122 187.6  46.9  33964  286.27 0855.35
2009/04/23 07:49:13.0     -35    -66     68     75    101 208.1  47.5  33978  286.49 0855.35
2009/04/23 07:49:13.1     -24    -81     47     85     97 196.5  31.9  33972  286.41 0855.35
2009/04/23 07:49:13.2     -14    -58     70     60     92 194.3  54.8  33966  286.29 0855.35
2009/04/23 07:49:13.3       7    -62     68     63     92 172.9  52.2  33974  286.42 0855.35
2009/04/23 07:49:13.4       0    -77     74     78    107 180.0  48.5  33974  286.42 0855.35
2009/04/23 07:49:13.5       0    -81     69     82    107 179.5  44.3  33974  286.42 0855.35
2009/04/23 07:49:13.6      -7    -85     57     86    103 185.3  36.5  33972  286.39 0855.35
2009/04/23 07:49:13.7     -15   -101     74    103    126 188.9  39.5  33974  286.42 0855.35
2009/04/23 07:49:13.8     -33   -100     72    106    128 198.7  37.6  33972  286.41 0855.35
2009/04/23 07:49:13.9     -32    -87     89     93    128 200.5  49.0  33976  286.46 0855.35
2009/04/23 07:49:14.0     -31    -99     57    104    118 197.8  31.3  33984  286.61 0855.35
2009/04/23 07:49:14.1     -28   -105     88    109    140 195.1  43.7  34002  286.89 0855.35
2009/04/23 07:49:14.2     -32   -103     44    108    116 197.4  23.0  34030  287.37 0855.35
2009/04/23 07:49:14.3     -64    -88     21    110    113 216.1  11.0  34032  287.42 0855.35
2009/04/23 07:49:14.4     -49    -60     -3     78     79 219.6  -2.2  34034  287.43 0855.35
2009/04/23 07:49:14.5     -37    -56      0     68     69 213.4   0.8  34038  287.50 0855.35
2009/04/23 07:49:14.6     -20    -60      5     64     65 198.5   4.9  34028  287.33 0855.35
2009/04/23 07:49:14.7     -11    -56     41     58     71 191.6  39.5  34020  287.21 0855.35
2009/04/23 07:49:14.8     -28    -57     66     64     91 206.3  50.1  34006  286.96 0855.35
2009/04/23 07:49:14.9     -45    -73     47     86     98 211.6  30.8  34004  286.94 0855.35
2009/04/23 07:49:15.0     -30    -26     71     40     81 228.7  68.3  34004  286.93 0855.35
2009/04/23 07:49:15.1     -22    -46     65     52     83 205.5  56.9  34006  286.96 0855.35
2009/04/23 07:49:15.2     -37    -57     71     69     99 213.4  50.7  34000  286.86 0855.36
2009/04/23 07:49:15.3     -27    -54     74     61     95 207.2  56.4  33992  286.74 0855.36
2009/04/23 07:49:15.4     -15    -44     83     47     95 199.2  67.7  33978  286.51 0855.36
2009/04/23 07:49:15.5     -15    -80     79     82    113 190.7  49.4  33976  286.46 0855.36
2009/04/23 07:49:15.6     -16    -86     70     88    112 190.7  43.7  33976  286.47 0855.36
2009/04/23 07:49:15.7     -17    -64     90     67    112 195.2  60.0  33974  286.44 0855.36
2009/04/23 07:49:15.8     -15    -75     84     77    113 191.6  52.2  33976  286.46 0855.36
2009/04/23 07:49:15.9       0    -59     88     60    106 180.9  62.6  33976  286.46 0855.36
2009/04/23 07:49:16.0       0    -49     75     50     90 180.9  63.6  33976  286.46 0855.36
2009/04/23 07:49:16.1      21    -11     53     24     58 118.9  74.0  33976  286.46 0855.36
2009/04/23 07:49:16.2      -8     -8     51     12     52 226.9  88.0  33978  286.49 0855.36
2009/04/23 07:49:16.3     -15      0     58     16     60 270.0  84.9  33976  286.46 0855.36
2009/04/23 07:49:16.4     -21     15     57     27     63 306.0  72.9  33972  286.41 0855.36
2009/04/23 07:49:16.5     -61      8     55     62     82 278.0  46.4  33990  286.69 0855.36
2009/04/23 07:49:16.6     -66     22     65     70     95 289.1  47.9  33996  286.81 0855.36
2009/04/23 07:49:16.7     -55     35     65     66     92 302.4  50.5  34000  286.86 0855.36
2009/04/23 07:49:16.8     -24     41     43     48     64 329.3  47.9  33996  286.79 0855.36
2009/04/23 07:49:16.9      19      3     40     20     44  78.5  70.8  33986  286.64 0855.36
2009/04/23 07:49:17.0     -23    -37     65     44     78 211.6  63.6  33980  286.52 0855.36
2009/04/23 07:49:17.1     -48    -51     98     71    121 223.2  60.5  33982  286.57 0855.36
2009/04/23 07:49:17.2     -74    -32     94     81    124 246.5  54.3  33982  286.56 0855.36
2009/04/23 07:49:17.3     -58    -41     94     72    118 234.9  58.5  33982  286.57 0855.36
2009/04/23 07:49:17.4     -48    -16     85     51     99 250.9  66.2  33984  286.59 0855.36
2009/04/23 07:49:17.5      17    -22     57     28     63 142.2  72.8  33982  286.57 0855.36
2009/04/23 07:49:17.6     -23    -72    107     76    131 198.3  61.1  33982  286.56 0855.36
2009/04/23 07:49:17.7     -31   -108    118    113    163 196.0  51.2  33990  286.69 0855.36
2009/04/23 07:49:17.8     -48   -117    156    127    201 202.3  56.6  33992  286.73 0855.36
2009/04/23 07:49:17.9    -115    -83     89    143    168 234.0  35.2  34014  287.10 0855.36
2009/04/23 07:49:18.0    -103    -86     86    135    160 230.4  35.5  34010  287.03 0855.36
2009/04/23 07:49:18.1     -88    -73     90    115    146 230.5  41.7  34004  286.93 0855.36
2009/04/23 07:49:18.2     -46    -79    108     92    141 210.7  55.4  33990  286.69 0855.36
2009/04/23 07:49:18.3     -25    -80    121     84    147 197.4  61.5  33988  286.67 0855.36
2009/04/23 07:49:18.4      -8    -60    112     61    127 188.0  68.9  34002  286.91 0855.36
2009/04/23 07:49:18.5     -21     21     59     30     66 315.0  70.8  34010  287.03 0855.36
2009/04/23 07:49:18.6      -1      0     62      2     62 270.0  90.0  34006  286.98 0855.36
2009/04/23 07:49:18.7      49     -9     60     50     78 101.5  55.4  33994  286.78 0855.36
2009/04/23 07:49:18.8     103     34    100    109    147  71.4  47.9  34002  286.89 0855.36
2009/04/23 07:49:18.9      91     61     69    110    129  56.3  35.5  34002  286.91 0855.36
2009/04/23 07:49:19.0      76     54     88     94    128  54.5  48.0  34004  286.93 0855.36
2009/04/23 07:49:19.1      46     51     81     69    106  42.3  55.4  34000  286.88 0855.36
2009/04/23 07:49:19.2      30     48     77     57     95  32.6  60.0  34018  287.18 0855.36
2009/04/23 07:49:19.3      12     38     66     41     77  18.3  64.7  34026  287.32 0855.36
2009/04/23 07:49:19.4      16      0     71     17     73  90.0  86.9  34026  287.32 0855.36
2009/04/23 07:49:19.5      24      8     73     26     77  71.6  81.2  34034  287.43 0855.36
2009/04/23 07:49:19.6      -6     39     56     40     68 350.2  60.6  34040  287.55 0855.36
2009/04/23 07:49:19.7      40     26     87     49     99  56.7  68.3  34058  287.84 0855.36
2009/04/23 07:49:19.8      27     31     80     42     90  40.5  70.4  34064  287.96 0855.36
2009/04/23 07:49:19.9      13     65     59     67     89  11.6  46.4  34062  287.92 0855.36
2009/04/23 07:49:20.0      -2     52     43     53     68 357.3  43.7  34058  287.84 0855.36
2009/04/23 07:49:20.1     -12     16     41     21     46 323.9  70.8  34066  287.99 0855.36
2009/04/23 07:49:20.2      30      9     48     32     57  71.8  64.6  34070  288.04 0855.36
2009/04/23 07:49:20.3      38     21     86     44     96  60.2  70.8  34078  288.18 0855.36
2009/04/23 07:49:20.4      50     50     66     72     97  45.0  47.9  34060  287.89 0855.36
2009/04/23 07:49:20.5      72     45     69     86    110  58.0  43.7  34044  287.60 0855.36
2009/04/23 07:49:20.6      41    -28     57     50     75 124.2  54.3  34044  287.60 0855.36
2009/04/23 07:49:20.7      43    -52     35     68     76 140.3  29.3  34052  287.74 0855.36
2009/04/23 07:49:20.8      72    -40     39     83     91 118.9  27.1  34050  287.72 0855.36
2009/04/23 07:49:20.9      41    -11     36     43     56 105.9  43.8  34046  287.64 0855.36
2009/04/23 07:49:21.0      69     16     72     71    101  76.7  50.1  34058  287.84 0855.36
2009/04/23 07:49:21.1      85     28     74     90    116  71.4  43.7  34058  287.84 0855.36
2009/04/23 07:49:21.2      98     58     74    115    136  59.3  35.6  34032  287.40 0855.36
2009/04/23 07:49:21.3     110     37     74    117    138  71.4  35.5  34032  287.42 0855.36
2009/04/23 07:49:21.4      90     18     80     92    121  78.5  45.8  34020  287.21 0855.36
2009/04/23 07:49:21.5     104     22     55    107    120  78.1  29.3  34012  287.06 0855.36
2009/04/23 07:49:21.6      93     27     70     97    119  73.6  39.5  34010  287.05 0855.36
2009/04/23 07:49:21.7      77     37     49     86     98  64.2  31.9  34020  287.21 0855.36
2009/04/23 07:49:21.8      64     25     51     69     85  68.2  40.1  34028  287.33 0855.36
2009/04/23 07:49:21.9      70     30     72     77    105  66.5  48.0  34020  287.20 0855.36
2009/04/23 07:49:22.0      57     28     85     64    106  63.8  59.4  34020  287.20 0855.36
2009/04/23 07:49:22.1      63     -8     80     64    102  97.9  56.9  34010  287.03 0855.36
2009/04/23 07:49:22.2     105     24     75    108    131  76.7  38.0  33998  286.83 0855.36
2009/04/23 07:49:22.3     127     17     89    129    156  82.1  38.4  33994  286.78 0855.36
2009/04/23 07:49:22.4     141     14     88    142    167  84.3  35.0  34038  287.52 0855.36
2009/04/23 07:49:22.5     155     37     10    160    161  76.3   3.8  34028  287.35 0855.36
2009/04/23 07:49:22.6     159     49     67    167    179  72.9  23.0  34042  287.59 0855.36
2009/04/23 07:49:22.7     163     20     90    165    187  83.0  31.0  34036  287.49 0855.36
2009/04/23 07:49:22.8     202     11     39    203    207  86.7  11.1  34010  287.05 0855.36
2009/04/23 07:49:22.9     178      6     21    179    181  87.9   6.7  34008  287.00 0855.36
2009/04/23 07:49:23.0     218     58     27    226    228  75.0   6.9  34024  287.27 0855.36
2009/04/23 07:49:23.1     218     55     59    225    233  75.8  14.7  34012  287.08 0855.36
2009/04/23 07:49:23.2     225     45     53    230    237  78.5  13.1  34006  286.97 0855.36
2009/04/23 07:49:23.3     183     97     56    208    216  62.0  15.3  34050  287.70 0855.36
2009/04/23 07:49:23.4     168    106     67    199    211  57.6  18.6  34014  287.11 0855.36
2009/04/23 07:49:23.5     190     89     55    211    219  64.8  14.7  34000  286.86 0855.36
2009/04/23 07:49:23.6     173     74     66    189    201  66.7  19.4  34010  287.03 0855.36
2009/04/23 07:49:23.7     173     74     92    189    210  66.9  27.4  34038  287.52 0855.36
2009/04/23 07:49:23.8     140    105    113    175    208  53.1  35.7  34052  287.76 0855.36
2009/04/23 07:49:23.9     125    117     89    172    193  46.7  29.5  34060  287.89 0855.36
2009/04/23 07:49:24.0      96    107     64    145    158  41.9  25.1  34072  288.08 0855.36
2009/04/23 07:49:24.1     109    115     70    159    173  43.3  25.1  34082  288.26 0855.36
2009/04/23 07:49:24.2     168     82     66    188    199  64.0  20.2  34048  287.67 0855.36
2009/04/23 07:49:24.3     191     57     62    200    210  73.4  17.4  34030  287.38 0855.36
2009/04/23 07:49:24.4     165     54     65    174    185  71.6  21.0  34032  287.40 0855.36
2009/04/23 07:49:24.5     149     42     96    155    182  74.1  35.0  34044  287.62 0855.36
2009/04/23 07:49:24.6     127     34    137    132    190  74.9  50.9  34028  287.33 0855.36
2009/04/23 07:49:24.7     154     -2     73    155    171  90.8  27.1  34024  287.28 0855.36
2009/04/23 07:49:24.8     126     18     95    128    159  81.6  40.4  34034  287.43 0855.36
2009/04/23 07:49:24.9     125     29    108    129    168  76.8  44.3  34058  287.84 0855.36
2009/04/23 07:49:25.0     126     50     67    136    151  68.3  27.3  34046  287.65 0855.36
2009/04/23 07:49:25.1     127     39     90    134    161  72.7  37.3  34056  287.82 0855.36
2009/04/23 07:49:25.2     113     45    120    122    171  68.3  50.0  34072  288.09 0855.36
2009/04/23 07:49:25.3     155     45     83    162    182  73.6  29.1  34048  287.69 0855.36
2009/04/23 07:49:25.4     188     42     45    193    199  77.2  13.2  34024  287.28 0855.36
2009/04/23 07:49:25.5     151     81     69    172    185  61.8  23.0  34038  287.52 0855.36
2009/04/23 07:49:25.6     137     54     37    148    153  68.3  14.3  34064  287.94 0855.36
2009/04/23 07:49:25.7     140     61     62    153    165  66.5  23.0  34042  287.57 0855.36
2009/04/23 07:49:25.8     142     59     90    154    178  67.4  32.9  34032  287.42 0855.36
2009/04/23 07:49:25.9     196      3     69    197    208  89.0  20.0  34006  286.96 0855.36
2009/04/23 07:49:26.0     198      4     44    199    204  88.7  12.6  34014  287.10 0855.36
2009/04/23 07:49:26.1      57    -21     83     61    103 110.8  60.0  33994  286.78 0855.36
2009/04/23 07:49:26.2      99    -39     66    107    125 111.8  35.0  33988  286.67 0855.36
2009/04/23 07:49:26.3      57    -28     56     64     85 116.2  45.8  33988  286.66 0855.36
2009/04/23 07:49:26.4      13    -47     74     49     88 164.0  63.6  33986  286.64 0855.36
2009/04/23 07:49:26.5      24    -24     59     34     68 134.9  67.7  33986  286.64 0855.36
2009/04/23 07:49:26.6      40    -21     72     46     85 118.0  64.6  33984  286.59 0855.36
2009/04/23 07:49:26.7      90    -37     89     98    132 112.2  47.5  33982  286.56 0855.36
2009/04/23 07:49:26.8     104    -13     74    105    128  97.5  38.6  33980  286.54 0855.36
2009/04/23 07:49:26.9     110     -8     37    111    118  94.3  18.4  33984  286.59 0855.36
2009/04/23 07:49:27.0      93     11     -5     94     95  83.0  -3.1  34034  287.43 0855.36
2009/04/23 07:49:27.1      47      8     30     48     56  80.3  35.5  34038  287.50 0855.36
2009/04/23 07:49:27.2      62    -29     67     69     96 115.3  50.0  34002  286.89 0855.36
2009/04/23 07:49:27.3      54    -29     65     62     89 118.0  51.2  33982  286.57 0855.36
2009/04/23 07:49:27.4       6    -31     82     32     88 168.4  78.2  33984  286.59 0855.36
2009/04/23 07:49:27.5      29    -71     79     77    110 157.3  50.7  33982  286.57 0855.36
2009/04/23 07:49:27.6      56    -47     73     74    103 130.4  50.5  33984  286.59 0855.36
2009/04/23 07:49:27.7      73    -52     88     90    125 125.5  50.0  33984  286.59 0855.36
2009/04/23 07:49:27.8      35    -79     88     87    123 155.9  50.1  33978  286.51 0855.36
2009/04/23 07:49:27.9      39    -51     77     65    100 142.2  55.8  33980  286.54 0855.36
2009/04/23 07:49:28.0      90    -23     89     94    129 104.6  48.5  33982  286.56 0855.36
2009/04/23 07:49:28.1     135    -35    104    140    174 104.6  40.4  33980  286.54 0855.36
2009/04/23 07:49:28.2     110    -19    123    112    166 100.1  53.0  33986  286.62 0855.35
2009/04/23 07:49:28.3      92     -2     93     93    131  91.7  50.1  34006  286.96 0855.35
2009/04/23 07:49:28.4      54     11     66     56     86  78.5  54.8  34044  287.60 0855.35
2009/04/23 07:49:28.5     -10    -33     50     35     61 196.9  61.5  33998  286.84 0855.35
2009/04/23 07:49:28.6      81    -47     76     94    120 120.2  43.7  34008  287.00 0855.35
2009/04/23 07:49:28.7      42    -60     74     74    104 144.8  50.1  33986  286.62 0855.35
2009/04/23 07:49:28.8      75    -62     85     98    129 129.6  45.4  33982  286.56 0855.35
2009/04/23 07:49:28.9       1    -73     82     74    110 179.1  53.3  33972  286.39 0855.35
2009/04/23 07:49:29.0      17    -84     92     86    125 168.4  52.1  33976  286.47 0855.35
2009/04/23 07:49:29.1      37    -40     82     55     98 136.8  63.2  33976  286.47 0855.35
2009/04/23 07:49:29.2       3    -30     57     31     64 173.8  68.8  33980  286.54 0855.35
2009/04/23 07:49:29.3     -14    -94    107     96    143 188.9  53.3  33992  286.73 0855.35
2009/04/23 07:49:29.4      40    -40     74     57     93 135.0  57.9  33982  286.56 0855.35
2009/04/23 07:49:29.5      16    -67     68     69     96 166.6  50.5  33980  286.54 0855.35
2009/04/23 07:49:29.6      33    -42     79     54     95 141.3  63.2  33980  286.54 0855.35
2009/04/23 07:49:29.7       2    -25     50     26     56 173.8  70.8  33982  286.57 0855.35
2009/04/23 07:49:29.8      25    -11     51     28     58 113.5  68.8  33980  286.52 0855.35
2009/04/23 07:49:29.9      67     -8     81     68    105  97.0  55.8  33980  286.52 0855.35
2009/04/23 07:49:30.0      45    -32     70     56     89 125.1  56.9  33978  286.51 0855.35
2009/04/23 07:49:30.1      35    -32     62     48     78 132.2  57.9  33978  286.51 0855.35
2009/04/23 07:49:30.2      43    -58     68     73     99 143.9  48.0  33980  286.54 0855.35
2009/04/23 07:49:30.3      28    -49     67     57     87 150.1  55.4  33980  286.52 0855.35
2009/04/23 07:49:30.4      18    -39     57     44     72 154.6  57.5  33982  286.56 0855.35
2009/04/23 07:49:30.5      32    -30     58     45     73 133.1  57.5  33982  286.56 0855.35
2009/04/23 07:49:30.6      -6    -42     60     43     73 188.9  60.5  33980  286.54 0855.35
2009/04/23 07:49:30.7      22    -46     62     52     80 154.5  55.4  33982  286.56 0855.35
2009/04/23 07:49:30.8      41     -3     49     42     64  94.4  54.3  33982  286.56 0855.35
2009/04/23 07:49:30.9      20    -32     47     38     60 147.5  56.4  33982  286.57 0855.35
2009/04/23 07:49:31.0      58    -42     61     72     94 126.0  44.8  33980  286.54 0855.35
2009/04/23 07:49:31.1      82    -61     50    103    114 126.4  27.3  33976  286.47 0855.35
2009/04/23 07:49:31.2      71    -56     25     91     95 128.6  15.3  33978  286.49 0855.35
2009/04/23 07:49:31.3      83    -16     12     85     86 101.5   8.5  33980  286.52 0855.35
2009/04/23 07:49:31.4      59    -19     27     63     68 108.2  24.1  33978  286.49 0855.35
2009/04/23 07:49:31.5      51    -47     42     70     81 133.2  34.0  33976  286.47 0855.35
2009/04/23 07:49:31.6      75    -43     39     87     95 119.8  26.2  33978  286.49 0855.35
2009/04/23 07:49:31.8      73    -52     41     90     98 125.5  26.2  33980  286.52 0855.35
2009/04/23 07:49:31.9      25    -56     47     62     77 155.5  40.7  33976  286.47 0855.35
2009/04/23 07:49:32.0      38    -38     41     55     68 135.0  41.7  33978  286.49 0855.35
2009/04/23 07:49:32.1      41    -47     32     63     70 138.6  28.2  33976  286.47 0855.35
2009/04/23 07:49:32.2      46    -63     31     79     84 143.9  22.0  33978  286.51 0855.35
2009/04/23 07:49:32.3      51    -61     41     80     89 140.4  28.7  33976  286.47 0855.34
2009/04/23 07:49:32.4      66    -67     32     95    101 135.5  18.9  33978  286.51 0855.34
2009/04/23 07:49:32.5      65    -89     13    111    112 143.9   7.1  33976  286.47 0855.34
2009/04/23 07:49:32.6      58    -79     57     99    114 143.5  32.9  33982  286.56 0855.34
2009/04/23 07:49:32.7      59    -87     57    106    120 145.7  30.8  33978  286.51 0855.34
2009/04/23 07:49:32.8      52    -82     64     98    117 147.5  35.6  33980  286.54 0855.34
2009/04/23 07:49:32.9      67    -72     79     99    126 136.8  42.7  33978  286.51 0855.34
2009/04/23 07:49:33.0      71    -50     66     87    109 125.1  41.2  33982  286.56 0855.34
2009/04/23 07:49:33.1      72    -42     66     84    106 120.7  42.7  33978  286.51 0855.34
2009/04/23 07:49:33.2      93    -15     41     95    103  99.2  24.6  33982  286.57 0855.34
2009/04/23 07:49:33.3      93    -14     24     95     99  98.8  14.3  33982  286.56 0855.34
2009/04/23 07:49:33.4      88    -32      0     94     95 110.0   0.2  33982  286.56 0855.34
2009/04/23 07:49:33.5     103    -49      5    115    116 115.4   2.9  33982  286.57 0855.34
2009/04/23 07:49:33.6     105    -35     17    111    113 108.6   9.0  33980  286.52 0855.34
2009/04/23 07:49:33.7      58    -41     40     72     82 125.1  31.4  33982  286.56 0855.34
2009/04/23 07:49:33.8      55    -33     31     65     72 121.5  27.2  33982  286.56 0855.34
2009/04/23 07:49:33.9      14    -49     35     52     62 164.0  37.6  33978  286.51 0855.34
2009/04/23 07:49:34.0       1    -49     34     50     60 178.2  37.6  33976  286.46 0855.34
2009/04/23 07:49:34.1     -14    -70     48     72     86 191.6  36.5  33972  286.41 0855.34
2009/04/23 07:49:34.2      24    -73     57     78     96 161.5  39.7  33978  286.49 0855.34
2009/04/23 07:49:34.3       4    -57     73     58     93 175.5  56.9  33974  286.42 0855.35
2009/04/23 07:49:34.4      -2    -68     68     69     96 181.8  50.5  33974  286.42 0855.35
2009/04/23 07:49:34.5      18    -63     57     66     87 164.0  45.8  33978  286.51 0855.35
2009/04/23 07:49:34.6      10    -52     57     54     78 168.5  51.6  33978  286.49 0855.35
2009/04/23 07:49:34.7      -1    -53     46     54     70 181.8  43.8  33978  286.49 0855.35
2009/04/23 07:49:34.8     -39    -78     46     88     99 206.7  30.3  33976  286.47 0855.35
2009/04/23 07:49:34.9     -18    -86     62     88    107 192.0  39.5  33972  286.41 0855.35
2009/04/23 07:49:35.0      -9    -70     57     71     91 188.0  43.7  33972  286.41 0855.35
2009/04/23 07:49:35.1     -30    -55     41     63     75 209.0  35.6  33972  286.39 0855.35
2009/04/23 07:49:35.2     -40    -63     40     75     85 212.6  30.3  33972  286.41 0855.35
2009/04/23 07:49:35.3     -23    -61     18     66     69 200.9  15.3  33974  286.42 0855.35
2009/04/23 07:49:35.4     -45    -45     -1     64     65 225.0  -1.3  33974  286.44 0855.35
2009/04/23 07:49:35.5     -56    -44    -10     72     73 232.2  -8.2  33976  286.46 0855.35
2009/04/23 07:49:35.6     -56    -30     -8     64     65 241.2  -7.3  33974  286.44 0855.35
2009/04/23 07:49:35.7     -37    -34      7     51     52 227.8   8.0  33976  286.46 0855.35
2009/04/23 07:49:35.8     -39    -26      8     48     49 235.8  10.1  33976  286.46 0855.35
2009/04/23 07:49:35.9     -45     -6     15     46     49 262.1  18.9  33976  286.47 0855.35
2009/04/23 07:49:36.0     -42    -12     26     44     51 254.1  34.4  33980  286.52 0855.35
2009/04/23 07:49:36.1     -32    -10     11     34     36 251.6  18.9  33976  286.46 0855.35
2009/04/23 07:49:36.2     -29    -33     17     45     48 221.4  20.0  33976  286.46 0855.35
2009/04/23 07:49:36.3     -14    -36     31     39     49 201.8  43.7  33976  286.46 0855.35
2009/04/23 07:49:36.4      -1    -41     44     42     60 181.8  51.2  33976  286.46 0855.35
2009/04/23 07:49:36.5      -3    -50     69     51     85 184.5  60.0  33978  286.51 0855.35
2009/04/23 07:49:36.6     -16    -47     82     50     96 199.2  65.1  33984  286.59 0855.35
2009/04/23 07:49:36.7      -4    -68     80     69    105 183.6  54.8  33982  286.56 0855.35
2009/04/23 07:49:36.8      26    -27     48     38     61 136.8  56.4  33980  286.54 0855.35
2009/04/23 07:49:36.9      65      0     56     66     86  90.8  45.4  33984  286.59 0855.35
2009/04/23 07:49:37.0      36    -38     49     53     72 136.8  47.9  33982  286.56 0855.35
2009/04/23 07:49:37.1      44    -28     67     53     85 122.4  57.5  33978  286.51 0855.35
2009/04/23 07:49:37.2      34     -6     61     35     70 101.5  67.7  33980  286.54 0855.35
2009/04/23 07:49:37.3      17    -14     57     23     61 129.5  77.1  33978  286.51 0855.35
2009/04/23 07:49:37.4      20     -1     48     21     52  94.4  75.0  33980  286.54 0855.35
2009/04/23 07:49:37.5       7     23     48     25     54  18.5  71.9  33982  286.56 0855.35
2009/04/23 07:49:37.6      30     31     49     44     65  44.1  52.2  33986  286.62 0855.35
2009/04/23 07:49:37.7      65     47     28     81     86  54.0  19.2  34038  287.50 0855.35
2009/04/23 07:49:37.8      58     41     11     72     73  54.9   9.0  34068  288.01 0855.35
2009/04/23 07:49:37.9      87     16     17     89     91  79.0  11.0  34058  287.86 0855.35
2009/04/23 07:49:38.0      79     -4      0     80     81  93.5  -0.3  34066  287.99 0855.35
2009/04/23 07:49:38.1      86     27      4     91     92  72.7   2.9  34108  288.70 0855.35
2009/04/23 07:49:38.2      79     26      7     84     85  71.6   4.9  34088  288.35 0855.35
2009/04/23 07:49:38.3      83     34    -27     90     95  67.4 -17.0  34122  288.92 0855.35
2009/04/23 07:49:38.4      58     55    -11     81     82  46.4  -8.2  34112  288.75 0855.35
2009/04/23 07:49:38.5      77     69     26    104    108  47.8  14.3  34076  288.16 0855.35
2009/04/23 07:49:38.6      28     67     57     73     92  22.7  42.7  34072  288.08 0855.35
2009/04/23 07:49:38.7      -4     14     62     15     63 341.5  85.9  34076  288.16 0855.35
2009/04/23 07:49:38.8      48      4     61     49     78  84.8  56.4  34064  287.94 0855.35
2009/04/23 07:49:38.9      67     -7     59     68     90  96.1  45.4  34072  288.08 0855.35
2009/04/23 07:49:39.0      64      4     49     65     81  85.7  41.2  34080  288.23 0855.35
2009/04/23 07:49:39.1      66      9     64     67     92  82.0  49.0  34090  288.38 0855.35
2009/04/23 07:49:39.2      75     54     70     93    116  54.0  40.7  34088  288.36 0855.35
2009/04/23 07:49:39.3     119     32     57    124    136  74.9  26.6  34096  288.50 0855.35
2009/04/23 07:49:39.4     119     23     10    122    123  79.0   5.0  34084  288.30 0855.35
2009/04/23 07:49:39.5     119     35      6    125    126  73.6   2.9  34088  288.35 0855.35
2009/04/23 07:49:39.6     111     49     19    122    124  66.0   9.0  34084  288.30 0855.35
2009/04/23 07:49:39.7     122     32      8    127    128  75.4   3.8  34066  287.99 0855.35
2009/04/23 07:49:39.8     127     41     -4    134    135  71.8  -1.8  34050  287.70 0855.35
2009/04/23 07:49:39.9     147     35      0    152    153  76.3   0.2  34050  287.70 0855.35
2009/04/23 07:49:40.0     156     21     29    158    161  82.1  10.6  34074  288.13 0855.35
2009/04/23 07:49:40.1     151     41     14    157    158  74.9   5.2  34068  288.03 0855.35
2009/04/23 07:49:40.2     149     30     37    153    158  78.5  13.7  34074  288.13 0855.35
2009/04/23 07:49:40.3     149     42     34    155    159  74.1  12.6  34064  287.94 0855.35
2009/04/23 07:49:40.4     138     43     41    145    151  72.7  15.8  34052  287.76 0855.35
2009/04/23 07:49:40.5     114     78     -3    139    140  55.8  -1.3  34048  287.69 0855.35
2009/04/23 07:49:40.6     113     63     23    130    133  60.7  10.1  34042  287.57 0855.35
2009/04/23 07:49:40.7     101     83     49    131    139  50.5  21.0  34038  287.52 0855.35
2009/04/23 07:49:40.8      73     76     60    106    121  43.7  31.9  34034  287.43 0855.35
2009/04/23 07:49:40.9      85     68     52    110    121  51.4  27.2  34030  287.38 0855.35
2009/04/23 07:49:41.0      56     26      6     62     63  64.7   5.9  34036  287.47 0855.35
2009/04/23 07:49:41.1      51     24     31     57     64  64.6  31.4  34034  287.45 0855.35
2009/04/23 07:49:41.2      71     14     24     73     77  78.5  18.4  34030  287.38 0855.35
2009/04/23 07:49:41.3      50      0     42     51     66  89.2  43.7  34034  287.43 0855.35
2009/04/23 07:49:41.4      28     18     55     34     64  57.5  64.7  34030  287.38 0855.35
2009/04/23 07:49:41.5     -43     42     72     61     94 314.0  55.4  34046  287.64 0855.35
2009/04/23 07:49:41.6     -24     79     54     83     99 342.6  36.0  34050  287.70 0855.35
2009/04/23 07:49:41.7     -17    101     44    103    112 350.2  24.1  34054  287.79 0855.35
2009/04/23 07:49:41.8     -21     85     44     88     98 345.7  28.2  34054  287.79 0855.35
2009/04/23 07:49:41.9     -14     92     46     94    104 351.1  27.8  34050  287.70 0855.35
2009/04/23 07:49:42.0     -23     97     57    100    115 346.2  32.4  34050  287.70 0855.35
2009/04/23 07:49:42.1     -22     76     39     80     89 344.0  27.3  34052  287.76 0855.35
2009/04/23 07:49:42.2      -4     87     59     88    105 356.9  36.5  34054  287.77 0855.35
2009/04/23 07:49:42.3      -5    110     69    111    130 357.3  35.5  34052  287.74 0855.35
2009/04/23 07:49:42.4       9     97     61     98    115   5.8  35.5  34050  287.70 0855.35
2009/04/23 07:49:42.5       3     96     33     97    103   2.2  18.9  34046  287.65 0855.35
2009/04/23 07:49:42.6      15    100      7    102    103   8.5   4.4  34052  287.74 0855.35
2009/04/23 07:49:42.7      12     87     57     88    104   8.0  35.6  34050  287.72 0855.35
2009/04/23 07:49:42.8      15     86     14     88     90  10.2   9.0  34056  287.81 0855.35
2009/04/23 07:49:42.9      21     88      7     91     92  13.4   4.4  34052  287.76 0855.35
2009/04/23 07:49:43.0      33     70     -4     78     79  25.3  -3.1  34036  287.49 0855.35
2009/04/23 07:49:43.1      26     43    -16     51     54  31.6 -17.6  34036  287.47 0855.35
2009/04/23 07:49:43.2      13     23    -13     27     29  30.7 -31.7  34036  287.47 0855.35
2009/04/23 07:49:43.3      30     19    -17     36     39  57.6 -30.6  34034  287.45 0855.35
2009/04/23 07:49:43.4       4     23     -8     24     25   9.8 -23.6  34036  287.47 0855.35
2009/04/23 07:49:43.5      15     25      0     30     31  30.7   0.8  34038  287.50 0855.35
2009/04/23 07:49:43.6      -8     25     18     27     32 341.3  35.6  34040  287.54 0855.35
2009/04/23 07:49:43.7      -7     26     12     27     29 344.9  23.0  34042  287.57 0855.35
2009/04/23 07:49:43.8       0     34     14     35     37   0.9  21.0  34036  287.49 0855.35
2009/04/23 07:49:43.9      -8     30     17     32     36 344.9  29.3  34036  287.47 0855.35
2009/04/23 07:49:44.0     -23     39     16     46     49 329.3  19.4  34036  287.49 0855.35
2009/04/23 07:49:44.1     -21     46      2     51     52 334.5   2.9  34038  287.52 0855.35
2009/04/23 07:49:44.2     -30     30     -5     43     44 315.0  -7.3  34038  287.52 0855.35
2009/04/23 07:49:44.3     -32     24      4     40     41 306.9   5.9  34038  287.50 0855.35
2009/04/23 07:49:44.4     -47     17      5     51     52 290.0   5.9  34040  287.55 0855.35
2009/04/23 07:49:44.5     -53     13     -1     55     56 284.2  -1.3  34040  287.55 0855.35
2009/04/23 07:49:44.6     -56     15    -13     59     61 285.1 -12.4  34034  287.43 0855.35
2009/04/23 07:49:44.7     -51      2    -14     52     54 272.6 -15.4  34026  287.32 0855.35
2009/04/23 07:49:44.8     -62      7     -5     63     64 277.0  -5.2  34024  287.27 0855.35
2009/04/23 07:49:44.9     -50      0    -15     51     53 270.0 -22.8  34024  287.27 0855.35
2009/04/23 07:49:45.0     -34      3    -13     35     37 276.1 -23.3  34022  287.25 0855.35
2009/04/23 07:49:45.1     -12      0    -20     13     23 270.0 -69.1  34024  287.28 0855.35
2009/04/23 07:49:45.2     -46     -2    -25     47     53 267.4 -34.7  34038  287.50 0855.35
2009/04/23 07:49:45.3     -50    -10    -17     52     54 258.5 -23.8  34050  287.72 0855.35
2009/04/23 07:49:45.4     -44    -14    -13     47     49 251.6 -15.5  34038  287.50 0855.35
2009/04/23 07:49:45.5     -39     -4     14     40     42 263.0  20.0  34024  287.27 0855.35
2009/04/23 07:49:45.6     -43      4     32     44     54 276.1  39.7  34024  287.28 0855.35
2009/04/23 07:49:45.7     -30      9     44     32     54 288.2  60.5  34026  287.30 0855.35
2009/04/23 07:49:45.8     -20     27     43     34     54 323.9  57.5  34030  287.38 0855.35
2009/04/23 07:49:45.9     -39     63     32     75     81 328.4  24.1  34032  287.40 0855.35
2009/04/23 07:49:46.0     -39     76     49     86     98 332.8  31.9  34028  287.35 0855.35
2009/04/23 07:49:46.1     -60     95      5    113    114 327.4   2.9  34030  287.38 0855.35
2009/04/23 07:49:46.2     -46    111      4    121    122 337.3   2.3  34016  287.13 0855.35
2009/04/23 07:49:46.3     -74    117     11    139    140 327.5   4.9  34006  286.96 0855.35
2009/04/23 07:49:46.4     -78    140     28    161    164 331.0  10.1  34020  287.20 0855.35
2009/04/23 07:49:46.5     -90    139     37    166    171 327.0  12.6  34020  287.21 0855.35
2009/04/23 07:49:46.6      -4    112     66    113    130 357.8  33.4  34022  287.23 0855.35
2009/04/23 07:49:46.7      67     90     66    113    130  36.5  33.4  34024  287.27 0855.35
2009/04/23 07:49:46.8      41     64     68     77    102  32.5  46.4  34018  287.18 0855.35
2009/04/23 07:49:46.9       6     77     82     78    113   4.5  51.2  34014  287.11 0855.35
2009/04/23 07:49:47.0      33     61    111     70    131  28.9  64.7  34014  287.10 0855.35
2009/04/23 07:49:47.1    -111     87     60    142    154 308.2  24.1  34014  287.11 0855.35
2009/04/23 07:49:47.2     -59     87    -47    106    115 325.7 -30.1  34014  287.10 0855.35
2009/04/23 07:49:47.3     -70     79    -11    106    107 318.6  -6.2  34014  287.11 0855.35
2009/04/23 07:49:47.4     -32    118    -40    123    130 344.8 -18.1  34006  286.96 0855.35
2009/04/23 07:49:47.5     -33    109    -58    115    128 343.1 -33.1  34010  287.03 0855.35
2009/04/23 07:49:47.6     -34    116    -66    121    137 343.5 -35.7  33996  286.81 0855.35
2009/04/23 07:49:47.7     -43    150    -36    157    162 344.0 -12.9  33996  286.81 0855.35
2009/04/23 07:49:47.8     -64    157     10    170    171 337.7   3.6  34008  287.00 0855.35
2009/04/23 07:49:47.9    -111    111     37    157    162 315.0  13.2  34018  287.18 0855.35
2009/04/23 07:49:48.0     -77     64     40    101    108 309.5  23.0  34020  287.21 0855.35
2009/04/23 07:49:48.1     -77    128     70    150    165 328.8  26.6  34020  287.20 0855.35
2009/04/23 07:49:48.2    -131    147     90    197    216 318.3  26.2  34028  287.35 0855.35
2009/04/23 07:49:48.3     -93    133     92    163    187 325.0  31.9  34024  287.27 0855.35
2009/04/23 07:49:48.4    -105     62    105    123    161 300.6  45.1  34014  287.10 0855.35
2009/04/23 07:49:48.5    -141     15     81    142    163 276.1  32.4  34018  287.18 0855.35
2009/04/23 07:49:48.6    -159     12     29    160    163 274.4  10.6  34026  287.30 0855.35
2009/04/23 07:49:48.7    -158    -32    -23    162    164 258.5  -8.2  34024  287.27 0855.35
2009/04/23 07:49:48.8    -204   -110    -51    232    238 241.6 -12.4  33988  286.65 0855.35
2009/04/23 07:49:48.9    -316   -127    -90    341    353 248.0 -14.8  34008  287.00 0855.35
2009/04/23 07:49:49.0    -286     -1    -79    287    298 269.6 -15.5  34014  287.11 0855.35
2009/04/23 07:49:49.1    -237      0    -54    238    245 270.0 -12.9  34008  287.01 0855.35
2009/04/23 07:49:49.2    -241    -33    -67    244    254 262.1 -15.5  33982  286.55 0855.35
2009/04/23 07:49:49.3    -260    -43    -98    264    281 260.5 -25.4  33988  286.67 0855.35
2009/04/23 07:49:49.4    -189    -69    -58    202    210 250.0 -21.2  33992  286.74 0855.35
2009/04/23 07:49:49.5    -200   -114    -56    231    238 240.2 -13.7  33994  286.77 0855.35
2009/04/23 07:49:49.6    -204   -163    -89    262    277 231.4 -18.9  33984  286.60 0855.35
2009/04/23 07:49:49.7    -227   -103    -89    250    266 245.6 -19.7  33986  286.63 0855.35
2009/04/23 07:49:49.8    -195   -157    -81    251    263 231.1 -23.3  33994  286.77 0855.35
2009/04/23 07:49:49.9    -265   -135    -59    298    304 243.0 -11.3  34000  286.87 0855.35
2009/04/23 07:49:50.0    -234   -139      5    273    274 239.3   1.2  34000  286.87 0855.35
2009/04/23 07:49:50.1    -179   -141     19    228    229 231.8   5.0  34004  286.94 0855.35
2009/04/23 07:49:50.2    -184   -208    -35    278    281 221.5  -7.3  34006  286.95 0855.35
2009/04/23 07:49:50.3    -111   -188     51    219    225 210.5  13.2  34008  287.00 0855.35
2009/04/23 07:49:50.4    -100   -162      7    191    192 211.9   2.3  34002  286.91 0855.35
2009/04/23 07:49:50.5     -72   -172     60    187    197 202.7  17.9  34010  287.03 0855.35
2009/04/23 07:49:50.6     -30   -168     94    171    195 190.2  31.4  34006  286.98 0855.35
2009/04/23 07:49:50.7      -3   -203     32    204    207 181.1   9.0  34000  286.86 0855.35
2009/04/23 07:49:50.8     -12   -162      6    163    164 184.2   2.1  33996  286.81 0855.35
2009/04/23 07:49:50.9     -17   -102    -30    104    108 189.8 -20.7  34000  286.88 0855.35
2009/04/23 07:49:51.0     -68    -95    -37    117    123 215.6 -17.5  33998  286.84 0855.35
2009/04/23 07:49:51.1     -58    -91     13    108    109 212.5   6.9  34000  286.88 0855.35
2009/04/23 07:49:51.2     -74   -114     37    137    143 213.0  15.2  34002  286.89 0855.35
2009/04/23 07:49:51.3     -76   -106    -11    131    132 215.6  -5.1  33998  286.84 0855.35
2009/04/23 07:49:51.4    -121   -166    -34    206    209 216.1  -9.6  33998  286.84 0855.35
2009/04/23 07:49:51.5     -98   -171    -75    198    211 209.9 -25.9  33986  286.64 0855.35
2009/04/23 07:49:51.6     -98   -205    -76    228    240 205.5 -23.6  33986  286.62 0855.35
2009/04/23 07:49:51.7     -78   -241    -85    254    267 198.0 -23.6  33986  286.62 0855.35
2009/04/23 07:49:51.8     -69   -206    -70    218    228 198.5 -23.3  33984  286.59 0855.35
2009/04/23 07:49:51.9     -49   -179     11    186    187 195.6   3.6  33994  286.78 0855.35
2009/04/23 07:49:52.0     -56   -217     16    225    226 194.5   4.2  33988  286.67 0855.35
2009/04/23 07:49:52.1     -35   -215     -6    218    219 189.3  -1.8  33982  286.57 0855.35
2009/04/23 07:49:52.2       5   -210     31    211    214 178.4   8.5  33978  286.49 0855.35
2009/04/23 07:49:52.3     -44   -240     25    245    247 190.5   5.9  33980  286.53 0855.35
2009/04/23 07:49:52.4     -46   -229     -9    234    235 191.6  -2.2  33984  286.58 0855.35
2009/04/23 07:49:52.5     -48   -205    -16    211    212 193.4  -4.6  33982  286.56 0855.35
2009/04/23 07:49:52.6     -32   -174      1    177    178 190.5   0.5  33982  286.56 0855.35
2009/04/23 07:49:52.7     -30   -190     30    193    196 189.1   8.9  33982  286.57 0855.35
2009/04/23 07:49:52.8       6   -175      0    176    177 177.8  -0.3  33982  286.57 0855.35
2009/04/23 07:49:52.9      11   -183    -14    184    185 176.4  -4.6  33984  286.59 0855.35
2009/04/23 07:49:53.0       8   -183     18    184    185 177.5   5.7  33982  286.56 0855.35
2009/04/23 07:49:53.1      -1   -188     51    189    196 180.5  15.3  33982  286.56 0855.35
2009/04/23 07:49:53.2      10   -137     63    138    151 175.5  26.6  33984  286.61 0855.35
2009/04/23 07:49:53.3      14   -126     65    127    142 173.3  29.3  33982  286.57 0855.35
2009/04/23 07:49:53.4     -10   -130     49    131    139 184.5  21.0  33986  286.62 0855.35
2009/04/23 07:49:53.5     -41   -174      0    179    180 193.4  -0.3  33986  286.64 0855.35
2009/04/23 07:49:53.6      11   -147     15    148    149 175.5   5.9  33984  286.61 0855.35
2009/04/23 07:49:53.7      27   -182     -3    185    186 171.5  -1.1  33986  286.62 0855.35
2009/04/23 07:49:53.8      10   -224    -53    225    232 177.3 -13.3  33988  286.66 0855.35
2009/04/23 07:49:53.9       0   -238    -75    239    251 180.0 -17.6  33988  286.67 0855.35
2009/04/23 07:49:54.0      58   -193    -92    202    221 163.3 -30.6  33988  286.66 0855.35
2009/04/23 07:49:54.1      77   -128   -117    150    190 148.8 -46.6  33988  286.66 0855.35
2009/04/23 07:49:54.2       6   -138   -136    139    194 177.3 -54.2  33986  286.62 0855.35
2009/04/23 07:49:54.3      30    -93   -107     98    145 161.7 -56.6  33984  286.61 0855.35
2009/04/23 07:49:54.4     -24    -81   -106     85    135 196.5 -61.3  33988  286.67 0855.35
2009/04/23 07:49:54.5      -9   -102    -94    103    139 185.3 -52.3  33988  286.66 0855.35
2009/04/23 07:49:54.6     -12    -60   -101     62    118 191.6 -70.1  33986  286.62 0855.35
2009/04/23 07:49:54.7     -50   -158    -21    166    168 197.8  -7.5  33986  286.62 0855.35
2009/04/23 07:49:54.8     -46   -160    -25    167    169 196.3  -8.6  33986  286.62 0855.35
2009/04/23 07:49:54.9     -36   -119    -55    125    136 197.0 -29.6  33986  286.64 0855.35
2009/04/23 07:49:55.0     -43   -123    -36    131    136 199.6 -15.5  33986  286.62 0855.35
2009/04/23 07:49:55.1     -46   -110    -52    120    130 202.7 -29.5  33982  286.57 0855.35
2009/04/23 07:49:55.2     -39   -104    -27    112    116 200.9 -13.9  33982  286.57 0855.35
2009/04/23 07:49:55.3     -40    -64    -53     76     92 212.5 -42.4  33980  286.54 0855.35
2009/04/23 07:49:55.4     -24    -56    -60     62     86 203.6 -54.4  33982  286.57 0855.35
2009/04/23 07:49:55.5      13    -77    -40     79     88 170.2 -32.6  33982  286.56 0855.35
2009/04/23 07:49:55.6       0    -77    -46     78     90 180.0 -37.9  33984  286.59 0855.35
2009/04/23 07:49:55.7      16    -80    -43     82     92 168.4 -33.7  33984  286.61 0855.35
2009/04/23 07:49:55.8      -6   -102    -37    103    109 183.6 -24.4  33982  286.57 0855.35
2009/04/23 07:49:55.9     -32   -136    -50    140    149 193.3 -19.7  33980  286.52 0855.35
2009/04/23 07:49:56.1     -16   -174    -52    175    182 185.3 -21.5  33974  286.44 0855.35
2009/04/23 07:49:56.1     -47   -143    -65    151    164 198.3 -29.3  33974  286.44 0855.35
2009/04/23 07:49:56.2     -24   -140    -70    143    159 189.7 -32.4  33976  286.47 0855.35
2009/04/23 07:49:56.3     -16   -133    -71    135    152 187.1 -34.2  33972  286.41 0855.35
2009/04/23 07:49:56.4     -23   -114    -84    117    144 191.6 -43.9  33976  286.46 0855.35
2009/04/23 07:49:56.5     -38   -109    -98    116    151 199.2 -48.7  33972  286.41 0855.35
2009/04/23 07:49:56.6     -86   -128   -116    155    193 213.8 -44.8  33976  286.47 0855.35
2009/04/23 07:49:56.7     -80   -165    -84    184    202 205.9 -30.6  33976  286.46 0855.35
2009/04/23 07:49:56.8     -50   -151    -60    160    170 198.3 -25.9  33976  286.47 0855.35
2009/04/23 07:49:56.9     -44   -135    -65    143    157 198.3 -30.6  33976  286.46 0855.35
2009/04/23 07:49:57.0     -63   -151    -55    164    172 202.9 -23.6  33978  286.49 0855.35
2009/04/23 07:49:57.1     -56   -159    -35    169    173 199.6 -11.9  33978  286.49 0855.35
2009/04/23 07:49:57.2     -86   -159    -31    181    184 208.5  -9.8  33976  286.46 0855.35
2009/04/23 07:49:57.3     -45   -136    -30    144    148 198.5 -11.9  33976  286.47 0855.35
2009/04/23 07:49:57.4     -66   -129    -41    145    151 207.1 -16.0  33976  286.47 0855.35
2009/04/23 07:49:57.5     -91    -86    -20    126    128 226.4  -9.3  33978  286.49 0855.35
2009/04/23 07:49:57.6    -132    -66    -11    148    149 243.4  -4.6  33976  286.47 0855.35
2009/04/23 07:49:57.7     -95    -74     -4    121    122 232.2  -2.2  33978  286.49 0855.35
2009/04/23 07:49:57.9     -63    -50    -10     81     82 231.4  -7.3  33976  286.47 0855.35
2009/04/23 07:49:58.0     -45    -54    -37     71     80 219.7 -34.2  33976  286.47 0855.35
2009/04/23 07:49:58.0     -56    -46    -26     73     77 230.4 -23.3  33978  286.51 0855.35
2009/04/23 07:49:58.2     -38    -72     44     82     93 208.1  30.3  33980  286.54 0855.35
2009/04/23 07:49:58.2     -46    -70     42     84     93 213.4  28.7  33978  286.49 0855.35
2009/04/23 07:49:58.4     -28    -86     17     91     93 198.3  10.6  33976  286.47 0855.35
2009/04/23 07:49:58.5     -21    -94     -3     97     98 192.9  -2.2  33978  286.49 0855.35
2009/04/23 07:49:58.6       4    -93      8     94     95 177.3   4.9  33976  286.47 0855.35
2009/04/23 07:49:58.7     -39    -80     21     90     93 206.3  13.7  33974  286.44 0855.35
2009/04/23 07:49:58.8     -58    -77     -1     97     98 217.4  -1.2  33974  286.42 0855.35
2009/04/23 07:49:58.9     -65    -37    -21     75     79 240.2 -16.0  33976  286.46 0855.35
2009/04/23 07:49:59.0     -47    -81     19     94     96 210.3  11.6  33976  286.46 0855.35
2009/04/23 07:49:59.1     -40   -119    -20    126    128 198.7  -9.3  33976  286.46 0855.35
2009/04/23 07:49:59.2       0   -112    -14    113    114 180.5  -7.2  33976  286.46 0855.35
2009/04/23 07:49:59.3     -41   -103    -37    111    117 201.8 -23.6  33976  286.47 0855.35
2009/04/23 07:49:59.4      -4    -85    -31     86     91 183.1 -24.4  33978  286.51 0855.36
2009/04/23 07:49:59.5      -8    -61    -22     62     65 188.0 -23.3  33978  286.49 0855.36
2009/04/23 07:49:59.6      -2    -30    -24     31     39 184.5 -48.1  33978  286.49 0855.36
2009/04/23 07:49:59.7       7    -21    -24     23     33 161.5 -52.6  33976  286.47 0855.36
2009/04/23 07:49:59.8     -19    -37    -12     42     43 208.1 -21.7  33978  286.51 0855.36
2009/04/23 07:49:59.9     -41    -69    -18     81     84 210.7 -12.9  33978  286.51 0855.36
2009/04/23 07:50:00.0     -30    -75    -23     81     84 201.8 -21.2  33978  286.49 0855.36
2009/04/23 07:50:00.1     -30    -90    -29     96    100 198.7 -21.7  33978  286.51 0855.36
2009/04/23 07:50:00.2     -17   -103    -15    105    107 189.8  -8.2  33978  286.49 0855.36
2009/04/23 07:50:00.3      28   -117      1    121    122 166.6   0.8  33978  286.49 0855.36
2009/04/23 07:50:00.4       0   -116    -10    117    118 180.0  -5.2  33976  286.47 0855.36
2009/04/23 07:50:00.5     -10   -146    -22    147    149 184.0  -8.8  33976  286.47 0855.36
2009/04/23 07:50:00.6     -12   -165    -30    166    169 184.2 -10.5  33974  286.44 0855.36
2009/04/23 07:50:00.7      13   -140      1    141    142 174.7   0.7  33976  286.47 0855.36
2009/04/23 07:50:00.8     -31   -119     -6    123    124 194.7  -3.2  33978  286.49 0855.36
2009/04/23 07:50:00.9     -50    -89    -22    103    106 209.4 -12.4  33974  286.44 0855.36
2009/04/23 07:50:01.0     -90    -30    -74     95    120 251.4 -46.1  33980  286.52 0855.36
2009/04/23 07:50:01.1    -112    -53    -91    125    154 244.6 -44.1  33980  286.52 0855.36
2009/04/23 07:50:01.2     -87    -83    -59    121    134 226.4 -32.2  33978  286.51 0855.36
2009/04/23 07:50:01.3     -55   -152    -58    162    172 200.1 -24.6  33978  286.51 0855.36
2009/04/23 07:50:01.4     -67   -144    -49    159    166 204.9 -22.3  33978  286.51 0855.35
2009/04/23 07:50:01.5     -57   -121    -25    134    137 205.4 -10.9  33976  286.47 0855.35
2009/04/23 07:50:01.6     -68    -16    -19     70     73 256.7 -15.4  33974  286.42 0855.35
2009/04/23 07:50:01.7     -75     49    -45     90    100 303.3 -32.6  33978  286.51 0855.35
2009/04/23 07:50:01.8    -106     22    -34    109    114 281.9 -23.3  33978  286.49 0855.35
2009/04/23 07:50:01.9     -63      3    -73     64     97 273.5 -58.7  33976  286.47 0855.35
2009/04/23 07:50:02.0     -54     21    -53     59     79 291.7 -51.9  33978  286.51 0855.35
2009/04/23 07:50:02.1     -32     21    -57     39     69 304.2 -67.0  33978  286.51 0855.35
2009/04/23 07:50:02.2     -17     22    -50     28     57 322.2 -72.1  33978  286.49 0855.35
2009/04/23 07:50:02.3      -2     48    -36     49     60 357.3 -44.1  33976  286.47 0855.35
2009/04/23 07:50:02.4     -13     23    -46     27     53 329.3 -71.2  33974  286.44 0855.35
2009/04/23 07:50:02.5     -16     18    -48     25     54 318.6 -76.3  33976  286.46 0855.35
2009/04/23 07:50:02.6     157      4    -48     50     69 360.0 -54.4  33976  286.46 0855.35
2009/04/23 07:50:02.7     -11     34    -43     36     56 341.3 -60.7  33976  286.46 0855.35
2009/04/23 07:50:02.8      10     31    -32     33     45  18.7 -54.4  33978  286.51 0855.35
2009/04/23 07:50:02.9      11      7    -32     14     34  57.6 -77.5  33974  286.42 0855.35
2009/04/23 07:50:03.0      28      0    -25     29     38  90.8 -50.2  33972  286.41 0855.35
2009/04/23 07:50:03.1      35    -28    -26     45     51 128.6 -36.8  33972  286.41 0855.35
2009/04/23 07:50:03.2      29    -30    -20     43     47 135.9 -30.6  33974  286.42 0855.35
2009/04/23 07:50:03.3      32    -39    -29     51     58 140.4 -37.9  33974  286.44 0855.35
2009/04/23 07:50:03.4      24    -37    -51     45     68 147.5 -56.6  33974  286.42 0855.34
2009/04/23 07:50:03.5      12    -35    -20     38     42 161.3 -34.7  33974  286.44 0855.34
2009/04/23 07:50:03.6     -13    -66    -35     68     76 191.6 -33.7  33978  286.51 0855.34
2009/04/23 07:50:03.7     -16    -61    -22     64     68 195.2 -19.7  33978  286.51 0855.34
2009/04/23 07:50:03.8       0    -94    -32     95    100 179.5 -23.6  33982  286.56 0855.34
2009/04/23 07:50:03.9       8   -100     -7    101    102 175.1  -4.1  33982  286.57 0855.34
2009/04/23 07:50:04.0       6    -71     -9     72     73 174.7  -7.2  33982  286.56 0855.34
2009/04/23 07:50:04.1      37    -58    -19     69     72 147.4 -15.4  33984  286.59 0855.34
2009/04/23 07:50:04.2      56    -57     -3     81     82 135.5  -2.2  33980  286.54 0855.34
2009/04/23 07:50:04.3      20    -90      4     93     94 167.5   2.8  33980  286.54 0855.34
2009/04/23 07:50:04.4     -11    -88     -8     89     90 187.1  -5.2  33980  286.54 0855.34
2009/04/23 07:50:04.5      -2    -83    -22     84     87 181.8 -15.0  33978  286.51 0855.34
2009/04/23 07:50:04.6      11    -74     -4     75     76 171.1  -3.1  33980  286.54 0855.34
2009/04/23 07:50:04.7      14    -71     -2     73     74 168.4  -2.2  33978  286.51 0855.34
2009/04/23 07:50:04.8      14    -72     26     74     79 168.4  19.4  33978  286.49 0855.34
2009/04/23 07:50:04.9       6   -101     14    102    104 176.4   8.0  33978  286.49 0855.34
2009/04/23 07:50:05.0      14   -100     -4    102    103 172.0  -2.2  33978  286.51 0855.34
2009/04/23 07:50:05.1      23    -85      4     89     90 164.9   2.9  33978  286.51 0855.34
2009/04/23 07:50:05.2      23    -85      4     89     90 164.9   2.9  33978  286.51 0855.34
2009/04/23 07:50:05.3       8    -70     -1     71     72 172.9  -1.2  33978  286.49 0855.34
2009/04/23 07:50:05.4      10    -81     -4     82     83 172.4  -3.1  33978  286.49 0855.34
2009/04/23 07:50:05.5      23    -85     -8     89     90 164.9  -5.2  33978  286.51 0855.34
2009/04/23 07:50:05.6      18    -85     -4     87     88 168.0  -3.1  33976  286.47 0855.34
2009/04/23 07:50:05.7      22    -79    -12     83     84 164.0  -8.8  33976  286.47 0855.34
2009/04/23 07:50:05.8      15    -74     -8     76     77 168.4  -6.2  33978  286.51 0855.34
2009/04/23 07:50:05.9       8    -70     -1     71     72 172.9  -1.2  33978  286.49 0855.34
2009/04/23 07:50:06.0      -1    -73      8     74     75 180.9   6.9  33978  286.49 0855.34
2009/04/23 07:50:06.1      -5    -64     20     65     69 184.5  17.3  33978  286.49 0855.34
2009/04/23 07:50:06.2     -14    -56     16     58     61 194.3  15.3  33976  286.46 0855.34
2009/04/23 07:50:06.3     -28    -47     15     55     58 210.7  15.3  33976  286.46 0855.34
2009/04/23 07:50:06.4     -27    -39     19     48     51 214.3  22.0  33976  286.47 0855.34
2009/04/23 07:50:06.5     -49    -13     23     51     55 254.9  26.2  33976  286.46 0855.34
2009/04/23 07:50:06.6     -69     22     27     73     77 288.2  20.0  33970  286.35 0855.34
2009/04/23 07:50:06.7     -99     46     30    110    115 294.8  15.3  33964  286.27 0855.34
2009/04/23 07:50:06.8     -94     45     26    105    109 295.4  14.3  33964  286.25 0855.34
2009/04/23 07:50:06.9    -106     46      8    116    117 293.5   4.4  33966  286.30 0855.34
2009/04/23 07:50:07.0     -93     63     -2    113    114 304.2  -1.2  33964  286.25 0855.34
2009/04/23 07:50:07.1     -86     52    -12    101    102 301.5  -7.3  33972  286.39 0855.34
2009/04/23 07:50:07.2     -91      9    -22     92     95 276.1 -13.9  33974  286.44 0855.34
2009/04/23 07:50:07.3     -75     -6    -23     76     80 264.8 -17.0  33976  286.47 0855.34
2009/04/23 07:50:07.4     -50    -32    -21     60     64 237.6 -19.7  33976  286.47 0855.34
2009/04/23 07:50:07.5     -54    -61     -8     82     83 221.4  -6.2  33972  286.41 0855.34
2009/04/23 07:50:07.6     -76    -57     35     96    102 233.1  20.4  33972  286.41 0855.34
2009/04/23 07:50:07.7     -79    -23     38     83     91 253.6  26.6  33974  286.42 0855.34
2009/04/23 07:50:07.8     -73    -24     29     78     83 251.4  21.0  33976  286.47 0855.34
2009/04/23 07:50:07.9     -90    -12     31     91     97 262.1  18.9  33976  286.47 0855.34
2009/04/23 07:50:08.0     -93     22     38     96    103 283.7  23.0  33976  286.47 0855.34
2009/04/23 07:50:08.1     -93     43     28    103    107 294.8  15.3  33970  286.37 0855.34
2009/04/23 07:50:08.2    -126     22    -18    129    131 280.1  -8.2  33972  286.39 0855.34
2009/04/23 07:50:08.3     -98     44    -10    108    109 294.4  -5.6  33972  286.39 0855.34
2009/04/23 07:50:08.4    -117     50     25    128    131 293.1  11.1  33976  286.46 0855.33
2009/04/23 07:50:08.5    -101     29     21    106    109 286.4  11.1  33976  286.47 0855.33
2009/04/23 07:50:08.6     -96     -8     12     97     98 265.2   7.5  33974  286.44 0855.33
2009/04/23 07:50:08.7     -84     34      1     91     92 292.6   0.8  33978  286.51 0855.33
2009/04/23 07:50:08.8    -112     26     -6    116    117 283.3  -3.1  33980  286.54 0855.33
2009/04/23 07:50:08.9    -119     26    -15    122    124 282.4  -7.3  33980  286.54 0855.33
2009/04/23 07:50:09.0    -118     31    -15    123    124 285.1  -7.2  33978  286.51 0855.33
2009/04/23 07:50:09.1    -134     26    -19    137    139 281.0  -8.2  33980  286.54 0855.33
2009/04/23 07:50:09.2    -139     11      0    140    141 274.8  -0.3  33976  286.46 0855.33
2009/04/23 07:50:09.3    -135     12      1    136    137 275.2   0.8  33974  286.42 0855.33
2009/04/23 07:50:09.4    -129     30    -22    133    135 283.3  -9.4  33976  286.47 0855.33
2009/04/23 07:50:09.5    -105     32      0    110    111 287.3  -0.3  33972  286.41 0855.33
2009/04/23 07:50:09.6    -138     10     -3    139    140 274.4  -1.3  33976  286.46 0855.33
2009/04/23 07:50:09.7    -157     12     -4    158    159 274.4  -1.8  33974  286.44 0855.33
2009/04/23 07:50:09.8    -152     11    -23    153    155 274.3  -8.6  33974  286.42 0855.33
2009/04/23 07:50:09.9    -112      4    -17    113    115 272.1  -8.8  33974  286.44 0855.33
2009/04/23 07:50:10.0    -136     -4    -27    137    140 268.3 -11.3  33976  286.46 0855.33
2009/04/23 07:50:10.1    -143     -6    -15    144    145 267.4  -6.2  33972  286.41 0855.33
2009/04/23 07:50:10.2    -127      3      6    128    129 271.7   2.9  33972  286.41 0855.33
2009/04/23 07:50:10.3     -97     22     19    100    102 283.3  11.1  33972  286.41 0855.33
2009/04/23 07:50:10.4     -95      7      4     96     97 274.4   2.8  33974  286.42 0855.33
2009/04/23 07:50:10.5    -110    -19     -1    112    113 259.9  -0.7  33974  286.44 0855.33
2009/04/23 07:50:10.6     -90     -4     12     91     92 267.4   8.0  33976  286.46 0855.33
2009/04/23 07:50:10.7     -58     11    -16     60     63 281.4 -15.5  33974  286.44 0855.33
2009/04/23 07:50:10.8     -48     19     33     52     61 291.7  35.5  33972  286.41 0855.33
2009/04/23 07:50:10.9     -29     29     50     42     65 314.9  56.3  33972  286.39 0855.33
2009/04/23 07:50:11.0     -28     18     38     34     50 302.4  53.3  33970  286.37 0855.33
2009/04/23 07:50:11.1     -14     46     53     49     72 342.2  52.2  33972  286.41 0855.33
2009/04/23 07:50:11.2     -36     39     44     54     69 317.7  43.7  33972  286.41 0855.33
2009/04/23 07:50:11.3     -28     31     52     43     67 317.7  56.3  33974  286.42 0855.33
2009/04/23 07:50:11.4     -31     14     49     35     60 295.3  60.5  33972  286.41 0855.33
2009/04/23 07:50:11.5     -32     21     42     39     57 304.2  51.2  33974  286.42 0855.33
2009/04/23 07:50:11.6     -35     22     44     42     60 302.4  51.2  33972  286.41 0855.33
2009/04/23 07:50:11.7     -38     26     42     47     63 304.2  47.9  33974  286.44 0855.33
2009/04/23 07:50:11.8     -36     31     38     48     61 311.3  43.7  33974  286.42 0855.33
2009/04/23 07:50:11.9     -36     31     31     48     57 311.3  35.6  33976  286.46 0855.33
2009/04/23 07:50:12.0     -27     31     47     42     63 318.6  52.2  33974  286.42 0855.33
2009/04/23 07:50:12.1     -14     46     46     49     67 342.2  48.0  33978  286.49 0855.33
2009/04/23 07:50:12.2     -23     54     44     59     73 336.4  40.7  33976  286.46 0855.33
2009/04/23 07:50:12.3     -46     42     33     63     71 312.2  30.3  33974  286.44 0855.33
2009/04/23 07:50:12.4     -54     37     33     66     73 305.1  27.3  33978  286.49 0855.33
2009/04/23 07:50:12.5     -46     38     22     60     63 309.6  20.0  33972  286.41 0855.33
2009/04/23 07:50:12.6     -39     40     17     57     60 315.8  17.3  33974  286.44 0855.33
2009/04/23 07:50:12.7     -41     34     24     54     59 309.5  25.1  33974  286.42 0855.33
2009/04/23 07:50:12.8     -43     41     37     60     70 314.0  35.5  33974  286.42 0855.33
2009/04/23 07:50:12.9     -53     49     62     73     95 313.2  44.3  33976  286.46 0855.33
2009/04/23 07:50:13.0     -49     40     65     64     91 309.6  50.1  33974  286.44 0855.33
2009/04/23 07:50:13.1     -47     42     59     64     87 312.2  47.9  33978  286.49 0855.33
2009/04/23 07:50:13.2     -33     42     52     54     74 321.3  51.1  33980  286.52 0855.33
2009/04/23 07:50:13.3     -45     40     29     61     67 311.3  27.2  33986  286.64 0855.33
2009/04/23 07:50:13.4     -53     56     34     78     85 316.7  25.1  33990  286.71 0855.33
2009/04/23 07:50:13.5     -53     43     33     69     76 308.6  27.2  33982  286.57 0855.33
2009/04/23 07:50:13.6     -42     46     46     63     78 317.7  39.7  33978  286.49 0855.33
2009/04/23 07:50:13.7     -13     63     74     65     98 348.4  53.7  33978  286.49 0855.33
2009/04/23 07:50:13.8     -21     74     87     77    116 344.0  53.7  33974  286.42 0855.33
2009/04/23 07:50:13.9     -31     94    109    100    147 341.7  52.2  33978  286.49 0855.33
2009/04/23 07:50:14.0     -20     91     54     94    108 347.5  32.4  33976  286.46 0855.33
2009/04/23 07:50:14.1     -28     87     47     92    103 341.7  28.7  33976  286.47 0855.33
2009/04/23 07:50:14.2     -25     97     40    101    108 345.3  23.0  33978  286.51 0855.33
2009/04/23 07:50:14.3      -1    124     22    125    127 359.1  10.1  33980  286.52 0855.33
2009/04/23 07:50:14.4      -2    154     34    155    159 359.0  12.6  33982  286.56 0855.33
2009/04/23 07:50:14.5      50    125      9    135    136  21.8   3.8  33986  286.62 0855.33
2009/04/23 07:50:14.6      42     88      4     98     99  25.5   2.8  33990  286.69 0855.33
2009/04/23 07:50:14.7      26     78     21     83     86  18.7  14.3  33990  286.69 0855.33
2009/04/23 07:50:14.8      44    101     21    111    114  23.6  11.1  33984  286.61 0855.33
2009/04/23 07:50:14.9      23    112     20    115    117  12.0  10.1  33990  286.71 0855.33
2009/04/23 07:50:15.0      32     97     24    103    106  18.5  13.2  33986  286.64 0855.33
2009/04/23 07:50:15.1      17     95     36     97    103  10.2  21.0  33990  286.71 0855.33
2009/04/23 07:50:15.2      21    107     37    110    117  11.5  18.9  33990  286.69 0855.33
2009/04/23 07:50:15.3       7    104     34    105    111   4.0  17.9  34034  287.43 0855.33
2009/04/23 07:50:15.4      46    104     39    114    121  24.1  18.9  34014  287.10 0855.33
2009/04/23 07:50:15.5      28    138     17    141    143  11.5   6.9  34110  288.74 0855.33
2009/04/23 07:50:15.6     -30    127     63    131    145 346.7  27.3  34136  289.16 0855.33
2009/04/23 07:50:15.7       2    171     11    172    173   1.0   3.8  34102  288.58 0855.33
2009/04/23 07:50:15.8     -22    146     14    148    149 351.1   5.4  34100  288.55 0855.33
2009/04/23 07:50:15.9     -26    131    -15    134    135 348.4  -6.7  34088  288.36 0855.33
2009/04/23 07:50:16.0     -89    102     31    136    140 319.0  13.1  34122  288.94 0855.33
2009/04/23 07:50:16.1     -43     89    100     99    140 334.1  50.1  34082  288.25 0855.33
2009/04/23 07:50:16.2     -24    120     78    123    145 348.4  35.5  34098  288.52 0855.33
2009/04/23 07:50:16.3     -48     74     74     89    115 327.0  43.8  34036  287.47 0855.33
2009/04/23 07:50:16.4     -30     67     71     74    102 335.5  49.0  34026  287.30 0855.33
2009/04/23 07:50:16.5     -15     58     84     61    103 344.8  60.6  34014  287.10 0855.33
2009/04/23 07:50:16.6      -6     44     66     45     79 352.0  62.6  34006  286.98 0855.33
2009/04/23 07:50:16.7      -2     36     57     37     67 355.6  64.6  34002  286.89 0855.33
2009/04/23 07:50:16.8      -7     34     53     35     63 348.4  63.6  34006  286.98 0855.33
2009/04/23 07:50:16.9     -23     49     43     55     69 334.5  42.7  34034  287.43 0855.33
2009/04/23 07:50:17.0     -48     15     28     51     58 288.2  31.4  34040  287.54 0855.33
2009/04/23 07:50:17.1     -46     -7     42     47     63 261.2  47.9  34036  287.49 0855.33
2009/04/23 07:50:17.2     -49     37     45     62     76 306.9  39.7  34066  287.99 0855.33
2009/04/23 07:50:17.3     -68     15     -2     70     71 282.4  -2.2  34076  288.16 0855.33
2009/04/23 07:50:17.4     -75     42    -26     86     90 299.3 -17.0  34090  288.38 0855.33
2009/04/23 07:50:17.5     -61     56    -32     84     89 312.7 -25.9  34110  288.74 0855.33
2009/04/23 07:50:17.6     -33     42    -15     54     56 321.3 -20.7  34118  288.87 0855.33
2009/04/23 07:50:17.7      -3     48     17     49     52 355.5  19.4  34110  288.74 0855.33
2009/04/23 07:50:17.8      -6     26     40     27     48 346.6  63.6  34112  288.75 0855.33
2009/04/23 07:50:17.9       6     17     13     19     23  18.7  39.7  34112  288.75 0855.33
2009/04/23 07:50:18.0       6    -16     11     18     21 158.2  33.5  34108  288.70 0855.33
2009/04/23 07:50:18.1      19    -57     25     61     65 161.3  23.0  34110  288.72 0855.33
2009/04/23 07:50:18.2      24    -44     38     51     63 151.0  40.7  34100  288.57 0855.33
2009/04/23 07:50:18.3      26    -64     40     70     80 158.1  32.4  34080  288.23 0855.33
2009/04/23 07:50:18.4      37    -44     43     58     72 140.4  39.7  34062  287.91 0855.32
2009/04/23 07:50:18.5      44    -33     35     56     66 126.9  35.5  34066  287.99 0855.32
2009/04/23 07:50:18.6      49    -19     32     53     61 111.7  34.4  34066  287.98 0855.32
2009/04/23 07:50:18.7      45      7     44     46     63  80.3  50.0  34068  288.01 0855.32
2009/04/23 07:50:18.8      77      1     41     78     88  89.2  29.8  34062  287.92 0855.32
2009/04/23 07:50:18.9      91      1     41     92    100  89.2  25.7  34060  287.89 0855.32
2009/04/23 07:50:19.0      52    -10     45     54     70 101.4  43.8  34054  287.77 0855.32
2009/04/23 07:50:19.1      38    -38     49     54     72 135.0  47.9  34048  287.69 0855.32
2009/04/23 07:50:19.2      18    -51     46     55     71 160.8  43.8  34054  287.77 0855.32
2009/04/23 07:50:19.3      34    -49     48     60     76 144.8  43.7  34054  287.77 0855.32
2009/04/23 07:50:19.4      52    -36     46     64     78 125.1  39.7  34052  287.76 0855.32
2009/04/23 07:50:19.5      55    -10     61     56     82 100.6  52.2  34062  287.92 0855.32
2009/04/23 07:50:19.6      26     31     73     41     83  39.6  67.7  34086  288.33 0855.32
2009/04/23 07:50:19.7      62      1     46     63     78  88.3  39.7  34076  288.14 0855.32
2009/04/23 07:50:19.8      53      9     58     54     79  80.3  51.6  34044  287.62 0855.32
2009/04/23 07:50:19.9      65     41     72     78    106  57.6  47.9  34048  287.69 0855.32
2009/04/23 07:50:20.0      68     39     46     79     91  60.2  32.9  34066  287.98 0855.32
2009/04/23 07:50:20.1      38     52     37     65     74  36.1  32.4  34090  288.40 0855.32
2009/04/23 07:50:20.2      65     49     36     82     89  52.7  25.7  34082  288.26 0855.32
2009/04/23 07:50:20.3      36     39     28     54     60  42.3  30.3  34092  288.42 0855.32
2009/04/23 07:50:20.5      66     22     40     70     80  70.9  32.4  34082  288.25 0855.32
2009/04/23 07:50:20.5      78     13     42     80     90  80.3  29.8  34062  287.91 0855.32
2009/04/23 07:50:20.6     103     26     31    107    112  75.4  16.3  34076  288.16 0855.32
2009/04/23 07:50:20.7      55     35     78     66    102  57.5  55.4  34114  288.79 0855.32
2009/04/23 07:50:20.8      52     31     66     61     89  59.3  52.2  34118  288.86 0855.32
2009/04/23 07:50:20.9      77     28     47     83     95  70.0  32.4  34116  288.82 0855.32
2009/04/23 07:50:21.0      37     19     37     42     55  62.9  45.8  34112  288.77 0855.32
2009/04/23 07:50:21.1       8      8     43     12     44  45.0  83.9  34110  288.72 0855.32
2009/04/23 07:50:21.2      37     20     45     43     62  62.0  51.2  34108  288.69 0855.32
2009/04/23 07:50:21.3      43      0     39     44     58  90.0  46.9  34104  288.64 0855.32
2009/04/23 07:50:21.4      51    -17     38     54     66 108.4  38.6  34084  288.30 0855.32
2009/04/23 07:50:21.5      57     -8     33     58     66  98.8  32.4  34088  288.36 0855.32
2009/04/23 07:50:21.6      27      9     45     29     53  71.6  64.6  34106  288.65 0855.32
2009/04/23 07:50:21.7      16     18     42     25     48  41.4  65.7  34100  288.57 0855.32
2009/04/23 07:50:21.8       8     23     43     25     49  18.7  66.8  34104  288.62 0855.32
2009/04/23 07:50:21.9      24     19     37     31     48  52.2  54.3  34094  288.47 0855.32
2009/04/23 07:50:22.0      22     22     42     32     52  45.0  57.5  34088  288.35 0855.32
2009/04/23 07:50:22.1      14     21     55     26     60  32.6  72.9  34084  288.28 0855.32
2009/04/23 07:50:22.2       0    -10     35     11     36 175.5  80.7  34080  288.21 0855.32
2009/04/23 07:50:22.3       0    -14     33     15     36 182.7  73.1  34078  288.18 0855.32
2009/04/23 07:50:22.4      -3    -21     29     22     36 189.8  58.5  34078  288.20 0855.34
2009/04/23 07:50:22.5     -17     -7     23     19     29 248.3  56.4  34076  288.16 0855.34
2009/04/23 07:50:22.6     -13      8     26     16     30 302.4  64.7  34072  288.09 0855.34
2009/04/23 07:50:22.7     -23     15     19     28     33 302.5  37.6  34072  288.08 0855.34
2009/04/23 07:50:22.8     -19     20     27     28     38 316.6  52.0  34080  288.21 0855.34
2009/04/23 07:50:22.9      -8     14     32     17     36 331.0  70.8  34082  288.26 0855.34
2009/04/23 07:50:23.0       3     33     24     34     41   6.2  39.7  34082  288.25 0855.34
2009/04/23 07:50:23.1       2     28     22     29     36   4.4  41.7  34082  288.26 0855.34
2009/04/23 07:50:23.2     -16     38      7     42     43 336.4  10.1  34086  288.31 0855.34
2009/04/23 07:50:23.3     -24     24     -4     35     36 315.0  -7.3  34082  288.26 0855.34
2009/04/23 07:50:23.4     -39      4     -2     40     41 277.0  -4.1  34082  288.25 0855.34
2009/04/23 07:50:23.5     -31      0      7     32     33 270.8  13.2  34076  288.14 0855.34
2009/04/23 07:50:23.6     -17    -17      8     25     27 225.0  17.3  34074  288.13 0855.34
2009/04/23 07:50:23.7     -16    -18     17     25     30 221.4  37.6  34074  288.11 0855.34
2009/04/23 07:50:23.8      -4    -32     21     33     39 188.0  35.5  34074  288.13 0855.34
2009/04/23 07:50:23.9     -20    -35     -1     41     42 209.9  -2.2  34074  288.11 0855.34
2009/04/23 07:50:24.0     -30    -30     -5     43     44 225.0  -7.3  34076  288.16 0855.34
2009/04/23 07:50:24.2     -35    -39     -2     53     54 222.3  -2.2  34082  288.25 0855.34
2009/04/23 07:50:24.2     -42    -33      2     54     55 231.4   2.9  34080  288.23 0855.34
2009/04/23 07:50:24.4     -27    -45     12     53     55 210.7  13.2  34080  288.21 0855.34
2009/04/23 07:50:24.5     -37    -34     15     51     54 226.9  16.3  34078  288.18 0855.34
2009/04/23 07:50:24.6     -33    -38     18     51     55 221.4  19.4  34076  288.14 0855.34
2009/04/23 07:50:24.7     -54    -35     42     65     77 236.7  35.6  34068  288.01 0855.34
2009/04/23 07:50:24.8     -67    -54     30     87     93 231.4  18.9  34060  287.89 0855.34
2009/04/23 07:50:24.9     -83    -54     32    100    106 236.7  17.9  34056  287.81 0855.34
2009/04/23 07:50:25.0     -13    -77     19     79     82 189.8  13.7  34062  287.92 0855.34
2009/04/23 07:50:25.1      20    -60     20     64     68 161.3  17.3  34066  287.98 0855.34
2009/04/23 07:50:25.2      34    -26     39     44     58 127.8  46.9  34048  287.67 0855.34
2009/04/23 07:50:25.3      16    -15     45     22     50 133.1  72.8  34022  287.23 0855.34
2009/04/23 07:50:25.4      -2    -50     57     51     76 182.7  52.2  34010  287.03 0855.34
2009/04/23 07:50:25.5      26    -35     70     44     82 143.0  64.7  33996  286.81 0855.34
2009/04/23 07:50:25.6      35    -35     33     50     59 135.0  36.5  34008  287.00 0855.34
2009/04/23 07:50:25.7     -24    -73    -22     78     82 198.7 -16.0  34022  287.23 0855.34
2009/04/23 07:50:25.8     -40   -102    -32    110    115 201.9 -16.6  34020  287.20 0855.34
2009/04/23 07:50:25.9     -29   -101     -4    106    107 196.0  -2.2  33996  286.81 0855.34
2009/04/23 07:50:26.0      22   -110     43    113    120 168.4  22.0  33976  286.46 0855.34
2009/04/23 07:50:26.1      69   -106     34    127    132 146.6  15.2  33974  286.42 0855.34
2009/04/23 07:50:26.2      80    -91     50    122    131 138.6  23.1  33962  286.22 0855.34
2009/04/23 07:50:26.3      91   -100     54    136    146 137.7  23.0  33968  286.32 0855.34
2009/04/23 07:50:26.4      86   -116     75    145    163 143.5  29.8  33968  286.34 0855.34
2009/04/23 07:50:26.5     101    -92     66    137    152 132.2  27.3  33966  286.29 0855.34
2009/04/23 07:50:26.6      94    -74     69    120    138 128.2  32.4  33968  286.32 0855.34
2009/04/23 07:50:26.7     120    -66     64    138    152 118.9  27.1  33992  286.73 0855.34
2009/04/23 07:50:26.8     120    -30     73    124    143 104.2  33.5  33994  286.76 0855.34
2009/04/23 07:50:26.9     107    -60     82    123    147 119.3  36.5  33982  286.56 0855.34
2009/04/23 07:50:27.0      68    -86     78    110    134 141.7  38.6  33992  286.74 0855.34
2009/04/23 07:50:27.1      75    -60     79     97    125 128.6  43.7  33986  286.62 0855.34
2009/04/23 07:50:27.2      68    -64     66     94    114 133.6  38.6  33988  286.67 0855.34
2009/04/23 07:50:27.3      19    -97     67     99    119 168.5  37.6  33996  286.81 0855.34
2009/04/23 07:50:27.4       5    -98     73     99    123 176.9  39.7  34006  286.96 0855.34
2009/04/23 07:50:27.5       7    -95     69     96    118 175.5  39.7  34012  287.06 0855.35
2009/04/23 07:50:27.6      28    -83     62     88    107 161.3  39.5  34014  287.10 0855.35
2009/04/23 07:50:27.7      42    -80     58     91    107 151.9  35.5  34016  287.13 0855.35
2009/04/23 07:50:27.8      41    -74     47     85     97 150.6  31.9  34020  287.21 0855.35
2009/04/23 07:50:27.9      38    -74     58     84    102 152.4  38.6  34012  287.08 0855.35
2009/04/23 07:50:28.0      55    -51     62     76     98 133.1  43.7  34010  287.05 0855.35
2009/04/23 07:50:28.1      40    -53     58     67     88 143.0  45.4  34028  287.35 0855.35
2009/04/23 07:50:28.2      23    -45     50     51     71 152.8  50.0  34036  287.49 0855.35
2009/04/23 07:50:28.3      28    -35     35     45     57 141.3  42.7  34040  287.55 0855.35
2009/04/23 07:50:28.4      25    -19     24     32     40 127.8  40.7  34034  287.43 0855.35
2009/04/23 07:50:28.5      53    -24     24     59     63 114.4  23.0  34014  287.10 0855.35
2009/04/23 07:50:28.6      58     -6     24     59     63  96.1  23.0  34028  287.33 0855.35
2009/04/23 07:50:28.7      67     31     25     75     80  64.8  18.9  34048  287.67 0855.35
2009/04/23 07:50:28.8      75     29     -7     81     82  68.7  -5.6  34038  287.50 0855.35
2009/04/23 07:50:28.9      77      4     39     78     87  86.5  28.2  34050  287.72 0855.35
2009/04/23 07:50:29.0     110     -1     69    111    130  90.9  35.5  34064  287.96 0855.35
2009/04/23 07:50:29.1     122     -1     70    123    141  90.8  31.9  34048  287.69 0855.35
2009/04/23 07:50:29.2     125     22     66    127    143  79.9  29.3  34054  287.79 0855.35
2009/04/23 07:50:29.3     121     36     69    127    144  73.2  31.3  34054  287.79 0855.35
2009/04/23 07:50:29.4     136     45     57    144    154  71.4  22.5  34042  287.57 0855.35
2009/04/23 07:50:29.5     126     21     84    128    153  80.4  35.6  34038  287.50 0855.34
2009/04/23 07:50:29.6     127     25     48    130    138  78.5  21.0  34032  287.42 0855.34
2009/04/23 07:50:29.7     111     30     41    116    124  74.9  19.4  34042  287.59 0855.34
2009/04/23 07:50:29.8      82     39     61     91    109  64.6  37.0  34042  287.59 0855.34
2009/04/23 07:50:29.9     103     27     39    107    113  75.0  20.0  34032  287.42 0855.34
2009/04/23 07:50:30.0     112     44     46    121    129  68.2  21.0  34040  287.55 0855.34
2009/04/23 07:50:30.1     144     56     44    155    162  68.7  16.0  34014  287.11 0855.34
2009/04/23 07:50:30.2     167     66     43    180    186  68.5  13.5  34030  287.37 0855.34
2009/04/23 07:50:30.3     162     61     31    174    177  69.2  10.3  34032  287.40 0855.34
2009/04/23 07:50:30.4     159     30     31    162    166  79.0  11.1  34014  287.10 0855.34
2009/04/23 07:50:30.5     137     13     47    138    146  84.3  18.9  34016  287.13 0855.34
2009/04/23 07:50:30.6     131     18     36    133    138  82.1  15.2  34008  287.01 0855.34
2009/04/23 07:50:30.7     127     25     30    130    134  78.5  13.2  34008  287.01 0855.34
2009/04/23 07:50:30.8     149     35     32    154    158  76.8  12.0  34036  287.47 0855.34
2009/04/23 07:50:30.9     189     74     34    204    207  68.5   9.5  34054  287.77 0855.34
2009/04/23 07:50:31.0     178     59     19    188    189  71.4   5.9  34046  287.65 0855.34
2009/04/23 07:50:31.1     117    -23     42    120    128 101.4  19.4  34038  287.50 0855.34
2009/04/23 07:50:31.2     149     -3    110    150    186  91.3  39.9  34038  287.52 0855.34
2009/04/23 07:50:31.3     105     18    126    107    165  80.3  55.4  34050  287.70 0855.34
2009/04/23 07:50:31.4     131     52    115    141    181  68.3  43.7  34036  287.49 0855.34
2009/04/23 07:50:31.5     104     28     81    108    135  74.5  40.7  34040  287.54 0855.35
2009/04/23 07:50:31.6      84     69     61    109    124  50.5  31.9  34056  287.81 0855.35
2009/04/23 07:50:31.7      77     53     37     94    101  55.4  23.0  34056  287.82 0855.35
2009/04/23 07:50:31.8      67     54     40     87     95  51.4  26.6  34062  287.91 0855.35
2009/04/23 07:50:31.9      65     21     23     69     74  71.6  18.9  34058  287.84 0855.35
2009/04/23 07:50:32.0      62      0     67     63     91  90.9  51.6  34048  287.67 0855.35
2009/04/23 07:50:32.1      76     -5     55     77     94  94.4  39.1  34030  287.38 0855.35
2009/04/23 07:50:32.2      74    -13     62     76     98 100.6  43.7  34030  287.37 0855.35
2009/04/23 07:50:32.3      82      8     60     83    102  84.3  39.7  34034  287.43 0855.35
2009/04/23 07:50:32.4     100    -17     41    102    109 100.1  23.0  34036  287.49 0855.35
2009/04/23 07:50:32.5      77    -38     49     87     99 116.6  31.9  34024  287.27 0855.35
2009/04/23 07:50:32.6      72    -28     61     78     99 111.7  42.2  34000  286.88 0855.35
2009/04/23 07:50:32.7      79     -8     56     80     97  96.1  38.0  34028  287.35 0855.35
2009/04/23 07:50:32.8      69      7     59     70     91  83.9  44.3  34040  287.54 0855.35
2009/04/23 07:50:32.9      80     18     70     83    108  77.2  44.3  34042  287.57 0855.35
2009/04/23 07:50:33.0      73      5     51     74     89  85.6  37.6  34034  287.43 0855.35
2009/04/23 07:50:33.1     113     23     58    116    129  78.6  28.7  34036  287.49 0855.35
2009/04/23 07:50:33.2     129      6     57    130    141  87.0  25.1  34040  287.54 0855.35
2009/04/23 07:50:33.3     126     20     45    128    136  80.8  19.4  34032  287.42 0855.35
2009/04/23 07:50:33.4     166      4     30    167    170  88.5  10.3  34026  287.30 0855.35
2009/04/23 07:50:33.5     126      5     25    127    130  87.5  11.1  34022  287.23 0855.34
2009/04/23 07:50:33.6     114     12     63    115    131  83.9  31.3  34014  287.11 0855.34
2009/04/23 07:50:33.7      66     19     97     69    119  73.2  61.1  34018  287.16 0855.34
2009/04/23 07:50:33.8      60     -3     73     61     95  93.5  56.3  34018  287.18 0855.34
2009/04/23 07:50:33.9      25      5     32     26     41  78.5  56.4  34020  287.21 0855.34
2009/04/23 07:50:34.0     -16    -27     23     32     39 210.7  39.7  34018  287.16 0855.34
2009/04/23 07:50:34.1     -28    -45     53     54     75 211.6  51.1  34000  286.88 0855.34
2009/04/23 07:50:34.2       0    -55     72     56     91 180.9  57.9  33996  286.79 0855.34
2009/04/23 07:50:34.3      -7    -54     64     55     84 188.0  54.3  33996  286.79 0855.34
2009/04/23 07:50:34.4     -15    -58     71     61     93 195.2  54.8  33994  286.78 0855.34
2009/04/23 07:50:34.5      -9    -64     63     65     90 188.1  49.4  33994  286.76 0855.34
2009/04/23 07:50:34.6      -1    -53     80     54     96 181.8  63.2  33992  286.73 0855.34
2009/04/23 07:50:34.7      10    -29     65     31     72 160.0  72.9  33990  286.71 0855.34
2009/04/23 07:50:34.8      -2    -13     41     14     43 191.6  81.0  33996  286.79 0855.34
2009/04/23 07:50:34.9      -3    -21     49     22     53 189.8  75.0  33994  286.78 0855.34
2009/04/23 07:50:35.0      44      0     63     45     77  89.2  60.6  33994  286.76 0855.34
2009/04/23 07:50:35.1      25    -33     58     42     71 143.0  60.5  33994  286.76 0855.34
2009/04/23 07:50:35.2      31    -26     62     41     74 129.5  64.6  33992  286.73 0855.34
2009/04/23 07:50:35.3      46    -46     64     66     91 135.0  50.0  33992  286.74 0855.34
2009/04/23 07:50:35.4      52    -38     72     65     97 126.0  53.3  33994  286.76 0855.34
2009/04/23 07:50:35.5      65    -56     68     86    109 130.9  43.3  33996  286.79 0855.35
2009/04/23 07:50:35.6      94    -50     51    107    118 118.4  27.2  33996  286.79 0855.35
2009/04/23 07:50:35.7      70    -37     44     80     91 118.0  31.4  33994  286.78 0855.35
2009/04/23 07:50:35.8      62    -67     65     92    112 136.8  39.1  33994  286.78 0855.35
2009/04/23 07:50:35.9      62    -51     40     81     90 129.6  27.8  33994  286.78 0855.35
2009/04/23 07:50:36.0      45    -71     44     85     95 147.5  29.3  33992  286.73 0855.35
2009/04/23 07:50:36.1      62   -108     40    125    132 150.1  17.9  33990  286.71 0855.35
2009/04/23 07:50:36.2      64    -96     20    116    118 146.2  10.1  33988  286.67 0855.35
2009/04/23 07:50:36.3      67    -93     22    115    118 144.0  11.0  33990  286.69 0855.35
2009/04/23 07:50:36.4      49   -103     36    115    121 154.5  17.4  33990  286.69 0855.35
2009/04/23 07:50:36.5      50   -105     38    117    124 154.7  17.9  33988  286.66 0855.35
2009/04/23 07:50:36.6      33   -101     33    107    113 161.5  17.3  33990  286.71 0855.35
2009/04/23 07:50:36.7      32    -97     49    103    114 161.7  27.3  33988  286.66 0855.35
2009/04/23 07:50:36.8       8   -109     62    110    126 175.6  31.9  33988  286.67 0855.35
2009/04/23 07:50:36.9       8   -109     62    110    126 175.6  31.9  33988  286.67 0855.35
2009/04/23 07:50:37.0      29   -110     70    114    133 164.8  35.5  33990  286.71 0855.35
2009/04/23 07:50:37.1      18   -130     53    132    142 171.9  23.0  33992  286.73 0855.35
2009/04/23 07:50:37.2      -2   -144     49    145    154 180.9  18.9  33984  286.59 0855.35
2009/04/23 07:50:37.3       2   -161     51    162    171 179.1  17.7  33984  286.59 0855.35
2009/04/23 07:50:37.4       0   -149     53    150    159 180.0  20.2  33982  286.56 0855.35
2009/04/23 07:50:37.5      -9   -127     44    128    136 184.5  18.9  33980  286.54 0855.34
2009/04/23 07:50:37.6      -9   -117     44    118    125 184.4  21.0  33982  286.56 0855.34
2009/04/23 07:50:37.7      -5   -121     47    122    130 182.7  22.0  33980  286.54 0855.34
2009/04/23 07:50:37.8     -15   -112     29    114    118 188.0  14.7  33978  286.51 0855.34
2009/04/23 07:50:37.9     -27   -101     24    105    108 195.1  13.2  33982  286.56 0855.34
2009/04/23 07:50:38.0      -9    -66     14     67     69 188.1  12.2  33980  286.54 0855.34
2009/04/23 07:50:38.1     -19    -57     -8     61     62 198.3  -8.2  33980  286.54 0855.34
2009/04/23 07:50:38.2     -22    -68     14     72     74 198.3  11.0  33982  286.56 0855.34
2009/04/23 07:50:38.3     -11    -61     53     63     82 190.7  44.8  33982  286.56 0855.34
2009/04/23 07:50:38.4       8    -77     77     78    109 173.8  50.5  33980  286.52 0855.34
2009/04/23 07:50:38.5     -37    -94     71    102    124 201.4  37.6  33978  286.51 0855.34
2009/04/23 07:50:38.6     -51   -114     65    125    140 204.1  29.3  33976  286.47 0855.34
2009/04/23 07:50:38.7     -73   -111     40    133    139 213.4  16.8  33974  286.44 0855.34
2009/04/23 07:50:38.8     -55   -108     17    122    124 207.1   8.0  33974  286.42 0855.34
2009/04/23 07:50:38.9     -41    -86     18     96     98 205.4  11.1  33972  286.41 0855.34
2009/04/23 07:50:39.0     -21    -67     54     71     89 197.8  41.2  33976  286.46 0855.34
2009/04/23 07:50:39.1     -17    -58     45     61     75 196.9  39.7  33974  286.44 0855.34
2009/04/23 07:50:39.2     -22    -74     66     78    102 196.9  44.8  33974  286.44 0855.34
2009/04/23 07:50:39.3      -7    -93     65     94    114 184.9  37.6  33976  286.46 0855.34
2009/04/23 07:50:39.4      -1    -96     44     97    106 180.9  26.2  33976  286.46 0855.34
2009/04/23 07:50:39.5     -37   -101      7    108    109 200.5   3.8  33976  286.47 0855.34
2009/04/23 07:50:39.6     -41   -103    -47    112    121 201.8 -28.5  33972  286.41 0855.34
2009/04/23 07:50:39.7     -76    -80    -27    111    115 223.3 -13.9  33974  286.42 0855.34
2009/04/23 07:50:39.8     -63    -73    -17     97     99 220.5 -10.3  33974  286.44 0855.34
2009/04/23 07:50:39.9     -75    -67     -3    101    102 228.2  -2.2  33976  286.46 0855.34
2009/04/23 07:50:40.0     -50    -78      7     93     94 212.6   4.4  33976  286.46 0855.34
2009/04/23 07:50:40.1     -32   -109     21    114    116 196.5  10.6  33972  286.41 0855.34
2009/04/23 07:50:40.2     -22   -112     10    115    116 191.5   5.4  33974  286.44 0855.34
2009/04/23 07:50:40.3      -7   -109     23    110    113 184.0  12.2  33974  286.44 0855.34
2009/04/23 07:50:40.4      -8   -107     37    108    115 184.5  19.2  33974  286.42 0855.34
2009/04/23 07:50:40.5     -10   -111     35    112    118 185.3  17.4  33976  286.46 0855.34
2009/04/23 07:50:40.6      -4   -107     31    108    113 182.2  16.3  33974  286.44 0855.34
2009/04/23 07:50:40.7     -10    -95     26     96    100 186.2  15.3  33974  286.42 0855.34
2009/04/23 07:50:40.8     -10    -80     21     81     84 187.1  14.7  33976  286.46 0855.34
2009/04/23 07:50:40.9     -18    -98      4    100    101 190.7   2.8  33972  286.39 0855.34
2009/04/23 07:50:41.0     -14   -108     -4    109    110 187.6  -2.2  33972  286.41 0855.34
2009/04/23 07:50:41.1       2    -93     15     94     96 178.2   9.5  33972  286.41 0855.34
2009/04/23 07:50:41.2       0   -103     20    104    107 179.5  11.1  33976  286.46 0855.34
2009/04/23 07:50:41.3      -5    -84     13     85     87 183.6   9.0  33974  286.42 0855.34
2009/04/23 07:50:41.4       2    -68     23     69     74 178.2  18.9  33974  286.42 0855.34
2009/04/23 07:50:41.5       1    -77     32     78     84 179.1  23.0  33974  286.42 0855.34
2009/04/23 07:50:41.6      -4    -70     42     71     82 183.6  33.5  33974  286.42 0855.34
2009/04/23 07:50:41.7       6    -72     47     73     86 174.7  35.6  33972  286.39 0855.34
2009/04/23 07:50:41.8      38    -69     36     79     86 151.0  25.7  33974  286.42 0855.34
2009/04/23 07:50:41.9      30    -63     44     70     82 154.5  35.5  33972  286.41 0855.34
2009/04/23 07:50:42.0      21    -63     49     67     83 161.7  40.1  33972  286.41 0855.34
2009/04/23 07:50:42.1      27    -60     48     66     81 155.5  40.1  33976  286.46 0855.34
2009/04/23 07:50:42.2      30    -75     49     81     94 158.1  35.0  33974  286.44 0855.34
2009/04/23 07:50:42.3      25    -82     30     86     92 163.1  19.2  33974  286.44 0855.34
2009/04/23 07:50:42.4      23    -67     19     71     74 160.8  15.3  33974  286.42 0855.34
2009/04/23 07:50:42.5      19    -80     25     83     87 166.6  17.3  33974  286.42 0855.34
2009/04/23 07:50:42.6      14    -79     12     81     83 169.8   9.0  33972  286.39 0855.34
2009/04/23 07:50:42.7      17    -64     38     67     77 164.8  32.4  33974  286.42 0855.34
2009/04/23 07:50:42.8      30    -71     26     78     83 157.3  18.9  33972  286.41 0855.34
2009/04/23 07:50:42.9      31    -79     44     85     95 158.6  29.3  33972  286.41 0855.34
2009/04/23 07:50:43.0      53    -89     28    104    108 149.3  15.3  33974  286.42 0855.34
2009/04/23 07:50:43.1      46    -89     31    101    106 152.4  17.3  33972  286.39 0855.34
2009/04/23 07:50:43.2      49    -76     17     91     93 147.4  11.1  33970  286.37 0855.34
2009/04/23 07:50:43.3      61    -66     17     91     93 137.2  11.1  33970  286.37 0855.34
2009/04/23 07:50:43.4      50    -84     26     98    102 149.3  15.3  33972  286.41 0855.34
2009/04/23 07:50:43.5      39    -94     52    102    114 157.3  29.3  33972  286.39 0855.34
2009/04/23 07:50:43.6      63    -95     48    115    124 146.2  23.1  33970  286.35 0855.34
2009/04/23 07:50:43.7      52   -111     12    123    124 154.6   5.9  33968  286.34 0855.34
2009/04/23 07:50:43.8      27   -134      1    137    138 168.4   0.7  33968  286.32 0855.34
2009/04/23 07:50:43.9      32   -120     14    125    126 164.8   6.5  33970  286.35 0855.34
2009/04/23 07:50:44.0      41   -121     -1    128    129 161.3  -0.7  33968  286.32 0855.34
2009/04/23 07:50:44.1      52   -126     32    137    141 157.3  13.1  33966  286.30 0855.34
2009/04/23 07:50:44.2      80   -106     16    133    134 143.0   6.9  33970  286.35 0855.34
2009/04/23 07:50:44.3      70   -104     24    126    129 145.8  11.1  33970  286.35 0855.34
2009/04/23 07:50:44.4      72   -112     35    134    139 147.4  14.7  33968  286.34 0855.34
2009/04/23 07:50:44.5      95   -130     46    162    169 143.9  16.0  33966  286.30 0855.34
2009/04/23 07:50:44.6      81   -125     46    150    158 147.0  17.3  33966  286.29 0855.34
2009/04/23 07:50:44.7      90   -146     36    172    176 148.4  12.0  33968  286.32 0855.34
2009/04/23 07:50:44.8     104   -145     35    179    183 144.4  11.1  33970  286.35 0855.34
2009/04/23 07:50:44.9     111   -142     66    181    192 142.2  20.4  33970  286.35 0855.34
2009/04/23 07:50:45.0     113   -137     74    178    192 140.4  23.6  33968  286.34 0855.34
2009/04/23 07:50:45.1     109   -128     80    169    186 139.7  27.1  33968  286.34 0855.34
2009/04/23 07:50:45.2     143   -100     98    175    200 125.1  31.6  33972  286.41 0855.34
2009/04/23 07:50:45.3     128   -124     50    179    187 134.0  15.8  33968  286.34 0855.34
2009/04/23 07:50:45.4     136   -105     61    173    184 127.8  19.4  33970  286.35 0855.34
2009/04/23 07:50:45.5     108   -122     34    164    168 138.5  12.0  33968  286.34 0855.33
2009/04/23 07:50:45.6      97   -116     -5    152    153 139.9  -2.2  33970  286.37 0855.33
2009/04/23 07:50:45.7     110   -110      8    156    157 134.9   3.1  33970  286.35 0855.33
2009/04/23 07:50:45.8     117    -88     12    147    148 126.9   4.9  33968  286.34 0855.33
2009/04/23 07:50:45.9      85    -68     -7    110    111 128.6  -4.1  33968  286.34 0855.33
2009/04/23 07:50:46.0      81    -67     -5    106    107 129.6  -3.1  33970  286.37 0855.33
2009/04/23 07:50:46.1      75    -75      3    107    108 134.9   1.8  33970  286.37 0855.33
2009/04/23 07:50:46.2      82    -77     -4    113    114 133.1  -2.2  33970  286.37 0855.33
2009/04/23 07:50:46.3      73    -88    -19    115    117 140.4  -9.4  33966  286.30 0855.33
2009/04/23 07:50:46.4      82    -83     -8    118    119 135.3  -4.1  33966  286.30 0855.33
2009/04/23 07:50:46.5      87    -78     -6    118    119 131.8  -3.1  33968  286.32 0855.33
2009/04/23 07:50:46.6      84    -70    -10    110    111 130.0  -5.6  33968  286.32 0855.33
2009/04/23 07:50:46.7      76    -73    -12    106    107 134.0  -6.7  33968  286.34 0855.33
2009/04/23 07:50:46.8      74    -83     -4    112    113 138.1  -2.2  33968  286.34 0855.33
2009/04/23 07:50:46.9      67    -72      0     99    100 136.8   0.2  33966  286.29 0855.33
2009/04/23 07:50:47.0      54    -66     -3     86     87 140.4  -2.2  33970  286.35 0855.33
2009/04/23 07:50:47.1      40    -54     -2     68     69 143.0  -2.2  33970  286.35 0855.33
2009/04/23 07:50:47.2      41    -62      3     75     76 146.6   2.9  33968  286.32 0855.33
2009/04/23 07:50:47.3      45    -70     -4     84     85 147.5  -3.1  33968  286.32 0855.33
2009/04/23 07:50:47.4      39    -61     -9     73     74 147.4  -7.2  33968  286.32 0855.33
2009/04/23 07:50:47.5      43    -65     14     79     81 146.6  10.6  33968  286.34 0855.34
2009/04/23 07:50:47.6      45    -39      8     60     61 131.3   8.0  33968  286.32 0855.34
2009/04/23 07:50:47.7      45    -42     37     62     72 133.1  34.4  33966  286.30 0855.34
2009/04/23 07:50:47.8      53    -44     36     69     77 129.6  29.3  33968  286.32 0855.34
2009/04/23 07:50:47.9      73    -42     10     85     86 119.8   6.9  33970  286.35 0855.34
2009/04/23 07:50:48.0      66    -28     14     72     74 113.5  11.1  33966  286.29 0855.34
2009/04/23 07:50:48.1      51    -32     -1     61     62 122.4  -1.3  33966  286.30 0855.34
2009/04/23 07:50:48.2      16    -37      8     41     42 156.4  11.1  33966  286.30 0855.34
2009/04/23 07:50:48.3      31    -35     41     48     63 138.6  44.8  33966  286.30 0855.34
2009/04/23 07:50:48.4      26    -23     60     35     69 131.3  66.8  33968  286.32 0855.34
2009/04/23 07:50:48.5      48    -41     54     64     83 130.4  45.4  33966  286.29 0855.34
2009/04/23 07:50:48.6      72    -36     50     81     95 117.1  35.5  33968  286.32 0855.34
2009/04/23 07:50:48.7      60    -23     44     65     78 110.8  36.5  33968  286.34 0855.34
2009/04/23 07:50:48.8      42    -14     34     45     56 108.6  40.7  33968  286.34 0855.34
2009/04/23 07:50:48.9      39    -17     20     43     47 113.5  26.2  33968  286.34 0855.34
2009/04/23 07:50:49.0      27    -17     26     33     42 122.4  42.7  33968  286.34 0855.34
2009/04/23 07:50:49.1      23    -15     15     28     31 122.4  29.3  33968  286.32 0855.34
2009/04/23 07:50:49.2      36    -12      2     39     40 108.6   3.8  33966  286.30 0855.34
2009/04/23 07:50:49.3      41    -14      5     44     45 108.6   6.9  33966  286.30 0855.34
2009/04/23 07:50:49.4      58      0     24     59     63  90.0  23.0  33966  286.30 0855.34
2009/04/23 07:50:49.5      55    -24     33     61     69 113.5  31.3  33968  286.32 0855.34
2009/04/23 07:50:49.6      71    -22     49     75     89 107.7  36.0  33968  286.32 0855.34
2009/04/23 07:50:49.7      41    -15     47     44     64 110.0  52.1  33968  286.32 0855.34
2009/04/23 07:50:49.8      28    -47     51     55     75 149.3  47.9  33968  286.34 0855.34
2009/04/23 07:50:49.9      13    -49     49     51     70 164.9  49.0  33966  286.29 0855.34
2009/04/23 07:50:50.0       7    -54     55     55     77 172.0  50.1  33968  286.32 0855.34
2009/04/23 07:50:50.1      30    -45     37     55     66 145.7  36.5  33966  286.30 0855.34
2009/04/23 07:50:50.2      41    -15     25     44     50 110.0  32.4  33966  286.29 0855.34
2009/04/23 07:50:50.3      60      0     21     61     65  90.0  18.9  33968  286.34 0855.34
2009/04/23 07:50:50.5      61     20     14     65     67  71.8  12.2  33968  286.32 0855.34
2009/04/23 07:50:50.6      44      4     -2     45     46  83.9  -3.1  33966  286.30 0855.33
2009/04/23 07:50:50.6      73      0    -10     74     75  90.0  -8.2  33970  286.35 0855.33
2009/04/23 07:50:50.8      54      6     -9     55     56  83.0  -9.3  33968  286.32 0855.33
2009/04/23 07:50:50.9      56     15     -3     59     60  74.9  -3.2  33968  286.32 0855.33
2009/04/23 07:50:51.0      52     13     -3     54     55  75.8  -3.1  33968  286.34 0855.33
2009/04/23 07:50:51.1      34      6      0     35     36  78.5  -1.3  33968  286.32 0855.33
2009/04/23 07:50:51.2      32     17     -1     37     38  61.1  -2.2  33966  286.29 0855.33
2009/04/23 07:50:51.3      39     31      4     51     52  51.4   4.9  33968  286.32 0855.33
2009/04/23 07:50:51.4      41     46     -8     62     63  41.4  -7.3  33968  286.32 0855.33
2009/04/23 07:50:51.5      48     51      6     71     72  43.2   4.9  33968  286.34 0855.33
2009/04/23 07:50:51.6      41     45      3     62     63  42.3   2.9  33968  286.34 0855.33
2009/04/23 07:50:51.7      34     52    -12     63     65  33.4 -11.5  33968  286.32 0855.33
2009/04/23 07:50:51.8      27     53     -8     60     61  27.2  -8.2  33968  286.32 0855.33
2009/04/23 07:50:51.9      46     48     15     67     69  44.2  13.2  33968  286.34 0855.33
2009/04/23 07:50:52.0      43     39     24     59     63  47.8  23.0  33968  286.32 0855.33
2009/04/23 07:50:52.1      38     21     31     44     53  61.1  38.6  33968  286.34 0855.33
2009/04/23 07:50:52.2      34      0     49     35     60  90.0  60.5  33970  286.35 0855.33
2009/04/23 07:50:52.3      15      1     43     16     45  85.6  80.2  33970  286.37 0855.33
2009/04/23 07:50:52.4       0      7     39      8     39 357.3  90.0  33972  286.41 0855.33
2009/04/23 07:50:52.5       8     15     35     18     39  29.0  72.8  33970  286.35 0855.33
2009/04/23 07:50:52.6      12     31     27     34     43  21.8  42.7  33972  286.41 0855.33
2009/04/23 07:50:52.7       5     10     33     12     35  29.0  81.2  33972  286.39 0855.33
2009/04/23 07:50:52.8      -9     -5     29     11     31 241.1  79.2  33972  286.39 0855.33
2009/04/23 07:50:52.9     -22      0     31     23     38 270.0  58.5  33972  286.41 0855.33
2009/04/23 07:50:53.0     -12     -8     32     15     35 237.6  72.9  33974  286.42 0855.33
2009/04/23 07:50:53.1      -7     10     26     13     29 323.9  72.9  33972  286.39 0855.33
2009/04/23 07:50:53.2       2     33     37     34     50   4.5  53.3  33968  286.34 0855.33
2009/04/23 07:50:53.3      15     45     33     48     58  18.7  36.5  33966  286.30 0855.33
2009/04/23 07:50:53.4       0     23     19     24     30 359.1  43.7  33968  286.32 0855.33
2009/04/23 07:50:53.5     -26      7     26     27     37 285.1  52.0  33972  286.39 0855.33
2009/04/23 07:50:53.6      17     17     41     25     48  45.0  64.7  33970  286.35 0855.33
2009/04/23 07:50:53.7      50    -16     42     53     67 107.7  42.7  33968  286.32 0855.33
2009/04/23 07:50:53.8      65    -22     28     69     74 109.1  23.0  33968  286.32 0855.33
2009/04/23 07:50:53.9      85    -10     18     86     88  97.0  12.2  33966  286.30 0855.33
2009/04/23 07:50:54.0      72    -19     26     75     80 105.0  19.2  33966  286.29 0855.33
2009/04/23 07:50:54.1      59    -28     62     66     90 115.3  48.5  33966  286.30 0855.33
2009/04/23 07:50:54.2      68    -27     63     74     97 111.7  44.8  33968  286.32 0855.33
2009/04/23 07:50:54.3      57    -15     50     60     78 105.1  44.8  33968  286.32 0855.33
2009/04/23 07:50:54.4      15    -31     45     35     57 154.6  57.5  33968  286.34 0855.33
2009/04/23 07:50:54.5      50    -47     68     69     96 133.1  50.5  33968  286.32 0855.33
2009/04/23 07:50:54.6      65    -95     80    116    140 145.7  38.0  33966  286.29 0855.33
2009/04/23 07:50:54.7     102    -33     65    108    126 108.2  34.0  33964  286.27 0855.33
2009/04/23 07:50:54.8     103    -14     63    105    122  98.0  33.5  33964  286.25 0855.33
2009/04/23 07:50:54.9     115      0     50    116    126  90.0  25.1  33968  286.32 0855.33
2009/04/23 07:50:55.0     124      5     40    125    132  87.5  17.9  33966  286.29 0855.33
2009/04/23 07:50:55.1     133     -2     36    134    139  91.3  15.2  33968  286.32 0855.33
2009/04/23 07:50:55.2     127      9     45    128    136  85.6  19.4  33966  286.29 0855.33
2009/04/23 07:50:55.3     115      8     50    116    126  85.7  25.1  33964  286.27 0855.33
2009/04/23 07:50:55.4      97     25     40    101    108  75.4  23.0  33968  286.34 0855.33
2009/04/23 07:50:55.5     117     14     33    118    123  83.0  15.8  33968  286.34 0855.33
2009/04/23 07:50:55.6     122     23     24    125    128  79.0  11.1  33970  286.35 0855.33
2009/04/23 07:50:55.7     110     19     20    112    114  79.9  10.1  33966  286.30 0855.33
2009/04/23 07:50:55.8     108     15     23    110    113  82.0  12.2  33970  286.35 0855.33
2009/04/23 07:50:55.9     100     13     14    101    103  82.1   8.0  33970  286.35 0855.33
2009/04/23 07:50:56.0      83      6     28     84     89  85.6  18.9  33970  286.35 0855.33
2009/04/23 07:50:56.1     101     -7     37    102    108  94.4  20.4  33966  286.30 0855.33
2009/04/23 07:50:56.2     130    -37     31    136    140 105.9  13.1  33968  286.34 0855.33
2009/04/23 07:50:56.3     118    -35     22    124    126 106.4  10.1  33968  286.32 0855.33
2009/04/23 07:50:56.4     118    -23     11    121    122 101.0   5.4  33968  286.32 0855.33
2009/04/23 07:50:56.5     144    -35      7    149    150 103.7   2.9  33966  286.30 0855.33
2009/04/23 07:50:56.6     130    -36     -5    135    136 105.5  -2.2  33968  286.32 0855.33
2009/04/23 07:50:56.7     111    -67    -16    130    132 121.1  -7.3  33968  286.32 0855.33
2009/04/23 07:50:56.8      86    -69     18    111    113 128.6   9.5  33964  286.25 0855.33
2009/04/23 07:50:56.9      73    -76     53    106    118 136.3  28.2  33966  286.29 0855.33
2009/04/23 07:50:57.0      69    -71     34    100    106 135.9  18.9  33964  286.25 0855.33
2009/04/23 07:50:57.1      76    -58     37     96    102 127.3  22.0  33968  286.32 0855.33
2009/04/23 07:50:57.2      60    -45     33     76     82 126.9  24.6  33966  286.29 0855.33
2009/04/23 07:50:57.3      50    -53     28     74     79 136.8  21.5  33964  286.27 0855.33
2009/04/23 07:50:57.4      34    -58     26     68     72 149.3  22.0  33966  286.29 0855.33
2009/04/23 07:50:57.5      20    -74     27     77     82 164.8  19.4  33966  286.29 0855.33
2009/04/23 07:50:57.6      10    -80     30     81     86 172.9  20.4  33966  286.29 0855.33
2009/04/23 07:50:57.7      -1    -87     16     88     90 180.9  10.6  33966  286.29 0855.33
2009/04/23 07:50:57.8      -1    -95     16     96     98 180.9   9.5  33966  286.30 0855.33
2009/04/23 07:50:57.9       1    -99     16    100    102 179.1   9.5  33968  286.32 0855.33
2009/04/23 07:50:58.0      12    -93     18     94     96 172.4  11.1  33968  286.32 0855.33
2009/04/23 07:50:58.1      28    -71     21     77     80 158.2  15.3  33968  286.32 0855.33
2009/04/23 07:50:58.2      54    -65      1     85     86 140.4   1.2  33966  286.29 0855.33
2009/04/23 07:50:58.3      72    -77     28    106    110 136.7  15.2  33964  286.25 0855.33
2009/04/23 07:50:58.4      92    -69     52    116    127 126.9  25.7  33966  286.30 0855.33
2009/04/23 07:50:58.5      89    -83     66    122    138 133.1  31.3  33966  286.30 0855.33
2009/04/23 07:50:58.6      75    -69     53    103    115 132.7  29.3  33966  286.29 0855.32
2009/04/23 07:50:58.7      84    -39     32     93     99 115.3  19.2  33968  286.32 0855.32
2009/04/23 07:50:58.8     111    -12      5    112    113  96.6   2.8  33966  286.29 0855.32
2009/04/23 07:50:58.9     132    -48     22    141    143 110.0   8.9  33966  286.29 0855.32
2009/04/23 07:50:59.0      91    -50     64    104    122 118.9  34.4  33968  286.34 0855.32
2009/04/23 07:50:59.1      88    -15     49     90    102  99.7  31.3  33968  286.32 0855.32
2009/04/23 07:50:59.2      73    -12     41     75     85  99.7  31.4  33968  286.32 0855.32
2009/04/23 07:50:59.3       9    -41     54     42     68 167.5  56.4  33966  286.30 0855.32
2009/04/23 07:50:59.4      -2    -59     67     60     89 182.7  53.7  33966  286.30 0855.32
2009/04/23 07:50:59.5      11    -60     85     62    105 169.3  60.5  33968  286.32 0855.32
2009/04/23 07:50:59.6     -27    -82    100     87    132 198.7  54.3  33968  286.34 0855.32
2009/04/23 07:50:59.7     -46    -95     82    106    134 206.3  41.7  33964  286.27 0855.32
2009/04/23 07:50:59.8     -30    -75     71     81    107 201.8  45.8  33966  286.30 0855.32
2009/04/23 07:50:59.9      -5    -66     66     67     94 184.5  50.5  33966  286.30 0855.32
2009/04/23 07:51:00.0       8    -47     61     48     77 170.2  56.4  33968  286.32 0855.32
2009/04/23 07:51:00.1     -10    -76     79     77    110 188.1  50.7  33970  286.35 0855.32
2009/04/23 07:51:00.2      -7    -98     64     99    117 184.5  35.6  33966  286.30 0855.32
2009/04/23 07:51:00.3      -7   -113     53    114    125 184.0  26.6  33966  286.29 0855.32
2009/04/23 07:51:00.4     -10   -113     62    114    129 185.3  31.3  33966  286.30 0855.32
2009/04/23 07:51:00.5      -1    -81     31     82     87 181.4  21.0  33966  286.30 0855.32
2009/04/23 07:51:00.6      17    -77     24     79     83 167.5  17.3  33964  286.27 0855.32
2009/04/23 07:51:00.7      13   -103     35    104    110 172.4  18.9  33964  286.27 0855.32
2009/04/23 07:51:00.8      41   -103     35    112    118 158.1  17.3  33964  286.27 0855.32
2009/04/23 07:51:00.9      68   -117     51    136    145 149.7  21.0  33968  286.32 0855.32
2009/04/23 07:51:01.0      84   -108     56    138    148 142.2  23.1  33970  286.37 0855.32
2009/04/23 07:51:01.1      84   -133     79    158    176 147.9  28.2  33972  286.41 0855.32
2009/04/23 07:51:01.2      64   -136     75    151    168 154.7  28.2  33972  286.41 0855.32
2009/04/23 07:51:01.3      54   -150     94    160    185 159.9  33.5  33974  286.42 0855.32
2009/04/23 07:51:01.4      35   -162    103    166    195 167.5  35.2  33970  286.37 0855.32
2009/04/23 07:51:01.5      10   -137     91    138    165 175.6  36.3  33970  286.37 0855.32
2009/04/23 07:51:01.6       9   -122    105    123    161 175.5  45.1  33972  286.39 0855.32
2009/04/23 07:51:01.7      -6   -121    114    122    166 183.1  47.9  33970  286.37 0855.32
2009/04/23 07:51:01.8      10   -126     93    127    157 175.1  39.9  33972  286.39 0855.32
2009/04/23 07:51:01.9      42   -142     79    149    168 163.5  30.3  33972  286.39 0855.32
2009/04/23 07:51:02.0      47   -154    114    162    198 163.1  38.6  33966  286.29 0855.32
2009/04/23 07:51:02.1      26   -131    122    134    181 168.4  47.5  33968  286.34 0855.32
2009/04/23 07:51:02.2      94    -95     82    134    157 135.5  34.4  33964  286.27 0855.32
2009/04/23 07:51:02.3      78    -96     82    124    148 140.8  36.5  33966  286.30 0855.32
2009/04/23 07:51:02.4      58   -105     76    121    142 151.0  35.5  33966  286.29 0855.32
2009/04/23 07:51:02.5      58   -107     62    122    136 151.5  29.2  33966  286.30 0855.32
2009/04/23 07:51:02.6      84   -122     32    149    153 145.3  12.2  33968  286.32 0855.32
2009/04/23 07:51:02.7      91   -162     35    186    190 150.6  10.8  33966  286.30 0855.32
2009/04/23 07:51:02.8      71   -179     64    193    204 158.2  18.4  33968  286.34 0855.32
2009/04/23 07:51:02.9      42   -177     28    182    185 166.6   9.0  33968  286.32 0855.32
2009/04/23 07:51:03.0      48   -177     43    184    190 164.6  13.2  33968  286.34 0855.32
2009/04/23 07:51:03.1      51   -174     -5    182    183 163.7  -1.6  33968  286.32 0855.32
2009/04/23 07:51:03.2       5   -163     -3    164    165 178.0  -1.1  33968  286.34 0855.32
2009/04/23 07:51:03.3      11   -149      7    150    151 175.5   2.9  33970  286.35 0855.32
2009/04/23 07:51:03.4      40   -122     24    129    132 161.5  10.6  33968  286.34 0855.32
2009/04/23 07:51:03.5      29   -117      4    121    122 165.7   2.3  33968  286.34 0855.32
2009/04/23 07:51:03.6       0    -99      4    100    101 180.0   2.3  33968  286.32 0855.32
2009/04/23 07:51:03.7      18    -97    -20     99    102 169.3 -11.5  33966  286.30 0855.32
2009/04/23 07:51:03.8      15    -74    -22     76     80 168.4 -16.6  33966  286.30 0855.32
2009/04/23 07:51:03.9      17    -62    -23     65     70 164.8 -19.7  33968  286.32 0855.32
2009/04/23 07:51:04.0      37    -58    -25     70     75 147.4 -19.7  33968  286.32 0855.32
2009/04/23 07:51:04.1      41    -74    -27     85     89 150.6 -23.3  33968  286.34 0855.32
2009/04/23 07:51:04.2       8    -69    -24     70     74 172.9 -23.3  33968  286.32 0855.32
2009/04/23 07:51:04.3      18    -63    -22     66     69 164.0 -23.6  33970  286.35 0855.32
2009/04/23 07:51:04.4      36    -79    -44     87     97 155.5 -32.6  33970  286.35 0855.32
2009/04/23 07:51:04.5      68    -67    -56     96    111 134.6 -37.3  33966  286.30 0855.32
2009/04/23 07:51:04.6      54    -78    -53     96    109 145.3 -35.8  33968  286.34 0855.32
2009/04/23 07:51:04.7      62    -94    -35    113    119 146.6 -17.6  33968  286.32 0855.32
2009/04/23 07:51:04.8      68    -83    -36    108    113 140.4 -23.6  33966  286.30 0855.32
2009/04/23 07:51:04.9      76    -75    -30    108    113 134.6 -15.5  33968  286.32 0855.32
2009/04/23 07:51:05.0      82    -89     -7    122    123 137.2  -3.7  33968  286.32 0855.32
2009/04/23 07:51:05.1      66   -104      6    124    125 147.5   2.8  33972  286.39 0855.32
2009/04/23 07:51:05.2      64   -102      3    121    122 147.5   1.8  33972  286.41 0855.32
2009/04/23 07:51:05.3      41   -102     13    110    111 158.1   6.9  33970  286.37 0855.32
2009/04/23 07:51:05.4      45   -102     13    112    113 155.9   6.9  33972  286.39 0855.32
2009/04/23 07:51:05.5      66   -103     19    123    125 147.5   9.0  33972  286.41 0855.32
2009/04/23 07:51:05.6      83   -132      5    157    158 147.9   2.1  33974  286.42 0855.32
2009/04/23 07:51:05.7      71   -139      9    157    158 152.9   3.3  33972  286.39 0855.32
2009/04/23 07:51:05.8      56   -139     12    150    151 158.1   4.9  33970  286.37 0855.32
2009/04/23 07:51:05.9      49   -158      2    166    167 162.8   0.8  33972  286.39 0855.32
2009/04/23 07:51:06.0      45   -149    -16    156    157 163.1  -6.2  33970  286.37 0855.32
2009/04/23 07:51:06.1      68   -151    -13    166    167 155.5  -4.6  33974  286.44 0855.32
2009/04/23 07:51:06.2      61   -145      6    158    159 157.3   2.5  33976  286.46 0855.32
2009/04/23 07:51:06.3      89   -166      4    189    190 151.9   1.2  33974  286.44 0855.32
2009/04/23 07:51:06.4     100   -169    -42    197    202 149.5 -12.2  33970  286.37 0855.32
2009/04/23 07:51:06.5      80   -152    -57    172    182 152.1 -18.3  33974  286.42 0855.32
2009/04/23 07:51:06.6      73   -146    -49    164    171 153.3 -21.5  33974  286.44 0855.32
2009/04/23 07:51:06.7      80   -140    -39    162    167 150.4 -13.7  33980  286.52 0855.32
2009/04/23 07:51:06.8      85   -145    -37    169    174 149.7 -12.6  33984  286.59 0855.32
2009/04/23 07:51:06.9      74   -155    -40    172    177 154.4 -13.2  33982  286.56 0855.32
2009/04/23 07:51:07.0      81   -149    -20    170    172 151.3  -6.9  33982  286.56 0855.32
2009/04/23 07:51:07.1     117   -155    -15    195    196 143.0  -4.6  33982  286.56 0855.32
2009/04/23 07:51:07.2     100   -141     -7    174    175 144.6  -2.6  33984  286.59 0855.32
2009/04/23 07:51:07.3      91   -145    -15    172    173 147.7  -5.2  33982  286.56 0855.32
2009/04/23 07:51:07.4     101   -134    -29    168    171 143.0  -9.8  33982  286.56 0855.32
2009/04/23 07:51:07.5      95   -122     -7    155    156 142.2  -2.6  33980  286.54 0855.32
2009/04/23 07:51:07.6      87   -120     -3    149    150 143.9  -1.3  33978  286.51 0855.32
2009/04/23 07:51:07.7      76    -98    -12    125    126 142.2  -5.6  33980  286.54 0855.32
2009/04/23 07:51:07.8      75    -91      9    119    120 140.4   4.4  33978  286.51 0855.32
2009/04/23 07:51:07.9      72    -86      5    113    114 140.3   2.9  33976  286.47 0855.32
2009/04/23 07:51:08.0      68    -77     18    103    105 138.6  10.1  33976  286.47 0855.32
2009/04/23 07:51:08.1      43    -86      8     97     98 153.3   4.9  33978  286.49 0855.32
2009/04/23 07:51:08.2      34    -85     18     92     94 158.2  11.1  33980  286.54 0855.32
2009/04/23 07:51:08.3      19    -87     36     90     96 167.5  22.5  33978  286.49 0855.32
2009/04/23 07:51:08.4      56    -87     35    104    110 147.4  18.9  33976  286.47 0855.32
2009/04/23 07:51:08.5      75    -91     45    119    127 140.4  21.5  33980  286.52 0855.32
2009/04/23 07:51:08.6      67    -95     34    117    122 144.8  16.3  33976  286.47 0855.32
2009/04/23 07:51:08.7      56    -78     26     97    101 144.4  15.3  33978  286.51 0855.32
2009/04/23 07:51:08.8      66    -73     13     99    100 137.7   8.0  33976  286.47 0855.32
2009/04/23 07:51:08.9      42    -91      5    101    102 155.1   2.9  33976  286.46 0855.32
2009/04/23 07:51:09.0      41    -74     32     85     90 151.0  21.5  33974  286.42 0855.32
2009/04/23 07:51:09.1      24    -73     42     77     87 161.5  30.8  33972  286.41 0855.32
2009/04/23 07:51:09.2      24    -72     43     77     88 161.3  31.4  33974  286.44 0855.32
2009/04/23 07:51:09.3      18    -71     44     74     86 165.7  34.0  33972  286.41 0855.32
2009/04/23 07:51:09.4      44    -69     28     83     88 147.4  18.9  33970  286.37 0855.32
2009/04/23 07:51:09.5      41    -76     25     87     91 151.9  16.3  33970  286.37 0855.32
2009/04/23 07:51:09.6      26    -78     33     83     89 161.3  22.5  33970  286.37 0855.32
2009/04/23 07:51:09.7      46    -92     45    104    113 153.3  24.6  33970  286.37 0855.32
2009/04/23 07:51:09.8      69    -87     66    112    130 141.7  33.5  33970  286.35 0855.32
2009/04/23 07:51:09.9      74    -91     61    118    132 140.8  29.3  33972  286.39 0855.32
2009/04/23 07:51:10.0      76    -92     32    120    125 140.4  15.3  33970  286.37 0855.32
2009/04/23 07:51:10.1      88    -81     31    120    125 132.7  14.7  33972  286.39 0855.32
2009/04/23 07:51:10.2      69    -71     27    100    104 135.9  15.2  33970  286.35 0855.32
2009/04/23 07:51:10.3      52    -82     19     98    100 147.5  11.1  33972  286.39 0855.32
2009/04/23 07:51:10.4      33    -90    -29     97    102 159.5 -16.6  33974  286.42 0855.32
2009/04/23 07:51:10.5      54    -90    -12    106    107 148.8  -6.7  33972  286.41 0855.32
2009/04/23 07:51:10.6      55    -77    -12     95     96 144.4  -7.3  33974  286.42 0855.32
2009/04/23 07:51:10.7      57    -60    -27     83     88 136.3 -18.1  33972  286.41 0855.32
2009/04/23 07:51:10.8      82    -82     -4    117    118 135.0  -2.2  33972  286.39 0855.32
2009/04/23 07:51:10.9      85    -68      5    110    111 128.6   2.8  33970  286.35 0855.32
2009/04/23 07:51:11.0      71    -69    -12    100    101 134.4  -7.3  33972  286.41 0855.32
2009/04/23 07:51:11.1      71    -69    -12    100    101 134.4  -7.3  33972  286.41 0855.32
2009/04/23 07:51:11.2      75    -63      5     99    100 130.0   2.9  33974  286.42 0855.32
2009/04/23 07:51:11.3      78    -64     21    102    105 129.5  11.6  33972  286.41 0855.32
2009/04/23 07:51:11.4      80    -57     28     99    103 125.5  15.8  33974  286.42 0855.32
2009/04/23 07:51:11.5      87    -50     18    101    103 120.2  10.1  33974  286.42 0855.32
2009/04/23 07:51:11.6      91    -35      2     98     99 111.3   1.2  33970  286.37 0855.32
2009/04/23 07:51:11.7      84    -36      0     92     93 113.1   0.2  33972  286.41 0855.32
2009/04/23 07:51:11.8      69    -26      6     74     75 110.8   4.9  33972  286.39 0855.32
2009/04/23 07:51:11.9      75    -32      7     82     83 113.5   5.4  33974  286.42 0855.32
2009/04/23 07:51:12.0      93    -30     11     98     99 108.2   6.9  33974  286.42 0855.32
2009/04/23 07:51:12.1      95    -27     18     99    101 105.9  10.6  33972  286.41 0855.32
2009/04/23 07:51:12.2      91    -13     26     92     96  98.4  15.8  33974  286.42 0855.32
2009/04/23 07:51:12.3      77    -23     42     81     91 106.8  29.3  33974  286.42 0855.32
2009/04/23 07:51:12.4      86    -30     50     92    104 109.1  31.4  33976  286.47 0855.32
2009/04/23 07:51:12.5     109    -32     59    114    128 106.4  29.2  33974  286.42 0855.32
2009/04/23 07:51:12.6     116    -40     50    123    132 109.1  23.0  33974  286.42 0855.32
2009/04/23 07:51:12.7     103    -27     39    107    113 105.0  20.0  33976  286.46 0855.32
2009/04/23 07:51:12.8      95    -23     46     98    108 103.7  27.1  33974  286.44 0855.32
2009/04/23 07:51:12.9     105    -16     41    107    114  98.8  21.5  33978  286.49 0855.32
2009/04/23 07:51:13.0     113    -72     57    135    146 122.5  24.1  33976  286.46 0855.32
2009/04/23 07:51:13.1     102    -99     53    143    152 134.0  21.0  33976  286.46 0855.32
2009/04/23 07:51:13.2     133   -125     47    183    190 133.3  14.5  33978  286.49 0855.32
2009/04/23 07:51:13.3     108   -113     42    157    163 136.3  15.0  33978  286.49 0855.32
2009/04/23 07:51:13.4      95    -89     71    131    149 133.2  31.3  33978  286.49 0855.32
2009/04/23 07:51:13.5     149    -81     89    170    191 118.8  29.8  33976  286.46 0855.32
2009/04/23 07:51:13.6     129   -122    103    178    205 133.3  32.9  33976  286.47 0855.32
2009/04/23 07:51:13.7     119   -127     82    175    193 137.0  27.1  33974  286.44 0855.32
2009/04/23 07:51:13.8     109   -142     64    180    192 142.4  19.6  33972  286.41 0855.32
2009/04/23 07:51:13.9      82   -129     10    153    154 147.5   3.8  33976  286.46 0855.32
2009/04/23 07:51:14.0      77   -127     -3    149    150 148.8  -1.3  33978  286.49 0855.32
2009/04/23 07:51:14.1      87   -110     -7    141    142 141.7  -3.1  33978  286.49 0855.32
2009/04/23 07:51:14.2      92    -90      5    129    130 134.4   2.3  33974  286.42 0855.32
2009/04/23 07:51:14.3      82    -83      3    118    119 135.3   1.8  33974  286.42 0855.32
2009/04/23 07:51:14.4      96    -66     -4    117    118 124.6  -2.2  33974  286.44 0855.32
2009/04/23 07:51:14.5      88    -58     -4    106    107 123.7  -2.2  33972  286.39 0855.32
2009/04/23 07:51:14.6      76    -60      2     98     99 128.2   1.2  33970  286.37 0855.32
2009/04/23 07:51:14.7      51    -69     -2     87     88 143.5  -1.8  33974  286.42 0855.32
2009/04/23 07:51:14.8      31    -78      1     85     86 158.2   0.8  33972  286.41 0855.32
2009/04/23 07:51:14.9      38    -91      6     99    100 157.3   3.8  33972  286.39 0855.32
2009/04/23 07:51:15.0      33    -97    -11    103    104 161.3  -6.2  33970  286.37 0855.32
2009/04/23 07:51:15.1      33   -100    -22    106    109 161.3 -11.9  33972  286.41 0855.32
2009/04/23 07:51:15.2      20    -97     -9    100    101 168.4  -5.6  33970  286.37 0855.32
2009/04/23 07:51:15.3      11    -89     -4     90     91 172.4  -2.6  33970  286.37 0855.32
2009/04/23 07:51:15.5      18    -81    -10     84     85 167.1  -7.3  33972  286.39 0855.32
2009/04/23 07:51:15.5      50    -60      6     79     80 140.4   4.4  33972  286.39 0855.32
2009/04/23 07:51:15.6      50    -53     -9     73     74 136.7  -7.3  33974  286.42 0855.32
2009/04/23 07:51:15.7      76    -40    -28     87     92 118.0 -18.1  33972  286.41 0855.32
2009/04/23 07:51:15.8      86    -41    -18     96     98 115.4 -10.9  33972  286.41 0855.32
2009/04/23 07:51:15.9      93    -45    -18    104    106 115.8  -9.8  33976  286.46 0855.32
2009/04/23 07:51:16.0      91    -48     -5    104    105 118.0  -3.1  33978  286.49 0855.32
2009/04/23 07:51:16.1      69    -68     10     97     98 134.6   5.9  33974  286.44 0855.32
2009/04/23 07:51:16.2      57    -77     20     96     99 143.5  12.2  33974  286.44 0855.32
2009/04/23 07:51:16.3      22    -71     42     75     85 162.2  31.9  33974  286.44 0855.32
2009/04/23 07:51:16.4      31    -84     66     90    111 159.5  39.7  33974  286.44 0855.32
2009/04/23 07:51:16.6      38   -110     68    117    135 160.8  33.4  33972  286.39 0855.32
2009/04/23 07:51:16.7      20   -106     99    108    146 169.3  47.9  33970  286.37 0855.32
2009/04/23 07:51:16.8      41   -125     95    132    162 161.7  39.1  33974  286.42 0855.32
2009/04/23 07:51:16.8      37   -138    104    143    176 164.9  39.7  33974  286.44 0855.32
2009/04/23 07:51:16.9      59   -150    131    162    208 158.6  43.3  33974  286.42 0855.32
2009/04/23 07:51:17.1      48   -126    132    135    188 159.1  49.4  33974  286.44 0855.32
2009/04/23 07:51:17.2     105   -119    110    159    193 138.6  37.8  33974  286.42 0855.32
2009/04/23 07:51:17.3      73   -132     87    151    174 151.0  32.9  33974  286.42 0855.32
2009/04/23 07:51:17.4      36   -115    109    121    162 162.6  46.9  33976  286.46 0855.32
2009/04/23 07:51:17.5      38   -125     98    131    163 163.1  40.4  33974  286.44 0855.32
2009/04/23 07:51:17.6      46   -103     90    113    144 155.9  42.7  33978  286.49 0855.32
2009/04/23 07:51:17.7      29   -107     55    111    123 164.8  28.7  33972  286.41 0855.32
2009/04/23 07:51:17.8      32    -83     53     90    104 158.6  33.5  33976  286.46 0855.32
2009/04/23 07:51:17.9      16    -93     43     95    104 169.8  26.2  33974  286.44 0855.32
2009/04/23 07:51:18.0      23    -86     31     90     96 164.9  19.4  33974  286.44 0855.32
2009/04/23 07:51:18.1      27    -82      5     87     88 161.5   3.8  33974  286.44 0855.32
2009/04/23 07:51:18.2      20    -75     10     78     79 164.9   7.5  33974  286.44 0855.32
2009/04/23 07:51:18.3      13    -54     20     56     59 165.7  20.0  33974  286.42 0855.32
2009/04/23 07:51:18.4       3    -62      8     63     64 176.4   8.0  33978  286.49 0855.32
2009/04/23 07:51:18.5     -10    -53     10     54     56 190.7  11.1  33978  286.49 0855.32
2009/04/23 07:51:18.6      -7    -48     17     49     52 188.9  19.2  33974  286.44 0855.32
2009/04/23 07:51:18.7       0    -24      8     25     27 179.1  19.4  33976  286.46 0855.32
2009/04/23 07:51:18.8       4    -39     11     40     42 173.8  16.3  33974  286.44 0855.32
2009/04/23 07:51:18.9      13    -42     17     45     48 162.2  20.0  33974  286.44 0855.32
2009/04/23 07:51:19.0      20    -34      4     40     41 149.3   6.9  33974  286.42 0855.32
2009/04/23 07:51:19.1      33    -13      1     36     37 111.7   2.8  33974  286.42 0855.32
2009/04/23 07:51:19.2      54      5     -7     55     56  83.9  -7.3  33976  286.46 0855.32
2009/04/23 07:51:19.3      42     -3    -17     43     46  95.2 -26.4  33976  286.46 0855.32
2009/04/23 07:51:19.4      47    -11    -16     49     52 104.2 -18.7  33976  286.46 0855.32
2009/04/23 07:51:19.5      46    -34    -30     58     65 126.0 -34.7  33976  286.46 0855.32
2009/04/23 07:51:19.6      49    -32    -29     59     65 123.3 -32.6  33974  286.44 0855.32
2009/04/23 07:51:19.7      53    -56    -34     78     85 136.7 -29.5  33976  286.47 0855.32
2009/04/23 07:51:19.8      31    -65    -38     73     82 154.7 -33.7  33974  286.42 0855.32
2009/04/23 07:51:19.9      47    -65    -53     81     96 143.9 -40.0  33974  286.44 0855.32
2009/04/23 07:51:20.0      58    -56    -24     82     86 134.0 -16.6  33970  286.37 0855.32
2009/04/23 07:51:20.1      72    -44      1     85     86 121.5   0.8  33974  286.44 0855.32
2009/04/23 07:51:20.2      70    -52    -21     88     91 126.9 -13.9  33976  286.47 0855.32
2009/04/23 07:51:20.3      67    -55    -15     87     89 129.5 -10.3  33976  286.47 0855.32
2009/04/23 07:51:20.4      70    -45    -10     84     85 122.5  -7.3  33976  286.46 0855.32
2009/04/23 07:51:20.5      86    -35    -47     93    104 112.2 -33.7  33978  286.49 0855.32
2009/04/23 07:51:20.6      77    -16    -38     79     87 102.4 -31.6  33976  286.47 0855.32
2009/04/23 07:51:20.7      90      0     -8     91     92  90.4  -5.6  33980  286.52 0855.32
2009/04/23 07:51:20.8      84     -3    -24     85     88  92.6 -20.7  33980  286.52 0855.32
2009/04/23 07:51:20.9      86     14    -11     88     89  80.3  -7.7  33982  286.56 0855.32
2009/04/23 07:51:21.0      70     10    -22     71     75  81.2 -17.6  33984  286.59 0855.32
2009/04/23 07:51:21.1      82     22    -20     85     88  74.9 -13.4  33980  286.54 0855.32
2009/04/23 07:51:21.2      70     19     -1     73     74  74.9  -1.3  33980  286.54 0855.32
2009/04/23 07:51:21.3      63      8      7     64     65  82.1   6.9  33982  286.56 0855.32
2009/04/23 07:51:21.4      73      4     39     74     83  86.5  29.8  33978  286.49 0855.32
2009/04/23 07:51:21.5      50     10      2     52     53  78.5   2.8  33976  286.46 0855.32
2009/04/23 07:51:21.6      95    -53    -61    110    125 119.3 -35.8  33974  286.44 0855.32
2009/04/23 07:51:21.7     101     -6    -30    102    107  93.9 -16.6  33972  286.39 0855.32
2009/04/23 07:51:21.8     111    -12     -9    112    113  96.6  -4.6  33974  286.44 0855.32
2009/04/23 07:51:21.9      88    -73     22    115    118 129.5  11.1  33974  286.42 0855.32
2009/04/23 07:51:22.0      92    -58     38    109    116 122.4  19.4  33974  286.42 0855.32
2009/04/23 07:51:22.1      64    -57     53     87    101 131.8  34.4  33976  286.46 0855.32
2009/04/23 07:51:22.2      33    -54     50     64     81 148.4  42.2  33974  286.42 0855.32
2009/04/23 07:51:22.3      32    -52     52     62     80 148.4  44.8  33974  286.44 0855.32
2009/04/23 07:51:22.4      57    -45     48     73     87 128.6  36.0  33976  286.46 0855.32
2009/04/23 07:51:22.5      39    -72     52     83     97 151.5  35.5  33974  286.42 0855.32
2009/04/23 07:51:22.6      70    -57     74     91    117 129.1  43.7  33974  286.42 0855.32
2009/04/23 07:51:22.7      18    -88     42     90     99 168.0  27.1  33972  286.41 0855.32
2009/04/23 07:51:22.8      32    -98     28    104    108 161.7  15.3  33972  286.41 0855.32
2009/04/23 07:51:22.9      53   -102      8    116    117 152.4   4.4  33972  286.41 0855.32
2009/04/23 07:51:23.0      28   -106     -7    110    111 164.8  -3.7  33976  286.46 0855.32
2009/04/23 07:51:23.1      33   -100    -22    106    109 161.3 -11.9  33972  286.41 0855.32
2009/04/23 07:51:23.2      60    -90    -18    109    111 146.2  -9.3  33974  286.44 0855.32
2009/04/23 07:51:23.3      60    -77      0     98     99 142.2  -0.3  33972  286.41 0855.32
2009/04/23 07:51:23.4      37    -62     14     73     75 149.3  11.1  33974  286.42 0855.32
2009/04/23 07:51:23.5      27    -46      2     54     55 149.3   2.9  33974  286.42 0855.32
2009/04/23 07:51:23.6      39    -54      3     67     68 143.9   2.9  33974  286.42 0855.32
2009/04/23 07:51:23.7      26    -41     19     49     52 147.4  22.0  33976  286.47 0855.33
2009/04/23 07:51:23.8      24    -47     20     53     56 152.8  20.0  33974  286.42 0855.33
2009/04/23 07:51:23.9      29    -53     13     61     63 151.0  12.2  33974  286.42 0855.33
2009/04/23 07:51:24.0      31    -31     19     45     48 135.0  23.0  33972  286.39 0855.33
2009/04/23 07:51:24.1       5    -24     -5     25     26 168.4 -11.3  33972  286.41 0855.33
2009/04/23 07:51:24.2     -17    -22    -17     28     32 217.8 -39.9  33972  286.41 0855.33
2009/04/23 07:51:24.3     -15    -15    -38     22     43 225.0 -72.1  33974  286.42 0855.33
2009/04/23 07:51:24.4     -18    -26    -39     32     50 214.3 -60.8  33976  286.46 0855.33
2009/04/23 07:51:24.5     -11    -25    -44     28     52 203.6 -69.1  33974  286.44 0855.33
2009/04/23 07:51:24.6      -2    -40    -35     41     53 183.6 -50.2  33974  286.44 0855.33
2009/04/23 07:51:24.7       0    -36    -33     37     49 180.9 -51.3  33976  286.47 0855.33
2009/04/23 07:51:24.8       2    -21    -14     22     26 173.8 -39.9  33974  286.42 0855.33
2009/04/23 07:51:24.9      -3    -47    -10     48     50 184.4 -12.4  33972  286.39 0855.33
2009/04/23 07:51:25.0      10    -49    -24     51     56 168.4 -31.5  33972  286.41 0855.33
2009/04/23 07:51:25.1      -1    -16     -2     17     18 184.5  -7.3  33970  286.37 0855.33
2009/04/23 07:51:25.2     -13      5      8     14     16 291.7  35.5  33974  286.42 0855.33
2009/04/23 07:51:25.3     -13     30     13     33     35 336.4  21.0  33972  286.41 0855.33
2009/04/23 07:51:25.4     -14     15     25     21     32 316.8  56.3  33972  286.39 0855.33
2009/04/23 07:51:25.5       7     32     29     33     43  13.4  46.9  33974  286.42 0855.33
2009/04/23 07:51:25.6       7     42     39     43     58  10.7  47.9  33972  286.39 0855.33
2009/04/23 07:51:25.7      -7     35     34     36     49 348.4  50.0  33974  286.42 0855.33
2009/04/23 07:51:25.8       9     16     41     19     45  29.0  72.9  33974  286.42 0855.33
2009/04/23 07:51:25.9      32     -8     23     34     41 105.1  37.6  33974  286.42 0855.33
2009/04/23 07:51:26.0      21      2      7     22     24  83.9  19.2  33970  286.37 0855.33
2009/04/23 07:51:26.1      12     17      0     22     23  36.1  -2.2  33970  286.37 0855.33
2009/04/23 07:51:26.2      16     21      1     27     28  37.8   2.9  33972  286.41 0855.33
2009/04/23 07:51:26.3       7     -3     11      8     13 115.3  60.5  33974  286.44 0855.33
2009/04/23 07:51:26.4       7      6      8     10     12  46.9  47.9  33972  286.39 0855.33
2009/04/23 07:51:26.5       0      6      0      7      8 357.3  -2.2  33972  286.41 0855.33
2009/04/23 07:51:26.6      -1      6    -13      7     14 350.3 -69.1  33972  286.41 0855.33
2009/04/23 07:51:26.7       2      0    -35      3     35 108.4 -90.0  33972  286.39 0855.33
2009/04/23 07:51:26.8       8      0    -44      9     44  90.0 -90.0  33968  286.34 0855.33
2009/04/23 07:51:26.9      35    -11    -45     37     58 108.2 -60.7  33970  286.37 0855.33
2009/04/23 07:51:27.0      35    -41    -45     54     70 139.5 -48.2  33972  286.39 0855.33
2009/04/23 07:51:27.1      24    -51    -43     57     71 154.5 -46.1  33970  286.37 0855.33
2009/04/23 07:51:27.2      43    -71    -54     84     99 148.8 -40.0  33968  286.34 0855.33
2009/04/23 07:51:27.3      41    -63    -53     76     92 146.6 -42.4  33972  286.41 0855.33
2009/04/23 07:51:27.4      53    -49    -55     73     91 133.2 -45.6  33970  286.37 0855.33
2009/04/23 07:51:27.5      49    -49    -46     70     83 135.0 -40.4  33972  286.41 0855.33
2009/04/23 07:51:27.6      41    -33    -54     53     75 128.6 -53.5  33972  286.41 0855.33
2009/04/23 07:51:27.7      41    -64    -35     77     84 147.5 -30.6  33970  286.35 0855.33
2009/04/23 07:51:27.8      30    -75    -38     81     89 158.2 -31.5  33970  286.37 0855.33
2009/04/23 07:51:27.9      15    -74     -8     76     77 168.4  -6.2  33968  286.34 0855.33
2009/04/23 07:51:28.0      14    -81     21     83     86 170.2  14.3  33968  286.34 0855.33
2009/04/23 07:51:28.1      28    -59     35     66     74 154.5  30.3  33968  286.34 0855.33
2009/04/23 07:51:28.2      32    -57     18     66     69 151.0  15.3  33970  286.35 0855.33
2009/04/23 07:51:28.3     -15    -66     31     68     74 193.4  27.1  33970  286.35 0855.33
2009/04/23 07:51:28.4     -23    -78     71     82    108 196.9  45.4  33972  286.41 0855.33
2009/04/23 07:51:28.5      -9    -53     82     54     98 189.8  63.6  33972  286.39 0855.33
2009/04/23 07:51:28.6      16    -41     98     45    107 158.2  73.5  33970  286.35 0855.33
2009/04/23 07:51:28.7      10    -51     -4     53     54 168.5  -5.2  33972  286.39 0855.33
2009/04/23 07:51:28.8      24   -101    -37    104    111 166.6 -19.6  33970  286.37 0855.33
2009/04/23 07:51:28.9       8    -94    -21     95     98 174.7 -12.9  33970  286.37 0855.33
2009/04/23 07:51:29.0       7    -97     -9     98     99 175.6  -5.6  33970  286.37 0855.33
2009/04/23 07:51:29.1       4    -82    -28     83     88 176.9 -19.1  33970  286.35 0855.33
2009/04/23 07:51:29.2       1    -98     13     99    100 179.1   8.0  33970  286.37 0855.33
2009/04/23 07:51:29.3      -3    -93     21     94     97 182.2  12.6  33972  286.41 0855.33
2009/04/23 07:51:29.4     -17   -106     31    108    113 189.3  16.3  33972  286.41 0855.33
2009/04/23 07:51:29.5     -14    -70    -39     72     81 191.6 -35.2  33968  286.34 0855.33
2009/04/23 07:51:29.6     -45    -75    -29     88     92 211.2 -23.8  33970  286.37 0855.33
2009/04/23 07:51:29.7     -44   -106      8    115    116 202.7   4.4  33970  286.37 0855.32
2009/04/23 07:51:29.8     -46    -83    -26     96    100 209.0 -15.5  33970  286.35 0855.32
2009/04/23 07:51:29.9     -41    -45    -26     62     67 222.3 -27.5  33972  286.41 0855.32
2009/04/23 07:51:30.0     -31    -31    -18     44     47 225.0 -27.4  33972  286.39 0855.32
2009/04/23 07:51:30.1     -21    -15    -23     27     35 234.0 -48.2  33972  286.39 0855.32
2009/04/23 07:51:30.2     -30    -30    -37     43     56 225.0 -50.2  33968  286.32 0855.32
2009/04/23 07:51:30.3     -26    -25    -42     37     55 226.7 -58.7  33970  286.35 0855.32
2009/04/23 07:51:30.4      -3    -14    -38     15     40 195.1 -82.6  33968  286.32 0855.32
2009/04/23 07:51:30.5       7    -32    -31     33     45 166.6 -53.4  33968  286.34 0855.32
2009/04/23 07:51:30.6      29    -48    -39     57     69 148.4 -42.0  33970  286.37 0855.32
2009/04/23 07:51:30.7      30    -55    -61     63     87 151.0 -54.4  33968  286.34 0855.32
2009/04/23 07:51:30.8      40    -44    -48     60     76 137.7 -48.1  33968  286.32 0855.32
2009/04/23 07:51:30.9      20    -36    -40     42     58 150.1 -55.5  33968  286.32 0855.32
2009/04/23 07:51:31.0      29    -12    -17     32     36 113.5 -33.7  33968  286.32 0855.32
2009/04/23 07:51:31.1      48    -16     -2     51     52 108.4  -2.2  33966  286.30 0855.32
2009/04/23 07:51:31.2      45    -32      2     56     57 125.1   2.8  33968  286.34 0855.32
2009/04/23 07:51:31.3      51    -22      7     56     57 113.5   8.0  33968  286.34 0855.32
2009/04/23 07:51:31.4      64    -19     23     67     71 106.8  18.9  33970  286.37 0855.32
2009/04/23 07:51:31.5      66    -10     38     67     77  98.8  32.4  33972  286.39 0855.32
2009/04/23 07:51:31.6      58    -23     52     63     81 111.7  43.7  33972  286.39 0855.32
2009/04/23 07:51:31.7      33    -33     59     48     76 135.0  56.4  33972  286.39 0855.32
2009/04/23 07:51:31.8      20    -66     46     70     83 163.1  36.0  33972  286.39 0855.32
2009/04/23 07:51:31.9      16    -62     45     65     79 165.7  38.0  33968  286.34 0855.32
2009/04/23 07:51:32.0      29    -49     42     58     71 149.3  39.7  33970  286.37 0855.32
2009/04/23 07:51:32.1      75    -48     31     90     96 122.9  19.4  33970  286.35 0855.32
2009/04/23 07:51:32.2      52    -24     75     58     94 115.3  58.5  33970  286.35 0855.32
2009/04/23 07:51:32.3      33    -35     46     49     67 136.8  48.0  33970  286.37 0855.32
2009/04/23 07:51:32.4      28    -19     46     34     57 124.2  59.4  33970  286.35 0855.32
2009/04/23 07:51:32.5      12      4     36     13     38  71.4  81.2  33968  286.34 0855.32
2009/04/23 07:51:32.6      24     12     65     28     70  62.9  75.0  33970  286.37 0855.32
2009/04/23 07:51:32.7      52     -7     41     53     67  97.9  41.7  33974  286.42 0855.33
2009/04/23 07:51:32.8      43    -16     16     47     50 110.8  19.2  33970  286.35 0855.33
2009/04/23 07:51:32.9      30      0      2     31     32  90.0   4.9  33972  286.39 0855.33
2009/04/23 07:51:33.0      18     24     -8     31     33  37.8 -15.5  33970  286.35 0855.33
2009/04/23 07:51:33.1      17     24     -8     30     32  36.1 -15.5  33972  286.39 0855.33
2009/04/23 07:51:33.2      27     17     -6     33     34  57.5 -11.3  33970  286.35 0855.33
2009/04/23 07:51:33.3      24     24     -4     35     36  45.0  -7.2  33972  286.39 0855.33
2009/04/23 07:51:33.4      23     18     -2     30     31  52.2  -5.2  33970  286.37 0855.33
2009/04/23 07:51:33.5      10     19      3     22     23  29.0   9.0  33968  286.34 0855.33
2009/04/23 07:51:33.6       5     34      5     35     36   9.8   9.0  33970  286.37 0855.33
2009/04/23 07:51:33.7       3     40      2     41     42   4.5   3.8  33970  286.35 0855.33
2009/04/23 07:51:33.8       8     47      6     48     49   9.8   8.0  33970  286.35 0855.33
2009/04/23 07:51:33.9       8     47      6     48     49   9.8   8.0  33970  286.35 0855.33
2009/04/23 07:51:34.0      21     54      7     59     60  21.8   6.9  33970  286.35 0855.33
2009/04/23 07:51:34.1       8     64      5     65     66   7.1   4.9  33970  286.35 0855.33
2009/04/23 07:51:34.2      20     66     19     70     73  16.9  15.3  33970  286.37 0855.33
2009/04/23 07:51:34.3      25     72     19     77     80  19.2  14.3  33968  286.32 0855.33
2009/04/23 07:51:34.4      34     51     33     62     70  34.3  30.3  33970  286.37 0855.33
2009/04/23 07:51:34.5      56     19     36     60     69  71.4  34.4  33968  286.34 0855.33
2009/04/23 07:51:34.6      67     -3     45     68     81  92.6  36.5  33968  286.34 0855.33
2009/04/23 07:51:34.7      54      0     53     55     76  90.0  50.0  33970  286.35 0855.32
2009/04/23 07:51:34.8      54     18     65     57     86  71.4  53.7  33970  286.35 0855.32
2009/04/23 07:51:34.9      73    -14     57     75     94 101.5  41.2  33970  286.35 0855.32
2009/04/23 07:51:35.0      68      7     66     69     95  83.9  49.0  33968  286.34 0855.32
2009/04/23 07:51:35.1      45      7     71     46     84  80.3  64.6  33972  286.41 0855.32
2009/04/23 07:51:35.2      33     11     66     35     74  71.6  69.8  33972  286.41 0855.32
2009/04/23 07:51:35.3      21      6     55     22     59  73.2  77.1  33974  286.42 0855.32
2009/04/23 07:51:35.4      22      3     53     23     57  80.3  75.0  33974  286.44 0855.32
2009/04/23 07:51:35.5      15      0     52     16     54  90.0  80.7  33974  286.42 0855.32
2009/04/23 07:51:35.6      57     18     69     60     91  71.8  54.8  33970  286.37 0855.32
2009/04/23 07:51:35.7      45     30     84     55    100  55.8  64.1  33970  286.35 0855.32
2009/04/23 07:51:35.8      35     22     75     42     85  57.6  68.3  33972  286.41 0855.32
2009/04/23 07:51:35.9      14      1     54     15     56  85.7  83.9  33972  286.39 0855.32
2009/04/23 07:51:36.0     -15     16     42     22     47 316.8  69.8  33972  286.41 0855.32
2009/04/23 07:51:36.1     -29     11     50     32     59 291.7  64.6  33974  286.44 0855.32
2009/04/23 07:51:36.2     -36      7     44     37     57 281.4  56.3  33972  286.41 0855.32
2009/04/23 07:51:36.3     -26     -3     41     27     49 262.1  63.6  33972  286.41 0855.32
2009/04/23 07:51:36.4     -29     -9     38     31     49 251.6  56.4  33970  286.37 0855.32
2009/04/23 07:51:36.5     -29    -18     39     35     52 237.6  53.3  33974  286.42 0855.32
2009/04/23 07:51:36.6       4    -23     57     24     61 170.2  77.0  33970  286.35 0855.32
2009/04/23 07:51:36.7      -2    -26     50     27     56 184.4  69.8  33970  286.37 0855.33
2009/04/23 07:51:36.8      -6    -18     33     19     38 198.5  64.7  33970  286.37 0855.33
2009/04/23 07:51:36.9     -14    -31     25     35     43 205.3  39.7  33972  286.39 0855.33
2009/04/23 07:51:37.0     -30     -3     23     31     38 263.9  41.7  33970  286.37 0855.33
2009/04/23 07:51:37.1     -11    -10     41     16     44 226.7  79.2  33970  286.37 0855.33
2009/04/23 07:51:37.2      10     10     31     15     34  45.0  72.9  33970  286.35 0855.33
2009/04/23 07:51:37.3      22     13     30     26     39  59.3  54.3  33968  286.34 0855.33
2009/04/23 07:51:37.4       0    -10     28     11     30 175.5  79.2  33970  286.37 0855.33
2009/04/23 07:51:37.5      23    -36     51     43     66 147.5  55.4  33970  286.37 0855.33
2009/04/23 07:51:37.6      70    -45     37     84     91 122.5  25.1  33972  286.39 0855.33
2009/04/23 07:51:37.7      77    -26     51     82     96 108.6  35.5  33970  286.37 0855.33
2009/04/23 07:51:37.8      57    -18     55     60     81 108.2  47.5  33970  286.37 0855.33
2009/04/23 07:51:37.9      29    -45     67     54     86 147.5  56.9  33970  286.37 0855.33
2009/04/23 07:51:38.0      17    -66     55     69     88 165.7  43.7  33970  286.35 0855.33
2009/04/23 07:51:38.1       2    -40     43     41     59 176.4  51.2  33970  286.37 0855.33
2009/04/23 07:51:38.2       0    -13     47     14     49 182.7  81.8  33974  286.42 0855.33
2009/04/23 07:51:38.3       2     -7     52      8     52 161.3  90.0  33974  286.42 0855.33
2009/04/23 07:51:38.4     -15     26     38     31     49 329.3  56.4  33972  286.41 0855.33
2009/04/23 07:51:38.5      26      6     53     27     59  76.7  70.8  33972  286.41 0855.33
2009/04/23 07:51:38.6      13     28     49     32     58  25.5  64.6  33974  286.44 0855.33
2009/04/23 07:51:38.7      15    -12     42     20     46 129.5  72.9  33972  286.41 0855.32
2009/04/23 07:51:38.8       2      5     36      6     36  25.4  90.0  33974  286.42 0855.32
2009/04/23 07:51:38.9      -6     18     47     19     50 341.5  77.1  33974  286.42 0855.32
2009/04/23 07:51:39.0      51    -22     57     56     79 113.5  50.1  33974  286.42 0855.32
2009/04/23 07:51:39.1      58      7     71     59     92  83.0  56.3  33968  286.34 0855.32
2009/04/23 07:51:39.2      48     23     62     54     82  64.7  54.3  33970  286.35 0855.32
2009/04/23 07:51:39.3      60     20     59     64     87  70.9  47.9  33970  286.37 0855.32
2009/04/23 07:51:39.4      66     19     57     69     89  73.2  43.7  33970  286.35 0855.32
2009/04/23 07:51:39.5      59     13     51     61     79  77.6  44.3  33966  286.30 0855.32
2009/04/23 07:51:39.6      49     -3     45     50     67  94.4  47.9  33970  286.37 0855.32
2009/04/23 07:51:39.7      53    -16     66     56     86 106.8  54.8  33970  286.35 0855.32
2009/04/23 07:51:39.8      76    -15     55     78     95 101.4  38.0  33968  286.32 0855.32
2009/04/23 07:51:39.9      49    -12     65     51     82 104.2  57.5  33970  286.35 0855.32
2009/04/23 07:51:40.0      24      2     64     25     68  83.9  79.2  33970  286.37 0855.32
2009/04/23 07:51:40.1      37     11     51     39     64  73.2  59.4  33970  286.37 0855.32
2009/04/23 07:51:40.2      11     11     36     16     39  45.0  75.0  33970  286.37 0855.32
2009/04/23 07:51:40.3       9     -5     39     11     40 118.9  83.9  33970  286.35 0855.32
2009/04/23 07:51:40.4      27      0     47     28     54  90.0  65.7  33970  286.37 0855.32
2009/04/23 07:51:40.5       5     -4     25      7     25 129.5  82.8  33970  286.35 0855.32
2009/04/23 07:51:40.6      -5     10     32     12     34 331.0  81.2  33970  286.37 0855.32
2009/04/23 07:51:40.7      35      8     49     36     60  76.7  60.5  33970  286.37 0855.32
2009/04/23 07:51:40.8      33     18     60     38     71  61.1  64.7  33970  286.37 0855.32
2009/04/23 07:51:40.9      20     24     54     32     62  39.7  66.8  33970  286.37 0855.32
2009/04/23 07:51:41.0      -2      0     35      3     35 251.6  90.0  33972  286.39 0855.32
2009/04/23 07:51:41.1      -4      0     28      5     28 270.0  90.0  33968  286.32 0855.32
2009/04/23 07:51:41.2       5      4     40      7     40  50.5  90.0  33966  286.29 0855.32
2009/04/23 07:51:41.3      -1    -11     44     12     45 188.0  83.9  33968  286.32 0855.32
2009/04/23 07:51:41.4      -2      3     44      4     44 327.5  90.0  33966  286.29 0855.32
2009/04/23 07:51:41.5      16      6     37     18     41  68.3  72.9  33968  286.32 0855.32
2009/04/23 07:51:41.6      -3      0     34      4     34 270.0  90.0  33972  286.41 0855.32
2009/04/23 07:51:41.7     -17    -11     37     21     42 237.5  67.7  33970  286.37 0855.32
2009/04/23 07:51:41.8     -18     -7     41     20     45 248.3  71.9  33968  286.32 0855.32
2009/04/23 07:51:41.9     -11     18     42     22     47 329.3  69.8  33970  286.37 0855.32
2009/04/23 07:51:42.0      -1     24     40     25     47 357.3  64.7  33972  286.41 0855.32
2009/04/23 07:51:42.1     -26      8     40     28     48 286.8  61.5  33972  286.41 0855.32
2009/04/23 07:51:42.2     -27     25     39     38     54 313.1  49.1  33974  286.42 0855.32
2009/04/23 07:51:42.3     -13     33     39     36     53 338.2  52.2  33974  286.42 0855.32
2009/04/23 07:51:42.4     -15     17     38     24     44 318.6  64.7  33974  286.42 0855.32
2009/04/23 07:51:42.5     -27     -9     60     29     66 251.4  72.9  33968  286.32 0855.32
2009/04/23 07:51:42.6     -48    -26     43     55     69 241.1  42.7  33966  286.30 0855.32
2009/04/23 07:51:42.7     -26      0     41     27     49 270.0  63.6  33968  286.34 0855.32
2009/04/23 07:51:42.8     -11      7     40     14     42 302.4  80.2  33970  286.35 0855.32
2009/04/23 07:51:42.9     -36     22     24     43     49 301.5  31.4  33968  286.32 0855.32
2009/04/23 07:51:43.0     -45     21     28     50     57 295.4  32.4  33968  286.32 0855.32
2009/04/23 07:51:43.1     -22     22     31     32     44 315.0  51.1  33968  286.34 0855.32
2009/04/23 07:51:43.2     -33     17     26     38     46 297.1  37.6  33966  286.29 0855.32
2009/04/23 07:51:43.3     -31     14     28     35     44 295.2  42.7  33968  286.32 0855.32
2009/04/23 07:51:43.4     -36     22     24     43     49 301.5  31.4  33968  286.32 0855.32
2009/04/23 07:51:43.5     -32     21     22     39     44 304.2  32.4  33970  286.35 0855.32
2009/04/23 07:51:43.6     -32     21     22     39     44 304.2  32.4  33970  286.35 0855.32
2009/04/23 07:51:43.7     -42     17     24     46     51 292.6  29.3  33970  286.37 0855.32
2009/04/23 07:51:43.8     -48     12     20     50     53 285.1  22.0  33974  286.42 0855.32
2009/04/23 07:51:44.0     -49     13     18     51     55 285.9  19.4  33982  286.56 0855.32
2009/04/23 07:51:44.1     -33      2     19     34     38 274.4  31.4  33980  286.54 0855.32
2009/04/23 07:51:44.2      -9     -3     21     10     23 248.3  75.0  33976  286.46 0855.32
2009/04/23 07:51:44.3      -1     -6     26      7     26 189.7  84.9  33972  286.41 0855.32
2009/04/23 07:51:44.4     -20      0     17     21     27 270.0  43.7  33972  286.39 0855.32
2009/04/23 07:51:44.5      -6    -31     16     32     35 191.6  27.3  33968  286.34 0855.32
2009/04/23 07:51:44.6      26    -26     25     37     44 135.0  36.5  33970  286.37 0855.32
2009/04/23 07:51:44.7      29    -18     31     35     46 122.4  46.9  33970  286.37 0855.32
2009/04/23 07:51:44.8       4    -27     39     28     48 170.2  61.5  33968  286.34 0855.31
2009/04/23 07:51:44.9      -9    -42     28     44     52 192.5  35.5  33970  286.37 0855.31
2009/04/23 07:51:45.0     -18    -30     21     36     41 210.7  32.4  33968  286.34 0855.31
2009/04/23 07:51:45.1     -24    -15     10     29     31 237.5  19.2  33968  286.32 0855.31
2009/04/23 07:51:45.2     -29    -18      3     35     36 237.5   4.9  33970  286.35 0855.31
2009/04/23 07:51:45.3     -37    -34      7     51     52 227.8   8.0  33970  286.35 0855.31
2009/04/23 07:51:45.4     -52    -44     20     69     72 229.6  16.3  33970  286.37 0855.31
2009/04/23 07:51:45.5     -61    -18     22     64     68 253.2  19.4  33970  286.35 0855.31
2009/04/23 07:51:45.6     -97     13    -35     98    105 278.0 -19.7  33968  286.32 0855.31
2009/04/23 07:51:45.7     -84     17    -12     86     87 281.5  -8.2  33968  286.32 0855.31
2009/04/23 07:51:45.8     -97      7     -3     98     99 274.3  -2.2  33964  286.27 0855.31
2009/04/23 07:51:45.9     -98      0      5     99    100 270.0   2.9  33966  286.30 0855.31
2009/04/23 07:51:46.0     -94     -1     -2     95     96 269.2  -1.8  33964  286.25 0855.31
2009/04/23 07:51:46.1    -106    -26     -3    110    111 255.8  -1.8  33966  286.29 0855.31
2009/04/23 07:51:46.2     -67    -14      3     69     70 257.6   2.9  33968  286.32 0855.31
2009/04/23 07:51:46.3     -63    -13    -23     65     70 257.6 -19.7  33968  286.32 0855.31
2009/04/23 07:51:46.4     -64    -22     -3     68     69 250.9  -3.1  33968  286.32 0855.31
2009/04/23 07:51:46.5     -72    -25     17     77     79 250.9  12.6  33966  286.30 0855.31
2009/04/23 07:51:46.6     -77    -41     14     88     90 242.0   9.0  33968  286.32 0855.31
2009/04/23 07:51:46.7     -79    -31      8     86     87 248.3   5.9  33968  286.32 0855.31
2009/04/23 07:51:46.8     -79    -31      8     86     87 248.3   5.9  33968  286.32 0855.31
2009/04/23 07:51:46.9     -60    -48     -1     77     78 231.4  -1.2  33968  286.32 0855.31
2009/04/23 07:51:47.0     -47    -36     -7     60     61 232.2  -7.3  33964  286.25 0855.31
2009/04/23 07:51:47.1     -43    -35      2     56     57 230.5   2.8  33966  286.29 0855.31
2009/04/23 07:51:47.2     -31    -31      7     45     46 225.0   9.0  33964  286.25 0855.31
2009/04/23 07:51:47.3     -31    -38      0     50     51 219.6  -0.3  33964  286.27 0855.31
2009/04/23 07:51:47.4     -24    -33     -6     41     42 216.1  -8.2  33966  286.30 0855.31
2009/04/23 07:51:47.5     -14    -42      2     45     46 198.3   2.9  33966  286.30 0855.31
2009/04/23 07:51:47.6      -6    -44     10     45     47 188.9  13.2  33964  286.27 0855.31
2009/04/23 07:51:47.7       0    -32      4     33     34 179.1   6.9  33966  286.29 0855.31
2009/04/23 07:51:47.8      -2    -37      0     38     39 184.5   0.8  33964  286.27 0855.31
2009/04/23 07:51:47.9       4    -28     -1     29     30 170.2  -3.1  33968  286.32 0855.31
2009/04/23 07:51:48.0      11    -22     -1     25     26 152.8  -2.2  33966  286.30 0855.31
2009/04/23 07:51:48.1       1    -11     -4     12     12 172.0 -23.6  33968  286.32 0855.31
2009/04/23 07:51:48.2       8      7      1     11     12  46.9   6.9  33968  286.32 0855.31
2009/04/23 07:51:48.3       8      7      1     11     12  46.9   6.9  33968  286.32 0855.31
2009/04/23 07:51:48.4      -1      6     -6      7      9 350.3 -56.4  33968  286.32 0855.31
2009/04/23 07:51:48.5       5      6     -8      8     11  39.6 -54.5  33970  286.35 0855.31
2009/04/23 07:51:48.6       7      6    -10     10     14  46.9 -54.5  33968  286.32 0855.31
2009/04/23 07:51:48.7       9      3     -8     10     12  68.3 -52.3  33970  286.35 0855.31
2009/04/23 07:51:48.8       7      0    -11      8     13  90.0 -64.9  33970  286.37 0855.31
2009/04/23 07:51:48.9       9     -3    -16     10     18 111.7 -69.1  33970  286.37 0855.31
2009/04/23 07:51:49.0       9     -3    -16     10     18 111.7 -69.1  33970  286.37 0855.31
2009/04/23 07:51:49.1      12      0    -13     13     18  90.0 -54.5  33972  286.41 0855.31
2009/04/23 07:51:49.2       4      5     -8      7     10  43.4 -56.6  33970  286.35 0855.31
2009/04/23 07:51:49.3       2      3      2      4      4  32.5  35.5  33970  286.37 0855.31
2009/04/23 07:51:49.4      -2      3     -2      4      4 327.5 -39.9  33970  286.37 0855.31
2009/04/23 07:51:49.5      -3      0     -4      4      5 270.0 -54.5  33972  286.41 0855.31
2009/04/23 07:51:49.6      -9     -5      2     11     12 237.6  11.1  33972  286.39 0855.31
2009/04/23 07:51:49.7     -10    -10      0     15     16 226.7   2.9  33970  286.37 0855.31
2009/04/23 07:51:49.8     -13     -1      0     14     15 265.7  -2.2  33972  286.39 0855.31
2009/04/23 07:51:49.9     -14      3     -2     15     16 285.1  -7.3  33974  286.42 0855.31
2009/04/23 07:51:50.0      -9     15      2     18     19 327.5   6.9  33974  286.42 0855.31
2009/04/23 07:51:50.1      -4     13      0     14     15 341.5   2.8  33976  286.47 0855.31
2009/04/23 07:51:50.2      14     18      1     23     24  37.8   2.9  33980  286.52 0855.31
2009/04/23 07:51:50.3      30      3      7     31     32  83.9  13.2  33980  286.54 0855.31
2009/04/23 07:51:50.4      20     12     24     24     33  57.6  50.1  33980  286.54 0855.31
2009/04/23 07:51:50.5      10     18     17     21     27  29.0  43.7  33980  286.54 0855.31
2009/04/23 07:51:50.6      14     12     15     19     24  50.5  43.7  33984  286.59 0855.31
2009/04/23 07:51:50.7      17     22      2     28     29  37.8   4.9  33984  286.61 0855.31
2009/04/23 07:51:50.8      15     21      4     27     28  36.1   9.0  33988  286.66 0855.31
2009/04/23 07:51:50.9       1     21     22     22     31   4.5  50.1  33988  286.66 0855.31
2009/04/23 07:51:51.0       0     16     19     17     25   0.9  52.2  33992  286.74 0855.31
2009/04/23 07:51:51.1       0     16     19     17     25   0.9  52.2  33996  286.81 0855.31
2009/04/23 07:51:51.2      -4     15     22     16     27 344.9  60.5  33994  286.78 0855.31
2009/04/23 07:51:51.3      -8     14     17     17     24 331.0  50.1  33998  286.83 0855.31
2009/04/23 07:51:51.4      -8     22     17     24     29 340.0  37.6  34004  286.93 0855.31
2009/04/23 07:51:51.5     -11     18     22     22     31 329.3  50.1  34014  287.10 0855.31
2009/04/23 07:51:51.6       7     22     22     24     32  18.3  50.0  34016  287.13 0855.31
2009/04/23 07:51:51.7      13     39     33     42     53  18.5  43.7  34036  287.49 0855.31
2009/04/23 07:51:51.8      10     51     24     53     58  11.5  26.2  34056  287.81 0855.31
2009/04/23 07:51:51.9      -3     48     17     49     52 355.5  19.4  34062  287.92 0855.31
2009/04/23 07:51:52.0     -12     37     19     40     44 341.3  26.2  34064  287.94 0855.31
2009/04/23 07:51:52.1     -12     31     40     34     52 338.2  55.4  34064  287.94 0855.31
2009/04/23 07:51:52.2     -20     32     48     38     61 327.5  56.4  34064  287.94 0855.31
2009/04/23 07:51:52.3     -15     35     44     39     58 336.4  53.3  34060  287.89 0855.31
2009/04/23 07:51:52.4     -16     26     37     31     48 327.5  54.3  34052  287.76 0855.31
2009/04/23 07:51:52.5     -10     10     29     15     32 315.0  70.8  34046  287.65 0855.31
2009/04/23 07:51:52.6      10     10     30     15     33  43.2  72.9  34042  287.57 0855.31
2009/04/23 07:51:52.7      32     -2     40     33     51  94.4  56.4  34032  287.42 0855.31
2009/04/23 07:51:52.8      14      9     34     17     38  57.6  72.8  34032  287.40 0855.31
2009/04/23 07:51:52.9      18     15     38     24     44  48.7  64.7  34030  287.38 0855.31
2009/04/23 07:51:53.0      37     12     44     40     59  71.4  52.2  34038  287.52 0855.31
2009/04/23 07:51:53.1      37     12     44     40     59  71.4  52.2  34042  287.57 0855.31
2009/04/23 07:51:53.2      32     21     38     39     54  55.8  51.1  34032  287.40 0855.31
2009/04/23 07:51:53.3      50     28     36     58     68  60.2  35.5  34030  287.37 0855.31
2009/04/23 07:51:53.4      43     21     60     48     76  63.8  56.4  34048  287.69 0855.31
2009/04/23 07:51:53.5      31     31     51     45     68  45.0  52.2  34054  287.77 0855.31
2009/04/23 07:51:53.6      25     25     45     36     57  45.0  56.4  34058  287.84 0855.31
2009/04/23 07:51:53.7      26     31     48     41     63  39.6  55.4  34062  287.91 0855.31
2009/04/23 07:51:53.8      10     44     44     46     63  13.4  50.0  34062  287.91 0855.31
2009/04/23 07:51:53.9       3     24     58     25     63   8.0  76.1  34048  287.69 0855.31
2009/04/23 07:51:54.0      21     -7     62     23     66 108.4  80.2  34042  287.57 0855.31
2009/04/23 07:51:54.1      32     16     73     37     81  62.9  71.4  34042  287.59 0855.31
2009/04/23 07:51:54.2      29      8     63     31     70  74.9  72.8  34040  287.54 0855.31
2009/04/23 07:51:54.3      24      4     57     25     62  80.3  75.0  34032  287.42 0855.31
2009/04/23 07:51:54.4      26      8     53     28     59  71.4  69.8  34030  287.37 0855.31
2009/04/23 07:51:54.5       1     15     39     16     42   4.4  77.1  34024  287.28 0855.31
2009/04/23 07:51:54.6      -8      0     17      9     19 270.0  68.8  34026  287.30 0855.31
2009/04/23 07:51:54.7     -10     12      5     16     17 320.4  19.4  34026  287.30 0855.31
2009/04/23 07:51:54.8       5     16      6     17     19  18.7  19.4  34018  287.18 0855.31
2009/04/23 07:51:54.9      35     39     -2     53     54  42.3  -2.2  34014  287.11 0855.31
2009/04/23 07:51:55.0      52     43      0     68     69  50.5   0.8  34010  287.03 0855.31
2009/04/23 07:51:55.1      60     50     -3     79     80  50.5  -2.2  34022  287.25 0855.31
2009/04/23 07:51:55.2      73     62     -5     97     98  49.6  -3.1  34030  287.38 0855.31
2009/04/23 07:51:55.3      79     50     -5     94     95  57.6  -3.1  34024  287.28 0855.31
2009/04/23 07:51:55.4      59     43     -1     74     75  54.0  -1.3  34024  287.28 0855.31
2009/04/23 07:51:55.5      80     27      8     85     86  71.4   5.4  34018  287.16 0855.31
2009/04/23 07:51:55.6      82     24    -11     86     87  73.6  -7.3  34024  287.28 0855.31
2009/04/23 07:51:55.7      76     29     -8     82     83  68.7  -5.6  34020  287.20 0855.31
2009/04/23 07:51:55.8      68     15     -2     70     71  77.6  -2.2  34020  287.20 0855.31
2009/04/23 07:51:55.9      69     23     -4     73     74  71.4  -3.1  34016  287.13 0855.31
2009/04/23 07:51:56.0      77     22     -7     81     82  73.6  -5.6  34016  287.15 0855.31
2009/04/23 07:51:56.1      73     17      0     75     76  76.7  -0.3  34008  287.00 0855.31
2009/04/23 07:51:56.2      82     40     -2     92     93  63.8  -1.8  34008  287.01 0855.31
2009/04/23 07:51:56.3      73     46    -15     87     89  58.0  -9.8  34006  286.96 0855.31
2009/04/23 07:51:56.4      72     41     -3     84     85  60.2  -2.2  34004  286.93 0855.31
2009/04/23 07:51:56.5      69     32     22     77     81  64.8  16.3  34004  286.93 0855.31
2009/04/23 07:51:56.6      69     32     38     77     85  64.8  28.2  34002  286.89 0855.31
2009/04/23 07:51:56.7      72     37     37     82     89  62.5  26.2  33996  286.81 0855.31
2009/04/23 07:51:56.8      77     37     35     86     92  64.2  23.0  33998  286.83 0855.31
2009/04/23 07:51:56.9      66     42     29     79     84  57.6  20.4  33994  286.76 0855.31
2009/04/23 07:51:57.0      62     29     21     69     73  64.7  17.3  33998  286.83 0855.31
2009/04/23 07:51:57.1      68     39     33     79     85  60.2  24.1  34002  286.91 0855.31
2009/04/23 07:51:57.2      86     27     31     91     97  72.3  18.9  34000  286.86 0855.31
2009/04/23 07:51:57.3      95     44      4    105    106  64.8   2.3  33996  286.79 0855.31
2009/04/23 07:51:57.4      97     50     -3    110    111  62.9  -1.8  33996  286.79 0855.31
2009/04/23 07:51:57.5      75     47      4     89     90  57.6   2.9  33994  286.78 0855.31
2009/04/23 07:51:57.6      74     46     14     88     90  58.0   9.0  33996  286.81 0855.31
2009/04/23 07:51:57.7      68     37     26     78     83  61.6  18.4  33996  286.81 0855.31
2009/04/23 07:51:57.8      96     45     32    107    112  64.8  16.8  33998  286.83 0855.31
2009/04/23 07:51:57.9     101      8      2    102    103  85.2   1.2  34000  286.86 0855.31
2009/04/23 07:51:58.0      85      9      1     86     87  83.4   0.8  34002  286.91 0855.31
2009/04/23 07:51:58.1     111      8    -20    112    114  85.7 -10.3  34010  287.05 0855.31
2009/04/23 07:51:58.2      99     19    -32    101    106  79.0 -17.6  34008  287.01 0855.31
2009/04/23 07:51:58.3      85      0    -26     86     90  90.0 -17.0  34008  287.00 0855.31
2009/04/23 07:51:58.4      76      5     19     77     80  85.7  14.3  34006  286.96 0855.31
2009/04/23 07:51:58.5      74     24     26     78     83  71.8  18.4  34004  286.93 0855.31
2009/04/23 07:51:58.6      75      5     32     76     82  85.7  24.1  34010  287.03 0855.31
2009/04/23 07:51:58.7      51     10     31     53     61  78.5  33.5  34006  286.96 0855.31
2009/04/23 07:51:58.8     102      3      7    103    104  87.9   4.4  34016  287.15 0855.31
2009/04/23 07:51:58.9     103     34     13    109    110  71.8   6.9  34016  287.13 0855.31
2009/04/23 07:51:59.0      96     -2     11     97     98  91.3   6.9  34010  287.03 0855.31
2009/04/23 07:51:59.1      88    -17      4     90     91 101.4   2.9  34008  287.01 0855.31
2009/04/23 07:51:59.2      88      0    -22     89     92  90.0 -13.9  34018  287.18 0855.31
2009/04/23 07:51:59.3      90    -28    -13     95     97 107.3  -8.2  34006  286.98 0855.31
2009/04/23 07:51:59.4      93    -39     19    102    104 113.1  11.0  34000  286.86 0855.31
2009/04/23 07:51:59.5      91    -43     20    101    104 115.2  11.6  34000  286.86 0855.31
2009/04/23 07:51:59.6      79    -65     48    103    113 129.6  27.1  34000  286.88 0855.31
2009/04/23 07:51:59.7      71    -43     32     84     89 121.5  21.5  34002  286.91 0855.31
2009/04/23 07:51:59.8      86     -7     43     87     97  94.8  27.8  33998  286.83 0855.32
2009/04/23 07:51:59.9      99     17     24    101    104  79.9  13.7  33992  286.73 0855.32
2009/04/23 07:52:00.0     113     38     50    120    130  71.4  24.1  34008  287.01 0855.32
2009/04/23 07:52:00.1     114     30     42    119    127  75.0  19.4  34022  287.23 0855.32
2009/04/23 07:52:00.3     104     41     37    113    120  68.2  18.4  34022  287.23 0855.32
2009/04/23 07:52:00.3      96     35     35    103    109  69.6  18.9  34024  287.27 0855.32
2009/04/23 07:52:00.4      85     31     37     91     98  70.0  23.1  34024  287.28 0855.32
2009/04/23 07:52:00.5      78     34     16     86     88  66.5  11.0  34026  287.30 0855.32
2009/04/23 07:52:00.6      61     29     -2     68     69  64.6  -2.2  34026  287.32 0855.32
2009/04/23 07:52:00.7      69     14    -21     71     74  78.6 -22.8  34024  287.28 0855.32
2009/04/23 07:52:00.8      65     21    -30     69     75  71.4 -29.5  34020  287.20 0855.32
2009/04/23 07:52:00.9      54     18    -28     58     64  70.9 -31.7  34016  287.13 0855.32
2009/04/23 07:52:01.0      64     26    -21     70     74  67.4 -16.6  34018  287.18 0855.32
2009/04/23 07:52:01.1      70     10    -22     71     75  81.2 -17.6  34016  287.15 0855.32
2009/04/23 07:52:01.2      57     19    -21     61     65  71.8 -19.7  34010  287.03 0855.32
2009/04/23 07:52:01.3      68     11    -19     69     72  80.3 -15.5  34002  286.89 0855.32
2009/04/23 07:52:01.4      79     57    -13     98     99  54.0  -7.7  34006  286.98 0855.32
2009/04/23 07:52:01.5      87     48     -3    100    101  60.7  -2.2  33988  286.66 0855.32
2009/04/23 07:52:01.6      81     64     -5    104    105  51.4  -3.1  33980  286.52 0855.32
2009/04/23 07:52:01.7      89     53     -7    104    105  58.9  -4.1  33982  286.57 0855.32
2009/04/23 07:52:01.8      89     54     -3    105    106  58.9  -1.8  33986  286.64 0855.31
2009/04/23 07:52:01.9      83     41     11     93     94  63.8   6.9  33990  286.69 0855.31
2009/04/23 07:52:02.0      80     38     10     89     90  64.7   6.5  33992  286.73 0855.31
2009/04/23 07:52:02.1      79     35     27     87     92  65.6  17.3  33992  286.73 0855.31
2009/04/23 07:52:02.2      80     45     18     92     94  60.7  11.1  33984  286.59 0855.31
2009/04/23 07:52:02.3      75     49     10     90     91  56.7   6.9  33982  286.57 0855.31
2009/04/23 07:52:02.4      70     44      5     83     84  57.6   3.8  33984  286.61 0855.31
2009/04/23 07:52:02.5      59     48     -4     77     78  50.5  -3.1  33986  286.62 0855.31
2009/04/23 07:52:02.6      57     50      3     76     77  48.7   2.8  33992  286.74 0855.31
2009/04/23 07:52:02.7      59     48     -4     77     78  50.5  -3.1  33986  286.62 0855.31
2009/04/23 07:52:02.8      68     47     -3     83     84  55.4  -2.2  33982  286.56 0855.31
2009/04/23 07:52:02.9      72     46      1     86     87  57.5   0.8  33986  286.62 0855.31
2009/04/23 07:52:03.0      64     55     11     85     86  49.1   8.0  33992  286.74 0855.31
2009/04/23 07:52:03.1      56     46     21     73     77  50.5  16.3  33992  286.74 0855.31
2009/04/23 07:52:03.2      53     44     23     69     73  50.4  18.9  33992  286.74 0855.31
2009/04/23 07:52:03.3      58     36      3     69     70  57.6   2.8  33990  286.69 0855.31
2009/04/23 07:52:03.4      42     46     12     63     65  42.3  11.1  33992  286.73 0855.31
2009/04/23 07:52:03.5      32     51     21     61     65  32.5  19.2  34008  287.00 0855.31
2009/04/23 07:52:03.6      35     47     22     59     62  37.0  21.0  34004  286.93 0855.31
2009/04/23 07:52:03.7      28     37     20     47     51  37.8  24.1  34002  286.89 0855.31
2009/04/23 07:52:03.8      22     40     15     46     49  29.0  18.9  33998  286.84 0855.32
2009/04/23 07:52:03.9      34     44      2     56     57  37.8   2.9  34002  286.91 0855.32
2009/04/23 07:52:04.0      34     34     -1     49     50  45.0  -2.2  34004  286.93 0855.32
2009/04/23 07:52:04.1      51     43    -13     67     69  49.6 -11.3  34010  287.05 0855.32
2009/04/23 07:52:04.2      37     35     -3     52     53  46.9  -4.1  34012  287.08 0855.32
2009/04/23 07:52:04.3      35     25    -10     44     46  54.0 -13.4  34014  287.10 0855.32
2009/04/23 07:52:04.4      25     32     -1     41     42  37.8  -2.2  34010  287.03 0855.32
2009/04/23 07:52:04.5      38     21     24     44     50  60.2  31.4  34018  287.18 0855.32
2009/04/23 07:52:04.6      62     28     67     69     96  65.6  50.0  34042  287.57 0855.32
2009/04/23 07:52:04.7      73     14     64     75     98  78.6  44.8  34032  287.40 0855.32
2009/04/23 07:52:04.8      73      5     44     74     86  85.6  34.0  34028  287.35 0855.32
2009/04/23 07:52:04.9      72     10     36     73     81  82.1  28.2  34026  287.30 0855.32
2009/04/23 07:52:05.0      70      9     24     71     76  82.1  19.2  34026  287.30 0855.32
2009/04/23 07:52:05.1      45      6    -16     46     48  82.1 -23.3  34024  287.28 0855.32
2009/04/23 07:52:05.2      51      3    -13     52     54  85.7 -14.5  34026  287.32 0855.32
2009/04/23 07:52:05.3      25     -6     -1     26     27 105.1  -2.2  34028  287.35 0855.32
2009/04/23 07:52:05.4      25      5     18     26     31  78.5  37.6  34034  287.43 0855.32
2009/04/23 07:52:05.5      23     19     24     31     39  50.5  43.7  34038  287.50 0855.32
2009/04/23 07:52:05.6      24     42     37     49     61  30.7  40.7  34044  287.60 0855.32
2009/04/23 07:52:05.7      63     56     41     85     94  48.2  27.3  34040  287.55 0855.32
2009/04/23 07:52:05.8      72     54     31     90     96  53.1  19.4  34040  287.54 0855.32
2009/04/23 07:52:05.9      79     48     48     93    104  58.9  29.8  34038  287.52 0855.32
2009/04/23 07:52:06.0      62     20     61     66     89  71.8  47.9  34038  287.52 0855.32
2009/04/23 07:52:06.1      72     24     30     76     81  71.4  22.5  34038  287.52 0855.32
2009/04/23 07:52:06.2      74     19     18     77     80  75.0  13.7  34040  287.54 0855.32
2009/04/23 07:52:06.3      83     19      4     86     87  76.7   2.9  34042  287.57 0855.32
2009/04/23 07:52:06.4      79     26      1     84     85  71.4   0.8  34038  287.52 0855.32
2009/04/23 07:52:06.5      70     43    -15     83     85  58.5 -10.3  34046  287.64 0855.32
2009/04/23 07:52:06.6      62     29    -22     69     73  64.8 -17.6  34042  287.57 0855.32
2009/04/23 07:52:06.7      58      1    -30     59     66  88.3 -33.7  34034  287.45 0855.32
2009/04/23 07:52:06.8      38    -10    -42     40     58 105.1 -53.5  34040  287.55 0855.32
2009/04/23 07:52:06.9      60     20    -28     64     69  70.9 -30.6  34040  287.55 0855.32
2009/04/23 07:52:07.0      65      0    -31     66     72  90.0 -31.5  34032  287.40 0855.32
2009/04/23 07:52:07.1      73    -14     -4     75     76 101.5  -3.2  34028  287.33 0855.32
2009/04/23 07:52:07.2      68    -22     -2     72     73 108.6  -2.2  34030  287.37 0855.32
2009/04/23 07:52:07.3      50     -7     -2     51     52  98.8  -2.2  34030  287.38 0855.32
2009/04/23 07:52:07.4      61      4     26     62     67  85.7  23.1  34032  287.40 0855.32
2009/04/23 07:52:07.5     109      8      7    110    111  85.6   3.8  34040  287.54 0855.32
2009/04/23 07:52:07.6      82     30     -4     88     89  69.6  -2.6  34038  287.52 0855.32
2009/04/23 07:52:07.7      90     39     -3     99    100  66.5  -1.8  34030  287.38 0855.32
2009/04/23 07:52:07.8      65     -4      0     66     67  94.3   0.8  34032  287.42 0855.31
2009/04/23 07:52:07.9      75    -10     17     76     78  97.9  12.6  34026  287.32 0855.31
2009/04/23 07:52:08.0      70     -5     27     71     75  94.3  21.0  34026  287.32 0855.31
2009/04/23 07:52:08.1      69    -17     14     72     74 104.2  11.1  34026  287.32 0855.31
2009/04/23 07:52:08.2      54    -15      2     57     58 105.9   2.9  34034  287.43 0855.31
2009/04/23 07:52:08.3      54    -15      2     57     58 105.9   2.9  34034  287.43 0855.31
2009/04/23 07:52:08.4      54      4     15     55     58  85.7  15.2  34034  287.43 0855.31
2009/04/23 07:52:08.5      51    -10     24     53     58 101.5  26.2  34034  287.43 0855.31
2009/04/23 07:52:08.6      40    -16     19     44     47 111.7  24.1  34034  287.43 0855.31
2009/04/23 07:52:08.7      36      3     23     37     43  83.9  35.5  34036  287.49 0855.31
2009/04/23 07:52:08.8      24      8     18     26     31  71.8  37.6  34040  287.54 0855.31
2009/04/23 07:52:08.9      25     25     18     36     40  45.0  29.3  34046  287.64 0855.31
2009/04/23 07:52:09.0      33     32     41     47     62  46.0  46.9  34054  287.79 0855.31
2009/04/23 07:52:09.1      52     43     31     68     74  50.5  27.1  34076  288.16 0855.31
2009/04/23 07:52:09.2      74     22     52     78     93  73.2  36.5  34084  288.30 0855.31
2009/04/23 07:52:09.3      98     20     -5    101    102  78.1  -3.1  34076  288.16 0855.31
2009/04/23 07:52:09.4     109     42     24    117    120  68.7  11.6  34066  287.99 0855.31
2009/04/23 07:52:09.5      97     39     -1    105    106  67.8  -0.7  34030  287.38 0855.31
2009/04/23 07:52:09.6      93     35      6    100    101  69.2   3.8  34022  287.23 0855.31
2009/04/23 07:52:09.7      90     29     32     95    101  71.8  18.9  34024  287.27 0855.31
2009/04/23 07:52:09.8     100     33     21    106    109  71.4  11.1  34024  287.27 0855.31
2009/04/23 07:52:09.9      89     44     12    100    101  63.4   6.9  34022  287.23 0855.31
2009/04/23 07:52:10.0     104     49     23    116    119  64.6  11.6  34026  287.30 0855.31
2009/04/23 07:52:10.1      83     51     19     98    100  58.5  11.1  34030  287.37 0855.31
2009/04/23 07:52:10.2      71     16     64     73     97  76.7  45.8  34022  287.23 0855.31
2009/04/23 07:52:10.3      82     14     73     84    111  79.9  45.4  34022  287.23 0855.31
2009/04/23 07:52:10.4     118     19    107    120    160  80.8  46.4  34024  287.27 0855.31
2009/04/23 07:52:10.5      84      8    127     85    152  84.3  63.6  34034  287.45 0855.31
2009/04/23 07:52:10.6     109     46    114    119    164  66.9  49.2  34034  287.45 0855.31
2009/04/23 07:52:10.7      95     46     79    106    132  64.2  40.7  34024  287.27 0855.31
2009/04/23 07:52:10.8     112     22    106    115    156  78.5  47.9  34028  287.33 0855.31
2009/04/23 07:52:10.9     115      0    118    116    165  90.0  49.9  34032  287.40 0855.31
2009/04/23 07:52:11.0      91     14     88     93    128  81.2  48.5  34030  287.37 0855.31
2009/04/23 07:52:11.1      70      5     91     71    115  85.6  57.9  34026  287.32 0855.31
2009/04/23 07:52:11.2      32     20     58     39     69  57.5  63.6  34030  287.37 0855.31
2009/04/23 07:52:11.3      11      3     60     12     61  71.6  89.0  34030  287.37 0855.31
2009/04/23 07:52:11.4     -26    -42     42     50     65 211.6  43.8  34032  287.42 0855.31
2009/04/23 07:52:11.5     -12    -55     44     57     72 192.5  42.7  34028  287.35 0855.31
2009/04/23 07:52:11.6     -28    -78     33     84     90 200.0  22.0  34040  287.55 0855.31
2009/04/23 07:52:11.8     -16    -74     31     76     82 192.5  23.0  34048  287.69 0855.31
2009/04/23 07:52:11.9     -22    -74     33     78     84 196.9  23.6  34046  287.65 0855.31
2009/04/23 07:52:12.0     -21    -82     33     85     91 194.7  22.0  34046  287.65 0855.31
2009/04/23 07:52:12.1     -21    -85     39     88     96 194.3  25.7  34050  287.70 0855.31
2009/04/23 07:52:12.2     -20    -83     47     86     98 193.8  30.8  34052  287.76 0855.31
2009/04/23 07:52:12.3     -14    -83     36     85     92 189.8  24.1  34052  287.76 0855.31
2009/04/23 07:52:12.4     -14   -101     40    103    110 188.0  22.5  34008  287.01 0855.31
2009/04/23 07:52:12.5     -10   -113     49    114    124 185.3  24.6  33986  286.62 0855.31
2009/04/23 07:52:12.6       8   -105     48    106    116 175.6  26.6  33984  286.59 0855.31
2009/04/23 07:52:12.7      18   -128     58    130    142 172.0  25.2  33974  286.44 0855.31
2009/04/23 07:52:12.8      31   -119     64    123    138 165.3  29.3  33968  286.32 0855.31
2009/04/23 07:52:12.9      23   -129     58    132    144 169.8  25.2  33966  286.29 0855.31
2009/04/23 07:52:13.0      20   -123     53    125    135 170.7  24.6  33966  286.30 0855.31
2009/04/23 07:52:13.1      27   -118     46    122    130 167.1  21.5  33968  286.32 0855.31
2009/04/23 07:52:13.2      34   -114     46    120    128 163.1  22.0  33962  286.22 0855.31
2009/04/23 07:52:13.3      32   -110     44    115    123 163.5  21.5  33962  286.24 0855.31
2009/04/23 07:52:13.4      32   -110     44    115    123 163.5  21.5  33962  286.24 0855.31
2009/04/23 07:52:13.5      32   -111     57    116    129 163.5  27.8  33964  286.25 0855.31
2009/04/23 07:52:13.6      37   -111     62    118    133 161.3  29.8  33966  286.30 0855.31
2009/04/23 07:52:13.7      31   -119     64    123    138 165.3  29.3  33966  286.29 0855.31
2009/04/23 07:52:13.8      32   -119     69    124    141 164.8  31.4  33968  286.34 0855.31
2009/04/23 07:52:13.9      23   -112     68    115    133 168.4  33.5  33968  286.32 0855.31
2009/04/23 07:52:14.0      23   -115     70    118    137 168.4  33.5  33966  286.30 0855.31
2009/04/23 07:52:14.1      25   -122     65    125    140 168.4  29.3  33964  286.27 0855.31
2009/04/23 07:52:14.2      31    -92     65     98    117 161.3  37.0  33968  286.34 0855.31
2009/04/23 07:52:14.3      18    -92     66     94    114 168.4  38.6  33966  286.29 0855.31
2009/04/23 07:52:14.4      10    -99     58    100    115 174.2  33.5  33974  286.44 0855.31
2009/04/23 07:52:14.5       6    -98     60     99    115 176.0  35.0  33980  286.54 0855.31
2009/04/23 07:52:14.6      30    -89     32     95    101 161.3  18.9  33976  286.46 0855.31
2009/04/23 07:52:14.7      24   -117     16    120    122 168.4   8.0  33986  286.62 0855.31
2009/04/23 07:52:14.8     -21   -100     39    103    110 192.0  21.5  33978  286.49 0855.31
2009/04/23 07:52:14.9     -15   -114     39    116    123 187.6  18.9  33968  286.34 0855.32
2009/04/23 07:52:15.0      -1   -113     43    114    121 180.9  21.0  33966  286.29 0855.32
2009/04/23 07:52:15.1      10   -134     31    135    139 175.5  13.2  33966  286.29 0855.32
2009/04/23 07:52:15.2      24   -151     31    154    158 170.7  11.6  33966  286.30 0855.32
2009/04/23 07:52:15.3       0   -165     31    166    169 180.2  10.8  33968  286.32 0855.32
2009/04/23 07:52:15.4     -31   -137     40    141    147 192.9  15.8  33968  286.32 0855.32
2009/04/23 07:52:15.5      -7   -138     45    139    147 183.1  17.9  33970  286.35 0855.32
2009/04/23 07:52:15.6      -5   -137     41    138    145 182.2  16.8  33966  286.30 0855.32
2009/04/23 07:52:15.7     -24   -144     31    147    151 189.8  12.2  33968  286.34 0855.32
2009/04/23 07:52:15.8     -41   -144     40    150    156 196.0  15.0  33970  286.35 0855.32
2009/04/23 07:52:15.9     -40   -138     28    144    147 196.5  11.1  33966  286.30 0855.32
2009/04/23 07:52:16.0     -39   -119     20    126    128 198.3   9.0  33966  286.29 0855.32
2009/04/23 07:52:16.1     -32   -109     11    114    115 196.5   5.9  33968  286.32 0855.32
2009/04/23 07:52:16.2     -15   -100     29    102    107 188.5  15.8  33968  286.32 0855.32
2009/04/23 07:52:16.3     -30   -114     51    119    129 195.1  25.1  33952  286.05 0855.32
2009/04/23 07:52:16.4     -38   -114     47    121    129 198.7  22.0  33944  285.93 0855.32
2009/04/23 07:52:16.5     -22   -108     46    111    120 191.5  23.6  33964  286.25 0855.32
2009/04/23 07:52:16.6       0   -104     42    105    113 180.4  23.0  33970  286.35 0855.32
2009/04/23 07:52:16.7      -3   -100     49    101    112 181.8  27.3  33968  286.34 0855.32
2009/04/23 07:52:16.8       8   -108     48    109    119 175.6  25.1  33970  286.35 0855.32
2009/04/23 07:52:16.9      18    -92     46     94    104 168.4  27.8  33970  286.37 0855.32
2009/04/23 07:52:17.0      27    -86     33     91     96 162.2  20.0  33968  286.32 0855.32
2009/04/23 07:52:17.1      24   -101     31    104    109 166.6  16.8  33966  286.29 0855.32
2009/04/23 07:52:17.2      23   -104     29    107    111 167.5  15.3  33964  286.27 0855.32
2009/04/23 07:52:17.3      30   -100     29    105    110 163.1  15.8  33964  286.27 0855.32
2009/04/23 07:52:17.4      43    -94     36    104    111 155.1  19.2  33968  286.32 0855.32
2009/04/23 07:52:17.5      27    -96     27    100    104 164.0  15.2  33970  286.35 0855.32
2009/04/23 07:52:17.6      29    -77     28     83     88 159.1  18.9  33970  286.37 0855.32
2009/04/23 07:52:17.7      26    -79     40     84     93 161.7  27.2  33970  286.35 0855.32
2009/04/23 07:52:17.8      15    -77     42     79     89 168.4  30.3  33970  286.37 0855.32
2009/04/23 07:52:17.9      -4    -87     33     88     93 183.1  20.4  33970  286.37 0855.32
2009/04/23 07:52:18.0       1    -99     34    100    106 179.1  18.9  33968  286.34 0855.32
2009/04/23 07:52:18.1       0    -97     37     98    104 180.5  21.0  33970  286.37 0855.32
2009/04/23 07:52:18.2      -4    -93     42     94    102 182.7  25.7  33968  286.32 0855.32
2009/04/23 07:52:18.3      -6    -97     34     98    104 184.0  19.4  33970  286.37 0855.32
2009/04/23 07:52:18.4      -9    -96     27     97    101 185.8  15.8  33970  286.37 0855.32
2009/04/23 07:52:18.5      -7    -91     31     92     98 184.5  18.9  33970  286.35 0855.32
2009/04/23 07:52:18.6       1    -74     36     75     83 179.1  27.2  33968  286.34 0855.32
2009/04/23 07:52:18.7       6    -88     47     89    100 175.5  30.3  33972  286.41 0855.32
2009/04/23 07:52:18.8       1    -73     49     74     88 179.0  36.5  33976  286.46 0855.32
2009/04/23 07:52:18.9       1    -73     49     74     88 179.0  36.5  33976  286.46 0855.32
2009/04/23 07:52:19.0       4    -76     50     77     91 176.4  35.6  33976  286.47 0855.32
2009/04/23 07:52:19.1      16    -71     50     73     88 166.6  37.6  33978  286.49 0855.32
2009/04/23 07:52:19.2      24    -50     57     56     79 154.6  50.1  33976  286.46 0855.32
2009/04/23 07:52:19.3      22    -47     55     53     76 154.5  50.1  33976  286.47 0855.32
2009/04/23 07:52:19.4      18    -53     49     57     75 161.3  44.8  33976  286.47 0855.32
2009/04/23 07:52:19.5       1    -41     41     42     58 178.2  52.0  33974  286.42 0855.32
2009/04/23 07:52:19.6      18    -45     52     49     71 157.3  52.1  33974  286.44 0855.32
2009/04/23 07:52:19.7      20    -43     53     48     71 154.6  52.2  33976  286.46 0855.32
2009/04/23 07:52:19.8      16    -71     57     73     92 166.6  42.7  33972  286.41 0855.32
2009/04/23 07:52:19.9      59    -71     64     93    112 140.4  38.0  33974  286.44 0855.32
2009/04/23 07:52:20.0      41    -83     55     93    108 153.3  34.0  33970  286.37 0855.32
2009/04/23 07:52:20.1      30    -87     57     93    109 160.8  35.0  33970  286.35 0855.32
2009/04/23 07:52:20.2      36    -96     48    103    113 159.5  27.1  33970  286.35 0855.32
2009/04/23 07:52:20.3      41    -84     54     94    108 154.1  32.4  33970  286.37 0855.32
2009/04/23 07:52:20.4      38    -74     64     84    105 152.8  41.2  33970  286.37 0855.32
2009/04/23 07:52:20.5      32    -83     46     90    101 158.6  29.3  33970  286.37 0855.32
2009/04/23 07:52:20.6      32    -83     46     90    101 158.6  29.3  33970  286.37 0855.32
2009/04/23 07:52:20.7      31    -83     34     89     95 159.1  21.0  33970  286.35 0855.32
2009/04/23 07:52:20.8      32    -88     32     94    100 159.5  18.9  33968  286.34 0855.32
2009/04/23 07:52:20.9      42   -102     39    111    117 157.7  20.0  33968  286.34 0855.32
2009/04/23 07:52:21.0      33   -110     25    116    119 163.1  12.2  33968  286.32 0855.32
2009/04/23 07:52:21.1      29   -110     35    114    120 164.9  17.4  33966  286.29 0855.32
2009/04/23 07:52:21.2      10   -128     28    129    133 175.1  12.2  33966  286.29 0855.32
2009/04/23 07:52:21.3      23   -109     42    112    119 168.0  21.0  33968  286.32 0855.32
2009/04/23 07:52:21.4      47   -100     53    111    123 154.5  27.2  33970  286.35 0855.32
2009/04/23 07:52:21.5      60    -95     50    113    123 147.5  25.1  33968  286.32 0855.32
2009/04/23 07:52:21.6      70   -104     53    126    136 145.8  24.1  33970  286.35 0855.32
2009/04/23 07:52:21.7      77    -93     42    121    129 140.4  19.4  33966  286.30 0855.32
2009/04/23 07:52:21.8      85    -98     43    130    137 139.0  18.4  33970  286.35 0855.32
2009/04/23 07:52:21.9      80    -85     19    118    120 136.8   9.5  33968  286.34 0855.32
2009/04/23 07:52:22.0     100    -92     44    137    145 132.7  17.9  33970  286.37 0855.32
2009/04/23 07:52:22.1      89    -83     53    122    133 133.1  25.1  33976  286.46 0855.32
2009/04/23 07:52:22.2      98    -85     62    130    144 130.9  27.3  33976  286.46 0855.32
2009/04/23 07:52:22.3     101    -89     50    135    143 131.3  21.0  33976  286.47 0855.32
2009/04/23 07:52:22.4      88    -73     22    115    118 129.5  11.1  33974  286.42 0855.32
2009/04/23 07:52:22.5      89    -73     13    116    117 129.5   6.9  33970  286.35 0855.32
2009/04/23 07:52:22.6      94    -80     19    124    126 130.4   8.9  33968  286.34 0855.32
2009/04/23 07:52:22.7      94    -77     13    122    123 129.5   6.5  33970  286.35 0855.32
2009/04/23 07:52:22.8      84    -75     12    114    115 131.8   6.5  33970  286.37 0855.32
2009/04/23 07:52:22.9      67    -91     14    114    115 143.5   7.1  33968  286.34 0855.32
2009/04/23 07:52:23.0      61    -76     27     98    102 141.3  15.8  33970  286.37 0855.32
2009/04/23 07:52:23.1      69    -71     27    100    104 135.9  15.2  33970  286.35 0855.32
2009/04/23 07:52:23.2      73    -69     27    101    105 133.1  15.3  33972  286.39 0855.32
2009/04/23 07:52:23.3      77    -64     31    101    106 129.6  17.3  33968  286.34 0855.32
2009/04/23 07:52:23.4      70    -86      9    112    113 140.8   4.9  33970  286.35 0855.32
2009/04/23 07:52:23.5      74    -96     11    122    123 142.1   5.4  33970  286.35 0855.32
2009/04/23 07:52:23.6      86    -77     36    116    122 131.8  17.4  33972  286.41 0855.32
2009/04/23 07:52:23.7      83    -64     33    105    111 127.8  17.3  33970  286.37 0855.32
2009/04/23 07:52:23.8      52    -52     30     74     79 134.9  23.6  33976  286.46 0855.32
2009/04/23 07:52:23.9      51    -54     28     75     80 136.8  21.0  33974  286.42 0855.32
2009/04/23 07:52:24.0      65    -49     28     82     87 126.9  19.4  33974  286.42 0855.32
2009/04/23 07:52:24.1      70    -38     18     80     83 118.9  12.6  33972  286.41 0855.32
2009/04/23 07:52:24.2      39    -39      4     56     57 135.0   4.9  33974  286.42 0855.32
2009/04/23 07:52:24.3      36    -32     16     49     52 131.3  18.4  33974  286.42 0855.32
2009/04/23 07:52:24.4      35    -32     28     48     55 132.2  34.4  33974  286.42 0855.32
2009/04/23 07:52:24.5      48    -48     18     68     71 135.0  15.3  33972  286.41 0855.32
2009/04/23 07:52:24.6      27    -47     19     55     59 150.1  18.9  33974  286.44 0855.32
2009/04/23 07:52:24.7      16    -50     22     53     57 162.2  23.0  33976  286.46 0855.32
2009/04/23 07:52:24.8      14    -69     21     71     75 168.5  16.3  33974  286.42 0855.32
2009/04/23 07:52:24.9      16    -71     15     73     75 166.6  12.2  33972  286.41 0855.32
2009/04/23 07:52:25.0      14    -69     21     71     75 168.5  16.3  33974  286.42 0855.32
2009/04/23 07:52:25.1       4    -73     28     74     79 176.4  21.5  33972  286.39 0855.32
2009/04/23 07:52:25.2      -1   -100     40    101    108 180.9  23.0  33972  286.39 0855.32
2009/04/23 07:52:25.3      -8   -107     45    108    117 184.4  23.1  33970  286.35 0855.32
2009/04/23 07:52:25.4      -8   -112     42    113    120 184.5  21.0  33970  286.35 0855.32
2009/04/23 07:52:25.5     -28    -94     40     99    106 196.5  23.0  33970  286.35 0855.32
2009/04/23 07:52:25.6     -57    -81     18    100    102 215.2  10.6  33968  286.34 0855.32
2009/04/23 07:52:25.7     -37    -58     13     69     71 212.6  11.1  33970  286.37 0855.32
2009/04/23 07:52:25.8     -29    -32     17     44     47 221.4  21.0  33968  286.34 0855.32
2009/04/23 07:52:25.9     -17    -22     21     28     35 217.8  39.7  33972  286.41 0855.32
2009/04/23 07:52:26.0       5     -4     20      7     21 129.5  81.0  33970  286.37 0855.32
2009/04/23 07:52:26.1      35      7     21     36     41  78.5  32.4  33972  286.41 0855.32
2009/04/23 07:52:26.2      55      4     47     56     73  85.7  43.8  33972  286.39 0855.32
2009/04/23 07:52:26.3      67      3     50     68     84  87.4  40.1  33970  286.37 0855.32
2009/04/23 07:52:26.4      77     -5     48     78     91  94.4  35.0  33970  286.35 0855.32
2009/04/23 07:52:26.5      84     -8     31     85     90  95.7  21.0  33970  286.35 0855.32
2009/04/23 07:52:26.6     110    -15     53    112    123  98.0  27.1  33970  286.35 0855.32
2009/04/23 07:52:26.7      55    -35     78     66    102 122.5  55.4  33970  286.37 0855.32
2009/04/23 07:52:26.8      76    -71     88    105    137 133.1  43.8  33970  286.35 0855.32
2009/04/23 07:52:26.9      58    -73     94     94    132 141.3  50.1  33970  286.37 0855.33
2009/04/23 07:52:27.0      37    -59     60     70     92 147.5  45.4  33970  286.37 0855.33
2009/04/23 07:52:27.1      25    -48     35     55     65 151.9  35.5  33972  286.41 0855.33
2009/04/23 07:52:27.2      10    -32     39     34     51 161.7  54.3  33972  286.41 0855.33
2009/04/23 07:52:27.3      33    -45     19     56     60 143.9  19.4  33972  286.39 0855.33
2009/04/23 07:52:27.4      26    -21     12     34     37 129.5  19.2  33972  286.39 0855.33
2009/04/23 07:52:27.5      15    -12    -11     20     22 129.5 -35.8  33972  286.41 0855.33
2009/04/23 07:52:27.6      12      0    -54     13     55  94.4 -90.0  33972  286.39 0855.33
2009/04/23 07:52:27.7      24    -12    -55     28     61 117.1 -76.3  33970  286.37 0855.33
2009/04/23 07:52:27.8      16     -5    -60     17     62 108.2 -89.2  33972  286.39 0855.33
2009/04/23 07:52:27.9      -4    -28    -44     29     52 189.8 -69.0  33972  286.39 0855.33
2009/04/23 07:52:28.0      -9    -68    -49     69     84 188.0 -43.0  33972  286.39 0855.33
2009/04/23 07:52:28.1      -6    -72    -47     73     86 185.3 -40.0  33972  286.39 0855.33
2009/04/23 07:52:28.2       0    -57    -23     58     62 180.9 -27.4  33972  286.39 0855.33
2009/04/23 07:52:28.3       1    -56     -7     57     58 178.2  -7.2  33972  286.41 0855.33
2009/04/23 07:52:28.4      17    -53      2     56     57 161.7   2.9  33972  286.39 0855.33
2009/04/23 07:52:28.5       3    -31     31     32     44 173.8  51.1  33972  286.41 0855.33
2009/04/23 07:52:28.6      -8    -26     28     28     39 198.3  50.1  33974  286.42 0855.33
2009/04/23 07:52:28.7      -8    -22     17     24     29 200.0  37.6  33972  286.41 0855.33
2009/04/23 07:52:28.8      -5    -12      8     14     16 201.8  35.5  33972  286.39 0855.33
2009/04/23 07:52:28.9     -12     -6     19     14     23 241.1  58.5  33974  286.44 0855.33
2009/04/23 07:52:29.0       9     -5     36     11     37 122.4  80.7  33972  286.39 0855.33
2009/04/23 07:52:29.1      35     -1     66     36     75  92.6  68.8  33972  286.41 0855.33
2009/04/23 07:52:29.2      68     18     52     71     88  75.0  39.7  33972  286.39 0855.33
2009/04/23 07:52:29.3      73      5     44     74     86  85.6  34.0  33972  286.41 0855.33
2009/04/23 07:52:29.4      36     17     45     40     60  64.6  53.3  33974  286.42 0855.33
2009/04/23 07:52:29.5      13    -16     40     21     45 140.4  69.8  33972  286.41 0855.33
2009/04/23 07:52:29.6       0    -52     38     53     65 180.9  39.5  33972  286.39 0855.33
2009/04/23 07:52:29.7     -16    -50     51     53     73 198.7  50.0  33974  286.42 0855.33
2009/04/23 07:52:29.8       4    -63     65     64     91 176.4  50.1  33976  286.47 0855.33
2009/04/23 07:52:29.9      -8    -65     66     66     93 187.1  50.1  33978  286.49 0855.33
2009/04/23 07:52:30.0      -9    -69     64     70     94 188.0  47.5  33978  286.49 0855.33
2009/04/23 07:52:30.1      -5    -77     69     78    104 184.4  46.9  33978  286.49 0855.33
2009/04/23 07:52:30.2      -3    -65     78     66    102 182.7  55.4  33980  286.54 0855.33
2009/04/23 07:52:30.3      -4    -61     68     62     92 184.5  52.7  33976  286.47 0855.33
2009/04/23 07:52:30.4       9    -81     85     82    118 173.3  51.2  33978  286.51 0855.33
2009/04/23 07:52:30.5     -12   -108     86    109    138 186.7  42.2  33976  286.47 0855.33
2009/04/23 07:52:30.6       8    -95     92     96    132 174.7  49.4  33972  286.39 0855.33
2009/04/23 07:52:30.7       1   -108    103    109    149 179.0  48.0  33976  286.47 0855.33
2009/04/23 07:52:30.8      12   -118    113    119    164 174.2  49.0  33976  286.46 0855.33
2009/04/23 07:52:30.9      21    -95    108     98    145 167.1  52.2  33978  286.49 0855.33
2009/04/23 07:52:31.0       0    -87     97     88    130 180.0  53.3  33978  286.51 0855.33
2009/04/23 07:52:31.1      -5    -73    100     74    124 184.5  60.0  33980  286.54 0855.33
2009/04/23 07:52:31.2       5    -91     87     92    126 176.4  48.5  33982  286.56 0855.33
2009/04/23 07:52:31.3       0    -90     94     91    130 180.4  50.7  33980  286.52 0855.33
2009/04/23 07:52:31.4      19    -39     90     44    100 153.7  72.4  33978  286.49 0855.33
2009/04/23 07:52:31.5       0    -62     92     63    111 179.1  62.6  33978  286.51 0855.33
2009/04/23 07:52:31.6       0    -45     93     46    103 180.9  72.4  33978  286.51 0855.33
2009/04/23 07:52:31.7       0    -31     67     32     74 180.9  73.1  33976  286.46 0855.33
2009/04/23 07:52:31.8     -10    -22     71     25     75 203.6  81.2  33980  286.52 0855.33
2009/04/23 07:52:31.9     -10   -109     91    110    142 185.3  43.8  33976  286.46 0855.33
2009/04/23 07:52:32.0     -24   -127     51    130    139 190.7  22.5  33976  286.47 0855.33
2009/04/23 07:52:32.1     -11   -126     17    127    129 185.3   8.0  33976  286.47 0855.33
2009/04/23 07:52:32.2      -9   -109     28    110    114 184.9  14.3  33974  286.42 0855.33
2009/04/23 07:52:32.3      -9   -124     22    125    127 184.5  10.1  33974  286.42 0855.33
2009/04/23 07:52:32.4     -12   -136     14    137    138 185.3   5.9  33974  286.44 0855.33
2009/04/23 07:52:32.5      -9   -124      6    125    126 184.4   2.9  33974  286.44 0855.33
2009/04/23 07:52:32.6     -15   -131     19    132    134 186.7   8.5  33972  286.39 0855.33
2009/04/23 07:52:32.7      -8   -107     21    108    111 184.4  11.1  33974  286.44 0855.33
2009/04/23 07:52:32.8      -8   -100      7    101    102 184.9   4.4  33978  286.49 0855.33
2009/04/23 07:52:32.9     -39   -114     -2    121    122 199.2  -1.3  33976  286.47 0855.33
2009/04/23 07:52:33.0     -24    -96      4    100    101 194.3   2.8  33976  286.46 0855.33
2009/04/23 07:52:33.1     -34   -103     24    109    112 198.5  12.6  33974  286.44 0855.33
2009/04/23 07:52:33.2     -25    -76     34     81     87 198.5  23.6  33974  286.44 0855.33
2009/04/23 07:52:33.3       9    -70     34     71     78 172.0  27.2  33972  286.41 0855.33
2009/04/23 07:52:33.4      -4    -70     42     71     82 183.6  33.5  33974  286.42 0855.33
2009/04/23 07:52:33.5      -5    -80     27     81     86 184.0  18.9  33974  286.44 0855.33
2009/04/23 07:52:33.6     -26    -78     17     83     85 198.5  12.2  33974  286.44 0855.33
2009/04/23 07:52:33.7     -16    -90     13     92     94 190.2   8.5  33974  286.44 0855.33
2009/04/23 07:52:33.8      -6    -76     24     77     81 184.5  17.9  33974  286.42 0855.33
2009/04/23 07:52:33.9     -13    -76     27     78     83 189.8  19.4  33972  286.41 0855.33
2009/04/23 07:52:34.0      -5    -85     55     86    102 183.6  35.5  33974  286.42 0855.33
2009/04/23 07:52:34.1      -8   -101     51    102    114 184.9  28.2  33978  286.49 0855.33
2009/04/23 07:52:34.2     -18   -102     41    104    111 190.2  22.5  33978  286.49 0855.33
2009/04/23 07:52:34.3     -21   -105     38    108    115 191.6  19.4  33976  286.47 0855.33
2009/04/23 07:52:34.4     -18   -102     41    104    111 190.2  22.5  33978  286.49 0855.33
2009/04/23 07:52:34.5      -8   -101     37    102    108 184.9  20.4  33978  286.49 0855.33
2009/04/23 07:52:34.6     -20    -77     52     80     95 195.1  35.6  33974  286.42 0855.33
2009/04/23 07:52:34.7      -9    -77     64     78    100 187.1  43.7  33976  286.46 0855.33
2009/04/23 07:52:34.8      -2    -81     71     82    108 181.8  45.4  33976  286.46 0855.33
2009/04/23 07:52:34.9      -8    -73     66     74     99 186.2  46.9  33976  286.46 0855.32
2009/04/23 07:52:35.0      -5    -70     82     71    108 184.4  54.8  33974  286.42 0855.32
2009/04/23 07:52:35.1     -11    -66     75     68    101 189.8  52.7  33976  286.46 0855.32
2009/04/23 07:52:35.2      -4    -61     62     62     87 184.5  50.1  33972  286.41 0855.32
2009/04/23 07:52:35.3       5    -66     73     67     99 175.5  52.2  33974  286.42 0855.32
2009/04/23 07:52:35.4       0    -52     69     53     87 180.0  58.5  33970  286.37 0855.32
2009/04/23 07:52:35.5      -2    -23     42     24     48 186.2  66.8  33970  286.35 0855.32
2009/04/23 07:52:35.6       4    -36     36     37     51 173.8  50.0  33974  286.42 0855.32
2009/04/23 07:52:35.7      48    -18     46     52     69 110.8  46.9  33970  286.37 0855.32
2009/04/23 07:52:35.8      47    -22     45     53     69 115.3  43.8  33972  286.39 0855.32
2009/04/23 07:52:35.9      33    -33     59     48     76 135.0  56.4  33972  286.39 0855.32
2009/04/23 07:52:36.0      -4    -59     47     60     76 184.5  42.7  33974  286.42 0855.32
2009/04/23 07:52:36.1      64    -21     35     68     76 108.2  29.3  33972  286.41 0855.32
2009/04/23 07:52:36.2       0    -40     67     41     78 180.0  65.7  33972  286.39 0855.32
2009/04/23 07:52:36.3       5    -80     85     81    117 176.4  51.2  33974  286.42 0855.32
2009/04/23 07:52:36.4       6   -113     66    114    131 176.9  32.9  33976  286.46 0855.32
2009/04/23 07:52:36.5       0    -97     62     98    115 179.5  35.5  33976  286.46 0855.32
2009/04/23 07:52:36.6      22    -76     70     80    106 164.0  46.4  33976  286.46 0855.32
2009/04/23 07:52:36.7      11   -109     87    110    140 174.2  42.2  33978  286.49 0855.32
2009/04/23 07:52:36.8       0    -90    101     91    135 180.4  53.3  33974  286.44 0855.32
2009/04/23 07:52:36.9      20    -43     92     48    103 154.6  69.8  33974  286.44 0855.32
2009/04/23 07:52:37.0      23    -37     97     44    106 148.4  74.0  33974  286.44 0855.32
2009/04/23 07:52:37.1      61    -43    103     75    127 125.1  60.5  33974  286.42 0855.32
2009/04/23 07:52:37.2      40    -17     98     44    107 113.5  74.0  33974  286.44 0855.32
2009/04/23 07:52:37.3       5    -57    107     58    121 174.7  69.3  33978  286.51 0855.32
2009/04/23 07:52:37.4      -2    -26     96     27     99 184.5  84.4  33978  286.49 0855.32
2009/04/23 07:52:37.5      -5    -65    112     66    130 184.5  66.8  33978  286.51 0855.32
2009/04/23 07:52:37.6     -35    -74    126     83    150 205.4  64.1  33980  286.54 0855.32
2009/04/23 07:52:37.7     -31    -95     90    101    135 198.5  45.9  33982  286.56 0855.32
2009/04/23 07:52:37.8      -8   -103     72    104    126 184.9  37.6  33982  286.56 0855.32
2009/04/23 07:52:37.9     -16    -86     75     88    115 191.1  44.3  33982  286.56 0855.32
2009/04/23 07:52:38.0     -15    -87     76     89    117 190.2  44.8  33982  286.56 0855.32
2009/04/23 07:52:38.1      -6    -94     90     95    130 183.6  48.5  33980  286.54 0855.32
2009/04/23 07:52:38.2     -37   -113     65    120    136 198.3  30.8  33978  286.51 0855.32
2009/04/23 07:52:38.3     -30    -93     39     98    105 198.3  23.0  33980  286.52 0855.32
2009/04/23 07:52:38.4       0    -92     59     93    110 179.5  35.5  33972  286.41 0855.32
2009/04/23 07:52:38.5      25    -95     53     99    112 165.3  30.8  33968  286.34 0855.32
2009/04/23 07:52:38.6     -16   -114     85    116    143 188.0  39.7  33966  286.30 0855.32
2009/04/23 07:52:38.7     -40    -83     97     93    134 205.5  50.7  33966  286.30 0855.32
2009/04/23 07:52:38.8      -4    -72     83     73    110 183.6  54.3  33968  286.34 0855.32
2009/04/23 07:52:38.9      -1    -39     58     40     70 182.6  61.5  33966  286.30 0855.32
2009/04/23 07:52:39.0      11     -5     31     13     33 115.3  77.1  33968  286.34 0855.32
2009/04/23 07:52:39.1      13     14     33     20     38  41.4  64.7  33966  286.30 0855.32
2009/04/23 07:52:39.2     -34     31     44     47     64 312.2  48.0  33970  286.35 0855.32
2009/04/23 07:52:39.3       7     47     42     48     63   8.9  46.9  33968  286.32 0855.32
2009/04/23 07:52:39.4      27     69     57     75     94  21.8  41.2  33968  286.34 0855.32
2009/04/23 07:52:39.6      64     64     62     91    110  45.0  37.6  33968  286.34 0855.32
2009/04/23 07:52:39.7      16     80     48     82     95  11.6  34.0  33968  286.32 0855.32
2009/04/23 07:52:39.8       9     53     26     54     59   9.8  27.3  33970  286.35 0855.32
2009/04/23 07:52:39.9      30     47     25     56     61  32.5  25.1  33968  286.34 0855.32
2009/04/23 07:52:40.0       6     42     27     43     50   8.9  35.5  33968  286.34 0855.32
2009/04/23 07:52:40.1     -17     56     23     59     63 343.1  22.0  33972  286.39 0855.32
2009/04/23 07:52:40.2     -23     68     13     73     75 340.8  10.1  33972  286.39 0855.32
2009/04/23 07:52:40.3     -42     64     27     77     81 326.6  20.0  33964  286.25 0855.32
2009/04/23 07:52:40.4     -32     57     27     66     71 330.1  23.0  33966  286.29 0855.32
2009/04/23 07:52:40.5     -22     55     20     60     64 338.1  18.9  33966  286.29 0855.32
2009/04/23 07:52:40.6      -1     53     24     54     59 358.2  25.1  33972  286.39 0855.32
2009/04/23 07:52:40.7      -1     58     26     59     64 358.2  24.1  33972  286.41 0855.32
2009/04/23 07:52:40.8      -5     16      6     17     19 341.5  18.9  33972  286.41 0855.32
2009/04/23 07:52:40.9       2    -25     28     26     38 175.5  48.2  33976  286.47 0855.32
2009/04/23 07:52:41.0      11     12     38     17     41  43.2  75.0  33980  286.54 0855.32
2009/04/23 07:52:41.1      38     30     52     49     71  52.2  52.1  33982  286.56 0855.32
2009/04/23 07:52:41.2      18     -1     46     19     49  94.4  77.1  33980  286.52 0855.32
2009/04/23 07:52:41.3      -8      0     44      9     44 270.0  90.0  33978  286.51 0855.32
2009/04/23 07:52:41.4     -15     -2     37     16     40 262.1  75.0  33980  286.54 0855.32
2009/04/23 07:52:41.5     -12     14     26     19     32 320.4  60.5  33982  286.56 0855.32
2009/04/23 07:52:41.6      -2     38     23     39     45 355.6  34.4  33980  286.54 0855.32
2009/04/23 07:52:41.7     -18     34     19     39     43 331.0  27.2  33980  286.54 0855.32
2009/04/23 07:52:41.8      -7     36     16     37     40 348.4  25.1  33980  286.54 0855.32
2009/04/23 07:52:41.9       3     40     11     41     43   4.5  15.3  33980  286.54 0855.32
2009/04/23 07:52:42.0       7     21      8     23     25  18.3  19.2  33982  286.56 0855.32
2009/04/23 07:52:42.1     -14     -2     -2     15     16 262.1  -7.2  33980  286.54 0855.32
2009/04/23 07:52:42.2     -26    -16    -10     31     32 237.6 -23.8  33980  286.54 0855.32
2009/04/23 07:52:42.3     -15    -17    -15     23     27 221.4 -40.0  33980  286.54 0855.32
2009/04/23 07:52:42.4     -19     -6    -11     20     22 251.8 -35.8  33976  286.47 0855.32
2009/04/23 07:52:42.5      -1    -18    -16     19     24 184.4 -50.2  33980  286.54 0855.32
2009/04/23 07:52:42.6     -24    -15    -15     29     32 237.6 -33.7  33978  286.49 0855.32
2009/04/23 07:52:42.7     -14      0    -18     15     23 270.0 -58.7  33978  286.49 0855.32
2009/04/23 07:52:42.8     -10    -10    -11     15     18 225.0 -44.1  33980  286.54 0855.32
2009/04/23 07:52:42.9      -1    -16     11     17     20 184.5  37.6  33980  286.52 0855.32
2009/04/23 07:52:43.0      31     -2      6     32     33  94.4  11.0  33980  286.52 0855.32
2009/04/23 07:52:43.1      21     -7      8     23     25 108.6  19.2  33978  286.51 0855.32
2009/04/23 07:52:43.2      15    -11     15     19     24 126.0  43.7  33980  286.54 0855.32
2009/04/23 07:52:43.3      18     -2     26     19     32  97.9  60.5  33978  286.51 0855.32
2009/04/23 07:52:43.4      17     -5     24     18     30 108.2  58.5  33976  286.47 0855.32
2009/04/23 07:52:43.5       6      7     28     10     29  43.2  81.2  33978  286.49 0855.32
2009/04/23 07:52:43.6       6      0     28      7     28  90.0  84.9  33976  286.46 0855.32
2009/04/23 07:52:43.7      38     12     31     40     50  72.3  42.7  33976  286.46 0855.32
2009/04/23 07:52:43.8      50     16     28     53     59  72.3  30.3  33976  286.47 0855.32
2009/04/23 07:52:43.9      61     18     39     64     74  73.2  35.5  33976  286.46 0855.32
2009/04/23 07:52:44.0      68     18     36     71     79  74.9  28.7  33976  286.46 0855.31
2009/04/23 07:52:44.1      42     14     31     45     54  71.8  37.6  33978  286.49 0855.31
2009/04/23 07:52:44.2      28     19     35     34     48  55.8  49.1  33976  286.46 0855.31
2009/04/23 07:52:44.3      31     18     39     37     53  59.3  50.1  33976  286.46 0855.31
2009/04/23 07:52:44.4      23    -19     44     30     53 129.5  62.6  33978  286.51 0855.31
2009/04/23 07:52:44.5      32    -15     44     36     56 115.3  56.4  33982  286.56 0855.31
2009/04/23 07:52:44.6      26     -8     40     28     48 108.6  61.5  33982  286.57 0855.31
2009/04/23 07:52:44.7       0     -2     28      3     28 161.5  90.0  33984  286.59 0855.31
2009/04/23 07:52:44.8      -5     -2     32      6     32 244.7  89.1  33980  286.54 0855.31
2009/04/23 07:52:44.9     -15      4     37     16     40 285.1  75.0  33980  286.54 0855.31
2009/04/23 07:52:45.0      -1      8     27      9     28 350.3  81.0  33980  286.54 0855.31
2009/04/23 07:52:45.1       0     11     28     12     30   4.5  75.0  33980  286.52 0855.31
2009/04/23 07:52:45.2       0     11     28     12     30   4.5  75.0  33980  286.52 0855.31
2009/04/23 07:52:45.3       0     -2     35      3     35 161.5  90.0  33982  286.56 0855.31
2009/04/23 07:52:45.4       1     -6     39      7     39 168.4  90.0  33982  286.57 0855.31
2009/04/23 07:52:45.5     -13    -33     32     36     48 201.8  47.9  33982  286.56 0855.31
2009/04/23 07:52:45.6     -11    -35     42     37     55 198.7  54.3  33980  286.54 0855.31
2009/04/23 07:52:45.7     -16    -28     37     33     49 210.7  53.3  33980  286.52 0855.31
2009/04/23 07:52:45.8     -11    -34     41     36     54 198.3  53.3  33982  286.56 0855.31
2009/04/23 07:52:45.9     -11    -35     55     37     66 198.3  63.6  33980  286.54 0855.31
2009/04/23 07:52:46.0      -8    -40     58     41     71 191.6  60.6  33982  286.56 0855.31
2009/04/23 07:52:46.1     -17    -39     61     43     74 203.6  61.5  33982  286.56 0855.31
2009/04/23 07:52:46.2      -2    -42     72     43     83 182.7  66.2  33978  286.51 0855.31
2009/04/23 07:52:46.3     -14    -32     73     35     80 203.6  72.4  33978  286.51 0855.31
2009/04/23 07:52:46.4     -25    -63     65     68     94 201.8  49.4  33978  286.49 0855.31
2009/04/23 07:52:46.5     -23    -58     55     63     83 201.8  46.4  33980  286.52 0855.31
2009/04/23 07:52:46.6     -21    -34     63     41     75 211.6  64.6  33980  286.52 0855.31
2009/04/23 07:52:46.7     -43    -41     63     60     87 226.7  51.2  33980  286.52 0855.31
2009/04/23 07:52:46.8     -40    -45     53     61     80 221.4  45.8  33982  286.56 0855.31
2009/04/23 07:52:46.9     -40    -45     53     61     80 221.4  45.8  33982  286.56 0855.31
2009/04/23 07:52:47.0     -41    -45     59     62     85 222.3  49.0  33978  286.49 0855.31
2009/04/23 07:52:47.1     -30    -45     76     55     93 214.3  61.1  33982  286.56 0855.31
2009/04/23 07:52:47.2     -56    -41     59     70     91 234.0  44.3  33986  286.62 0855.31
2009/04/23 07:52:47.3     -59    -48     42     77     87 230.5  30.8  33986  286.64 0855.31
2009/04/23 07:52:47.4     -43    -43     51     62     80 225.1  43.7  33990  286.69 0855.31
2009/04/23 07:52:47.5     -73    -50     47     89    100 235.4  30.3  33986  286.64 0855.31
2009/04/23 07:52:47.6     -79    -50     49     94    106 237.5  29.8  33978  286.51 0855.31
2009/04/23 07:52:47.7     -81    -54     47     98    108 236.3  27.2  33980  286.54 0855.31
2009/04/23 07:52:47.8     -75    -60     46     97    107 231.4  27.1  33980  286.52 0855.31
2009/04/23 07:52:47.9     -93    -31     44     99    108 251.6  25.7  33978  286.51 0855.31
2009/04/23 07:52:48.0     -83    -57     45    101    110 235.4  26.2  33968  286.34 0855.30
2009/04/23 07:52:48.1     -91    -57     51    108    119 237.6  27.2  33970  286.35 0855.30
2009/04/23 07:52:48.2     -78    -64     58    102    117 230.5  31.9  33972  286.41 0855.30
2009/04/23 07:52:48.3     -78    -64     58    102    117 230.5  31.9  33972  286.41 0855.30
2009/04/23 07:52:48.4     -84    -53     43    100    108 237.6  24.6  33974  286.44 0855.30
2009/04/23 07:52:48.5     -90    -55     34    106    112 238.5  17.9  33990  286.71 0855.30
2009/04/23 07:52:48.6     -69    -42     38     81     89 238.5  27.1  34002  286.91 0855.30
2009/04/23 07:52:48.7     -82    -22     32     86     91 254.5  21.0  34020  287.21 0855.30
2009/04/23 07:52:48.8     -66     -5     35     67     75 265.7  30.3  34022  287.25 0855.30
2009/04/23 07:52:48.9     -21    -11     54     24     59 241.1  75.0  34020  287.20 0855.30
2009/04/23 07:52:49.0     -16     -5     54     17     56 251.8  80.7  34024  287.28 0855.30
2009/04/23 07:52:49.1       4    -24     45     25     51 170.2  68.8  34010  287.03 0855.30
2009/04/23 07:52:49.2      10    -22     44     25     50 156.4  67.7  34016  287.15 0855.30
2009/04/23 07:52:49.3      30    -19     35     36     50 122.5  51.1  34022  287.25 0855.30
2009/04/23 07:52:49.4      42    -11     42     44     60 105.1  49.0  34040  287.55 0855.30
2009/04/23 07:52:49.5      55    -12     54     57     78 102.4  48.5  34042  287.57 0855.30
2009/04/23 07:52:49.6      66     -4     64     67     92  94.3  49.0  34046  287.65 0855.30
2009/04/23 07:52:49.7      66     -5     68     67     95  94.4  49.1  34056  287.81 0855.30
2009/04/23 07:52:49.8      64     -7     63     65     90  97.0  49.4  34060  287.87 0855.30
2009/04/23 07:52:49.9      69      0     60     70     92  90.0  45.4  34062  287.92 0855.30
2009/04/23 07:52:50.0      73      5     30     74     79  85.7  23.6  34054  287.79 0855.31
2009/04/23 07:52:50.1      80     11     28     81     86  81.6  19.4  34066  287.98 0855.31
2009/04/23 07:52:50.2      77     -5     29     78     83  94.4  21.0  34068  288.03 0855.31
2009/04/23 07:52:50.3      66      4     23     67     72  86.5  19.4  34070  288.06 0855.31
2009/04/23 07:52:50.4      59      0     24     60     64  90.0  23.0  34072  288.08 0855.31
2009/04/23 07:52:50.5      59      7     24     60     64  83.0  23.0  34078  288.20 0855.31
2009/04/23 07:52:50.6      53      9     38     54     66  80.3  38.6  34078  288.18 0855.31
2009/04/23 07:52:50.7      49     13     48     51     70  74.9  48.0  34076  288.16 0855.31
2009/04/23 07:52:50.8      45      6     44     46     63  82.1  50.0  34076  288.16 0855.31
2009/04/23 07:52:50.9      45     21     10     50     52  64.8  12.2  34080  288.23 0855.31
2009/04/23 07:52:51.0      37     30      1     48     49  50.5   1.8  34084  288.28 0855.31
2009/04/23 07:52:51.1      37     34      9     51     52  47.8  11.0  34082  288.25 0855.31
2009/04/23 07:52:51.2      48     30     -2     57     58  57.6  -2.2  34078  288.20 0855.31
2009/04/23 07:52:51.3      53     21     -2     58     59  68.3  -2.2  34076  288.16 0855.31
2009/04/23 07:52:51.4      76     15    -10     78     79  78.5  -7.3  34072  288.08 0855.31
2009/04/23 07:52:51.5      65     19     -9     68     69  73.2  -8.2  34076  288.16 0855.31
2009/04/23 07:52:51.6      92     23     -8     95     96  75.8  -5.2  34082  288.26 0855.31
2009/04/23 07:52:51.7      92     39     -2    101    102  66.9  -1.3  34064  287.94 0855.31
2009/04/23 07:52:51.8      94     10     28     95    100  83.4  16.3  34062  287.92 0855.31
2009/04/23 07:52:51.9     106     -1     33    107    113  90.8  17.3  34064  287.96 0855.31
2009/04/23 07:52:52.0     101      0     42    102    110  90.0  23.6  34082  288.26 0855.31
2009/04/23 07:52:52.1      94      4      6     95     96  87.4   3.8  34068  288.03 0855.31
2009/04/23 07:52:52.2     109     -3     51    110    121  91.7  26.6  34082  288.25 0855.31
2009/04/23 07:52:52.3      88     -1     51     89    102  90.8  32.4  34088  288.35 0855.31
2009/04/23 07:52:52.4      64    -40     44     76     87 122.5  32.9  34080  288.21 0855.31
2009/04/23 07:52:52.5     105      4     67    106    125  87.4  35.5  34102  288.58 0855.31
2009/04/23 07:52:52.6      71      4     76     72    104  86.5  51.2  34074  288.13 0855.31
2009/04/23 07:52:52.7      73    -14     78     75    108 101.5  51.2  34008  287.01 0855.31
2009/04/23 07:52:52.8      77     -5     72     78    106  94.4  47.9  34026  287.32 0855.31
2009/04/23 07:52:52.9      84    -10     75     85    113  97.0  46.4  34014  287.10 0855.31
2009/04/23 07:52:53.0      76     -3     85     77    114  92.6  52.7  33994  286.78 0855.31
2009/04/23 07:52:53.1     100    -13     75    101    125  97.9  40.1  34004  286.93 0855.31
2009/04/23 07:52:53.2      83     19     55     86    102  77.2  35.5  34028  287.33 0855.31
2009/04/23 07:52:53.3      95      0     68     96    117  90.0  39.5  34026  287.30 0855.31
2009/04/23 07:52:53.4     109      1     53    110    122  89.2  27.3  34040  287.55 0855.31
2009/04/23 07:52:53.5     146    -20     94    148    175  98.0  35.5  34074  288.11 0855.31
2009/04/23 07:52:53.6     155      2    101    156    185  89.1  35.6  34064  287.96 0855.31
2009/04/23 07:52:53.7     109    -15    100    111    149  97.9  46.9  34038  287.50 0855.31
2009/04/23 07:52:53.8      76    -51     87     92    126 124.2  48.5  34018  287.16 0855.31
2009/04/23 07:52:53.9     101    -61    102    119    156 121.1  45.1  34008  287.00 0855.31
2009/04/23 07:52:54.0      71    -62     88     95    129 130.9  47.9  33998  286.83 0855.31
2009/04/23 07:52:54.1     105    -34     95    111    146 108.2  45.4  33992  286.73 0855.31
2009/04/23 07:52:54.2     110    -44    110    119    162 112.2  47.7  33982  286.56 0855.31
2009/04/23 07:52:54.3     104    -43    107    113    155 112.6  48.7  33978  286.51 0855.31
2009/04/23 07:52:54.4     101    -44    102    111    150 113.5  47.9  33982  286.56 0855.31
2009/04/23 07:52:54.5      75    -59     95     96    135 128.6  50.5  33992  286.73 0855.31
2009/04/23 07:52:54.6      49    -37     74     62     96 126.9  55.8  34014  287.11 0855.31
2009/04/23 07:52:54.7      59    -49     70     77    104 129.6  47.9  34004  286.93 0855.31
2009/04/23 07:52:54.8      80    -46     86     93    126 120.2  47.9  33990  286.69 0855.31
2009/04/23 07:52:54.9      67    -48     82     83    116 126.0  50.5  33984  286.59 0855.31
2009/04/23 07:52:55.0      70    -57     60     91    109 129.5  36.0  33984  286.59 0855.31
2009/04/23 07:52:55.1      32    -46     64     57     85 144.8  53.7  33986  286.62 0855.31
2009/04/23 07:52:55.2      30    -41     70     51     86 143.9  60.5  34002  286.89 0855.31
2009/04/23 07:52:55.3      47    -41     58     63     85 131.3  47.9  33996  286.79 0855.31
2009/04/23 07:52:55.4      57    -58     75     82    111 135.9  47.5  33984  286.61 0855.31
2009/04/23 07:52:55.5      31    -94     71     99    121 161.7  39.5  33984  286.61 0855.31
2009/04/23 07:52:55.6      20    -85     85     88    122 166.6  49.4  33998  286.84 0855.31
2009/04/23 07:52:55.7     -15   -106     90    108    140 188.0  43.8  34008  287.01 0855.31
2009/04/23 07:52:55.8       3    -82     89     83    121 177.8  52.1  34000  286.86 0855.31
2009/04/23 07:52:55.9       4    -90     73     91    116 176.9  43.7  33992  286.73 0855.31
2009/04/23 07:52:56.0       8    -79     82     80    114 173.8  49.7  33982  286.57 0855.32
2009/04/23 07:52:56.1       8   -104     90    105    138 175.5  45.4  33982  286.56 0855.32
2009/04/23 07:52:56.2       2   -117     78    118    141 178.6  36.5  33984  286.59 0855.32
2009/04/23 07:52:56.3      -7   -121     87    122    149 183.6  39.5  33980  286.52 0855.32
2009/04/23 07:52:56.4      -4   -132     95    133    163 181.8  39.1  33984  286.59 0855.32
2009/04/23 07:52:56.5      24   -119    107    122    162 168.4  45.8  33982  286.56 0855.32
2009/04/23 07:52:56.6      14   -133     89    134    160 173.8  36.7  33984  286.61 0855.32
2009/04/23 07:52:56.7      24   -134     95    137    166 169.8  38.4  33982  286.57 0855.32
2009/04/23 07:52:56.8      33   -131     93    136    164 165.7  37.6  33984  286.61 0855.32
2009/04/23 07:52:56.9      33   -124     92    129    158 164.9  39.1  33986  286.62 0855.32
2009/04/23 07:52:57.0      47   -106     93    117    149 155.9  43.3  33986  286.62 0855.32
2009/04/23 07:52:57.1      22   -100     83    103    132 167.5  43.7  33984  286.61 0855.32
2009/04/23 07:52:57.2      51    -92     90    106    139 151.0  44.3  33984  286.61 0855.32
2009/04/23 07:52:57.3      63    -87     75    108    131 144.0  38.0  33982  286.56 0855.32
2009/04/23 07:52:57.4      60   -104     77    121    143 150.1  35.5  33984  286.59 0855.32
2009/04/23 07:52:57.5      58    -95     86    112    141 148.8  41.7  33982  286.57 0855.32
2009/04/23 07:52:57.6      74    -95     78    121    143 142.2  35.6  33984  286.59 0855.32
2009/04/23 07:52:57.7      63   -117     61    134    147 151.5  26.6  33982  286.56 0855.32
2009/04/23 07:52:57.8      -5   -125     75    126    146 182.7  33.5  33982  286.56 0855.32
2009/04/23 07:52:57.9      -7   -135     60    136    148 183.1  25.2  33980  286.54 0855.32
2009/04/23 07:52:58.0       0   -132     66    133    148 180.4  27.8  33982  286.57 0855.32
2009/04/23 07:52:58.1       9   -118     61    119    133 175.6  29.3  33982  286.56 0855.32
2009/04/23 07:52:58.2      22   -110     48    113    122 168.5  24.1  33980  286.54 0855.32
2009/04/23 07:52:58.3      32    -94     44    100    109 161.3  25.7  33982  286.56 0855.32
2009/04/23 07:52:58.4      34   -104     49    110    120 161.7  25.2  33982  286.56 0855.32
2009/04/23 07:52:58.5      41   -135     33    142    146 163.1  13.2  33982  286.57 0855.32
2009/04/23 07:52:58.6      51   -110     48    122    131 155.1  23.0  33982  286.56 0855.32
2009/04/23 07:52:58.7      41   -104     34    113    119 158.2  16.8  33984  286.59 0855.32
2009/04/23 07:52:58.8      42   -106     33    115    120 158.2  16.3  33982  286.57 0855.32
2009/04/23 07:52:58.9      46    -70     31     85     90 146.6  21.0  33982  286.56 0855.32
2009/04/23 07:52:59.0      41    -77     -3     88     89 151.9  -2.2  33982  286.57 0855.32
2009/04/23 07:52:59.1      40    -89    -32     98    104 155.9 -18.1  33982  286.56 0855.32
2009/04/23 07:52:59.2      32   -110      0    115    116 163.5   0.2  33982  286.56 0855.32
2009/04/23 07:52:59.3      36   -126      4    132    133 164.0   1.8  33980  286.54 0855.32
2009/04/23 07:52:59.5      29   -107     -2    111    112 164.8  -1.3  33980  286.52 0855.32
2009/04/23 07:52:59.5       9   -117      3    118    119 175.6   1.8  33982  286.56 0855.32
2009/04/23 07:52:59.6      17   -123     -2    125    126 172.0  -1.3  33980  286.52 0855.32
2009/04/23 07:52:59.7      42   -114    -15    122    123 159.5  -7.3  33980  286.54 0855.32
2009/04/23 07:52:59.8      29   -113    -15    117    118 165.3  -7.3  33980  286.54 0855.32
2009/04/23 07:52:59.9      43   -119      0    127    128 159.9  -0.3  33982  286.56 0855.32
2009/04/23 07:53:00.0      60   -102      6    119    120 149.7   2.9  33984  286.59 0855.32
2009/04/23 07:53:00.1      32   -110      0    115    116 163.5   0.2  33982  286.56 0855.32
2009/04/23 07:53:00.2      37    -79     30     88     94 154.6  19.2  33982  286.57 0855.32
2009/04/23 07:53:00.3      46   -104     14    114    115 155.9   7.1  33982  286.56 0855.32
2009/04/23 07:53:00.4      55   -116     40    129    136 154.6  17.3  33980  286.52 0855.32
2009/04/23 07:53:00.5      40   -126     40    133    139 162.2  16.8  33980  286.54 0855.32
2009/04/23 07:53:00.6      21   -126     48    128    136 170.3  21.0  33982  286.56 0855.32
2009/04/23 07:53:00.7      15   -121     55    122    133 172.9  25.7  33980  286.54 0855.32
2009/04/23 07:53:00.8       1   -126     63    127    141 179.1  28.2  33978  286.51 0855.32
2009/04/23 07:53:00.9      -1   -117     66    118    135 180.9  31.9  33980  286.54 0855.32
2009/04/23 07:53:01.0       8   -113     45    114    122 175.6  22.5  33980  286.52 0855.32
2009/04/23 07:53:01.1      29    -76     68     82    106 158.6  43.8  33980  286.54 0855.32
2009/04/23 07:53:01.2      30    -91     67     97    117 161.5  38.0  33980  286.52 0855.32
2009/04/23 07:53:01.3      38   -103     54    110    122 159.5  27.8  33978  286.51 0855.32
2009/04/23 07:53:01.4      42   -106     49    115    125 158.2  24.6  33978  286.51 0855.32
2009/04/23 07:53:01.5      53    -89     35    104    111 149.3  18.9  33978  286.51 0855.32
2009/04/23 07:53:01.6      38    -96      5    104    105 158.2   2.8  33978  286.49 0855.32
2009/04/23 07:53:01.7      35    -85     -8     93     94 157.3  -5.2  33982  286.56 0855.32
2009/04/23 07:53:01.8      37    -76     -6     85     86 154.1  -4.1  33980  286.52 0855.32
2009/04/23 07:53:01.9      50    -77     -6     92     93 147.0  -4.1  33982  286.56 0855.32
2009/04/23 07:53:02.0      52    -91      0    106    107 150.1  -0.3  33978  286.51 0855.32
2009/04/23 07:53:02.1      45    -86     -5     98     99 152.4  -3.1  33978  286.49 0855.32
2009/04/23 07:53:02.3      48    -89    -11    102    103 151.5  -6.2  33980  286.54 0855.32
2009/04/23 07:53:02.3      57    -92     -3    109    110 147.9  -1.8  33980  286.52 0855.32
2009/04/23 07:53:02.4      48    -89    -11    102    103 151.5  -6.2  33980  286.54 0855.32
2009/04/23 07:53:02.5      55   -107    -15    121    122 152.8  -7.3  33980  286.52 0855.32
2009/04/23 07:53:02.6      49   -110     10    121    122 155.9   5.0  33976  286.47 0855.32
2009/04/23 07:53:02.7      37   -122     26    128    131 163.0  11.6  33978  286.49 0855.32
2009/04/23 07:53:02.8      60   -155     43    167    173 158.6  14.7  33980  286.52 0855.32
2009/04/23 07:53:02.9      40   -155     29    161    164 165.3  10.3  33978  286.49 0855.32
2009/04/23 07:53:03.0      34   -163     41    167    173 168.0  13.9  33976  286.46 0855.32
2009/04/23 07:53:03.1      69   -152     60    168    178 155.5  20.4  33974  286.44 0855.32
2009/04/23 07:53:03.2     111   -190     68    221    232 149.7  17.1  33970  286.37 0855.32
2009/04/23 07:53:03.3     111   -142     73    181    195 142.2  23.0  33974  286.44 0855.32
2009/04/23 07:53:03.4     145   -136     68    199    211 133.1  18.9  33972  286.41 0855.32
2009/04/23 07:53:03.5     114   -165     47    201    207 145.3  13.2  33976  286.47 0855.32
2009/04/23 07:53:03.6     127   -135     31    186    189 136.8   9.5  33974  286.44 0855.32
2009/04/23 07:53:03.7     123   -115      6    169    170 132.9   2.1  33974  286.42 0855.32
2009/04/23 07:53:03.8     114    -95    -14    149    150 129.6  -5.6  33974  286.42 0855.32
2009/04/23 07:53:03.9     111    -96      0    148    149 130.9   0.2  33972  286.41 0855.32
2009/04/23 07:53:04.0      88   -144     10    169    170 148.6   3.6  33972  286.41 0855.32
2009/04/23 07:53:04.1      48   -177     43    184    190 164.6  13.2  33968  286.34 0855.32
2009/04/23 07:53:04.2      75   -171     36    187    191 156.2  11.0  33968  286.34 0855.32
2009/04/23 07:53:04.3      91   -155     49    180    187 149.5  15.3  33970  286.35 0855.32
2009/04/23 07:53:04.4      92   -138     58    167    177 146.2  19.2  33968  286.34 0855.32
2009/04/23 07:53:04.5      78   -148     64    168    179 152.1  21.7  33970  286.35 0855.32
2009/04/23 07:53:04.6      86   -147     57    171    181 149.7  18.6  33970  286.35 0855.32
2009/04/23 07:53:04.7      74   -135     57    155    165 151.1  20.7  33972  286.41 0855.32
2009/04/23 07:53:04.8      63   -143     75    157    173 156.3  27.3  33970  286.35 0855.32
2009/04/23 07:53:04.9      41   -139     77    146    165 163.5  30.1  33970  286.37 0855.32
2009/04/23 07:53:05.0      19   -107     73    109    131 169.8  37.0  33970  286.37 0855.32
2009/04/23 07:53:05.1       5   -123     61    124    138 177.3  27.3  33970  286.37 0855.32
2009/04/23 07:53:05.2      10   -140     33    141    145 175.6  13.2  33968  286.34 0855.32
2009/04/23 07:53:05.3      -6   -148     18    149    151 182.7   7.1  33968  286.34 0855.32
2009/04/23 07:53:05.4       2   -134     -2    135    136 179.1  -1.3  33970  286.37 0855.32
2009/04/23 07:53:05.5      14   -121    -15    122    124 173.3  -7.3  33970  286.37 0855.32
2009/04/23 07:53:05.7       5   -121      1    122    123 177.3   0.8  33970  286.37 0855.32
2009/04/23 07:53:05.8       3   -108    -14    109    110 178.2  -7.3  33972  286.41 0855.32
2009/04/23 07:53:05.8       8   -108    -14    109    110 175.6  -7.3  33974  286.42 0855.32
2009/04/23 07:53:06.0      18   -107    -22    109    112 170.2 -11.3  33974  286.42 0855.32
2009/04/23 07:53:06.1      15    -97    -29     99    104 171.1 -16.6  33972  286.39 0855.32
2009/04/23 07:53:06.2       8    -85    -22     86     89 174.2 -14.5  33972  286.41 0855.32
2009/04/23 07:53:06.3      20    -82    -10     85     86 165.7  -7.2  33972  286.39 0855.32
2009/04/23 07:53:06.4      30    -93    -12     98     99 161.7  -7.3  33972  286.41 0855.32
2009/04/23 07:53:06.5      32    -96    -26    102    106 161.3 -14.5  33970  286.37 0855.32
2009/04/23 07:53:06.6      33   -122    -11    127    128 164.9  -5.2  33970  286.37 0855.32
2009/04/23 07:53:06.7      25   -105      0    108    109 166.6  -0.3  33970  286.35 0855.32
2009/04/23 07:53:06.8      15    -91      4     93     94 170.2   2.9  33968  286.34 0855.32
2009/04/23 07:53:06.9      27    -94      9     98     99 164.0   5.4  33970  286.35 0855.32
2009/04/23 07:53:07.0       0    -92      9     93     94 180.4   5.9  33970  286.35 0855.32
2009/04/23 07:53:07.1     -14    -95    -12     97     98 188.9  -7.3  33968  286.34 0855.32
2009/04/23 07:53:07.2     -18   -115     11    117    118 189.3   5.4  33968  286.32 0855.32
2009/04/23 07:53:07.3      -5   -132      5    133    134 182.2   2.3  33970  286.35 0855.32
2009/04/23 07:53:07.4     -14   -134    -15    135    136 186.2  -6.7  33966  286.29 0855.32
2009/04/23 07:53:07.5      -6   -116     -6    117    118 183.1  -3.1  33968  286.34 0855.32
2009/04/23 07:53:07.6       2   -122     -6    123    124 179.0  -3.2  33966  286.30 0855.32
2009/04/23 07:53:07.7       9   -122     -2    123    124 175.5  -1.2  33966  286.29 0855.32
2009/04/23 07:53:07.8      16   -123     11    125    126 172.4   5.4  33964  286.27 0855.32
2009/04/23 07:53:07.9      13   -101      2    102    103 172.4   1.2  33964  286.27 0855.32
2009/04/23 07:53:08.0       0    -91     17     92     94 179.5  10.6  33964  286.27 0855.32
2009/04/23 07:53:08.1       0    -89      8     90     91 180.5   5.4  33964  286.27 0855.32
2009/04/23 07:53:08.2      -5    -75      9     76     77 184.5   7.1  33966  286.29 0855.32
2009/04/23 07:53:08.3     -13    -79     18     81     84 189.8  12.6  33968  286.32 0855.32
2009/04/23 07:53:08.4     -20    -73     12     76     77 196.0   9.0  33966  286.30 0855.32
2009/04/23 07:53:08.5     -20    -73      3     76     77 196.0   2.8  33966  286.30 0855.32
2009/04/23 07:53:08.6     -14    -68     16     70     72 191.6  13.2  33966  286.30 0855.32
2009/04/23 07:53:08.7       0    -58     -7     59     60 179.1  -7.3  33964  286.27 0855.32
2009/04/23 07:53:08.8     -10    -74    -24     75     78 188.0 -23.8  33964  286.25 0855.32
2009/04/23 07:53:08.9       6    -70    -22     71     75 174.7 -17.6  33964  286.25 0855.32
2009/04/23 07:53:09.0      13    -76    -17     78     80 170.2 -12.4  33964  286.25 0855.32
2009/04/23 07:53:09.1      14    -80    -14     82     84 169.8  -9.8  33962  286.22 0855.32
2009/04/23 07:53:09.2      41    -76    -10     87     88 151.9  -6.7  33962  286.22 0855.32
2009/04/23 07:53:09.3      46    -78      1     91     92 149.3   0.8  33960  286.19 0855.32
2009/04/23 07:53:09.4      52    -95      5    109    110 151.5   2.9  33962  286.24 0855.32
2009/04/23 07:53:09.5      66   -104     17    124    126 147.4   8.0  33962  286.24 0855.32
2009/04/23 07:53:09.6      61    -79     37    101    107 142.2  20.4  33966  286.30 0855.32
2009/04/23 07:53:09.7      32    -96     14    102    104 161.3   8.0  33964  286.25 0855.32
2009/04/23 07:53:09.8      33   -101      6    107    108 161.7   3.3  33964  286.27 0855.32
2009/04/23 07:53:09.9      -7   -138     47    139    148 183.1  18.9  33964  286.25 0855.32
2009/04/23 07:53:10.0      17   -138      5    140    141 172.9   2.3  33964  286.25 0855.32
2009/04/23 07:53:10.1       6   -104    -18    105    107 176.4  -9.8  33962  286.24 0855.32
2009/04/23 07:53:10.2       1    -99    -20    100    102 179.1 -11.3  33964  286.25 0855.32
2009/04/23 07:53:10.3       3   -110    -14    111    112 178.2  -7.2  33962  286.24 0855.32
2009/04/23 07:53:10.4      -5   -120    -11    121    122 182.7  -5.2  33962  286.22 0855.32
2009/04/23 07:53:10.5     -26   -102    -32    106    111 194.3 -17.0  33962  286.22 0855.32
2009/04/23 07:53:10.6     -27   -102    -35    106    112 195.1 -18.7  33962  286.24 0855.32
2009/04/23 07:53:10.7     -27    -94    -26     98    102 196.0 -15.0  33964  286.27 0855.32
2009/04/23 07:53:10.8     -23    -92    -13     95     97 194.3  -8.2  33962  286.24 0855.32
2009/04/23 07:53:10.9     -27    -82    -29     87     92 198.7 -18.7  33964  286.27 0855.32
2009/04/23 07:53:11.0     -27   -102    -35    106    112 195.1 -18.7  33962  286.24 0855.32
2009/04/23 07:53:11.1     -29   -145    -21    148    150 191.5  -8.2  33962  286.22 0855.32
2009/04/23 07:53:11.2     -35   -173    -54    177    186 191.5 -17.0  33964  286.27 0855.32
2009/04/23 07:53:11.3     -24   -190    -34    192    196 187.3 -10.1  33960  286.20 0855.32
2009/04/23 07:53:11.4       0   -181     -7    182    183 180.0  -2.2  33960  286.20 0855.32
2009/04/23 07:53:11.5     -13   -201    -23    202    204 183.8  -6.5  33962  286.24 0855.32
2009/04/23 07:53:11.6       6   -214     -4    215    216 178.4  -1.1  33962  286.24 0855.32
2009/04/23 07:53:11.7       6   -181    -27    182    185 178.0  -8.6  33970  286.37 0855.32
2009/04/23 07:53:11.8     -15   -195    -42    196    201 184.5 -12.2  33964  286.25 0855.32
2009/04/23 07:53:11.9      -8   -185    -23    186    188 182.5  -7.3  33964  286.27 0855.32
2009/04/23 07:53:12.0     -20   -160    -28    162    165 187.1  -9.8  33962  286.22 0855.32
2009/04/23 07:53:12.1     -60   -162    -34    174    178 200.5 -11.3  33964  286.25 0855.32
2009/04/23 07:53:12.2     -32   -172     -9    176    177 190.7  -3.1  33964  286.25 0855.32
2009/04/23 07:53:12.3     -22   -180     -8    182    183 187.1  -2.8  33964  286.27 0855.32
2009/04/23 07:53:12.4     -22   -182    -23    184    186 187.1  -7.3  33964  286.25 0855.32
2009/04/23 07:53:12.5     -32   -184    -28    187    190 190.0  -8.6  33962  286.22 0855.32
2009/04/23 07:53:12.6     -21   -173    -14    175    176 187.1  -4.9  33964  286.25 0855.32
2009/04/23 07:53:12.7     -24   -173    -22    175    177 188.0  -7.3  33960  286.19 0855.32
2009/04/23 07:53:12.8      -9   -179    -28    180    183 183.1  -9.0  33962  286.24 0855.32
2009/04/23 07:53:12.9       2   -183    -33    184    188 179.1 -10.3  33962  286.24 0855.32
2009/04/23 07:53:13.0      25   -180    -38    182    186 172.0 -11.9  33964  286.25 0855.32
2009/04/23 07:53:13.1      25   -180    -38    182    186 172.0 -11.9  33962  286.24 0855.31
2009/04/23 07:53:13.2      36   -186    -34    190    194 168.9 -10.3  33964  286.27 0855.31
2009/04/23 07:53:13.3      32   -177    -28    180    183 169.5  -9.0  33970  286.37 0855.31
2009/04/23 07:53:13.4      50   -171    -25    179    181 163.7  -8.0  33972  286.41 0855.31
2009/04/23 07:53:13.5      48   -159    -27    167    170 163.1  -9.3  33970  286.37 0855.31
2009/04/23 07:53:13.6      35   -147    -24    152    154 166.6  -9.0  33972  286.41 0855.31
2009/04/23 07:53:13.7      34   -167    -22    171    173 168.2  -7.3  33970  286.37 0855.31
2009/04/23 07:53:13.8       7   -181     -5    182    183 177.5  -1.8  33968  286.32 0855.31
2009/04/23 07:53:13.9      22   -174     -5    176    177 172.7  -1.8  33968  286.32 0855.31
2009/04/23 07:53:14.0       7   -178    -19    179    181 177.5  -6.2  33968  286.34 0855.31
2009/04/23 07:53:14.1      44   -158     -2    165    166 164.4  -0.7  33968  286.34 0855.31
2009/04/23 07:53:14.2      33   -126     -7    131    132 165.3  -3.1  33968  286.32 0855.31
2009/04/23 07:53:14.3      25   -139    -18    142    144 169.8  -7.3  33968  286.34 0855.31
2009/04/23 07:53:14.4      35   -127     -8    132    133 164.4  -3.7  33968  286.34 0855.31
2009/04/23 07:53:14.5      29   -141     -6    145    146 168.4  -2.6  33968  286.34 0855.31
2009/04/23 07:53:14.6      10   -135    -13    136    137 175.5  -5.6  33966  286.30 0855.31
2009/04/23 07:53:14.7      10   -130    -26    131    134 175.5 -11.3  33964  286.25 0855.31
2009/04/23 07:53:14.8       3   -130    -21    131    133 178.6  -9.3  33964  286.27 0855.31
2009/04/23 07:53:14.9      10   -135    -13    136    137 175.5  -5.6  33966  286.30 0855.31
2009/04/23 07:53:15.0      17   -126     -7    128    129 172.0  -3.1  33964  286.27 0855.31
2009/04/23 07:53:15.1      21   -124     -3    126    127 170.2  -1.8  33968  286.32 0855.31
2009/04/23 07:53:15.2      42   -119      7    127    128 160.4   3.3  33968  286.34 0855.31
2009/04/23 07:53:15.3      46   -122      6    131    132 159.1   2.9  33966  286.30 0855.31
2009/04/23 07:53:15.4      42   -125      1    133    134 161.3   0.8  33968  286.32 0855.31
2009/04/23 07:53:15.5      34   -123      2    128    129 164.4   1.2  33968  286.32 0855.31
2009/04/23 07:53:15.6      39   -111      1    118    119 160.4   0.8  33968  286.34 0855.31
2009/04/23 07:53:15.7      29   -109     -4    113    114 164.9  -2.2  33968  286.34 0855.31
2009/04/23 07:53:15.8      30   -121     -6    125    126 165.7  -3.2  33966  286.29 0855.31
2009/04/23 07:53:15.9      42   -125      1    133    134 161.3   0.8  33968  286.32 0855.31
2009/04/23 07:53:16.0      39   -130     -1    136    137 163.0  -0.7  33966  286.29 0855.31
2009/04/23 07:53:16.1      42   -125      1    133    134 161.3   0.8  33968  286.32 0855.31
2009/04/23 07:53:16.2      39   -134     -5    140    141 163.5  -2.2  33966  286.30 0855.31
2009/04/23 07:53:16.3      36   -134     -4    139    140 164.8  -1.8  33968  286.32 0855.31
2009/04/23 07:53:16.4      34   -131     -5    136    137 165.3  -2.2  33966  286.30 0855.31
2009/04/23 07:53:16.5      28   -138     -4    141    142 168.4  -1.8  33970  286.37 0855.31
2009/04/23 07:53:16.6      32   -125     -1    130    131 165.7  -0.7  33972  286.41 0855.31
2009/04/23 07:53:16.7      39   -125      2    132    133 162.6   1.2  33970  286.37 0855.31
2009/04/23 07:53:16.8      41   -126     -5    133    134 161.7  -2.2  33972  286.41 0855.31
2009/04/23 07:53:16.9      46   -122      1    131    132 159.1   0.8  33970  286.37 0855.31
2009/04/23 07:53:17.0      50   -125     -8    135    136 158.2  -3.7  33972  286.41 0855.31
2009/04/23 07:53:17.1      35   -124    -16    130    132 164.0  -7.3  33974  286.44 0855.31
2009/04/23 07:53:17.2      29   -122    -16    126    128 166.6  -7.2  33974  286.42 0855.31
2009/04/23 07:53:17.3      24   -124    -16    127    129 168.9  -7.3  33976  286.47 0855.31
2009/04/23 07:53:17.4      35   -124    -16    130    132 164.0  -7.3  33974  286.44 0855.31
2009/04/23 07:53:17.5      35   -116    -23    122    125 163.0 -10.9  33972  286.41 0855.31
2009/04/23 07:53:17.6      36   -117    -15    123    125 163.0  -7.3  33978  286.49 0855.31
2009/04/23 07:53:17.7      34   -104    -14    110    111 161.7  -7.3  33976  286.46 0855.31
2009/04/23 07:53:17.8      20    -97    -16    100    102 168.4  -9.3  33974  286.44 0855.31
2009/04/23 07:53:17.9       7    -97    -17     98    100 175.5 -10.3  33976  286.47 0855.31
2009/04/23 07:53:18.0      30   -101    -31    106    110 163.1 -21.2  33976  286.46 0855.31
2009/04/23 07:53:18.1      44    -84    -21     95     98 152.4 -12.4  33976  286.47 0855.31
2009/04/23 07:53:18.2      53    -94    -30    108    113 150.6 -15.4  33974  286.44 0855.31
2009/04/23 07:53:18.3      27   -101    -68    105    125 164.9 -40.0  33972  286.39 0855.31
2009/04/23 07:53:18.4      20   -119    -50    121    130 170.2 -28.0  33970  286.37 0855.31
2009/04/23 07:53:18.5      38   -127    -38    133    138 163.1 -20.2  33974  286.42 0855.31
2009/04/23 07:53:18.6      17    -91    -37     93    100 169.3 -27.4  33974  286.42 0855.31
2009/04/23 07:53:18.7      10    -74    -35     75     82 172.0 -31.0  33976  286.46 0855.31
2009/04/23 07:53:18.8      -6    -70    -41     71     81 185.3 -37.3  33976  286.47 0855.31
2009/04/23 07:53:18.9      -5    -73    -46     74     87 184.5 -39.9  33970  286.37 0855.31
2009/04/23 07:53:19.0     -10    -77    -41     78     88 188.0 -34.2  33972  286.39 0855.31
2009/04/23 07:53:19.1      16    -71    -35     73     80 166.6 -32.2  33972  286.41 0855.31
2009/04/23 07:53:19.2      13    -64     -2     66     67 168.4  -2.2  33972  286.39 0855.31
2009/04/23 07:53:19.3      10    -62     -1     63     64 170.2  -1.3  33974  286.42 0855.31
2009/04/23 07:53:19.4      -1    -37    -39     38     54 182.6 -53.5  33972  286.41 0855.31
2009/04/23 07:53:19.5      18    -39    -42     44     60 154.6 -53.4  33968  286.32 0855.31
2009/04/23 07:53:19.6      18    -39    -42     44     60 154.6 -53.4  33968  286.32 0855.31
2009/04/23 07:53:19.7       8    -47    -50     48     69 169.3 -54.5  33964  286.27 0855.31
2009/04/23 07:53:19.8      11    -52    -48     54     72 167.5 -51.3  33964  286.27 0855.31
2009/04/23 07:53:19.9      16    -47    -42     50     65 160.8 -48.2  33964  286.27 0855.31
2009/04/23 07:53:20.0      -1    -30    -46     31     55 182.6 -69.0  33964  286.27 0855.31
2009/04/23 07:53:20.1      10    -53    -35     55     65 168.5 -39.9  33966  286.30 0855.31
2009/04/23 07:53:20.2       3    -70    -41     71     81 177.3 -37.3  33964  286.25 0855.31
2009/04/23 07:53:20.3      15    -75    -24     77     81 168.5 -17.6  33968  286.32 0855.31
2009/04/23 07:53:20.4       0    -55    -32     56     64 179.1 -36.8  33966  286.29 0855.31
2009/04/23 07:53:20.5       4    -53    -42     54     68 175.6 -48.1  33964  286.27 0855.31
2009/04/23 07:53:20.6      19    -70    -29     73     78 164.9 -26.9  33966  286.30 0855.31
2009/04/23 07:53:20.7      27    -79    -26     84     87 160.8 -22.8  33968  286.34 0855.31
2009/04/23 07:53:20.8      21    -83    -23     86     90 165.3 -15.4  33966  286.29 0855.31
2009/04/23 07:53:20.9      22    -90    -14     93     95 166.2  -8.8  33968  286.32 0855.31
2009/04/23 07:53:21.0      44    -86     -1     97     98 152.8  -1.2  33972  286.39 0855.31
2009/04/23 07:53:21.1      36    -86      4     94     95 157.3   2.9  33972  286.41 0855.31
2009/04/23 07:53:21.2      31    -87      1     93     94 160.0   0.8  33968  286.34 0855.31
2009/04/23 07:53:21.3      48    -86    -22     99    102 150.6 -12.9  33970  286.37 0855.31
2009/04/23 07:53:21.4      77    -93    -24    122    125 140.4 -11.5  33972  286.41 0855.31
2009/04/23 07:53:21.5      66    -62    -24     91     95 133.1 -15.0  33970  286.37 0855.31
2009/04/23 07:53:21.6      72    -62      4     96     97 130.9   2.9  33974  286.42 0855.31
2009/04/23 07:53:21.7      75    -70    -13    103    104 133.1  -7.3  33974  286.42 0855.31
2009/04/23 07:53:21.8      70    -78     -4    105    106 138.1  -2.2  33972  286.41 0855.31
2009/04/23 07:53:21.9      71    -82     -3    109    110 139.0  -1.8  33970  286.37 0855.31
2009/04/23 07:53:22.0      61    -73      4     96     97 139.9   2.8  33970  286.37 0855.31
2009/04/23 07:53:22.1      66    -73      6     99    100 138.1   3.8  33970  286.37 0855.31
2009/04/23 07:53:22.2      72    -70     -4    101    102 134.4  -2.6  33968  286.32 0855.31
2009/04/23 07:53:22.3      66    -73    -12     99    100 137.7  -7.2  33966  286.30 0855.31
2009/04/23 07:53:22.4      48    -73    -28     88     93 146.6 -17.6  33966  286.30 0855.31
2009/04/23 07:53:22.5      49    -90    -21    103    106 151.5 -11.5  33964  286.27 0855.31
2009/04/23 07:53:22.6      31    -95     -5    101    102 161.5  -3.1  33968  286.32 0855.31
2009/04/23 07:53:22.7      20    -82     -3     85     86 165.7  -2.2  33966  286.30 0855.31
2009/04/23 07:53:22.8      31    -66    -20     74     77 154.6 -15.5  33964  286.25 0855.31
2009/04/23 07:53:22.9      56    -67    -19     88     91 140.4 -12.4  33964  286.25 0855.31
2009/04/23 07:53:23.0      63    -83    -21    105    108 142.6 -11.3  33964  286.25 0855.31
2009/04/23 07:53:23.1      51    -80    -21     95     98 147.5 -12.4  33970  286.37 0855.31
2009/04/23 07:53:23.2      47    -79    -18     93     95 149.3 -11.3  33972  286.41 0855.31
2009/04/23 07:53:23.3      33   -107     -9    113    114 162.6  -4.6  33966  286.30 0855.31
2009/04/23 07:53:23.4      33   -124    -14    129    130 164.8  -6.2  33972  286.39 0855.31
2009/04/23 07:53:23.5      50   -113      1    124    125 155.9   0.8  33974  286.42 0855.31
2009/04/23 07:53:23.6      61    -99    -21    117    119 148.4 -10.3  33974  286.42 0855.31
2009/04/23 07:53:23.7      57   -106     -4    121    122 151.5  -2.2  33974  286.42 0855.31
2009/04/23 07:53:23.8      60    -94     -1    112    113 147.5  -0.7  33972  286.41 0855.31
2009/04/23 07:53:23.9      51    -91      7    105    106 150.6   3.8  33974  286.44 0855.31
2009/04/23 07:53:24.0      46    -89      3    101    102 152.8   1.8  33974  286.42 0855.31
2009/04/23 07:53:24.1      51    -96     -2    109    110 151.9  -1.3  33976  286.47 0855.30
2009/04/23 07:53:24.2      41    -86    -10     96     97 154.7  -6.2  33974  286.42 0855.30
2009/04/23 07:53:24.3      34    -77      4     85     86 155.9   3.3  33976  286.46 0855.30
2009/04/23 07:53:24.4      50    -69     -1     86     87 143.9  -1.3  33974  286.42 0855.30
2009/04/23 07:53:24.5      73    -70      7    102    103 134.0   4.4  33976  286.47 0855.30
2009/04/23 07:53:24.6      70    -85     -4    111    112 140.4  -2.2  33980  286.52 0855.30
2009/04/23 07:53:24.7      63    -77    -34    100    106 140.8 -19.1  33980  286.52 0855.30
2009/04/23 07:53:24.8      60    -79    -28    100    103 143.0 -20.7  33978  286.49 0855.30
2009/04/23 07:53:24.9      58    -69    -26     91     95 139.9 -16.0  33980  286.52 0855.30
2009/04/23 07:53:25.0      56    -62    -16     84     86 138.1 -10.9  33980  286.52 0855.30
2009/04/23 07:53:25.1      55    -55     -9     78     79 135.0  -6.7  33976  286.47 0855.30
2009/04/23 07:53:25.2      47    -51    -21     70     74 136.8 -16.6  33978  286.51 0855.30
2009/04/23 07:53:25.3      46    -65    -25     80     84 144.4 -17.6  33980  286.54 0855.30
2009/04/23 07:53:25.4      49    -61    -21     79     82 141.3 -15.5  33982  286.57 0855.30
2009/04/23 07:53:25.5      55    -55    -19     79     82 135.0 -13.4  33980  286.52 0855.30
2009/04/23 07:53:25.6      70    -56    -18     90     92 128.6 -11.3  33978  286.51 0855.30
2009/04/23 07:53:25.7      83    -42     -8     94     95 117.1  -5.2  33978  286.51 0855.30
2009/04/23 07:53:25.8      70    -45     -4     84     85 122.5  -3.1  33980  286.54 0855.30
2009/04/23 07:53:25.9      59    -48     -4     77     78 129.5  -3.1  33976  286.47 0855.30
2009/04/23 07:53:26.0      62    -41      3     75     76 123.3   2.8  33978  286.51 0855.30
2009/04/23 07:53:26.1      51    -39     21     65     69 127.8  18.4  33978  286.49 0855.31
2009/04/23 07:53:26.2      51    -51     25     73     78 135.0  19.4  33980  286.52 0855.31
2009/04/23 07:53:26.3      56    -47     25     74     79 130.4  18.9  33978  286.51 0855.31
2009/04/23 07:53:26.4      56    -46     27     73     77 129.5  20.0  33980  286.52 0855.31
2009/04/23 07:53:26.5      45    -55     37     72     80 140.4  29.3  33976  286.47 0855.31
2009/04/23 07:53:26.6      43    -52     35     68     76 140.3  29.3  33976  286.46 0855.31
2009/04/23 07:53:26.7      23    -59     24     64     68 158.1  20.0  33970  286.37 0855.31
2009/04/23 07:53:26.8      24    -64     27     69     74 159.1  22.0  33968  286.34 0855.31
2009/04/23 07:53:26.9      33    -69     26     77     82 154.5  19.2  33966  286.29 0855.31
2009/04/23 07:53:27.0      23    -59     31     64     71 158.1  27.3  33966  286.29 0855.31
2009/04/23 07:53:27.1      26    -56     33     62     70 154.6  30.3  33968  286.32 0855.31
2009/04/23 07:53:27.2      21    -56     35     60     69 159.1  33.5  33968  286.34 0855.31
2009/04/23 07:53:27.3      23    -59     38     64     74 158.1  35.5  33974  286.42 0855.31
2009/04/23 07:53:27.4      29    -52     42     60     73 150.1  39.5  33974  286.42 0855.31
2009/04/23 07:53:27.5      28    -43     35     52     62 146.6  37.6  33976  286.46 0855.31
2009/04/23 07:53:27.6      17    -46     37     50     62 160.0  39.7  33974  286.42 0855.31
2009/04/23 07:53:27.7      38    -53     36     66     75 144.8  31.4  33972  286.39 0855.31
2009/04/23 07:53:27.8      50    -42     25     66     70 130.4  22.0  33970  286.37 0855.31
2009/04/23 07:53:27.9      52    -55     23     76     80 136.8  17.3  33970  286.35 0855.31
2009/04/23 07:53:28.0      45    -55     25     72     77 140.3  19.2  33978  286.49 0855.31
2009/04/23 07:53:28.1      51    -47     28     70     75 133.2  23.0  33976  286.47 0855.30
2009/04/23 07:53:28.2      53    -38     18     66     69 125.9  15.3  33976  286.47 0855.30
2009/04/23 07:53:28.3      39    -31     31     51     59 128.6  34.4  33976  286.46 0855.30
2009/04/23 07:53:28.4      37    -14     42     40     58 111.7  49.1  33974  286.44 0855.30
2009/04/23 07:53:28.5      10    -16     41     19     45 147.4  72.9  33974  286.44 0855.30
2009/04/23 07:53:28.6       0    -16     39     17     42 182.7  75.0  33976  286.47 0855.30
2009/04/23 07:53:28.7       5    -51     53     52     74 173.8  49.1  33976  286.46 0855.30
2009/04/23 07:53:28.8     -14    -70     47     72     85 191.5  36.0  33974  286.42 0855.30
2009/04/23 07:53:28.9      -3    -51     57     52     77 183.6  52.2  33974  286.44 0855.30
2009/04/23 07:53:29.0       5    -42     46     43     62 172.0  52.1  33974  286.42 0855.30
2009/04/23 07:53:29.1       0    -42     49     43     65 180.9  53.3  33974  286.44 0855.30
2009/04/23 07:53:29.3     -13    -54     40     56     68 194.3  39.5  33976  286.46 0855.30
2009/04/23 07:53:29.4       8    -36     56     38     67 166.6  62.6  33976  286.47 0855.30
2009/04/23 07:53:29.4       0    -25     48     26     54 179.1  68.8  33978  286.49 0855.30
2009/04/23 07:53:29.5       2    -38     58     39     69 175.6  63.6  33978  286.49 0855.30
2009/04/23 07:53:29.7     -13    -49     61     51     79 195.1  55.8  33976  286.47 0855.30
2009/04/23 07:53:29.7      -8    -62     65     63     90 188.1  50.7  33974  286.44 0855.30
2009/04/23 07:53:29.8       5    -42     60     43     73 172.0  60.5  33974  286.42 0855.30
2009/04/23 07:53:29.9      24     -4     57     25     62  99.7  75.0  33976  286.46 0855.30
2009/04/23 07:53:30.0       0     -7     46      8     46 182.7  90.0  33978  286.49 0855.30
2009/04/23 07:53:30.1       0    -14     40     15     42 182.7  79.2  33978  286.51 0855.30
2009/04/23 07:53:30.2      -1     -6     34      7     34 191.6  89.0  33978  286.49 0855.30
2009/04/23 07:53:30.3      -1     17     25     18     30 355.6  60.5  33980  286.52 0855.30
2009/04/23 07:53:30.4      21     23     24     32     40  41.4  40.7  33978  286.49 0855.30
2009/04/23 07:53:30.5      38     12     31     40     50  72.3  42.7  33976  286.46 0855.30
2009/04/23 07:53:30.6      16    -15     31     23     38 133.1  58.5  33976  286.46 0855.30
2009/04/23 07:53:30.7      -7      0     24      8     25 270.0  81.0  33974  286.42 0855.30
2009/04/23 07:53:30.8       9      9     32     14     34  45.0  73.1  33974  286.44 0855.30
2009/04/23 07:53:30.9      18     11     40     22     45  57.6  67.7  33976  286.46 0855.30
2009/04/23 07:53:31.0      16     16     38     23     44  45.0  66.8  33974  286.42 0855.30
2009/04/23 07:53:31.1      15      7     31     17     35  64.7  66.8  33972  286.41 0855.30
2009/04/23 07:53:31.2      25     21     52     33     61  50.4  64.7  33972  286.39 0855.30
2009/04/23 07:53:31.3      14     43     41     46     61  18.3  46.9  33972  286.39 0855.30
2009/04/23 07:53:31.4      26     31     32     41     52  39.7  42.7  33974  286.44 0855.30
2009/04/23 07:53:31.5      30      9     25     32     40  73.2  41.7  33972  286.41 0855.30
2009/04/23 07:53:31.6      32      7     24     33     40  76.7  39.7  33974  286.42 0855.30
2009/04/23 07:53:31.8      28     10     23     30     37  70.0  41.7  33972  286.39 0855.30
2009/04/23 07:53:31.8      11      6     19     13     23  61.1  60.5  33974  286.44 0855.30
2009/04/23 07:53:31.9     -11     34     15     36     39 341.3  21.0  33972  286.39 0855.30
2009/04/23 07:53:32.0       5     34      5     35     36   9.8   9.0  33970  286.37 0855.30
2009/04/23 07:53:32.1       9      9     10     14     17  45.0  39.7  33970  286.37 0855.31
2009/04/23 07:53:32.2       7      6     22     10     24  46.9  75.0  33972  286.41 0855.31
2009/04/23 07:53:32.3      -1    -11     37     12     38 188.0  80.7  33970  286.37 0855.31
2009/04/23 07:53:32.4      -9    -32     37     34     50 196.9  53.3  33970  286.35 0855.31
2009/04/23 07:53:32.6     -32    -57     53     66     84 209.0  42.7  33972  286.41 0855.31
2009/04/23 07:53:32.7     -78    -48     47     92    103 238.5  28.7  33978  286.49 0855.31
2009/04/23 07:53:32.8     -79    -35     54     87    102 246.0  35.0  33974  286.44 0855.31
2009/04/23 07:53:32.9    -101    -41     66    110    128 247.8  34.0  33974  286.44 0855.31
2009/04/23 07:53:33.0    -109    -48     79    120    143 246.0  36.0  33976  286.47 0855.31
2009/04/23 07:53:33.1    -104    -41     76    112    135 248.3  37.4  33972  286.41 0855.31
2009/04/23 07:53:33.2     -79    -30     70     85    110 248.7  43.7  33972  286.39 0855.31
2009/04/23 07:53:33.3     -99    -23     35    102    108 256.7  18.9  33974  286.42 0855.31
2009/04/23 07:53:33.4     -83    -23     33     87     93 254.1  21.5  33976  286.47 0855.31
2009/04/23 07:53:33.5     -72    -25     31     77     83 250.9  23.0  33976  286.46 0855.31
2009/04/23 07:53:33.6     -56    -18     24     59     63 251.8  23.0  33974  286.44 0855.31
2009/04/23 07:53:33.7     -52    -22     24     57     61 246.5  23.1  33974  286.42 0855.31
2009/04/23 07:53:33.8     -48    -13     27     50     56 254.9  30.3  33974  286.44 0855.31
2009/04/23 07:53:33.9     -76    -15     32     78     84 258.5  23.0  33972  286.39 0855.31
2009/04/23 07:53:34.0     -75    -24     27     79     84 251.8  19.4  33976  286.46 0855.31
2009/04/23 07:53:34.1     -98     -2     -2     99    100 268.7  -1.2  33978  286.51 0855.31
2009/04/23 07:53:34.2     -77     15     -3     79     80 281.4  -2.6  33976  286.47 0855.31
2009/04/23 07:53:34.3     -83     28      0     88     89 288.6   0.2  33978  286.51 0855.31
2009/04/23 07:53:34.4    -108     19     -3    110    111 280.1  -1.8  33978  286.49 0855.31
2009/04/23 07:53:34.5    -113     31    -15    118    119 285.5  -7.3  33978  286.49 0855.31
2009/04/23 07:53:34.6    -109     37    -27    116    120 289.1 -13.4  33978  286.49 0855.31
2009/04/23 07:53:34.7     -72     40     13     83     85 298.9   9.0  33976  286.46 0855.31
2009/04/23 07:53:34.8     -32     30     41     44     60 313.1  48.0  33976  286.47 0855.31
2009/04/23 07:53:34.9       3     -8     58      9     58 154.6  90.0  33978  286.51 0855.31
2009/04/23 07:53:35.0      10    -58     57     59     82 170.2  49.4  33976  286.46 0855.31
2009/04/23 07:53:35.1     -21    -64     65     68     94 198.3  49.4  33978  286.49 0855.31
2009/04/23 07:53:35.2     -14    -54     46     56     72 195.1  43.8  33974  286.42 0855.31
2009/04/23 07:53:35.3      -9    -56     43     57     71 189.8  41.7  33972  286.39 0855.31
2009/04/23 07:53:35.4     -12    -62     40     64     75 191.6  35.5  33972  286.39 0855.31
2009/04/23 07:53:35.5     -21    -63     31     67     73 198.3  27.1  33972  286.41 0855.31
2009/04/23 07:53:35.6     -21    -63     31     67     73 198.3  27.1  33972  286.41 0855.31
2009/04/23 07:53:35.7     -28    -60     23     67     72 205.5  19.4  33972  286.41 0855.31
2009/04/23 07:53:35.8     -26    -56     27     62     67 205.4  24.1  33972  286.41 0855.31
2009/04/23 07:53:35.9     -21    -56     39     60     71 200.9  35.6  33974  286.42 0855.31
2009/04/23 07:53:36.0     -32    -64     35     72     80 207.2  27.8  33972  286.39 0855.31
2009/04/23 07:53:36.1     -33    -58     23     68     72 209.9  18.9  33970  286.35 0855.31
2009/04/23 07:53:36.2     -25    -63     32     68     75 201.8  27.2  33974  286.42 0855.31
2009/04/23 07:53:36.3     -16    -71     35     73     80 193.4  27.8  33972  286.41 0855.31
2009/04/23 07:53:36.4     -14    -70     47     72     85 191.5  36.0  33974  286.42 0855.31
2009/04/23 07:53:36.5     -24    -63     44     68     80 200.9  36.0  33972  286.39 0855.31
2009/04/23 07:53:36.6     -16    -71     35     73     80 193.4  27.8  33972  286.41 0855.31
2009/04/23 07:53:36.7       4    -77      1     78     79 176.4   0.8  33972  286.41 0855.31
2009/04/23 07:53:36.8       0    -99     -3    100    101 180.0  -2.2  33972  286.41 0855.31
2009/04/23 07:53:36.9       7    -84    -15     85     87 174.7 -10.3  33976  286.47 0855.31
2009/04/23 07:53:37.0      23   -113      8    116    117 168.4   4.4  33974  286.44 0855.31
2009/04/23 07:53:37.1      21   -125     10    127    128 170.2   4.9  33978  286.49 0855.31
2009/04/23 07:53:37.2       2   -123      6    124    125 179.0   2.9  33978  286.49 0855.31
2009/04/23 07:53:37.3       3   -116      0    117    118 178.2  -0.3  33978  286.49 0855.31
2009/04/23 07:53:37.4       7   -112     -4    113    114 176.0  -2.2  33976  286.46 0855.31
2009/04/23 07:53:37.5       3   -100      7    101    102 178.2   4.4  33974  286.42 0855.31
2009/04/23 07:53:37.6       8   -100     -2    101    102 175.1  -1.3  33978  286.49 0855.31
2009/04/23 07:53:37.7       3   -108     -6    109    110 178.2  -3.1  33978  286.49 0855.31
2009/04/23 07:53:37.8       0   -103     -6    104    105 180.4  -3.7  33976  286.47 0855.31
2009/04/23 07:53:37.9       0    -97     -2     98     99 179.5  -1.3  33976  286.47 0855.31
2009/04/23 07:53:38.0      14   -103      7    105    106 172.0   3.8  33978  286.49 0855.31
2009/04/23 07:53:38.1      27   -120     34    124    129 167.1  15.3  33976  286.47 0855.31
2009/04/23 07:53:38.2      21   -106     39    109    115 168.4  20.0  33976  286.47 0855.31
2009/04/23 07:53:38.3      19   -109     50    111    121 169.8  25.7  33974  286.44 0855.31
2009/04/23 07:53:38.4      20   -125     44    127    135 170.7  19.4  33976  286.47 0855.31
2009/04/23 07:53:38.5      40   -126     45    133    141 162.2  18.9  33976  286.46 0855.31
2009/04/23 07:53:38.6      42   -115      5    123    124 159.9   2.3  33976  286.46 0855.31
2009/04/23 07:53:38.7      45   -104      5    114    115 156.4   2.9  33976  286.47 0855.31
2009/04/23 07:53:38.8      52   -109     14    121    122 154.5   6.9  33976  286.46 0855.31
2009/04/23 07:53:38.9      46   -115      9    125    126 158.1   4.4  33976  286.46 0855.31
2009/04/23 07:53:39.0      51   -112     14    124    125 155.5   6.9  33976  286.46 0855.31
2009/04/23 07:53:39.1      60   -112     32    128    133 151.9  14.3  33974  286.42 0855.31
2009/04/23 07:53:39.2      64   -118     41    135    142 151.5  16.8  33976  286.46 0855.31
2009/04/23 07:53:39.3      58   -108     19    123    125 151.5   9.0  33976  286.46 0855.31
2009/04/23 07:53:39.4      42   -106     -6    115    116 158.1  -3.2  33976  286.46 0855.31
2009/04/23 07:53:39.5      51   -112     19    124    126 155.5   9.0  33972  286.41 0855.31
2009/04/23 07:53:39.6      43   -117     19    125    127 159.5   8.9  33976  286.46 0855.31
2009/04/23 07:53:39.7      46   -107     10    117    118 156.4   4.9  33976  286.46 0855.31
2009/04/23 07:53:39.8      33   -102      5    108    109 162.2   2.9  33974  286.44 0855.31
2009/04/23 07:53:39.9      30    -90      4     96     97 161.3   2.9  33976  286.46 0855.31
2009/04/23 07:53:40.0      27    -95     18     99    101 164.0  10.6  33974  286.44 0855.31
2009/04/23 07:53:40.1      34    -83     10     90     91 157.3   6.9  33976  286.46 0855.31
2009/04/23 07:53:40.2      39    -86      4     95     96 155.5   2.8  33974  286.42 0855.31
2009/04/23 07:53:40.3      43    -96     -5    106    107 155.9  -3.1  33974  286.42 0855.31
2009/04/23 07:53:40.4      53   -109     39    122    129 154.1  17.9  33974  286.42 0855.31
2009/04/23 07:53:40.5      49   -103     13    115    116 154.5   6.5  33974  286.42 0855.31
2009/04/23 07:53:40.6      38   -103      4    110    111 159.5   2.3  33974  286.42 0855.31
2009/04/23 07:53:40.7      33   -112     14    117    118 163.5   6.9  33972  286.41 0855.31
2009/04/23 07:53:40.8      30   -113      5    118    119 164.8   2.8  33974  286.44 0855.31
2009/04/23 07:53:40.9      28   -117     10    121    122 166.6   4.9  33972  286.41 0855.31
2009/04/23 07:53:41.0      33   -112     14    117    118 163.5   6.9  33972  286.41 0855.31
2009/04/23 07:53:41.1      29   -111     35    115    121 165.3  17.3  33974  286.44 0855.31
2009/04/23 07:53:41.2      34   -108     16    114    116 162.6   8.0  33974  286.42 0855.32
2009/04/23 07:53:41.3      28   -105     25    109    112 164.9  13.2  33972  286.41 0855.32
2009/04/23 07:53:41.4      24    -97     38    101    107 165.7  21.0  33970  286.37 0855.32
2009/04/23 07:53:41.5      36    -96     42    103    111 159.1  23.1  33974  286.42 0855.32
2009/04/23 07:53:41.6      38    -92     44    100    109 157.3  25.7  33976  286.46 0855.32
2009/04/23 07:53:41.7      43    -89     56    100    114 154.1  31.9  33974  286.42 0855.32
2009/04/23 07:53:41.8      40    -87     60     96    113 155.1  35.5  33974  286.44 0855.32
2009/04/23 07:53:41.9      43    -82     49     93    105 151.9  30.3  33974  286.44 0855.32
2009/04/23 07:53:42.0      36    -63     42     73     84 150.1  32.9  33974  286.44 0855.32
2009/04/23 07:53:42.1      29    -66     42     73     84 156.4  32.9  33974  286.44 0855.32
2009/04/23 07:53:42.2      18    -71     38     74     83 165.7  29.3  33976  286.47 0855.32
2009/04/23 07:53:42.3      12    -73     44     75     86 170.2  33.5  33976  286.46 0855.32
2009/04/23 07:53:42.4      11    -73     32     74     80 171.1  25.1  33974  286.44 0855.32
2009/04/23 07:53:42.5       0    -61      5     62     63 180.0   4.9  33974  286.42 0855.32
2009/04/23 07:53:42.6       5    -65     12     66     68 175.5  11.0  33976  286.46 0855.32
2009/04/23 07:53:42.7       3    -62      8     63     64 176.4   8.0  33978  286.49 0855.32
2009/04/23 07:53:42.8      15    -66     24     68     73 166.6  19.4  33976  286.46 0855.32
2009/04/23 07:53:42.9      10    -76     34     77     84 172.0  24.6  33974  286.44 0855.32
2009/04/23 07:53:43.0       9    -70     42     71     82 172.0  33.5  33976  286.47 0855.32
2009/04/23 07:53:43.1       6    -66     40     67     78 174.7  34.4  33976  286.46 0855.32
2009/04/23 07:53:43.2       6    -66     40     67     78 174.7  34.4  33976  286.46 0855.31
2009/04/23 07:53:43.3       1    -57     35     58     67 178.2  34.4  33976  286.46 0855.31
2009/04/23 07:53:43.4       5    -49     27     50     56 173.8  30.3  33976  286.46 0855.31
2009/04/23 07:53:43.5      17    -40     24     44     50 156.4  31.4  33978  286.49 0855.31
2009/04/23 07:53:43.6      14    -37     22     40     45 158.2  32.4  33976  286.46 0855.31
2009/04/23 07:53:43.7      17    -40     24     44     50 156.4  31.4  33978  286.49 0855.31
2009/04/23 07:53:43.8      12    -38      5     41     42 161.5   6.9  33974  286.42 0855.31
2009/04/23 07:53:43.9      21    -21     -5     31     32 135.0  -9.3  33976  286.46 0855.31
2009/04/23 07:53:44.0      24    -18    -11     31     33 127.8 -19.7  33976  286.46 0855.31
2009/04/23 07:53:44.1      33    -23    -15     41     43 124.2 -24.4  33974  286.42 0855.31
2009/04/23 07:53:44.2      42    -16    -20     46     50 111.7 -30.6  33976  286.47 0855.31
2009/04/23 07:53:44.3      50      0    -25     51     56  89.2 -31.7  33976  286.47 0855.31
2009/04/23 07:53:44.4      35     11    -25     37     44  71.8 -40.9  33976  286.46 0855.31
2009/04/23 07:53:44.5      29      8    -24     31     39  74.9 -48.1  33974  286.44 0855.31
2009/04/23 07:53:44.6      38     11      0     40     41  73.2  -0.3  33976  286.46 0855.31
2009/04/23 07:53:44.7      74     13     20     76     79  79.4  15.3  33972  286.41 0855.31
2009/04/23 07:53:44.8      63      4     17     64     67  85.7  15.2  33976  286.46 0855.31
2009/04/23 07:53:44.9      45     14     24     48     53  71.8  27.3  33974  286.42 0855.31
2009/04/23 07:53:45.0      35     25     21     44     48  54.0  26.2  33972  286.39 0855.31
2009/04/23 07:53:45.1      27     23     12     36     39  48.7  18.9  33972  286.39 0855.31
2009/04/23 07:53:45.2      17     20      3     27     28  41.4   6.9  33972  286.39 0855.31
2009/04/23 07:53:45.3      19     30      1     36     37  32.5   2.9  33970  286.35 0855.31
2009/04/23 07:53:45.4      21     29      7     36     37  36.1  11.0  33972  286.39 0855.31
2009/04/23 07:53:45.5       0     31     -1     32     33 359.1  -2.2  33970  286.35 0855.31
2009/04/23 07:53:45.6     -24     23    -13     34     36 313.3 -23.3  33972  286.41 0855.31
2009/04/23 07:53:45.7     -49      9    -20     50     53 281.5 -26.4  33970  286.37 0855.31
2009/04/23 07:53:45.8     -61      3    -20     62     65 273.5 -23.8  33970  286.37 0855.31
2009/04/23 07:53:45.9     -46      7    -24     47     52 278.8 -32.6  33974  286.42 0855.31
2009/04/23 07:53:46.0     -45     15    -17     48     50 288.4 -23.3  33984  286.61 0855.31
2009/04/23 07:53:46.1     -49     21    -22     54     58 293.5 -26.4  33994  286.78 0855.31
2009/04/23 07:53:46.2     -64     22    -28     68     73 289.1 -27.4  33992  286.74 0855.31
2009/04/23 07:53:46.3     -50     24    -20     56     60 296.2 -19.7  33988  286.66 0855.31
2009/04/23 07:53:46.4     -55     35     -3     66     67 302.4  -3.2  33974  286.42 0855.31
2009/04/23 07:53:46.5     -58     42     -3     72     73 306.0  -3.1  33980  286.52 0855.31
2009/04/23 07:53:46.6     -90     14    -31     92     98 278.8 -18.7  33982  286.56 0855.31
2009/04/23 07:53:46.7    -106     -3      5    107    108 268.3   2.8  33982  286.56 0855.31
2009/04/23 07:53:46.8     -97      5     12     98     99 273.5   7.1  33988  286.66 0855.31
2009/04/23 07:53:46.9     -98     26      8    102    103 285.0   4.9  34008  287.01 0855.31
2009/04/23 07:53:47.0     -52     26    -18     59     61 297.1 -21.7  34004  286.94 0855.31
2009/04/23 07:53:47.1     -27     43    -18     52     56 327.5 -19.7  33998  286.84 0855.31
2009/04/23 07:53:47.2     -22     13    -28     26     38 300.7 -52.6  33998  286.84 0855.32
2009/04/23 07:53:47.3     -44     33    -39     56     68 306.9 -43.0  34000  286.86 0855.32
2009/04/23 07:53:47.4     -57     31    -24     66     70 298.8 -24.4  33996  286.81 0855.32
2009/04/23 07:53:47.5     -76     15    -23     78     81 281.4 -21.2  33988  286.66 0855.32
2009/04/23 07:53:47.6     -65     16     -1     68     69 284.2  -1.2  33982  286.57 0855.32
2009/04/23 07:53:47.7     -67      5      3     68     69 274.4   2.9  33970  286.37 0855.32
2009/04/23 07:53:47.8     -94     10     35     95    101 276.6  21.0  33964  286.27 0855.32
2009/04/23 07:53:47.9     -94     18     49     96    107 281.4  28.2  33960  286.19 0855.32
2009/04/23 07:53:48.0    -102     -7     63    103    120 265.7  34.4  33962  286.22 0855.32
2009/04/23 07:53:48.1     -78    -64     58    102    117 230.5  31.9  33962  286.24 0855.32
2009/04/23 07:53:48.2    -113    -67     46    132    141 239.3  19.4  33972  286.41 0855.32
2009/04/23 07:53:48.3     -99    -99     40    141    147 225.1  15.8  33958  286.15 0855.32
2009/04/23 07:53:48.4     -95    -83     49    127    136 228.7  22.0  33956  286.12 0855.32
2009/04/23 07:53:48.5    -112    -37     18    119    121 251.4   8.9  33958  286.17 0855.32
2009/04/23 07:53:48.6     -78    -32     10     85     86 247.4   6.9  33972  286.41 0855.32
2009/04/23 07:53:48.7     -21    -34     46     41     61 211.6  53.3  33986  286.64 0855.32
2009/04/23 07:53:48.8     -43    -27     41     51     65 237.5  43.7  33988  286.67 0855.32
2009/04/23 07:53:48.9     -65    -13     31     67     73 258.5  27.1  34010  287.03 0855.32
2009/04/23 07:53:49.0     -80    -11     36     81     88 262.1  25.7  34016  287.15 0855.32
2009/04/23 07:53:49.1     -67    -13      8     69     70 258.6   6.9  34066  287.98 0855.32
2009/04/23 07:53:49.2     -63    -18     11     66     68 254.1  10.1  34094  288.45 0855.31
2009/04/23 07:53:49.3     -71    -32     47     79     91 245.6  34.0  34120  288.89 0855.31
2009/04/23 07:53:49.4     -82    -27     22     87     90 251.8  14.3  34128  289.02 0855.31
2009/04/23 07:53:49.5     -76    -24     29     80     85 251.8  20.0  34136  289.16 0855.31
2009/04/23 07:53:49.6     -77    -25     34     82     88 251.6  23.6  34134  289.14 0855.31
2009/04/23 07:53:49.7     -60    -11      3     62     63 259.4   2.9  34122  288.94 0855.31
2009/04/23 07:53:49.8     -48      3     20     49     52 274.4  23.0  34114  288.79 0855.31
2009/04/23 07:53:49.9     -46      3    -21     47     51 274.3 -30.6  34114  288.79 0855.31
2009/04/23 07:53:50.0     -30      6    -64     31     71 281.5 -77.2  34116  288.84 0855.31
2009/04/23 07:53:50.1      -9     27    -51     29     58 341.7 -71.2  34100  288.57 0855.31
2009/04/23 07:53:50.2       0     28    -49     29     56 359.1 -70.1  34090  288.38 0855.31
2009/04/23 07:53:50.3     -12     14    -46     19     49 320.4 -81.5  34072  288.08 0855.31
2009/04/23 07:53:50.4     -18      7    -43     20     47 291.7 -78.4  34076  288.14 0855.31
2009/04/23 07:53:50.5     -28      2    -41     29     50 274.3 -65.9  34084  288.30 0855.31
2009/04/23 07:53:50.6     -30      9    -37     32     48 286.8 -57.7  34082  288.26 0855.31
2009/04/23 07:53:50.7     -49     25    -35     56     66 297.1 -39.9  34082  288.25 0855.31
2009/04/23 07:53:50.8     -86     -3    -42     87     96 267.9 -31.7  34034  287.43 0855.31
2009/04/23 07:53:50.9     -83    -34    -28     90     95 247.8 -17.6  33970  286.35 0855.31
2009/04/23 07:53:51.0    -108    -32    -14    113    114 253.2  -7.3  34022  287.23 0855.31
2009/04/23 07:53:51.1     -99    -63     18    118    120 237.5   8.9  34014  287.11 0855.31
2009/04/23 07:53:51.2    -110    -66      5    129    130 238.9   2.3  34012  287.06 0855.31
2009/04/23 07:53:51.3    -156    -52      6    165    166 251.6   2.1  34040  287.55 0855.31
2009/04/23 07:53:51.4    -154    -31     22    158    160 258.5   8.2  34048  287.69 0855.31
2009/04/23 07:53:51.5    -153    -37     32    158    162 256.3  11.4  34078  288.18 0855.31
2009/04/23 07:53:51.7    -140    -18     38    142    148 262.5  15.2  34074  288.11 0855.31
2009/04/23 07:53:51.7    -131    -21     41    133    140 260.8  17.4  34068  288.01 0855.31
2009/04/23 07:53:51.8    -134    -36     32    139    143 254.9  13.2  34072  288.09 0855.31
2009/04/23 07:53:51.9    -105    -12     47    106    115 263.4  25.7  34068  288.03 0855.31
2009/04/23 07:53:52.0    -121    -48     20    131    133 248.3   9.0  34044  287.62 0855.31
2009/04/23 07:53:52.1    -131    -43      2    138    139 251.8   1.2  33984  286.61 0855.31
2009/04/23 07:53:52.2    -131    -44    -10    139    140 251.4  -4.1  33984  286.59 0855.31
2009/04/23 07:53:52.3    -122    -36     -7    128    129 253.2  -3.2  33982  286.57 0855.31
2009/04/23 07:53:52.4    -126    -34    -14    131    132 254.9  -6.2  33992  286.73 0855.31
2009/04/23 07:53:52.5    -149    -30    -27    152    155 258.5 -10.1  34008  287.01 0855.31
2009/04/23 07:53:52.6    -129    -22    -36    131    136 260.3 -15.5  34050  287.70 0855.31
2009/04/23 07:53:52.7    -113    -22    -59    116    130 259.0 -33.6  34034  287.45 0855.31
2009/04/23 07:53:52.8    -127      1    -11    128    129 270.8  -5.2  34040  287.55 0855.31
2009/04/23 07:53:52.9    -117     -9      2    118    119 265.6   1.2  33994  286.76 0855.31
2009/04/23 07:53:53.0    -106    -31     -5    111    112 253.6  -2.6  34006  286.96 0855.31
2009/04/23 07:53:53.1    -127    -46    -24    136    139 250.0 -10.3  33998  286.83 0855.31
2009/04/23 07:53:53.2     -94    -45     11    105    106 244.2   6.5  33976  286.46 0855.31
2009/04/23 07:53:53.3     -74    -45     37     87     94 238.5  24.6  33974  286.42 0855.31
2009/04/23 07:53:53.4     -31    -49     34     59     68 212.6  32.4  33966  286.29 0855.31
2009/04/23 07:53:53.5      -9    -27     43     29     51 198.3  62.6  33966  286.30 0855.31
2009/04/23 07:53:53.6     -25    -23     53     35     63 226.9  63.6  33972  286.41 0855.31
2009/04/23 07:53:53.7     -23    -23     44     33     55 225.0  59.4  33976  286.46 0855.31
2009/04/23 07:53:53.8      -8    -14     37     17     40 209.0  74.0  33974  286.42 0855.31
2009/04/23 07:53:53.9      -3    -14     35     15     38 195.1  77.1  33972  286.39 0855.31
2009/04/23 07:53:54.0      -2    -25     31     26     40 184.5  55.4  33970  286.35 0855.31
2009/04/23 07:53:54.1      -7    -38     37     39     53 191.6  50.0  33968  286.32 0855.31
2009/04/23 07:53:54.2       5    -34     33     35     48 170.2  50.0  33972  286.39 0855.31
2009/04/23 07:53:54.3      10    -32     33     34     47 161.7  51.1  33976  286.47 0855.31
2009/04/23 07:53:54.4      10    -31     28     33     43 161.3  45.8  33974  286.42 0855.31
2009/04/23 07:53:54.5      10    -24      3     27     28 156.4   6.9  33974  286.44 0855.31
2009/04/23 07:53:54.6       0    -20      0     21     22 180.9  -2.2  33976  286.46 0855.31
2009/04/23 07:53:54.7     -12     -8     -6     15     16 237.6 -23.3  33974  286.42 0855.31
2009/04/23 07:53:54.8      -7    -13     -2     16     17 209.0  -7.2  33974  286.42 0855.31
2009/04/23 07:53:54.9       0    -20     -7     21     23 182.7 -19.7  33976  286.47 0855.31
2009/04/23 07:53:55.0       0    -20     -6     21     23 180.9 -17.6  33976  286.47 0855.31
2009/04/23 07:53:55.1     -12    -14     -6     19     19 221.4 -23.8  33976  286.47 0855.31
2009/04/23 07:53:55.2      -6     -6      0      9     10 226.9  -3.1  33976  286.47 0855.32
2009/04/23 07:53:55.3     -16    -10      4     20     21 237.5  13.2  33976  286.46 0855.32
2009/04/23 07:53:55.4     -18     -5      1     19     20 251.8   2.9  33976  286.47 0855.32
2009/04/23 07:53:55.5     -23      0     -3     24     25 270.0  -7.2  33976  286.47 0855.32
2009/04/23 07:53:55.6     -34     -6     -4     35     36 258.5  -7.2  33976  286.47 0855.32
2009/04/23 07:53:55.7     -35     -7    -14     36     38 258.5 -23.3  33978  286.49 0855.32
2009/04/23 07:53:55.8     -42    -13     -4     45     46 252.3  -6.2  33974  286.44 0855.32
2009/04/23 07:53:55.9     -37     -8      7     39     40 256.7  11.1  33974  286.44 0855.32
2009/04/23 07:53:56.0     -31     -6      0     32     33 258.5   0.8  33972  286.41 0855.32
2009/04/23 07:53:56.1     -24    -19     -4     31     32 232.2  -7.3  33976  286.46 0855.32
2009/04/23 07:53:56.2     -31    -14      0     35     36 244.7  -1.3  33976  286.47 0855.32
2009/04/23 07:53:56.3     -26     -8     20     28     34 251.4  37.6  33978  286.49 0855.32
2009/04/23 07:53:56.4     -29    -15     26     33     42 242.9  42.7  33978  286.51 0855.32
2009/04/23 07:53:56.5     -24     -8     19     26     32 251.6  39.7  33976  286.47 0855.32
2009/04/23 07:53:56.6     -16      0     22     17     27 270.0  58.5  33976  286.46 0855.32
2009/04/23 07:53:56.7     -12     12     18     18     25 315.0  50.1  33976  286.47 0855.32
2009/04/23 07:53:56.8     -14     -3     11     15     18 254.9  39.7  33974  286.44 0855.32
2009/04/23 07:53:56.9     -32    -27      3     43     44 229.6   4.9  33970  286.37 0855.32
2009/04/23 07:53:57.0     -53    -36     -8     65     66 235.8  -7.2  33966  286.29 0855.32
2009/04/23 07:53:57.1     -60    -25      2     66     67 247.4   1.8  33964  286.27 0855.32
2009/04/23 07:53:57.2     -51     -3     -6     52     53 265.7  -7.3  33968  286.34 0855.31
2009/04/23 07:53:57.3     -53     -6     -7     54     55 263.0  -7.3  33968  286.32 0855.31
2009/04/23 07:53:57.5     -43    -35      2     56     57 230.5   2.8  33966  286.29 0855.31
2009/04/23 07:53:57.5     -76    -40     -1     87     88 242.0  -1.3  33968  286.32 0855.31
2009/04/23 07:53:57.6     -90    -39     35     99    106 246.5  19.4  33976  286.46 0855.31
2009/04/23 07:53:57.7     -86    -46     49     98    109 242.0  28.2  33976  286.46 0855.31
2009/04/23 07:53:57.8     -96    -39     58    104    119 247.4  31.4  33988  286.67 0855.31
2009/04/23 07:53:57.9    -114    -16     47    116    125 261.6  23.0  34010  287.05 0855.31
2009/04/23 07:53:58.0    -124    -12     44    125    133 264.3  19.4  34004  286.93 0855.31
2009/04/23 07:53:58.1    -108    -51     42    120    128 244.8  19.4  33982  286.56 0855.31
2009/04/23 07:53:58.3     -75    -35     36     83     90 244.8  25.1  33980  286.52 0855.31
2009/04/23 07:53:58.4     -55    -29     55     63     83 242.0  46.4  33980  286.54 0855.31
2009/04/23 07:53:58.4     -23    -59     75     64     98 201.9  55.4  33982  286.56 0855.31
2009/04/23 07:53:58.5     -33    -80     70     87    111 202.3  43.7  33986  286.62 0855.31
2009/04/23 07:53:58.7     -36   -103     85    110    139 199.2  41.7  33982  286.56 0855.31
2009/04/23 07:53:58.8     -23   -112     57    115    128 191.6  28.2  33982  286.57 0855.31
2009/04/23 07:53:58.9     -36    -96     51    103    114 200.5  27.8  33982  286.56 0855.31
2009/04/23 07:53:59.0     -48   -102     32    113    118 205.3  15.8  33980  286.52 0855.31
2009/04/23 07:53:59.1     -43    -96     31    106    111 204.1  16.3  33978  286.51 0855.31
2009/04/23 07:53:59.2     -31    -93     38     99    106 198.7  22.0  33980  286.54 0855.31
2009/04/23 07:53:59.3     -45    -87     49     99    110 207.6  27.8  33982  286.57 0855.32
2009/04/23 07:53:59.4     -54    -85     54    101    114 212.5  30.8  33982  286.56 0855.32
2009/04/23 07:53:59.5     -46    -79     62     92    110 210.7  37.0  33988  286.67 0855.32
2009/04/23 07:53:59.6     -10    -90     69     91    114 186.7  41.2  33990  286.69 0855.32
2009/04/23 07:53:59.7     -16    -99     58    101    116 189.3  32.4  33984  286.61 0855.32
2009/04/23 07:53:59.8     -31    -94     60    100    116 198.3  34.4  33982  286.57 0855.32
2009/04/23 07:53:59.9     -20   -104     54    107    119 191.1  29.2  33986  286.64 0855.32
2009/04/23 07:54:00.0     -30   -107     57    112    125 196.0  29.2  33986  286.62 0855.32
2009/04/23 07:54:00.1     -39   -108     75    115    137 200.0  36.0  33978  286.49 0855.32
2009/04/23 07:54:00.2     -17   -105     90    107    139 189.3  43.8  33974  286.42 0855.32
2009/04/23 07:54:00.3     -23    -95     98     98    138 193.8  50.1  33972  286.41 0855.31
2009/04/23 07:54:00.4     -31    -89     97     95    135 199.2  50.1  33976  286.46 0855.31
2009/04/23 07:54:00.5     -14    -70     94     72    118 191.6  58.5  33978  286.49 0855.31
2009/04/23 07:54:00.6     -23    -58     75     63     97 201.9  55.8  33976  286.46 0855.31
2009/04/23 07:54:00.7       4    -70     82     71    108 176.4  54.8  33974  286.44 0855.31
2009/04/23 07:54:00.8     -22    -52     66     57     87 202.7  54.3  33976  286.46 0855.31
2009/04/23 07:54:00.9     -28    -55     80     62    101 207.2  57.9  33972  286.41 0855.31
2009/04/23 07:54:01.0      -4    -28     77     29     82 188.0  78.6  33976  286.47 0855.31
2009/04/23 07:54:01.1      -5      6     62      8     62 320.4  90.0  33984  286.59 0855.31
2009/04/23 07:54:01.2     -18      6     55     20     58 290.0  81.2  33986  286.64 0855.31
2009/04/23 07:54:01.3      -8     13     44     16     46 327.5  80.2  33988  286.67 0855.31
2009/04/23 07:54:01.4     -18     38     54     43     69 334.6  56.4  33996  286.79 0855.31
2009/04/23 07:54:01.5     -75    -15     62     77     98 258.5  43.7  33986  286.62 0855.31
2009/04/23 07:54:01.6     -81    -54     54     98    111 236.3  31.4  33978  286.51 0855.31
2009/04/23 07:54:01.7     -70    -98    116    121    167 215.6  49.0  33978  286.51 0855.31
2009/04/23 07:54:01.8    -122    -77    124    145    190 237.6  44.8  34032  287.40 0855.31
2009/04/23 07:54:01.9     -62    -87     90    107    139 215.6  43.8  33988  286.66 0855.31
2009/04/23 07:54:02.0     -57   -104     94    119    151 208.9  42.7  33980  286.54 0855.31
2009/04/23 07:54:02.1     -27   -103    120    107    160 195.1  53.7  33982  286.57 0855.31
2009/04/23 07:54:02.2     -55    -99    122    114    166 208.9  52.2  33980  286.54 0855.31
2009/04/23 07:54:02.3     -45    -78    117     91    148 209.9  58.4  33982  286.57 0855.31
2009/04/23 07:54:02.4     -27    -86    106     91    139 197.8  55.4  33982  286.56 0855.31
2009/04/23 07:54:02.5     -22    -81     85     85    120 195.6  50.1  33982  286.56 0855.31
2009/04/23 07:54:02.6      -6    -68     63     69     93 185.3  47.9  33980  286.54 0855.31
2009/04/23 07:54:02.7     -15    -58     51     61     79 195.2  44.3  33980  286.54 0855.31
2009/04/23 07:54:02.8     -12    -62     54     64     83 191.6  45.4  33982  286.56 0855.31
2009/04/23 07:54:02.9      -2    -58     57     59     82 182.7  49.4  33978  286.51 0855.31
2009/04/23 07:54:03.0       6    -70     61     71     93 174.7  45.4  33982  286.56 0855.31
2009/04/23 07:54:03.1      34    -85     34     92     98 157.7  21.5  33982  286.56 0855.31
2009/04/23 07:54:03.2      10    -89     17     90     92 173.3  11.0  33986  286.62 0855.31
2009/04/23 07:54:03.3       3    -98     11     99    100 178.2   6.5  33984  286.59 0855.31
2009/04/23 07:54:03.4      22   -102     -8    105    106 167.5  -4.6  33986  286.64 0855.31
2009/04/23 07:54:03.5      21    -93    -15     96     98 167.1  -9.3  33986  286.64 0855.31
2009/04/23 07:54:03.6       7    -93     -2     94     95 175.5  -1.8  33984  286.59 0855.31
2009/04/23 07:54:03.7      15    -75    -12     77     79 168.4  -9.3  33988  286.66 0855.31
2009/04/23 07:54:03.8      23    -69     -9     73     74 161.3  -7.2  33988  286.66 0855.31
2009/04/23 07:54:03.9       7    -66     -1     67     68 173.8  -1.3  33986  286.62 0855.31
2009/04/23 07:54:04.0       0    -67      3     68     69 180.0   2.9  33986  286.64 0855.31
2009/04/23 07:54:04.1      -4    -55      4     56     57 184.5   4.9  33988  286.67 0855.31
2009/04/23 07:54:04.2      -6    -57     11     58     60 186.2  11.0  33988  286.66 0855.31
2009/04/23 07:54:04.3      -3    -45     16     46     49 184.5  19.4  33986  286.64 0855.31
2009/04/23 07:54:04.4     -12    -35     11     38     40 198.7  17.3  33988  286.66 0855.31
2009/04/23 07:54:04.5      -5    -41      4     42     43 188.0   5.9  33990  286.69 0855.31
2009/04/23 07:54:04.6      -1    -38     -8     39     40 182.6 -12.4  33986  286.64 0855.31
2009/04/23 07:54:04.7       2    -37    -10     38     40 175.5 -15.5  33988  286.66 0855.31
2009/04/23 07:54:04.8       1    -35    -11     36     37 177.3 -23.8  33990  286.69 0855.31
2009/04/23 07:54:04.9       3    -30     -4     31     32 173.8  -7.2  33986  286.64 0855.31
2009/04/23 07:54:05.0       3    -29     10     30     32 173.8  18.9  33986  286.64 0855.31
2009/04/23 07:54:05.1       6    -26     13     27     29 166.6  27.3  33988  286.67 0855.31
2009/04/23 07:54:05.2       2    -25     22     26     34 175.5  45.8  33984  286.61 0855.31
2009/04/23 07:54:05.3       0    -14     19     15     24 182.7  56.4  33984  286.59 0855.31
2009/04/23 07:54:05.4      17     -7     10     19     21 111.7  29.3  33986  286.64 0855.31
2009/04/23 07:54:05.5      25    -22      4     34     35 131.3   6.9  33986  286.64 0855.31
2009/04/23 07:54:05.6      31    -14     11     35     37 115.3  17.3  33986  286.64 0855.31
2009/04/23 07:54:05.7      24     -4     11     25     27  99.7  25.1  33990  286.69 0855.31
2009/04/23 07:54:05.8      35      0     16     36     39  90.0  25.1  33992  286.74 0855.31
2009/04/23 07:54:05.9      42     18     16     46     49  66.5  19.4  33992  286.74 0855.31
2009/04/23 07:54:06.0      54     21      3     59     60  68.3   3.8  33996  286.79 0855.31
2009/04/23 07:54:06.1      76     23      5     80     81  73.2   3.8  33998  286.83 0855.31
2009/04/23 07:54:06.2      75      5     12     76     77  85.7   9.0  33998  286.83 0855.31
2009/04/23 07:54:06.3      82      8     12     83     84  83.9   8.5  33998  286.84 0855.31
2009/04/23 07:54:06.4      71      5     24     72     77  85.7  18.9  33998  286.83 0855.31
2009/04/23 07:54:06.5      71     -3     28     72     77  92.6  22.0  34002  286.91 0855.31
2009/04/23 07:54:06.6      60      9     32     61     68  81.2  29.3  34002  286.91 0855.31
2009/04/23 07:54:06.7      60      9     32     61     68  81.2  29.3  34006  286.96 0855.31
2009/04/23 07:54:06.8      62     10     26     63     68  80.3  23.0  34006  286.98 0855.31
2009/04/23 07:54:06.9      56     -4     28     57     63  94.3  27.3  34000  286.86 0855.31
2009/04/23 07:54:07.0      48      2     17     49     53  86.5  19.4  33994  286.78 0855.31
2009/04/23 07:54:07.1      40      6     20     41     45  81.2  28.2  33992  286.74 0855.31
2009/04/23 07:54:07.2      19      3     32     20     37  78.5  64.7  33990  286.69 0855.31
2009/04/23 07:54:07.3      11      0     39     12     40  89.2  82.8  33992  286.73 0855.31
2009/04/23 07:54:07.4       1     -4     28      5     28 168.4  90.0  33992  286.74 0855.31
2009/04/23 07:54:07.5     -15     -2     24     16     28 262.1  64.6  33992  286.74 0855.31
2009/04/23 07:54:07.6     -13      8     19     16     24 302.4  54.3  33992  286.74 0855.31
2009/04/23 07:54:07.7       0     16     19     17     25   0.9  52.2  33992  286.74 0855.31
2009/04/23 07:54:07.8       8      2     18      9     20  71.8  70.8  33994  286.76 0855.31
2009/04/23 07:54:07.9      -1     16     20     17     26 355.6  54.3  33992  286.74 0855.31
2009/04/23 07:54:08.0      16      6     17     18     24  68.3  52.0  33992  286.73 0855.31
2009/04/23 07:54:08.1      23     10     24     26     35  66.5  50.0  33990  286.69 0855.31
2009/04/23 07:54:08.2      26      0     26     27     37  90.0  52.0  33988  286.67 0855.31
2009/04/23 07:54:08.3      32      2     19     33     38  85.6  35.5  33986  286.62 0855.31
2009/04/23 07:54:08.4      36     -2     25     37     44  94.3  36.5  33986  286.64 0855.31
2009/04/23 07:54:08.5      36    -13     35     39     52 110.0  46.9  33988  286.67 0855.31
2009/04/23 07:54:08.6      41     -9     29     43     51 103.3  37.6  33990  286.69 0855.31
2009/04/23 07:54:08.7      41     -5     21     42     46  97.0  28.2  33992  286.74 0855.31
2009/04/23 07:54:08.8      35    -11      1     37     38 108.2   2.9  33992  286.74 0855.31
2009/04/23 07:54:08.9      25     -6     -1     26     27 105.1  -2.2  33990  286.71 0855.31
2009/04/23 07:54:09.0      26    -15     -8     31     33 120.7 -15.5  33992  286.74 0855.31
2009/04/23 07:54:09.1      26    -15     -8     31     33 120.7 -15.5  33992  286.74 0855.31
2009/04/23 07:54:09.2      22     -7    -11     24     26 108.6 -29.5  33992  286.74 0855.31
2009/04/23 07:54:09.3      17     -5     -9     18     20 108.2 -33.7  33990  286.71 0855.31
2009/04/23 07:54:09.4      17     -5     -9     18     20 108.2 -33.7  33990  286.71 0855.31
2009/04/23 07:54:09.5       7     -6     -4     10     10 133.1 -27.4  33990  286.71 0855.31
2009/04/23 07:54:09.6       7     -6     -4     10     10 133.1 -27.4  33990  286.71 0855.31
2009/04/23 07:54:09.7       0     -3      0      4      5 189.7  -2.2  33990  286.71 0855.31
2009/04/23 07:54:09.8      -6     -6      0      9     10 226.9  -3.1  33986  286.64 0855.31
2009/04/23 07:54:09.9     -11     -6      0     13     14 241.1  -2.2  33988  286.67 0855.31
2009/04/23 07:54:10.0      -3      0      0      4      5 281.5  11.1  33986  286.62 0855.31
2009/04/23 07:54:10.1      -2      3      4      4      5 327.5  50.1  33988  286.67 0855.31
2009/04/23 07:54:10.2      -2      3      4      4      5 327.5  50.1  33988  286.67 0855.31
2009/04/23 07:54:10.3      -3      0      2      4      4 270.0  35.5  33986  286.64 0855.32
2009/04/23 07:54:10.4      -3      0      2      4      4 270.0  35.5  33986  286.64 0855.32
2009/04/23 07:54:10.5       0      0      6      0      6   0.0 -90.0  33984  286.59 0855.32
2009/04/23 07:54:10.6       4     -1      5      5      7 108.4  50.1  33986  286.62 0855.32
2009/04/23 07:54:10.7       5      0      9      6     10  90.0  64.7  33988  286.66 0855.32
2009/04/23 07:54:10.8       5     -4     13      7     14 129.5  64.7  33988  286.67 0855.32
2009/04/23 07:54:10.9       2      0     10      3     10  90.0  84.9  33986  286.64 0855.32
2009/04/23 07:54:11.0      -5     10     13     12     17 331.0  48.2  33984  286.61 0855.32
2009/04/23 07:54:11.1      -3     14     15     15     21 344.9  50.1  33986  286.64 0855.32
2009/04/23 07:54:11.2      -2      5     16      6     17 334.6  81.2  33988  286.67 0855.32
2009/04/23 07:54:11.3       1     12     15     13     19   8.0  54.3  33990  286.69 0855.32
2009/04/23 07:54:11.4       4     15     17     16     23  15.1  50.1  33992  286.73 0855.32
2009/04/23 07:54:11.5      16      6     17     18     24  68.3  52.0  33992  286.73 0855.32
2009/04/23 07:54:11.6      12     16     12     21     24  36.1  31.4  33992  286.74 0855.32
2009/04/23 07:54:11.7       2     27     16     28     32   4.5  33.5  33990  286.69 0855.32
2009/04/23 07:54:11.8      13     23     19     27     33  30.7  39.7  33992  286.74 0855.32
2009/04/23 07:54:11.9      13     23     13     27     29  30.7  27.3  33988  286.67 0855.32
2009/04/23 07:54:12.0       5     37     17     38     41   8.0  25.1  33990  286.71 0855.32
2009/04/23 07:54:12.1       9     32     33     34     47  16.9  51.1  34016  287.13 0855.32
2009/04/23 07:54:12.2      -4     59     28     60     66 355.5  27.1  34050  287.72 0855.32
2009/04/23 07:54:12.3      -6     61     33     62     70 353.8  30.3  34068  288.03 0855.32
2009/04/23 07:54:12.4       0     56      2     57     58 359.1   2.9  34078  288.18 0855.32
2009/04/23 07:54:12.5      -3     48     -6     49     50 355.5  -7.3  34076  288.16 0855.32
2009/04/23 07:54:12.6      -1     57     -1     58     59 358.2  -1.3  34072  288.08 0855.32
2009/04/23 07:54:12.7      -4     54     18     55     58 355.6  18.4  34060  287.89 0855.32
2009/04/23 07:54:12.8       3     41     17     42     45   4.5  23.0  34054  287.79 0855.32
2009/04/23 07:54:12.9       8     30     22     32     38  15.1  37.6  34052  287.74 0855.32
2009/04/23 07:54:13.0      31     31     18     45     48  45.0  21.0  34038  287.52 0855.32
2009/04/23 07:54:13.1      30     23     17     39     42  52.2  25.1  34032  287.42 0855.32
2009/04/23 07:54:13.2      46     21     24     51     56  64.6  27.1  34014  287.11 0855.32
2009/04/23 07:54:13.3      57      4     36     58     68  85.6  35.5  34004  286.93 0855.32
2009/04/23 07:54:13.4      63     -6     35     64     72  96.1  31.3  34000  286.88 0855.32
2009/04/23 07:54:13.5      60    -18     47     63     78 106.8  41.2  33998  286.84 0855.32
2009/04/23 07:54:13.6      50    -13     36     52     63 105.1  38.6  34000  286.88 0855.32
2009/04/23 07:54:13.7      43    -17     41     47     62 111.7  46.9  34000  286.86 0855.32
2009/04/23 07:54:13.8      40     -6     47     41     62  98.8  53.3  34002  286.91 0855.32
2009/04/23 07:54:13.9      42     -2     42     43     60  93.5  50.0  33998  286.84 0855.32
2009/04/23 07:54:14.0      37     -2     37     38     53  94.4  51.1  33998  286.84 0855.32
2009/04/23 07:54:14.1      22      0     35     23     41  90.0  63.6  34000  286.88 0855.32
2009/04/23 07:54:14.2       0      0     40      0     40   0.0  90.0  33998  286.83 0855.32
2009/04/23 07:54:14.3     -10     11     35     16     38 316.6  75.0  33998  286.83 0855.31
2009/04/23 07:54:14.4     -13      8     26     16     30 302.4  64.7  33998  286.83 0855.31
2009/04/23 07:54:14.5      -8    -14     32     17     36 209.0  70.8  34000  286.86 0855.31
2009/04/23 07:54:14.6      -4    -21     35     22     41 191.6  64.7  33998  286.83 0855.31
2009/04/23 07:54:14.7     -12    -14     34     19     38 221.4  68.8  33996  286.79 0855.31
2009/04/23 07:54:14.8      -8    -22     38     24     44 200.0  64.7  33996  286.79 0855.31
2009/04/23 07:54:14.9     -11    -18     36     22     42 210.7  65.7  33994  286.78 0855.31
2009/04/23 07:54:15.0     -12    -20     35     24     42 210.7  62.6  33994  286.76 0855.31
2009/04/23 07:54:15.1       5    -10     33     12     35 151.0  81.2  33994  286.76 0855.31
2009/04/23 07:54:15.2       3    -14     31     15     34 164.9  72.9  33992  286.73 0855.31
2009/04/23 07:54:15.3       6    -26     33     27     42 166.6  55.4  33992  286.74 0855.31
2009/04/23 07:54:15.4       2    -25     29     26     38 175.5  52.2  33990  286.69 0855.31
2009/04/23 07:54:15.5       2    -25     29     26     38 175.5  52.2  33990  286.69 0855.31
2009/04/23 07:54:15.6       6    -17     33     19     38 161.3  64.7  33990  286.69 0855.31
2009/04/23 07:54:15.7      -1    -17     24     18     30 184.5  58.5  33990  286.69 0855.31
2009/04/23 07:54:15.8       0    -13     26     14     29 182.7  68.8  33992  286.73 0855.31
2009/04/23 07:54:15.9       5    -10     26     12     28 151.0  75.0  33992  286.73 0855.31
2009/04/23 07:54:16.0       3    -14     31     15     34 164.9  72.9  33992  286.73 0855.31
2009/04/23 07:54:16.1       0    -10     28     11     30 175.5  79.2  33990  286.69 0855.31
2009/04/23 07:54:16.2       0     -3     34      4     34 189.7  90.0  33990  286.71 0855.31
2009/04/23 07:54:16.3      -8    -14     24     17     29 209.0  62.6  33992  286.74 0855.31
2009/04/23 07:54:16.4       1      4     21      5     21  11.6  86.9  33994  286.76 0855.31
2009/04/23 07:54:16.5      -1      4     11      5     12 348.4  72.9  33992  286.74 0855.31
2009/04/23 07:54:16.6      -5      4      6      7      9 309.5  52.0  33990  286.69 0855.31
2009/04/23 07:54:16.7     -21     13      3     25     26 302.5   6.9  33990  286.71 0855.31
2009/04/23 07:54:16.8     -29     10     10     31     33 290.0  19.2  33990  286.69 0855.31
2009/04/23 07:54:16.9     -33     -2     11     34     37 265.6  18.9  33988  286.67 0855.31
2009/04/23 07:54:17.0     -23    -36     30     43     52 212.5  38.6  33988  286.66 0855.31
2009/04/23 07:54:17.1     -34    -53     57     64     85 212.5  46.4  33982  286.57 0855.31
2009/04/23 07:54:17.2       5    -66     87     67    109 175.5  58.5  33980  286.54 0855.31
2009/04/23 07:54:17.3       0    -82     76     83    112 180.4  47.9  33984  286.59 0855.31
2009/04/23 07:54:17.4      30    -41     59     51     77 143.9  54.3  33974  286.44 0855.31
2009/04/23 07:54:17.5       0    -25     52     26     58 179.1  71.9  33978  286.51 0855.31
2009/04/23 07:54:17.6      42    -14     58     45     73 109.1  57.5  33978  286.49 0855.31
2009/04/23 07:54:17.7      13    -30     46     33     56 156.4  61.5  33976  286.47 0855.31
2009/04/23 07:54:17.8      21    -12     47     25     53 120.7  69.8  33980  286.54 0855.31
2009/04/23 07:54:17.9      -2     37     49     38     62 355.5  58.5  33980  286.52 0855.31
2009/04/23 07:54:18.0      10     56     67     57     87  10.7  55.4  33978  286.49 0855.31
2009/04/23 07:54:18.1      -5     64     64     65     91 355.5  50.0  33980  286.54 0855.31
2009/04/23 07:54:18.2      11     43     50     45     67  15.1  52.2  33980  286.54 0855.31
2009/04/23 07:54:18.3     -10     54     57     55     79 349.3  50.7  33982  286.56 0855.31
2009/04/23 07:54:18.4     -15     43     51     46     68 340.0  52.2  33980  286.54 0855.31
2009/04/23 07:54:18.5     -12     36     41     38     55 341.5  52.2  33980  286.52 0855.31
2009/04/23 07:54:18.6     -20     36     33     42     53 330.1  43.7  33980  286.54 0855.31
2009/04/23 07:54:18.7     -28      9     25     30     39 288.6  43.8  33982  286.57 0855.31
2009/04/23 07:54:18.8     -23     -7     37     25     44 251.4  63.6  33984  286.59 0855.31
2009/04/23 07:54:18.9      -8    -26     54     28     60 198.7  69.8  33982  286.57 0855.31
2009/04/23 07:54:19.0     -61    -41     55     74     92 235.8  40.7  33982  286.57 0855.31
2009/04/23 07:54:19.1     -65    -55     65     86    107 229.6  40.7  33976  286.47 0855.31
2009/04/23 07:54:19.2     -77    -58     63     97    115 232.7  35.6  33982  286.56 0855.31
2009/04/23 07:54:19.3     -79    -95     58    124    136 219.6  27.1  33982  286.56 0855.31
2009/04/23 07:54:19.4     -61    -84     30    104    109 216.1  16.3  33982  286.56 0855.31
2009/04/23 07:54:19.5     -46    -99     21    110    113 204.9  11.0  33982  286.57 0855.31
2009/04/23 07:54:19.6     -37    -75      4     84     85 206.7   2.9  33982  286.56 0855.31
2009/04/23 07:54:19.7     -20    -48     -7     53     54 202.7  -8.2  33978  286.51 0855.31
2009/04/23 07:54:19.8     -17    -54     34     57     66 197.8  34.4  33980  286.54 0855.31
2009/04/23 07:54:19.9     -26    -70     66     75     99 200.9  45.8  33982  286.56 0855.31
2009/04/23 07:54:20.0     -14    -86     67     88    110 189.3  41.2  33978  286.51 0855.31
2009/04/23 07:54:20.1     -49    -91     60    104    120 208.5  32.9  33978  286.49 0855.31
2009/04/23 07:54:20.2     -22    -47     71     53     88 205.4  59.4  33976  286.46 0855.31
2009/04/23 07:54:20.3     -40    -44     35     60     69 222.3  33.5  33978  286.49 0855.31
2009/04/23 07:54:20.4     -66    -50     17     83     85 232.7  11.6  33978  286.51 0855.31
2009/04/23 07:54:20.5     -67    -66     23     95     98 225.6  13.7  33976  286.47 0855.31
2009/04/23 07:54:20.6     -67    -72     23     99    102 223.2  13.2  33970  286.37 0855.31
2009/04/23 07:54:20.7     -35    -72     38     81     89 206.3  27.1  33968  286.32 0855.31
2009/04/23 07:54:20.8     -42    -55    -16     70     72 217.8 -13.4  33968  286.34 0855.31
2009/04/23 07:54:20.9     -76    -25     -9     81     82 251.8  -6.7  33972  286.39 0855.31
2009/04/23 07:54:21.0     -80     23     28     84     89 285.9  18.4  33972  286.39 0855.31
2009/04/23 07:54:21.1     -86     23     31     90     96 285.1  19.4  33974  286.42 0855.31
2009/04/23 07:54:21.2     -96     41      0    105    106 293.1   0.2  33976  286.46 0855.31
2009/04/23 07:54:21.3     -90     32      8     96     97 289.5   4.9  33974  286.44 0855.31
2009/04/23 07:54:21.4    -100     22     -6    103    104 282.8  -3.7  33972  286.41 0855.31
2009/04/23 07:54:21.5     -81    -27     62     86    106 251.6  39.5  33968  286.32 0855.31
2009/04/23 07:54:21.6     -90    -43     65    100    119 244.2  36.0  33968  286.34 0855.31
2009/04/23 07:54:21.7    -140    -37     49    145    154 255.0  18.9  33976  286.46 0855.31
2009/04/23 07:54:21.8    -132    -27     52    135    144 258.1  21.5  33974  286.44 0855.31
2009/04/23 07:54:21.9    -134    -17     26    136    139 262.5  11.1  33976  286.46 0855.31
2009/04/23 07:54:22.0    -106    -23     45    109    117 257.6  23.6  33972  286.41 0855.31
2009/04/23 07:54:22.1    -119    -71     66    139    153 239.3  27.2  33980  286.52 0855.31
2009/04/23 07:54:22.2    -103    -66     24    123    126 237.5  11.1  33982  286.56 0855.31
2009/04/23 07:54:22.3     -79    -57     36     98    104 234.0  20.4  33980  286.54 0855.31
2009/04/23 07:54:22.4     -67    -61     89     91    127 227.8  49.9  33976  286.46 0855.31
2009/04/23 07:54:22.5     -77    -78     98    110    147 224.7  46.4  33982  286.56 0855.31
2009/04/23 07:54:22.6     -54    -42     77     69    103 232.2  52.7  33978  286.51 0855.31
2009/04/23 07:54:22.7    -114    -37     65    121    137 251.8  30.8  33990  286.71 0855.31
2009/04/23 07:54:22.8    -104    -91     37    139    145 228.7  15.2  33978  286.51 0855.31
2009/04/23 07:54:22.9     -55    -97     53    112    123 209.9  27.1  33978  286.51 0855.31
2009/04/23 07:54:23.0      -1    -88     72     89    114 180.9  43.7  33978  286.51 0855.31
2009/04/23 07:54:23.1      55    -35     78     66    102 122.4  55.4  33978  286.49 0855.31
2009/04/23 07:54:23.2     -10    -54     77     55     94 190.7  61.1  33978  286.49 0855.31
2009/04/23 07:54:23.3      -7    -82    106     83    134 185.3  58.4  33978  286.49 0855.31
2009/04/23 07:54:23.4      -1    -76    120     77    142 180.9  64.6  33974  286.44 0855.31
2009/04/23 07:54:23.5       3    -48    105     49    115 175.5  73.1  33974  286.44 0855.31
2009/04/23 07:54:23.6     -70   -109     86    130    155 212.6  36.0  33976  286.47 0855.31
2009/04/23 07:54:23.7     -45   -110     48    119    128 202.3  23.0  33978  286.51 0855.31
2009/04/23 07:54:23.8     -32   -119     75    124    144 195.2  34.4  33980  286.52 0855.31
2009/04/23 07:54:23.9     -10    -97    102     98    141 186.2  51.2  33978  286.51 0855.31
2009/04/23 07:54:24.0       0    -83     93     84    125 180.4  53.3  33982  286.56 0855.31
2009/04/23 07:54:24.1     -58    -96     61    113    128 211.2  30.8  33982  286.57 0855.31
2009/04/23 07:54:24.2      24    -63     68     68     96 159.1  50.1  33990  286.69 0855.31
2009/04/23 07:54:24.3     -21    -58     53     62     81 200.0  45.4  33988  286.67 0855.31
2009/04/23 07:54:24.4     -39    -54     65     67     93 216.0  50.0  33978  286.51 0855.31
2009/04/23 07:54:24.6     -29    -66     65     73     97 203.6  46.9  33980  286.54 0855.31
2009/04/23 07:54:24.6     -40    -64     54     76     93 212.5  39.1  33982  286.56 0855.31
2009/04/23 07:54:24.7     -40    -71     67     82    105 209.9  43.7  33978  286.51 0855.31
2009/04/23 07:54:24.9      -2    -50     65     51     82 182.7  57.5  33980  286.54 0855.31
2009/04/23 07:54:25.0     -13    -44     68     47     82 196.9  62.1  33982  286.56 0855.31
2009/04/23 07:54:25.1     -21    -50     53     55     76 202.7  50.0  33984  286.61 0855.31
2009/04/23 07:54:25.2      33    -15     37     37     52 115.2  50.1  33990  286.69 0855.31
2009/04/23 07:54:25.3      25     -8     31     27     41 108.6  54.3  33996  286.79 0855.31
2009/04/23 07:54:25.4      40    -27      9     49     50 124.2  11.0  34000  286.86 0855.31
2009/04/23 07:54:25.5      54    -18     10     57     58 108.4  10.1  34002  286.89 0855.31
2009/04/23 07:54:25.6      68    -10      7     69     70  98.8   5.9  34010  287.03 0855.31
2009/04/23 07:54:25.7      57    -26      3     63     64 114.4   2.9  34016  287.13 0855.31
2009/04/23 07:54:25.8      61    -25     13     67     69 112.6  11.0  34012  287.08 0855.31
2009/04/23 07:54:25.9      70    -24      3     75     76 109.1   2.9  34012  287.08 0855.31
2009/04/23 07:54:26.0      59    -14     24     61     65 103.3  23.0  34014  287.11 0855.31
2009/04/23 07:54:26.1      51    -32     21     61     65 122.4  19.2  34010  287.05 0855.31
2009/04/23 07:54:26.2      48    -33     25     59     64 124.2  23.1  34002  286.89 0855.31
2009/04/23 07:54:26.3      47    -22     24     53     58 115.4  26.2  34002  286.91 0855.31
2009/04/23 07:54:26.4      38    -24     22     45     50 122.4  27.3  34000  286.88 0855.31
2009/04/23 07:54:26.5      33    -27     20     43     47 129.5  26.2  34002  286.91 0855.31
2009/04/23 07:54:26.6      37    -23     15     44     47 122.4  18.9  34006  286.96 0855.31
2009/04/23 07:54:26.7      45    -29     12     54     56 123.3  13.2  34006  286.98 0855.31
2009/04/23 07:54:26.8      45    -34     23     57     61 126.9  23.0  34004  286.93 0855.31
2009/04/23 07:54:26.9      32    -39     24     51     56 140.4  27.1  34002  286.91 0855.31
2009/04/23 07:54:27.0      31    -46     24     56     60 145.7  24.1  34006  286.96 0855.31
2009/04/23 07:54:27.1      35    -34     19     49     52 134.1  22.0  34008  287.01 0855.31
2009/04/23 07:54:27.2      31    -31     17     45     48 134.9  20.0  34008  287.00 0855.31
2009/04/23 07:54:27.3      24    -38     14     46     49 147.4  17.3  34000  286.88 0855.31
2009/04/23 07:54:27.4      13    -39     13     42     44 161.5  17.3  33996  286.81 0855.31
2009/04/23 07:54:27.5      24    -35     17     43     46 145.7  22.0  33994  286.78 0855.31
2009/04/23 07:54:27.6      29    -44     16     53     56 146.6  17.3  33990  286.69 0855.31
2009/04/23 07:54:27.7      25    -25     37     36     51 135.0  50.1  33986  286.64 0855.31
2009/04/23 07:54:27.8       3    -50     46     51     68 175.5  47.9  33988  286.67 0855.31
2009/04/23 07:54:27.9     -14    -70     40     72     82 191.5  31.4  33988  286.67 0855.31
2009/04/23 07:54:28.0      -5    -67     48     68     83 184.4  39.1  33988  286.66 0855.31
2009/04/23 07:54:28.1     -13    -62     53     64     83 192.5  44.3  33992  286.73 0855.31
2009/04/23 07:54:28.2     -16    -50     57     53     77 197.8  52.1  33994  286.76 0855.31
2009/04/23 07:54:28.3     -12    -55     47     57     73 192.5  43.8  33992  286.74 0855.31
2009/04/23 07:54:28.4     -10    -46     45     48     65 192.5  48.0  33988  286.66 0855.31
2009/04/23 07:54:28.5      13    -78     52     80     95 170.2  35.6  33984  286.61 0855.31
2009/04/23 07:54:28.6      15   -132     36    133    138 173.3  15.2  33984  286.61 0855.31
2009/04/23 07:54:28.7      15   -117     54    119    130 172.4  26.2  33982  286.57 0855.31
2009/04/23 07:54:28.8       6   -128     40    129    136 177.3  17.4  33984  286.61 0855.31
2009/04/23 07:54:28.9      -4   -106     37    107    114 182.2  19.4  33982  286.56 0855.31
2009/04/23 07:54:29.0       0   -102     36    103    110 180.5  19.4  33984  286.59 0855.31
2009/04/23 07:54:29.1       3   -116      6    117    118 178.2   3.3  33984  286.59 0855.31
2009/04/23 07:54:29.2      -6   -125      7    126    127 183.1   3.3  33984  286.59 0855.31
2009/04/23 07:54:29.3     -11   -116     18    117    119 185.8   8.9  33984  286.59 0855.31
2009/04/23 07:54:29.4     -18   -112     34    114    120 189.3  16.8  33982  286.56 0855.30
2009/04/23 07:54:29.5     -34   -105     24    111    114 198.3  12.6  33986  286.62 0855.30
2009/04/23 07:54:29.6     -27   -102     23    106    109 195.1  12.6  33982  286.56 0855.30
2009/04/23 07:54:29.7       2   -101     37    102    108 178.6  20.4  33984  286.59 0855.30
2009/04/23 07:54:29.8      16   -102     31    104    109 171.1  16.8  33982  286.57 0855.30
2009/04/23 07:54:29.9       8   -105     13    106    107 175.5   7.5  33984  286.61 0855.30
2009/04/23 07:54:30.0       0    -92      1     93     94 180.0   1.2  33982  286.57 0855.30
2009/04/23 07:54:30.1       0    -95     -6     96     97 180.4  -4.1  33982  286.56 0855.30
2009/04/23 07:54:30.2       9    -84    -12     85     86 173.3  -8.2  33980  286.54 0855.30
2009/04/23 07:54:30.3       5    -62      0     63     64 174.7   0.8  33982  286.56 0855.30
2009/04/23 07:54:30.5       5    -42     33     43     54 172.0  41.7  33982  286.57 0855.30
2009/04/23 07:54:30.6       3    -39     37     40     54 175.5  49.0  33982  286.57 0855.30
2009/04/23 07:54:30.7      11    -43     44     45     62 165.7  50.0  33984  286.61 0855.30
2009/04/23 07:54:30.8       0    -32     45     33     55 180.9  60.5  33984  286.61 0855.30
2009/04/23 07:54:30.9       8    -26     46     28     53 161.3  64.7  33986  286.62 0855.30
2009/04/23 07:54:31.0      -1     -2     31      3     31 212.5  90.0  33984  286.61 0855.30
2009/04/23 07:54:31.1     -12     14     20     19     27 318.6  48.2  33986  286.64 0855.30
2009/04/23 07:54:31.2      -2     27     31     28     41 355.5  53.3  33984  286.61 0855.30
2009/04/23 07:54:31.3       0     15     33     16     36 357.3  72.9  33984  286.59 0855.30
2009/04/23 07:54:31.4       0     11     37     12     38 355.5  80.7  33984  286.59 0855.30
2009/04/23 07:54:31.5       1     13     36     14     38   8.0  81.2  33986  286.62 0855.30
2009/04/23 07:54:31.6      -7     15     31     17     35 334.6  66.8  33984  286.61 0855.30
2009/04/23 07:54:31.7       0     32     26     33     42 359.1  42.7  33984  286.61 0855.30
2009/04/23 07:54:31.8      17     12     25     22     33  54.0  54.3  33984  286.61 0855.30
2009/04/23 07:54:31.9      25     16     32     30     43  57.6  50.1  33984  286.59 0855.30
2009/04/23 07:54:32.0      25     16     32     30     43  57.6  50.1  33984  286.59 0855.30
2009/04/23 07:54:32.1      32      7     24     33     40  76.7  39.7  33984  286.59 0855.30
2009/04/23 07:54:32.2      21     13     22     26     34  57.5  45.8  33982  286.56 0855.30
2009/04/23 07:54:32.3      28      6     21     29     35  76.7  39.7  33984  286.61 0855.30
2009/04/23 07:54:32.4      12      8     20     15     25  57.6  60.5  33984  286.59 0855.30
2009/04/23 07:54:32.5      16      0     24     17     29  90.0  62.6  33984  286.59 0855.30
2009/04/23 07:54:32.6      18     -2     19     19     26  97.9  50.1  33984  286.59 0855.30
2009/04/23 07:54:32.7      10    -18     10     21     23 151.0  25.1  33984  286.59 0855.30
2009/04/23 07:54:32.8       3    -22     11     23     25 170.2  27.2  33984  286.59 0855.30
2009/04/23 07:54:32.9       7    -21      8     23     25 161.7  19.2  33982  286.56 0855.30
2009/04/23 07:54:33.0       3    -30     18     31     35 173.8  35.5  33982  286.56 0855.30
2009/04/23 07:54:33.1      -7    -23     18     25     30 198.5  39.7  33980  286.54 0855.30
2009/04/23 07:54:33.2       0    -37     13     38     41 180.9  19.2  33982  286.56 0855.30
2009/04/23 07:54:33.3     -11    -34     22     36     42 198.7  34.4  33984  286.61 0855.30
2009/04/23 07:54:33.4      -2    -42     18     43     46 183.6  23.0  33980  286.54 0855.30
2009/04/23 07:54:33.5       7    -35      7     36     37 168.4  11.1  33982  286.56 0855.30
2009/04/23 07:54:33.6      -5    -41    -13     42     43 188.0 -22.8  33984  286.61 0855.30
2009/04/23 07:54:33.7      -7    -46     -2     47     48 188.9  -3.1  33984  286.59 0855.30
2009/04/23 07:54:33.8     -12    -42      0     44     45 196.9  -0.3  33984  286.59 0855.30
2009/04/23 07:54:33.9      -6    -30     -4     31     32 191.6  -7.3  33982  286.57 0855.30
2009/04/23 07:54:34.0      -9    -30     -2     32     33 196.9  -5.2  33984  286.59 0855.30
2009/04/23 07:54:34.1       1    -22      8     23     25 175.5  18.9  33984  286.61 0855.30
2009/04/23 07:54:34.2      -2    -43      9     44     46 182.7  12.2  33982  286.57 0855.30
2009/04/23 07:54:34.3     -23    -71     22     75     79 198.5  16.3  33984  286.61 0855.30
2009/04/23 07:54:34.4     -15    -75     30     77     82 191.6  22.0  33986  286.62 0855.30
2009/04/23 07:54:34.5     -15    -75     27     77     82 191.6  19.4  33984  286.59 0855.30
2009/04/23 07:54:34.6     -25    -75     35     80     87 198.3  24.6  33986  286.62 0855.30
2009/04/23 07:54:34.7     -30    -84     20     90     93 199.6  12.6  33984  286.61 0855.30
2009/04/23 07:54:34.8     -35    -86      1     93     94 202.3   0.8  33982  286.57 0855.30
2009/04/23 07:54:34.9     -29    -62      5     69     70 205.5   4.9  33982  286.56 0855.30
2009/04/23 07:54:35.0     -31    -55     12     64     66 209.9  11.1  33984  286.61 0855.30
2009/04/23 07:54:35.1     -30    -45      6     55     56 214.3   6.9  33982  286.57 0855.30
2009/04/23 07:54:35.2     -44    -53     -1     70     71 219.7  -1.3  33986  286.64 0855.30
2009/04/23 07:54:35.3     -26    -38     -1     47     48 214.3  -2.2  33982  286.56 0855.30
2009/04/23 07:54:35.4     -27    -30      5     41     42 221.4   6.9  33982  286.57 0855.30
2009/04/23 07:54:35.5     -31    -24      0     40     41 232.2  -0.3  33984  286.59 0855.30
2009/04/23 07:54:35.6     -30     -6      1     31     32 258.5   2.8  33984  286.59 0855.30
2009/04/23 07:54:35.7     -18     -6     -6     19     20 251.4 -17.6  33982  286.56 0855.30
2009/04/23 07:54:35.8       0      3     -8      4      9 355.5 -77.3  33984  286.61 0855.30
2009/04/23 07:54:35.9       3      8    -15      9     17  25.4 -69.1  33982  286.57 0855.30
2009/04/23 07:54:36.0       0      0    -19      0     19   0.0 -90.0  33982  286.57 0855.30
2009/04/23 07:54:36.1       3      0    -22      4     22  90.0 -90.0  33982  286.56 0855.30
2009/04/23 07:54:36.2       8      8    -17     12     20  46.9 -64.9  33982  286.56 0855.30
2009/04/23 07:54:36.3       0     12    -15     13     19 359.1 -58.7  33984  286.59 0855.30
2009/04/23 07:54:36.4      -3     14    -17     15     22 348.4 -56.6  33982  286.56 0855.30
2009/04/23 07:54:36.5      -8     12     -2     15     16 327.5  -7.3  33984  286.59 0855.30
2009/04/23 07:54:36.6     -13     13     -6     19     19 313.3 -23.8  33984  286.59 0855.30
2009/04/23 07:54:36.7     -12     20     -7     24     26 327.5 -17.6  33984  286.59 0855.30
2009/04/23 07:54:36.8      -7     22     -8     24     25 341.7 -23.6  33982  286.56 0855.30
2009/04/23 07:54:36.9      -8     14    -15     17     22 331.0 -52.3  33984  286.59 0855.30
2009/04/23 07:54:37.0      -3     14    -17     15     22 348.4 -56.6  33982  286.56 0855.30
2009/04/23 07:54:37.1      -3     14    -17     15     22 348.4 -56.6  33982  286.56 0855.30
2009/04/23 07:54:37.2       5     17    -12     18     21  18.3 -42.0  33984  286.59 0855.30
2009/04/23 07:54:37.3      27     -1      8     28     30  92.6  17.3  33980  286.54 0855.30
2009/04/23 07:54:37.4      23     18     10     30     32  52.2  19.4  33980  286.54 0855.31
2009/04/23 07:54:37.5      24     24     12     35     38  45.1  19.2  33982  286.56 0855.31
2009/04/23 07:54:37.6      24     14      5     29     30  59.3  11.1  33984  286.59 0855.31
2009/04/23 07:54:37.7      37      0      0     38     39  90.8  -1.3  33982  286.56 0855.31
2009/04/23 07:54:37.9      39    -14     -1     42     43 110.8  -2.2  33982  286.56 0855.31
2009/04/23 07:54:37.9      45    -15      9     48     49 108.4  11.1  33984  286.59 0855.31
2009/04/23 07:54:38.0      36    -11      0     38     39 108.2   0.8  33984  286.61 0855.31
2009/04/23 07:54:38.1      18    -11      0     22     23 120.7  -2.2  33984  286.61 0855.31
2009/04/23 07:54:38.2       9     -9      3     14     15 135.0  15.3  33984  286.61 0855.31
2009/04/23 07:54:38.3      25    -22     -1     34     35 131.3  -2.2  33982  286.56 0855.31
2009/04/23 07:54:38.4      -2    -26     -3     27     28 184.5  -7.3  33982  286.57 0855.31
2009/04/23 07:54:38.5      16    -29     -4     34     35 151.0  -7.2  33984  286.59 0855.31
2009/04/23 07:54:38.6      35    -30      0     47     48 130.4   0.8  33984  286.59 0855.31
2009/04/23 07:54:38.7      31    -31      2     44     45 134.9   2.9  33982  286.56 0855.31
2009/04/23 07:54:38.8      47    -36     21     60     64 127.8  19.4  33982  286.57 0855.31
2009/04/23 07:54:38.9      48    -45     12     66     68 133.1  11.0  33984  286.61 0855.31
2009/04/23 07:54:39.0      86    -30     13     92     94 109.5   8.5  33982  286.56 0855.31
2009/04/23 07:54:39.1      90    -23     35     94    100 104.6  21.0  33982  286.56 0855.31
2009/04/23 07:54:39.2      80    -15     47     82     94 100.6  32.9  33982  286.57 0855.31
2009/04/23 07:54:39.3      78     -7     36     79     86  95.2  25.7  33980  286.52 0855.31
2009/04/23 07:54:39.4      71     -3     30     72     78  92.6  23.1  33980  286.52 0855.31
2009/04/23 07:54:39.5      74      1     45     75     87  89.1  34.4  33980  286.52 0855.31
2009/04/23 07:54:39.6      75      2     33     76     82  88.3  24.6  33980  286.54 0855.31
2009/04/23 07:54:39.7      78      2     32     79     85  88.3  23.0  33982  286.56 0855.31
2009/04/23 07:54:39.8      62      8      6     63     64  82.1   5.9  33982  286.57 0855.31
2009/04/23 07:54:39.9      70    -16     -5     72     73 103.3  -4.1  33984  286.59 0855.31
2009/04/23 07:54:40.0      82    -14    -10     84     85 100.1  -7.3  33984  286.59 0855.31
2009/04/23 07:54:40.1      93    -10     -4     94     95  96.6  -2.6  33980  286.54 0855.31
2009/04/23 07:54:40.2      94    -25     -7     98     99 105.1  -4.1  33982  286.57 0855.31
2009/04/23 07:54:40.3      94    -36     -5    101    102 111.3  -3.2  33982  286.57 0855.31
2009/04/23 07:54:40.4      78    -26    -19     83     86 108.4 -13.4  33984  286.59 0855.31
2009/04/23 07:54:40.5      68    -50    -21     85     88 126.4 -13.9  33982  286.57 0855.31
2009/04/23 07:54:40.6      72    -70    -12    101    102 134.0  -7.3  33982  286.56 0855.31
2009/04/23 07:54:40.7      35   -105     20    111    113 161.3  10.6  33982  286.57 0855.31
2009/04/23 07:54:40.8      46    -98     37    109    116 154.6  18.9  33984  286.59 0855.31
2009/04/23 07:54:40.9      42    -96     40    105    112 156.4  21.5  33982  286.56 0855.31
2009/04/23 07:54:41.0      16   -109     64    111    128 171.5  32.9  33984  286.59 0855.31
2009/04/23 07:54:41.1      16   -109     64    111    128 171.5  32.9  33984  286.59 0855.31
2009/04/23 07:54:41.2       4   -110     57    111    124 177.8  29.3  33982  286.56 0855.31
2009/04/23 07:54:41.3      -5    -97     52     98    110 183.1  30.3  33982  286.56 0855.31
2009/04/23 07:54:41.4     -18    -96     41     98    106 191.1  23.6  33982  286.57 0855.31
2009/04/23 07:54:41.5     -18   -102     49    104    114 190.2  27.1  33982  286.57 0855.31
2009/04/23 07:54:41.6       0    -81     48     82     95 179.5  34.0  33982  286.56 0855.31
2009/04/23 07:54:41.7       4    -94     57     95    110 177.3  34.4  33980  286.54 0855.31
2009/04/23 07:54:41.8     -23   -115     68    118    136 191.6  33.4  33982  286.57 0855.31
2009/04/23 07:54:41.9     -23    -86     78     90    119 195.1  45.8  33984  286.59 0855.31
2009/04/23 07:54:42.0       7    -85     62     86    106 175.1  39.5  33982  286.56 0855.31
2009/04/23 07:54:42.1     -22    -81     45     85     96 195.6  30.3  33982  286.56 0855.31
2009/04/23 07:54:42.2     -24    -87     51     91    104 195.6  31.9  33984  286.59 0855.31
2009/04/23 07:54:42.3     -23    -77     71     81    107 196.9  45.8  33982  286.56 0855.31
2009/04/23 07:54:42.4     -12    -94     80     95    124 187.6  44.3  33982  286.56 0855.31
2009/04/23 07:54:42.5     -17    -82     79     84    115 192.0  48.0  33984  286.59 0855.31
2009/04/23 07:54:42.6     -27    -86     80     91    121 197.8  45.8  33982  286.56 0855.31
2009/04/23 07:54:42.7     -31    -75     59     82    101 202.7  39.5  33980  286.54 0855.31
2009/04/23 07:54:42.8     -18    -47     69     51     85 200.9  60.0  33984  286.59 0855.31
2009/04/23 07:54:42.9      14    -21     74     26     78 147.4  81.2  33984  286.61 0855.31
2009/04/23 07:54:43.0       7    -35     56     36     66 168.4  64.6  33984  286.61 0855.31
2009/04/23 07:54:43.1     -28    -55     65     62     89 207.2  51.2  33982  286.56 0855.31
2009/04/23 07:54:43.2       8     -8     55     12     56 136.8  89.0  33982  286.57 0855.31
2009/04/23 07:54:43.3       9     -2     28     10     29 105.1  81.2  33986  286.64 0855.31
2009/04/23 07:54:43.4     -12    -17     23     22     31 216.1  50.1  33984  286.59 0855.31
2009/04/23 07:54:43.5       0    -62     59     63     86 180.0  48.5  33984  286.59 0855.31
2009/04/23 07:54:43.6      13    -30     60     33     68 156.4  68.8  33984  286.59 0855.31
2009/04/23 07:54:43.7       0    -50     57     51     76 180.9  52.2  33984  286.61 0855.31
2009/04/23 07:54:43.8       3    -53     78     54     94 176.4  62.6  33984  286.59 0855.31
2009/04/23 07:54:43.9       6    -38     64     39     74 170.2  64.7  33982  286.57 0855.31
2009/04/23 07:54:44.0      12     31     32     34     46  21.8  50.0  33986  286.64 0855.31
2009/04/23 07:54:44.1      28      3     28     29     40  82.1  50.0  33988  286.66 0855.31
2009/04/23 07:54:44.2      51      3     57     52     77  86.5  52.2  33986  286.62 0855.31
2009/04/23 07:54:44.3      31      0     65     32     72  90.0  72.8  33986  286.64 0855.31
2009/04/23 07:54:44.4      31      6     51     32     60  78.5  64.7  33984  286.59 0855.31
2009/04/23 07:54:44.5       4     12     41     13     43  18.3  80.7  33982  286.56 0855.31
2009/04/23 07:54:44.6      29     39     51     49     70  37.0  51.2  33982  286.57 0855.31
2009/04/23 07:54:44.7      58     22     91     63    110  69.2  62.1  33984  286.59 0855.31
2009/04/23 07:54:44.8      71     48     63     87    107  55.8  39.7  33986  286.64 0855.31
2009/04/23 07:54:44.9      74     39     36     84     91  62.0  24.6  34004  286.94 0855.31
2009/04/23 07:54:45.0      85     37     49     93    105  66.5  30.3  34006  286.96 0855.31
2009/04/23 07:54:45.1      83     11     68     84    108  82.1  43.7  33990  286.69 0855.31
2009/04/23 07:54:45.2      86     -6     77     87    116  94.4  46.4  33984  286.59 0855.31
2009/04/23 07:54:45.3      74     -1     59     75     95  90.9  42.7  33994  286.78 0855.31
2009/04/23 07:54:45.4      64     -4     52     65     83  94.4  43.3  33992  286.73 0855.31
2009/04/23 07:54:45.5      45    -19     62     50     79 113.5  56.9  33984  286.61 0855.31
2009/04/23 07:54:45.6      40    -20     57     45     72 117.1  56.4  33984  286.61 0855.31
2009/04/23 07:54:45.7      16    -13     49     21     53 129.5  76.1  33984  286.61 0855.31
2009/04/23 07:54:45.8      -4     24     36     25     43 350.2  61.5  33988  286.66 0855.31
2009/04/23 07:54:45.9       0     23     39     24     45 359.1  64.7  33984  286.59 0855.31
2009/04/23 07:54:46.0     -21    -43     60     48     76 206.3  56.4  33984  286.59 0855.31
2009/04/23 07:54:46.1      15    -34     49     38     62 156.4  58.5  33984  286.61 0855.31
2009/04/23 07:54:46.2      -2    -35     57     36     67 184.5  64.7  33984  286.61 0855.31
2009/04/23 07:54:46.3       0    -65     57     66     87 180.0  45.8  33984  286.59 0855.31
2009/04/23 07:54:46.4       8    -63     55     64     84 172.0  45.8  33984  286.59 0855.31
2009/04/23 07:54:46.5      21    -62     37     66     75 161.3  31.4  33982  286.57 0855.31
2009/04/23 07:54:46.6      26    -28     42     39     57 136.6  51.2  33980  286.54 0855.31
2009/04/23 07:54:46.7      33    -23     38     41     55 124.2  47.9  33984  286.59 0855.31
2009/04/23 07:54:46.8      43    -21     41     49     63 116.2  44.8  33982  286.56 0855.31
2009/04/23 07:54:46.9      43    -29     33     53     62 124.2  35.5  33982  286.57 0855.31
2009/04/23 07:54:47.0      25    -39     40     47     61 147.4  44.8  33982  286.56 0855.31
2009/04/23 07:54:47.1      12    -27     23     30     37 154.5  41.7  33982  286.56 0855.31
2009/04/23 07:54:47.2      -7    -23     44     25     50 198.5  67.7  33982  286.56 0855.31
2009/04/23 07:54:47.3      -8    -40     58     41     71 191.6  60.6  33982  286.56 0855.31
2009/04/23 07:54:47.4      21     -3     45     22     50  99.7  72.8  33984  286.61 0855.31
2009/04/23 07:54:47.5      15    -15     25     22     33 135.0  54.3  33982  286.57 0855.31
2009/04/23 07:54:47.6      -5      4     40      7     40 309.5  90.0  33986  286.62 0855.31
2009/04/23 07:54:47.7      -7    -10     41     13     43 216.1  80.7  33984  286.61 0855.31
2009/04/23 07:54:47.8      -1    -26     37     27     45 182.7  60.5  33984  286.59 0855.31
2009/04/23 07:54:47.9       1    -24     41     25     48 177.3  64.7  33982  286.56 0855.31
2009/04/23 07:54:48.0       0      7     26      8     27 357.3  80.7  33982  286.56 0855.31
2009/04/23 07:54:48.1       8     21     29     23     37  21.8  56.4  33986  286.62 0855.31
2009/04/23 07:54:48.2      10    -10     31     15     34 135.0  72.9  33984  286.61 0855.31
2009/04/23 07:54:48.3      11     -9     36     15     39 129.5  79.2  33986  286.62 0855.31
2009/04/23 07:54:48.4      11     10     24     16     28  46.7  64.6  33986  286.64 0855.31
2009/04/23 07:54:48.5      -1     13     34     14     36 353.8  77.1  33984  286.61 0855.31
2009/04/23 07:54:48.6      59      0     44     60     74  90.0  39.7  33984  286.59 0855.31
2009/04/23 07:54:48.7      33     -2     41     34     53  94.4  56.3  33984  286.61 0855.31
2009/04/23 07:54:48.8      23      0     30     24     38  90.0  56.4  33986  286.64 0855.31
2009/04/23 07:54:48.9      15    -11     15     19     24 126.0  43.7  33986  286.64 0855.31
2009/04/23 07:54:49.0       2    -25     22     26     34 175.5  45.8  33984  286.61 0855.31
2009/04/23 07:54:49.1      -3    -35     32     36     48 186.2  47.9  33986  286.62 0855.31
2009/04/23 07:54:49.2       3    -39     44     40     59 175.5  52.2  33988  286.66 0855.31
2009/04/23 07:54:49.3       7    -55     41     56     69 172.0  39.7  33986  286.62 0855.31
2009/04/23 07:54:49.4       8    -45     43     46     62 169.3  48.0  33984  286.61 0855.31
2009/04/23 07:54:49.5      -3    -49     71     50     86 183.6  61.5  33984  286.61 0855.31
2009/04/23 07:54:49.6     -15    -58     57     61     83 195.1  48.5  33984  286.59 0855.31
2009/04/23 07:54:49.7     -27    -78     40     83     92 199.2  27.2  33978  286.51 0855.31
2009/04/23 07:54:49.8     -28    -70     33     76     82 201.8  24.6  33978  286.49 0855.31
2009/04/23 07:54:49.9     -21    -43     53     48     71 206.3  52.2  33978  286.51 0855.31
2009/04/23 07:54:50.0     -35    -42     66     55     85 219.6  55.8  33986  286.62 0855.31
2009/04/23 07:54:50.1     -34    -50     59     61     84 214.3  50.0  33980  286.54 0855.31
2009/04/23 07:54:50.2      -7    -58     66     59     88 187.1  53.3  33984  286.61 0855.31
2009/04/23 07:54:50.3     -12    -38     69     40     79 197.8  67.2  33984  286.59 0855.31
2009/04/23 07:54:50.4     -23    -40     59     47     75 209.9  56.4  33982  286.57 0855.31
2009/04/23 07:54:50.5      -4    -26     41     27     49 189.8  63.6  33984  286.61 0855.31
2009/04/23 07:54:50.6      -7    -18     48     20     52 201.8  76.1  33986  286.64 0855.31
2009/04/23 07:54:50.7       5    -13     40     15     42 158.2  79.2  33986  286.64 0855.31
2009/04/23 07:54:50.8       9      3     37     10     38  68.3  82.8  33990  286.69 0855.31
2009/04/23 07:54:50.9     -22    -22     31     32     44 225.0  51.1  33990  286.71 0855.31
2009/04/23 07:54:51.0     -17    -84     28     86     91 191.6  17.9  33988  286.66 0855.31
2009/04/23 07:54:51.1     -24    -87     44     91    101 195.6  27.3  33988  286.67 0855.31
2009/04/23 07:54:51.2       0    -83     59     84    102 180.0  39.1  33986  286.64 0855.31
2009/04/23 07:54:51.3       5    -72     60     73     94 175.5  43.7  33982  286.57 0855.31
2009/04/23 07:54:51.4       3    -70     52     71     88 177.3  39.7  33982  286.57 0855.31
2009/04/23 07:54:51.5       5    -81     67     82    105 176.0  43.7  33984  286.61 0855.31
2009/04/23 07:54:51.7      13    -78     66     80    103 170.2  43.8  33988  286.67 0855.31
2009/04/23 07:54:51.8      15    -91     56     93    108 170.7  34.4  33988  286.67 0855.31
2009/04/23 07:54:51.9      12    -71     53     73     90 170.2  39.7  33988  286.66 0855.31
2009/04/23 07:54:52.0      21    -64     60     68     90 161.7  45.8  33986  286.64 0855.31
2009/04/23 07:54:52.1      15    -81     56     83    100 169.3  37.0  33988  286.67 0855.31
2009/04/23 07:54:52.2      12    -86     53     87    101 172.0  34.4  33988  286.67 0855.31
2009/04/23 07:54:52.3      12    -86     53     87    101 172.0  34.4  33988  286.67 0855.31
2009/04/23 07:54:52.4      29    -66     55     73     91 156.4  41.2  33986  286.64 0855.31
2009/04/23 07:54:52.5      34    -59     60     69     91 150.1  45.4  33982  286.57 0855.32
2009/04/23 07:54:52.6      18    -56     50     59     77 161.7  43.8  33982  286.57 0855.32
2009/04/23 07:54:52.7      18    -39     57     44     72 154.6  57.5  33982  286.56 0855.32
2009/04/23 07:54:52.8      17      4     38     18     42  74.9  72.9  33982  286.57 0855.32
2009/04/23 07:54:52.9       1    -22     39     23     45 177.3  65.7  33982  286.56 0855.32
2009/04/23 07:54:53.0      19     -3     40     20     44 101.5  70.8  33986  286.62 0855.32
2009/04/23 07:54:53.1       1     15     45     16     47   4.4  81.2  33984  286.61 0855.32
2009/04/23 07:54:53.2       0     11     48     12     49   4.5  85.9  33986  286.62 0855.32
2009/04/23 07:54:53.3      -5     -2     40      6     40 244.7  90.0  33982  286.56 0855.32
2009/04/23 07:54:53.4       3    -14     31     15     34 164.9  72.9  33982  286.56 0855.32
2009/04/23 07:54:53.5      10     -9     24     14     27 133.3  64.7  33980  286.54 0855.32
2009/04/23 07:54:53.6      13      0     46     14     48  90.0  80.7  33978  286.49 0855.32
2009/04/23 07:54:53.7      11    -18     38     22     43 149.3  67.7  33984  286.59 0855.32
2009/04/23 07:54:53.8       5    -10     33     12     35 151.0  81.2  33984  286.59 0855.32
2009/04/23 07:54:53.9       3     14     31     15     34  15.1  72.9  33986  286.64 0855.32
2009/04/23 07:54:54.0      -1     11     24     12     26 352.0  70.8  33990  286.69 0855.32
2009/04/23 07:54:54.1     -10     -3     29     11     31 251.6  79.2  33990  286.69 0855.32
2009/04/23 07:54:54.2      -1      8     27      9     28 350.3  81.0  33990  286.71 0855.32
2009/04/23 07:54:54.3      16      1     23     17     28  85.7  58.5  33992  286.74 0855.32
2009/04/23 07:54:54.4       1     20     28     21     35   4.4  60.5  33990  286.69 0855.32
2009/04/23 07:54:54.5      -7      6     25     10     26 309.5  79.2  33986  286.62 0855.32
2009/04/23 07:54:54.6     -14     12     31     19     36 309.5  64.7  33988  286.67 0855.32
2009/04/23 07:54:54.7      -1     22     41     23     47 357.3  67.7  33990  286.71 0855.32
2009/04/23 07:54:54.8       4     13     46     14     48  18.5  80.7  34010  287.05 0855.32
2009/04/23 07:54:54.9      25      0     40     26     47  90.0  64.6  34026  287.30 0855.32
2009/04/23 07:54:55.0       5      2     33      6     33  64.7  89.1  34054  287.77 0855.32
2009/04/23 07:54:55.1      -5     16     27     17     31 341.7  64.7  34092  288.43 0855.32
2009/04/23 07:54:55.2      -9     31     31     33     45 343.1  49.0  34130  289.08 0855.32
2009/04/23 07:54:55.3      -7     44     33     45     55 350.2  39.7  34138  289.21 0855.32
2009/04/23 07:54:55.4      -4     42     28     43     51 353.8  35.6  34140  289.23 0855.32
2009/04/23 07:54:55.5     -21     58     33     62     70 340.0  30.3  34138  289.21 0855.32
2009/04/23 07:54:55.6     -27     56     34     63     71 333.7  31.3  34138  289.21 0855.32
2009/04/23 07:54:55.7     -23     58     16     63     66 338.2  14.3  34134  289.14 0855.32
2009/04/23 07:54:55.8     -39     50      7     64     65 322.2   6.9  34128  289.02 0855.32
2009/04/23 07:54:55.9     -46     46     13     66     68 315.0  11.1  34128  289.02 0855.32
2009/04/23 07:54:56.0     -44     45     22     64     68 315.9  19.4  34130  289.08 0855.32
2009/04/23 07:54:56.1     -45     48     23     67     71 316.7  18.9  34104  288.64 0855.32
2009/04/23 07:54:56.2     -52     58     26     78     83 318.1  18.9  34088  288.36 0855.32
2009/04/23 07:54:56.3     -59     77     41     98    106 322.6  23.6  34068  288.01 0855.32
2009/04/23 07:54:56.4     -36     98     47    105    115 339.5  26.2  34140  289.24 0855.32
2009/04/23 07:54:56.5     -31     92     73     98    122 341.3  40.7  34160  289.58 0855.32
2009/04/23 07:54:56.6       9    120     76    121    142   4.4  35.5  34160  289.57 0855.32
2009/04/23 07:54:56.7      92     73     62    118    133  51.4  29.8  34150  289.40 0855.32
2009/04/23 07:54:56.8      86     54    104    102    145  57.6  50.1  34138  289.19 0855.32
2009/04/23 07:54:56.9      80     49    127     94    158  58.5  60.0  34132  289.09 0855.32
2009/04/23 07:54:57.0      67     20    104     71    125  73.2  62.6  34136  289.18 0855.32
2009/04/23 07:54:57.1      92     25     97     96    136  74.5  50.1  34130  289.08 0855.32
2009/04/23 07:54:57.2      83     22     81     86    118  74.9  48.0  34120  288.91 0855.32
2009/04/23 07:54:57.3      92     22     68     95    116  76.3  39.1  34116  288.84 0855.32
2009/04/23 07:54:57.4      73     19     49     76     90  74.9  35.6  34124  288.96 0855.32
2009/04/23 07:54:57.5      74     22     38     78     86  73.2  27.8  34140  289.24 0855.32
2009/04/23 07:54:57.6      59     14     58     61     84  76.7  49.0  34152  289.43 0855.32
2009/04/23 07:54:57.7      82     35     97     90    132  66.5  52.2  34140  289.24 0855.32
2009/04/23 07:54:57.8     108      9     77    109    133  85.2  38.6  34132  289.09 0855.32
2009/04/23 07:54:57.9      97     24     75    101    125  75.8  40.1  34132  289.09 0855.32
2009/04/23 07:54:58.0     113     18     27    115    119  80.8  13.2  34122  288.94 0855.32
2009/04/23 07:54:58.1     130     18     44    132    140  82.1  18.4  34108  288.69 0855.32
2009/04/23 07:54:58.2     142     32     92    146    172  77.2  35.5  34126  289.01 0855.32
2009/04/23 07:54:58.3     156     47     65    163    175  73.2  23.0  34122  288.94 0855.32
2009/04/23 07:54:58.4     120     36     27    126    129  73.2  12.2  34104  288.64 0855.32
2009/04/23 07:54:58.5     111     22     60    114    128  78.5  29.8  34120  288.89 0855.32
2009/04/23 07:54:58.6     104     42     92    113    145  67.8  43.7  34134  289.14 0855.32
2009/04/23 07:54:58.7     120     41     65    128    143  70.9  29.2  34132  289.09 0855.32
2009/04/23 07:54:58.8      93     27     57     97    112  73.6  33.5  34130  289.06 0855.32
2009/04/23 07:54:58.9      78     27     69     83    107  70.9  43.8  34128  289.02 0855.32
2009/04/23 07:54:59.0      94     36     78    101    127  68.7  41.7  34112  288.75 0855.32
2009/04/23 07:54:59.1     121     57     78    134    155  64.8  33.4  34072  288.09 0855.32
2009/04/23 07:54:59.2     129     56     28    141    144  66.5  11.6  34066  287.99 0855.32
2009/04/23 07:54:59.3     134     67     52    150    159  63.4  19.2  34068  288.03 0855.32
2009/04/23 07:54:59.4     121     77     49    144    153  57.6  18.9  34062  287.92 0855.32
2009/04/23 07:54:59.5     136     77     47    157    165  60.2  16.8  34068  288.03 0855.32
2009/04/23 07:54:59.6     143     62     -6    156    157  66.5  -2.2  34070  288.06 0855.32
2009/04/23 07:54:59.7     123     49    -42    133    140  68.2 -17.5  34070  288.04 0855.32
2009/04/23 07:54:59.8     144     52    -48    154    161  70.0 -22.3  34066  287.98 0855.32
2009/04/23 07:54:59.9     163     54    -52    172    179  71.6 -22.1  34070  288.04 0855.32
2009/04/23 07:55:00.0     128     76    -51    150    158  59.3 -23.8  34074  288.11 0855.32
2009/04/23 07:55:00.1     108     83    -43    137    143  52.3 -22.8  34076  288.14 0855.32
2009/04/23 07:55:00.2      91     97    -38    134    140  43.2 -16.0  34084  288.30 0855.32
2009/04/23 07:55:00.3      88    121    -57    151    161  36.1 -26.1  34084  288.30 0855.32
2009/04/23 07:55:00.4      78    108    -74    134    153  36.0 -35.8  34062  287.92 0855.32
2009/04/23 07:55:00.5      52    106    -74    119    140  26.3 -39.9  34042  287.59 0855.31
2009/04/23 07:55:00.6      82     73    -32    110    114  48.2 -21.7  34036  287.49 0855.31
2009/04/23 07:55:00.7      95     89    -51    131    140  46.9 -27.4  34012  287.08 0855.31
2009/04/23 07:55:00.8     170     76    -43    187    193  65.8 -13.2  34010  287.05 0855.31
2009/04/23 07:55:00.9     151    108   -111    186    216  54.3 -37.9  33990  286.69 0855.31
2009/04/23 07:55:01.0     162     89    -69    186    198  61.1 -25.4  33992  286.74 0855.31
2009/04/23 07:55:01.1     179     58    -52    189    197  71.8 -15.5  34002  286.89 0855.31
2009/04/23 07:55:01.2     177     35    -10    181    182  78.6  -3.2  34030  287.37 0855.31
2009/04/23 07:55:01.3     155     17      1    157    158  83.4   0.5  34026  287.32 0855.31
2009/04/23 07:55:01.4     125      4      8    126    127  87.9   3.8  34004  286.93 0855.31
2009/04/23 07:55:01.5     113     38     42    120    128  71.4  19.4  33996  286.79 0855.31
2009/04/23 07:55:01.6      75     82    -15    112    114  42.3  -7.7  33994  286.76 0855.31
2009/04/23 07:55:01.7     106     63    -57    124    136  59.4 -31.0  33998  286.84 0855.31
2009/04/23 07:55:01.8      86     54    -13    102    103  57.6  -7.3  33998  286.83 0855.31
2009/04/23 07:55:01.9     106     58      6    122    123  61.2   2.9  34008  287.00 0855.31
2009/04/23 07:55:02.0      90     18    -11     92     93  78.6  -7.2  34012  287.06 0855.31
2009/04/23 07:55:02.1      77     -5    -22     78     82  94.4 -16.0  34008  287.00 0855.31
2009/04/23 07:55:02.2     105     -9    -11    106    107  95.2  -6.2  34008  287.01 0855.31
2009/04/23 07:55:02.3     104     -3     30    105    110  92.1  16.3  34016  287.13 0855.31
2009/04/23 07:55:02.4     114      8     32    115    120  85.6  15.8  34014  287.10 0855.31
2009/04/23 07:55:02.5     115     16     14    117    118  82.1   6.9  34020  287.20 0855.32
2009/04/23 07:55:02.6     103     65    -10    122    123  57.6  -5.1  34026  287.30 0855.32
2009/04/23 07:55:02.7     101     69     -6    123    124  55.8  -3.2  34026  287.30 0855.32
2009/04/23 07:55:02.8      88     17    -42     90     99  78.5 -31.5  34024  287.27 0855.32
2009/04/23 07:55:02.9     108     19    -30    110    115  79.9 -15.5  34022  287.25 0855.32
2009/04/23 07:55:03.0     102     69    -23    124    127  55.8 -10.9  34026  287.30 0855.32
2009/04/23 07:55:03.1     105     57     -2    120    121  61.2  -1.2  34026  287.32 0855.32
2009/04/23 07:55:03.2      83     60    -16    103    105  54.1  -8.8  34026  287.32 0855.32
2009/04/23 07:55:03.3      70     86    -14    111    112  39.2  -7.2  34022  287.23 0855.32
2009/04/23 07:55:03.4      78    103    -10    130    131  37.4  -4.6  34016  287.15 0855.32
2009/04/23 07:55:03.5      67    102     15    123    124  33.4   7.1  34016  287.13 0855.32
2009/04/23 07:55:03.6      96     81      2    126    127  50.0   1.2  34014  287.11 0855.32
2009/04/23 07:55:03.7      95    114      7    149    150  39.6   2.9  34010  287.03 0855.32
2009/04/23 07:55:03.8      98    110      7    148    149  41.5   2.9  34010  287.05 0855.32
2009/04/23 07:55:03.9      86    119      8    148    149  36.0   3.3  34006  286.98 0855.32
2009/04/23 07:55:04.0     103    122    -20    160    162  40.3  -7.2  34026  287.30 0855.32
2009/04/23 07:55:04.1      95    107    -28    144    147  41.5 -11.3  34024  287.28 0855.32
2009/04/23 07:55:04.2      79    115    -40    140    146  34.7 -16.0  34014  287.11 0855.32
2009/04/23 07:55:04.3      80    158    -61    178    188  27.0 -23.6  34012  287.08 0855.32
2009/04/23 07:55:04.4      65    146    -22    161    163  24.1  -8.0  34004  286.93 0855.32
2009/04/23 07:55:04.5      28    140      4    143    144  11.6   1.8  34004  286.93 0855.32
2009/04/23 07:55:04.6      29    153    -25    156    159  10.7  -9.3  34010  287.03 0855.32
2009/04/23 07:55:04.7      44    159     -3    166    167  15.6  -1.1  34004  286.93 0855.32
2009/04/23 07:55:04.8      44    126     49    134    142  19.6  20.9  33994  286.76 0855.32
2009/04/23 07:55:04.9      36    126     68    132    148  16.0  29.3  33992  286.74 0855.32
2009/04/23 07:55:05.0      34    138     74    143    161  13.8  29.5  33990  286.71 0855.32
2009/04/23 07:55:05.1      32    127     84    132    156  14.3  35.5  33992  286.73 0855.32
2009/04/23 07:55:05.2      42    128     79    135    156  18.3  33.1  33992  286.74 0855.32
2009/04/23 07:55:05.3      31    135     49    139    147  13.3  20.0  33994  286.78 0855.32
2009/04/23 07:55:05.4      28    109     63    113    129  14.7  31.4  34004  286.93 0855.32
2009/04/23 07:55:05.5      52     87     61    102    118  30.7  33.5  33998  286.83 0855.32
2009/04/23 07:55:05.6      64     97     62    117    132  33.4  29.8  33998  286.83 0855.32
2009/04/23 07:55:05.7      60    104     50    121    130  29.9  23.6  34002  286.91 0855.32
2009/04/23 07:55:05.8      56     87     65    104    122  32.6  35.0  34004  286.93 0855.32
2009/04/23 07:55:05.9      30    112     71    117    136  15.2  34.4  34008  287.00 0855.32
2009/04/23 07:55:06.0      53    133     64    144    157  21.8  25.3  34008  287.01 0855.32
2009/04/23 07:55:06.1      97     60     72    115    135  58.0  35.5  34006  286.98 0855.32
2009/04/23 07:55:06.2      77     36     69     86    110  64.7  43.7  34012  287.08 0855.32
2009/04/23 07:55:06.3      82     39     73     91    116  64.6  43.7  34016  287.13 0855.32
2009/04/23 07:55:06.4      89     25    101     93    137  74.1  52.2  34010  287.03 0855.32
2009/04/23 07:55:06.5     101     16     91    103    137  80.8  45.9  34012  287.06 0855.32
2009/04/23 07:55:06.6     105     19     98    107    145  79.4  47.9  34010  287.03 0855.32
2009/04/23 07:55:06.7     115     38     84    122    148  71.4  37.6  34016  287.15 0855.32
2009/04/23 07:55:06.8      91     38     89     99    133  67.4  46.9  34020  287.20 0855.32
2009/04/23 07:55:06.9     117     33     67    122    139  74.1  31.3  34030  287.37 0855.32
2009/04/23 07:55:07.0     105     27     68    109    128  75.4  35.5  34050  287.72 0855.32
2009/04/23 07:55:07.1     105     31     72    110    131  73.2  36.0  34050  287.70 0855.32
2009/04/23 07:55:07.2     102     39     83    110    137  69.2  41.2  34034  287.45 0855.32
2009/04/23 07:55:07.3      99     41     70    108    128  67.4  35.6  34030  287.37 0855.32
2009/04/23 07:55:07.4      79     50     57     94    109  57.6  34.4  34032  287.40 0855.32
2009/04/23 07:55:07.5      84     53     51    100    112  57.5  28.7  34040  287.54 0855.32
2009/04/23 07:55:07.6      90     54     41    106    113  58.9  22.0  34046  287.64 0855.32
2009/04/23 07:55:07.7      75     43     53     87    101  60.2  34.4  34030  287.37 0855.32
2009/04/23 07:55:07.8      64     41     56     77     95  57.5  39.7  34022  287.25 0855.32
2009/04/23 07:55:07.9      41     75     59     86    104  29.0  37.6  34040  287.55 0855.32
2009/04/23 07:55:08.0      -1     80     68     81    105 359.1  44.3  34050  287.70 0855.32
2009/04/23 07:55:08.1      25     93     65     97    116  15.1  36.5  34050  287.72 0855.32
2009/04/23 07:55:08.2      -1     76     53     77     93 359.1  37.6  34030  287.37 0855.32
2009/04/23 07:55:08.3      29     45     58     54     79  32.5  51.6  34026  287.32 0855.32
2009/04/23 07:55:08.4      84    167     70    187    199  26.7  21.3  34032  287.42 0855.32
2009/04/23 07:55:08.5      61    184     55    195    203  18.5  15.8  34002  286.91 0855.32
2009/04/23 07:55:08.6      78    189     40    205    209  22.5  11.1  33974  286.44 0855.32
2009/04/23 07:55:08.7      77    166     50    184    191  24.9  15.3  33972  286.41 0855.32
2009/04/23 07:55:08.8      81    164     59    184    194  26.3  17.9  33978  286.49 0855.32
2009/04/23 07:55:08.9      77    158     42    176    182  26.1  13.5  34014  287.11 0855.32
2009/04/23 07:55:09.0      37    189     17    193    194  11.3   5.2  34000  286.88 0855.32
2009/04/23 07:55:09.1      18    214      4    215    216   4.9   1.2  33996  286.81 0855.32
2009/04/23 07:55:09.2      20    141    -28    143    146   8.1 -11.3  33990  286.69 0855.32
2009/04/23 07:55:09.4      52    115    -13    127    128  24.5  -6.2  34004  286.93 0855.32
2009/04/23 07:55:09.4      49     59      9     77     78  39.6   7.1  34010  287.05 0855.32
2009/04/23 07:55:09.5      69     64     33     95    101  47.3  19.4  34016  287.13 0855.33
2009/04/23 07:55:09.6     118    110     21    162    164  46.8   7.5  34034  287.45 0855.33
2009/04/23 07:55:09.7     185    107     33    214    217  60.0   8.8  34056  287.81 0855.33
2009/04/23 07:55:09.8     216    135     12    255    256  58.0   2.8  33994  286.75 0855.33
2009/04/23 07:55:09.9     200    127     12    238    239  57.5   2.9  33982  286.55 0855.33
2009/04/23 07:55:10.0     136    158     16    209    210  40.8   4.6  34004  286.93 0855.33
2009/04/23 07:55:10.1     127    127      9    180    181  45.1   3.1  33988  286.66 0855.33
2009/04/23 07:55:10.2     112    172     11    206    207  33.0   3.1  33990  286.71 0855.33
2009/04/23 07:55:10.3     174    174     64    247    256  45.0  14.7  33984  286.60 0855.33
2009/04/23 07:55:10.4     157    178     17    238    239  41.5   4.2  33984  286.60 0855.33
2009/04/23 07:55:10.5     140    173     -4    223    224  39.0  -1.2  33978  286.49 0855.33
2009/04/23 07:55:10.6      92    164      8    189    190  29.2   2.5  33976  286.46 0855.33
2009/04/23 07:55:10.7      78    180     23    197    199  23.4   6.9  33986  286.64 0855.33
2009/04/23 07:55:10.8      81    215     45    230    235  20.7  11.1  33976  286.45 0855.33
2009/04/23 07:55:10.9      57    281     19    287    288  11.6   3.9  33962  286.23 0855.33
2009/04/23 07:55:11.0     -13    291     14    292    293 357.3   2.8  33970  286.36 0855.33
2009/04/23 07:55:11.1      40    243      9    247    248   9.3   2.1  33976  286.47 0855.33
2009/04/23 07:55:11.2      42    218     -1    223    224  10.9  -0.5  33974  286.44 0855.33
2009/04/23 07:55:11.3      65    204      0    215    216  17.8   0.2  33978  286.51 0855.33
2009/04/23 07:55:11.4      85    196     -6    214    215  23.6  -1.8  33976  286.47 0855.33
2009/04/23 07:55:11.5      78    183    -32    200    203  23.2  -9.3  33976  286.46 0855.32
2009/04/23 07:55:11.6      85    171    -24    192    194  26.5  -7.2  33978  286.49 0855.32
2009/04/23 07:55:11.7      78    165    -20    183    185  25.5  -6.5  33974  286.42 0855.32
2009/04/23 07:55:11.8      71    140      2    158    159  27.1   0.8  33976  286.46 0855.32
2009/04/23 07:55:11.9      94    132    -14    163    164  35.6  -5.2  33976  286.46 0855.32
2009/04/23 07:55:12.0      68    166    -14    180    181  22.5  -4.6  33974  286.44 0855.32
2009/04/23 07:55:12.1     110    156    -31    191    194  35.2  -9.3  33974  286.42 0855.32
2009/04/23 07:55:12.2     101    143    -29    176    179  35.4  -9.6  33974  286.44 0855.32
2009/04/23 07:55:12.3      86    163     -3    185    186  27.9  -1.1  33972  286.39 0855.32
2009/04/23 07:55:12.4      87    143      9    168    169  31.4   3.1  33974  286.42 0855.32
2009/04/23 07:55:12.5      94    151    -11    178    179  31.9  -3.7  33972  286.39 0855.32
2009/04/23 07:55:12.6      95    151    -30    179    182  32.1  -9.8  33974  286.44 0855.32
2009/04/23 07:55:12.7     109    124     -3    166    167  41.2  -1.1  33974  286.44 0855.32
2009/04/23 07:55:12.8     123    108    -55    164    174  48.7 -18.7  33974  286.44 0855.32
2009/04/23 07:55:12.9     110     90    -33    143    147  50.9 -13.3  33980  286.54 0855.32
2009/04/23 07:55:13.0     114    103    -48    154    161  47.8 -22.3  33978  286.51 0855.32
2009/04/23 07:55:13.1     165     98    -21    193    195  59.3  -6.5  34046  287.64 0855.32
2009/04/23 07:55:13.2     201     31     -4    204    205  81.0  -1.3  34058  287.84 0855.32
2009/04/23 07:55:13.3     203     47    -48    209    215  77.0 -13.2  34056  287.82 0855.32
2009/04/23 07:55:13.4     186     57    -40    195    200  72.9 -11.6  34058  287.86 0855.32
2009/04/23 07:55:13.5     161     69    -51    176    184  66.7 -16.4  34044  287.60 0855.33
2009/04/23 07:55:13.6     193     64    -64    204    215  71.6 -17.6  34022  287.23 0855.33
2009/04/23 07:55:13.7     204     32    -18    207    208  81.0  -5.2  34024  287.28 0855.33
2009/04/23 07:55:13.8     149     16    -28    150    153  83.8 -10.9  34018  287.18 0855.33
2009/04/23 07:55:13.9      92     58    -69    110    129  57.6 -39.9  33990  286.69 0855.33
2009/04/23 07:55:14.0      92     81    -65    123    139  48.7 -34.7  33980  286.54 0855.33
2009/04/23 07:55:14.1     102     81    -61    131    144  51.8 -31.5  33978  286.51 0855.33
2009/04/23 07:55:14.2     124     84    -13    150    151  55.9  -5.2  34000  286.86 0855.33
2009/04/23 07:55:14.3     166     84      2    187    188  63.1   0.8  33988  286.67 0855.33
2009/04/23 07:55:14.4     139    108    -39    177    182  52.2 -12.4  33978  286.49 0855.33
2009/04/23 07:55:14.5     121    105    -23    161    163  48.9  -8.2  33980  286.54 0855.33
2009/04/23 07:55:14.6     155    101    -18    186    187  56.9  -5.6  34016  287.13 0855.33
2009/04/23 07:55:14.7     170     35    -11    174    175  78.3  -3.9  34042  287.57 0855.33
2009/04/23 07:55:14.8     144     63      2    158    159  66.5   0.8  34046  287.64 0855.33
2009/04/23 07:55:14.9     181     44    -23    187    189  76.1  -7.2  34048  287.67 0855.33
2009/04/23 07:55:15.0     199     65     10    210    211  71.8   2.9  34054  287.77 0855.33
2009/04/23 07:55:15.1     194     58     31    203    206  73.2   8.9  34062  287.91 0855.33
2009/04/23 07:55:15.2     202     56     32    210    213  74.3   8.8  34046  287.65 0855.33
2009/04/23 07:55:15.3     163     25     12    165    166  81.2   4.4  34042  287.59 0855.33
2009/04/23 07:55:15.4     171     12     27    172    175  85.9   9.0  34042  287.59 0855.33
2009/04/23 07:55:15.5     184     29      9    187    188  80.8   2.9  34048  287.69 0855.32
2009/04/23 07:55:15.6     166     46     35    173    177  74.5  11.6  34054  287.77 0855.32
2009/04/23 07:55:15.7     164     31     21    167    169  79.2   7.2  34042  287.59 0855.32
2009/04/23 07:55:15.8     142    -43     38    149    154 106.8  14.5  34034  287.45 0855.32
2009/04/23 07:55:15.9     141    -37     39    146    152 105.1  15.2  34044  287.60 0855.32
2009/04/23 07:55:16.0     145    -52     51    155    164 110.0  18.1  34036  287.47 0855.32
2009/04/23 07:55:16.1     147    -20     49    149    158  98.0  18.4  34036  287.47 0855.32
2009/04/23 07:55:16.2     176     11     91    177    199  86.3  29.3  34038  287.50 0855.32
2009/04/23 07:55:16.3     120    -32     38    125    131 105.1  17.3  34018  287.18 0855.32
2009/04/23 07:55:16.4     126    -42     67    133    148 108.6  28.7  34006  286.98 0855.32
2009/04/23 07:55:16.5     115    -45     60    124    137 111.7  27.3  34004  286.93 0855.32
2009/04/23 07:55:16.6      86    -70     48    111    120 129.1  25.1  34004  286.93 0855.32
2009/04/23 07:55:16.7      98    -45     64    109    126 114.8  33.5  34008  287.01 0855.32
2009/04/23 07:55:16.8      96    -35     77    103    128 110.4  40.7  34012  287.06 0855.32
2009/04/23 07:55:16.9      28    -40     67     50     83 144.8  59.4  34016  287.15 0855.32
2009/04/23 07:55:17.0      17      0     49     18     52  90.0  80.2  34020  287.21 0855.32
2009/04/23 07:55:17.1     101    -31     37    106    113 107.3  19.4  34010  287.03 0855.32
2009/04/23 07:55:17.2      99    -36     47    106    115 110.0  25.7  34012  287.08 0855.32
2009/04/23 07:55:17.3     113    -37     37    119    125 108.2  17.3  34012  287.06 0855.32
2009/04/23 07:55:17.4     122    -26     45    125    132 102.4  20.4  34004  286.93 0855.32
2009/04/23 07:55:17.5      97    -58     48    114    123 121.1  24.1  34010  287.03 0855.32
2009/04/23 07:55:17.6      76    -57     44     95    104 126.9  26.6  34010  287.05 0855.32
2009/04/23 07:55:17.7      78    -43     44     90    100 118.9  27.8  34010  287.05 0855.32
2009/04/23 07:55:17.8      63    -40     31     75     81 122.5  23.6  34006  286.98 0855.32
2009/04/23 07:55:17.9      59    -22     37     64     73 110.8  32.4  34002  286.91 0855.32
2009/04/23 07:55:18.0      67    -26     44     73     85 111.7  34.4  34004  286.93 0855.32
2009/04/23 07:55:18.1      94    -41     28    103    107 113.5  15.2  34006  286.96 0855.32
2009/04/23 07:55:18.2      74    -35      5     82     83 115.4   3.8  34004  286.93 0855.32
2009/04/23 07:55:18.3      48    -48    -22     68     71 135.0 -23.8  33996  286.81 0855.32
2009/04/23 07:55:18.4      44    -50    -44     67     80 138.6 -40.9  33994  286.78 0855.32
2009/04/23 07:55:18.5      47    -30    -19     56     59 122.5 -23.6  33998  286.84 0855.32
2009/04/23 07:55:18.6      47    -14     20     50     53 106.8  22.0  33998  286.84 0855.32
2009/04/23 07:55:18.7      64    -25     48     69     84 111.7  38.0  34000  286.86 0855.32
2009/04/23 07:55:18.8      89    -65      0    111    112 126.0  -0.3  34000  286.88 0855.32
2009/04/23 07:55:18.9      77    -43     14     89     91 119.3   9.5  34002  286.89 0855.32
2009/04/23 07:55:19.0      63    -70    -21     95     98 137.7 -12.4  33994  286.76 0855.32
2009/04/23 07:55:19.1      71    -69    -20    100    103 134.0 -11.3  33996  286.79 0855.32
2009/04/23 07:55:19.2      58    -59     13     84     86 135.5   9.0  33998  286.84 0855.32
2009/04/23 07:55:19.3      59    -69     -5     92     93 139.5  -3.1  34000  286.86 0855.32
2009/04/23 07:55:19.5      61    -57    -28     84     88 133.1 -23.6  33992  286.74 0855.32
2009/04/23 07:55:19.6      90    -48    -38    103    109 118.0 -24.8  33998  286.84 0855.31
2009/04/23 07:55:19.7     103    -62    -43    121    129 121.1 -19.7  34008  287.00 0855.31
2009/04/23 07:55:19.8     115    -39    -15    122    124 109.1  -7.3  34006  286.98 0855.31
2009/04/23 07:55:19.9     104    -34    -28    110    114 108.2 -14.5  34008  287.01 0855.31
2009/04/23 07:55:20.0     120    -23    -10    123    124 101.0  -5.1  34010  287.03 0855.31
2009/04/23 07:55:20.1     106      4     23    107    110  87.4  12.2  34000  286.88 0855.31
2009/04/23 07:55:20.2     102    -21     20    105    108 101.9  11.1  34008  287.00 0855.31
2009/04/23 07:55:20.3      99    -21     29    102    107 102.4  15.8  34002  286.89 0855.31
2009/04/23 07:55:20.4      80     -9     30     81     86  97.0  20.4  34004  286.93 0855.31
2009/04/23 07:55:20.5      76     -5     35     77     84  94.4  26.2  34006  286.98 0855.31
2009/04/23 07:55:20.6      67    -22     24     71     76 108.6  18.9  34006  286.98 0855.31
2009/04/23 07:55:20.7      78    -49    -36     93     99 122.4 -26.4  34008  287.00 0855.31
2009/04/23 07:55:20.8      68    -59    -28     91     95 130.9 -22.8  34008  287.01 0855.31
2009/04/23 07:55:20.9      72    -70    -28    101    105 134.4 -15.5  34004  286.94 0855.31
2009/04/23 07:55:21.0      96    -57     -4    112    113 120.7  -2.2  34004  286.94 0855.31
2009/04/23 07:55:21.1      94    -38    -33    102    107 112.2 -23.8  34002  286.89 0855.31
2009/04/23 07:55:21.2     123    -56    -48    136    145 114.4 -19.7  34006  286.96 0855.31
2009/04/23 07:55:21.3     125    -44     28    133    137 109.5  12.2  34002  286.89 0855.31
2009/04/23 07:55:21.4     104    -80     78    132    153 127.7  33.5  34006  286.98 0855.31
2009/04/23 07:55:21.5      80    -83     97    116    151 135.9  43.8  34004  286.93 0855.31
2009/04/23 07:55:21.6      92    -76    100    120    156 129.5  44.3  33996  286.81 0855.31
2009/04/23 07:55:21.7      87    -58    106    105    149 123.7  50.1  33994  286.78 0855.31
2009/04/23 07:55:21.8      79    -53     99     96    137 123.7  51.2  33996  286.81 0855.31
2009/04/23 07:55:21.9     103    -45    108    113    156 113.5  49.0  33996  286.81 0855.31
2009/04/23 07:55:22.0     104    -34    106    110    152 108.2  49.4  33992  286.73 0855.31
2009/04/23 07:55:22.1      97    -14     99     99    140  98.4  50.1  33990  286.69 0855.31
2009/04/23 07:55:22.2      67    -26     77     73    106 111.7  51.6  33990  286.69 0855.31
2009/04/23 07:55:22.3      89    -23     82     92    123 104.6  46.9  33990  286.69 0855.31
2009/04/23 07:55:22.4      90    -16     82     92    123 100.1  46.9  33992  286.74 0855.31
2009/04/23 07:55:22.5      67    -22     60     71     92 108.4  44.3  33992  286.74 0855.31
2009/04/23 07:55:22.6      75    -32     57     82     99 113.5  38.6  33988  286.66 0855.31
2009/04/23 07:55:22.7      71    -31     54     78     94 113.5  37.6  33990  286.71 0855.31
2009/04/23 07:55:22.8      56    -27     57     63     84 116.2  47.5  33992  286.73 0855.31
2009/04/23 07:55:22.9      74    -38     55     84    100 117.1  36.0  33990  286.69 0855.31
2009/04/23 07:55:23.0      69    -23     59     73     93 108.6  43.7  33992  286.74 0855.31
2009/04/23 07:55:23.1      81    -30     73     87    113 110.4  44.3  33992  286.73 0855.31
2009/04/23 07:55:23.2     104    -14     82    105    133  97.9  42.2  33996  286.81 0855.31
2009/04/23 07:55:23.3      85    -22     83     88    120 104.6  48.0  33998  286.83 0855.31
2009/04/23 07:55:23.4      75    -25     87     80    118 108.6  52.2  33998  286.84 0855.31
2009/04/23 07:55:23.5      96    -15     73     98    122  99.2  40.7  33998  286.84 0855.31
2009/04/23 07:55:23.6      79    -20     64     82    104 104.2  42.2  34000  286.86 0855.31
2009/04/23 07:55:23.7      81    -12     78     82    113  98.8  49.0  33998  286.84 0855.31
2009/04/23 07:55:23.8      91    -14     88     93    128  98.8  48.5  33998  286.83 0855.31
2009/04/23 07:55:23.9      86     -6     97     87    130  94.4  53.7  33998  286.83 0855.31
2009/04/23 07:55:24.0      76    -11     86     77    115  98.8  53.3  33998  286.84 0855.31
2009/04/23 07:55:24.1      53    -33     82     63    103 122.5  58.5  34000  286.86 0855.31
2009/04/23 07:55:24.2      90    -31     82     96    126 109.1  45.4  33992  286.74 0855.31
2009/04/23 07:55:24.3      95     -7     94     96    134  94.4  50.0  33996  286.81 0855.31
2009/04/23 07:55:24.4     105     -7    102    106    147  93.9  49.0  33998  286.83 0855.31
2009/04/23 07:55:24.5     105     -8    108    106    151  94.4  50.1  33992  286.74 0855.31
2009/04/23 07:55:24.6      92     22    102     95    139  76.3  52.2  33994  286.78 0855.31
2009/04/23 07:55:24.7      94     31     93    100    136  71.6  47.9  33996  286.79 0855.31
2009/04/23 07:55:24.8     100     33    109    106    152  71.4  50.7  33998  286.84 0855.31
2009/04/23 07:55:24.9      99     39    149    107    183  68.2  60.8  34018  287.16 0855.31
2009/04/23 07:55:25.0      61     40    132     73    150  56.7  68.8  34044  287.60 0855.31
2009/04/23 07:55:25.1      81     36    114     89    144  66.0  58.4  34040  287.54 0855.31
2009/04/23 07:55:25.2     192     42    144    197    244  77.6  39.7  34028  287.33 0855.31
2009/04/23 07:55:25.3     136    115     90    179    200  49.8  28.7  34036  287.47 0855.31
2009/04/23 07:55:25.4     190     90    100    211    233  64.6  27.2  34030  287.38 0855.31
2009/04/23 07:55:25.5     208     97    108    230    254  64.8  27.1  34036  287.46 0855.31
2009/04/23 07:55:25.6     184     98     87    209    226  61.8  23.8  34036  287.49 0855.31
2009/04/23 07:55:25.7     184     66     87    196    214  70.3  25.3  34050  287.72 0855.31
2009/04/23 07:55:25.8     133     58     90    146    171  66.5  34.8  34058  287.86 0855.31
2009/04/23 07:55:25.9     165     81     82    184    201  63.8  25.3  34052  287.76 0855.31
2009/04/23 07:55:26.0     122     72     51    142    150  59.3  20.0  34058  287.86 0855.31
2009/04/23 07:55:26.1     144     84     74    167    182  59.8  25.3  34076  288.14 0855.31
2009/04/23 07:55:26.2     176     83     32    195    198  64.5   9.3  34032  287.40 0855.31
2009/04/23 07:55:26.3     196     44     48    201    207  77.2  13.7  34038  287.52 0855.31
2009/04/23 07:55:26.4     183    108     41    213    217  59.3  11.0  34032  287.42 0855.31
2009/04/23 07:55:26.5     202     90     38    222    226  66.0   9.9  34024  287.28 0855.31
2009/04/23 07:55:26.6     172     53     53    181    189  72.7  16.3  34036  287.49 0855.31
2009/04/23 07:55:26.7     159     49     33    167    171  72.9  11.4  34038  287.52 0855.31
2009/04/23 07:55:26.8     144     48     40    153    159  71.4  14.7  34040  287.55 0855.31
2009/04/23 07:55:26.9     153     52     49    162    170  70.9  17.1  34044  287.60 0855.31
2009/04/23 07:55:27.0     153     45     66    160    173  73.6  23.6  34058  287.84 0855.31
2009/04/23 07:55:27.1     167     29     26    170    173  79.9   8.8  34026  287.30 0855.31
2009/04/23 07:55:27.2     194     66     46    205    211  71.2  12.6  34020  287.21 0855.31
2009/04/23 07:55:27.3     212    112     68    240    250  62.1  15.8  34006  286.97 0855.31
2009/04/23 07:55:27.4     269     97     56    287    293  70.1  11.1  33986  286.63 0855.31
2009/04/23 07:55:27.5     286     89     80    300    311  72.7  15.0  33986  286.62 0855.31
2009/04/23 07:55:27.6     211    107     63    237    246  63.0  15.0  34010  287.04 0855.31
2009/04/23 07:55:27.7     176    105     72    206    219  59.1  19.4  34014  287.11 0855.31
2009/04/23 07:55:27.8     167    121     60    207    216  54.0  16.3  34014  287.11 0855.31
2009/04/23 07:55:27.9     155    103     30    187    190  56.3   9.3  34012  287.08 0855.31
2009/04/23 07:55:28.0     211    129    -31    248    251  58.5  -7.3  34004  286.94 0855.31
2009/04/23 07:55:28.1     187     81    -56    204    212  66.5 -15.4  33998  286.83 0855.31
2009/04/23 07:55:28.2     153    102     20    184    186  56.3   6.5  34000  286.88 0855.31
2009/04/23 07:55:28.3     126    168     33    211    214  37.0   9.0  33998  286.84 0855.31
2009/04/23 07:55:28.4     117    176     65    212    222  33.6  17.1  34002  286.91 0855.31
2009/04/23 07:55:28.5     104    159     61    191    201  33.2  17.7  34004  286.93 0855.31
2009/04/23 07:55:28.6     148    152     16    213    214  44.3   4.4  34004  286.93 0855.30
2009/04/23 07:55:28.7     137    164     25    215    217  39.9   6.7  34004  286.94 0855.30
2009/04/23 07:55:28.8     188    153     49    243    248  50.9  11.4  33996  286.79 0855.30
2009/04/23 07:55:28.9     152    125     68    197    209  50.5  19.2  33992  286.74 0855.30
2009/04/23 07:55:29.0     106    143     77    179    194  36.5  24.9  34018  287.18 0855.30
2009/04/23 07:55:29.1      76    158     61    176    187  25.9  19.2  34020  287.20 0855.30
2009/04/23 07:55:29.2      67    146     74    161    177  24.9  26.4  34020  287.21 0855.30
2009/04/23 07:55:29.3      77    132     73    154    170  30.3  27.2  34024  287.28 0855.30
2009/04/23 07:55:29.4      73    115     62    137    150  32.5  26.2  34024  287.27 0855.30
2009/04/23 07:55:29.5      82     89     85    122    148  42.8  38.0  34026  287.30 0855.30
2009/04/23 07:55:29.6      68     94     72    117    137  36.1  35.0  34068  288.01 0855.30
2009/04/23 07:55:29.7      90     96     52    132    141  43.2  23.0  34048  287.67 0855.30
2009/04/23 07:55:29.8      92     86     69    127    144  46.8  31.3  33998  286.84 0855.30
2009/04/23 07:55:29.9      92     66     58    114    127  54.0  28.7  33990  286.71 0855.30
2009/04/23 07:55:30.0      86     55     35    103    109  57.1  18.9  33992  286.74 0855.30
2009/04/23 07:55:30.1     135     69     53    152    162  62.9  19.2  34060  287.89 0855.30
2009/04/23 07:55:30.2     110     90     22    143    145  50.9   9.0  34064  287.94 0855.30
2009/04/23 07:55:30.3      93    101     -3    138    139  42.8  -1.3  34046  287.64 0855.30
2009/04/23 07:55:30.4      93    124     32    156    160  37.0  11.6  34050  287.70 0855.30
2009/04/23 07:55:30.5      77    122     39    145    151  32.5  15.3  34050  287.70 0855.30
2009/04/23 07:55:30.6      88    107     47    139    147  39.6  18.9  34050  287.70 0855.30
2009/04/23 07:55:30.7     128    127     70    181    194  45.1  22.0  34010  287.03 0855.30
2009/04/23 07:55:30.8     160    163      0    229    230  44.3   0.0  34020  287.21 0855.30
2009/04/23 07:55:30.9     164    212     30    269    271  37.8   6.5  34014  287.09 0855.30
2009/04/23 07:55:31.0     137    196     38    240    244  35.0   9.0  33986  286.62 0855.30
2009/04/23 07:55:31.1     144    235     50    276    281  31.6  10.3  33998  286.82 0855.30
2009/04/23 07:55:31.2     160    220     53    273    279  36.1  11.1  34012  287.07 0855.30
2009/04/23 07:55:31.3     147    223     38    268    271  33.4   8.2  33988  286.67 0855.30
2009/04/23 07:55:31.4     149    204     55    253    260  36.1  12.4  34010  287.02 0855.30
2009/04/23 07:55:31.5     138    185     65    232    242  36.7  15.8  34002  286.90 0855.30
2009/04/23 07:55:31.6     113    189     82    221    235  31.0  21.0  33980  286.54 0855.30
2009/04/23 07:55:31.7     134    173     77    219    233  37.8  19.4  33982  286.57 0855.30
2009/04/23 07:55:31.8     210    163     64    266    274  52.2  13.7  33988  286.67 0855.30
2009/04/23 07:55:31.9     183    178     26    256    258  45.8   6.0  33992  286.72 0855.30
2009/04/23 07:55:32.0     202    151     36    253    256  53.1   8.2  34050  287.70 0855.30
2009/04/23 07:55:32.1     184    168     38    250    253  47.6   8.8  34006  286.97 0855.30
2009/04/23 07:55:32.2     213    142     55    257    263  56.3  12.2  34062  287.92 0855.30
2009/04/23 07:55:32.3     214    160     23    268    270  53.2   5.0  34006  286.95 0855.30
2009/04/23 07:55:32.4     201    167      9    262    263  50.2   2.1  33984  286.60 0855.30
2009/04/23 07:55:32.5     213    160      3    267    268  53.1   0.8  33976  286.47 0855.30
2009/04/23 07:55:32.6     235    160     -6    285    286  55.8  -1.3  33976  286.47 0855.31
2009/04/23 07:55:32.7     272    183     49    329    333  56.0   8.5  33976  286.46 0855.31
2009/04/23 07:55:32.8     244    183     -5    306    307  53.1  -1.1  33980  286.53 0855.31
2009/04/23 07:55:32.9     231    191     15    300    301  50.4   2.9  33978  286.48 0855.31
2009/04/23 07:55:33.0     233    166      3    287    288  54.5   0.7  33980  286.52 0855.31
2009/04/23 07:55:33.1     215    165     -1    272    273  52.5  -0.3  33980  286.52 0855.31
2009/04/23 07:55:33.2     173    153    -57    232    240  48.4 -13.9  33978  286.48 0855.31
2009/04/23 07:55:33.3     163    187    -46    249    254  41.2 -10.5  33976  286.45 0855.31
2009/04/23 07:55:33.4     160    150     -1    220    221  46.7  -0.3  33978  286.51 0855.31
2009/04/23 07:55:33.5      97    136      8    168    169  35.4   2.8  33978  286.51 0855.31
2009/04/23 07:55:33.6     140    161     -1    214    215  41.0  -0.5  33974  286.44 0855.31
2009/04/23 07:55:33.7     207    112    -29    236    238  61.6  -7.2  33976  286.47 0855.31
2009/04/23 07:55:33.8     188    166    -36    251    254  48.6  -8.3  33976  286.45 0855.31
2009/04/23 07:55:33.9     142    148    -27    206    208  43.9  -7.7  33976  286.46 0855.31
2009/04/23 07:55:34.0     183     90    -13    204    205  63.8  -3.9  33976  286.46 0855.31
2009/04/23 07:55:34.1     152     56    -25    163    166  69.6  -9.0  33974  286.44 0855.31
2009/04/23 07:55:34.2     107    113      1    156    157  43.3   0.5  33972  286.39 0855.31
2009/04/23 07:55:34.3      76    168     -3    185    186  24.5  -1.1  33970  286.37 0855.31
2009/04/23 07:55:34.4      35    196     42    200    205  10.2  12.0  33972  286.39 0855.31
2009/04/23 07:55:34.5     -14    152     39    153    158 354.7  14.3  33974  286.42 0855.31
2009/04/23 07:55:34.6      87    137     52    163    172  32.6  17.9  33976  286.46 0855.31
2009/04/23 07:55:34.7      66    111     69    130    147  30.7  29.8  33974  286.42 0855.31
2009/04/23 07:55:34.8      71    116     68    137    152  31.6  27.8  33974  286.44 0855.31
2009/04/23 07:55:34.9     140     66     83    155    175  64.7  30.6  33976  286.47 0855.31
2009/04/23 07:55:35.0     150     77     79    169    186  62.7  27.1  33972  286.41 0855.31
2009/04/23 07:55:35.1     115     86    104    144    177  53.1  39.5  33974  286.42 0855.31
2009/04/23 07:55:35.2     151     76     50    170    178  63.1  16.6  33970  286.35 0855.31
2009/04/23 07:55:35.3     141     73      8    160    161  62.5   3.1  33972  286.39 0855.31
2009/04/23 07:55:35.4     147     56     11    158    159  69.2   4.2  33972  286.39 0855.31
2009/04/23 07:55:35.5     132    100     15    166    167  52.9   5.2  33968  286.32 0855.31
2009/04/23 07:55:35.6     124    102      8    161    162  50.5   2.9  33970  286.35 0855.31
2009/04/23 07:55:35.7     153    108    -21    188    190  54.7  -6.5  33972  286.39 0855.31
2009/04/23 07:55:35.8     147    117    -25    189    191  51.4  -7.7  33972  286.41 0855.31
2009/04/23 07:55:35.9     142    112    -38    182    186  51.8 -11.9  33974  286.42 0855.31
2009/04/23 07:55:36.0     110    136    -32    175    178  39.0 -10.5  33970  286.37 0855.31
2009/04/23 07:55:36.1     113    133    -31    175    178  40.3 -10.3  33970  286.35 0855.31
2009/04/23 07:55:36.2     105    120    -32    160    164  41.0 -11.6  33976  286.47 0855.31
2009/04/23 07:55:36.3      53     84    -56    100    114  32.5 -36.3  33976  286.46 0855.31
2009/04/23 07:55:36.4      20     98    -91    101    135  11.6 -51.3  33976  286.47 0855.31
2009/04/23 07:55:36.5      -5    120    -45    121    129 357.3 -25.4  33982  286.56 0855.31
2009/04/23 07:55:36.6      11    147    -35    148    153   4.5 -13.4  33982  286.56 0855.31
2009/04/23 07:55:36.7     -30    147    -48    151    159 348.4 -17.9  33978  286.51 0855.31
2009/04/23 07:55:36.8     -58    160    -33    171    175 340.0 -11.1  33986  286.64 0855.31
2009/04/23 07:55:36.9     -38    189    -40    193    198 348.5 -11.9  33984  286.59 0855.31
2009/04/23 07:55:37.0     -53    163    -42    172    178 342.0 -13.9  33984  286.61 0855.31
2009/04/23 07:55:37.1     -53    152    -36    162    167 340.8 -12.6  33982  286.56 0855.31
2009/04/23 07:55:37.2     -27    156    -27    159    162 350.2  -9.6  33984  286.61 0855.31
2009/04/23 07:55:37.3      51    139    -13    149    150  20.1  -5.2  33986  286.62 0855.31
2009/04/23 07:55:37.4      41    121    -16    128    130  18.7  -7.2  33982  286.56 0855.31
2009/04/23 07:55:37.5      44    107    -23    116    119  22.3 -11.3  33984  286.59 0855.31
2009/04/23 07:55:37.6      32    118    -35    123    129  15.2 -16.0  33986  286.62 0855.31
2009/04/23 07:55:37.7      31    142    -21    146    148  12.5  -8.2  33986  286.64 0855.31
2009/04/23 07:55:37.8      32    136     -7    140    141  13.4  -3.1  33984  286.59 0855.31
2009/04/23 07:55:37.9      47    143      4    151    152  18.3   1.8  33982  286.56 0855.31
2009/04/23 07:55:38.0      61    119     35    134    139  27.2  14.7  33980  286.54 0855.31
2009/04/23 07:55:38.1      53    118     23    130    133  24.5  10.1  33980  286.54 0855.31
2009/04/23 07:55:38.2      74    104     32    128    133  35.6  14.3  33982  286.56 0855.31
2009/04/23 07:55:38.3      90    120      4    151    152  37.0   1.8  33982  286.57 0855.31
2009/04/23 07:55:38.4      48    133    -44    142    149  20.0 -17.5  33982  286.57 0855.31
2009/04/23 07:55:38.5      21     97    -36    100    106  12.5 -24.4  33986  286.62 0855.31
2009/04/23 07:55:38.6      47     87    -17    100    102  28.5  -9.8  33986  286.62 0855.32
2009/04/23 07:55:38.7      36     72    -20     81     84  26.7 -13.9  33984  286.59 0855.32
2009/04/23 07:55:38.8      19     68    -25     71     75  16.0 -23.3  33984  286.61 0855.32
2009/04/23 07:55:38.9       6     80    -40     81     90   4.5 -32.2  33986  286.62 0855.32
2009/04/23 07:55:39.0     -31     99    -48    104    114 342.2 -31.5  33982  286.56 0855.32
2009/04/23 07:55:39.1     -48     82    -39     96    103 329.7 -27.4  33978  286.49 0855.32
2009/04/23 07:55:39.2     -38     83    -51     92    105 335.5 -35.8  33980  286.54 0855.32
2009/04/23 07:55:39.3     -46     70    -23     84     87 326.6 -20.2  33976  286.47 0855.32
2009/04/23 07:55:39.4     -41     55    -26     69     73 323.0 -24.4  33978  286.51 0855.32
2009/04/23 07:55:39.5     -30     47    -37     56     67 327.4 -40.0  33976  286.47 0855.32
2009/04/23 07:55:39.6     -45     39    -37     60     70 311.3 -39.9  33976  286.47 0855.32
2009/04/23 07:55:39.7     -33     26    -33     43     54 308.6 -46.1  33978  286.49 0855.32
2009/04/23 07:55:39.8     -32     20    -40     38     55 302.4 -54.5  33976  286.46 0855.32
2009/04/23 07:55:39.9     -33      2    -40     34     52 274.4 -59.8  33976  286.46 0855.32
2009/04/23 07:55:40.0      -9     -1    -29     10     30 258.5 -85.4  33974  286.44 0855.32
2009/04/23 07:55:40.1      12      0    -32     13     34  90.0 -83.6  33976  286.47 0855.32
2009/04/23 07:55:40.2      17     14    -21     23     31  50.5 -52.3  33978  286.51 0855.32
2009/04/23 07:55:40.3      32     10    -20     34     39  71.6 -37.9  33980  286.54 0855.32
2009/04/23 07:55:40.4      32      7    -22     33     39  76.7 -40.9  33980  286.54 0855.32
2009/04/23 07:55:40.5      16     10    -23     19     29  57.5 -60.8  33980  286.54 0855.32
2009/04/23 07:55:40.6      11     23    -14     26     29  27.2 -35.8  33978  286.49 0855.32
2009/04/23 07:55:40.7       7     35    -14     36     38  11.6 -23.3  33980  286.54 0855.32
2009/04/23 07:55:40.8      -2     43    -14     44     46 357.3 -23.8  33982  286.57 0855.32
2009/04/23 07:55:40.9      10     50     -3     52     53  11.6  -4.1  33980  286.54 0855.32
2009/04/23 07:55:41.0      27     31     -7     42     43  41.4 -10.3  33982  286.57 0855.32
2009/04/23 07:55:41.1      21     47    -16     52     54  24.5 -23.8  33982  286.57 0855.32
2009/04/23 07:55:41.2       6     44    -30     45     54   8.0 -40.9  33984  286.61 0855.32
2009/04/23 07:55:41.4       4     67    -42     68     79   3.6 -39.4  33986  286.64 0855.32
2009/04/23 07:55:41.5       7     56    -38     57     68   8.0 -40.0  33986  286.64 0855.32
2009/04/23 07:55:41.5       4     62    -40     63     74   4.5 -39.9  33986  286.62 0855.32
2009/04/23 07:55:41.6       6     65    -31     66     72   5.3 -31.5  33986  286.64 0855.32
2009/04/23 07:55:41.7      -4     66    -38     67     77 356.4 -36.8  33986  286.64 0855.32
2009/04/23 07:55:41.8      -3     78    -37     79     87 357.3 -31.0  33986  286.62 0855.32
2009/04/23 07:55:41.9      -7     72    -42     73     84 353.8 -37.3  33986  286.64 0855.32
2009/04/23 07:55:42.0      -6     83    -51     84     98 355.6 -38.8  33986  286.64 0855.32
2009/04/23 07:55:42.1      -3     72    -47     73     86 357.3 -40.0  33988  286.67 0855.32
2009/04/23 07:55:42.2       5     70    -42     71     82   4.4 -37.9  33986  286.62 0855.32
2009/04/23 07:55:42.3      14     55    -47     57     73  14.3 -48.2  33984  286.59 0855.32
2009/04/23 07:55:42.4      24     61    -50     66     82  21.8 -45.6  33986  286.64 0855.32
2009/04/23 07:55:42.5       6     53    -53     54     75   7.1 -55.5  33986  286.62 0855.32
2009/04/23 07:55:42.6      24     61    -63     66     91  21.8 -53.4  33986  286.62 0855.32
2009/04/23 07:55:42.7      23     59    -63     64     89  21.9 -54.9  33984  286.61 0855.32
2009/04/23 07:55:42.8      29     59    -58     66     87  26.3 -50.8  33984  286.61 0855.32
2009/04/23 07:55:42.9      19     63    -56     66     86  16.9 -49.8  33984  286.59 0855.32
2009/04/23 07:55:43.0      24     63    -64     68     93  20.9 -53.4  33986  286.62 0855.32
2009/04/23 07:55:43.1      39     70    -73     81    109  29.0 -51.9  33982  286.57 0855.32
2009/04/23 07:55:43.2      42     65    -54     78     94  33.4 -42.0  33982  286.57 0855.32
2009/04/23 07:55:43.3      40     67    -49     79     92  30.7 -39.9  33984  286.61 0855.32
2009/04/23 07:55:43.4      32     64    -42     72     83  27.2 -37.3  33986  286.64 0855.32
2009/04/23 07:55:43.5      44     50    -44     67     80  41.4 -40.9  33984  286.61 0855.32
2009/04/23 07:55:43.7      48     45    -40     66     77  46.9 -39.9  33984  286.61 0855.32
2009/04/23 07:55:43.7      55     47    -40     73     83  49.6 -35.2  33986  286.62 0855.32
2009/04/23 07:55:43.8      67     52    -35     85     91  52.2 -28.0  33986  286.62 0855.32
2009/04/23 07:55:43.9      54     54    -46     77     89  45.0 -38.4  33986  286.64 0855.32
2009/04/23 07:55:44.0      58     58    -44     83     93  45.0 -34.7  33984  286.61 0855.32
2009/04/23 07:55:44.1      56     64    -40     86     94  41.4 -31.5  33988  286.66 0855.32
2009/04/23 07:55:44.2      56     56    -32     80     86  45.1 -26.9  33986  286.62 0855.32
2009/04/23 07:55:44.3      46     56    -29     73     78  39.7 -26.9  33986  286.64 0855.32
2009/04/23 07:55:44.4      43     54    -41     70     81  38.7 -37.3  33988  286.66 0855.32
2009/04/23 07:55:44.6      41     55    -40     69     79  37.0 -37.3  33988  286.66 0855.32
2009/04/23 07:55:44.6      38     46    -45     61     75  39.7 -44.1  33988  286.66 0855.33
2009/04/23 07:55:44.7      44     50    -37     67     76  41.4 -35.8  33990  286.69 0855.33
2009/04/23 07:55:44.9      46     46    -49     66     82  45.0 -45.1  33988  286.66 0855.33
2009/04/23 07:55:44.9      47     44    -48     65     80  46.8 -44.5  33988  286.67 0855.33
2009/04/23 07:55:45.0      47     32    -51     58     77  55.8 -50.2  33988  286.66 0855.33
2009/04/23 07:55:45.1      56     26    -44     62     76  64.6 -43.9  33992  286.73 0855.33
2009/04/23 07:55:45.2      40     42    -56     59     81  43.2 -52.9  33990  286.69 0855.33
2009/04/23 07:55:45.3      32     55    -63     64     89  30.7 -54.9  33988  286.66 0855.33
2009/04/23 07:55:45.4      25     45    -66     52     84  29.0 -62.3  33986  286.64 0855.33
2009/04/23 07:55:45.5      35     43    -66     56     86  39.6 -59.2  33986  286.62 0855.33
2009/04/23 07:55:45.6      11     35    -41     37     55  18.7 -57.7  33984  286.59 0855.32
2009/04/23 07:55:45.7      11     36    -49     38     62  18.3 -62.9  33980  286.54 0855.32
2009/04/23 07:55:45.8      -2     25    -50     26     56 353.8 -75.2  33982  286.57 0855.32
2009/04/23 07:55:45.9     -21     19    -51     29     58 311.3 -71.2  33980  286.52 0855.32
2009/04/23 07:55:46.1     -35     -7    -49     36     60 258.5 -64.9  33982  286.56 0855.32
2009/04/23 07:55:46.1     -51    -28    -74     59     94 241.1 -61.9  33982  286.57 0855.32
2009/04/23 07:55:46.2     -72      1    -56     73     92 270.9 -46.1  33986  286.62 0855.32
2009/04/23 07:55:46.3     -71      5    -49     72     87 274.4 -41.4  33986  286.62 0855.32
2009/04/23 07:55:46.4     -70     -2    -49     71     86 268.3 -42.4  33984  286.61 0855.32
2009/04/23 07:55:46.5     -85      3    -35     86     92 272.6 -27.4  33984  286.61 0855.32
2009/04/23 07:55:46.6     -62    -12    -27     64     69 258.5 -27.5  33984  286.61 0855.32
2009/04/23 07:55:46.7     -51    -10    -31     53     61 258.5 -37.9  33984  286.61 0855.32
2009/04/23 07:55:46.8     -49    -15    -55     52     75 253.2 -56.5  33986  286.64 0855.32
2009/04/23 07:55:46.9     -38    -34    -57     52     77 227.8 -56.6  33984  286.61 0855.32
2009/04/23 07:55:47.0     -45    -34    -63     57     84 233.1 -57.1  33984  286.61 0855.32
2009/04/23 07:55:47.2     -55    -18    -74     59     94 251.4 -61.9  33984  286.61 0855.32
2009/04/23 07:55:47.2     -40    -14    -66     43     78 250.9 -69.0  33982  286.56 0855.32
2009/04/23 07:55:47.4     -19     -3    -40     20     44 258.5 -75.2  33984  286.61 0855.32
2009/04/23 07:55:47.5      -7      0    -42      8     42 270.0 -90.0  33984  286.59 0855.32
2009/04/23 07:55:47.6       5     -4    -40      7     40 129.5 -90.0  33986  286.62 0855.32
2009/04/23 07:55:47.7      17     -7    -35     19     39 111.7 -73.2  33982  286.56 0855.32
2009/04/23 07:55:47.8      21    -17    -32     28     42 129.5 -57.7  33982  286.56 0855.32
2009/04/23 07:55:47.9       7    -22    -31     24     39 161.7 -60.8  33982  286.57 0855.32
2009/04/23 07:55:48.0       0    -21    -39     22     44 180.9 -72.1  33982  286.56 0855.32
2009/04/23 07:55:48.1     -28    -16    -46     33     56 239.3 -65.9  33984  286.59 0855.32
2009/04/23 07:55:48.2     -40    -14    -66     43     78 250.9 -69.0  33982  286.56 0855.32
2009/04/23 07:55:48.3     -62    -21    -63     66     91 250.9 -53.4  33980  286.54 0855.32
2009/04/23 07:55:48.4     -71      5    -76     72    104 274.4 -55.6  33986  286.62 0855.32
2009/04/23 07:55:48.5     -81     -6    -59     82    101 265.2 -43.9  33986  286.64 0855.32
2009/04/23 07:55:48.6     -81     -6    -59     82    101 265.2 -43.9  33986  286.64 0855.32
2009/04/23 07:55:48.7     -82     -3    -73     83    110 267.4 -50.2  33986  286.62 0855.32
2009/04/23 07:55:48.8     -76     -5    -79     77    110 265.7 -55.1  33984  286.61 0855.32
2009/04/23 07:55:48.9     -82     -8    -73     83    110 264.3 -50.2  33986  286.64 0855.32
2009/04/23 07:55:49.0     -81    -12    -85     82    118 261.2 -55.6  33984  286.61 0855.32
2009/04/23 07:55:49.1    -109     -2    -71    110    130 268.7 -40.0  33984  286.61 0855.32
2009/04/23 07:55:49.2     -77      0    -68     78    103 270.0 -50.8  33986  286.64 0855.32
2009/04/23 07:55:49.3     -73     -5    -78     74    107 265.6 -56.0  33986  286.62 0855.32
2009/04/23 07:55:49.4     -70      5    -75     71    103 274.3 -56.0  33984  286.61 0855.32
2009/04/23 07:55:49.5     -62      8    -82     63    103 277.9 -62.9  33986  286.62 0855.32
2009/04/23 07:55:49.6     -63     -8    -82     64    104 262.1 -62.3  33986  286.64 0855.32
2009/04/23 07:55:49.7     -68    -15    -73     70    101 257.6 -56.0  33986  286.64 0855.33
2009/04/23 07:55:49.8     -49      0    -82     50     96 270.0 -69.5  33986  286.64 0855.33
2009/04/23 07:55:49.9     -64    -17    -76     67    101 254.9 -58.1  33984  286.61 0855.33
2009/04/23 07:55:50.0     -66    -10    -78     67    102 261.2 -59.2  33984  286.59 0855.33
2009/04/23 07:55:50.1     -68    -15    -80     70    106 257.6 -58.1  33982  286.56 0855.33
2009/04/23 07:55:50.2     -83    -23    -73     87    113 254.1 -48.7  33986  286.64 0855.33
2009/04/23 07:55:50.3     -76    -34    -78     84    114 245.6 -52.4  33984  286.61 0855.33
2009/04/23 07:55:50.4     -62    -42    -71     76    104 235.8 -52.4  33984  286.61 0855.33
2009/04/23 07:55:50.5     -40    -27    -71     49     86 235.8 -66.5  33984  286.61 0855.33
2009/04/23 07:55:50.6     -16    -48    -64     51     81 198.3 -61.9  33984  286.59 0855.33
2009/04/23 07:55:50.7      -1    -30    -52     31     60 182.7 -71.2  33986  286.62 0855.33
2009/04/23 07:55:50.8      15    -45    -43     48     64 160.8 -52.3  33986  286.64 0855.33
2009/04/23 07:55:50.9      17    -65    -44     68     80 164.9 -40.4  33984  286.61 0855.33
2009/04/23 07:55:51.0      24    -52    -41     58     71 154.5 -43.9  33984  286.61 0855.33
2009/04/23 07:55:51.1      41    -43    -44     60     74 136.6 -44.1  33984  286.61 0855.33
2009/04/23 07:55:51.2      45    -37    -43     59     73 129.5 -44.1  33986  286.62 0855.33
2009/04/23 07:55:51.3      41    -33    -34     53     62 128.6 -39.9  33986  286.64 0855.33
2009/04/23 07:55:51.4      35    -22    -41     42     58 122.4 -56.4  33986  286.62 0855.33
2009/04/23 07:55:51.5      37    -12    -36     40     53 108.6 -52.3  33986  286.62 0855.33
2009/04/23 07:55:51.6      49    -25    -28     56     62 117.1 -32.6  33986  286.62 0855.33
2009/04/23 07:55:51.7      57    -28    -22     64     67 116.2 -23.3  33984  286.61 0855.33
2009/04/23 07:55:51.8      57    -27    -23     64     69 115.2 -19.7  33986  286.62 0855.33
2009/04/23 07:55:51.9      76    -24    -18     80     83 108.2 -12.9  33984  286.61 0855.33
2009/04/23 07:55:52.0      73    -34    -11     81     82 115.2  -8.2  33988  286.66 0855.33
2009/04/23 07:55:52.1      68    -32     -8     76     77 115.4  -6.2  33988  286.67 0855.33
2009/04/23 07:55:52.2      62    -34     -3     71     72 118.8  -3.2  33986  286.64 0855.33
2009/04/23 07:55:52.3      81    -33     -1     88     89 112.2  -1.3  33986  286.62 0855.33
2009/04/23 07:55:52.4      77    -22      5     81     82 106.4   3.8  33988  286.67 0855.33
2009/04/23 07:55:52.5      77    -26     -2     82     83 108.6  -1.8  33986  286.64 0855.33
2009/04/23 07:55:52.6      82    -42      4     93     94 117.1   2.9  33988  286.67 0855.33
2009/04/23 07:55:52.7      93    -27     -5     97     98 106.4  -3.1  33990  286.69 0855.33
2009/04/23 07:55:52.8      74    -46     14     88     90 122.0   9.0  33990  286.69 0855.33
2009/04/23 07:55:52.9      82    -11     27     83     88  97.9  18.4  33990  286.69 0855.33
2009/04/23 07:55:53.0     110    -14     39    111    117  97.5  20.0  33988  286.67 0855.33
2009/04/23 07:55:53.1     117     -9     45    118    126  94.8  21.5  33992  286.73 0855.33
2009/04/23 07:55:53.2     119      0     55    120    132  90.0  26.6  34002  286.91 0855.33
2009/04/23 07:55:53.3     116     -8     64    117    133  94.3  31.4  33996  286.81 0855.33
2009/04/23 07:55:53.4     107    -22     94    110    144 101.9  44.8  34012  287.06 0855.33
2009/04/23 07:55:53.5      97    -11    108     98    145  96.6  52.2  34022  287.23 0855.33
2009/04/23 07:55:53.6      78     -7    103     79    129  95.2  58.5  34010  287.03 0855.33
2009/04/23 07:55:53.7      81    -51     54     96    110 122.4  31.9  33992  286.74 0855.33
2009/04/23 07:55:53.8      80    -46      4     93     94 120.2   2.8  33986  286.64 0855.33
2009/04/23 07:55:53.9     101    -61     15    119    121 121.1   7.5  33986  286.62 0855.33
2009/04/23 07:55:54.0      87    -73     22    114    117 130.0  11.0  33986  286.62 0855.33
2009/04/23 07:55:54.1      88    -49     46    101    110 119.3  26.6  33984  286.59 0855.33
2009/04/23 07:55:54.2     115    -29     37    119    125 104.2  17.3  33986  286.62 0855.33
2009/04/23 07:55:54.3     116     21     65    118    134  79.4  31.4  33984  286.61 0855.33
2009/04/23 07:55:54.4     120     37     43    126    134  72.7  18.9  33986  286.62 0855.33
2009/04/23 07:55:54.5     134     21     32    136    140  80.8  13.2  33986  286.64 0855.33
2009/04/23 07:55:54.6     136     32     23    140    142  76.8   9.5  33988  286.67 0855.33
2009/04/23 07:55:54.7     137     27     26    140    143  78.5  10.6  33988  286.66 0855.33
2009/04/23 07:55:54.8     130     22     34    132    137  80.3  14.7  33988  286.66 0855.33
2009/04/23 07:55:54.9     124     37     35    130    135  73.2  15.3  33986  286.62 0855.33
2009/04/23 07:55:55.0     141     61     21    154    156  66.4   7.8  33986  286.64 0855.33
2009/04/23 07:55:55.1     150     29     25    153    156  79.0   9.5  34040  287.54 0855.33
2009/04/23 07:55:55.2     143     24     82    146    167  80.3  31.9  34040  287.55 0855.33
2009/04/23 07:55:55.3     142     25     83    145    167  79.9  32.7  34034  287.43 0855.33
2009/04/23 07:55:55.4     130     18     87    132    158  82.0  36.5  34032  287.40 0855.33
2009/04/23 07:55:55.5     107      8     83    108    136  85.7  41.7  34036  287.49 0855.33
2009/04/23 07:55:55.6      94     22    101     97    140  76.7  51.2  34020  287.21 0855.33
2009/04/23 07:55:55.7     119     31     67    123    140  75.4  31.3  33998  286.84 0855.33
2009/04/23 07:55:55.8     100     13     82    101    130  82.1  43.7  34024  287.27 0855.33
2009/04/23 07:55:55.9     110     24    113    113    159  77.2  50.1  34024  287.28 0855.33
2009/04/23 07:55:56.0     131     34    106    136    172  75.4  42.2  34026  287.32 0855.33
2009/04/23 07:55:56.1      97     39     88    105    137  68.2  43.8  34006  286.96 0855.33
2009/04/23 07:55:56.2     119     32     82    124    148  74.9  36.5  34002  286.91 0855.33
2009/04/23 07:55:56.3      91     23     82     95    125  75.4  45.8  33998  286.84 0855.33
2009/04/23 07:55:56.4     103     -3     52    104    116  92.1  28.2  33992  286.73 0855.33
2009/04/23 07:55:56.5      89     -6     38     90     97  94.3  24.1  33992  286.74 0855.33
2009/04/23 07:55:56.6      75      5     36     76     84  85.6  27.2  33996  286.79 0855.33
2009/04/23 07:55:56.7      65     18     64     68     93  74.1  49.0  33998  286.83 0855.33
2009/04/23 07:55:56.8      85     10     61     86    105  83.0  39.1  33994  286.76 0855.33
2009/04/23 07:55:56.9      92     -7     48     93    104  94.4  29.8  33990  286.71 0855.33
2009/04/23 07:55:57.0      78     -5     57     79     97  94.3  39.7  33990  286.69 0855.33
2009/04/23 07:55:57.1      69     23     92     73    117  71.6  56.9  33996  286.81 0855.33
2009/04/23 07:55:57.2      75     47     90     89    126  57.6  50.1  34002  286.89 0855.33
2009/04/23 07:55:57.3      63     41     75     76    106  56.7  50.5  34008  287.00 0855.33
2009/04/23 07:55:57.4      70     49     49     86     98  54.5  31.9  34000  286.88 0855.33
2009/04/23 07:55:57.5      66     18     38     69     78  74.9  30.8  33994  286.76 0855.33
2009/04/23 07:55:57.6     102    -20     38    105    111 101.4  20.0  33990  286.69 0855.33
2009/04/23 07:55:57.7      98     -5     29     99    104  93.0  16.3  33992  286.73 0855.33
2009/04/23 07:55:57.8      88      6     28     89     94  85.6  17.9  33996  286.81 0855.33
2009/04/23 07:55:57.9      82     14     28     84     89  80.3  18.9  33992  286.73 0855.33
2009/04/23 07:55:58.0      92      7     41     93    101  85.6  25.1  33996  286.79 0855.33
2009/04/23 07:55:58.1      96     -7     38     97    104  94.3  22.0  33996  286.81 0855.33
2009/04/23 07:55:58.2      99    -19     48    101    111 101.0  27.2  33994  286.76 0855.33
2009/04/23 07:55:58.3      87    -19     17     90     92 102.4  11.1  33990  286.69 0855.33
2009/04/23 07:55:58.4      98    -17     32    100    106 100.1  17.9  33990  286.69 0855.33
2009/04/23 07:55:58.5     113    -16     42    115    122  98.4  20.9  33992  286.74 0855.33
2009/04/23 07:55:58.6     119    -16     55    121    132  97.9  26.2  33992  286.73 0855.33
2009/04/23 07:55:58.7     112     -4     55    113    125  92.1  27.8  33990  286.69 0855.33
2009/04/23 07:55:58.8     105    -23     61    108    124 102.4  31.9  33988  286.67 0855.33
2009/04/23 07:55:58.9     122    -40     65    129    144 108.2  29.2  33988  286.67 0855.33
2009/04/23 07:55:59.0     130    -48     69    139    155 110.4  28.2  33990  286.71 0855.33
2009/04/23 07:55:59.1     110    -57     69    125    142 117.5  31.4  33992  286.74 0855.33
2009/04/23 07:55:59.2     106    -46     72    116    136 113.5  35.5  33988  286.67 0855.33
2009/04/23 07:55:59.3      80    -50     56     95    110 122.4  33.5  33990  286.69 0855.33
2009/04/23 07:55:59.4      83    -53     39     99    106 122.4  22.5  33988  286.67 0855.33
2009/04/23 07:55:59.5     112    -52     37    124    130 115.2  16.8  33990  286.69 0855.33
2009/04/23 07:55:59.6     137    -64     40    152    158 115.2  14.7  33990  286.69 0855.33
2009/04/23 07:55:59.7     147    -64     27    161    164 113.6   9.5  33992  286.73 0855.33
2009/04/23 07:55:59.8     137    -45     22    145    147 108.2   8.9  33988  286.67 0855.33
2009/04/23 07:55:59.9     144    -36     15    149    150 104.2   5.9  33990  286.69 0855.33
2009/04/23 07:56:00.0     159    -10     23    160    162  93.9   8.2  33994  286.76 0855.33
2009/04/23 07:56:00.1     142     32     57    146    156  77.2  22.5  33992  286.73 0855.33
2009/04/23 07:56:00.2     145     20     51    147    156  82.1  19.2  33992  286.74 0855.33
2009/04/23 07:56:00.3     110     28     49    114    124  75.4  24.6  33994  286.76 0855.33
2009/04/23 07:56:00.4     111     29     17    115    117  75.4   8.5  33992  286.73 0855.33
2009/04/23 07:56:00.5     111      5     39    112    118  87.0  20.0  33992  286.73 0855.33
2009/04/23 07:56:00.6      89    -12     21     90     93  97.9  13.7  33990  286.69 0855.33
2009/04/23 07:56:00.7      92    -16     18     94     96 100.1  11.1  33988  286.66 0855.33
2009/04/23 07:56:00.8      67    -22     53     71     88 108.4  40.7  33988  286.66 0855.33
2009/04/23 07:56:00.9      64    -27     73     70    101 113.5  51.6  33990  286.69 0855.33
2009/04/23 07:56:01.0      58    -34     66     68     94 120.7  50.5  33988  286.66 0855.33
2009/04/23 07:56:01.1      20    -17     61     27     66 131.3  75.0  33990  286.71 0855.33
2009/04/23 07:56:01.2      35    -34     46     49     67 134.1  48.0  33990  286.69 0855.33
2009/04/23 07:56:01.3       5    -66     46     67     81 175.5  38.0  33990  286.69 0855.33
2009/04/23 07:56:01.4      18    -95     58     97    113 169.3  34.0  33988  286.67 0855.33
2009/04/23 07:56:01.5      30    -80     64     86    107 159.1  40.1  33986  286.64 0855.33
2009/04/23 07:56:01.6       9    -86     54     87    102 173.8  35.0  33988  286.66 0855.33
2009/04/23 07:56:01.7       7    -96     61     97    114 175.6  35.5  33990  286.69 0855.33
2009/04/23 07:56:01.8      18    -92     46     94    104 168.4  27.8  33990  286.69 0855.33
2009/04/23 07:56:01.9      50    -50     53     72     89 134.9  40.1  33988  286.67 0855.33
2009/04/23 07:56:02.0      32    -25     48     41     63 127.8  55.4  33990  286.71 0855.33
2009/04/23 07:56:02.1      36    -12     44     38     58 108.4  54.3  33990  286.71 0855.33
2009/04/23 07:56:02.2      13     -8     47     16     49 122.4  81.0  33992  286.73 0855.33
2009/04/23 07:56:02.3      -1    -10     45     11     46 188.0  85.9  33992  286.73 0855.33
2009/04/23 07:56:02.4     -24    -27     43     37     56 221.4  54.3  33990  286.71 0855.33
2009/04/23 07:56:02.5      -2    -35     51     36     62 184.4  60.6  33990  286.69 0855.33
2009/04/23 07:56:02.6     -14    -32     53     35     63 203.6  63.6  33990  286.71 0855.33
2009/04/23 07:56:02.7       0    -21     39     22     44 180.9  67.7  33990  286.71 0855.33
2009/04/23 07:56:02.8     -12    -54     52     56     76 192.5  48.0  33988  286.66 0855.33
2009/04/23 07:56:02.9      23    -49     92     55    107 154.5  66.2  33988  286.66 0855.33
2009/04/23 07:56:03.0     -16    -82    104     84    133 191.6  56.4  33984  286.59 0855.33
2009/04/23 07:56:03.1     -17    -90    125     92    155 190.7  60.5  33986  286.62 0855.33
2009/04/23 07:56:03.2     -15   -109    127    111    168 188.0  54.3  33986  286.64 0855.33
2009/04/23 07:56:03.3     -27   -118    127    122    176 192.9  51.2  33986  286.64 0855.33
2009/04/23 07:56:03.4     -44   -123    112    131    172 200.0  44.8  33984  286.61 0855.33
2009/04/23 07:56:03.5     -53   -132    102    143    175 201.9  38.8  33978  286.51 0855.33
2009/04/23 07:56:03.6     -51   -151     97    160    187 198.7  34.2  33978  286.51 0855.33
2009/04/23 07:56:03.7     -43   -163     64    169    180 195.1  21.5  33978  286.49 0855.33
2009/04/23 07:56:03.8     -29   -146     58    149    159 191.5  22.0  33976  286.47 0855.33
2009/04/23 07:56:03.9     -54   -135     60    146    157 201.9  23.6  33978  286.49 0855.33
2009/04/23 07:56:04.0     -38   -115     69    122    140 198.3  31.4  33980  286.54 0855.33
2009/04/23 07:56:04.1     -15   -106     71    108    129 188.5  36.0  33984  286.61 0855.33
2009/04/23 07:56:04.2     -13   -130     50    131    140 185.8  21.5  33984  286.61 0855.33
2009/04/23 07:56:04.3     -14   -130     45    131    139 186.3  18.9  33984  286.61 0855.33
2009/04/23 07:56:04.4      -9   -127     20    128    130 184.5   9.0  33984  286.61 0855.33
2009/04/23 07:56:04.5       5   -122      1    123    124 177.3   0.8  33984  286.61 0855.33
2009/04/23 07:56:04.6      13   -124      2    125    126 173.8   1.2  33986  286.64 0855.33
2009/04/23 07:56:04.7      17   -122      9    124    125 172.0   4.4  33984  286.61 0855.33
2009/04/23 07:56:04.8      24   -122     29    125    129 168.9  13.2  33984  286.61 0855.33
2009/04/23 07:56:04.9      24    -97     16    101    103 165.7   9.0  33984  286.61 0855.33
2009/04/23 07:56:05.0      24   -108     14    111    112 167.1   7.5  33986  286.64 0855.33
2009/04/23 07:56:05.1      26   -110      8    114    115 166.6   4.4  33988  286.66 0855.33
2009/04/23 07:56:05.2      32   -111     22    116    119 163.5  11.1  33986  286.64 0855.33
2009/04/23 07:56:05.3      10   -131     28    132    136 175.6  12.2  33988  286.66 0855.33
2009/04/23 07:56:05.4       2   -131     24    132    135 179.1  10.6  33982  286.57 0855.33
2009/04/23 07:56:05.5     -19   -168      8    170    171 186.5   2.8  33978  286.51 0855.33
2009/04/23 07:56:05.6     -10   -161     30    162    165 183.6  10.8  33984  286.59 0855.33
2009/04/23 07:56:05.7       0   -149     53    150    159 180.0  20.2  33982  286.56 0855.33
2009/04/23 07:56:05.8     -20   -146     60    148    159 188.0  23.4  33980  286.54 0855.33
2009/04/23 07:56:05.9     -24   -141     57    144    154 189.8  22.5  33982  286.56 0855.33
2009/04/23 07:56:06.0     -11   -150     61    151    162 184.5  23.0  33982  286.57 0855.33
2009/04/23 07:56:06.1      -7   -152     81    153    173 182.7  30.3  33984  286.61 0855.33
2009/04/23 07:56:06.2     -21   -150     78    152    170 188.1  29.3  33984  286.59 0855.33
2009/04/23 07:56:06.3     -39   -147    102    153    183 195.1  36.5  33976  286.47 0855.33
2009/04/23 07:56:06.4     -53   -121     74    133    152 203.6  31.4  33974  286.44 0855.33
2009/04/23 07:56:06.5     -55   -129     63    141    154 203.2  26.2  33972  286.39 0855.33
2009/04/23 07:56:06.6     -28   -126     59    130    142 192.5  25.7  33974  286.44 0855.33
2009/04/23 07:56:06.7      -2   -121     64    122    137 181.4  29.8  33986  286.64 0855.33
2009/04/23 07:56:06.8      21   -127     55    129    140 170.3  24.6  33986  286.64 0855.33
2009/04/23 07:56:06.9      25   -127     67    130    146 168.9  29.3  33988  286.66 0855.33
2009/04/23 07:56:07.0      22   -118     62    121    135 169.3  29.2  33988  286.67 0855.33
2009/04/23 07:56:07.1      30   -134     70    138    154 167.1  29.2  33988  286.66 0855.33
2009/04/23 07:56:07.2      46   -139     73    147    164 161.7  28.5  33990  286.69 0855.33
2009/04/23 07:56:07.3      35   -178     64    182    194 168.7  19.4  33988  286.66 0855.33
2009/04/23 07:56:07.4      41   -176     66    181    192 166.6  20.4  33988  286.67 0855.33
2009/04/23 07:56:07.5      52   -194     77    202    216 164.9  22.0  33990  286.69 0855.33
2009/04/23 07:56:07.6      52   -188     97    196    218 164.6  28.2  33988  286.67 0855.33
2009/04/23 07:56:07.7      58   -169     70    179    192 160.8  22.5  33988  286.67 0855.33
2009/04/23 07:56:07.8      99   -152     40    182    187 146.8  12.4  33990  286.69 0855.33
2009/04/23 07:56:07.9      92   -160     75    185    199 150.1  23.4  33988  286.67 0855.33
2009/04/23 07:56:08.0      85   -165     82    186    203 152.6  25.1  33988  286.66 0855.33
2009/04/23 07:56:08.1      85   -166     74    187    201 152.8  22.8  33988  286.67 0855.33
2009/04/23 07:56:08.2      77   -147     93    167    191 152.4  31.4  33988  286.66 0855.33
2009/04/23 07:56:08.3      77   -140    126    160    203 151.1  42.2  33990  286.69 0855.33
2009/04/23 07:56:08.4      70   -133    108    151    185 152.4  39.1  33990  286.69 0855.33
2009/04/23 07:56:08.5     100   -120    104    157    188 140.3  36.5  33988  286.66 0855.33
2009/04/23 07:56:08.6      98    -98    111    139    177 135.0  42.7  33990  286.69 0855.33
2009/04/23 07:56:08.7      75    -91     61    119    133 140.4  29.3  33988  286.66 0855.34
2009/04/23 07:56:08.8      30   -115     48    119    128 165.3  23.0  33988  286.66 0855.34
2009/04/23 07:56:08.9      -8   -110     57    111    124 184.4  29.3  33988  286.66 0855.34
2009/04/23 07:56:09.0      16   -114     27    116    120 172.0  13.2  33988  286.67 0855.34
2009/04/23 07:56:09.1      -3   -125    -23    126    129 181.4 -10.3  33990  286.69 0855.34
2009/04/23 07:56:09.2     -27   -131    -24    134    137 192.0 -10.3  33988  286.67 0855.34
2009/04/23 07:56:09.3     -10   -130    -16    131    133 184.5  -7.3  33990  286.69 0855.34
2009/04/23 07:56:09.4     -10   -131     -1    132    133 184.4  -0.7  33990  286.71 0855.34
2009/04/23 07:56:09.5       3   -119    -33    120    125 178.2 -15.5  33988  286.67 0855.34
2009/04/23 07:56:09.6       0   -125      7    126    127 180.0   3.3  33988  286.67 0855.34
2009/04/23 07:56:09.7      -2   -114     22    115    118 181.4  11.0  33988  286.67 0855.34
2009/04/23 07:56:09.8       8   -106     37    107    114 175.5  19.2  33988  286.67 0855.34
2009/04/23 07:56:09.9       3   -104     45    105    114 178.2  24.1  33988  286.66 0855.34
2009/04/23 07:56:10.0       8   -102     41    103    110 175.5  23.0  33986  286.64 0855.34
2009/04/23 07:56:10.1      10   -104     38    105    111 174.2  20.0  33988  286.67 0855.34
2009/04/23 07:56:10.2      11   -112     33    113    118 174.2  16.3  33988  286.66 0855.34
2009/04/23 07:56:10.3      32   -110      5    115    116 163.5   2.9  33986  286.64 0855.34
2009/04/23 07:56:10.4      37   -106      5    113    114 160.4   2.9  33990  286.69 0855.34
2009/04/23 07:56:10.5      44   -110     22    119    122 158.2  10.6  33984  286.61 0855.34
2009/04/23 07:56:10.6      41   -123     26    130    133 161.3  11.6  33988  286.66 0855.34
2009/04/23 07:56:10.7      43   -140     28    147    150 162.6  11.0  33986  286.64 0855.34
2009/04/23 07:56:10.8      66   -113     19    131    133 149.7   8.5  33988  286.67 0855.34
2009/04/23 07:56:10.9      60   -137     14    150    151 156.4   5.4  33986  286.64 0855.34
2009/04/23 07:56:11.0      53   -184     42    192    197 163.7  12.4  33986  286.62 0855.34
2009/04/23 07:56:11.1      71   -219     28    231    233 162.0   7.1  33990  286.69 0855.34
2009/04/23 07:56:11.2      72   -220     58    232    240 161.7  14.2  33992  286.72 0855.34
2009/04/23 07:56:11.3      61   -211     51    220    226 163.7  13.2  33988  286.66 0855.34
2009/04/23 07:56:11.4     108   -197     22    225    227 151.1   5.7  33986  286.62 0855.34
2009/04/23 07:56:11.5      89   -186     18    207    208 154.5   5.2  33984  286.59 0855.34
2009/04/23 07:56:11.6      98   -203     44    226    231 154.1  11.1  33988  286.67 0855.34
2009/04/23 07:56:11.7     129   -250     44    282    286 152.6   9.0  33994  286.77 0855.34
2009/04/23 07:56:11.8     122   -279     26    305    307 156.4   4.9  33992  286.72 0855.34
2009/04/23 07:56:11.9     119   -252     56    279    285 154.6  11.4  33990  286.70 0855.34
2009/04/23 07:56:12.0      72   -265     70    275    284 164.8  14.3  33992  286.72 0855.34
2009/04/23 07:56:12.1      53   -262     80    268    280 168.5  16.6  33992  286.72 0855.34
2009/04/23 07:56:12.2      39   -217    106    221    245 169.8  27.3  33992  286.74 0855.34
2009/04/23 07:56:12.3      63   -232    102    241    261 164.8  24.1  33992  286.74 0855.34
2009/04/23 07:56:12.4      29   -214     79    216    229 172.2  20.9  33992  286.74 0855.34
2009/04/23 07:56:12.5      -8   -276     87    277    291 181.8  17.4  33990  286.70 0855.34
2009/04/23 07:56:12.6      58   -239     90    247    262 166.2  20.9  33988  286.65 0855.34
2009/04/23 07:56:12.7      15   -287     40    288    291 176.9   8.0  33990  286.70 0855.34
2009/04/23 07:56:12.8      76   -270     98    281    298 164.2  19.4  33988  286.65 0855.34
2009/04/23 07:56:12.9     -19   -297     84    298    310 183.8  15.9  33988  286.65 0855.34
2009/04/23 07:56:13.0     -46   -244     90    249    264 190.7  20.4  33982  286.57 0855.34
2009/04/23 07:56:13.1     -40   -209     97    213    234 190.9  26.4  33986  286.62 0855.34
2009/04/23 07:56:13.2     -32   -217    106    220    244 188.5  27.4  33990  286.70 0855.34
2009/04/23 07:56:13.3      -8   -278    123    279    304 181.8  25.2  33980  286.52 0855.34
2009/04/23 07:56:13.5     -61   -212    177    221    283 196.0  42.8  33984  286.60 0855.34
2009/04/23 07:56:13.6      -3   -184    127    185    224 181.1  37.6  33984  286.59 0855.34
2009/04/23 07:56:13.6      15   -207    150    208    256 175.8  39.5  33980  286.53 0855.34
2009/04/23 07:56:13.7      10   -184    103    185    211 176.9  31.6  33980  286.54 0855.34
2009/04/23 07:56:13.9      -8   -169     79    170    187 182.9  27.0  33984  286.61 0855.34
2009/04/23 07:56:13.9      37   -161     43    166    172 167.1  14.5  33984  286.59 0855.34
2009/04/23 07:56:14.1       6   -176     22    177    179 178.0   7.2  33984  286.61 0855.34
2009/04/23 07:56:14.2     109   -105     61    152    163 134.0  22.8  33982  286.57 0855.34
2009/04/23 07:56:14.3     102    -39     50    110    120 110.8  26.2  33986  286.64 0855.34
2009/04/23 07:56:14.4     117    -47     35    127    132 112.2  15.8  33986  286.64 0855.34
2009/04/23 07:56:14.5     114    -63     70    131    148 118.8  30.8  33984  286.59 0855.34
2009/04/23 07:56:14.6     106     -5     73    107    129  93.0  37.6  33986  286.64 0855.34
2009/04/23 07:56:14.7      86    -14     37     88     95  99.7  24.1  33986  286.64 0855.34
2009/04/23 07:56:14.8      54    -17    -22     57     61 108.2 -26.4  33984  286.61 0855.34
2009/04/23 07:56:14.9      34     -2    -30     35     46  94.4 -50.2  33986  286.64 0855.34
2009/04/23 07:56:15.0      48      0    -15     49     52  90.8 -17.6  33984  286.61 0855.34
2009/04/23 07:56:15.1      50      0    -24     51     56  90.0 -31.5  33986  286.64 0855.34
2009/04/23 07:56:15.2      32      0    -28     33     43  90.0 -50.2  33986  286.64 0855.34
2009/04/23 07:56:15.3      50     14    -24     52     57  74.1 -31.5  33986  286.64 0855.34
2009/04/23 07:56:15.4      47     11     19     49     52  76.7  22.0  33986  286.64 0855.34
2009/04/23 07:56:15.5      52     30     39     61     72  60.2  35.6  33986  286.64 0855.34
2009/04/23 07:56:15.6      49     46     -1     68     69  46.9  -1.2  33986  286.64 0855.34
2009/04/23 07:56:15.7      88      6    -11     89     90  85.6  -7.3  33986  286.64 0855.34
2009/04/23 07:56:15.8      77    -51      0     93     94 123.3  -0.3  33986  286.64 0855.34
2009/04/23 07:56:15.9      70    -56     10     90     91 128.6   6.9  33988  286.66 0855.34
2009/04/23 07:56:16.0      83    -22     34     86     92 105.1  22.5  33988  286.66 0855.34
2009/04/23 07:56:16.1      80    -15     40     82     91 100.6  27.8  33988  286.66 0855.34
2009/04/23 07:56:16.2      90    -21     41     93    101 103.7  25.1  33986  286.64 0855.34
2009/04/23 07:56:16.3      95      0     46     96    106  90.0  27.3  33986  286.64 0855.34
2009/04/23 07:56:16.4      72     -7     63     73     96  96.1  45.4  33986  286.64 0855.34
2009/04/23 07:56:16.5      93      0     39     94    101  90.0  23.1  33986  286.62 0855.34
2009/04/23 07:56:16.6      85     14     24     87     91  80.3  15.3  33986  286.64 0855.34
2009/04/23 07:56:16.7      89     13     32     91     97  81.2  19.4  33988  286.66 0855.34
2009/04/23 07:56:16.8      64     30     48     71     85  64.7  37.0  33988  286.66 0855.34
2009/04/23 07:56:16.9      23     15     40     28     48  57.6  61.5  33988  286.66 0855.34
2009/04/23 07:56:17.0      24    -35     64     43     77 145.7  64.6  33986  286.64 0855.34
2009/04/23 07:56:17.1      81    -44     84     93    125 118.9  46.9  33986  286.62 0855.34
2009/04/23 07:56:17.2      58    -77     71     97    120 143.0  39.7  33986  286.64 0855.34
2009/04/23 07:56:17.3      60    -95     77    113    136 147.5  37.4  33986  286.64 0855.34
2009/04/23 07:56:17.4      48   -182     64    189    200 165.1  18.9  33986  286.62 0855.34
2009/04/23 07:56:17.5      73   -183      2    198    199 158.2   0.8  33986  286.62 0855.34
2009/04/23 07:56:17.6      13   -178     17    179    180 175.5   5.7  33986  286.62 0855.34
2009/04/23 07:56:17.7       3   -139     38    140    146 178.6  15.3  33986  286.62 0855.34
2009/04/23 07:56:17.8       2   -130     21    131    133 179.0   9.5  33984  286.61 0855.34
2009/04/23 07:56:17.9     -10   -128    -25    129    132 184.5 -11.3  33986  286.62 0855.34
2009/04/23 07:56:18.0     -18   -132    -38    134    139 188.0 -20.7  33986  286.62 0855.34
2009/04/23 07:56:18.1     -27   -141    -51    144    153 191.1 -19.7  33984  286.59 0855.34
2009/04/23 07:56:18.2     -26    -89    -52     93    106 196.5 -35.8  33982  286.56 0855.34
2009/04/23 07:56:18.3     -11   -101    -60    102    118 186.2 -37.9  33982  286.57 0855.34
2009/04/23 07:56:18.4     -60    -60    -24     85     88 225.0 -20.7  33986  286.62 0855.34
2009/04/23 07:56:18.5     -66    -42    -20     79     82 237.6 -14.5  33986  286.62 0855.34
2009/04/23 07:56:18.6     -38     -4     -6     39     40 263.0  -9.3  33984  286.59 0855.34
2009/04/23 07:56:18.7     -40     21      5     46     47 298.0   6.9  33982  286.57 0855.34
2009/04/23 07:56:18.8     -37     24     -1     45     46 302.5  -1.3  33980  286.52 0855.33
2009/04/23 07:56:18.9     -35     28     -3     46     47 308.6  -4.1  33982  286.57 0855.33
2009/04/23 07:56:19.0     -31     35      1     47     48 318.6   1.8  33984  286.61 0855.33
2009/04/23 07:56:19.1       0     37     17     38     41   0.9  25.1  33984  286.59 0855.33
2009/04/23 07:56:19.2       8     50     27     51     57   9.8  30.3  33982  286.57 0855.33
2009/04/23 07:56:19.3       5     52     20     53     56   6.2  20.0  33984  286.59 0855.33
2009/04/23 07:56:19.4       3     48      9     49     50   4.4  11.0  33986  286.64 0855.33
2009/04/23 07:56:19.5       7     35     -1     36     37  11.6  -2.2  33984  286.61 0855.33
2009/04/23 07:56:19.6       8     26     -8     28     29  18.3 -23.8  33984  286.61 0855.33
2009/04/23 07:56:19.7       0      0    -33      0     33   0.0 -90.0  33984  286.59 0855.33
2009/04/23 07:56:19.8      13    -23    -20     27     33 149.3 -46.1  33984  286.59 0855.33
2009/04/23 07:56:19.9      37    -50    -41     63     75 143.9 -40.0  33984  286.61 0855.33
2009/04/23 07:56:20.0      38    -60    -50     72     87 147.5 -42.4  33984  286.59 0855.33
2009/04/23 07:56:20.1       5    -46    -36     47     59 172.9 -46.1  33982  286.56 0855.33
2009/04/23 07:56:20.2       1     -9      1     10     11 172.0   6.9  33980  286.54 0855.33
2009/04/23 07:56:20.3       0    -42     37     43     56 180.0  45.8  33982  286.57 0855.33
2009/04/23 07:56:20.4      -1    -76     36     77     85 181.0  26.6  33982  286.57 0855.33
2009/04/23 07:56:20.5     -41    -96     36    105    112 203.2  18.9  33982  286.57 0855.33
2009/04/23 07:56:20.6      26    -79     33     84     90 161.3  22.0  33984  286.59 0855.33
2009/04/23 07:56:20.7      35   -106     39    112    119 161.7  19.4  33982  286.56 0855.33
2009/04/23 07:56:20.8      35   -111     43    117    124 162.6  20.9  33982  286.57 0855.34
2009/04/23 07:56:20.9      12    -71     19     73     76 170.2  15.2  33984  286.59 0855.34
2009/04/23 07:56:21.0      75    -64     26     99    103 130.4  14.7  33982  286.57 0855.34
2009/04/23 07:56:21.1      72    -61     36     95    101 130.4  21.5  33980  286.52 0855.34
2009/04/23 07:56:21.2      40    -37     46     55     71 133.1  43.8  33982  286.56 0855.34
2009/04/23 07:56:21.3     122    -53     60    134    146 113.6  26.2  33982  286.56 0855.34
2009/04/23 07:56:21.4     138    -45     72    146    162 108.2  28.2  33984  286.59 0855.34
2009/04/23 07:56:21.5     143    -17     24    145    148  97.0   9.5  33982  286.57 0855.34
2009/04/23 07:56:21.6     153    -77      5    172    173 116.9   1.8  33978  286.51 0855.34
2009/04/23 07:56:21.7      96    -48     28    108    112 116.6  14.7  33982  286.56 0855.34
2009/04/23 07:56:21.8      75    -37     23     84     88 116.2  15.3  33984  286.61 0855.34
2009/04/23 07:56:21.9      69    -37     16     79     81 118.0  11.6  33982  286.56 0855.34
2009/04/23 07:56:22.0      70    -56      2     90     91 128.6   1.8  33984  286.59 0855.34
2009/04/23 07:56:22.1      73    -74      5    105    106 135.5   2.8  33982  286.56 0855.34
2009/04/23 07:56:22.2      77   -134     10    155    156 150.1   3.8  33982  286.56 0855.34
2009/04/23 07:56:22.3      74   -117     47    139    148 147.4  18.9  33980  286.54 0855.34
2009/04/23 07:56:22.4      66    -80     35    104    110 140.4  18.9  33978  286.51 0855.34
2009/04/23 07:56:22.5      85   -143    135    167    214 149.3  43.5  33980  286.52 0855.34
2009/04/23 07:56:22.6     126   -109     89    167    189 130.9  30.6  33982  286.56 0855.34
2009/04/23 07:56:22.7      87   -116     67    146    160 143.0  26.2  33980  286.52 0855.34
2009/04/23 07:56:22.8      77   -128     89    150    174 148.8  33.7  33982  286.56 0855.34
2009/04/23 07:56:22.9      34   -167    135    171    217 168.2  42.2  33980  286.52 0855.34
2009/04/23 07:56:23.0     -34   -127     49    132    140 195.1  21.0  33982  286.56 0855.34
2009/04/23 07:56:23.1     -24   -122     68    125    142 191.5  31.3  33980  286.54 0855.34
2009/04/23 07:56:23.2     -41   -124     41    131    138 198.7  17.3  33982  286.56 0855.34
2009/04/23 07:56:23.3     -37   -111     -2    118    119 198.7  -1.3  33980  286.52 0855.34
2009/04/23 07:56:23.4     -24    -95    -18     99    101 194.3 -10.3  33978  286.49 0855.34
2009/04/23 07:56:23.5     -14    -97    -20     99    102 188.5 -11.5  33980  286.54 0855.34
2009/04/23 07:56:23.6      19    -78     -3     81     82 165.7  -2.2  33982  286.56 0855.34
2009/04/23 07:56:23.7      40   -113     24    120    123 160.4  11.6  33982  286.57 0855.34
2009/04/23 07:56:23.8      42   -126      7    134    135 161.3   3.3  33982  286.56 0855.34
2009/04/23 07:56:23.9      49   -114      8    125    126 156.8   3.8  33982  286.56 0855.34
2009/04/23 07:56:24.0      36   -146     18    151    153 166.2   6.9  33982  286.56 0855.34
2009/04/23 07:56:24.1      32   -174     29    177    180 169.5   9.3  33980  286.54 0855.34
2009/04/23 07:56:24.2      60   -151     44    163    170 158.2  15.3  33982  286.56 0855.34
2009/04/23 07:56:24.3      48   -170     61    177    188 164.2  19.2  33982  286.56 0855.34
2009/04/23 07:56:24.4      86   -113     76    143    161 142.6  30.1  33980  286.54 0855.34
2009/04/23 07:56:24.5     104   -128     76    166    182 140.8  26.4  33980  286.52 0855.34
2009/04/23 07:56:24.6      99   -172     88    199    217 149.9  25.2  33978  286.51 0855.34
2009/04/23 07:56:24.7      69   -161     22    176    178 156.8   7.2  33982  286.56 0855.34
2009/04/23 07:56:24.8      83   -241     18    256    257 160.9   4.2  33980  286.52 0855.33
2009/04/23 07:56:24.9     132   -230     67    266    275 150.1  14.3  33982  286.57 0855.33
2009/04/23 07:56:25.0      95   -169     53    195    203 150.6  15.3  33982  286.57 0855.33
2009/04/23 07:56:25.1     154   -134     71    205    218 130.9  19.2  33982  286.57 0855.33
2009/04/23 07:56:25.2      89   -181     62    202    212 153.7  17.1  33980  286.54 0855.33
2009/04/23 07:56:25.3     119   -200     45    233    238 149.2  11.1  33980  286.53 0855.33
2009/04/23 07:56:25.4      94   -188     49    211    217 153.5  13.2  33982  286.57 0855.33
2009/04/23 07:56:25.5      43   -162     70    168    182 165.1  23.8  33978  286.51 0855.33
2009/04/23 07:56:25.6      44   -132    128    140    189 161.3  47.5  33984  286.61 0855.33
2009/04/23 07:56:25.7      80   -157    126    177    217 153.0  39.1  33982  286.57 0855.33
2009/04/23 07:56:25.8     100   -142    157    175    235 144.8  46.6  33982  286.57 0855.33
2009/04/23 07:56:25.9      23    -70    108     74    130 161.7  62.6  33986  286.62 0855.33
2009/04/23 07:56:26.0      40   -132     75    139    157 163.0  30.8  33984  286.59 0855.33
2009/04/23 07:56:26.1      26   -163     63    166    177 170.7  21.7  33982  286.56 0855.33
2009/04/23 07:56:26.2     -15   -200     71    201    214 184.5  19.4  33982  286.56 0855.33
2009/04/23 07:56:26.3      -8   -165     85    166    186 182.9  29.1  33982  286.56 0855.33
2009/04/23 07:56:26.4       9   -171    117    172    208 176.9  37.4  33980  286.52 0855.33
2009/04/23 07:56:26.5       6   -180    136    181    226 178.0  40.9  33978  286.49 0855.33
2009/04/23 07:56:26.6      13   -178    121    179    216 175.6  37.4  33978  286.51 0855.33
2009/04/23 07:56:26.7      75   -157     99    175    201 154.4  31.9  33980  286.54 0855.33
2009/04/23 07:56:26.8      91   -173    105    196    222 152.1  30.8  33982  286.56 0855.33
2009/04/23 07:56:26.9      65   -170     49    183    190 159.1  15.2  33982  286.56 0855.33
2009/04/23 07:56:27.0      21   -151     29    153    156 171.9  11.0  33984  286.59 0855.33
2009/04/23 07:56:27.1      23   -164    -19    166    168 171.8  -6.7  33982  286.57 0855.33
2009/04/23 07:56:27.2      27   -166     14    169    170 170.7   4.9  33984  286.59 0855.33
2009/04/23 07:56:27.3       3   -157     14    158    159 178.6   5.2  33982  286.56 0855.33
2009/04/23 07:56:27.4      -6   -128    -11    129    130 182.7  -5.2  33982  286.57 0855.33
2009/04/23 07:56:27.5       5    -76      2     77     78 175.6   1.8  33982  286.56 0855.33
2009/04/23 07:56:27.6       8    -45     29     46     54 169.3  35.5  33982  286.57 0855.33
2009/04/23 07:56:27.7     -15    -47     68     50     84 198.3  60.0  33982  286.56 0855.33
2009/04/23 07:56:27.8     -23    -45     44     51     67 207.2  45.8  33980  286.54 0855.33
2009/04/23 07:56:27.9     -16    -21     36     27     45 217.8  59.4  33982  286.57 0855.33
2009/04/23 07:56:28.0     -35    -72     57     81     99 206.3  39.1  33980  286.54 0855.33
2009/04/23 07:56:28.1     -50    -79     44     94    103 212.6  27.1  33982  286.57 0855.33
2009/04/23 07:56:28.2     -44    -73     38     86     94 211.2  25.1  33980  286.54 0855.33
2009/04/23 07:56:28.3     -76   -119     55    142    152 212.5  22.0  33980  286.54 0855.33
2009/04/23 07:56:28.4     -94   -151     11    178    179 211.9   3.6  33980  286.52 0855.33
2009/04/23 07:56:28.5     -83   -131     21    156    158 212.5   8.0  33982  286.56 0855.33
2009/04/23 07:56:28.6     -63   -170      0    182    183 200.3  -0.3  33980  286.52 0855.33
2009/04/23 07:56:28.7    -112   -317     51    337    341 199.5   8.7  33978  286.49 0855.33
2009/04/23 07:56:28.8    -168   -302     30    346    348 209.2   5.1  33978  286.48 0855.33
2009/04/23 07:56:28.9    -178   -257     34    313    315 214.7   6.4  33980  286.52 0855.33
2009/04/23 07:56:29.0    -149   -158     -4    218    219 223.2  -1.3  33978  286.51 0855.33
2009/04/23 07:56:29.1    -105    -79    -12    132    133 233.1  -5.6  33976  286.47 0855.33
2009/04/23 07:56:29.2    -113    -62    -39    129    135 241.2 -17.0  33978  286.49 0855.33
2009/04/23 07:56:29.3     -94    -94    -13    134    135 225.1  -5.6  33976  286.47 0855.33
2009/04/23 07:56:29.4     -43    -67     11     80     81 212.6   8.5  33978  286.51 0855.33
2009/04/23 07:56:29.5       7    -45     35     46     57 171.1  41.7  33978  286.51 0855.33
2009/04/23 07:56:29.6       4    -14     37     15     39 161.5  76.1  33976  286.47 0855.33
2009/04/23 07:56:29.7       8      8     48     12     49  43.2  85.9  33980  286.54 0855.33
2009/04/23 07:56:29.8       0     15     60     16     62 357.3  84.9  33984  286.59 0855.33
2009/04/23 07:56:29.9      -2     31     49     32     58 355.5  64.6  33980  286.54 0855.33
2009/04/23 07:56:30.0      -6     18     46     20     50 340.0  74.0  33980  286.54 0855.33
2009/04/23 07:56:30.1     -29    -49     64     58     86 210.7  52.7  33980  286.52 0855.33
2009/04/23 07:56:30.2     -26    -63     24     69     74 202.7  19.4  33980  286.54 0855.33
2009/04/23 07:56:30.3     -12    -66     -1     68     69 190.7  -1.3  33980  286.52 0855.33
2009/04/23 07:56:30.4       4    -53    -22     54     58 175.6 -26.4  33978  286.51 0855.33
2009/04/23 07:56:30.5      56    -19    -25     60     65 108.6 -27.4  33980  286.52 0855.33
2009/04/23 07:56:30.6      57     37    -12     69     71  56.7 -10.3  33978  286.51 0855.33
2009/04/23 07:56:30.7      93     21     -4     96     97  77.2  -2.6  33980  286.52 0855.33
2009/04/23 07:56:30.8     117     11     22    118    121  84.3  10.6  33980  286.52 0855.33
2009/04/23 07:56:30.9     120    -10      6    121    122  95.2   2.9  33980  286.54 0855.33
2009/04/23 07:56:31.0     103    -65      0    123    124 122.4   0.2  33978  286.49 0855.33
2009/04/23 07:56:31.1      61    -84     73    104    127 143.9  38.0  33980  286.54 0855.33
2009/04/23 07:56:31.2      46   -119     70    128    145 158.6  31.4  33980  286.54 0855.33
2009/04/23 07:56:31.3      56   -109     54    123    134 152.8  25.1  33980  286.52 0855.33
2009/04/23 07:56:31.4      26   -129     65    132    147 168.4  27.3  33980  286.52 0855.33
2009/04/23 07:56:31.5      42   -129     41    136    143 161.7  16.8  33982  286.57 0855.33
2009/04/23 07:56:31.6      75   -118     32    141    145 147.4  13.1  33980  286.54 0855.33
2009/04/23 07:56:31.7     105    -97     -8    144    145 132.7  -3.2  33982  286.56 0855.33
2009/04/23 07:56:31.8     125   -152     15    197    198 140.6   4.6  33984  286.59 0855.32
2009/04/23 07:56:31.9     149   -182     44    236    241 140.6  10.6  33982  286.55 0855.32
2009/04/23 07:56:32.0     135   -204     90    245    261 146.4  20.9  33984  286.58 0855.32
2009/04/23 07:56:32.1     183   -200     33    272    275 137.5   7.1  33980  286.53 0855.32
2009/04/23 07:56:32.2     122   -171      3    211    212 144.4   0.8  33980  286.54 0855.32
2009/04/23 07:56:32.3     112   -145     30    184    187 142.2   9.3  33982  286.57 0855.32
2009/04/23 07:56:32.4     126   -148     17    195    196 139.5   5.2  33984  286.61 0855.32
2009/04/23 07:56:32.5     106   -136     -6    173    174 141.9  -2.2  33984  286.59 0855.32
2009/04/23 07:56:32.6     127   -127     21    181    183 135.0   6.9  33982  286.57 0855.32
2009/04/23 07:56:32.7     136   -117     29    180    183 130.7   9.3  33984  286.61 0855.32
2009/04/23 07:56:32.8      98    -98    -29    140    144 135.0 -11.9  33988  286.67 0855.32
2009/04/23 07:56:32.9      64   -135     -4    150    151 154.6  -1.8  33986  286.64 0855.32
2009/04/23 07:56:33.0      99   -107     31    146    150 137.2  12.2  33986  286.62 0855.32
2009/04/23 07:56:33.1     110   -108     45    155    162 134.4  16.3  33988  286.66 0855.32
2009/04/23 07:56:33.2     154    -75     81    172    190 116.0  27.1  33986  286.62 0855.32
2009/04/23 07:56:33.3     147    -60     83    159    179 112.2  29.8  33988  286.66 0855.32
2009/04/23 07:56:33.4     126   -112     73    169    184 131.6  24.9  33986  286.64 0855.32
2009/04/23 07:56:33.5     126   -104     74    164    179 129.5  26.2  33984  286.61 0855.32
2009/04/23 07:56:33.6     128    -99     72    162    177 127.8  25.7  33986  286.64 0855.32
2009/04/23 07:56:33.7      30   -149     89    153    177 168.4  32.9  33982  286.57 0855.32
2009/04/23 07:56:33.8       2   -115     72    116    136 178.6  35.5  33988  286.66 0855.33
2009/04/23 07:56:33.9      12   -110     59    111    125 173.3  30.3  33986  286.64 0855.33
2009/04/23 07:56:34.0      61    -84     79    105    131 143.9  41.2  33984  286.61 0855.33
2009/04/23 07:56:34.1      40    -94     46    103    112 156.8  25.7  33986  286.64 0855.33
2009/04/23 07:56:34.2      36   -108     44    115    123 161.3  21.5  33986  286.62 0855.33
2009/04/23 07:56:34.3      45    -91     22    102    105 153.7  12.6  33986  286.62 0855.33
2009/04/23 07:56:34.4      30    -55     22     63     67 151.1  19.2  33986  286.62 0855.33
2009/04/23 07:56:34.5      24    -50     19     56     60 154.6  19.4  33984  286.61 0855.33
2009/04/23 07:56:34.6      92    -48     77    104    129 117.5  40.1  33986  286.62 0855.33
2009/04/23 07:56:34.7      50   -127    123    137    184 158.2  46.9  33988  286.66 0855.33
2009/04/23 07:56:34.8      75    -68     86    102    133 132.2  44.3  33980  286.52 0855.33
2009/04/23 07:56:34.9      40    -54    110     68    129 143.9  64.7  33988  286.67 0855.33
2009/04/23 07:56:35.0      12    -54    107     56    120 167.5  70.8  33988  286.66 0855.33
2009/04/23 07:56:35.1      47    -22     91     53    105 115.3  66.8  33988  286.66 0855.33
2009/04/23 07:56:35.2      44    -90    143    101    175 153.7  61.5  33986  286.64 0855.33
2009/04/23 07:56:35.3     115    -89     78    146    165 127.8  30.6  33984  286.61 0855.33
2009/04/23 07:56:35.4     119   -115     38    166    171 134.2  12.9  33984  286.61 0855.33
2009/04/23 07:56:35.5      71    -87     25    113    116 140.8  12.6  33986  286.64 0855.33
2009/04/23 07:56:35.6     108    -89    -16    141    142 129.5  -6.7  33984  286.59 0855.33
2009/04/23 07:56:35.7     149    -71     75    166    182 115.4  25.9  33986  286.62 0855.33
2009/04/23 07:56:35.8     108    -81     66    135    150 126.9  27.3  33984  286.61 0855.32
2009/04/23 07:56:35.9      83    -93     19    125    127 138.1   9.0  33986  286.62 0855.32
2009/04/23 07:56:36.0     113   -106      4    156    157 133.1   1.8  33982  286.57 0855.32
2009/04/23 07:56:36.1     133    -96      7    165    166 126.0   2.5  33986  286.62 0855.32
2009/04/23 07:56:36.2      87   -111      6    142    143 141.7   2.8  33986  286.64 0855.32
2009/04/23 07:56:36.3     113   -124      2    169    170 137.7   1.0  33986  286.64 0855.32
2009/04/23 07:56:36.4     155    -75      8    173    174 115.8   2.9  33986  286.64 0855.32
2009/04/23 07:56:36.5     124    -78     -5    147    148 122.4  -2.2  33986  286.64 0855.32
2009/04/23 07:56:36.6     112    -86     12    142    143 127.7   5.0  33984  286.61 0855.32
2009/04/23 07:56:36.7     118   -104     63    158    170 131.3  22.5  33984  286.59 0855.32
2009/04/23 07:56:36.8     113   -111     64    159    171 134.4  23.0  33986  286.62 0855.32
2009/04/23 07:56:36.9      92   -167    141    191    237 151.0  40.1  33982  286.56 0855.32
2009/04/23 07:56:37.0     147   -184    189    236    302 141.3  42.7  33986  286.62 0855.32
2009/04/23 07:56:37.1     139   -218    194    259    323 147.5  40.7  33984  286.58 0855.32
2009/04/23 07:56:37.2     142   -223    101    265    283 147.5  21.7  33986  286.62 0855.32
2009/04/23 07:56:37.3     158   -198     64    254    262 141.3  14.2  33984  286.60 0855.32
2009/04/23 07:56:37.4      99   -179    -11    205    206 151.0  -3.2  33986  286.62 0855.32
2009/04/23 07:56:37.5      91   -192    -71    213    225 154.5 -18.6  33982  286.56 0855.32
2009/04/23 07:56:37.6      85   -158    -61    180    190 151.7 -23.3  33982  286.57 0855.32
2009/04/23 07:56:37.7      67   -105    -44    125    133 147.5 -19.6  33984  286.59 0855.32
2009/04/23 07:56:37.8     113   -113     -5    160    161 135.0  -2.1  33980  286.52 0855.32
2009/04/23 07:56:37.9     121    -99     -4    157    158 129.1  -1.6  33982  286.57 0855.32
2009/04/23 07:56:38.0     104    -80     -8    132    133 127.7  -3.7  33982  286.57 0855.32
2009/04/23 07:56:38.1     104   -109     22    151    153 136.3   8.5  33984  286.61 0855.32
2009/04/23 07:56:38.2     126   -140    -14    189    190 138.1  -4.4  33986  286.64 0855.32
2009/04/23 07:56:38.3     105   -152     21    185    187 145.3   6.7  33986  286.62 0855.32
2009/04/23 07:56:38.4      88   -212     27    230    232 157.3   6.9  33982  286.57 0855.32
2009/04/23 07:56:38.5     136   -213     48    253    258 147.4  10.8  33984  286.60 0855.32
2009/04/23 07:56:38.7     131   -207     20    246    247 147.7   4.9  33986  286.62 0855.32
2009/04/23 07:56:38.7     115   -177      4    212    213 147.0   1.2  33984  286.61 0855.32
2009/04/23 07:56:38.8     104   -166     -7    197    198 147.9  -2.2  33986  286.62 0855.32
2009/04/23 07:56:38.9      98   -183     19    208    209 151.7   5.4  33984  286.59 0855.32
2009/04/23 07:56:39.0     116   -227     26    255    257 152.9   6.0  33984  286.58 0855.32
2009/04/23 07:56:39.1      93   -227     39    246    250 157.7   9.0  33984  286.60 0855.32
2009/04/23 07:56:39.2     113   -231     40    258    262 153.9   9.0  33986  286.62 0855.32
2009/04/23 07:56:39.3     111   -243     68    268    277 155.5  14.3  33984  286.60 0855.32
2009/04/23 07:56:39.4      85   -258     73    272    282 161.7  15.2  33984  286.58 0855.32
2009/04/23 07:56:39.5      92   -238     55    256    262 158.8  12.2  33984  286.58 0855.32
2009/04/23 07:56:39.6     111   -235     36    261    264 154.7   8.0  33984  286.60 0855.32
2009/04/23 07:56:39.8     107   -225     17    250    251 154.5   3.9  33986  286.62 0855.32
2009/04/23 07:56:39.9     150   -211     36    260    263 144.6   8.0  33984  286.60 0855.33
2009/04/23 07:56:40.0     102   -226     35    249    252 155.7   8.0  33984  286.58 0855.33
2009/04/23 07:56:40.1      91   -232     12    250    251 158.4   2.9  33982  286.57 0855.33
2009/04/23 07:56:40.2     100   -239      0    260    261 157.2   0.0  33984  286.60 0855.33
2009/04/23 07:56:40.3      95   -226    -31    246    249 157.3  -7.3  33984  286.60 0855.33
2009/04/23 07:56:40.4      69   -257    -52    267    273 164.8 -11.1  33982  286.55 0855.33
2009/04/23 07:56:40.5     127   -235     -2    268    269 151.5  -0.5  33986  286.63 0855.33
2009/04/23 07:56:40.6     102   -213    -56    237    244 154.5 -13.3  33982  286.57 0855.33
2009/04/23 07:56:40.7      74   -157    -77    174    190 154.7 -30.1  33982  286.57 0855.33
2009/04/23 07:56:40.8      64   -161    -56    174    182 158.2 -23.3  33978  286.51 0855.33
2009/04/23 07:56:40.9      39   -113    -45    120    128 160.8 -25.4  33980  286.54 0855.33
2009/04/23 07:56:41.0      31   -103    -81    108    135 163.1 -45.1  33982  286.57 0855.33
2009/04/23 07:56:41.1      38   -115    -24    122    125 161.7 -11.5  33982  286.57 0855.33
2009/04/23 07:56:41.2      37    -79    -20     88     91 154.6 -12.9  33982  286.56 0855.33
2009/04/23 07:56:41.3       5    -16    -75     17     76 161.7 -90.0  33982  286.56 0855.33
2009/04/23 07:56:41.4      39    -31    -69     50     85 128.6 -65.5  33980  286.52 0855.33
2009/04/23 07:56:41.5      68    -64    -26     94     97 133.6 -20.7  33980  286.54 0855.33
2009/04/23 07:56:41.6      63    -58     -9     86     87 132.7  -6.2  33980  286.54 0855.33
2009/04/23 07:56:41.7      70    -78    -80    106    132 138.1 -46.0  33982  286.56 0855.33
2009/04/23 07:56:41.8      85   -103    -80    134    156 140.4 -38.4  33982  286.56 0855.33
2009/04/23 07:56:41.9      83   -119    -44    146    153 145.3 -16.8  33982  286.56 0855.33
2009/04/23 07:56:42.0      78   -142    -51    163    172 151.3 -17.6  33982  286.56 0855.33
2009/04/23 07:56:42.1      83   -130    -37    155    160 147.4 -13.7  33984  286.59 0855.33
2009/04/23 07:56:42.2      92   -148    -24    175    177 148.1  -8.0  33982  286.56 0855.33
2009/04/23 07:56:42.3     105   -147    -40    182    187 144.4 -12.4  33980  286.52 0855.33
2009/04/23 07:56:42.4      65   -117    -37    134    140 151.0 -15.4  33980  286.54 0855.33
2009/04/23 07:56:42.5      49   -124    -23    134    137 158.2  -9.8  33982  286.56 0855.33
2009/04/23 07:56:42.6      54   -110      1    123    124 153.7   0.8  33984  286.59 0855.33
2009/04/23 07:56:42.7      41   -173    -21    178    180 166.6  -6.9  33982  286.57 0855.33
2009/04/23 07:56:42.8      49   -174    -12    181    182 164.2  -3.9  33982  286.56 0855.33
2009/04/23 07:56:42.9      46   -158      5    165    166 163.7   1.8  33984  286.59 0855.33
2009/04/23 07:56:43.0      43   -121    -22    129    131 160.4  -9.8  33982  286.56 0855.33
2009/04/23 07:56:43.1      23   -112    -20    115    117 168.4 -10.3  33980  286.54 0855.33
2009/04/23 07:56:43.2      -9   -126    -16    127    129 184.5  -7.2  33980  286.52 0855.33
2009/04/23 07:56:43.3     -37    -82    -14     91     93 204.5  -8.8  33980  286.52 0855.33
2009/04/23 07:56:43.4     -75    -80    -30    110    115 223.2 -15.4  33980  286.54 0855.33
2009/04/23 07:56:43.5     -41    -78    -26     89     92 208.1 -21.2  33982  286.56 0855.33
2009/04/23 07:56:43.6     -24    -50    -38     56     67 205.4 -42.0  33980  286.54 0855.33
2009/04/23 07:56:43.7     -25    -25    -24     36     43 225.0 -42.0  33980  286.54 0855.33
2009/04/23 07:56:43.8     -14    -29    -14     33     35 205.4 -27.4  33982  286.56 0855.33
2009/04/23 07:56:43.9      -7    -23     -8     25     26 198.5 -23.8  33982  286.56 0855.33
2009/04/23 07:56:44.0      -1      2     11      3     11 327.5  84.9  33980  286.54 0855.33
2009/04/23 07:56:44.1      12    -12     13     18     22 135.0  39.7  33982  286.56 0855.33
2009/04/23 07:56:44.2       8    -13      8     16     17 147.5  27.2  33978  286.51 0855.33
2009/04/23 07:56:44.3       5    -10      6     12     13 151.0  27.2  33980  286.54 0855.33
2009/04/23 07:56:44.4       0     -9     -1     10     11 184.5  -7.3  33980  286.54 0855.33
2009/04/23 07:56:44.5       4    -14     -8     15     17 161.5 -35.8  33982  286.56 0855.33
2009/04/23 07:56:44.6      12    -16    -14     21     25 143.9 -40.0  33980  286.54 0855.33
2009/04/23 07:56:44.7      -2    -32    -16     33     36 184.4 -31.6  33982  286.56 0855.33
2009/04/23 07:56:44.8     -12    -37    -14     39     41 198.3 -24.4  33980  286.52 0855.33
2009/04/23 07:56:44.9     -18    -61     -7     64     65 196.9  -6.2  33978  286.51 0855.33
2009/04/23 07:56:45.0       7    -84     -2     85     86 175.1  -1.8  33976  286.47 0855.33
2009/04/23 07:56:45.1      31    -83    -11     89     90 159.1  -7.3  33980  286.52 0855.33
2009/04/23 07:56:45.2      43    -62      2     76     77 144.8   1.8  33978  286.51 0855.33
2009/04/23 07:56:45.3       7    -39     29     40     49 169.3  39.7  33978  286.49 0855.33
2009/04/23 07:56:45.4      -7    -34     28     35     44 191.6  42.7  33980  286.52 0855.33
2009/04/23 07:56:45.5       0    -14     26     15     30 182.7  66.8  33978  286.51 0855.33
2009/04/23 07:56:45.6       0     -6     19      7     20 184.5  79.2  33976  286.47 0855.33
2009/04/23 07:56:45.7      15     -7      4     17     18 115.3  15.3  33978  286.51 0855.33
2009/04/23 07:56:45.8      27    -14     -1     31     32 118.9  -2.2  33978  286.51 0855.33
2009/04/23 07:56:45.9      51    -17     10     54     56 109.1  11.1  33980  286.54 0855.33
2009/04/23 07:56:46.0      53    -25     22     59     62 115.2  21.0  33978  286.51 0855.33
2009/04/23 07:56:46.1      59    -32     13     68     70 118.8  11.1  33980  286.52 0855.33
2009/04/23 07:56:46.2      59     -7     31     60     67  97.0  29.3  33978  286.51 0855.33
2009/04/23 07:56:46.3      66     -7     53     67     85  96.1  42.7  33978  286.51 0855.33
2009/04/23 07:56:46.4      40    -20     71     45     84 117.1  64.7  33982  286.56 0855.33
2009/04/23 07:56:46.5      44    -28     75     53     91 122.4  61.1  33984  286.59 0855.33
2009/04/23 07:56:46.6      68    -19     74     71    102 105.9  51.2  33986  286.62 0855.33
2009/04/23 07:56:46.7     114    -39     65    121    137 109.1  30.8  33984  286.59 0855.33
2009/04/23 07:56:46.8     132    -67     23    149    151 117.0   9.0  33982  286.56 0855.33
2009/04/23 07:56:46.9     110    -57     34    125    130 117.5  15.3  33978  286.51 0855.33
2009/04/23 07:56:47.0      73    -46     43     87     97 122.0  27.8  33982  286.57 0855.33
2009/04/23 07:56:47.1      15    -57     75     60     96 164.9  56.9  33986  286.62 0855.33
2009/04/23 07:56:47.2      19    -71     56     74     92 164.8  41.7  33982  286.57 0855.33
2009/04/23 07:56:47.3     120   -197     80    231    245 148.6  19.2  33984  286.58 0855.33
2009/04/23 07:56:47.4      87   -241     96    257    274 160.2  21.0  33988  286.67 0855.33
2009/04/23 07:56:47.5      91   -219     50    238    244 157.5  12.0  33986  286.63 0855.33
2009/04/23 07:56:47.6      94   -149     29    177    180 147.7   9.5  33990  286.69 0855.33
2009/04/23 07:56:47.7      60   -122     37    137    143 153.7  15.3  33990  286.69 0855.33
2009/04/23 07:56:47.8      45    -95     50    106    117 154.7  27.1  33990  286.69 0855.33
2009/04/23 07:56:47.9      43    -92     48    102    112 155.1  27.1  33990  286.69 0855.33
2009/04/23 07:56:48.0      48   -112     77    122    144 156.8  35.5  33990  286.71 0855.33
2009/04/23 07:56:48.1      56   -157     75    167    183 160.2  25.7  33992  286.73 0855.33
2009/04/23 07:56:48.2      69   -161     22    176    178 156.6   7.2  33992  286.73 0855.33
2009/04/23 07:56:48.3     100   -194     42    219    224 152.8  11.0  33994  286.76 0855.33
2009/04/23 07:56:48.4      95   -177     79    202    216 151.7  22.8  33990  286.71 0855.33
2009/04/23 07:56:48.5     104   -203     79    229    243 152.8  19.2  33994  286.77 0855.33
2009/04/23 07:56:48.6     120   -223     65    254    263 151.7  14.5  33994  286.77 0855.33
2009/04/23 07:56:48.7     126   -203     61    240    248 148.1  14.3  33992  286.74 0855.33
2009/04/23 07:56:48.8     117   -229     70    258    268 152.8  15.3  33992  286.72 0855.33
2009/04/23 07:56:48.9     100   -251     44    271    275 158.2   9.3  33996  286.79 0855.33
2009/04/23 07:56:49.0      67   -233     47    243    248 164.0  11.1  33994  286.75 0855.33
2009/04/23 07:56:49.1      86   -217      0    234    235 158.2   0.0  33994  286.77 0855.33
2009/04/23 07:56:49.2     108   -202     24    230    232 151.7   6.1  33992  286.74 0855.33
2009/04/23 07:56:49.3     112   -169     28    204    207 146.4   8.0  33992  286.74 0855.33
2009/04/23 07:56:49.4      97   -148     20    178    180 146.8   6.5  33992  286.74 0855.33
2009/04/23 07:56:49.5      95   -141     46    171    178 145.9  15.3  33994  286.76 0855.33
2009/04/23 07:56:49.6      88   -142     34    168    172 148.1  11.4  33994  286.78 0855.33
2009/04/23 07:56:49.7     106   -151     29    185    188 144.8   9.0  33992  286.74 0855.33
2009/04/23 07:56:49.8     102   -150     34    182    186 145.9  10.8  33994  286.78 0855.33
2009/04/23 07:56:49.9     112   -170     59    204    213 146.6  16.3  33994  286.78 0855.33
2009/04/23 07:56:50.0     104   -162     18    193    194 147.3   5.4  33992  286.74 0855.33
2009/04/23 07:56:50.1      93   -143      9    171    172 147.0   3.3  33994  286.76 0855.33
2009/04/23 07:56:50.2     105   -141     37    177    181 143.3  12.0  33994  286.78 0855.33
2009/04/23 07:56:50.3     100   -136     12    169    170 143.7   4.4  33992  286.74 0855.33
2009/04/23 07:56:50.4      61   -107     31    124    128 150.1  14.3  33994  286.76 0855.33
2009/04/23 07:56:50.5      40   -120     46    127    135 161.3  20.0  33992  286.74 0855.33
2009/04/23 07:56:50.6      16   -152     56    153    162 173.8  20.7  33992  286.73 0855.33
2009/04/23 07:56:50.7       0   -153     49    154    162 180.4  17.9  33994  286.76 0855.33
2009/04/23 07:56:50.8      38   -180     42    185    190 168.0  12.9  33994  286.76 0855.33
2009/04/23 07:56:50.9      80   -152     60    172    183 152.1  19.2  33994  286.76 0855.33
2009/04/23 07:56:51.0      49   -140     52    149    157 160.4  20.0  33994  286.78 0855.33
2009/04/23 07:56:51.1      19   -152      6    154    155 172.9   2.3  33996  286.79 0855.33
2009/04/23 07:56:51.2      52   -170     19    178    180 162.8   6.1  33996  286.79 0855.33
2009/04/23 07:56:51.3      42   -178     39    183    188 166.6  12.0  33992  286.73 0855.33
2009/04/23 07:56:51.4      24   -176     48    178    185 172.0  15.3  33992  286.73 0855.33
2009/04/23 07:56:51.5       5   -175     55    176    185 178.2  17.3  33994  286.78 0855.33
2009/04/23 07:56:51.6      -7   -181     56    182    191 182.5  17.3  33994  286.76 0855.33
2009/04/23 07:56:51.7      -3   -178     58    179    189 181.0  17.9  33994  286.76 0855.33
2009/04/23 07:56:51.8       8   -173     25    174    176 177.3   8.2  33994  286.76 0855.33
2009/04/23 07:56:51.9      21   -149     11    151    152 172.0   4.4  33992  286.74 0855.33
2009/04/23 07:56:52.0      26   -175     15    177    178 171.5   4.9  33994  286.76 0855.33
2009/04/23 07:56:52.1      48   -176     19    183    185 164.6   6.1  33992  286.74 0855.33
2009/04/23 07:56:52.2      50   -160     11    168    169 162.6   3.8  33994  286.78 0855.33
2009/04/23 07:56:52.3      72   -153     -5    170    171 154.6  -1.8  33992  286.74 0855.33
2009/04/23 07:56:52.4      67   -144     10    159    160 155.1   3.8  33992  286.74 0855.33
2009/04/23 07:56:52.5      38   -143     -3    149    150 164.9  -1.3  33992  286.74 0855.33
2009/04/23 07:56:52.6      -6   -175      0    176    177 182.2  -0.3  33990  286.69 0855.33
2009/04/23 07:56:52.7      -2   -183     10    184    185 180.7   3.3  33992  286.73 0855.33
2009/04/23 07:56:52.8      39   -147    -45    153    160 164.9 -16.6  33992  286.74 0855.33
2009/04/23 07:56:52.9     -31   -189    -24    192    194 189.3  -7.3  33992  286.73 0855.33
2009/04/23 07:56:53.0      19   -249      3    250    251 175.5   0.8  33994  286.77 0855.33
2009/04/23 07:56:53.1      -7   -214    -28    215    217 182.0  -7.5  33990  286.69 0855.33
2009/04/23 07:56:53.2      48   -198     55    204    212 166.2  15.3  33990  286.71 0855.33
2009/04/23 07:56:53.3     102   -145     78    178    194 144.8  25.3  33992  286.74 0855.33
2009/04/23 07:56:53.4      90   -171     12    194    195 152.1   3.6  33992  286.74 0855.33
2009/04/23 07:56:53.5      47   -182     17    188    189 165.5   5.2  33992  286.74 0855.33
2009/04/23 07:56:53.6      11   -200     83    201    217 176.6  23.6  33992  286.74 0855.33
2009/04/23 07:56:53.7      32   -219    100    222    243 171.5  26.2  33994  286.77 0855.33
2009/04/23 07:56:53.8      36   -236    116    239    265 171.1  27.3  33990  286.70 0855.33
2009/04/23 07:56:53.9      13   -210    134    211    249 176.4  35.5  33990  286.70 0855.33
2009/04/23 07:56:54.0      38   -267     90    270    285 171.9  18.4  33996  286.79 0855.33
2009/04/23 07:56:54.1      12   -256    120    257    283 177.3  27.1  33992  286.72 0855.33
2009/04/23 07:56:54.2      17   -245    156    246    291 176.0  35.5  33990  286.68 0855.33
2009/04/23 07:56:54.3      53   -222    131    229    263 166.6  32.4  33994  286.75 0855.33
2009/04/23 07:56:54.4      62   -204     86    214    230 163.1  23.0  33992  286.74 0855.33
2009/04/23 07:56:54.5      35   -279     76    282    293 172.8  15.2  33992  286.74 0855.33
2009/04/23 07:56:54.6      94   -271     96    288    304 160.8  18.4  33992  286.72 0855.33
2009/04/23 07:56:54.7     106   -224    115    249    274 154.6  26.6  33992  286.74 0855.33
2009/04/23 07:56:54.8      62   -242     90    250    266 165.5  19.9  33994  286.75 0855.33
2009/04/23 07:56:54.9       8   -268     28    269    271 178.2   6.1  33990  286.68 0855.33
2009/04/23 07:56:55.0      42   -261    -19    265    266 170.7  -4.1  33990  286.70 0855.33
2009/04/23 07:56:55.1      44   -281    -82    285    297 171.1 -16.0  33990  286.70 0855.33
2009/04/23 07:56:55.2     110   -301   -100    321    336 159.9 -22.3  33990  286.68 0855.33
2009/04/23 07:56:55.3      95   -285    -98    301    317 161.5 -18.2  33992  286.72 0855.33
2009/04/23 07:56:55.4      78   -289    -27    300    302 164.8  -5.2  33990  286.70 0855.33
2009/04/23 07:56:55.5     134   -256     11    289    290 152.4   2.3  33992  286.74 0855.33
2009/04/23 07:56:55.6     147   -197     26    247    249 143.3   6.1  33992  286.72 0855.33
2009/04/23 07:56:55.7     118   -194     11    228    229 148.6   2.9  33992  286.74 0855.33
2009/04/23 07:56:55.8      83   -241     26    255    257 160.9   5.9  33992  286.74 0855.33
2009/04/23 07:56:55.9     103   -211     18    235    236 153.9   4.4  33994  286.77 0855.33
2009/04/23 07:56:56.0      87   -192     -4    211    212 155.5  -1.1  33992  286.73 0855.33
2009/04/23 07:56:56.1      64   -166     -9    179    180 158.8  -3.2  33992  286.73 0855.33
2009/04/23 07:56:56.2      40   -157    -21    163    165 165.7  -7.5  33992  286.73 0855.33
2009/04/23 07:56:56.3      54   -135    -43    146    153 158.2 -16.6  33992  286.74 0855.33
2009/04/23 07:56:56.4      91   -107    -67    141    156 139.5 -31.6  33992  286.73 0855.33
2009/04/23 07:56:56.5      71   -152    -74    169    184 154.8 -29.5  33992  286.74 0855.33
2009/04/23 07:56:56.6      70   -165    -33    180    184 157.1 -10.5  33988  286.66 0855.33
2009/04/23 07:56:56.7      62   -150     14    163    164 157.3   5.2  33990  286.69 0855.33
2009/04/23 07:56:56.8      31   -168     19    171    173 169.5   6.5  33986  286.64 0855.33
2009/04/23 07:56:56.9      36   -207     -5    211    212 170.0  -1.6  33984  286.59 0855.34
2009/04/23 07:56:57.0      31   -212    -52    215    222 171.5 -13.7  33984  286.59 0855.34
2009/04/23 07:56:57.1      19   -197    -54    198    206 174.4 -15.4  33984  286.61 0855.34
2009/04/23 07:56:57.2      64   -202    -15    212    213 162.4  -4.1  33992  286.74 0855.34
2009/04/23 07:56:57.3      61   -195     60    205    214 162.4  16.3  33994  286.76 0855.34
2009/04/23 07:56:57.4     119   -215     48    246    251 151.0  11.1  33998  286.82 0855.34
2009/04/23 07:56:57.5     132   -232     30    267    269 150.4   6.5  33996  286.79 0855.34
2009/04/23 07:56:57.6     123   -172     24    212    214 144.4   6.7  33996  286.79 0855.34
2009/04/23 07:56:57.7     122   -142     -1    188    189 139.5  -0.5  33996  286.81 0855.34
2009/04/23 07:56:57.8      45   -138     40    146    152 161.7  15.3  33996  286.79 0855.34
2009/04/23 07:56:57.9      50   -131     45    141    149 159.1  17.9  33996  286.79 0855.34
2009/04/23 07:56:58.0      28   -143     60    146    157 168.9  23.6  33992  286.74 0855.34
2009/04/23 07:56:58.1     -28   -149      7    152    153 190.7   2.9  33988  286.67 0855.34
2009/04/23 07:56:58.2      11   -108      4    109    110 173.8   2.3  33996  286.79 0855.34
2009/04/23 07:56:58.3      67    -80      1    105    106 140.3   0.8  33992  286.74 0855.34
2009/04/23 07:56:58.4      65    -71    -27     97    101 137.7 -16.0  33992  286.74 0855.34
2009/04/23 07:56:58.5      39   -125     25    132    135 162.6  11.0  33990  286.71 0855.34
2009/04/23 07:56:58.6      39   -123     64    130    144 162.2  28.2  33992  286.73 0855.34
2009/04/23 07:56:58.7      26   -119     73    122    142 167.5  33.5  33996  286.81 0855.34
2009/04/23 07:56:58.8      41   -118     49    126    135 160.8  21.5  33992  286.74 0855.34
2009/04/23 07:56:58.9      32   -114     21    119    121 164.0  10.1  33990  286.71 0855.34
2009/04/23 07:56:59.0      49   -130      0    140    141 159.1   0.2  33986  286.62 0855.34
2009/04/23 07:56:59.1      39   -130     -1    136    137 163.0  -0.7  33986  286.62 0855.34
2009/04/23 07:56:59.2      44   -131     18    139    141 161.3   7.5  33984  286.61 0855.34
2009/04/23 07:56:59.3      40   -119     39    126    132 161.3  17.3  33986  286.62 0855.34
2009/04/23 07:56:59.4      27   -118     53    122    133 167.1  25.1  33992  286.73 0855.34
2009/04/23 07:56:59.5      50   -110     44    121    128 155.5  20.9  33988  286.67 0855.34
2009/04/23 07:56:59.6      70   -112     25    133    136 147.9  10.6  33992  286.73 0855.34
2009/04/23 07:56:59.7      39   -108     33    115    120 160.0  16.3  33992  286.74 0855.34
2009/04/23 07:56:59.8      51   -148     13    157    158 160.8   4.9  33994  286.78 0855.34
2009/04/23 07:56:59.9      43   -130     37    138    144 161.5  15.2  33994  286.76 0855.34
2009/04/23 07:57:00.0      43   -118     47    126    134 160.0  20.9  33994  286.76 0855.34
2009/04/23 07:57:00.1      49   -146     82    155    175 161.3  30.1  33996  286.79 0855.34
2009/04/23 07:57:00.2      56   -177     66    186    197 162.4  20.4  33996  286.81 0855.34
2009/04/23 07:57:00.3      65   -188     84    200    216 160.8  24.1  33994  286.78 0855.34
2009/04/23 07:57:00.4      29   -168     92    171    194 170.2  30.8  33992  286.74 0855.34
2009/04/23 07:57:00.5      98   -157     87    186    205 148.1  27.1  33996  286.79 0855.34
2009/04/23 07:57:00.6      98   -138     86    170    190 144.4  28.7  33992  286.74 0855.34
2009/04/23 07:57:00.7      63    -96     56    116    128 146.6  27.3  33992  286.74 0855.34
2009/04/23 07:57:00.8     117    -78     59    141    152 123.7  23.6  33994  286.76 0855.34
2009/04/23 07:57:00.9     100   -119    107    156    189 139.9  37.8  33996  286.79 0855.34
2009/04/23 07:57:01.0     101   -153     64    184    195 146.4  19.2  33994  286.78 0855.34
2009/04/23 07:57:01.1     117   -165     92    203    222 144.8  25.9  33994  286.76 0855.34
2009/04/23 07:57:01.2      87   -153    103    177    204 150.4  33.1  33992  286.74 0855.34
2009/04/23 07:57:01.3      62   -151    114    164    199 157.7  38.4  33992  286.73 0855.34
2009/04/23 07:57:01.4      57   -149     82    160    179 159.1  29.3  33992  286.74 0855.34
2009/04/23 07:57:01.5       8   -164     82    165    184 177.1  28.2  33986  286.64 0855.34
2009/04/23 07:57:01.6       0   -172    113    173    206 180.2  36.0  33992  286.74 0855.34
2009/04/23 07:57:01.7      42   -185     82    190    206 167.1  25.1  33992  286.74 0855.34
2009/04/23 07:57:01.8     -11   -192     82    193    209 183.4  24.6  33990  286.69 0855.34
2009/04/23 07:57:01.9      18   -166     76    168    184 173.5  26.2  33990  286.69 0855.34
2009/04/23 07:57:02.0      -1   -159     65    160    172 180.5  23.0  33990  286.69 0855.34
2009/04/23 07:57:02.1     -71   -192     72    205    218 200.3  19.4  33986  286.64 0855.34
2009/04/23 07:57:02.2     -49   -216     65    222    232 192.9  16.3  33986  286.64 0855.34
2009/04/23 07:57:02.3     -58   -216     69    224    235 195.2  17.3  33986  286.64 0855.34
2009/04/23 07:57:02.4     -62   -204     84    214    229 196.9  22.8  33988  286.66 0855.34
2009/04/23 07:57:02.5     -54   -199     40    207    212 195.2  11.1  33990  286.69 0855.34
2009/04/23 07:57:02.6     -56   -190     74    199    212 196.5  21.0  33988  286.67 0855.34
2009/04/23 07:57:02.7     -35   -149     89    154    177 193.3  32.7  33988  286.67 0855.34
2009/04/23 07:57:02.8     -52   -128     91    139    166 202.3  36.3  33986  286.64 0855.34
2009/04/23 07:57:02.9     -51   -128     48    138    147 201.9  19.4  33986  286.64 0855.33
2009/04/23 07:57:03.0     -35   -129     46    134    142 195.2  18.9  33992  286.73 0855.33
2009/04/23 07:57:03.1     -20   -134     48    136    145 188.5  19.4  33992  286.73 0855.33
2009/04/23 07:57:03.2     -26   -120     75    123    144 192.5  35.0  33992  286.74 0855.33
2009/04/23 07:57:03.3      -1    -99     71    100    122 180.9  39.1  33994  286.76 0855.33
2009/04/23 07:57:03.4       0   -101     52    102    114 179.5  29.3  33992  286.74 0855.33
2009/04/23 07:57:03.5      11   -136     54    137    147 175.1  23.0  33994  286.78 0855.33
2009/04/23 07:57:03.6      32   -135     50    139    147 166.6  20.4  33992  286.74 0855.33
2009/04/23 07:57:03.7      32   -119     50    124    133 164.8  23.0  33992  286.74 0855.33
2009/04/23 07:57:03.8      29   -126     51    130    139 166.7  22.5  33994  286.78 0855.33
2009/04/23 07:57:03.9       2   -133     36    134    139 179.0  15.3  33996  286.79 0855.33
2009/04/23 07:57:04.0      16   -147     52    148    157 173.7  19.4  33996  286.79 0855.33
2009/04/23 07:57:04.1      19   -141     39    143    149 172.0  15.3  33994  286.76 0855.33
2009/04/23 07:57:04.2      28   -138     49    141    150 168.5  19.2  33996  286.79 0855.33
2009/04/23 07:57:04.3      13   -187     73    188    201 176.0  22.3  33996  286.79 0855.33
2009/04/23 07:57:04.4      36   -166     69    170    183 167.7  23.0  33996  286.79 0855.33
2009/04/23 07:57:04.5      13   -169     97    170    195 175.5  32.4  33996  286.79 0855.33
2009/04/23 07:57:04.6      63   -138    108    152    186 155.5  39.3  33996  286.79 0855.33
2009/04/23 07:57:04.8      68   -140     83    156    176 154.1  30.3  33994  286.76 0855.33
2009/04/23 07:57:04.8      96    -99     72    139    156 135.9  29.3  33992  286.74 0855.33
2009/04/23 07:57:04.9     112    -61     67    128    144 118.9  29.8  33994  286.76 0855.34
2009/04/23 07:57:05.0     107    -68     64    127    142 122.4  28.7  33992  286.74 0855.34
2009/04/23 07:57:05.1      96    -84     50    128    137 131.3  23.0  33992  286.74 0855.34
2009/04/23 07:57:05.2     147    -92      7    174    175 122.2   2.5  33992  286.73 0855.34
2009/04/23 07:57:05.3      94   -116     41    150    156 140.8  15.3  33994  286.76 0855.34
2009/04/23 07:57:05.4      10   -136     37    137    142 175.6  15.2  33992  286.74 0855.34
2009/04/23 07:57:05.5      11   -183     63    184    195 176.4  18.9  33994  286.76 0855.34
2009/04/23 07:57:05.6      61   -199     39    209    213 162.8  10.6  33994  286.78 0855.34
2009/04/23 07:57:05.7      45   -223     27    228    230 168.5   6.9  33994  286.76 0855.34
2009/04/23 07:57:05.8      -3   -190     67    191    202 181.1  20.0  33996  286.79 0855.34
2009/04/23 07:57:05.9       1   -185     89    186    206 179.5  27.3  33994  286.78 0855.34
2009/04/23 07:57:06.0      20   -170     93    172    195 173.3  30.8  33994  286.78 0855.34
2009/04/23 07:57:06.2      16   -137     65    138    152 173.3  27.1  33996  286.79 0855.34
2009/04/23 07:57:06.2      19   -105     41    107    114 169.3  21.5  33994  286.76 0855.34
2009/04/23 07:57:06.3      -9    -66    -13     67     69 188.0 -11.3  33992  286.73 0855.34
2009/04/23 07:57:06.5     -16    -55    -12     58     60 196.0 -12.4  33994  286.76 0855.34
2009/04/23 07:57:06.6      15    -27    -10     32     34 151.0 -17.6  33996  286.79 0855.34
2009/04/23 07:57:06.7      31    -27    -19     42     46 130.4 -29.5  33994  286.76 0855.34
2009/04/23 07:57:06.8      28    -23    -40     37     54 129.6 -55.6  33992  286.73 0855.34
2009/04/23 07:57:06.9       9     15    -38     18     42  32.5 -77.3  33994  286.76 0855.34
2009/04/23 07:57:07.0     -10     19    -18     22     28 332.8 -50.2  33994  286.76 0855.34
2009/04/23 07:57:07.1      -6     17     -6     19     19 341.3 -23.8  33992  286.74 0855.34
2009/04/23 07:57:07.2     -13     -3      3     14     15 254.9  15.3  33994  286.76 0855.34
2009/04/23 07:57:07.3     -10     -6     -3     13     14 237.6 -15.5  33994  286.76 0855.34
2009/04/23 07:57:07.4      -8     -2    -15      9     17 251.8 -69.1  33994  286.78 0855.34
2009/04/23 07:57:07.5       5     -9    -27     11     29 147.5 -83.6  33994  286.76 0855.34
2009/04/23 07:57:07.6      27      0    -33     28     43  90.0 -58.7  33994  286.76 0855.34
2009/04/23 07:57:07.7      29     24    -28     38     47  50.5 -45.1  33992  286.74 0855.34
2009/04/23 07:57:07.8       3     33    -22     34     40   6.2 -40.9  33992  286.73 0855.34
2009/04/23 07:57:07.9      -4     55    -26     56     61 355.6 -31.5  33994  286.76 0855.34
2009/04/23 07:57:08.0      22     46    -31     52     60  25.5 -37.9  33992  286.73 0855.34
2009/04/23 07:57:08.1      31     48    -22     58     62  32.6 -26.4  33992  286.73 0855.34
2009/04/23 07:57:08.2       3     48    -22     49     53   4.5 -29.5  33992  286.73 0855.34
2009/04/23 07:57:08.3      -1     58    -26     59     64 358.2 -28.5  33992  286.73 0855.34
2009/04/23 07:57:08.4       5     74      7     75     76   4.5   5.9  33992  286.74 0855.34
2009/04/23 07:57:08.5      23     67     24     71     76  19.2  19.2  33990  286.69 0855.34
2009/04/23 07:57:08.6       9     70      7     71     72   8.0   5.9  33992  286.73 0855.34
2009/04/23 07:57:08.7      26     41     38     49     62  32.5  41.7  33990  286.71 0855.34
2009/04/23 07:57:08.8      50     25     50     57     75  62.9  45.8  33990  286.71 0855.34
2009/04/23 07:57:08.9      47     12     46     49     67  74.9  48.0  33990  286.69 0855.34
2009/04/23 07:57:09.0      71     14     39     73     82  78.6  30.3  33990  286.69 0855.34
2009/04/23 07:57:09.1      93     18     15     95     97  78.5   9.5  33986  286.62 0855.34
2009/04/23 07:57:09.2     109     14     16    110    112  82.5   8.5  33984  286.59 0855.34
2009/04/23 07:57:09.3      98     12     21     99    102  82.5  12.2  33984  286.61 0855.34
2009/04/23 07:57:09.4     138     -5     39    139    145  92.1  15.8  33986  286.62 0855.34
2009/04/23 07:57:09.5     143      2     29    144    148  89.2  11.6  33988  286.66 0855.34
2009/04/23 07:57:09.6     125      9     30    126    130  85.7  13.7  33986  286.62 0855.34
2009/04/23 07:57:09.7     103    -27     59    107    122 105.0  31.4  33990  286.69 0855.34
2009/04/23 07:57:09.8      80    -27     65     85    107 108.6  41.2  33990  286.69 0855.34
2009/04/23 07:57:09.9      71    -33     46     79     91 115.3  32.9  33990  286.69 0855.34
2009/04/23 07:57:10.0      79    -18     50     82     96 103.3  35.0  33990  286.69 0855.34
2009/04/23 07:57:10.1      58    -42     66     72     97 126.0  47.9  33990  286.71 0855.34
2009/04/23 07:57:10.2      38    -34     64     52     82 132.2  56.4  33992  286.74 0855.34
2009/04/23 07:57:10.3      83    -45     57     95    110 118.4  34.4  33994  286.76 0855.34
2009/04/23 07:57:10.4      86    -46     44     98    107 118.4  26.2  33994  286.78 0855.34
2009/04/23 07:57:10.5     119    -41     43    126    134 109.1  18.9  33994  286.78 0855.34
2009/04/23 07:57:10.6      85    -79     78    117    140 133.1  37.0  33996  286.81 0855.34
2009/04/23 07:57:10.7      36   -111     82    117    142 161.7  38.0  33992  286.74 0855.34
2009/04/23 07:57:10.8      81    -78     82    113    139 134.0  39.7  33996  286.79 0855.34
2009/04/23 07:57:10.9     130    -83     84    155    176 122.5  30.8  33994  286.78 0855.34
2009/04/23 07:57:11.0      62    -97     94    116    149 147.4  43.7  33994  286.76 0855.34
2009/04/23 07:57:11.1      39    -74     72     84    110 151.9  44.8  33994  286.76 0855.34
2009/04/23 07:57:11.2      43    -58     82     73    109 143.9  53.7  33992  286.74 0855.34
2009/04/23 07:57:11.3      18    -61     79     64    101 163.1  56.4  33994  286.78 0855.34
2009/04/23 07:57:11.4      -1    -81     71     82    108 181.4  45.4  33994  286.78 0855.34
2009/04/23 07:57:11.5      31    -71     91     78    119 156.4  54.8  33992  286.73 0855.34
2009/04/23 07:57:11.6      11    -97     83     98    128 173.3  44.3  33990  286.71 0855.34
2009/04/23 07:57:11.7      29    -66     89     73    115 156.4  56.4  33992  286.73 0855.34
2009/04/23 07:57:11.8      11   -109     88    110    140 173.8  43.3  33992  286.73 0855.34
2009/04/23 07:57:11.9       8   -109     82    110    137 175.6  40.7  33992  286.74 0855.34
2009/04/23 07:57:12.0      -2    -81     98     82    127 181.8  56.3  33994  286.76 0855.34
2009/04/23 07:57:12.1       1    -23     86     24     89 175.5  83.9  33996  286.81 0855.34
2009/04/23 07:57:12.2       0    -21     49     22     53 180.9  75.0  33994  286.78 0855.34
2009/04/23 07:57:12.3      -1    -53     86     54    101 181.8  64.7  33994  286.78 0855.34
2009/04/23 07:57:12.4      29    -46     45     55     71 147.5  43.7  33992  286.74 0855.34
2009/04/23 07:57:12.5      42    -50     35     66     74 139.5  30.3  33994  286.78 0855.34
2009/04/23 07:57:12.6      33    -33     20     48     52 135.0  24.1  33990  286.69 0855.34
2009/04/23 07:57:12.7      32    -34      4     48     49 136.8   4.9  33990  286.69 0855.34
2009/04/23 07:57:12.8      20    -43    -20     48     52 154.6 -28.5  33990  286.69 0855.34
2009/04/23 07:57:12.9      10    -48    -40     50     64 168.4 -48.1  33990  286.71 0855.34
2009/04/23 07:57:13.0      37    -55    -70     67     96 145.7 -55.1  33992  286.73 0855.34
2009/04/23 07:57:13.1      41    -41    -82     58    100 135.0 -65.5  33990  286.69 0855.34
2009/04/23 07:57:13.2      35    -66    -60     75     96 151.9 -47.7  33990  286.69 0855.34
2009/04/23 07:57:13.3      41    -87    -39     97    104 154.5 -27.4  33988  286.67 0855.34
2009/04/23 07:57:13.4      41    -70    -29     82     88 149.7 -19.7  33990  286.69 0855.34
2009/04/23 07:57:13.5      43    -68    -24     81     84 147.4 -21.7  33990  286.71 0855.34
2009/04/23 07:57:13.6      45    -63    -22     78     81 143.9 -20.7  33988  286.67 0855.34
2009/04/23 07:57:13.7      51    -47    -19     70     73 133.1 -15.5  33990  286.69 0855.34
2009/04/23 07:57:13.8      39    -40    -27     57     63 135.8 -31.6  33986  286.64 0855.34
2009/04/23 07:57:13.9      35    -34    -33     49     59 134.1 -42.0  33990  286.69 0855.34
2009/04/23 07:57:14.0      33    -50    -21     61     65 146.6 -19.7  33990  286.71 0855.35
2009/04/23 07:57:14.1      29    -42    -38     52     64 144.8 -44.1  33990  286.69 0855.35
2009/04/23 07:57:14.2      33    -50     -2     61     62 146.6  -2.2  33984  286.59 0855.35
2009/04/23 07:57:14.3      33    -71     25     79     84 154.7  17.9  33984  286.59 0855.35
2009/04/23 07:57:14.4      49    -84     26     98    102 149.7  15.3  33984  286.61 0855.35
2009/04/23 07:57:14.5      60    -62     22     87     90 136.3  14.7  33984  286.61 0855.35
2009/04/23 07:57:14.6      62    -51     12     81     82 129.6   8.5  33984  286.61 0855.35
2009/04/23 07:57:14.7      51    -42     23     67     72 129.5  19.2  33988  286.67 0855.35
2009/04/23 07:57:14.8      59    -38     28     71     76 122.4  22.0  33988  286.67 0855.35
2009/04/23 07:57:14.9      52    -33     21     62     66 122.4  18.9  33992  286.73 0855.35
2009/04/23 07:57:15.0      43    -14     15     46     49 108.4  18.9  33988  286.67 0855.35
2009/04/23 07:57:15.1      51    -10      9     53     54 101.5  10.1  33990  286.69 0855.35
2009/04/23 07:57:15.2      48     -3      5     49     50  94.4   5.9  33988  286.67 0855.35
2009/04/23 07:57:15.3      44    -14      1     47     48 108.4   1.8  33988  286.67 0855.35
2009/04/23 07:57:15.4      31      0     -9     32     33  90.0 -21.7  33990  286.71 0855.35
2009/04/23 07:57:15.5      30      0     -4     31     32  90.0  -7.2  33986  286.64 0855.35
2009/04/23 07:57:15.6      37    -13     -5     40     41 110.0  -7.3  33988  286.66 0855.35
2009/04/23 07:57:15.7      27    -16     -1     32     33 120.7  -2.2  33988  286.66 0855.35
2009/04/23 07:57:15.8      35    -19      4     40     41 118.9   6.9  33990  286.69 0855.35
2009/04/23 07:57:15.9      31    -12      1     34     35 111.7   2.9  33988  286.66 0855.35
2009/04/23 07:57:16.0      21    -29      1     37     38 143.9   2.8  33986  286.64 0855.34
2009/04/23 07:57:16.1      12    -30     -7     33     34 158.2 -13.4  33986  286.64 0855.34
2009/04/23 07:57:16.2      -1    -38     -8     39     40 182.6 -12.4  33986  286.64 0855.34
2009/04/23 07:57:16.3       0    -43    -15     44     47 180.9 -19.7  33988  286.66 0855.34
2009/04/23 07:57:16.4      -1    -37    -19     38     42 182.6 -32.6  33986  286.64 0855.34
2009/04/23 07:57:16.5      -2    -37    -17     38     41 184.5 -29.5  33988  286.66 0855.34
2009/04/23 07:57:16.6     -14    -30    -18     34     38 205.4 -33.7  33988  286.66 0855.34
2009/04/23 07:57:16.7     -19    -20    -13     28     30 223.4 -31.5  33986  286.62 0855.34
2009/04/23 07:57:16.8     -35    -14    -22     38     43 248.3 -36.8  33988  286.66 0855.34
2009/04/23 07:57:16.9     -41    -11    -16     43     45 254.9 -24.4  33988  286.67 0855.34
2009/04/23 07:57:17.0     -43    -13    -13     45     48 253.2 -16.6  33988  286.67 0855.34
2009/04/23 07:57:17.1     -37    -12    -30     40     50 251.4 -46.1  33988  286.67 0855.34
2009/04/23 07:57:17.2     -54      0    -26     55     60 270.0 -31.6  33988  286.67 0855.34
2009/04/23 07:57:17.3     -36      7    -29     37     47 281.4 -47.1  33986  286.64 0855.34
2009/04/23 07:57:17.4     -50      7    -34     51     61 278.8 -40.9  33984  286.61 0855.34
2009/04/23 07:57:17.5     -45    -10    -34     47     58 256.7 -44.1  33984  286.61 0855.34
2009/04/23 07:57:17.6     -59    -13    -51     61     79 257.6 -48.7  33986  286.62 0855.34
2009/04/23 07:57:17.7     -72    -14    -50     74     89 258.5 -41.4  33990  286.69 0855.34
2009/04/23 07:57:17.8     -32    -10    -73     34     80 251.4 -77.9  33988  286.67 0855.34
2009/04/23 07:57:17.9     -75    -20    -65     78    101 254.9 -48.2  33988  286.66 0855.34
2009/04/23 07:57:18.0     -77    -25    -54     82     98 251.6 -40.9  33988  286.66 0855.35
2009/04/23 07:57:18.1     -92    -28    -51     97    109 253.2 -34.7  33988  286.66 0855.35
2009/04/23 07:57:18.2     -99    -20    -54    101    114 258.5 -35.2  33988  286.67 0855.35
2009/04/23 07:57:18.3     -75    -17    -60     78     98 256.7 -46.6  33990  286.69 0855.35
2009/04/23 07:57:18.4     -67     -4    -52     68     85 266.5 -45.6  33988  286.67 0855.35
2009/04/23 07:57:18.5     -65      9    -33     66     73 277.9 -31.7  33990  286.69 0855.35
2009/04/23 07:57:18.6     -53      0    -40     54     67 270.0 -44.1  33988  286.66 0855.35
2009/04/23 07:57:18.7     -56      6    -52     57     77 277.0 -52.3  33990  286.71 0855.35
2009/04/23 07:57:18.8     -67     -1    -58     68     89 269.1 -49.2  33990  286.69 0855.35
2009/04/23 07:57:18.9     -64      6    -55     65     85 276.1 -49.2  33986  286.64 0855.35
2009/04/23 07:57:19.0     -66     10    -51     67     84 278.8 -45.6  33990  286.69 0855.35
2009/04/23 07:57:19.1     -57      2    -36     58     68 272.6 -39.9  33988  286.66 0855.35
2009/04/23 07:57:19.2     -35      7    -55     36     65 281.5 -69.0  33986  286.64 0855.35
2009/04/23 07:57:19.3     -51     12    -43     53     68 284.2 -48.1  33988  286.66 0855.35
2009/04/23 07:57:19.4     -46      4    -38     47     60 275.2 -48.1  33988  286.66 0855.35
2009/04/23 07:57:19.5     -53      8    -32     54     62 278.8 -37.9  33986  286.64 0855.35
2009/04/23 07:57:19.6     -50     14    -29     52     59 285.9 -35.8  33986  286.64 0855.35
2009/04/23 07:57:19.7     -41      0    -20     42     46 270.0 -31.6  33986  286.64 0855.35
2009/04/23 07:57:19.8     -51      3    -20     52     55 274.4 -25.4  33986  286.64 0855.35
2009/04/23 07:57:19.9     -43      0    -18     44     47 270.0 -27.4  33988  286.66 0855.35
2009/04/23 07:57:20.0     -58      0    -24     59     63 270.0 -27.4  33986  286.64 0855.35
2009/04/23 07:57:20.1     -49      0    -28     50     57 270.0 -36.8  33986  286.64 0855.35
2009/04/23 07:57:20.2     -49      0    -41     50     64 270.8 -48.1  33986  286.62 0855.35
2009/04/23 07:57:20.3     -62      4    -26     63     68 274.3 -27.4  33984  286.61 0855.35
2009/04/23 07:57:20.4     -63      4    -22     64     68 274.3 -19.7  33986  286.62 0855.35
2009/04/23 07:57:20.5     -57      6     -6     58     59 276.1  -6.2  33986  286.62 0855.35
2009/04/23 07:57:20.6     -67     25    -10     72     73 290.8  -8.2  33984  286.59 0855.35
2009/04/23 07:57:20.7     -71     14    -14     73     75 281.5 -11.3  33986  286.62 0855.35
2009/04/23 07:57:20.8     -54     20    -18     58     60 290.8 -22.8  33986  286.62 0855.35
2009/04/23 07:57:20.9     -53     16    -33     56     65 286.8 -37.9  33982  286.57 0855.35
2009/04/23 07:57:21.0     -41      0    -20     42     46 270.0 -31.6  33986  286.64 0855.35
2009/04/23 07:57:21.1     -25      1    -18     26     31 272.6 -42.0  33984  286.61 0855.35
2009/04/23 07:57:21.2     -19      7     -9     21     22 291.7 -27.4  33988  286.66 0855.35
2009/04/23 07:57:21.3     -21      0    -14     22     26 267.4 -39.9  33986  286.62 0855.35
2009/04/23 07:57:21.4     -19     -3    -13     20     23 258.5 -39.9  33984  286.61 0855.35
2009/04/23 07:57:21.5      -7     -7    -15     11     18 225.0 -64.9  33986  286.64 0855.35
2009/04/23 07:57:21.6      -8    -14     -8     17     18 209.0 -27.4  33988  286.67 0855.35
2009/04/23 07:57:21.7      -8    -14     -8     17     18 209.0 -27.4  33988  286.66 0855.35
2009/04/23 07:57:21.8     -16    -27    -11     32     34 210.7 -19.7  33986  286.62 0855.35
2009/04/23 07:57:21.9     -15    -42      1     45     46 200.0   1.8  33984  286.61 0855.35
2009/04/23 07:57:22.0     -23    -24      1     34     35 223.4   2.9  33986  286.64 0855.35
2009/04/23 07:57:22.1     -20    -30     10     37     39 214.3  16.3  33986  286.64 0855.35
2009/04/23 07:57:22.2     -11    -34     22     36     42 198.7  34.4  33984  286.61 0855.35
2009/04/23 07:57:22.3     -20    -45     25     50     55 204.5  28.2  33986  286.64 0855.35
2009/04/23 07:57:22.4     -18    -34     26     39     46 209.0  36.5  33986  286.62 0855.35
2009/04/23 07:57:22.5     -14    -32     19     35     39 203.6  31.4  33986  286.62 0855.35
2009/04/23 07:57:22.6      -7    -38     24     39     45 191.6  35.5  33986  286.64 0855.35
2009/04/23 07:57:22.7     -22    -47     24     53     58 205.4  26.2  33986  286.64 0855.35
2009/04/23 07:57:22.8     -13    -47     20     49     52 196.0  23.0  33986  286.64 0855.35
2009/04/23 07:57:22.9     -11    -35     23     37     43 198.3  35.5  33984  286.61 0855.35
2009/04/23 07:57:23.0      -9    -14     31     17     35 212.5  66.8  33988  286.67 0855.35
2009/04/23 07:57:23.1     -14     -9     26     17     31 237.6  64.6  33988  286.66 0855.35
2009/04/23 07:57:23.2     -12     -8     13     15     19 237.6  45.8  33988  286.66 0855.35
2009/04/23 07:57:23.3      -3    -14     15     15     21 195.1  50.1  33986  286.62 0855.35
2009/04/23 07:57:23.4       7     -7     15     11     18 135.0  60.5  33986  286.64 0855.35
2009/04/23 07:57:23.5       5    -10     19     12     22 151.0  64.7  33986  286.64 0855.35
2009/04/23 07:57:23.6       3     -7     31      8     32 154.6  86.9  33988  286.67 0855.35
2009/04/23 07:57:23.7      11    -43     38     45     58 164.9  44.8  33990  286.69 0855.35
2009/04/23 07:57:23.8       5    -42     40     43     58 172.0  49.0  33988  286.66 0855.35
2009/04/23 07:57:23.9     -10    -35     35     37     50 196.9  49.0  33984  286.61 0855.35
2009/04/23 07:57:24.0     -19    -23     42     30     51 219.6  60.5  33986  286.64 0855.35
2009/04/23 07:57:24.1     -21    -32     38     39     54 214.3  51.1  33986  286.64 0855.35
2009/04/23 07:57:24.2     -21    -32     38     39     54 214.3  51.1  33986  286.64 0855.35
2009/04/23 07:57:24.3     -25    -25     35     36     50 225.0  51.1  33984  286.61 0855.35
2009/04/23 07:57:24.4     -17    -22     28     28     39 217.8  50.1  33986  286.64 0855.35
2009/04/23 07:57:24.5     -25    -16     32     30     43 237.6  50.1  33988  286.66 0855.35
2009/04/23 07:57:24.6     -11    -18     42     22     47 210.7  69.8  33990  286.71 0855.35
2009/04/23 07:57:24.7       3    -32     45     33     55 173.8  60.5  33990  286.71 0855.35
2009/04/23 07:57:24.8       0    -44     54     45     70 180.9  56.3  33990  286.69 0855.35
2009/04/23 07:57:24.9      -5    -42     47     43     63 188.0  52.2  33990  286.69 0855.35
2009/04/23 07:57:25.0       8    -26     51     28     58 161.7  68.8  33990  286.69 0855.35
2009/04/23 07:57:25.1      10    -50     44     52     68 168.5  44.8  33988  286.66 0855.35
2009/04/23 07:57:25.2      30    -64     50     72     87 154.5  38.0  33986  286.64 0855.35
2009/04/23 07:57:25.3      31    -71     57     78     96 156.4  39.7  33988  286.67 0855.35
2009/04/23 07:57:25.4      17    -64     57     67     87 164.9  44.8  33988  286.66 0855.35
2009/04/23 07:57:25.5      32    -76     65     83    105 157.3  42.2  33986  286.64 0855.35
2009/04/23 07:57:25.6      43    -26     52     51     72 120.7  49.1  33988  286.67 0855.35
2009/04/23 07:57:25.7      31    -46     50     56     75 145.7  46.9  33986  286.64 0855.35
2009/04/23 07:57:25.8      31    -34     41     47     62 137.7  46.9  33986  286.64 0855.35
2009/04/23 07:57:25.9      36    -37     55     52     75 135.9  52.1  33986  286.64 0855.35
2009/04/23 07:57:26.0      24    -51     44     57     72 154.5  42.7  33984  286.61 0855.35
2009/04/23 07:57:26.1      13    -60     34     62     70 167.5  31.4  33986  286.62 0855.35
2009/04/23 07:57:26.2      37    -32     44     50     66 131.3  46.9  33984  286.59 0855.35
2009/04/23 07:57:26.3      77    -15     68     79    104 101.5  45.4  33986  286.64 0855.35
2009/04/23 07:57:26.4      79    -21     43     82     92 105.5  29.3  33984  286.61 0855.35
2009/04/23 07:57:26.5      80    -32     41     87     96 112.2  27.2  33986  286.64 0855.35
2009/04/23 07:57:26.6      65    -21     29     69     74 108.2  24.1  33986  286.64 0855.35
2009/04/23 07:57:26.7      75    -32      0     82     83 113.5  -0.3  33988  286.67 0855.35
2009/04/23 07:57:26.8      93    -44      8    104    105 115.4   4.4  33988  286.67 0855.35
2009/04/23 07:57:26.9      85    -64     -4    107    108 127.3  -2.2  33988  286.67 0855.35
2009/04/23 07:57:27.0      90    -60    -14    109    110 123.7  -7.3  33988  286.67 0855.35
2009/04/23 07:57:27.1      88    -42     -3     98     99 115.8  -2.2  33990  286.71 0855.35
2009/04/23 07:57:27.2      87    -41      3     97     98 115.4   1.8  33986  286.64 0855.35
2009/04/23 07:57:27.3      82    -56      4    100    101 124.6   2.8  33988  286.67 0855.35
2009/04/23 07:57:27.4      80    -52     33     96    102 123.3  19.4  33988  286.67 0855.35
2009/04/23 07:57:27.5      54    -58     56     80     97 136.7  38.0  33990  286.69 0855.35
2009/04/23 07:57:27.6      37    -58     64     70     94 147.4  47.5  33990  286.69 0855.35
2009/04/23 07:57:27.7      36    -79     48     87     99 155.5  31.4  33988  286.66 0855.35
2009/04/23 07:57:27.8      33    -83     33     90     95 158.2  20.4  33990  286.69 0855.35
2009/04/23 07:57:27.9      26    -69     38     74     83 159.1  29.3  33990  286.69 0855.35
2009/04/23 07:57:28.0      22    -55     22     60     63 158.2  20.0  33988  286.67 0855.36
2009/04/23 07:57:28.1      17    -39     17     43     46 156.4  22.0  33992  286.73 0855.36
2009/04/23 07:57:28.2      30    -30     30     43     52 134.9  38.6  33990  286.71 0855.36
2009/04/23 07:57:28.3      32    -32     44     46     63 135.8  50.0  33992  286.73 0855.36
2009/04/23 07:57:28.4      26    -45     46     53     70 150.1  44.8  33992  286.74 0855.36
2009/04/23 07:57:28.5      15    -57     49     60     77 164.9  43.7  33990  286.71 0855.36
2009/04/23 07:57:28.6      22    -56     28     61     67 158.2  26.2  33992  286.74 0855.36
2009/04/23 07:57:28.7      19    -43     46     48     66 156.4  50.0  33990  286.69 0855.36
2009/04/23 07:57:28.8      32    -30     38     45     58 133.1  44.8  33992  286.74 0855.36
2009/04/23 07:57:28.9      17      0     24     18     30  90.0  58.5  33992  286.74 0855.36
2009/04/23 07:57:29.0       0      0     19      0     19   0.0 -90.0  33992  286.74 0855.36
2009/04/23 07:57:29.1      -8      0     16      9     18 270.0  68.8  33992  286.74 0855.36
2009/04/23 07:57:29.2      -8    -12     23     15     27 212.5  64.6  33992  286.73 0855.36
2009/04/23 07:57:29.3       1     20     21     21     29   4.4  50.1  33994  286.78 0855.36
2009/04/23 07:57:29.4       4     30     10     31     33   8.0  19.4  33996  286.79 0855.36
2009/04/23 07:57:29.5     -10     23      9     26     28 336.4  19.4  33994  286.76 0855.36
2009/04/23 07:57:29.6     -23     19      0     30     31 309.5   0.8  33996  286.79 0855.36
2009/04/23 07:57:29.7     -15     21      1     27     28 323.9   2.9  33996  286.79 0855.36
2009/04/23 07:57:29.8      -7     22     -3     24     25 341.5  -7.2  33996  286.79 0855.36
2009/04/23 07:57:29.9      -7     13     -2     16     17 331.0  -7.3  33992  286.74 0855.36
2009/04/23 07:57:30.0       5      4      6      7      9  50.5  52.0  33992  286.74 0855.36
2009/04/23 07:57:30.1       7      0      8      8     11  90.0  50.1  33992  286.73 0855.36
2009/04/23 07:57:30.2      12      0     13     13     18  90.0  50.1  33992  286.73 0855.36
2009/04/23 07:57:30.3       3      0      4      4      5  90.0  50.1  33992  286.73 0855.36
2009/04/23 07:57:30.4      10      0      0     11     12  90.0  -2.2  33990  286.71 0855.36
2009/04/23 07:57:30.5       9     12      0     16     17  36.1   2.8  33992  286.74 0855.36
2009/04/23 07:57:30.6       0      0      0      0      1 189.7  -2.2  33990  286.71 0855.36
2009/04/23 07:57:30.7       0     -9      2     10     11 184.5  15.3  33990  286.71 0855.36
2009/04/23 07:57:30.8      -1    -18     10     19     21 184.4  29.3  33990  286.69 0855.36
2009/04/23 07:57:30.9     -12    -30     11     33     35 201.8  18.9  33992  286.73 0855.36
2009/04/23 07:57:31.0      -7    -31     11     32     34 193.4  19.2  33992  286.74 0855.35
2009/04/23 07:57:31.1      -3    -38     15     39     41 184.5  22.0  33994  286.76 0855.35
2009/04/23 07:57:31.2      -4    -39     14     40     43 186.2  19.2  33992  286.74 0855.35
2009/04/23 07:57:31.3      -5    -41      4     42     43 188.0   5.9  33990  286.69 0855.35
2009/04/23 07:57:31.4      -4    -34     -1     35     36 188.0  -2.2  33992  286.73 0855.35
2009/04/23 07:57:31.5      -5    -41     -7     42     43 188.0 -10.3  33990  286.69 0855.35
2009/04/23 07:57:31.6      -6    -33     -9     34     36 191.6 -15.4  33990  286.69 0855.35
2009/04/23 07:57:31.7       0    -38    -13     39     41 180.9 -23.6  33990  286.71 0855.35
2009/04/23 07:57:31.8      -1    -30    -13     31     33 182.6 -27.4  33988  286.66 0855.35
2009/04/23 07:57:31.9       9    -46    -17     47     49 168.4 -24.4  33988  286.66 0855.35
2009/04/23 07:57:32.0     -12    -54    -27     56     62 192.5 -31.6  33988  286.66 0855.35
2009/04/23 07:57:32.1      11    -56     -2     58     59 168.5  -2.2  33988  286.67 0855.35
2009/04/23 07:57:32.2       0    -60     -2     61     62 180.9  -2.2  33988  286.67 0855.35
2009/04/23 07:57:32.4      23    -70     35     74     81 161.3  26.6  33988  286.66 0855.35
2009/04/23 07:57:32.4      20    -99     39    101    108 168.5  22.5  33988  286.67 0855.35
2009/04/23 07:57:32.5       0    -77     40     78     87 180.0  29.3  33988  286.66 0855.35
2009/04/23 07:57:32.6      11    -71     27     72     76 171.1  20.0  33988  286.66 0855.35
2009/04/23 07:57:32.8      -3    -62     29     63     69 183.6  27.1  33986  286.62 0855.35
2009/04/23 07:57:32.9     -22    -65     18     69     72 198.7  15.3  33988  286.67 0855.35
2009/04/23 07:57:33.0     -34   -103    -30    109    114 198.3 -15.4  33992  286.73 0855.35
2009/04/23 07:57:33.1     -17   -101    -22    103    106 189.8 -12.4  33992  286.73 0855.35
2009/04/23 07:57:33.2     -27    -68    -21     74     76 201.8 -20.7  33994  286.76 0855.35
2009/04/23 07:57:33.3     -24    -73    -15     77     79 198.5 -11.3  33990  286.69 0855.35
2009/04/23 07:57:33.4      -7    -83    -10     84     85 185.3  -7.3  33990  286.71 0855.35
2009/04/23 07:57:33.5       6    -68    -13     69     71 174.7 -11.3  33986  286.64 0855.35
2009/04/23 07:57:33.6      21    -60    -22     64     67 160.8 -23.3  33988  286.67 0855.35
2009/04/23 07:57:33.7      19    -63    -22     66     69 163.1 -23.6  33988  286.67 0855.35
2009/04/23 07:57:33.8      27    -74    -15     80     82 159.5 -10.9  33988  286.67 0855.35
2009/04/23 07:57:33.9      46    -94      0    105    106 153.7   0.2  33988  286.66 0855.35
2009/04/23 07:57:34.0      33    -84     17     91     93 158.6  11.1  33990  286.69 0855.35
2009/04/23 07:57:34.1      28    -78     15     84     86 160.0  10.1  33990  286.71 0855.35
2009/04/23 07:57:34.2      35    -67      3     76     77 151.9   2.8  33988  286.67 0855.35
2009/04/23 07:57:34.3      42    -58     -1     72     73 143.9  -1.3  33990  286.69 0855.35
2009/04/23 07:57:34.4      52    -65     -3     84     85 141.7  -2.2  33988  286.67 0855.35
2009/04/23 07:57:34.5      15    -73    -13     75     77 168.4 -10.3  33988  286.67 0855.35
2009/04/23 07:57:34.6      33    -41     -7     53     54 141.3  -8.2  33990  286.69 0855.35
2009/04/23 07:57:34.7      45    -39     -3     60     61 131.3  -3.1  33986  286.64 0855.35
2009/04/23 07:57:34.8      50    -28      2     58     59 118.9   2.9  33990  286.69 0855.35
2009/04/23 07:57:34.9      44    -14      1     47     48 108.4   1.8  33988  286.67 0855.35
2009/04/23 07:57:35.0      49      0     21     50     54  90.8  23.0  33990  286.71 0855.35
2009/04/23 07:57:35.1      42      3     29     43     51  85.6  37.6  33992  286.74 0855.35
2009/04/23 07:57:35.2      33      2     39     34     51  85.6  54.3  33994  286.76 0855.35
2009/04/23 07:57:35.3      40     -8     46     41     61 101.5  53.3  33992  286.74 0855.35
2009/04/23 07:57:35.4      63     -8     35     64     72  97.9  31.3  33992  286.73 0855.35
2009/04/23 07:57:35.5      53    -17     24     56     60 108.2  24.1  33990  286.69 0855.35
2009/04/23 07:57:35.6      49    -46     26     68     72 133.1  22.0  33990  286.71 0855.35
2009/04/23 07:57:35.7      58    -76     20     96     99 142.6  12.2  33994  286.78 0855.35
2009/04/23 07:57:35.8      77    -78     25    110    113 135.3  13.2  33994  286.78 0855.35
2009/04/23 07:57:35.9      58    -79     38     99    106 143.5  22.0  33996  286.79 0855.35
2009/04/23 07:57:36.0      54    -87     40    103    110 147.9  22.5  33992  286.73 0855.35
2009/04/23 07:57:36.1      52    -88     12    103    104 149.3   7.1  33992  286.74 0855.35
2009/04/23 07:57:36.2      44    -93      5    103    104 154.6   2.9  33992  286.73 0855.35
2009/04/23 07:57:36.3      22    -87     20     90     93 165.7  12.6  33988  286.67 0855.35
2009/04/23 07:57:36.4      18    -85      8     87     88 168.0   5.4  33986  286.64 0855.35
2009/04/23 07:57:36.5      15    -84      1     86     87 169.3   0.8  33990  286.71 0855.35
2009/04/23 07:57:36.6       5    -68      2     69     70 175.6   1.8  33988  286.67 0855.35
2009/04/23 07:57:36.7       6    -69      4     70     71 174.7   3.8  33992  286.73 0855.35
2009/04/23 07:57:36.8       1    -72      0     73     74 179.0  -0.3  33990  286.69 0855.35
2009/04/23 07:57:36.9       6    -80     19     81     84 175.5  13.2  33990  286.69 0855.35
2009/04/23 07:57:37.0      14    -93     34     95    100 171.1  20.0  33992  286.73 0855.35
2009/04/23 07:57:37.1      19    -83     18     86     89 166.6  12.2  33992  286.74 0855.35
2009/04/23 07:57:37.2      20    -75     18     78     81 164.9  13.2  33990  286.71 0855.35
2009/04/23 07:57:37.3      16    -64      0     67     68 165.7  -0.3  33988  286.67 0855.35
2009/04/23 07:57:37.4      14    -51     -1     54     55 164.0  -1.3  33990  286.69 0855.35
2009/04/23 07:57:37.5      10    -50      2     52     53 168.4   2.8  33988  286.67 0855.35
2009/04/23 07:57:37.6      11    -43     24     45     51 164.9  30.3  33990  286.69 0855.35
2009/04/23 07:57:37.7      33    -53     22     63     67 147.4  19.4  33988  286.67 0855.35
2009/04/23 07:57:37.8      19    -51     33     55     64 159.1  35.5  33990  286.69 0855.35
2009/04/23 07:57:37.9      17    -66     28     69     74 165.7  23.0  33990  286.69 0855.35
2009/04/23 07:57:38.0      24    -51     24     57     61 154.5  23.1  33990  286.69 0855.35
2009/04/23 07:57:38.1       7    -62     35     63     72 172.9  31.4  33988  286.67 0855.35
2009/04/23 07:57:38.2       7    -58     41     59     71 172.9  38.6  33990  286.69 0855.35
2009/04/23 07:57:38.3      22    -64      4     68     69 160.8   3.8  33990  286.71 0855.35
2009/04/23 07:57:38.4      10    -74     25     75     80 172.0  18.4  33990  286.69 0855.35
2009/04/23 07:57:38.5      -6    -43    -10     44     46 188.9 -13.4  33988  286.67 0855.35
2009/04/23 07:57:38.6      16    -47    -35     50     61 160.8 -43.0  33988  286.67 0855.35
2009/04/23 07:57:38.7      18    -55    -55     58     79 161.7 -53.4  33986  286.64 0855.35
2009/04/23 07:57:38.8      27    -40    -53     49     72 145.7 -56.6  33990  286.69 0855.35
2009/04/23 07:57:38.9      37    -59    -34     70     77 147.5 -31.7  33988  286.66 0855.35
2009/04/23 07:57:39.0       9    -57     -3     58     59 170.2  -3.1  33990  286.69 0855.35
2009/04/23 07:57:39.1       0    -91    -13     92     93 179.5  -8.2  33988  286.66 0855.36
2009/04/23 07:57:39.2      25   -125    -21    128    130 168.5  -9.4  33988  286.67 0855.36
2009/04/23 07:57:39.3      28   -113    -18    117    119 165.7  -8.8  33990  286.71 0855.36
2009/04/23 07:57:39.4      12    -90    -28     91     95 172.4 -22.8  33990  286.69 0855.36
2009/04/23 07:57:39.5      20   -105    -33    108    112 168.9 -22.3  33990  286.69 0855.36
2009/04/23 07:57:39.6      23   -134    -57    137    148 170.2 -28.0  33990  286.69 0855.36
2009/04/23 07:57:39.7      -2   -121    -44    122    129 181.4 -24.8  33990  286.69 0855.36
2009/04/23 07:57:39.8      24   -157    -24    159    161 171.3  -8.6  33990  286.71 0855.36
2009/04/23 07:57:39.9      55   -153    -52    163    171 160.0 -23.0  33990  286.71 0855.36
2009/04/23 07:57:40.0      84   -151    -26    174    176 150.8  -8.6  33994  286.78 0855.36
2009/04/23 07:57:40.1      87   -140     -9    165    166 148.1  -3.1  33996  286.79 0855.36
2009/04/23 07:57:40.2      64   -101    -29    120    124 147.5 -13.9  33994  286.78 0855.36
2009/04/23 07:57:40.3      45    -87    -55     99    113 152.4 -35.8  33986  286.64 0855.36
2009/04/23 07:57:40.4      65    -78    -78    102    128 140.3 -46.0  33992  286.73 0855.36
2009/04/23 07:57:40.5      91    -99    -73    135    153 137.2 -35.7  33990  286.71 0855.36
2009/04/23 07:57:40.6     108   -115    -54    158    166 136.8 -23.8  33990  286.71 0855.36
2009/04/23 07:57:40.7     106   -129    -31    168    171 140.6 -10.5  33994  286.78 0855.36
2009/04/23 07:57:40.8      77   -106    -60    132    145 144.0 -30.6  33990  286.69 0855.36
2009/04/23 07:57:40.9      56    -95    -53    111    123 149.3 -31.6  33988  286.67 0855.36
2009/04/23 07:57:41.0      61    -87    -48    107    117 144.8 -30.1  33988  286.67 0855.36
2009/04/23 07:57:41.1      41    -38    -73     57     92 133.1 -61.9  33992  286.74 0855.35
2009/04/23 07:57:41.2      73    -80    -90    109    141 137.7 -48.1  33990  286.71 0855.35
2009/04/23 07:57:41.3      66    -68    -72     95    119 135.9 -45.6  33990  286.71 0855.35
2009/04/23 07:57:41.4       8    -32    -79     34     86 164.9 -79.9  33994  286.78 0855.35
2009/04/23 07:57:41.5      27    -33    -54     43     69 140.4 -60.8  33998  286.83 0855.35
2009/04/23 07:57:41.6      33     15    -30     37     47  64.8 -48.1  33996  286.79 0855.35
2009/04/23 07:57:41.7      13      0     -1     14     15  90.0  -7.2  33992  286.73 0855.35
2009/04/23 07:57:41.8      47    -30     15     56     59 122.4  15.2  33994  286.78 0855.35
2009/04/23 07:57:41.9      43    -52     28     68     73 140.4  23.0  33988  286.67 0855.35
2009/04/23 07:57:42.0      45    -39      8     60     61 131.3   8.0  33992  286.73 0855.35
2009/04/23 07:57:42.1      21    -31     -4     38     39 145.7  -7.3  33992  286.73 0855.35
2009/04/23 07:57:42.2      38    -46    -24     60     64 140.4 -27.4  33992  286.74 0855.35
2009/04/23 07:57:42.3       0    -85    -79     86    116 180.0 -52.3  33992  286.73 0855.35
2009/04/23 07:57:42.4     -12    -87    -93     88    128 188.5 -56.0  33988  286.66 0855.35
2009/04/23 07:57:42.5       9   -152    -51    153    161 176.4 -23.6  33990  286.69 0855.35
2009/04/23 07:57:42.6      11   -157    -38    158    163 176.0 -13.7  33986  286.64 0855.35
2009/04/23 07:57:42.7      14   -132    -26    133    136 173.7 -11.3  33986  286.64 0855.35
2009/04/23 07:57:42.8      -4   -123    -32    124    129 182.2 -14.5  33986  286.62 0855.35
2009/04/23 07:57:42.9       7   -109    -33    110    116 176.0 -17.0  33984  286.61 0855.35
2009/04/23 07:57:43.0       9   -119    -16    120    122 175.5  -7.7  33984  286.61 0855.35
2009/04/23 07:57:43.1      -5   -117    -32    118    123 182.7 -15.5  33984  286.59 0855.35
2009/04/23 07:57:43.2       9   -117    -12    118    119 175.5  -6.2  33984  286.59 0855.35
2009/04/23 07:57:43.3      18   -112    -42    114    121 170.7 -25.4  33984  286.59 0855.35
2009/04/23 07:57:43.4       1   -103    -57    104    118 179.1 -35.7  33986  286.62 0855.35
2009/04/23 07:57:43.5      15   -109    -39    111    118 172.0 -19.6  33984  286.59 0855.35
2009/04/23 07:57:43.6      21   -106    -30    109    114 168.5 -15.5  33986  286.64 0855.35
2009/04/23 07:57:43.7      32   -105    -35    110    116 163.1 -17.6  33986  286.64 0855.35
2009/04/23 07:57:43.8      24   -108    -27    111    115 167.1 -13.9  33984  286.61 0855.35
2009/04/23 07:57:43.9      35   -116    -15    122    124 163.0  -7.3  33986  286.64 0855.35
2009/04/23 07:57:44.0      35   -106    -22    112    115 161.7 -11.3  33988  286.67 0855.35
2009/04/23 07:57:44.1      21   -113    -11    116    117 169.3  -5.6  33986  286.64 0855.35
2009/04/23 07:57:44.2      16   -109      0    111    112 171.5  -0.3  33988  286.66 0855.35
2009/04/23 07:57:44.3      22   -132      6    134    135 170.2   2.8  33988  286.67 0855.35
2009/04/23 07:57:44.4      27   -124     -5    128    129 167.5  -2.2  33988  286.66 0855.35
2009/04/23 07:57:44.5      21   -125     -2    127    128 170.2  -1.3  33986  286.64 0855.35
2009/04/23 07:57:44.6      34   -123     -5    128    129 164.4  -2.2  33988  286.66 0855.35
2009/04/23 07:57:44.7      42   -125    -12    132    133 161.3  -5.2  33986  286.64 0855.35
2009/04/23 07:57:44.8      46   -152     12    159    160 163.0   4.6  33990  286.71 0855.35
2009/04/23 07:57:44.9      63   -136      1    151    152 155.1   0.7  33990  286.71 0855.35
2009/04/23 07:57:45.0      62   -131      0    146    147 154.7  -0.3  33990  286.71 0855.35
2009/04/23 07:57:45.1      57   -117     10    131    132 154.1   4.4  33990  286.71 0855.35
2009/04/23 07:57:45.2      58   -122      2    136    137 154.7   1.2  33986  286.62 0855.35
2009/04/23 07:57:45.3      56   -116      4    129    130 154.1   1.8  33988  286.66 0855.35
2009/04/23 07:57:45.4      42   -117     -4    125    126 160.0  -2.2  33988  286.67 0855.35
2009/04/23 07:57:45.5      54   -105      1    119    120 152.8   0.8  33988  286.66 0855.35
2009/04/23 07:57:45.6      45    -96     15    107    109 154.7   8.0  33988  286.66 0855.35
2009/04/23 07:57:45.7      52    -88     21    103    106 149.3  11.6  33988  286.66 0855.35
2009/04/23 07:57:45.8      52    -82     37     98    104 147.5  21.0  33990  286.69 0855.35
2009/04/23 07:57:45.9      54    -86     39    102    109 147.5  21.5  33990  286.71 0855.35
2009/04/23 07:57:46.0      54    -86     39    102    109 147.5  21.5  33990  286.71 0855.35
2009/04/23 07:57:46.1      32    -96     44    102    111 161.5  25.1  33992  286.73 0855.35
2009/04/23 07:57:46.2      42    -96     52    105    117 156.4  27.8  33990  286.71 0855.35
2009/04/23 07:57:46.3      35   -104     48    110    120 161.3  25.1  33992  286.73 0855.35
2009/04/23 07:57:46.4      36   -110     29    116    120 161.7  14.3  33992  286.73 0855.35
2009/04/23 07:57:46.5      50    -95      4    108    109 152.4   2.3  33990  286.71 0855.35
2009/04/23 07:57:46.6      32    -96     14    102    104 161.3   8.0  33992  286.73 0855.35
2009/04/23 07:57:46.7      31    -92     26     98    102 161.5  15.3  33990  286.69 0855.35
2009/04/23 07:57:46.8      18   -102     30    104    109 169.8  16.3  33990  286.69 0855.35
2009/04/23 07:57:46.9      10   -128     72    129    147 175.5  31.4  33988  286.66 0855.35
2009/04/23 07:57:47.0      10   -136     79    137    158 175.5  32.7  33990  286.69 0855.35
2009/04/23 07:57:47.1      29   -147     74    150    167 168.5  28.0  33988  286.67 0855.35
2009/04/23 07:57:47.2      19   -124     87    126    153 171.1  37.6  33990  286.69 0855.35
2009/04/23 07:57:47.3      24   -131     78    134    155 169.3  33.4  33990  286.71 0855.35
2009/04/23 07:57:47.4       0   -107     95    108    143 180.0  45.9  33988  286.67 0855.35
2009/04/23 07:57:47.5      10   -136     51    137    146 175.6  21.0  33988  286.67 0855.35
2009/04/23 07:57:47.6      23   -133     37    136    141 170.2  15.3  33988  286.67 0855.35
2009/04/23 07:57:47.7       7   -140     48    141    150 176.9  18.9  33988  286.67 0855.35
2009/04/23 07:57:47.8      11   -144     39    145    151 175.6  15.2  33992  286.74 0855.35
2009/04/23 07:57:47.9      -8   -147     52    148    157 183.1  19.4  33996  286.81 0855.35
2009/04/23 07:57:48.0      -8   -126     49    127    136 184.0  22.0  33994  286.78 0855.35
2009/04/23 07:57:48.1      17    -99     54    101    114 169.8  30.8  33990  286.71 0855.35
2009/04/23 07:57:48.2      22    -68     50     72     87 161.7  38.0  33988  286.67 0855.35
2009/04/23 07:57:48.3      21    -83     32     86     91 165.7  21.0  33992  286.73 0855.35
2009/04/23 07:57:48.4       9   -115     46    116    124 175.5  22.5  33992  286.73 0855.35
2009/04/23 07:57:48.5      39   -128     54    134    144 163.1  23.0  33992  286.74 0855.35
2009/04/23 07:57:48.6      31   -129     62    133    146 166.2  27.1  33992  286.73 0855.35
2009/04/23 07:57:48.7       2   -122     88    123    151 179.0  39.5  33994  286.76 0855.35
2009/04/23 07:57:48.8       9   -118     82    119    144 175.6  37.6  33996  286.81 0855.35
2009/04/23 07:57:48.9       1   -111     90    112    143 179.1  43.3  33996  286.79 0855.35
2009/04/23 07:57:49.0      -1   -106     84    107    136 181.0  42.2  33994  286.78 0855.35
2009/04/23 07:57:49.1       4   -102     70    103    124 177.8  37.4  33998  286.83 0855.35
2009/04/23 07:57:49.2       0   -101     73    102    125 180.0  39.1  33996  286.79 0855.35
2009/04/23 07:57:49.3      -8   -101     64    102    120 184.9  35.5  33996  286.81 0855.35
2009/04/23 07:57:49.4      -6   -104     59    105    120 183.6  31.9  34000  286.86 0855.35
2009/04/23 07:57:49.5      -9   -115     63    116    132 184.5  30.8  33996  286.79 0855.35
2009/04/23 07:57:49.6     -21   -125     57    127    139 189.8  26.2  33992  286.73 0855.35
2009/04/23 07:57:49.7      -6   -121     60    122    135 183.1  27.8  33990  286.69 0855.35
2009/04/23 07:57:49.8      -8   -125     64    126    141 184.0  29.2  33992  286.74 0855.35
2009/04/23 07:57:49.9     -10   -113     56    114    127 185.3  28.2  33990  286.69 0855.35
2009/04/23 07:57:50.0       0   -106     57    107    121 179.5  30.3  33992  286.73 0855.35
2009/04/23 07:57:50.1      -1   -106     57    107    121 181.0  30.3  33992  286.73 0855.35
2009/04/23 07:57:50.2      -2   -108     47    109    118 181.4  25.1  33992  286.73 0855.35
2009/04/23 07:57:50.3       0   -103     45    104    113 180.5  24.6  33988  286.66 0855.35
2009/04/23 07:57:50.4      -2    -97     50     98    110 181.4  28.7  33990  286.71 0855.35
2009/04/23 07:57:50.5     -11    -98     55     99    113 186.7  31.4  33990  286.71 0855.35
2009/04/23 07:57:50.6     -15   -105     51    107    118 188.1  27.2  33990  286.69 0855.35
2009/04/23 07:57:50.7     -17   -102     42    104    112 189.8  23.0  33986  286.64 0855.35
2009/04/23 07:57:50.8      -8   -102     50    103    114 184.5  27.3  33986  286.64 0855.35
2009/04/23 07:57:50.9     -16    -93     52     95    108 189.8  30.8  33990  286.71 0855.35
2009/04/23 07:57:51.0     -15   -105     51    107    118 188.1  27.2  33990  286.69 0855.35
2009/04/23 07:57:51.1     -18    -92     33     94    100 191.6  19.4  33990  286.69 0855.35
2009/04/23 07:57:51.2     -15    -88     38     90     97 189.8  24.1  33988  286.67 0855.35
2009/04/23 07:57:51.3     -30    -91     33     96    102 198.3  18.9  33992  286.73 0855.35
2009/04/23 07:57:51.4     -16    -91     36     93     99 190.2  22.0  33988  286.66 0855.35
2009/04/23 07:57:51.5     -27    -78     46     83     94 199.2  31.9  33992  286.74 0855.35
2009/04/23 07:57:51.6     -33    -79     48     86     98 202.7  31.4  33992  286.73 0855.35
2009/04/23 07:57:51.7     -27    -81     58     86    103 198.7  37.0  33994  286.76 0855.35
2009/04/23 07:57:51.8     -32    -81     47     88     99 201.8  30.8  33990  286.71 0855.35
2009/04/23 07:57:51.9     -28    -70     53     76     92 201.8  38.0  33992  286.73 0855.35
2009/04/23 07:57:52.0     -21    -64     50     68     84 198.3  40.1  33996  286.79 0855.35
2009/04/23 07:57:52.1     -21    -64     50     68     84 198.3  40.1  33996  286.79 0855.36
2009/04/23 07:57:52.2     -21    -65     58     69     90 198.5  43.8  33998  286.84 0855.36
2009/04/23 07:57:52.3     -23    -49     49     55     73 205.4  47.9  33996  286.81 0855.36
2009/04/23 07:57:52.4     -10    -51     49     53     72 191.6  47.9  33994  286.78 0855.36
2009/04/23 07:57:52.5      -4    -57     41     58     71 184.5  39.5  33994  286.76 0855.36
2009/04/23 07:57:52.6     -12    -49     48     51     70 194.3  48.0  33994  286.76 0855.36
2009/04/23 07:57:52.7      -3    -21     29     22     36 189.8  58.5  33992  286.74 0855.36
2009/04/23 07:57:52.8       3    -14     31     15     34 164.9  72.9  33992  286.73 0855.36
2009/04/23 07:57:52.9      -3      0     29      4     29 270.0  90.0  33996  286.81 0855.36
2009/04/23 07:57:53.0     -16    -26     31     31     43 212.5  50.1  33994  286.78 0855.36
2009/04/23 07:57:53.1      -3    -38     42     39     57 184.5  51.2  33992  286.74 0855.36
2009/04/23 07:57:53.2       0    -48     55     49     73 179.1  52.2  33992  286.74 0855.36
2009/04/23 07:57:53.3     -11    -58     62     60     86 191.5  50.1  33994  286.78 0855.36
2009/04/23 07:57:53.4     -15    -75     57     77     95 191.6  40.1  33994  286.78 0855.36
2009/04/23 07:57:53.5     -10    -66     62     67     91 188.9  47.9  33994  286.78 0855.36
2009/04/23 07:57:53.6     -23    -79     64     83    104 196.5  41.2  33996  286.79 0855.36
2009/04/23 07:57:53.7     -18    -67     65     70     95 195.1  47.9  33996  286.79 0855.36
2009/04/23 07:57:53.8     -16    -48     56     51     75 198.3  52.2  33992  286.74 0855.36
2009/04/23 07:57:53.9      -2    -50     45     51     68 182.7  47.9  33994  286.78 0855.36
2009/04/23 07:57:54.0      -2    -66     31     67     73 181.8  27.1  33994  286.78 0855.36
2009/04/23 07:57:54.1     -13    -69     45     71     84 190.7  35.5  33992  286.74 0855.35
2009/04/23 07:57:54.3      -9    -70     57     71     91 188.0  43.7  33992  286.73 0855.35
2009/04/23 07:57:54.4     -13    -60     65     62     89 192.5  51.2  33990  286.71 0855.35
2009/04/23 07:57:54.4      -5    -65     46     66     80 184.5  38.6  33990  286.69 0855.35
2009/04/23 07:57:54.5       0    -58     39     59     70 180.0  35.6  33992  286.73 0855.35
2009/04/23 07:57:54.6       8    -81     72     82    109 174.2  46.4  33990  286.71 0855.35
2009/04/23 07:57:54.7     -24    -98     81    101    129 193.8  43.3  33990  286.69 0855.35
2009/04/23 07:57:54.8     -25    -75     96     80    124 198.3  56.3  33990  286.71 0855.35
2009/04/23 07:57:54.9     -14    -94    107     96    143 188.9  53.3  33992  286.73 0855.35
2009/04/23 07:57:55.0      -8   -105    100    106    145 184.4  48.0  33990  286.69 0855.35
2009/04/23 07:57:55.1      10    -82     84     83    118 172.9  50.1  33992  286.73 0855.35
2009/04/23 07:57:55.2     -16    -74     78     76    108 192.5  50.1  33990  286.69 0855.35
2009/04/23 07:57:55.3      -6    -70     71     71    100 185.3  50.1  33990  286.71 0855.35
2009/04/23 07:57:55.4     -28    -44     72     53     89 212.5  60.0  33986  286.64 0855.35
2009/04/23 07:57:55.5     -67    -10     62     68     92 261.2  47.5  33988  286.67 0855.35
2009/04/23 07:57:55.6     -78     -5     37     79     87 265.7  26.6  33986  286.64 0855.35
2009/04/23 07:57:55.7     -53    -13     31     55     63 255.8  31.4  33990  286.69 0855.35
2009/04/23 07:57:55.8     -16     18     24     25     34 318.6  52.0  33990  286.69 0855.35
2009/04/23 07:57:55.9      -3      0     22      4     22 270.0  90.0  33992  286.73 0855.35
2009/04/23 07:57:56.0      -8      8     17     12     20 313.1  60.5  33992  286.73 0855.35
2009/04/23 07:57:56.1      14      8     19     17     25  61.1  52.2  33992  286.74 0855.34
2009/04/23 07:57:56.2      -2     -3     24      4     24 212.5  90.0  33990  286.69 0855.34
2009/04/23 07:57:56.4      -3    -21     29     22     36 189.8  58.5  33990  286.69 0855.34
2009/04/23 07:57:56.5     -18    -15     22     24     32 228.7  50.0  33988  286.66 0855.34
2009/04/23 07:57:56.5      -7    -10      7     13     14 216.1  35.5  33988  286.67 0855.34
2009/04/23 07:57:56.6      -3     -7     -4      8      9 205.4 -31.6  33988  286.67 0855.34
2009/04/23 07:57:56.7      -8     14     -8     17     18 331.0 -27.4  33988  286.66 0855.34
2009/04/23 07:57:56.8     -15      4     -6     16     18 288.2 -19.7  33990  286.71 0855.34
2009/04/23 07:57:56.9     -26      8    -13     28     30 288.6 -31.5  33992  286.73 0855.34
2009/04/23 07:57:57.0     -17     22    -17     28     32 322.2 -39.9  33992  286.73 0855.34
2009/04/23 07:57:57.1     -13     13    -14     19     23 315.0 -46.1  33990  286.71 0855.34
2009/04/23 07:57:57.2     -12     14    -13     19     23 318.6 -44.1  33992  286.73 0855.34
2009/04/23 07:57:57.3     -12     14    -13     19     23 318.6 -44.1  33992  286.73 0855.34
2009/04/23 07:57:57.4     -23     19      1     31     32 309.6   2.8  33988  286.67 0855.34
2009/04/23 07:57:57.6     -33     25     12     42     44 306.9  16.3  33988  286.66 0855.34
2009/04/23 07:57:57.7     -24     36     22     44     49 325.7  27.3  33988  286.67 0855.34
2009/04/23 07:57:57.7     -16     26     37     31     48 327.5  54.3  33990  286.69 0855.34
2009/04/23 07:57:57.8       0     23     32     24     40 359.1  59.4  33986  286.64 0855.34
2009/04/23 07:57:57.9      -4     22     35     23     41 348.4  63.6  33988  286.66 0855.34
2009/04/23 07:57:58.0      -4     45     39     46     60 354.7  43.8  33986  286.62 0855.34
2009/04/23 07:57:58.1     -10     37     24     39     45 344.9  35.5  33986  286.64 0855.34
2009/04/23 07:57:58.2     -14     46     19     49     52 342.2  22.0  33986  286.64 0855.34
2009/04/23 07:57:58.3     -10     38     16     40     43 344.9  22.0  33988  286.67 0855.34
2009/04/23 07:57:58.4     -13     52     11     54     56 345.7  12.2  33988  286.67 0855.34
2009/04/23 07:57:58.5       8     51      2     52     53   8.9   2.9  33990  286.69 0855.34
2009/04/23 07:57:58.6       8     64      5     65     66   7.1   4.9  33988  286.67 0855.34
2009/04/23 07:57:58.7       4     56     15     57     60   4.4  15.3  33988  286.66 0855.34
2009/04/23 07:57:58.8      -2     66     30     67     73 358.2  26.2  33986  286.62 0855.34
2009/04/23 07:57:58.9      -7     81     24     82     86 354.7  16.8  33984  286.59 0855.34
2009/04/23 07:57:59.0      -5     74     32     75     81 355.5  24.1  33980  286.54 0855.34
2009/04/23 07:57:59.1      -6     78     33     79     85 355.5  24.1  33980  286.54 0855.34
2009/04/23 07:57:59.2      -6     85     27     86     91 355.5  17.3  33982  286.56 0855.34
2009/04/23 07:57:59.3      19     83     28     86     91  13.4  17.9  33986  286.62 0855.34
2009/04/23 07:57:59.5       5     81     24     82     86   3.6  16.8  33986  286.64 0855.34
2009/04/23 07:57:59.6      -3     69     30     70     76 357.3  24.1  33986  286.62 0855.34
2009/04/23 07:57:59.7       3     61     23     62     66   3.6  20.0  33984  286.59 0855.34
2009/04/23 07:57:59.8       7     56     22     57     61   8.0  22.0  33982  286.56 0855.34
2009/04/23 07:57:59.9       8     65     28     66     71   7.1  24.1  33984  286.59 0855.34
2009/04/23 07:58:00.0       4     63     24     64     68   4.4  20.0  33984  286.61 0855.34
2009/04/23 07:58:00.1      11     58      1     60     61  11.5   1.8  33986  286.62 0855.34
2009/04/23 07:58:00.2      12     63     -8     65     66  11.5  -7.3  33986  286.64 0855.34
2009/04/23 07:58:00.3      27     58      5     65     66  25.5   4.9  33984  286.61 0855.34
2009/04/23 07:58:00.4      27     48     19     56     60  29.9  18.9  33984  286.59 0855.34
2009/04/23 07:58:00.5      28     59     28     66     71  25.5  24.1  33980  286.54 0855.34
2009/04/23 07:58:00.6      17     54     38     57     68  17.8  35.6  33978  286.49 0855.34
2009/04/23 07:58:00.7      22     67     44     71     83  18.3  34.4  33976  286.46 0855.34
2009/04/23 07:58:00.8      46     42     31     63     70  47.8  27.3  33982  286.56 0855.34
2009/04/23 07:58:00.9      33     33     26     48     54  45.0  31.4  33976  286.46 0855.34
2009/04/23 07:58:01.0      33     40     25     53     58  39.6  27.1  33974  286.44 0855.34
2009/04/23 07:58:01.1      32     47     24     57     61  34.3  23.1  33978  286.49 0855.34
2009/04/23 07:58:01.2      12     46     33     48     58  15.1  36.5  33978  286.49 0855.34
2009/04/23 07:58:01.3      38     47     21     61     65  38.7  18.9  33978  286.51 0855.34
2009/04/23 07:58:01.4      12     55     26     57     62  12.5  26.2  33978  286.51 0855.34
2009/04/23 07:58:01.5      18     55     32     59     67  18.7  31.3  33982  286.56 0855.34
2009/04/23 07:58:01.6      16     67     29     69     74  13.4  24.1  33980  286.54 0855.34
2009/04/23 07:58:01.7      13     64     26     66     70  11.5  23.0  33982  286.56 0855.34
2009/04/23 07:58:01.8      13     65     33     67     74  11.5  27.3  33980  286.52 0855.34
2009/04/23 07:58:01.9      18     55     32     59     67  18.7  31.3  33982  286.56 0855.34
2009/04/23 07:58:02.0      11     49     25     51     56  12.5  27.3  33982  286.56 0855.34
2009/04/23 07:58:02.1       4     45     19     46     49   6.2  23.0  33980  286.54 0855.34
2009/04/23 07:58:02.2      13     39     14     42     45  18.5  18.4  33978  286.51 0855.33
2009/04/23 07:58:02.3      44     14     30     47     55  71.6  35.5  33978  286.51 0855.33
2009/04/23 07:58:02.4      61     30     22     68     72  63.8  18.4  33976  286.46 0855.33
2009/04/23 07:58:02.5      66     22     33     70     77  71.6  27.1  33974  286.42 0855.33
2009/04/23 07:58:02.6      61     39     29     73     78  57.6  22.5  33970  286.37 0855.33
2009/04/23 07:58:02.7      65     41     33     77     83  57.6  24.1  33974  286.42 0855.33
2009/04/23 07:58:02.8      71     31     38     78     86  66.5  27.8  33974  286.42 0855.33
2009/04/23 07:58:02.9      75     20     46     78     90  75.0  33.5  33972  286.39 0855.33
2009/04/23 07:58:03.0      63     20     42     67     79  71.8  35.0  33968  286.32 0855.33
2009/04/23 07:58:03.1      64     22     55     68     87  70.9  43.3  33968  286.32 0855.33
2009/04/23 07:58:03.2      53     23     60     58     83  66.5  50.1  33968  286.32 0855.33
2009/04/23 07:58:03.3      35     32     56     48     73  46.9  55.4  33974  286.42 0855.33
2009/04/23 07:58:03.4      33     21     55     40     68  57.6  60.5  33976  286.47 0855.33
2009/04/23 07:58:03.5      57     30     50     65     82  62.0  41.7  33976  286.47 0855.33
2009/04/23 07:58:03.6      45     21     58     50     76  64.6  55.4  33972  286.39 0855.33
2009/04/23 07:58:03.7      45     16     63     48     79  70.0  59.0  33972  286.41 0855.33
2009/04/23 07:58:03.8      41     17     56     45     71  67.4  56.4  33970  286.37 0855.33
2009/04/23 07:58:03.9      41     17     56     45     71  67.4  56.4  33970  286.37 0855.33
2009/04/23 07:58:04.0      32      2     59     33     67  85.6  68.8  33972  286.39 0855.33
2009/04/23 07:58:04.1      21      9     52     23     56  66.5  75.0  33972  286.39 0855.33
2009/04/23 07:58:04.2      16     22     43     28     51  36.1  64.6  33972  286.41 0855.34
2009/04/23 07:58:04.3      16      6     44     18     47  68.3  77.1  33972  286.41 0855.34
2009/04/23 07:58:04.4       9     35     30     37     47  15.1  43.7  33978  286.49 0855.34
2009/04/23 07:58:04.5      12     39     26     41     48  17.8  35.5  33978  286.51 0855.34
2009/04/23 07:58:04.6       2     27     29     28     40   4.5  50.1  33976  286.47 0855.34
2009/04/23 07:58:04.7      -2     13     28     14     31 348.4  72.8  33978  286.49 0855.34
2009/04/23 07:58:04.8      -1     38     31     39     49 357.3  43.7  33976  286.46 0855.34
2009/04/23 07:58:04.9      -3     42     28     43     51 355.5  35.6  33974  286.42 0855.34
2009/04/23 07:58:05.0      -7     40     31     41     51 349.3  41.7  33972  286.41 0855.34
2009/04/23 07:58:05.1      -1     67     32     68     75 359.1  27.2  33974  286.44 0855.34
2009/04/23 07:58:05.2      -1     78     30     79     84 359.1  21.0  33976  286.47 0855.34
2009/04/23 07:58:05.3      -2     75     28     76     81 358.2  21.0  33974  286.42 0855.34
2009/04/23 07:58:05.4       2     66     23     67     71   1.8  18.9  33978  286.49 0855.34
2009/04/23 07:58:05.5      -1     66      3     67     68 359.1   2.9  33984  286.59 0855.34
2009/04/23 07:58:05.6       5     70      3     71     72   4.5   2.9  33984  286.59 0855.34
2009/04/23 07:58:05.7      16     65      4     68     69  14.3   3.8  33986  286.62 0855.34
2009/04/23 07:58:05.8      14     71      3     73     74  11.5   2.9  33984  286.59 0855.34
2009/04/23 07:58:05.9      11     58      1     60     61  11.5   1.8  33986  286.62 0855.34
2009/04/23 07:58:06.0      11     56    -11     58     60  11.5 -11.3  33984  286.61 0855.34
2009/04/23 07:58:06.1      11     53    -16     55     58  12.5 -16.6  33984  286.61 0855.34
2009/04/23 07:58:06.2       4     56     -5     57     58   4.4  -5.2  33984  286.59 0855.33
2009/04/23 07:58:06.3       3     48    -10     49     51   4.5 -12.4  33982  286.56 0855.33
2009/04/23 07:58:06.4      10     54      0     55     56  10.7   0.8  33980  286.52 0855.33
2009/04/23 07:58:06.5       9     45      8     46     47  11.6  10.1  33978  286.51 0855.33
2009/04/23 07:58:06.6       9     45      8     46     47  11.6  10.1  33978  286.51 0855.33
2009/04/23 07:58:06.7       8     42     12     43     45  11.6  16.3  33976  286.47 0855.33
2009/04/23 07:58:06.8       8     48     17     49     52   9.8  19.4  33974  286.44 0855.33
2009/04/23 07:58:06.9       3     50     24     51     56   3.6  27.1  33976  286.47 0855.33
2009/04/23 07:58:07.0       4     63     25     64     68   4.4  21.0  33976  286.47 0855.33
2009/04/23 07:58:07.1       4     55     18     56     60   4.4  18.4  33978  286.51 0855.33
2009/04/23 07:58:07.2      12     50     11     52     54  13.4  12.2  33980  286.52 0855.33
2009/04/23 07:58:07.3      13     45     13     48     50  16.9  15.3  33982  286.56 0855.33
2009/04/23 07:58:07.4      12     48     11     50     52  15.1  13.2  33980  286.54 0855.33
2009/04/23 07:58:07.5      11     43     11     45     47  15.1  14.3  33980  286.54 0855.33
2009/04/23 07:58:07.6       4     45     19     46     49   6.2  23.0  33980  286.54 0855.33
2009/04/23 07:58:07.7       6     46     17     47     49   8.0  20.0  33982  286.56 0855.33
2009/04/23 07:58:07.8      10     46     21     48     52  12.5  25.1  33988  286.66 0855.33
2009/04/23 07:58:07.9      30     39     24     50     55  37.0  27.3  33992  286.74 0855.33
2009/04/23 07:58:08.0      38     38     19     55     59  45.0  18.9  33992  286.74 0855.33
2009/04/23 07:58:08.1      22     39     28     46     53  29.9  35.5  33992  286.74 0855.33
2009/04/23 07:58:08.2      65     63     -3     91     92  45.6  -2.2  33992  286.74 0855.33
2009/04/23 07:58:08.3      81     38     -3     90     91  64.6  -2.2  33992  286.73 0855.33
2009/04/23 07:58:08.4      70     49     -7     86     87  54.9  -5.2  33992  286.73 0855.33
2009/04/23 07:58:08.5      72     40      1     83     84  61.1   1.2  33990  286.71 0855.33
2009/04/23 07:58:08.6      75     38    -24     85     88  62.9 -20.7  33992  286.73 0855.33
2009/04/23 07:58:08.7      73     29    -19     79     82  68.2 -13.9  33992  286.74 0855.33
2009/04/23 07:58:08.8      71     23      0     75     76  71.4  -0.3  33992  286.73 0855.33
2009/04/23 07:58:08.9      90     40     34     99    105  66.0  19.4  33990  286.71 0855.33
2009/04/23 07:58:09.0      80     50     37     95    101  57.6  22.5  33990  286.69 0855.33
2009/04/23 07:58:09.1      84     45     23     96     99  62.0  13.7  33986  286.64 0855.33
2009/04/23 07:58:09.2      65     38     20     76     79  59.3  14.7  33992  286.73 0855.33
2009/04/23 07:58:09.3      56     19     43     60     73  71.4  39.7  33990  286.71 0855.33
2009/04/23 07:58:09.4      65     25     79     70    105  68.3  53.7  33988  286.67 0855.33
2009/04/23 07:58:09.5      81     22     86     85    120  74.5  50.1  33986  286.64 0855.33
2009/04/23 07:58:09.6      94     37     99    102    142  68.2  49.4  33984  286.59 0855.33
2009/04/23 07:58:09.7     128     45     77    136    156  70.5  31.9  33984  286.59 0855.33
2009/04/23 07:58:09.8     111     52     63    123    138  64.8  29.3  33984  286.61 0855.33
2009/04/23 07:58:09.9      98     52     59    111    125  62.0  30.3  33984  286.59 0855.33
2009/04/23 07:58:10.0     112     49     48    123    132  66.5  22.0  33986  286.62 0855.33
2009/04/23 07:58:10.1     104     70     44    126    134  55.9  19.4  33984  286.59 0855.33
2009/04/23 07:58:10.2      81     63     59    103    118  52.2  32.4  33984  286.59 0855.33
2009/04/23 07:58:10.3     121     19     83    123    148  80.8  37.4  33984  286.61 0855.33
2009/04/23 07:58:10.4     145     36     86    150    172  75.8  32.7  33986  286.62 0855.33
2009/04/23 07:58:10.5     166     66     49    179    186  68.2  15.3  33984  286.61 0855.33
2009/04/23 07:58:10.6     163     76     22    181    183  64.9   7.2  33988  286.66 0855.33
2009/04/23 07:58:10.7     147     48     28    155    158  71.8  10.3  33988  286.67 0855.33
2009/04/23 07:58:10.8     146     41     27    152    155  74.1  10.3  33986  286.64 0855.33
2009/04/23 07:58:10.9     120     76     22    143    145  57.6   8.9  33990  286.71 0855.33
2009/04/23 07:58:11.0     136     69     39    153    158  62.9  14.3  33994  286.78 0855.33
2009/04/23 07:58:11.1     123     93      7    155    156  52.7   2.9  33992  286.73 0855.33
2009/04/23 07:58:11.2     110     79     16    136    137  54.0   6.9  33992  286.74 0855.33
2009/04/23 07:58:11.3     119     81     13    145    146  55.8   5.4  33988  286.67 0855.33
2009/04/23 07:58:11.4     109     93     21    144    146  49.6   8.5  33990  286.71 0855.33
2009/04/23 07:58:11.5     114    114     44    162    168  45.0  15.3  33994  286.76 0855.33
2009/04/23 07:58:11.6     116    108     59    159    169  46.9  21.0  33990  286.69 0855.33
2009/04/23 07:58:11.7     101     83     67    131    147  50.5  29.2  33990  286.69 0855.33
2009/04/23 07:58:11.8      95     42     73    105    127  66.0  38.0  33974  286.42 0855.33
2009/04/23 07:58:11.9      63     58     61     86    105  47.3  39.1  33982  286.56 0855.33
2009/04/23 07:58:12.0      42     86     60     96    113  26.3  35.5  33984  286.59 0855.33
2009/04/23 07:58:12.1      35     30     57     47     73  49.6  56.3  33976  286.47 0855.33
2009/04/23 07:58:12.2      69     14     74     71    102  78.6  51.2  33974  286.44 0855.33
2009/04/23 07:58:12.3      65      4     84     66    106  86.5  57.5  33976  286.46 0855.33
2009/04/23 07:58:12.4      42     11     35     44     56  74.9  43.7  33976  286.46 0855.33
2009/04/23 07:58:12.5      61    -35     56     71     90 119.8  42.7  33980  286.54 0855.33
2009/04/23 07:58:12.6      81    -68     30    106    111 130.0  15.8  33976  286.46 0855.33
2009/04/23 07:58:12.7      76    -30     38     82     90 111.7  27.1  33972  286.41 0855.33
2009/04/23 07:58:12.8      50     -3     45     51     68  94.3  47.9  33974  286.44 0855.33
2009/04/23 07:58:12.9      40      8     33     41     52  78.5  43.7  33974  286.42 0855.33
2009/04/23 07:58:13.0      31      0     38     32     49  90.0  56.3  33978  286.49 0855.33
2009/04/23 07:58:13.1      12     -8     33     15     36 126.0  73.1  33974  286.42 0855.33
2009/04/23 07:58:13.2      -7    -22     24     24     33 198.3  50.1  33978  286.49 0855.33
2009/04/23 07:58:13.3     -12    -31     33     34     47 201.8  51.1  33978  286.49 0855.33
2009/04/23 07:58:13.4       0    -25     22     26     34 179.1  45.8  33976  286.46 0855.33
2009/04/23 07:58:13.5       0     -6     19      7     20 184.5  79.2  33976  286.47 0855.33
2009/04/23 07:58:13.6       9    -26      2     28     29 160.0   4.9  33976  286.46 0855.33
2009/04/23 07:58:13.7      17     -5     17     18     24 108.2  52.0  33976  286.46 0855.33
2009/04/23 07:58:13.8      38     12     24     40     46  72.3  34.4  33974  286.42 0855.33
2009/04/23 07:58:13.9      47     -8     15     48     51  99.7  17.3  33974  286.42 0855.33
2009/04/23 07:58:14.0      46     -7     31     47     56  98.8  35.6  33972  286.41 0855.33
2009/04/23 07:58:14.1      14     -2     22     15     26 101.5  64.6  33976  286.46 0855.33
2009/04/23 07:58:14.2     -17     -9     19     20     27 241.1  52.0  33976  286.47 0855.33
2009/04/23 07:58:14.3     -32     -7     22     33     39 256.7  36.5  33978  286.51 0855.33
2009/04/23 07:58:14.4     -32    -12     36     35     50 248.3  49.1  33982  286.56 0855.33
2009/04/23 07:58:14.5     -41    -36     29     55     62 228.7  30.3  33978  286.51 0855.33
2009/04/23 07:58:14.6     -47    -41    -32     63     70 228.7 -32.6  33982  286.57 0855.33
2009/04/23 07:58:14.7     -56      0    -41     57     70 269.2 -44.1  33980  286.52 0855.33
2009/04/23 07:58:14.8     -83    -21    -33     86     92 255.8 -25.9  33986  286.64 0855.33
2009/04/23 07:58:14.9     -68    -29    -31     75     81 246.5 -28.0  33988  286.66 0855.33
2009/04/23 07:58:15.0     -69    -37    -37     79     87 242.0 -31.0  33990  286.69 0855.33
2009/04/23 07:58:15.1     -71    -32    -26     79     83 245.6 -23.3  33990  286.71 0855.33
2009/04/23 07:58:15.2     -61    -51    -40     80     89 230.4 -32.6  33992  286.73 0855.33
2009/04/23 07:58:15.3     -49    -40    -48     64     80 230.5 -45.1  33988  286.67 0855.33
2009/04/23 07:58:15.4     -63    -40    -57     75     94 237.5 -45.6  33988  286.67 0855.33
2009/04/23 07:58:15.5     -47    -51    -52     70     87 223.2 -45.1  33988  286.66 0855.33
2009/04/23 07:58:15.6     -21    -46    -41     51     65 205.4 -48.1  33986  286.64 0855.33
2009/04/23 07:58:15.7      -8    -48    -34     49     59 189.8 -43.0  33988  286.66 0855.33
2009/04/23 07:58:15.8       0    -55    -31     56     64 180.9 -35.8  33986  286.64 0855.33
2009/04/23 07:58:15.9      -3    -60     -1     61     62 183.6  -1.2  33986  286.64 0855.33
2009/04/23 07:58:16.0       4    -87     28     88     93 177.3  17.9  33990  286.71 0855.33
2009/04/23 07:58:16.1      -4    -89     36     90     96 182.7  22.5  33992  286.73 0855.33
2009/04/23 07:58:16.2     -18    -81      9     84     85 192.9   6.5  33990  286.71 0855.33
2009/04/23 07:58:16.3     -34    -71      0     79     80 205.5  -0.3  33990  286.71 0855.33
2009/04/23 07:58:16.4     -39    -82     -2     91     92 205.4  -1.3  33990  286.69 0855.33
2009/04/23 07:58:16.5     -28    -82      8     87     88 199.2   5.4  33990  286.69 0855.33
2009/04/23 07:58:16.6     -28    -99     12    104    105 196.0   6.9  33988  286.67 0855.33
2009/04/23 07:58:16.7     -42   -128     53    135    145 198.5  23.0  33992  286.73 0855.33
2009/04/23 07:58:16.8     -31   -128     56    132    143 193.8  24.1  33996  286.79 0855.33
2009/04/23 07:58:16.9     -23   -118     51    121    131 191.1  24.6  33994  286.76 0855.33
2009/04/23 07:58:17.0       1   -107     50    108    119 179.1  27.1  33996  286.79 0855.33
2009/04/23 07:58:17.1       8    -91     57     92    108 174.7  35.5  33994  286.78 0855.33
2009/04/23 07:58:17.2      18    -78     58     81     99 167.1  39.5  33998  286.83 0855.33
2009/04/23 07:58:17.3      24    -70     73     75    104 160.8  50.0  33996  286.81 0855.33
2009/04/23 07:58:17.4     -21    -89     66     92    113 193.4  39.5  33994  286.76 0855.33
2009/04/23 07:58:17.5     -17    -72     42     75     85 193.4  31.9  33996  286.79 0855.33
2009/04/23 07:58:17.6     -17    -67     31     70     76 194.3  25.1  33994  286.78 0855.33
2009/04/23 07:58:17.7     -19    -64     29     67     73 196.9  25.1  33992  286.74 0855.33
2009/04/23 07:58:17.8     -23    -69      8     73     74 198.7   6.9  33992  286.74 0855.33
2009/04/23 07:58:17.9     -28    -90      0     95     96 197.4  -0.3  33990  286.71 0855.33
2009/04/23 07:58:18.0      -4    -80     21     81     84 183.1  14.7  33992  286.73 0855.33
2009/04/23 07:58:18.1     -20    -79     30     82     87 194.7  20.4  33992  286.73 0855.33
2009/04/23 07:58:18.2     -32    -90      4     96     97 199.6   2.8  33990  286.69 0855.33
2009/04/23 07:58:18.3     -21    -83      9     86     87 194.7   6.5  33994  286.76 0855.33
2009/04/23 07:58:18.4     -11    -92      4     93     94 187.1   2.8  33996  286.79 0855.33
2009/04/23 07:58:18.5       0    -86     34     87     93 180.4  22.0  33996  286.79 0855.33
2009/04/23 07:58:18.6       0    -99      2    100    101 180.0   1.2  33996  286.79 0855.33
2009/04/23 07:58:18.7      16   -109     44    111    119 171.5  22.5  33998  286.83 0855.33
2009/04/23 07:58:18.8       5   -117     43    118    125 177.3  20.4  33996  286.81 0855.33
2009/04/23 07:58:18.9       0   -100     54    101    114 180.0  30.8  34000  286.88 0855.33
2009/04/23 07:58:19.0      42    -72     75     84    112 149.3  46.9  33994  286.78 0855.33
2009/04/23 07:58:19.1      28    -85     67     90    112 161.7  40.1  33996  286.81 0855.33
2009/04/23 07:58:19.2      12    -90     76     91    118 172.0  44.3  33998  286.84 0855.34
2009/04/23 07:58:19.3       0   -100     59    101    116 180.0  33.5  33996  286.81 0855.34
2009/04/23 07:58:19.4      -7    -97     66     98    118 184.4  37.4  33996  286.81 0855.34
2009/04/23 07:58:19.5      -2   -104     57    105    119 181.4  31.3  33994  286.78 0855.34
2009/04/23 07:58:19.6      -5   -126     49    127    136 182.6  22.0  34000  286.88 0855.34
2009/04/23 07:58:19.7     -11   -114     54    115    127 185.8  27.1  33998  286.84 0855.34
2009/04/23 07:58:19.8      -3   -117     62    118    133 181.8  29.8  33998  286.83 0855.34
2009/04/23 07:58:19.9     -21   -114     73    117    137 190.7  35.5  33998  286.84 0855.34
2009/04/23 07:58:20.0     -17   -108     60    110    125 188.9  31.4  33996  286.81 0855.34
2009/04/23 07:58:20.1     -14   -101     40    103    110 188.0  22.5  33998  286.83 0855.34
2009/04/23 07:58:20.2      13    -93     18     94     96 172.0  11.1  33996  286.79 0855.34
2009/04/23 07:58:20.3       7    -95     26     96    100 175.6  15.3  33994  286.76 0855.34
2009/04/23 07:58:20.4       0    -97     15     98    100 179.5   9.0  33996  286.81 0855.34
2009/04/23 07:58:20.5       2    -89      4     90     91 178.2   2.9  33994  286.78 0855.34
2009/04/23 07:58:20.6      16    -82     21     84     87 168.4  14.3  33994  286.78 0855.34
2009/04/23 07:58:20.7      21    -83     18     86     89 165.7  12.2  33996  286.79 0855.34
2009/04/23 07:58:20.8      21    -67     21     71     75 162.2  16.3  33996  286.79 0855.34
2009/04/23 07:58:20.9      21    -64     14     68     70 161.5  12.2  33996  286.81 0855.34
2009/04/23 07:58:21.0      20    -65      3     69     70 163.1   2.9  33996  286.79 0855.34
2009/04/23 07:58:21.1      11    -72      3     73     74 171.1   2.8  33994  286.76 0855.34
2009/04/23 07:58:21.2      15    -57     15     60     62 164.9  14.3  33996  286.79 0855.34
2009/04/23 07:58:21.3      10    -54     16     55     58 169.3  16.3  33996  286.81 0855.34
2009/04/23 07:58:21.4       5    -48     -1     49     50 173.8  -2.2  33994  286.78 0855.34
2009/04/23 07:58:21.5       4    -54      7     55     56 175.6   8.0  33994  286.76 0855.34
2009/04/23 07:58:21.6       5    -48     -1     49     50 173.8  -2.2  33994  286.78 0855.34
2009/04/23 07:58:21.7       9    -56    -11     57     59 170.2 -11.3  33994  286.78 0855.34
2009/04/23 07:58:21.8      13    -53     -7     55     56 165.7  -7.3  33992  286.74 0855.34
2009/04/23 07:58:21.9      26    -58      3     64     65 155.5   2.9  33994  286.78 0855.34
2009/04/23 07:58:22.0      21    -54     -7     59     60 158.2  -7.2  33996  286.81 0855.34
2009/04/23 07:58:22.1      19    -75    -20     78     81 165.7 -15.0  33992  286.74 0855.34
2009/04/23 07:58:22.2      29    -75      6     81     82 158.6   4.4  33994  286.78 0855.34
2009/04/23 07:58:22.3      29    -75      6     81     82 158.6   4.4  33994  286.78 0855.34
2009/04/23 07:58:22.4      27    -67     14     73     75 158.2  11.1  33996  286.79 0855.34
2009/04/23 07:58:22.5       6    -70     28     71     76 174.7  22.0  33996  286.79 0855.34
2009/04/23 07:58:22.6       5    -64     25     65     69 175.5  22.0  33996  286.79 0855.34
2009/04/23 07:58:22.7       5    -72     25     73     78 175.6  18.9  33996  286.81 0855.34
2009/04/23 07:58:22.8     -17    -73     40     76     85 193.4  30.3  33998  286.83 0855.34
2009/04/23 07:58:22.9     -12    -95     34     96    101 187.6  20.0  33996  286.79 0855.34
2009/04/23 07:58:23.0      -1    -70     46     71     84 180.9  35.6  33996  286.79 0855.34
2009/04/23 07:58:23.1      -5    -70     49     71     86 184.5  38.0  33998  286.83 0855.34
2009/04/23 07:58:23.2      -3    -57     51     58     77 183.6  45.8  33996  286.79 0855.34
2009/04/23 07:58:23.3     -18    -51     53     55     76 199.2  50.0  33994  286.78 0855.34
2009/04/23 07:58:23.4     -26    -46     39     54     66 209.9  39.5  33998  286.83 0855.34
2009/04/23 07:58:23.5     -35    -43     27     56     62 219.7  27.2  33996  286.79 0855.34
2009/04/23 07:58:23.6     -47    -50     26     69     73 223.3  20.0  33994  286.78 0855.34
2009/04/23 07:58:23.7     -45    -55     29     72     77 219.6  23.0  33996  286.79 0855.34
2009/04/23 07:58:23.8     -29    -61     24     68     73 205.5  19.4  33996  286.79 0855.34
2009/04/23 07:58:23.9     -23    -61     22     66     70 200.9  18.9  33996  286.79 0855.34
2009/04/23 07:58:24.0     -39    -66      5     77     78 210.7   3.8  33994  286.78 0855.34
2009/04/23 07:58:24.1     -45    -68     13     82     84 213.4   9.0  33996  286.81 0855.34
2009/04/23 07:58:24.2     -66    -66     -2     94     95 225.0  -1.3  33992  286.74 0855.34
2009/04/23 07:58:24.3     -56    -71     -9     91     92 218.3  -6.2  33996  286.79 0855.34
2009/04/23 07:58:24.4     -20    -80    -19     83     86 194.3 -12.9  33996  286.79 0855.34
2009/04/23 07:58:24.5     -10    -79    -22     80     84 187.6 -15.5  33994  286.78 0855.34
2009/04/23 07:58:24.6     -10    -70    -13     71     73 188.9 -10.3  33996  286.79 0855.34
2009/04/23 07:58:24.7     -22   -109      5    112    113 191.5   2.9  33996  286.79 0855.34
2009/04/23 07:58:24.8     -40   -121      1    128    129 198.3   0.8  33994  286.76 0855.34
2009/04/23 07:58:24.9     -41   -124      0    131    132 198.7   0.2  33994  286.78 0855.34
2009/04/23 07:58:25.0     -34   -123     -5    128    129 195.6  -2.2  33994  286.78 0855.34
2009/04/23 07:58:25.1     -42   -125    -10    132    133 198.7  -4.6  33996  286.79 0855.34
2009/04/23 07:58:25.2     -46   -118     -2    127    128 201.4  -1.3  33996  286.81 0855.34
2009/04/23 07:58:25.3     -51   -120    -14    131    132 203.2  -6.2  33996  286.81 0855.34
2009/04/23 07:58:25.4     -52   -106      1    119    120 206.3   0.8  33994  286.78 0855.34
2009/04/23 07:58:25.5     -29    -82     30     88     94 199.6  18.9  33994  286.76 0855.34
2009/04/23 07:58:25.6     -25    -63     50     68     84 201.8  40.1  33994  286.78 0855.34
2009/04/23 07:58:25.7     -18    -39     69     44     81 205.4  64.7  33996  286.79 0855.34
2009/04/23 07:58:25.8      -4    -53     69     54     87 184.4  57.9  33996  286.79 0855.34
2009/04/23 07:58:25.9     -15    -58     71     61     93 195.2  54.8  33994  286.78 0855.34
2009/04/23 07:58:26.0     -12    -60    100     62    117 191.6  65.1  33996  286.79 0855.34
2009/04/23 07:58:26.1      -5    -82     84     83    118 183.6  50.1  33992  286.74 0855.34
2009/04/23 07:58:26.2       0    -61     59     62     85 179.1  49.0  33990  286.71 0855.34
2009/04/23 07:58:26.3      26    -17     59     32     67 124.2  68.9  33992  286.74 0855.34
2009/04/23 07:58:26.4      24      4     50     25     55  80.3  71.9  33992  286.73 0855.34
2009/04/23 07:58:26.5       4      5     65      7     65  39.6  90.0  33992  286.74 0855.34
2009/04/23 07:58:26.6      30     -3     77     31     83  96.1  77.1  33988  286.67 0855.34
2009/04/23 07:58:26.7      -4     12     48     13     49 341.7  84.9  33990  286.71 0855.34
2009/04/23 07:58:26.8      -7      6     44     10     45 313.1  88.0  33992  286.73 0855.34
2009/04/23 07:58:27.0      91    -39     74    100    124 113.5  40.1  33990  286.69 0855.34
2009/04/23 07:58:27.1      96    -74     88    122    150 127.8  39.7  33992  286.73 0855.34
2009/04/23 07:58:27.3      81    -75     74    111    133 133.1  36.5  33992  286.74 0855.34
2009/04/23 07:58:27.4     140    -28     66    143    157 101.5  26.4  33992  286.74 0855.34
2009/04/23 07:58:27.5     177   -102     44    205    210 120.0  12.2  33992  286.74 0855.34
2009/04/23 07:58:27.6     181   -131     89    224    241 125.9  22.8  33994  286.75 0855.34
2009/04/23 07:58:27.7      95   -173    138    198    241 151.3  38.4  33994  286.78 0855.34
2009/04/23 07:58:27.8      89   -181    120    202    234 153.7  33.5  33994  286.78 0855.34
2009/04/23 07:58:27.9      48   -209    102    215    237 166.9  27.2  33994  286.76 0855.34
2009/04/23 07:58:28.0      34   -190     96    194    216 169.8  28.2  33996  286.79 0855.34
2009/04/23 07:58:28.1     -37   -158    104    163    193 193.1  35.5  33992  286.74 0855.34
2009/04/23 07:58:28.2     -52   -140     53    150    160 200.5  19.4  33994  286.76 0855.34
2009/04/23 07:58:28.3     -70   -157    -21    172    174 204.1  -7.2  33996  286.81 0855.34
2009/04/23 07:58:28.4     -19   -170     -8    172    173 186.5  -2.8  33994  286.78 0855.34
2009/04/23 07:58:28.5     -42   -140    -14    147    148 197.0  -5.6  33994  286.78 0855.34
2009/04/23 07:58:28.6      11   -185     28    186    189 176.4   8.8  33992  286.73 0855.34
2009/04/23 07:58:28.7      92   -151     54    178    187 148.6  17.1  33994  286.78 0855.34
2009/04/23 07:58:28.8      76   -140     66    160    173 151.5  23.6  33994  286.78 0855.34
2009/04/23 07:58:28.9      66   -140     57    155    165 154.7  20.7  33994  286.78 0855.34
2009/04/23 07:58:29.0      34   -145     -4    149    150 166.7  -1.8  33992  286.74 0855.34
2009/04/23 07:58:29.1      33   -119    -69    124    141 164.4 -35.8  33994  286.76 0855.34
2009/04/23 07:58:29.2      49   -107    -54    118    129 155.1 -31.0  33994  286.78 0855.34
2009/04/23 07:58:29.3      31   -107    -78    112    136 163.5 -43.0  33994  286.78 0855.33
2009/04/23 07:58:29.4      50   -100    -62    113    128 153.3 -35.7  33994  286.76 0855.33
2009/04/23 07:58:29.5      38    -84    -43     93    102 155.5 -31.0  33992  286.74 0855.33
2009/04/23 07:58:29.6      38    -59    -22     71     74 147.4 -23.8  33994  286.78 0855.33
2009/04/23 07:58:29.7      81    -46    -27     94     97 119.8 -21.2  33994  286.78 0855.33
2009/04/23 07:58:29.8      61    -67      7     91     92 137.7   4.9  33994  286.76 0855.33
2009/04/23 07:58:29.9      78    -60     26     99    103 127.8  15.2  33994  286.76 0855.33
2009/04/23 07:58:30.0      96    -58     11    113    114 121.1   5.9  33996  286.79 0855.33
2009/04/23 07:58:30.1     108    -36     13    114    115 108.6   6.9  33994  286.78 0855.33
2009/04/23 07:58:30.2      71    -23     -9     75     76 108.2  -7.3  33992  286.73 0855.33
2009/04/23 07:58:30.3      79    -19    -29     82     88 103.7 -19.7  33994  286.78 0855.33
2009/04/23 07:58:30.4      78    -10    -19     79     82  97.9 -13.4  33994  286.76 0855.33
2009/04/23 07:58:30.5      75    -10      3     76     77  97.9   2.8  33990  286.71 0855.33
2009/04/23 07:58:30.6      49    -15     28     52     59 107.7  31.3  33992  286.74 0855.33
2009/04/23 07:58:30.7      51    -10     38     53     65 101.5  39.5  33992  286.74 0855.33
2009/04/23 07:58:30.8      62     11     10     64     65  79.4   9.0  33994  286.76 0855.33
2009/04/23 07:58:30.9      72     14     -4     74     75  78.5  -3.2  33992  286.74 0855.33
2009/04/23 07:58:31.0      87      2     10     88     89  88.3   6.9  33992  286.73 0855.33
2009/04/23 07:58:31.1     116     24     58    119    132  78.1  27.3  33990  286.69 0855.33
2009/04/23 07:58:31.2      61      4     73     62     95  85.6  55.8  33992  286.74 0855.33
2009/04/23 07:58:31.3      73    -17     65     76    100 103.3  44.8  33992  286.73 0855.33
2009/04/23 07:58:31.4     119     -9     57    120    132  94.4  27.1  33990  286.71 0855.33
2009/04/23 07:58:31.5      86    -71     66    112    130 129.5  33.5  33992  286.73 0855.33
2009/04/23 07:58:31.6      45   -112     71    121    140 158.1  33.4  33990  286.69 0855.33
2009/04/23 07:58:31.7      56   -208    125    216    249 164.9  32.7  33990  286.68 0855.33
2009/04/23 07:58:31.8      75   -192    150    207    255 158.6  39.7  33988  286.67 0855.33
2009/04/23 07:58:31.9      18   -216    173    217    277 175.1  42.7  33986  286.63 0855.33
2009/04/23 07:58:32.0      16   -228    158    229    278 175.8  37.8  33988  286.67 0855.33
2009/04/23 07:58:32.1       9   -252    121    253    280 177.8  27.3  33988  286.67 0855.33
2009/04/23 07:58:32.2      23   -273     54    275    281 175.1  11.1  33986  286.63 0855.33
2009/04/23 07:58:32.3      33   -194     19    197    198 170.2   5.7  33984  286.59 0855.33
2009/04/23 07:58:32.4      16   -210     54    211    218 175.5  14.5  33986  286.64 0855.33
2009/04/23 07:58:32.5      34   -163     23    167    169 168.2   8.0  33986  286.62 0855.33
2009/04/23 07:58:32.6      32   -154    -55    158    168 168.0 -19.4  33988  286.66 0855.33
2009/04/23 07:58:32.7      63   -173      0    185    186 160.0   0.2  33988  286.66 0855.33
2009/04/23 07:58:32.8      86   -236     21    252    253 159.9   5.0  33988  286.67 0855.33
2009/04/23 07:58:32.9      71   -181     47    195    201 158.6  13.7  33982  286.56 0855.33
2009/04/23 07:58:33.0     156   -179     46    238    243 139.0  11.0  33986  286.62 0855.33
2009/04/23 07:58:33.1      94   -185     78    208    222 152.9  21.5  33986  286.64 0855.33
2009/04/23 07:58:33.2      87   -128     70    155    170 145.7  26.2  33984  286.61 0855.33
2009/04/23 07:58:33.3      82   -113     91    140    166 143.9  36.0  33990  286.69 0855.33
2009/04/23 07:58:33.4      17     -9     13     20     23 118.9  35.5  33986  286.64 0855.33
2009/04/23 07:58:33.5     127    -82     17    152    153 122.9   6.5  33988  286.66 0855.33
2009/04/23 07:58:33.6     136    -99     27    169    172 126.0   9.3  33988  286.66 0855.33
2009/04/23 07:58:33.7     161    -88     10    184    185 118.9   3.3  33984  286.61 0855.33
2009/04/23 07:58:33.8     202    -60     57    211    219 106.6  15.2  33986  286.64 0855.33
2009/04/23 07:58:33.9     226    -30     83    229    243  97.7  20.7  33982  286.57 0855.33
2009/04/23 07:58:34.0     231     15     63    232    241  86.3  15.3  33984  286.58 0855.33
2009/04/23 07:58:34.1     221     37     80    225    239  80.3  19.6  33978  286.50 0855.33
2009/04/23 07:58:34.2     166     -5     34    167    171  91.9  11.6  33976  286.47 0855.33
2009/04/23 07:58:34.3     191     14     55    192    200  85.6  16.0  33982  286.56 0855.34
2009/04/23 07:58:34.4     109     -1     58    110    124  90.8  30.3  33978  286.49 0855.34
2009/04/23 07:58:34.5     127      0     86    128    154  90.0  37.0  33978  286.49 0855.34
2009/04/23 07:58:34.6     128      2     48    129    137  88.7  21.0  33980  286.54 0855.34
2009/04/23 07:58:34.7     129    -44     62    137    150 109.1  26.2  33980  286.52 0855.34
2009/04/23 07:58:34.8      68    -68     81     97    126 135.0  44.3  33978  286.51 0855.34
2009/04/23 07:58:34.9      83   -167    138    187    232 153.5  39.7  33970  286.35 0855.34
2009/04/23 07:58:35.0      62   -160     87    172    192 158.8  28.7  33978  286.49 0855.34
2009/04/23 07:58:35.1     122   -125     48    175    182 135.7  15.3  33978  286.49 0855.34
2009/04/23 07:58:35.2      41   -123    -35    130    135 161.3 -15.4  33974  286.44 0855.34
2009/04/23 07:58:35.3     105   -110    -20    153    155 136.3  -7.7  33978  286.49 0855.34
2009/04/23 07:58:35.4      82    -68    -16    107    109 129.6  -8.8  33978  286.49 0855.34
2009/04/23 07:58:35.5      76   -100      3    126    127 142.6   1.8  33980  286.52 0855.34
2009/04/23 07:58:35.6      52    -52     -4     74     75 135.0  -3.2  33980  286.52 0855.34
2009/04/23 07:58:35.7       9    -27     -9     29     30 160.0 -23.8  33978  286.51 0855.34
2009/04/23 07:58:35.8      -6    -62      0     63     64 186.2   0.8  33978  286.51 0855.34
2009/04/23 07:58:35.9      16    -50     41     53     67 161.3  41.7  33978  286.51 0855.34
2009/04/23 07:58:36.0      52    -39     61     66     89 126.9  47.9  33978  286.51 0855.34
2009/04/23 07:58:36.1      50      7    -15     51     53  81.2 -22.8  33978  286.51 0855.34
2009/04/23 07:58:36.2      75     10    -41     76     86  82.1 -35.2  33978  286.51 0855.34
2009/04/23 07:58:36.3      90      3    -33     91     96  87.9 -24.4  33980  286.54 0855.34
2009/04/23 07:58:36.4      73     -5    -12     74     76  94.4  -9.3  33982  286.56 0855.34
2009/04/23 07:58:36.5      81   -104     10    132    133 142.2   4.4  33980  286.52 0855.34
2009/04/23 07:58:36.6     143   -147    -57    206    214 135.7 -15.5  33980  286.54 0855.34
2009/04/23 07:58:36.7     156   -138     70    209    221 131.6  18.6  33978  286.51 0855.34
2009/04/23 07:58:36.8     186    -62     19    197    198 108.6   5.7  33980  286.52 0855.34
2009/04/23 07:58:36.9     170   -118     56    208    216 124.9  15.3  33974  286.42 0855.34
2009/04/23 07:58:37.0     185      0    -20    186    188  90.1  -6.2  33980  286.52 0855.34
2009/04/23 07:58:37.1     108    -83     73    137    155 127.8  30.8  33976  286.46 0855.34
2009/04/23 07:58:37.2     140    -46     84    148    170 108.4  32.1  33974  286.44 0855.34
2009/04/23 07:58:37.3      88    -56    107    105    149 122.4  50.1  33974  286.42 0855.34
2009/04/23 07:58:37.4      44    -50     75     67    100 138.6  53.3  33976  286.46 0855.34
2009/04/23 07:58:37.5      14    -41     57     44     72 160.8  57.5  33974  286.42 0855.34
2009/04/23 07:58:37.6      36    -15     62     40     73 113.5  64.6  33978  286.49 0855.34
2009/04/23 07:58:37.7      24    -12     91     28     95 117.1  81.8  33980  286.52 0855.34
2009/04/23 07:58:37.8      50     32     84     60    103  57.6  61.1  33980  286.54 0855.34
2009/04/23 07:58:37.9      26     23     66     35     74  48.7  69.8  33982  286.56 0855.34
2009/04/23 07:58:38.0      24     19     50     31     58  52.2  64.7  33980  286.54 0855.34
2009/04/23 07:58:38.1      17     22     57     28     63  37.8  72.8  33982  286.57 0855.34
2009/04/23 07:58:38.2      24     25     52     35     62  43.4  62.6  33982  286.56 0855.34
2009/04/23 07:58:38.3      70     33     55     78     95  64.6  38.0  33980  286.54 0855.34
2009/04/23 07:58:38.4      58     48     43     76     87  50.5  32.4  33982  286.56 0855.34
2009/04/23 07:58:38.5      63     47     34     79     86  53.1  24.6  33978  286.51 0855.34
2009/04/23 07:58:38.6      84     56     30    102    107  56.3  16.3  33980  286.52 0855.34
2009/04/23 07:58:38.7      72     46     37     86     93  57.5  24.6  33982  286.56 0855.34
2009/04/23 07:58:38.8      62     62     15     88     90  45.0  10.1  33982  286.57 0855.34
2009/04/23 07:58:38.9      85     49     34     99    105  59.8  18.9  33980  286.54 0855.34
2009/04/23 07:58:39.0      82     47     28     95    100  60.2  16.8  33980  286.54 0855.34
2009/04/23 07:58:39.1      71     33     27     79     84  64.6  19.2  33980  286.52 0855.34
2009/04/23 07:58:39.2      55     45     24     72     77  50.4  18.9  33978  286.51 0855.34
2009/04/23 07:58:39.3      76     64     34    100    106  50.0  19.2  33980  286.54 0855.34
2009/04/23 07:58:39.4      74     67     35    101    108  47.8  19.4  33980  286.54 0855.34
2009/04/23 07:58:39.5      72     74     21    104    107  44.5  11.6  33978  286.49 0855.34
2009/04/23 07:58:39.6      77     83     17    114    116  42.8   8.5  33980  286.54 0855.34
2009/04/23 07:58:39.7      74     65     35     99    106  48.7  19.4  33980  286.52 0855.34
2009/04/23 07:58:39.8      79     26     37     84     91  71.6  25.1  33980  286.54 0855.34
2009/04/23 07:58:39.9      84      7     56     85    101  84.8  36.5  33978  286.49 0855.34
2009/04/23 07:58:40.0      91    -22     68     94    116 103.7  39.7  33978  286.49 0855.34
2009/04/23 07:58:40.1      88    -46     66    100    119 118.0  37.0  33978  286.49 0855.34
2009/04/23 07:58:40.2     148    -35    111    153    189 103.3  39.7  33974  286.44 0855.34
2009/04/23 07:58:40.3     102    -24    118    105    157 103.7  53.7  33974  286.44 0855.33
2009/04/23 07:58:40.4      53     49     98     73    122  46.8  59.4  33974  286.44 0855.33
2009/04/23 07:58:40.5      11    -10     90     16     91 133.3  90.0  33976  286.47 0855.33
2009/04/23 07:58:40.6      71     12    101     73    124  80.3  60.6  33976  286.46 0855.33
2009/04/23 07:58:40.7      84     10     89     85    123  83.0  51.2  33974  286.44 0855.33
2009/04/23 07:58:40.8      97     64     62    117    132  56.3  29.8  33976  286.46 0855.33
2009/04/23 07:58:40.9      83     77     55    114    126  47.3  27.3  33976  286.47 0855.33
2009/04/23 07:58:41.0      67     67     43     95    104  45.0  26.2  33976  286.46 0855.33
2009/04/23 07:58:41.1      54     71     33     90     95  37.0  20.4  33972  286.41 0855.33
2009/04/23 07:58:41.2      50     69     -1     86     87  36.1  -1.3  33976  286.46 0855.33
2009/04/23 07:58:41.3      37     73      1     83     84  27.2   1.2  33974  286.44 0855.33
2009/04/23 07:58:41.4      23     70     41     74     84  18.3  31.9  33970  286.37 0855.33
2009/04/23 07:58:41.5     -53     48     54     72     90 312.2  41.2  33972  286.39 0855.33
2009/04/23 07:58:41.6     -72     49     53     88    102 304.6  34.0  33972  286.39 0855.33
2009/04/23 07:58:41.7    -139     13     48    140    149 275.7  19.2  33972  286.39 0855.33
2009/04/23 07:58:41.8     -89     41     35     99    106 294.8  19.4  33970  286.37 0855.33
2009/04/23 07:58:41.9     -49     87     47    100    110 330.6  27.1  33972  286.39 0855.33
2009/04/23 07:58:42.0      54     25     68     60     90  64.6  54.3  33970  286.37 0855.33
2009/04/23 07:58:42.1     112     26     94    116    149  76.7  43.7  33974  286.42 0855.33
2009/04/23 07:58:42.2      91     50    112    105    153  61.1  52.1  33972  286.41 0855.33
2009/04/23 07:58:42.3       8      2     97      9     97  71.8  90.0  33974  286.44 0855.33
2009/04/23 07:58:42.4      37    -17     76     41     86 115.4  69.3  33978  286.49 0855.33
2009/04/23 07:58:42.5      41     22    116     47    125  62.0  77.1  33974  286.44 0855.33
2009/04/23 07:58:42.6      30     -6     72     31     78 101.5  76.1  33978  286.49 0855.33
2009/04/23 07:58:42.7      17     -5     79     18     81 108.6  88.0  33978  286.51 0855.33
2009/04/23 07:58:42.8      -6    -11     60     13     61 209.0  89.0  33980  286.54 0855.33
2009/04/23 07:58:42.9      -1    -37     86     38     94 182.6  75.0  33978  286.49 0855.33
2009/04/23 07:58:43.0      17   -103    124    105    162 170.7  55.4  33976  286.47 0855.33
2009/04/23 07:58:43.1     -51     17    122     54    133 288.4  74.9  33976  286.46 0855.33
2009/04/23 07:58:43.2     -60    -73    159     95    185 219.6  66.2  33972  286.41 0855.33
2009/04/23 07:58:43.3     -74    -24    140     78    160 251.6  68.5  33976  286.47 0855.33
2009/04/23 07:58:43.4     -87      0     97     88    130 269.6  53.3  33976  286.47 0855.33
2009/04/23 07:58:43.5     -72      1     44     73     85 270.9  34.4  33974  286.44 0855.33
2009/04/23 07:58:43.6     -32     46     32     57     65 324.8  31.4  33974  286.42 0855.33
2009/04/23 07:58:43.7       5     23     37     24     44  13.4  63.6  33974  286.44 0855.33
2009/04/23 07:58:43.8      76    -25     92     81    122 108.2  54.2  33974  286.42 0855.33
2009/04/23 07:58:43.9      16     42    104     45    113  20.9  75.5  33972  286.41 0855.33
2009/04/23 07:58:44.0      -9     65     58     66     87 352.0  46.4  33972  286.39 0855.33
2009/04/23 07:58:44.1      52    -27     98     59    114 118.0  65.7  33976  286.46 0855.33
2009/04/23 07:58:44.2      95    -32     84    101    131 109.1  43.8  33978  286.51 0855.33
2009/04/23 07:58:44.3       0    -63     98     64    117 180.9  64.6  33976  286.46 0855.32
2009/04/23 07:58:44.4      46    -56     96     73    120 140.3  59.0  33974  286.42 0855.32
2009/04/23 07:58:44.5      74    -26    107     79    133 110.0  60.5  33974  286.42 0855.32
2009/04/23 07:58:44.6     -14      1     99     15    100 274.3  90.0  33976  286.47 0855.32
2009/04/23 07:58:44.7     -21    -64    160     68    173 198.5  75.9  33974  286.42 0855.32
2009/04/23 07:58:44.8      20    -45     95     50    107 156.4  69.8  33976  286.47 0855.32
2009/04/23 07:58:44.9      21    -78     11     81     82 164.9   8.0  33974  286.44 0855.32
2009/04/23 07:58:45.0      27    -58      3     65     66 154.6   2.9  33976  286.46 0855.32
2009/04/23 07:58:45.1      13    -44     20     47     51 163.1  24.1  33974  286.42 0855.32
2009/04/23 07:58:45.2      20    -27     26     34     42 143.9  41.7  33976  286.46 0855.32
2009/04/23 07:58:45.3       2    -26     35     27     44 175.6  57.5  33976  286.46 0855.32
2009/04/23 07:58:45.4      -2    -35     44     36     56 184.4  56.4  33976  286.46 0855.32
2009/04/23 07:58:45.5      -1     79     31     80     85 359.1  22.0  33976  286.46 0855.32
2009/04/23 07:58:45.6     -44     31     30     54     61 305.1  31.4  33976  286.47 0855.32
2009/04/23 07:58:45.7      43     35     82     56     99  50.5  62.1  33978  286.49 0855.32
2009/04/23 07:58:45.8      19     50     40     54     67  20.9  39.7  33974  286.44 0855.32
2009/04/23 07:58:45.9     115     56     52    129    139  63.8  23.0  33974  286.44 0855.32
2009/04/23 07:58:46.0      91     23     35     95    101  75.4  21.0  33970  286.35 0855.32
2009/04/23 07:58:46.1      20     49     24     54     59  22.7  25.1  33974  286.44 0855.32
2009/04/23 07:58:46.2      44     65     39     79     88  34.3  28.2  33970  286.35 0855.32
2009/04/23 07:58:46.3      34     46     83     58    101  36.1  61.5  33974  286.42 0855.31
2009/04/23 07:58:46.4      65     41     44     78     89  57.6  32.4  33974  286.44 0855.31
2009/04/23 07:58:46.5      82     53     73     98    122  57.1  40.7  33976  286.47 0855.31
2009/04/23 07:58:46.6      46     36    100     59    116  52.2  66.2  33974  286.42 0855.31
2009/04/23 07:58:46.7      69      0     91     70    114  90.0  58.5  33972  286.39 0855.31
2009/04/23 07:58:46.8      61     36     67     71     97  59.3  49.0  33974  286.44 0855.31
2009/04/23 07:58:46.9      56     37     65     68     94  56.7  49.4  33974  286.42 0855.31
2009/04/23 07:58:47.0      72    102    101    126    161  35.2  43.0  33974  286.44 0855.31
2009/04/23 07:58:47.1     158    130    105    205    230  50.5  29.2  33976  286.46 0855.31
2009/04/23 07:58:47.2     128    149    101    197    221  40.8  29.3  33972  286.41 0855.31
2009/04/23 07:58:47.3     117     86     89    146    170  53.6  34.4  33974  286.42 0855.31
2009/04/23 07:58:47.4     111     95     86    147    170  49.6  33.1  33974  286.42 0855.31
2009/04/23 07:58:47.5     157    130     48    204    210  50.4  13.2  33974  286.42 0855.31
2009/04/23 07:58:47.6      77     20     68     80    104  75.0  44.8  33970  286.35 0855.31
2009/04/23 07:58:47.7      46    -11      4     48     49 103.3   4.9  33970  286.37 0855.31
2009/04/23 07:58:47.8      16    -65     63     68     92 165.7  47.9  33966  286.29 0855.31
2009/04/23 07:58:47.9      75    -11     80     76    110  98.8  51.6  33964  286.27 0855.31
2009/04/23 07:58:48.0      80     16     45     82     93  78.1  30.8  33976  286.46 0855.31
2009/04/23 07:58:48.1      86     46     64     98    117  62.0  35.6  33978  286.49 0855.31
2009/04/23 07:58:48.2      81     32     72     88    113  68.3  43.7  33974  286.42 0855.31
2009/04/23 07:58:48.4      65     42     84     78    114  56.7  52.1  33974  286.44 0855.30
2009/04/23 07:58:48.4      27     77     35     82     89  20.0  24.1  33976  286.46 0855.30
2009/04/23 07:58:48.5      31     93     22     99    102  18.5  12.6  33976  286.47 0855.30
2009/04/23 07:58:48.6      19     80     43     83     93  13.4  29.3  33978  286.49 0855.30
2009/04/23 07:58:48.7      14     94     46     96    106   8.9  27.3  33976  286.46 0855.30
2009/04/23 07:58:48.8      31     72     37     79     87  23.6  26.6  33974  286.42 0855.30
2009/04/23 07:58:48.9      19     68     35     71     79  16.0  28.2  33970  286.35 0855.30
2009/04/23 07:58:49.0     -28     74     44     80     91 339.1  31.4  33970  286.35 0855.30
2009/04/23 07:58:49.1      31     78      8     85     86  21.8   5.4  33968  286.32 0855.30
2009/04/23 07:58:49.2      33     79     16     86     88  22.7  10.6  33972  286.41 0855.30
2009/04/23 07:58:49.3     -22     47     31     53     61 334.6  33.5  33972  286.41 0855.30
2009/04/23 07:58:49.4     -71     47     33     86     92 303.3  21.5  33966  286.30 0855.30
2009/04/23 07:58:49.5     -53     74     32     92     98 324.4  19.4  33964  286.27 0855.30
2009/04/23 07:58:49.6     -81     78     93    113    146 314.0  43.7  33960  286.19 0855.30
2009/04/23 07:58:49.7     -97     70     93    120    151 306.0  41.7  33950  286.03 0855.30
2009/04/23 07:58:49.8    -103     63     77    121    143 301.5  35.5  33958  286.15 0855.30
2009/04/23 07:58:49.9    -141     42     46    148    156 286.8  17.3  33956  286.14 0855.30
2009/04/23 07:58:50.0    -175    103      9    204    205 300.6   2.8  33960  286.20 0855.30
2009/04/23 07:58:50.1    -132     78     98    154    182 300.7  35.5  33964  286.25 0855.30
2009/04/23 07:58:50.2    -122    101     98    159    186 309.5  35.0  33962  286.22 0855.30
2009/04/23 07:58:50.3     -58    165    104    176    204 340.4  33.5  33970  286.37 0855.30
2009/04/23 07:58:50.4    -107    151     65    186    197 324.6  20.2  33972  286.41 0855.30
2009/04/23 07:58:50.5    -202    134     92    243    259 303.5  21.7  33970  286.35 0855.30
2009/04/23 07:58:50.6    -232    111     71    258    268 295.5  15.6  33966  286.28 0855.30
2009/04/23 07:58:50.7    -191     99     91    216    234 297.3  24.2  33964  286.25 0855.30
2009/04/23 07:58:50.8    -166     35     69    170    183 281.9  23.0  33964  286.25 0855.30
2009/04/23 07:58:50.9    -198     51     66    205    216 284.6  17.9  33966  286.29 0855.30
2009/04/23 07:58:51.0    -193     51     29    200    203 285.0   8.2  33964  286.27 0855.30
2009/04/23 07:58:51.1    -174     14     27    175    178 274.8   8.8  33968  286.32 0855.30
2009/04/23 07:58:51.2    -132     -2     -9    133    134 269.1  -4.1  33970  286.37 0855.30
2009/04/23 07:58:51.3    -137     39     55    143    153 285.9  22.0  33968  286.34 0855.30
2009/04/23 07:58:51.4     -90     48     56    103    117 298.4  31.3  33970  286.37 0855.30
2009/04/23 07:58:51.5     -76     72     23    105    108 313.6  12.6  33970  286.37 0855.30
2009/04/23 07:58:51.6    -126    120     65    175    186 313.6  21.5  33970  286.35 0855.30
2009/04/23 07:58:51.7    -111     91     48    144    152 309.5  18.4  33972  286.41 0855.30
2009/04/23 07:58:51.8    -102     96     31    141    145 313.1  12.6  33972  286.39 0855.30
2009/04/23 07:58:51.9    -132     92     -2    162    163 304.9  -0.7  33972  286.39 0855.30
2009/04/23 07:58:52.0    -115     75      2    138    139 303.3   1.2  33968  286.34 0855.30
2009/04/23 07:58:52.1     -76     84     59    114    128 317.7  29.2  33970  286.37 0855.30
2009/04/23 07:58:52.2     -92    111     49    145    154 320.3  18.9  33968  286.34 0855.30
2009/04/23 07:58:52.3    -191    -11     85    192    209 266.5  25.3  33966  286.30 0855.31
2009/04/23 07:58:52.4    -157     61     19    169    171 291.5   6.7  33970  286.35 0855.31
2009/04/23 07:58:52.5    -138     65     20    153    155 295.4   7.5  33970  286.35 0855.31
2009/04/23 07:58:52.6     -84     19     45     87     97 283.3  29.3  33966  286.30 0855.31
2009/04/23 07:58:52.7    -117    -77     88    141    166 236.7  35.2  33966  286.29 0855.31
2009/04/23 07:58:52.8    -182     15      7    183    184 275.0   2.3  33974  286.42 0855.31
2009/04/23 07:58:52.9    -195    -27    -36    197    201 262.1 -10.5  33974  286.44 0855.31
2009/04/23 07:58:53.0    -173    -38     -3    178    179 257.6  -1.2  33970  286.37 0855.31
2009/04/23 07:58:53.1    -139    -82    -45    162    169 239.3 -15.5  33972  286.41 0855.31
2009/04/23 07:58:53.2    -169    -65    -52    182    189 248.9 -20.7  33978  286.51 0855.31
2009/04/23 07:58:53.3    -176    -74    -57    191    199 247.2 -21.7  33978  286.51 0855.31
2009/04/23 07:58:53.4    -172    -79    -57    190    198 245.2 -21.7  33976  286.46 0855.31
2009/04/23 07:58:53.5    -156    -73    -55    173    181 244.9 -22.8  33978  286.49 0855.31
2009/04/23 07:58:53.6    -155    -55    -59    165    175 250.5 -24.4  33974  286.44 0855.31
2009/04/23 07:58:53.7    -130    -59    -52    143    152 245.6 -24.8  33976  286.47 0855.31
2009/04/23 07:58:53.8    -130    -91    -52    160    168 234.9 -23.3  33978  286.49 0855.31
2009/04/23 07:58:53.9    -142    -92    -58    170    180 236.9 -18.9  33976  286.47 0855.31
2009/04/23 07:58:54.0    -119    -97    -38    154    159 230.9 -13.9  33974  286.44 0855.31
2009/04/23 07:58:54.1    -116    -90    -40    147    153 232.2 -15.4  33972  286.41 0855.31
2009/04/23 07:58:54.2    -148    -73    -40    166    171 243.8 -13.7  33978  286.49 0855.31
2009/04/23 07:58:54.3    -152   -102    -36    184    188 236.0 -11.3  33976  286.46 0855.31
2009/04/23 07:58:54.4    -130    -77    -43    152    159 239.4 -15.8  33974  286.44 0855.31
2009/04/23 07:58:54.5    -145    -58    -50    157    165 248.3 -17.9  33974  286.44 0855.31
2009/04/23 07:58:54.6    -183    -79    -56    200    208 246.7 -15.8  33972  286.39 0855.31
2009/04/23 07:58:54.7    -205    -38    -82    209    224 259.4 -26.9  33968  286.32 0855.31
2009/04/23 07:58:54.8    -210     -2    -87    211    228 269.2 -27.8  33968  286.34 0855.31
2009/04/23 07:58:54.9    -174     22    -22    176    178 277.5  -7.3  33968  286.32 0855.31
2009/04/23 07:58:55.1    -164     68    -57    178    186 292.6 -22.8  33968  286.32 0855.31
2009/04/23 07:58:55.2    -126     80    -50    150    158 302.5 -23.6  33970  286.35 0855.31
2009/04/23 07:58:55.3    -157     43    -20    163    165 285.5  -7.2  33966  286.30 0855.31
2009/04/23 07:58:55.4    -211     49    -62    217    226 283.3 -16.0  33974  286.42 0855.31
2009/04/23 07:58:55.5    -224     47    -65    229    238 281.9 -20.7  33980  286.53 0855.31
2009/04/23 07:58:55.6    -241     55    -90    248    263 283.0 -25.1  33978  286.50 0855.31
2009/04/23 07:58:55.7    -214     57    -61    222    231 285.1 -15.4  33976  286.46 0855.31
2009/04/23 07:58:55.8    -222     16    -72    223    234 274.3 -22.9  33974  286.44 0855.31
2009/04/23 07:58:55.9    -193     42    -57    198    206 282.4 -20.7  33976  286.46 0855.31
2009/04/23 07:58:56.0    -183     53    -60    191    201 286.2 -17.5  33978  286.51 0855.31
2009/04/23 07:58:56.1    -236     81    -54    250    256 289.0 -12.4  33976  286.45 0855.31
2009/04/23 07:58:56.2    -236     12    -98    237    256 273.0 -28.0  33980  286.52 0855.31
2009/04/23 07:58:56.3    -210    -20    -99    212    233 264.3 -31.5  33982  286.57 0855.31
2009/04/23 07:58:56.4    -197    -16   -114    198    228 265.2 -37.1  33982  286.56 0855.31
2009/04/23 07:58:56.5    -217     40    -93    221    239 280.6 -28.6  33980  286.52 0855.31
2009/04/23 07:58:56.6    -189     82    -83    207    223 293.5 -27.4  33976  286.46 0855.31
2009/04/23 07:58:56.7    -192     67    -70    204    215 289.3 -23.6  33976  286.46 0855.31
2009/04/23 07:58:56.8    -199     67    -67    211    221 288.6 -23.0  33976  286.47 0855.31
2009/04/23 07:58:56.9    -197     65    -88    208    225 288.4 -28.7  33978  286.51 0855.31
2009/04/23 07:58:57.0    -221     55   -112    228    254 284.2 -32.6  33978  286.48 0855.31
2009/04/23 07:58:57.1    -223     41    -84    227    242 280.6 -25.4  33978  286.50 0855.31
2009/04/23 07:58:57.2    -208      9    -77    209    222 272.6 -25.4  33980  286.52 0855.31
2009/04/23 07:58:57.3    -192     16    -99    193    216 274.8 -33.7  33978  286.49 0855.31
2009/04/23 07:58:57.4    -140      0   -103    141    174 270.4 -44.3  33976  286.47 0855.32
2009/04/23 07:58:57.5    -149    -11   -111    150    186 265.6 -44.5  33978  286.49 0855.32
2009/04/23 07:58:57.6    -204     21   -107    206    232 276.1 -33.9  33976  286.47 0855.32
2009/04/23 07:58:57.7    -268    -49   -115    273    296 259.5 -28.6  33980  286.53 0855.32
2009/04/23 07:58:57.8    -274    -21    -96    275    291 265.6 -24.0  33970  286.35 0855.32
2009/04/23 07:58:57.9    -302    -42   -131    306    332 262.0 -28.9  33978  286.50 0855.32
2009/04/23 07:58:58.0    -305    -67   -109    313    331 257.6 -24.0  33984  286.58 0855.32
2009/04/23 07:58:58.1    -300    -66   -112    308    327 257.6 -25.2  33986  286.63 0855.32
2009/04/23 07:58:58.2    -262    -86    -95    276    291 251.8 -23.6  33988  286.67 0855.32
2009/04/23 07:58:58.3    -274    -71    -88    284    297 255.4 -22.1  33986  286.62 0855.32
2009/04/23 07:58:58.4    -256    -58    -90    263    277 257.2 -23.8  33978  286.50 0855.32
2009/04/23 07:58:58.5    -238    -82   -107    252    273 251.0 -28.7  33976  286.45 0855.32
2009/04/23 07:58:58.6    -197    -51   -128    204    240 255.4 -39.9  33974  286.44 0855.32
2009/04/23 07:58:58.7    -209      3   -137    210    250 270.9 -40.4  33976  286.45 0855.32
2009/04/23 07:58:58.8    -178    -76   -126    194    231 246.7 -40.0  33980  286.54 0855.32
2009/04/23 07:58:58.9    -129      5   -138    130    189 272.6 -56.4  33972  286.41 0855.32
2009/04/23 07:58:59.0     -92    -30   -160     97    187 251.8 -70.4  33974  286.44 0855.32
2009/04/23 07:58:59.1    -133     12   -146    134    198 275.2 -56.9  33972  286.39 0855.32
2009/04/23 07:58:59.2    -127    -46   -145    136    198 250.0 -56.5  33974  286.42 0855.32
2009/04/23 07:58:59.3    -139    -23    -81    142    163 260.3 -36.8  33972  286.41 0855.32
2009/04/23 07:58:59.4    -182    -42    -28    187    190 256.7  -8.6  33976  286.47 0855.33
2009/04/23 07:58:59.5    -178     47    -26    185    187 284.8  -8.0  33976  286.46 0855.33
2009/04/23 07:58:59.6    -125     80   -122    149    192 302.9 -48.1  33980  286.54 0855.33
2009/04/23 07:58:59.7     -99     30   -142    104    176 286.8 -64.7  33978  286.49 0855.33
2009/04/23 07:58:59.8     -61    -44    -67     76    101 234.0 -50.8  33976  286.47 0855.33
2009/04/23 07:58:59.9     -23    -49    -55     55     77 205.4 -54.5  33976  286.47 0855.33
2009/04/23 07:59:00.0     -45    -15    -77     48     90 251.6 -69.1  33974  286.42 0855.33
2009/04/23 07:59:00.1     -30    -47    -98     56    112 212.6 -72.1  33972  286.41 0855.33
2009/04/23 07:59:00.2     -61    -39    -88     73    114 237.6 -60.8  33976  286.46 0855.33
2009/04/23 07:59:00.3     -45    -96    -83    107    135 205.3 -46.1  33974  286.44 0855.33
2009/04/23 07:59:00.4      -9   -169    -63    170    181 183.1 -25.7  33978  286.51 0855.33
2009/04/23 07:59:00.5      38   -161    -52    166    175 166.4 -17.6  33980  286.52 0855.33
2009/04/23 07:59:00.6      71   -173    -24    188    190 157.5  -7.3  33980  286.54 0855.33
2009/04/23 07:59:00.7      -6   -140    -50    141    150 182.6 -19.6  33974  286.44 0855.33
2009/04/23 07:59:00.8      10   -114    -69    115    134 174.7 -38.8  33972  286.39 0855.33
2009/04/23 07:59:00.9       0   -103    -55    104    117 180.5 -34.7  33974  286.42 0855.33
2009/04/23 07:59:01.0      -7   -158    -70    159    173 182.7 -29.5  33974  286.44 0855.33
2009/04/23 07:59:01.1      25   -189    -29    191    194 172.4  -8.8  33976  286.46 0855.33
2009/04/23 07:59:01.2      -9   -116    -42    117    124 184.5 -24.4  33976  286.47 0855.33
2009/04/23 07:59:01.3       8    -89     -7     90     91 174.7  -4.6  33978  286.51 0855.33
2009/04/23 07:59:01.4      32   -173      4    177    178 169.3   1.6  33976  286.47 0855.35
2009/04/23 07:59:01.5      41   -151      8    157    158 164.9   2.9  33978  286.51 0855.35
2009/04/23 07:59:01.6      10   -141    -45    142    149 175.6 -17.6  33978  286.51 0855.35
2009/04/23 07:59:01.7      32   -137    -37    141    146 166.7 -15.0  33978  286.49 0855.35
2009/04/23 07:59:01.8      -3   -137    -32    138    142 181.4 -13.4  33976  286.47 0855.35
2009/04/23 07:59:01.9      44   -158    -28    165    168 164.2  -9.6  33978  286.49 0855.35
2009/04/23 07:59:02.0      77   -197     45    212    217 158.4  12.2  33974  286.42 0855.35
2009/04/23 07:59:02.1      79   -253    -46    266    271 162.6  -9.8  33974  286.43 0855.35
2009/04/23 07:59:02.2      68   -225    -38    236    240 163.1  -9.3  33974  286.42 0855.35
2009/04/23 07:59:02.3     -20   -263    -52    264    270 184.5 -11.1  33972  286.40 0855.35
2009/04/23 07:59:02.4      -9   -295     -6    296    297 181.8  -1.3  33974  286.42 0855.35
2009/04/23 07:59:02.5     -57   -291    -26    297    299 191.1  -5.1  33972  286.40 0855.35
2009/04/23 07:59:02.6     -41   -292    -11    295    296 188.0  -2.2  33970  286.36 0855.35
2009/04/23 07:59:02.7     -32   -296    -11    298    299 186.2  -2.3  33974  286.42 0855.35
2009/04/23 07:59:02.8     -37   -264    -37    267    270 188.1  -8.0  33970  286.36 0855.35
2009/04/23 07:59:02.9      -9   -242    -76    243    255 182.2 -17.5  33972  286.40 0855.35
2009/04/23 07:59:03.0       0   -204    -58    205    214 180.2 -15.8  33976  286.47 0855.35
2009/04/23 07:59:03.1       3   -220    -36    221    225 179.1  -9.3  33974  286.44 0855.35
2009/04/23 07:59:03.2     -17   -221    -66    222    232 184.5 -16.6  33976  286.47 0855.35
2009/04/23 07:59:03.3      32   -257      4    260    261 172.9   1.0  33976  286.47 0855.35
2009/04/23 07:59:03.4      39   -259    -36    262    265 171.3  -8.0  33980  286.52 0855.36
2009/04/23 07:59:03.5     -64   -262    -34    270    273 193.8  -7.3  33984  286.58 0855.36
2009/04/23 07:59:03.6     -25   -228    -29    230    232 186.5  -7.3  33978  286.49 0855.36
2009/04/23 07:59:03.7     -48   -226    -46    232    237 192.0 -11.3  33982  286.55 0855.36
2009/04/23 07:59:03.8     -97   -254    -10    273    274 200.9  -2.2  33984  286.58 0855.36
2009/04/23 07:59:03.9    -121   -264    -37    291    294 204.7  -7.3  33982  286.55 0855.36
2009/04/23 07:59:04.0    -138   -191    -55    236    243 215.8 -13.3  33980  286.52 0855.36
2009/04/23 07:59:04.1    -131   -128      9    184    185 225.8   2.8  33982  286.57 0855.36
2009/04/23 07:59:04.2    -223   -147    -14    268    269 236.7  -3.2  33982  286.57 0855.36
2009/04/23 07:59:04.3    -169   -127    -67    212    222 232.9 -22.5  33980  286.54 0855.36
2009/04/23 07:59:04.4    -212   -168     -7    271    272 231.6  -1.6  33982  286.55 0855.36
2009/04/23 07:59:04.5    -201   -163    -12    260    261 230.9  -2.8  33982  286.57 0855.36
2009/04/23 07:59:04.6    -245   -175    -71    302    311 234.5 -13.3  33978  286.50 0855.36
2009/04/23 07:59:04.7    -178   -113    -28    211    213 237.6  -7.7  33980  286.52 0855.36
2009/04/23 07:59:04.8    -162    -82     56    182    191 243.1  17.1  33982  286.57 0855.36
2009/04/23 07:59:04.9    -141   -141     87    200    218 225.0  25.1  33976  286.47 0855.36
2009/04/23 07:59:05.0     -88    -99     92    133    161 221.5  38.0  33980  286.52 0855.36
2009/04/23 07:59:05.1    -145   -134     76    198    212 227.1  22.0  33978  286.51 0855.36
2009/04/23 07:59:05.2    -128   -112    101    171    198 228.9  33.5  33978  286.51 0855.36
2009/04/23 07:59:05.3    -118    -51    128    129    181 246.5  50.0  33980  286.52 0855.36
2009/04/23 07:59:05.4    -160     -9    129    161    206 266.5  43.3  33982  286.56 0855.37
2009/04/23 07:59:05.5    -138    -36     95    143    171 255.4  36.7  33982  286.57 0855.37
2009/04/23 07:59:05.6    -169    -26     52    172    180 261.0  17.1  33978  286.49 0855.37
2009/04/23 07:59:05.7    -148    -12     52    149    158 265.2  19.4  33980  286.54 0855.37
2009/04/23 07:59:05.9     -68    -27    108     74    130 248.3  62.6  33980  286.54 0855.37
2009/04/23 07:59:05.9      -1    -34     96     35    102 182.6  79.7  33982  286.56 0855.37
2009/04/23 07:59:06.0     -19    -52     98     56    112 200.0  67.7  33980  286.52 0855.37
2009/04/23 07:59:06.1     -17    -67     83     70    108 194.3  55.8  33978  286.49 0855.37
2009/04/23 07:59:06.2     -18    -91     73     93    118 191.6  42.2  33980  286.54 0855.37
2009/04/23 07:59:06.3     -56    -91     85    108    137 211.6  42.2  33984  286.59 0855.37
2009/04/23 07:59:06.4     -27    -24     39     37     53 228.7  50.1  33982  286.56 0855.37
2009/04/23 07:59:06.5     -22     22    105     32    109 314.9  82.3  33980  286.52 0855.37
2009/04/23 07:59:06.6     -11     11     94     16     95 315.0  90.0  33982  286.57 0855.37
2009/04/23 07:59:06.7      60     24    131     65    146  68.3  72.4  33982  286.57 0855.37
2009/04/23 07:59:06.8      95     31    119    100    155  71.8  56.3  33982  286.56 0855.37
2009/04/23 07:59:06.9      98     26     88    102    134  74.9  45.4  33984  286.59 0855.37
2009/04/23 07:59:07.0      54      6     53     55     76  83.0  50.0  33982  286.56 0855.37
2009/04/23 07:59:07.1      28      9     25     30     39  71.4  43.8  33982  286.56 0855.37
2009/04/23 07:59:07.2      -5    -17     -7     18     19 198.3 -23.3  33978  286.51 0855.37
2009/04/23 07:59:07.3     -30    -13     -7     33     34 246.5 -13.4  33974  286.44 0855.37
2009/04/23 07:59:07.4      11      0    -19     12     22  90.0 -69.1  33976  286.47 0855.36
2009/04/23 07:59:07.5       5      2    -25      6     25  64.7 -90.0  33978  286.51 0855.36
2009/04/23 07:59:07.6       0     11    -30     12     32   4.5 -81.5  33976  286.46 0855.36
2009/04/23 07:59:07.7     -22      0    -22     23     31 270.0 -54.4  33980  286.54 0855.36
2009/04/23 07:59:07.8     -45      1     -1     46     47 271.7  -1.3  33980  286.52 0855.36
2009/04/23 07:59:07.9    -106    -26     62    110    126 256.3  31.9  33976  286.47 0855.36
2009/04/23 07:59:08.0     -90    -32     84     96    127 250.0  45.8  33976  286.46 0855.36
2009/04/23 07:59:08.1       0     38     88     39     96 359.1  74.5  33978  286.51 0855.36
2009/04/23 07:59:08.2     -19     86     62     89    108 347.1  38.0  33980  286.54 0855.36
2009/04/23 07:59:08.3       7     97     46     98    108   4.5  27.1  33982  286.56 0855.36
2009/04/23 07:59:08.4      -6     81     79     82    113 355.5  49.4  33984  286.61 0855.36
2009/04/23 07:59:08.5     -28     86     59     91    108 341.5  35.6  33986  286.62 0855.36
2009/04/23 07:59:08.6      26     87     59     91    108  16.9  35.6  33986  286.64 0855.36
2009/04/23 07:59:08.7      58     74     18     95     97  38.3  11.1  33986  286.62 0855.36
2009/04/23 07:59:08.8      51     25     15     57     60  63.8  15.3  33984  286.61 0855.36
2009/04/23 07:59:08.9      50     -4     26     51     57  95.2  28.2  33986  286.62 0855.36
2009/04/23 07:59:09.0      62    -33     38     71     80 118.0  30.3  33986  286.64 0855.36
2009/04/23 07:59:09.1      64    -21     35     68     76 108.2  29.3  33982  286.56 0855.36
2009/04/23 07:59:09.2      51     -3     50     52     72  93.5  50.0  33980  286.54 0855.36
2009/04/23 07:59:09.3      42    -24     46     49     67 119.8  48.0  33978  286.49 0855.36
2009/04/23 07:59:09.4       4    -57     59     58     82 175.5  50.1  33984  286.59 0855.35
2009/04/23 07:59:09.5     -41    -91     54    100    113 204.5  31.3  33982  286.57 0855.35
2009/04/23 07:59:09.6     -48    -63     43     80     90 217.0  30.3  33980  286.54 0855.35
2009/04/23 07:59:09.7     -54    -54     53     77     93 225.0  37.6  33982  286.56 0855.35
2009/04/23 07:59:09.8     -49    -40     51     64     81 230.5  42.7  33984  286.59 0855.35
2009/04/23 07:59:09.9     -65    -89     48    111    120 216.0  25.1  33978  286.51 0855.35
2009/04/23 07:59:10.0     -84   -122     42    149    155 214.7  15.8  33976  286.47 0855.35
2009/04/23 07:59:10.1    -125    -97     48    159    167 232.2  16.8  33976  286.46 0855.35
2009/04/23 07:59:10.2    -136    -76     58    157    167 240.7  21.0  33976  286.46 0855.35
2009/04/23 07:59:10.3     -80     -4     54     81     97 266.5  36.0  33978  286.51 0855.35
2009/04/23 07:59:10.4      -3      8     83      9     83 334.6  90.0  33980  286.52 0855.35
2009/04/23 07:59:10.5     -31    -77     90     84    123 202.3  52.1  33978  286.49 0855.35
2009/04/23 07:59:10.6     -56   -120     87    133    158 205.3  36.5  33978  286.49 0855.35
2009/04/23 07:59:10.7     -90    -96     71    132    149 223.3  30.8  33978  286.49 0855.35
2009/04/23 07:59:10.8     -51    -80    105     95    141 212.6  52.7  33978  286.49 0855.35
2009/04/23 07:59:10.9      10    -67     96     68    117 171.1  60.6  33980  286.52 0855.35
2009/04/23 07:59:11.0       6    -46     63     47     78 172.0  59.0  33978  286.49 0855.35
2009/04/23 07:59:11.1      61    -26     35     67     75 113.5  30.3  33978  286.51 0855.35
2009/04/23 07:59:11.2      52    -43     16     68     70 129.5  13.2  33978  286.49 0855.35
2009/04/23 07:59:11.3      35    -56      0     67     68 147.5  -0.3  33976  286.47 0855.35
2009/04/23 07:59:11.4      57   -113    -11    127    128 153.3  -5.1  33978  286.51 0855.35
2009/04/23 07:59:11.5      25   -127     -2    130    131 168.9  -1.3  33978  286.51 0855.35
2009/04/23 07:59:11.6      11   -109     26    110    114 173.8  13.2  33982  286.56 0855.35
2009/04/23 07:59:11.7      10   -146     35    147    152 176.0  13.7  33982  286.56 0855.35
2009/04/23 07:59:11.8      -1   -120     29    121    125 180.5  13.7  33978  286.51 0855.35
2009/04/23 07:59:11.9      -8   -132     21    133    135 183.6   9.0  33978  286.49 0855.35
2009/04/23 07:59:12.0     -18   -102     41    104    111 190.2  22.5  33978  286.49 0855.35
2009/04/23 07:59:12.1     -54    -51     33     75     81 226.8  25.1  33978  286.49 0855.35
2009/04/23 07:59:12.2     -82    -59     29    102    107 234.0  15.8  33976  286.46 0855.35
2009/04/23 07:59:12.3     -89    -56    -10    106    107 237.5  -5.6  33978  286.49 0855.35
2009/04/23 07:59:12.4     -80    -57     11     99    100 234.5   6.5  33978  286.49 0855.35
2009/04/23 07:59:12.5     -65    -58     21     88     91 228.2  13.7  33978  286.51 0855.35
2009/04/23 07:59:12.6     -69    -67      2     97     98 226.0   1.2  33986  286.62 0855.35
2009/04/23 07:59:12.7     -42    -60     42     74     85 215.2  32.4  33984  286.59 0855.35
2009/04/23 07:59:12.8     -16    -61     26     64     69 195.1  23.0  33982  286.56 0855.35
2009/04/23 07:59:12.9      13   -121    -33    122    127 173.8 -15.5  33980  286.54 0855.35
2009/04/23 07:59:13.0      40   -122    -34    129    134 161.5 -15.0  33982  286.56 0855.35
2009/04/23 07:59:13.1      19   -145    -44    147    154 172.4 -17.0  33982  286.56 0855.35
2009/04/23 07:59:13.2      24   -128     -7    131    132 169.3  -3.1  33982  286.56 0855.35
2009/04/23 07:59:13.3     -19   -136    -18    138    140 188.1  -7.7  33980  286.54 0855.35
2009/04/23 07:59:13.4     -40   -151    -45    157    164 195.1 -16.0  33982  286.57 0855.34
2009/04/23 07:59:13.5     -61   -129    -22    143    145 205.3  -8.8  33982  286.57 0855.34
2009/04/23 07:59:13.6     -69   -120    -27    139    142 209.9 -11.3  33982  286.57 0855.34
2009/04/23 07:59:13.7     -41    -75    -17     86     88 209.0 -11.3  33978  286.51 0855.34
2009/04/23 07:59:13.8     -25    -88     49     92    104 196.0  30.8  33976  286.47 0855.34
2009/04/23 07:59:13.9      18    -92     67     94    115 168.5  39.1  33982  286.56 0855.34
2009/04/23 07:59:14.0       7   -140     82    141    163 176.9  32.9  33974  286.44 0855.34
2009/04/23 07:59:14.1      38   -130    104    136    171 163.5  41.4  33972  286.41 0855.34
2009/04/23 07:59:14.2      24   -140     69    143    158 170.3  27.8  33978  286.51 0855.34
2009/04/23 07:59:14.3       1   -145     96    146    174 179.5  36.3  33974  286.44 0855.34
2009/04/23 07:59:14.4       9   -140     77    141    160 176.0  31.0  33976  286.47 0855.34
2009/04/23 07:59:14.5      12   -133     66    134    149 174.7  27.8  33976  286.46 0855.34
2009/04/23 07:59:14.6      40    -95     92    104    138 157.3  46.4  33974  286.44 0855.34
2009/04/23 07:59:14.7     -17    -82     72     84    110 192.0  44.8  33980  286.52 0855.34
2009/04/23 07:59:14.8     -53    -33     52     63     81 237.5  43.7  33976  286.47 0855.34
2009/04/23 07:59:14.9     -56   -103    -39    118    124 208.5 -23.8  33982  286.56 0855.34
2009/04/23 07:59:15.0     -45    -95    -14    106    107 205.4  -7.7  33984  286.59 0855.34
2009/04/23 07:59:15.1     -49    -85     -4     99    100 210.3  -2.6  33982  286.57 0855.34
2009/04/23 07:59:15.2      -9    -75    -18     76     79 187.1 -13.9  33984  286.59 0855.34
2009/04/23 07:59:15.3       0    -77    -26     78     82 180.0 -23.6  33982  286.56 0855.34
2009/04/23 07:59:15.4      19    -70     -9     73     74 164.9  -7.3  33982  286.56 0855.33
2009/04/23 07:59:15.5      28    -84     -3     89     90 161.3  -2.2  33980  286.54 0855.33
2009/04/23 07:59:15.6      16    -50     49     53     72 162.2  47.9  33970  286.35 0855.33
2009/04/23 07:59:15.7      19    -35     39     41     56 151.0  50.0  33968  286.34 0855.33
2009/04/23 07:59:15.8      37    -42     37     57     67 138.6  35.6  33970  286.37 0855.33
2009/04/23 07:59:15.9     -47   -117     94    127    158 201.8  40.1  33976  286.46 0855.33
2009/04/23 07:59:16.0     -43    -92     57    102    116 205.4  31.4  33974  286.42 0855.33
2009/04/23 07:59:16.1     -37    -19     26     42     49 242.9  35.5  33974  286.44 0855.33
2009/04/23 07:59:16.2     -23     23     51     33     60 315.0  64.6  33974  286.44 0855.33
2009/04/23 07:59:16.3     -46     31     14     56     58 304.2  14.3  33974  286.44 0855.33
2009/04/23 07:59:16.4     -85    -15     25     87     91 259.9  16.3  33974  286.42 0855.32
2009/04/23 07:59:16.5    -104    -14     -5    106    107 262.0  -3.1  33972  286.41 0855.32
2009/04/23 07:59:16.6     -99    -13    -34    100    106 262.5 -19.1  33978  286.49 0855.32
2009/04/23 07:59:16.7     -69    -61    -41     93    101 228.2 -29.5  33980  286.54 0855.32
2009/04/23 07:59:16.8     -51    -63    -61     82    102 218.7 -44.5  33982  286.56 0855.32
2009/04/23 07:59:16.9     -52    -82    -64     98    117 212.5 -40.0  33980  286.52 0855.32
2009/04/23 07:59:17.0     -75    -69    -41    103    110 227.3 -27.4  33980  286.52 0855.32
2009/04/23 07:59:17.1     -40    -79    -53     89    103 207.2 -38.4  33982  286.57 0855.32
2009/04/23 07:59:17.2    -147   -102   -103    180    207 235.1 -36.8  33994  286.76 0855.32
2009/04/23 07:59:17.3     -87   -208   -138    226    264 202.7 -38.8  33980  286.53 0855.32
2009/04/23 07:59:17.4     -49   -209     12    215    216 193.3   3.3  33980  286.54 0855.32
2009/04/23 07:59:17.5     -40   -198      0    203    204 191.6   0.0  33980  286.54 0855.32
2009/04/23 07:59:17.6     -48   -143     18    152    154 198.7   6.9  33982  286.57 0855.32
2009/04/23 07:59:17.7     -38    -56     94     68    116 214.3  60.5  33978  286.51 0855.32
2009/04/23 07:59:17.8     -73     10     64     74     97 277.9  45.8  33982  286.57 0855.32
2009/04/23 07:59:17.9    -108     36     69    115    134 288.6  34.4  33984  286.59 0855.32
2009/04/23 07:59:18.0    -104     61     72    121    140 300.7  33.5  33982  286.56 0855.32
2009/04/23 07:59:18.1     -61     64    101     89    134 316.3  54.3  33980  286.54 0855.32
2009/04/23 07:59:18.2     -82     73     81    110    136 311.8  39.7  33980  286.54 0855.32
2009/04/23 07:59:18.3     -94    123    101    156    185 322.6  35.6  33978  286.51 0855.32
2009/04/23 07:59:18.4     -83     78    121    115    166 313.2  51.4  33980  286.52 0855.32
2009/04/23 07:59:18.5     -56     63    120     85    147 318.6  61.1  33978  286.51 0855.32
2009/04/23 07:59:18.6     -58     40     83     71    109 305.1  55.8  33980  286.52 0855.32
2009/04/23 07:59:18.7    -138    -23     60    141    153 260.3  24.1  33978  286.49 0855.32
2009/04/23 07:59:18.8    -197     64     30    208    211 288.2   8.2  33976  286.47 0855.32
2009/04/23 07:59:18.9    -163     47     44    170    176 286.2  14.5  33982  286.56 0855.32
2009/04/23 07:59:19.0    -138     21     75    140    158 278.8  30.6  33978  286.51 0855.32
2009/04/23 07:59:19.1    -122     -6     52    123    133 267.0  24.1  33976  286.47 0855.32
2009/04/23 07:59:19.2    -151    -40    -11    157    158 255.0  -4.1  33984  286.59 0855.32
2009/04/23 07:59:19.3     -90   -114     -5    146    147 218.3  -2.2  33984  286.59 0855.32
2009/04/23 07:59:19.4     -93   -120     26    152    155 217.8   9.9  33980  286.54 0855.32
2009/04/23 07:59:19.5     -52   -112     41    124    131 204.9  18.4  33982  286.56 0855.32
2009/04/23 07:59:19.6     -32   -103     38    109    116 197.4  19.2  33982  286.56 0855.32
2009/04/23 07:59:19.7     -82    -99     56    129    140 219.6  25.1  33980  286.54 0855.32
2009/04/23 07:59:19.8    -138    -65     74    153    169 244.8  27.4  33984  286.59 0855.32
2009/04/23 07:59:19.9    -161     41     95    167    192 284.4  32.4  33984  286.61 0855.32
2009/04/23 07:59:20.0    -169    122    125    209    243 305.9  33.7  33986  286.63 0855.32
2009/04/23 07:59:20.1    -119    119     47    169    176 314.9  15.8  33986  286.64 0855.32
2009/04/23 07:59:20.2    -123    122     44    174    180 314.9  14.3  33984  286.61 0855.32
2009/04/23 07:59:20.3    -122    131     64    180    192 317.0  19.6  33980  286.52 0855.32
2009/04/23 07:59:20.4     -93    148     55    175    184 327.9  17.7  33984  286.59 0855.32
2009/04/23 07:59:20.5    -123    186     66    224    234 326.4  16.6  33982  286.56 0855.32
2009/04/23 07:59:20.6    -104    164     45    195    201 327.5  13.2  33984  286.61 0855.32
2009/04/23 07:59:20.7     -88    159     33    182    185 331.0  10.3  33982  286.56 0855.32
2009/04/23 07:59:20.8    -103    149     19    182    184 325.3   6.1  33982  286.56 0855.32
2009/04/23 07:59:20.9    -122    147     16    192    193 320.3   4.9  33980  286.52 0855.32
2009/04/23 07:59:21.1    -106    127     -3    166    167 319.9  -1.1  33982  286.56 0855.32
2009/04/23 07:59:21.1     -86    136     22    162    164 327.7   8.0  33982  286.56 0855.32
2009/04/23 07:59:21.2    -109    113     37    158    163 315.9  13.2  33982  286.56 0855.32
2009/04/23 07:59:21.4     -79     88     28    119    123 318.1  13.2  33980  286.54 0855.32
2009/04/23 07:59:21.4     -71     77     12    105    106 317.2   6.9  33982  286.56 0855.32
2009/04/23 07:59:21.6     -61     73      4     96     97 319.9   2.8  33980  286.54 0855.32
2009/04/23 07:59:21.7     -50     62     15     80     82 321.3  11.1  33982  286.57 0855.32
2009/04/23 07:59:21.7     -37     44     32     58     66 320.4  31.4  33982  286.56 0855.32
2009/04/23 07:59:21.9     -66     25     41     71     81 290.8  32.9  33982  286.56 0855.32
2009/04/23 07:59:22.0     -94    -46     -3    105    106 243.8  -1.8  33978  286.51 0855.32
2009/04/23 07:59:22.1    -129    -61     35    143    148 244.6  13.7  33978  286.49 0855.32
2009/04/23 07:59:22.2    -144    -91    -48    171    177 237.5 -20.2  33986  286.62 0855.32
2009/04/23 07:59:22.3    -154    -94    -57    181    189 238.7 -23.0  33986  286.62 0855.32
2009/04/23 07:59:22.4    -174    -49    -39    181    186 254.1 -12.4  33986  286.64 0855.32
2009/04/23 07:59:22.5    -171     45    -61    177    187 284.8 -23.8  33988  286.67 0855.32
2009/04/23 07:59:22.6    -138     65    -51    153    162 295.2 -18.7  33992  286.73 0855.32
2009/04/23 07:59:22.7    -172    -27   -112    175    207 261.0 -40.0  33990  286.69 0855.32
2009/04/23 07:59:22.8     -88    -96    -41    131    138 222.3 -17.6  33990  286.71 0855.32
2009/04/23 07:59:22.9     -64   -135      0    150    151 205.4  -0.3  33992  286.73 0855.32
2009/04/23 07:59:23.0     -66   -217    -32    227    230 196.9  -8.2  33982  286.57 0855.32
2009/04/23 07:59:23.1     -58   -221    -27    229    231 194.7  -6.9  33986  286.62 0855.32
2009/04/23 07:59:23.2     -65   -199    -40    210    214 198.3 -10.9  33986  286.62 0855.32
2009/04/23 07:59:23.3     -41   -201    -88    206    224 191.5 -29.0  33984  286.61 0855.32
2009/04/23 07:59:23.4     -16   -160    -84    161    181 185.8 -34.2  33986  286.64 0855.32
2009/04/23 07:59:23.5     -48   -180    -99    187    211 195.1 -34.5  33986  286.62 0855.32
2009/04/23 07:59:23.6      -4   -136    -67    137    152 181.8 -31.7  33988  286.67 0855.32
2009/04/23 07:59:23.7      57   -125    -42    138    144 155.5 -22.3  33986  286.64 0855.32
2009/04/23 07:59:23.8       0    -89    -35     90     96 180.5 -25.9  33984  286.61 0855.32
2009/04/23 07:59:23.9     -65    -99    -23    119    122 213.4 -11.3  33978  286.51 0855.32
2009/04/23 07:59:24.0     -69   -146    -56    162    172 205.5 -19.1  33980  286.54 0855.32
2009/04/23 07:59:24.1     -75   -153    -65    171    182 206.1 -26.1  33986  286.64 0855.32
2009/04/23 07:59:24.2     -68   -143    -47    159    165 205.5 -21.5  33986  286.62 0855.32
2009/04/23 07:59:24.3    -133   -132    -32    188    191 225.1  -9.8  33980  286.54 0855.32
2009/04/23 07:59:24.4    -148    -70    -32    164    168 244.6 -11.1  33984  286.59 0855.32
2009/04/23 07:59:24.5    -110      0     -4    111    112 270.0  -2.2  33988  286.66 0855.32
2009/04/23 07:59:24.6     -57    -55    -27     80     84 225.9 -23.6  33992  286.74 0855.32
2009/04/23 07:59:24.7     -25    -95    -66     99    118 195.1 -41.4  33988  286.67 0855.32
2009/04/23 07:59:24.8     -30    -78    -71     84    109 201.4 -48.2  33988  286.66 0855.32
2009/04/23 07:59:24.9       5   -101    -40    102    109 176.9 -26.9  33984  286.59 0855.32
2009/04/23 07:59:25.0     -49    -67    -24     84     87 216.5 -21.2  33986  286.64 0855.32
2009/04/23 07:59:25.1     -24    -63    -11     68     69 200.9  -9.3  33982  286.56 0855.32
2009/04/23 07:59:25.2     -50    -58      3     77     78 220.5   2.9  33984  286.59 0855.32
2009/04/23 07:59:25.3     -64    -35     13     74     76 241.2  10.1  33984  286.61 0855.32
2009/04/23 07:59:25.4     -34    -23     29     42     51 235.8  37.6  33984  286.59 0855.32
2009/04/23 07:59:25.5      -1    -17     51     18     54 184.5  81.2  33990  286.69 0855.32
2009/04/23 07:59:25.6      -7     26     39     27     47 344.9  62.6  33984  286.59 0855.32
2009/04/23 07:59:25.7     -36     24     24     44     50 304.2  31.4  33986  286.62 0855.32
2009/04/23 07:59:25.8     -45     38     36     60     69 310.4  34.4  33982  286.56 0855.32
2009/04/23 07:59:25.9     -47     26     53     54     75 298.9  51.1  33984  286.59 0855.32
2009/04/23 07:59:26.0     -97    -15     73     99    123 261.2  39.7  33976  286.47 0855.32
2009/04/23 07:59:26.1    -112    -10     39    113    120 264.8  19.4  33980  286.54 0855.32
2009/04/23 07:59:26.2     -58    -56    -28     81     86 226.0 -19.1  33984  286.59 0855.32
2009/04/23 07:59:26.3    -121    -48     11    131    132 248.2   5.0  33984  286.61 0855.32
2009/04/23 07:59:26.4    -149    -50     23    158    160 251.4   8.5  33988  286.66 0855.32
2009/04/23 07:59:26.5    -173   -125    -70    214    226 234.0 -18.1  33986  286.62 0855.32
2009/04/23 07:59:26.6    -193   -122    -82    229    244 237.5 -19.7  33998  286.82 0855.32
2009/04/23 07:59:26.7    -219    -84    -38    235    239 248.9  -9.3  33990  286.68 0855.32
2009/04/23 07:59:26.8    -226    -58    -56    234    241 255.6 -13.7  33986  286.62 0855.32
2009/04/23 07:59:27.0    -240    -53    -40    246    250 257.4  -9.3  33986  286.62 0855.32
2009/04/23 07:59:27.1    -139    -89    -11    166    167 237.5  -4.1  33984  286.59 0855.32
2009/04/23 07:59:27.2    -144    -84      6    167    168 239.8   2.1  33986  286.64 0855.32
2009/04/23 07:59:27.3     -88    -89    -34    126    131 224.9 -15.4  33986  286.64 0855.32
2009/04/23 07:59:27.4     -93   -128    -13    159    160 216.1  -4.9  33982  286.57 0855.32
2009/04/23 07:59:27.5     -92    -98    -17    135    137 223.2  -7.2  33982  286.57 0855.32
2009/04/23 07:59:27.6    -128    -98      2    162    163 232.7   0.8  33978  286.49 0855.32
2009/04/23 07:59:27.7    -135   -115      9    178    179 229.6   3.1  33984  286.59 0855.32
2009/04/23 07:59:27.8     -51    -69    -19     87     90 216.5 -12.4  33992  286.74 0855.32
2009/04/23 07:59:27.9     -45    -87    -23     99    102 207.6 -13.4  33992  286.73 0855.32
2009/04/23 07:59:28.0     -44    -87    -30     98    103 207.2 -17.0  33996  286.79 0855.32
2009/04/23 07:59:28.1     -69    -94    -15    117    119 216.5  -7.7  33990  286.71 0855.32
2009/04/23 07:59:28.2    -110    -74    -49    133    141 235.8 -25.4  33988  286.66 0855.32
2009/04/23 07:59:28.3    -112    -22    -23    115    118 258.6 -11.3  33986  286.62 0855.32
2009/04/23 07:59:28.4    -114    -23    -50    117    127 258.6 -29.0  33990  286.69 0855.32
2009/04/23 07:59:28.5    -101    -32    -44    107    115 252.3 -27.5  33988  286.67 0855.32
2009/04/23 07:59:28.6    -110    -66    -50    129    138 238.9 -26.9  33982  286.57 0855.32
2009/04/23 07:59:28.7    -114    -75    -40    137    142 236.7 -21.2  33982  286.57 0855.32
2009/04/23 07:59:28.8    -103    -60    -60    120    134 239.8 -33.1  33988  286.66 0855.32
2009/04/23 07:59:28.9     -66    -87    -39    110    117 217.4 -19.7  33984  286.59 0855.32
2009/04/23 07:59:29.0     -86    -55    -51    103    114 237.1 -32.2  33984  286.61 0855.32
2009/04/23 07:59:29.1     -50    -86    -48    100    110 210.3 -31.7  33988  286.67 0855.32
2009/04/23 07:59:29.2     -78    -85    -36    116    122 222.3 -17.6  33984  286.59 0855.32
2009/04/23 07:59:29.3    -102    -79    -37    130    136 232.2 -16.0  33986  286.64 0855.32
2009/04/23 07:59:29.4     -94    -60    -34    112    118 237.1 -17.0  33986  286.64 0855.32
2009/04/23 07:59:29.5     -63    -68    -27     93     96 222.8 -21.7  33986  286.62 0855.32
2009/04/23 07:59:29.6     -71    -75    -27    104    108 223.2 -14.5  33986  286.62 0855.32
2009/04/23 07:59:29.7     -56    -53    -20     78     81 226.8 -15.0  33982  286.56 0855.32
2009/04/23 07:59:29.8     -57    -50     -3     77     78 228.7  -2.2  33980  286.52 0855.32
2009/04/23 07:59:29.9     -38    -38     29     55     62 225.0  30.3  33980  286.54 0855.32
2009/04/23 07:59:30.0     -32    -15     48     36     60 244.7  59.4  33982  286.56 0855.32
2009/04/23 07:59:30.1     -19     -6     49     20     52 251.8  77.1  33982  286.56 0855.32
2009/04/23 07:59:30.2      -4    -12     33     13     35 198.3  79.2  33982  286.57 0855.32
2009/04/23 07:59:30.3      12    -14     33     19     38 138.6  64.7  33986  286.64 0855.32
2009/04/23 07:59:30.4      25    -11     38     28     47 113.5  59.4  33984  286.59 0855.32
2009/04/23 07:59:30.5      29     -5     49     30     57  99.7  64.7  33984  286.59 0855.32
2009/04/23 07:59:30.6      32    -10     47     34     58 108.4  60.5  33980  286.54 0855.32
2009/04/23 07:59:30.7      26      0     53     27     59  90.0  70.8  33978  286.51 0855.32
2009/04/23 07:59:30.8      12    -11     45     17     48 133.3  80.2  33978  286.51 0855.32
2009/04/23 07:59:30.9       5      1     45      6     45  71.6  90.0  33976  286.47 0855.32
2009/04/23 07:59:31.0      13      0     46     14     48  90.0  80.7  33978  286.49 0855.32
2009/04/23 07:59:31.1      15     -4     49     16     51 105.1  80.7  33976  286.46 0855.32
2009/04/23 07:59:31.2      12     13     35     18     39  43.4  72.8  33976  286.46 0855.32
2009/04/23 07:59:31.3      11     23     33     26     42  27.2  57.5  33974  286.44 0855.32
2009/04/23 07:59:31.4      35      2     39     36     53  85.6  52.2  33974  286.44 0855.32
2009/04/23 07:59:31.5      42      3     36     43     56  85.6  43.8  33974  286.44 0855.32
2009/04/23 07:59:31.6      39      0     66     40     77  90.0  64.7  33972  286.41 0855.32
2009/04/23 07:59:31.7      54    -22     78     59     97 112.6  59.0  33972  286.39 0855.32
2009/04/23 07:59:31.8     102      0     75    103    127  90.0  39.7  33974  286.42 0855.32
2009/04/23 07:59:31.9      91    -30    110     97    146 108.6  54.2  33972  286.39 0855.32
2009/04/23 07:59:32.0     126    -33    119    131    176 104.6  47.1  33972  286.41 0855.32
2009/04/23 07:59:32.1     165    -39    113    170    204 103.5  36.7  33976  286.47 0855.32
2009/04/23 07:59:32.2     162    -82    106    182    210 116.9  33.1  33980  286.54 0855.32
2009/04/23 07:59:32.3     183   -120     85    220    235 123.3  22.1  33980  286.52 0855.32
2009/04/23 07:59:32.4     112    -93    103    146    178 129.6  38.8  33982  286.57 0855.32
2009/04/23 07:59:32.5      -6   -227    176    228    288 181.6  41.7  33982  286.55 0855.32
2009/04/23 07:59:32.6      57   -247     91    254    269 166.9  20.2  33982  286.57 0855.32
2009/04/23 07:59:32.7      -3   -227    111    228    253 180.9  27.8  33984  286.58 0855.32
2009/04/23 07:59:32.8      12   -181    119    182    217 176.0  36.0  33978  286.51 0855.32
2009/04/23 07:59:32.9       6   -197    174    198    263 178.2  45.8  33978  286.50 0855.32
2009/04/23 07:59:33.0      11   -324    126    325    348 178.0  22.3  33972  286.39 0855.32
2009/04/23 07:59:33.1      38   -322    189    325    375 173.1  32.9  33978  286.51 0855.32
2009/04/23 07:59:33.2      42   -248    197    252    319 170.2  42.0  33980  286.52 0855.32
2009/04/23 07:59:33.3      63   -227    206    236    313 164.4  45.6  33982  286.55 0855.32
2009/04/23 07:59:33.4      89   -270    209    285    353 161.7  39.9  33980  286.54 0855.32
2009/04/23 07:59:33.5       4   -308    115    309    329 179.1  21.3  33982  286.55 0855.32
2009/04/23 07:59:33.6      45   -327     54    331    336 172.1   9.3  33980  286.53 0855.32
2009/04/23 07:59:33.7     176   -267     18    320    321 146.6   3.3  33978  286.50 0855.32
2009/04/23 07:59:33.8     188   -218    100    289    307 139.2  19.2  33982  286.55 0855.32
2009/04/23 07:59:33.9     119   -273    123    299    323 156.4  23.7  33974  286.43 0855.32
2009/04/23 07:59:34.0      75   -252     90    264    280 163.3  18.9  33980  286.52 0855.32
2009/04/23 07:59:34.1      88   -185    156    205    257 154.5  40.9  33980  286.53 0855.32
2009/04/23 07:59:34.2     149   -116    -34    190    194 128.0 -10.1  33982  286.57 0855.32
2009/04/23 07:59:34.3     107    -52    -15    120    121 116.2  -7.3  33980  286.54 0855.32
2009/04/23 07:59:34.4      45    -50    -84     68    108 137.7 -60.8  33984  286.59 0855.32
2009/04/23 07:59:34.5      81   -112   -113    139    179 144.0 -47.9  33980  286.54 0855.33
2009/04/23 07:59:34.6     118   -104   -103    158    188 131.3 -40.1  33978  286.49 0855.33
2009/04/23 07:59:34.7     174   -108    -91    205    224 121.8 -29.7  33978  286.49 0855.33
2009/04/23 07:59:34.8     178    -49   -100    185    210 105.5 -35.2  33978  286.51 0855.33
2009/04/23 07:59:34.9     122    -44    -99    130    163 110.0 -45.3  33976  286.47 0855.33
2009/04/23 07:59:35.0     107     -4    -22    108    111  92.6 -11.9  33976  286.47 0855.33
2009/04/23 07:59:35.1     189      7     16    190    191  87.6   4.9  33978  286.51 0855.33
2009/04/23 07:59:35.2     149     30     37    152    157  78.5  13.9  33982  286.57 0855.33
2009/04/23 07:59:35.3     131     13     18    132    134  83.9   8.0  33982  286.56 0855.33
2009/04/23 07:59:35.5      78      0     -7     79     80  90.0  -5.2  33982  286.56 0855.33
2009/04/23 07:59:35.5     116     32      1    121    122  74.5   0.8  33980  286.52 0855.33
2009/04/23 07:59:35.6     104     14      5    106    107  82.0   2.8  33982  286.56 0855.33
2009/04/23 07:59:35.7     121      1      6    122    123  89.2   2.9  33980  286.54 0855.33
2009/04/23 07:59:35.8     127    -16    -35    129    134  97.5 -15.4  33980  286.52 0855.33
2009/04/23 07:59:35.9     112    -69    -42    132    138 121.5 -22.8  33982  286.56 0855.33
2009/04/23 07:59:36.0      64   -106     14    124    125 148.8   6.9  33976  286.47 0855.33
2009/04/23 07:59:36.1     117   -160     -7    199    200 143.9  -2.1  33982  286.57 0855.33
2009/04/23 07:59:36.2     136   -191     -1    235    236 144.4  -0.3  33984  286.58 0855.33
2009/04/23 07:59:36.3     128   -207    -30    244    246 148.3  -7.2  33982  286.55 0855.33
2009/04/23 07:59:36.4     112   -176    -41    209    214 147.5 -11.1  33980  286.54 0855.33
2009/04/23 07:59:36.5     134   -160    -13    209    210 140.1  -3.7  33982  286.56 0855.33
2009/04/23 07:59:36.6     140   -139     17    198    199 134.8   5.2  33978  286.51 0855.33
2009/04/23 07:59:36.7     138   -147     18    203    204 136.8   5.2  33980  286.54 0855.33
2009/04/23 07:59:36.8     132   -135     42    189    194 135.7  12.6  33982  286.56 0855.33
2009/04/23 07:59:36.9      90   -147     60    173    184 148.4  19.2  33982  286.56 0855.33
2009/04/23 07:59:37.0      76   -157     61    175    186 154.1  19.2  33982  286.56 0855.33
2009/04/23 07:59:37.1      62   -184     45    195    201 161.3  13.2  33980  286.54 0855.33
2009/04/23 07:59:37.2      84   -170     26    190    192 153.7   8.0  33984  286.61 0855.33
2009/04/23 07:59:37.3      75   -167     12    184    185 155.7   3.8  33982  286.57 0855.33
2009/04/23 07:59:37.4      65   -180     18    192    193 160.0   5.4  33980  286.54 0855.33
2009/04/23 07:59:37.5      88   -179     35    200    204 153.7  10.1  33976  286.47 0855.33
2009/04/23 07:59:37.6      42   -156     62    162    173 164.8  21.7  33980  286.52 0855.33
2009/04/23 07:59:37.7      29   -136     59    140    151 168.0  24.1  33978  286.49 0855.33
2009/04/23 07:59:37.8      52   -198     92    205    224 165.1  25.7  33982  286.56 0855.33
2009/04/23 07:59:37.9      76   -185     82    201    217 157.5  23.1  33982  286.57 0855.33
2009/04/23 07:59:38.0      82   -189     78    207    221 156.6  21.5  33980  286.54 0855.33
2009/04/23 07:59:38.1      76   -172    112    189    219 156.2  33.5  33980  286.54 0855.33
2009/04/23 07:59:38.2     104   -163     92    194    214 147.5  27.2  33980  286.54 0855.33
2009/04/23 07:59:38.3     108   -156     90    191    211 145.3  27.1  33980  286.54 0855.33
2009/04/23 07:59:38.4      88   -136    116    163    200 147.0  39.1  33982  286.56 0855.33
2009/04/23 07:59:38.5      32   -188    139    191    236 170.2  39.7  33984  286.59 0855.33
2009/04/23 07:59:38.6      71   -208    117    220    249 161.1  30.2  33984  286.60 0855.33
2009/04/23 07:59:38.7      93   -174     93    198    218 151.7  27.1  33982  286.57 0855.33
2009/04/23 07:59:38.8      69   -136     98    153    181 152.8  35.6  33982  286.57 0855.33
2009/04/23 07:59:38.9      42   -115    117    123    169 160.0  49.0  33984  286.61 0855.33
2009/04/23 07:59:39.0      27    -78    120     83    145 160.4  62.6  33982  286.56 0855.33
2009/04/23 07:59:39.1      11    -81    109     82    136 172.0  59.4  33978  286.49 0855.33
2009/04/23 07:59:39.2      58     -3    111     59    125  93.5  69.8  33980  286.54 0855.33
2009/04/23 07:59:39.3     117    -79    130    142    192 124.2  47.7  33978  286.51 0855.33
2009/04/23 07:59:39.4      83    -72     98    111    148 130.9  45.9  33976  286.47 0855.33
2009/04/23 07:59:39.5     113    -45     10    122    123 111.7   4.9  33976  286.47 0855.34
2009/04/23 07:59:39.6     163     -3      1    164    165  91.3   0.5  33978  286.49 0855.34
2009/04/23 07:59:39.7     175    -42     24    180    182 103.5   7.8  33978  286.51 0855.34
2009/04/23 07:59:39.8     156    -64     30    169    172 112.4  10.1  33978  286.49 0855.34
2009/04/23 07:59:39.9     133    -78     -8    155    156 120.6  -3.1  33980  286.52 0855.34
2009/04/23 07:59:40.0      86    -41    -33     96    101 115.3 -23.3  33974  286.42 0855.34
2009/04/23 07:59:40.1      78    -37    -73     87    113 115.3 -48.7  33980  286.52 0855.34
2009/04/23 07:59:40.2      99    -29    -90    104    137 106.4 -50.2  33978  286.51 0855.34
2009/04/23 07:59:40.3     113    -26    -91    117    148 103.3 -46.1  33980  286.54 0855.34
2009/04/23 07:59:40.4     111    -52    -80    123    146 115.4 -40.0  33978  286.51 0855.34
2009/04/23 07:59:40.5     132    -45    -63    140    153 109.1 -30.1  33978  286.51 0855.34
2009/04/23 07:59:40.6     139    -50    -55    148    157 109.9 -25.7  33980  286.52 0855.34
2009/04/23 07:59:40.7     128    -76    -44    149    155 120.7 -21.7  33980  286.52 0855.34
2009/04/23 07:59:40.8     119    -39    -40    126    133 108.2 -17.6  33982  286.57 0855.34
2009/04/23 07:59:40.9     139    -23    -19    141    143  99.6  -7.7  33982  286.56 0855.34
2009/04/23 07:59:41.0     162    -45     17    169    170 105.7   6.1  33982  286.56 0855.34
2009/04/23 07:59:41.1     162    -30     74    165    180 100.8  25.7  33982  286.56 0855.34
2009/04/23 07:59:41.2     129    -20     82    131    154  98.8  35.5  33982  286.57 0855.34
2009/04/23 07:59:41.3     110      8     -4    111    112  85.7  -2.2  33982  286.56 0855.34
2009/04/23 07:59:41.4      93     12    -26     94     97  82.1 -20.7  33984  286.59 0855.34
2009/04/23 07:59:41.5     107      8    -31    108    113  85.7 -16.0  33980  286.52 0855.34
2009/04/23 07:59:41.6     126    -10    -45    127    135  94.8 -19.7  33984  286.59 0855.34
2009/04/23 07:59:41.7     111    -58    -51    126    135 117.5 -27.4  33982  286.57 0855.34
2009/04/23 07:59:41.8      76    -10    -47     77     90  97.9 -39.4  33980  286.54 0855.34
2009/04/23 07:59:41.9      99    -43    -13    108    109 113.5  -7.3  33978  286.49 0855.34
2009/04/23 07:59:42.0      95    -95     -5    135    136 135.0  -2.2  33982  286.56 0855.34
2009/04/23 07:59:42.1     132    -76      0    153    154 119.8  -0.3  33984  286.59 0855.34
2009/04/23 07:59:42.2     124    -58     -9    138    139 115.2  -4.1  33982  286.56 0855.34
2009/04/23 07:59:42.3     156    -36    -15    161    162 103.3  -5.6  33982  286.56 0855.34
2009/04/23 07:59:42.4     139    -42     -5    146    147 106.8  -2.2  33982  286.56 0855.34
2009/04/23 07:59:42.5     124    -61     32    139    143 116.2  13.1  33980  286.54 0855.34
2009/04/23 07:59:42.6     111    -41     41    119    127 110.4  19.2  33980  286.54 0855.34
2009/04/23 07:59:42.7      90    -65     13    112    113 126.0   6.9  33982  286.56 0855.34
2009/04/23 07:59:42.8      92    -88    -11    128    129 133.6  -5.1  33980  286.54 0855.34
2009/04/23 07:59:42.9     107    -68     -2    127    128 122.5  -1.3  33978  286.49 0855.34
2009/04/23 07:59:43.0     124    -36     -5    130    131 106.4  -2.2  33980  286.52 0855.34
2009/04/23 07:59:43.1     130    -10    -11    131    132  94.8  -5.1  33980  286.52 0855.34
2009/04/23 07:59:43.2     115    -17    -15    117    118  98.4  -7.3  33982  286.57 0855.34
2009/04/23 07:59:43.3     121    -57    -43    134    140 115.4 -23.3  33982  286.57 0855.34
2009/04/23 07:59:43.4     120    -87    -40    149    155 126.0 -15.0  33984  286.59 0855.34
2009/04/23 07:59:43.5     140    -90      3    167    168 122.9   1.2  33986  286.62 0855.33
2009/04/23 07:59:43.6     121   -120     28    171    174 134.8   9.3  33986  286.62 0855.33
2009/04/23 07:59:43.7     139   -141     68    199    211 135.5  18.9  33984  286.59 0855.33
2009/04/23 07:59:43.8     138   -116     64    181    191 130.2  20.0  33982  286.57 0855.33
2009/04/23 07:59:43.9     141    -83     33    164    168 120.6  11.4  33982  286.56 0855.33
2009/04/23 07:59:44.0     215    -94     -9    235    236 113.7  -2.2  33984  286.60 0855.33
2009/04/23 07:59:44.1     211    -74    -17    224    225 109.3  -4.6  33982  286.56 0855.33
2009/04/23 07:59:44.2     266      0    -33    267    270  90.1  -7.2  33986  286.63 0855.33
2009/04/23 07:59:44.3     178    -58    -44    188    194 108.2 -13.2  33984  286.59 0855.33
2009/04/23 07:59:44.4     135    -86     13    161    162 122.4   4.9  33988  286.66 0855.33
2009/04/23 07:59:44.5     137    -63      7    152    153 114.8   2.9  33986  286.64 0855.33
2009/04/23 07:59:44.6     154    -17    -34    156    160  96.6 -12.4  33986  286.62 0855.33
2009/04/23 07:59:44.7      97      7     23     98    101  85.6  13.2  33986  286.62 0855.33
2009/04/23 07:59:44.8      67    -13     59     69     90 101.5  44.8  33986  286.64 0855.33
2009/04/23 07:59:44.9     113      8     55    114    126  85.7  27.3  33984  286.61 0855.33
2009/04/23 07:59:45.0      90     12      7     91     92  82.1   4.4  33986  286.62 0855.33
2009/04/23 07:59:45.1     125    -17     22    127    130  98.0  10.1  33986  286.62 0855.33
2009/04/23 07:59:45.2     119    -24     68    122    139 101.5  31.4  33986  286.64 0855.33
2009/04/23 07:59:45.3      86    -64     61    108    124 126.4  31.9  33984  286.61 0855.33
2009/04/23 07:59:45.4      84    -69     44    110    118 129.5  23.0  33984  286.59 0855.33
2009/04/23 07:59:45.5     124    -75     45    146    153 121.1  17.3  33984  286.61 0855.34
2009/04/23 07:59:45.6     153   -130      4    202    203 130.4   1.2  33982  286.57 0855.34
2009/04/23 07:59:45.7     160   -176     35    239    242 137.7   8.5  33986  286.62 0855.34
2009/04/23 07:59:45.8     135   -151     25    203    205 138.3   7.2  33986  286.62 0855.34
2009/04/23 07:59:45.9      61   -125     59    140    151 154.1  24.1  33978  286.49 0855.34
2009/04/23 07:59:46.0     128    -75     98    149    178 120.2  36.3  33982  286.57 0855.34
2009/04/23 07:59:46.1     128    -99     86    163    184 127.8  30.3  33986  286.64 0855.34
2009/04/23 07:59:46.2      94    -81     63    125    139 130.9  29.2  33988  286.66 0855.34
2009/04/23 07:59:46.3     113    -62     83    130    154 118.8  35.5  33984  286.61 0855.34
2009/04/23 07:59:46.4     114    -38     39    121    128 108.4  17.9  33986  286.62 0855.34
2009/04/23 07:59:46.6     181    -83     39    200    204 114.6  11.1  33982  286.56 0855.34
2009/04/23 07:59:46.6     157    -52     41    166    171 108.6  13.9  33982  286.57 0855.34
2009/04/23 07:59:46.7     173    -74      7    189    190 113.1   2.3  33982  286.57 0855.34
2009/04/23 07:59:46.8     161    -54    -29    170    173 108.6  -9.8  33980  286.54 0855.34
2009/04/23 07:59:46.9     152      6    -13    153    154  87.4  -5.1  33980  286.52 0855.34
2009/04/23 07:59:47.0      16    -34     70     38     79 154.6  69.3  33984  286.59 0855.34
2009/04/23 07:59:47.1      85    -50     19     99    101 120.7  11.1  33982  286.57 0855.34
2009/04/23 07:59:47.2      92    -69      8    116    117 126.9   4.4  33984  286.61 0855.34
2009/04/23 07:59:47.3      86    -52     32    101    107 121.5  17.9  33984  286.59 0855.34
2009/04/23 07:59:47.4      72    -72     32    103    108 134.9  17.3  33982  286.56 0855.34
2009/04/23 07:59:47.5      71    -48     52     86    100 124.2  34.4  33982  286.57 0855.34
2009/04/23 07:59:47.6       7    -23     75     25     79 161.5  81.0  33986  286.62 0855.34
2009/04/23 07:59:47.7       2    -15     64     16     65 172.0  84.9  33986  286.64 0855.34
2009/04/23 07:59:47.8       0     -3     58      4     58 189.7  90.0  33984  286.61 0855.34
2009/04/23 07:59:47.9       3    -10     54     11     55 161.5  89.1  33984  286.61 0855.34
2009/04/23 07:59:48.0     -13      8     46     16     48 302.4  81.2  33984  286.59 0855.34
2009/04/23 07:59:48.2      22     47     39     52     65  25.3  39.7  33984  286.61 0855.34
2009/04/23 07:59:48.3      62     37     42     73     84  59.3  32.9  33986  286.62 0855.34
2009/04/23 07:59:48.3      38    -59     31     71     77 147.4  25.1  33984  286.61 0855.34
2009/04/23 07:59:48.5      13    -63     59     65     87 168.4  47.5  33986  286.64 0855.34
2009/04/23 07:59:48.6      -8    -11     66     14     67 216.1  89.0  33986  286.64 0855.34
2009/04/23 07:59:48.7     -57    -41     47     71     85 234.1  36.5  33986  286.64 0855.34
2009/04/23 07:59:48.8     -18      0     36     19     40 270.0  69.8  33988  286.66 0855.34
2009/04/23 07:59:48.9       7     28     31     29     42  15.1  51.2  33986  286.64 0855.34
2009/04/23 07:59:49.0       7     -6     42     10     43 133.1  85.9  33986  286.64 0855.34
2009/04/23 07:59:49.1     -48    -15     50     51     71 251.8  50.0  33986  286.62 0855.34
2009/04/23 07:59:49.2     -52    -50     63     73     96 226.0  45.4  33984  286.61 0855.34
2009/04/23 07:59:49.3     -24    -41     77     48     90 210.7  64.7  33982  286.56 0855.34
2009/04/23 07:59:49.4      12    -51     90     53    104 166.6  66.8  33984  286.61 0855.34
2009/04/23 07:59:49.5     -26    -55     66     62     90 205.5  51.6  33982  286.56 0855.34
2009/04/23 07:59:49.6     -42    -50     58     66     87 219.6  46.4  33984  286.61 0855.33
2009/04/23 07:59:49.7     -30    -42     57     52     77 216.1  52.2  33984  286.59 0855.33
2009/04/23 07:59:49.8     -39    -25     44     47     64 237.6  48.0  33982  286.56 0855.33
2009/04/23 07:59:49.9     -45    -45     55     64     84 225.0  45.8  33982  286.57 0855.33
2009/04/23 07:59:50.0     -34    -71     -5     79     80 205.5  -4.1  33984  286.59 0855.33
2009/04/23 07:59:50.1     -28   -104      7    108    109 195.1   3.8  33984  286.59 0855.33
2009/04/23 07:59:50.2     -16   -117     19    119    121 188.1   9.5  33982  286.56 0855.33
2009/04/23 07:59:50.3     -21   -140     27    142    145 188.9  11.1  33982  286.56 0855.33
2009/04/23 07:59:50.4      -2   -112     11    113    114 181.4   5.9  33982  286.56 0855.33
2009/04/23 07:59:50.5      51   -123     46    134    142 157.3  18.9  33982  286.57 0855.33
2009/04/23 07:59:50.6      68   -124    -46    142    150 151.0 -17.9  33980  286.52 0855.33
2009/04/23 07:59:50.7      11   -153    -56    154    163 175.6 -25.1  33980  286.54 0855.33
2009/04/23 07:59:50.8      33   -180    -42    184    189 169.5 -12.9  33980  286.54 0855.33
2009/04/23 07:59:50.9      26   -154    -42    157    163 170.2 -15.2  33984  286.59 0855.33
2009/04/23 07:59:51.0      13   -141    -40    142    147 174.7 -20.2  33982  286.56 0855.33
2009/04/23 07:59:51.1      48   -146    -58    154    164 161.7 -25.7  33982  286.56 0855.33
2009/04/23 07:59:51.2      72   -148    -45    165    171 154.1 -20.0  33984  286.61 0855.33
2009/04/23 07:59:51.3     113   -173    -56    207    215 146.8 -15.2  33982  286.57 0855.33
2009/04/23 07:59:51.4     104   -158    -10    190    191 146.6  -3.3  33982  286.57 0855.33
2009/04/23 07:59:51.5     117   -121     92    169    192 136.1  31.3  33984  286.61 0855.33
2009/04/23 07:59:51.6     164    -45     43    171    177 105.5  14.3  33984  286.59 0855.33
2009/04/23 07:59:51.7     160    -35     -6    164    165 102.4  -2.2  33982  286.56 0855.33
2009/04/23 07:59:51.8     140      0      6    141    142  90.4   2.8  33986  286.62 0855.33
2009/04/23 07:59:51.9     110    -43     43    119    126 111.7  20.4  33988  286.66 0855.33
2009/04/23 07:59:52.0     146    -59     61    158    169 112.2  22.0  33986  286.62 0855.33
2009/04/23 07:59:52.1      87   -111      6    142    143 141.7   2.8  33986  286.64 0855.33
2009/04/23 07:59:52.2     102   -108     61    149    161 136.7  23.6  33984  286.61 0855.33
2009/04/23 07:59:52.3     129    -56     38    141    147 113.6  15.2  33986  286.64 0855.33
2009/04/23 07:59:52.4     109    -36    -14    115    116 108.4  -7.3  33984  286.61 0855.33
2009/04/23 07:59:52.5      34    -30     -5     46     47 132.2  -7.2  33988  286.66 0855.33
2009/04/23 07:59:52.6      60    -41    -44     73     85 124.2 -38.8  33982  286.57 0855.33
2009/04/23 07:59:52.7     123    -66     -7    140    141 118.4  -3.1  33986  286.62 0855.33
2009/04/23 07:59:52.8      85    -72    -14    112    113 130.0  -7.2  33986  286.62 0855.33
2009/04/23 07:59:52.9      73    -34    -14     81     83 115.4  -9.8  33986  286.62 0855.33
2009/04/23 07:59:53.0      85    -21     -1     88     89 104.2  -1.3  33984  286.61 0855.33
2009/04/23 07:59:53.1      47    -11    -16     49     52 104.2 -18.7  33984  286.59 0855.33
2009/04/23 07:59:53.2      41    -14    -20     44     48 109.1 -29.5  33986  286.64 0855.33
2009/04/23 07:59:53.3      41    -14    -20     44     48 109.1 -29.5  33986  286.64 0855.33
2009/04/23 07:59:53.4      56    -15     -3     59     60 105.1  -3.2  33986  286.62 0855.33
2009/04/23 07:59:53.5      76    -22     13     80     82 106.4   9.5  33984  286.59 0855.33
2009/04/23 07:59:53.6      60    -29     23     67     72 116.2  19.2  33986  286.62 0855.32
2009/04/23 07:59:53.7      74    -40     25     85     89 118.4  16.8  33986  286.64 0855.32
2009/04/23 07:59:53.8      51    -19     44     55     70 110.8  43.7  33984  286.61 0855.32
2009/04/23 07:59:53.9      65    -21     29     69     74 108.2  24.1  33986  286.64 0855.32
2009/04/23 07:59:54.0      41     -7     26     42     49  99.7  35.5  33986  286.62 0855.32
2009/04/23 07:59:54.1       5    -10     26     12     28 151.0  75.0  33984  286.61 0855.32
2009/04/23 07:59:54.2      -1      0     26      2     26 251.6  90.0  33986  286.64 0855.32
2009/04/23 07:59:54.3      -1    -22     33     23     40 182.7  61.5  33986  286.64 0855.32
2009/04/23 07:59:54.4     -18    -49     27     53     59 200.0  29.3  33984  286.61 0855.32
2009/04/23 07:59:54.5       0    -42     17     43     46 180.9  22.0  33984  286.61 0855.32
2009/04/23 07:59:54.6      32    -34     24     48     53 136.8  27.3  33986  286.62 0855.32
2009/04/23 07:59:54.7      24    -36     31     44     53 145.7  38.6  33984  286.59 0855.32
2009/04/23 07:59:54.8      18    -30     37     36     51 149.3  50.1  33982  286.57 0855.32
2009/04/23 07:59:54.9      30    -47     30     56     63 147.4  31.3  33982  286.56 0855.32
2009/04/23 07:59:55.0      22    -41     28     47     54 151.9  34.4  33982  286.57 0855.32
2009/04/23 07:59:55.1      31    -49     27     59     64 147.4  27.1  33984  286.59 0855.32
2009/04/23 07:59:55.2      28    -45     20     54     57 148.4  20.0  33984  286.59 0855.32
2009/04/23 07:59:55.3      26    -40     26     48     54 146.6  31.4  33982  286.56 0855.32
2009/04/23 07:59:55.4      13    -40     32     43     53 161.5  40.7  33982  286.57 0855.32
2009/04/23 07:59:55.5      16    -50     35     53     63 162.2  36.5  33984  286.61 0855.32
2009/04/23 07:59:55.6      12    -47     39     49     62 164.9  43.7  33982  286.56 0855.32
2009/04/23 07:59:55.7      25    -39     40     47     61 147.4  44.8  33982  286.56 0855.32
2009/04/23 07:59:55.8      28    -43     35     52     62 146.6  37.6  33986  286.62 0855.32
2009/04/23 07:59:55.9      15    -46     25     49     55 161.7  29.3  33982  286.57 0855.32
2009/04/23 07:59:56.0       4    -56     19     57     61 175.5  18.9  33984  286.59 0855.32
2009/04/23 07:59:56.1      -4    -57     11     58     60 184.5  11.1  33984  286.61 0855.32
2009/04/23 07:59:56.2      -5    -49     12     50     52 186.2  14.3  33984  286.61 0855.32
2009/04/23 07:59:56.3     -15    -57      9     60     61 195.1   9.0  33984  286.59 0855.32
2009/04/23 07:59:56.4      -6    -48     -1     49     50 188.0  -2.2  33984  286.61 0855.32
2009/04/23 07:59:56.5      -1    -51    -15     52     55 181.8 -16.6  33982  286.56 0855.32
2009/04/23 07:59:56.6       4    -51    -10     52     54 175.5 -11.3  33986  286.62 0855.32
2009/04/23 07:59:56.7       5    -64    -18     65     68 175.5 -15.4  33984  286.61 0855.32
2009/04/23 07:59:56.8      18    -66     -7     69     70 164.9  -6.2  33984  286.61 0855.32
2009/04/23 07:59:56.9      23    -67      1     72     73 160.8   0.8  33984  286.61 0855.32
2009/04/23 07:59:57.0      27    -76      5     81     82 160.0   3.8  33984  286.61 0855.32
2009/04/23 07:59:57.1      29    -75     -1     81     82 158.6  -0.7  33984  286.59 0855.32
2009/04/23 07:59:57.2      18    -75    -12     78     79 166.6  -8.8  33984  286.59 0855.32
2009/04/23 07:59:57.3      13    -83    -11     85     86 171.1  -7.7  33984  286.59 0855.32
2009/04/23 07:59:57.4      20   -103     -4    106    107 168.9  -2.2  33984  286.61 0855.32
2009/04/23 07:59:57.5       9    -97    -12     98     99 174.2  -7.3  33984  286.61 0855.32
2009/04/23 07:59:57.6      20   -102    -18    104    106 168.9  -9.8  33984  286.61 0855.31
2009/04/23 07:59:57.7      -2    -85    -44     86     96 181.8 -33.7  33986  286.64 0855.31
2009/04/23 07:59:57.8     -16    -53    -27     56     62 196.9 -31.6  33988  286.66 0855.31
2009/04/23 07:59:57.9       6    -31     -7     32     33 168.4 -13.4  33988  286.66 0855.31
2009/04/23 07:59:58.0     -12    -16     13     21     24 217.8  35.5  33988  286.67 0855.31
2009/04/23 07:59:58.1     -44    -28      9     53     54 237.6  10.1  33990  286.69 0855.31
2009/04/23 07:59:58.2      -2    -40     23     41     47 183.6  32.4  33988  286.66 0855.31
2009/04/23 07:59:58.3      17    -66     28     69     74 165.7  23.0  33988  286.67 0855.31
2009/04/23 07:59:58.4      19    -69     24     72     77 164.0  18.9  33988  286.66 0855.31
2009/04/23 07:59:58.5      46    -80      7     93     94 150.1   4.4  33988  286.66 0855.31
2009/04/23 07:59:58.6      68    -93     31    116    121 143.9  15.3  33984  286.61 0855.31
2009/04/23 07:59:58.7      33    -99     10    105    106 161.3   5.9  33984  286.61 0855.31
2009/04/23 07:59:58.8      56    -95     47    111    120 149.3  24.6  33984  286.59 0855.31
2009/04/23 07:59:58.9      71   -112     41    133    140 147.5  17.4  33982  286.56 0855.31
2009/04/23 07:59:59.0      70   -131     11    149    150 151.9   4.4  33980  286.52 0855.31
2009/04/23 07:59:59.1      16   -163      8    164    165 174.2   2.9  33978  286.49 0855.31
2009/04/23 07:59:59.2      -2   -166     21    167    169 180.9   7.2  33978  286.51 0855.31
2009/04/23 07:59:59.3       9   -172     33    173    177 176.9  11.0  33978  286.49 0855.31
2009/04/23 07:59:59.4      -2   -146     51    147    156 181.0  19.2  33978  286.51 0855.31
2009/04/23 07:59:59.5      27   -160     56    163    173 170.3  19.2  33980  286.54 0855.31
2009/04/23 07:59:59.6      27   -171     34    174    178 170.9  11.1  33984  286.59 0855.31
2009/04/23 07:59:59.7      25   -164     44    166    172 171.3  15.0  33984  286.61 0855.31
2009/04/23 07:59:59.8      37   -175     43    179    185 168.0  13.7  33984  286.61 0855.31
